<?xml version="1.0" encoding="UTF-8" standalone="no" ?>
<gpx xmlns="http://www.topografix.com/GPX/1/1" xmlns:xsi="http://www.w3.org/2001/XMLSchema-instance" xsi:schemaLocation="http://www.topografix.com/GPX/1/1 http://www.topografix.com/GPX/1/1/gpx.xsd" version="1.1" creator="VisuGPX - https://www.visugpx.com">
  <metadata>
    <name>SO-E-St Pazanne Machecoul St Lumine Bouaye</name>
    <desc><![CDATA[
SO-E-St Pazanne Machecoul St Lumine Bouaye]]></desc>
  </metadata>
  <trk>
    <name><![CDATA[2020-03-07 10:20]]></name>
    <desc><![CDATA[<p>Heure de départ: 03/07/2020 10:20<br/>Heure d'arrivée: 03/07/2020 13:55<br/>Distance: 72,3 km (03:35)<br/>Temps déplacement: 03:08<br/>Vitesse moyenne: 20,15 km/h<br/>Vitesse moyenne mouv.: 23,05 km/h<br/>Vitesse Max.: 36,55 km/h<br/>Altitude minimale: -6 m<br/>Altitude maximale: 42 m<br/>Vitesse de montée: 722,4 m/h<br/>Vitesse de descente: -686,4 m/h<br/>Gain d'altitude: 992 m<br/>Perte d'altitude: -1008 m<br/>Temps de montée: 01:22<br/>Temps de descente: 01:28<br/></p><hr align="center" width="480" style="height: 2px; width: 517px"/>]]></desc>
    <trkseg>
      <trkpt lat="47.16779" lon="-1.62666">
        <ele>41.05</ele>
        <time>2020-03-07T09:20:48Z</time>
      </trkpt>
      <trkpt lat="47.16779" lon="-1.62648">
        <ele>30.24</ele>
        <time>2020-03-07T09:21:06Z</time>
      </trkpt>
      <trkpt lat="47.16783" lon="-1.62662">
        <ele>25.12</ele>
        <time>2020-03-07T09:24:10Z</time>
      </trkpt>
      <trkpt lat="47.16779" lon="-1.62674">
        <ele>24.99</ele>
        <time>2020-03-07T09:24:17Z</time>
      </trkpt>
      <trkpt lat="47.16768" lon="-1.62681">
        <ele>24.85</ele>
        <time>2020-03-07T09:24:21Z</time>
      </trkpt>
      <trkpt lat="47.16759" lon="-1.62674">
        <ele>24.61</ele>
        <time>2020-03-07T09:24:24Z</time>
      </trkpt>
      <trkpt lat="47.16749" lon="-1.62674">
        <ele>24.4</ele>
        <time>2020-03-07T09:24:28Z</time>
      </trkpt>
      <trkpt lat="47.1674" lon="-1.6268">
        <ele>24.23</ele>
        <time>2020-03-07T09:24:31Z</time>
      </trkpt>
      <trkpt lat="47.16729" lon="-1.62686">
        <ele>24.13</ele>
        <time>2020-03-07T09:24:34Z</time>
      </trkpt>
      <trkpt lat="47.1672" lon="-1.62695">
        <ele>24.08</ele>
        <time>2020-03-07T09:24:38Z</time>
      </trkpt>
      <trkpt lat="47.16719" lon="-1.62708">
        <ele>24.05</ele>
        <time>2020-03-07T09:24:41Z</time>
      </trkpt>
      <trkpt lat="47.16724" lon="-1.62721">
        <ele>24.36</ele>
        <time>2020-03-07T09:24:44Z</time>
      </trkpt>
      <trkpt lat="47.1673" lon="-1.62733">
        <ele>25.06</ele>
        <time>2020-03-07T09:24:47Z</time>
      </trkpt>
      <trkpt lat="47.16739" lon="-1.62747">
        <ele>26.92</ele>
        <time>2020-03-07T09:24:50Z</time>
      </trkpt>
      <trkpt lat="47.16746" lon="-1.62757">
        <ele>25.65</ele>
        <time>2020-03-07T09:24:52Z</time>
      </trkpt>
      <trkpt lat="47.16758" lon="-1.62769">
        <ele>24.89</ele>
        <time>2020-03-07T09:24:55Z</time>
      </trkpt>
      <trkpt lat="47.16766" lon="-1.62776">
        <ele>24.15</ele>
        <time>2020-03-07T09:24:57Z</time>
      </trkpt>
      <trkpt lat="47.16777" lon="-1.62786">
        <ele>22.94</ele>
        <time>2020-03-07T09:24:59Z</time>
      </trkpt>
      <trkpt lat="47.16788" lon="-1.62796">
        <ele>21.44</ele>
        <time>2020-03-07T09:25:02Z</time>
      </trkpt>
      <trkpt lat="47.16797" lon="-1.62803">
        <ele>21.37</ele>
        <time>2020-03-07T09:25:04Z</time>
      </trkpt>
      <trkpt lat="47.16806" lon="-1.62811">
        <ele>22.38</ele>
        <time>2020-03-07T09:25:06Z</time>
      </trkpt>
      <trkpt lat="47.16816" lon="-1.62821">
        <ele>23.6</ele>
        <time>2020-03-07T09:25:09Z</time>
      </trkpt>
      <trkpt lat="47.16828" lon="-1.62832">
        <ele>26.11</ele>
        <time>2020-03-07T09:25:12Z</time>
      </trkpt>
      <trkpt lat="47.16836" lon="-1.62841">
        <ele>25.74</ele>
        <time>2020-03-07T09:25:14Z</time>
      </trkpt>
      <trkpt lat="47.16844" lon="-1.62849">
        <ele>25.58</ele>
        <time>2020-03-07T09:25:16Z</time>
      </trkpt>
      <trkpt lat="47.16853" lon="-1.62859">
        <ele>25.1</ele>
        <time>2020-03-07T09:25:19Z</time>
      </trkpt>
      <trkpt lat="47.1686" lon="-1.62867">
        <ele>24.74</ele>
        <time>2020-03-07T09:25:21Z</time>
      </trkpt>
      <trkpt lat="47.16868" lon="-1.62876">
        <ele>26.41</ele>
        <time>2020-03-07T09:25:23Z</time>
      </trkpt>
      <trkpt lat="47.16876" lon="-1.62887">
        <ele>28.09</ele>
        <time>2020-03-07T09:25:25Z</time>
      </trkpt>
      <trkpt lat="47.16882" lon="-1.62901">
        <ele>28.88</ele>
        <time>2020-03-07T09:25:28Z</time>
      </trkpt>
      <trkpt lat="47.16887" lon="-1.6292">
        <ele>28.34</ele>
        <time>2020-03-07T09:25:31Z</time>
      </trkpt>
      <trkpt lat="47.1689" lon="-1.62938">
        <ele>27.76</ele>
        <time>2020-03-07T09:25:34Z</time>
      </trkpt>
      <trkpt lat="47.16892" lon="-1.62956">
        <ele>27.42</ele>
        <time>2020-03-07T09:25:37Z</time>
      </trkpt>
      <trkpt lat="47.16893" lon="-1.6297">
        <ele>27.5</ele>
        <time>2020-03-07T09:25:39Z</time>
      </trkpt>
      <trkpt lat="47.16893" lon="-1.62984">
        <ele>28.49</ele>
        <time>2020-03-07T09:25:41Z</time>
      </trkpt>
      <trkpt lat="47.16891" lon="-1.62998">
        <ele>29.12</ele>
        <time>2020-03-07T09:25:43Z</time>
      </trkpt>
      <trkpt lat="47.16889" lon="-1.63013">
        <ele>29.16</ele>
        <time>2020-03-07T09:25:45Z</time>
      </trkpt>
      <trkpt lat="47.16888" lon="-1.6303">
        <ele>29.18</ele>
        <time>2020-03-07T09:25:48Z</time>
      </trkpt>
      <trkpt lat="47.16889" lon="-1.63045">
        <ele>30.81</ele>
        <time>2020-03-07T09:25:50Z</time>
      </trkpt>
      <trkpt lat="47.16889" lon="-1.63058">
        <ele>32.09</ele>
        <time>2020-03-07T09:25:52Z</time>
      </trkpt>
      <trkpt lat="47.1689" lon="-1.63074">
        <ele>32.21</ele>
        <time>2020-03-07T09:25:54Z</time>
      </trkpt>
      <trkpt lat="47.16892" lon="-1.63088">
        <ele>32.14</ele>
        <time>2020-03-07T09:25:56Z</time>
      </trkpt>
      <trkpt lat="47.16895" lon="-1.63105">
        <ele>31.97</ele>
        <time>2020-03-07T09:25:59Z</time>
      </trkpt>
      <trkpt lat="47.16898" lon="-1.63119">
        <ele>32.08</ele>
        <time>2020-03-07T09:26:01Z</time>
      </trkpt>
      <trkpt lat="47.16902" lon="-1.63133">
        <ele>31.16</ele>
        <time>2020-03-07T09:26:03Z</time>
      </trkpt>
      <trkpt lat="47.16906" lon="-1.63145">
        <ele>31.42</ele>
        <time>2020-03-07T09:26:05Z</time>
      </trkpt>
      <trkpt lat="47.16913" lon="-1.63161">
        <ele>31.9</ele>
        <time>2020-03-07T09:26:08Z</time>
      </trkpt>
      <trkpt lat="47.16919" lon="-1.63176">
        <ele>31.87</ele>
        <time>2020-03-07T09:26:10Z</time>
      </trkpt>
      <trkpt lat="47.16925" lon="-1.63187">
        <ele>31.79</ele>
        <time>2020-03-07T09:26:12Z</time>
      </trkpt>
      <trkpt lat="47.16931" lon="-1.63198">
        <ele>30.71</ele>
        <time>2020-03-07T09:26:14Z</time>
      </trkpt>
      <trkpt lat="47.16939" lon="-1.63211">
        <ele>29.76</ele>
        <time>2020-03-07T09:26:17Z</time>
      </trkpt>
      <trkpt lat="47.16949" lon="-1.63225">
        <ele>29.04</ele>
        <time>2020-03-07T09:26:20Z</time>
      </trkpt>
      <trkpt lat="47.16957" lon="-1.63235">
        <ele>28.84</ele>
        <time>2020-03-07T09:26:22Z</time>
      </trkpt>
      <trkpt lat="47.16964" lon="-1.63243">
        <ele>29.42</ele>
        <time>2020-03-07T09:26:24Z</time>
      </trkpt>
      <trkpt lat="47.16969" lon="-1.63256">
        <ele>29.42</ele>
        <time>2020-03-07T09:26:28Z</time>
      </trkpt>
      <trkpt lat="47.16965" lon="-1.6327">
        <ele>29.54</ele>
        <time>2020-03-07T09:26:31Z</time>
      </trkpt>
      <trkpt lat="47.16959" lon="-1.63283">
        <ele>29.54</ele>
        <time>2020-03-07T09:26:33Z</time>
      </trkpt>
      <trkpt lat="47.16951" lon="-1.63298">
        <ele>29.04</ele>
        <time>2020-03-07T09:26:35Z</time>
      </trkpt>
      <trkpt lat="47.16943" lon="-1.6331">
        <ele>29.14</ele>
        <time>2020-03-07T09:26:37Z</time>
      </trkpt>
      <trkpt lat="47.16935" lon="-1.63322">
        <ele>30.19</ele>
        <time>2020-03-07T09:26:39Z</time>
      </trkpt>
      <trkpt lat="47.16926" lon="-1.63333">
        <ele>31.19</ele>
        <time>2020-03-07T09:26:41Z</time>
      </trkpt>
      <trkpt lat="47.16919" lon="-1.63343">
        <ele>31.18</ele>
        <time>2020-03-07T09:26:43Z</time>
      </trkpt>
      <trkpt lat="47.16911" lon="-1.63354">
        <ele>31.05</ele>
        <time>2020-03-07T09:26:45Z</time>
      </trkpt>
      <trkpt lat="47.16903" lon="-1.63365">
        <ele>30.58</ele>
        <time>2020-03-07T09:26:47Z</time>
      </trkpt>
      <trkpt lat="47.16895" lon="-1.63376">
        <ele>29.87</ele>
        <time>2020-03-07T09:26:49Z</time>
      </trkpt>
      <trkpt lat="47.16887" lon="-1.63387">
        <ele>29.9</ele>
        <time>2020-03-07T09:26:51Z</time>
      </trkpt>
      <trkpt lat="47.1688" lon="-1.634">
        <ele>30.4</ele>
        <time>2020-03-07T09:26:53Z</time>
      </trkpt>
      <trkpt lat="47.16872" lon="-1.63411">
        <ele>30.3</ele>
        <time>2020-03-07T09:26:55Z</time>
      </trkpt>
      <trkpt lat="47.16864" lon="-1.63423">
        <ele>30.44</ele>
        <time>2020-03-07T09:26:57Z</time>
      </trkpt>
      <trkpt lat="47.16856" lon="-1.63435">
        <ele>29.85</ele>
        <time>2020-03-07T09:26:59Z</time>
      </trkpt>
      <trkpt lat="47.16849" lon="-1.63448">
        <ele>29.34</ele>
        <time>2020-03-07T09:27:01Z</time>
      </trkpt>
      <trkpt lat="47.16844" lon="-1.63459">
        <ele>28.49</ele>
        <time>2020-03-07T09:27:03Z</time>
      </trkpt>
      <trkpt lat="47.16836" lon="-1.63472">
        <ele>27.5</ele>
        <time>2020-03-07T09:27:05Z</time>
      </trkpt>
      <trkpt lat="47.16829" lon="-1.63484">
        <ele>27.46</ele>
        <time>2020-03-07T09:27:07Z</time>
      </trkpt>
      <trkpt lat="47.16822" lon="-1.63498">
        <ele>27.89</ele>
        <time>2020-03-07T09:27:09Z</time>
      </trkpt>
      <trkpt lat="47.16814" lon="-1.63511">
        <ele>29.5</ele>
        <time>2020-03-07T09:27:11Z</time>
      </trkpt>
      <trkpt lat="47.16807" lon="-1.63523">
        <ele>30.35</ele>
        <time>2020-03-07T09:27:13Z</time>
      </trkpt>
      <trkpt lat="47.16801" lon="-1.63535">
        <ele>30.74</ele>
        <time>2020-03-07T09:27:15Z</time>
      </trkpt>
      <trkpt lat="47.16793" lon="-1.6355">
        <ele>31.57</ele>
        <time>2020-03-07T09:27:17Z</time>
      </trkpt>
      <trkpt lat="47.16786" lon="-1.63563">
        <ele>32.59</ele>
        <time>2020-03-07T09:27:19Z</time>
      </trkpt>
      <trkpt lat="47.16778" lon="-1.63577">
        <ele>33.75</ele>
        <time>2020-03-07T09:27:21Z</time>
      </trkpt>
      <trkpt lat="47.1677" lon="-1.63591">
        <ele>33.41</ele>
        <time>2020-03-07T09:27:23Z</time>
      </trkpt>
      <trkpt lat="47.16764" lon="-1.63602">
        <ele>33.2</ele>
        <time>2020-03-07T09:27:25Z</time>
      </trkpt>
      <trkpt lat="47.16757" lon="-1.63613">
        <ele>32.72</ele>
        <time>2020-03-07T09:27:27Z</time>
      </trkpt>
      <trkpt lat="47.16749" lon="-1.63626">
        <ele>32.74</ele>
        <time>2020-03-07T09:27:29Z</time>
      </trkpt>
      <trkpt lat="47.16743" lon="-1.63641">
        <ele>34.04</ele>
        <time>2020-03-07T09:27:32Z</time>
      </trkpt>
      <trkpt lat="47.16752" lon="-1.63647">
        <ele>33.97</ele>
        <time>2020-03-07T09:27:34Z</time>
      </trkpt>
      <trkpt lat="47.16765" lon="-1.63653">
        <ele>33.07</ele>
        <time>2020-03-07T09:27:37Z</time>
      </trkpt>
      <trkpt lat="47.16776" lon="-1.63657">
        <ele>32.42</ele>
        <time>2020-03-07T09:27:39Z</time>
      </trkpt>
      <trkpt lat="47.16788" lon="-1.63662">
        <ele>31.47</ele>
        <time>2020-03-07T09:27:41Z</time>
      </trkpt>
      <trkpt lat="47.16799" lon="-1.63668">
        <ele>30.62</ele>
        <time>2020-03-07T09:27:43Z</time>
      </trkpt>
      <trkpt lat="47.16809" lon="-1.63672">
        <ele>30.02</ele>
        <time>2020-03-07T09:27:45Z</time>
      </trkpt>
      <trkpt lat="47.16821" lon="-1.63676">
        <ele>29.32</ele>
        <time>2020-03-07T09:27:47Z</time>
      </trkpt>
      <trkpt lat="47.16834" lon="-1.6368">
        <ele>29.52</ele>
        <time>2020-03-07T09:27:49Z</time>
      </trkpt>
      <trkpt lat="47.16844" lon="-1.63685">
        <ele>30.38</ele>
        <time>2020-03-07T09:27:51Z</time>
      </trkpt>
      <trkpt lat="47.16856" lon="-1.63689">
        <ele>30.74</ele>
        <time>2020-03-07T09:27:53Z</time>
      </trkpt>
      <trkpt lat="47.16867" lon="-1.63693">
        <ele>30.85</ele>
        <time>2020-03-07T09:27:55Z</time>
      </trkpt>
      <trkpt lat="47.16879" lon="-1.63698">
        <ele>31.18</ele>
        <time>2020-03-07T09:27:57Z</time>
      </trkpt>
      <trkpt lat="47.1689" lon="-1.63702">
        <ele>31.1</ele>
        <time>2020-03-07T09:27:59Z</time>
      </trkpt>
      <trkpt lat="47.16902" lon="-1.63706">
        <ele>30.71</ele>
        <time>2020-03-07T09:28:01Z</time>
      </trkpt>
      <trkpt lat="47.16912" lon="-1.6371">
        <ele>30.42</ele>
        <time>2020-03-07T09:28:03Z</time>
      </trkpt>
      <trkpt lat="47.16924" lon="-1.63714">
        <ele>30.15</ele>
        <time>2020-03-07T09:28:05Z</time>
      </trkpt>
      <trkpt lat="47.16936" lon="-1.63718">
        <ele>30.02</ele>
        <time>2020-03-07T09:28:07Z</time>
      </trkpt>
      <trkpt lat="47.16948" lon="-1.63723">
        <ele>30.36</ele>
        <time>2020-03-07T09:28:09Z</time>
      </trkpt>
      <trkpt lat="47.1696" lon="-1.63726">
        <ele>31.47</ele>
        <time>2020-03-07T09:28:11Z</time>
      </trkpt>
      <trkpt lat="47.16971" lon="-1.63729">
        <ele>32.09</ele>
        <time>2020-03-07T09:28:13Z</time>
      </trkpt>
      <trkpt lat="47.16983" lon="-1.63733">
        <ele>31.77</ele>
        <time>2020-03-07T09:28:15Z</time>
      </trkpt>
      <trkpt lat="47.16994" lon="-1.63737">
        <ele>31.74</ele>
        <time>2020-03-07T09:28:17Z</time>
      </trkpt>
      <trkpt lat="47.17005" lon="-1.63742">
        <ele>31.92</ele>
        <time>2020-03-07T09:28:19Z</time>
      </trkpt>
      <trkpt lat="47.17017" lon="-1.63746">
        <ele>31.98</ele>
        <time>2020-03-07T09:28:21Z</time>
      </trkpt>
      <trkpt lat="47.17028" lon="-1.63751">
        <ele>31.79</ele>
        <time>2020-03-07T09:28:23Z</time>
      </trkpt>
      <trkpt lat="47.1704" lon="-1.63756">
        <ele>31.88</ele>
        <time>2020-03-07T09:28:25Z</time>
      </trkpt>
      <trkpt lat="47.17051" lon="-1.63762">
        <ele>31.84</ele>
        <time>2020-03-07T09:28:27Z</time>
      </trkpt>
      <trkpt lat="47.17061" lon="-1.63774">
        <ele>31.89</ele>
        <time>2020-03-07T09:28:29Z</time>
      </trkpt>
      <trkpt lat="47.17068" lon="-1.63788">
        <ele>32.07</ele>
        <time>2020-03-07T09:28:31Z</time>
      </trkpt>
      <trkpt lat="47.17073" lon="-1.63803">
        <ele>31.92</ele>
        <time>2020-03-07T09:28:33Z</time>
      </trkpt>
      <trkpt lat="47.17079" lon="-1.63819">
        <ele>31.41</ele>
        <time>2020-03-07T09:28:35Z</time>
      </trkpt>
      <trkpt lat="47.17083" lon="-1.63833">
        <ele>31.25</ele>
        <time>2020-03-07T09:28:37Z</time>
      </trkpt>
      <trkpt lat="47.17089" lon="-1.63847">
        <ele>30.98</ele>
        <time>2020-03-07T09:28:39Z</time>
      </trkpt>
      <trkpt lat="47.17094" lon="-1.63862">
        <ele>30.57</ele>
        <time>2020-03-07T09:28:41Z</time>
      </trkpt>
      <trkpt lat="47.17099" lon="-1.63878">
        <ele>30.42</ele>
        <time>2020-03-07T09:28:43Z</time>
      </trkpt>
      <trkpt lat="47.17104" lon="-1.63892">
        <ele>31.1</ele>
        <time>2020-03-07T09:28:45Z</time>
      </trkpt>
      <trkpt lat="47.17109" lon="-1.63906">
        <ele>32</ele>
        <time>2020-03-07T09:28:47Z</time>
      </trkpt>
      <trkpt lat="47.17114" lon="-1.6392">
        <ele>32.47</ele>
        <time>2020-03-07T09:28:49Z</time>
      </trkpt>
      <trkpt lat="47.17119" lon="-1.63934">
        <ele>32.99</ele>
        <time>2020-03-07T09:28:51Z</time>
      </trkpt>
      <trkpt lat="47.17128" lon="-1.63942">
        <ele>33.63</ele>
        <time>2020-03-07T09:28:54Z</time>
      </trkpt>
      <trkpt lat="47.17136" lon="-1.63953">
        <ele>33.18</ele>
        <time>2020-03-07T09:28:57Z</time>
      </trkpt>
      <trkpt lat="47.17138" lon="-1.6397">
        <ele>33.3</ele>
        <time>2020-03-07T09:29:00Z</time>
      </trkpt>
      <trkpt lat="47.17138" lon="-1.63983">
        <ele>33.06</ele>
        <time>2020-03-07T09:29:02Z</time>
      </trkpt>
      <trkpt lat="47.17137" lon="-1.64">
        <ele>31.66</ele>
        <time>2020-03-07T09:29:04Z</time>
      </trkpt>
      <trkpt lat="47.17136" lon="-1.64015">
        <ele>32.1</ele>
        <time>2020-03-07T09:29:06Z</time>
      </trkpt>
      <trkpt lat="47.17134" lon="-1.64033">
        <ele>33.01</ele>
        <time>2020-03-07T09:29:08Z</time>
      </trkpt>
      <trkpt lat="47.17131" lon="-1.64047">
        <ele>33.03</ele>
        <time>2020-03-07T09:29:10Z</time>
      </trkpt>
      <trkpt lat="47.1713" lon="-1.64065">
        <ele>33.34</ele>
        <time>2020-03-07T09:29:12Z</time>
      </trkpt>
      <trkpt lat="47.17128" lon="-1.64078">
        <ele>34.06</ele>
        <time>2020-03-07T09:29:14Z</time>
      </trkpt>
      <trkpt lat="47.17126" lon="-1.64097">
        <ele>33.61</ele>
        <time>2020-03-07T09:29:16Z</time>
      </trkpt>
      <trkpt lat="47.17124" lon="-1.64113">
        <ele>33.16</ele>
        <time>2020-03-07T09:29:18Z</time>
      </trkpt>
      <trkpt lat="47.17123" lon="-1.64131">
        <ele>33.21</ele>
        <time>2020-03-07T09:29:20Z</time>
      </trkpt>
      <trkpt lat="47.17121" lon="-1.6415">
        <ele>34.07</ele>
        <time>2020-03-07T09:29:22Z</time>
      </trkpt>
      <trkpt lat="47.1712" lon="-1.64168">
        <ele>33.42</ele>
        <time>2020-03-07T09:29:24Z</time>
      </trkpt>
      <trkpt lat="47.17118" lon="-1.64189">
        <ele>31.71</ele>
        <time>2020-03-07T09:29:27Z</time>
      </trkpt>
      <trkpt lat="47.17116" lon="-1.64205">
        <ele>30.64</ele>
        <time>2020-03-07T09:29:29Z</time>
      </trkpt>
      <trkpt lat="47.17114" lon="-1.64223">
        <ele>30.82</ele>
        <time>2020-03-07T09:29:31Z</time>
      </trkpt>
      <trkpt lat="47.17113" lon="-1.6424">
        <ele>31.7</ele>
        <time>2020-03-07T09:29:33Z</time>
      </trkpt>
      <trkpt lat="47.17111" lon="-1.64256">
        <ele>32.41</ele>
        <time>2020-03-07T09:29:35Z</time>
      </trkpt>
      <trkpt lat="47.17109" lon="-1.64273">
        <ele>32.95</ele>
        <time>2020-03-07T09:29:37Z</time>
      </trkpt>
      <trkpt lat="47.17108" lon="-1.6429">
        <ele>31.84</ele>
        <time>2020-03-07T09:29:39Z</time>
      </trkpt>
      <trkpt lat="47.17106" lon="-1.64307">
        <ele>31</ele>
        <time>2020-03-07T09:29:41Z</time>
      </trkpt>
      <trkpt lat="47.17104" lon="-1.64323">
        <ele>29.68</ele>
        <time>2020-03-07T09:29:43Z</time>
      </trkpt>
      <trkpt lat="47.17102" lon="-1.6434">
        <ele>28.95</ele>
        <time>2020-03-07T09:29:45Z</time>
      </trkpt>
      <trkpt lat="47.171" lon="-1.64359">
        <ele>28.33</ele>
        <time>2020-03-07T09:29:47Z</time>
      </trkpt>
      <trkpt lat="47.17099" lon="-1.64376">
        <ele>28.84</ele>
        <time>2020-03-07T09:29:49Z</time>
      </trkpt>
      <trkpt lat="47.17098" lon="-1.64391">
        <ele>29.39</ele>
        <time>2020-03-07T09:29:51Z</time>
      </trkpt>
      <trkpt lat="47.17096" lon="-1.64412">
        <ele>29.85</ele>
        <time>2020-03-07T09:29:53Z</time>
      </trkpt>
      <trkpt lat="47.17094" lon="-1.64429">
        <ele>30.6</ele>
        <time>2020-03-07T09:29:55Z</time>
      </trkpt>
      <trkpt lat="47.17093" lon="-1.64447">
        <ele>32.03</ele>
        <time>2020-03-07T09:29:57Z</time>
      </trkpt>
      <trkpt lat="47.17091" lon="-1.64465">
        <ele>32.47</ele>
        <time>2020-03-07T09:29:58Z</time>
      </trkpt>
      <trkpt lat="47.1709" lon="-1.64483">
        <ele>31.39</ele>
        <time>2020-03-07T09:30:00Z</time>
      </trkpt>
      <trkpt lat="47.17089" lon="-1.64498">
        <ele>30.49</ele>
        <time>2020-03-07T09:30:02Z</time>
      </trkpt>
      <trkpt lat="47.17088" lon="-1.64517">
        <ele>30.17</ele>
        <time>2020-03-07T09:30:04Z</time>
      </trkpt>
      <trkpt lat="47.17087" lon="-1.64537">
        <ele>29.92</ele>
        <time>2020-03-07T09:30:06Z</time>
      </trkpt>
      <trkpt lat="47.17087" lon="-1.64555">
        <ele>29.55</ele>
        <time>2020-03-07T09:30:08Z</time>
      </trkpt>
      <trkpt lat="47.17087" lon="-1.64573">
        <ele>29.61</ele>
        <time>2020-03-07T09:30:10Z</time>
      </trkpt>
      <trkpt lat="47.17087" lon="-1.64591">
        <ele>30.23</ele>
        <time>2020-03-07T09:30:12Z</time>
      </trkpt>
      <trkpt lat="47.17088" lon="-1.64609">
        <ele>31.87</ele>
        <time>2020-03-07T09:30:14Z</time>
      </trkpt>
      <trkpt lat="47.17088" lon="-1.64628">
        <ele>33.05</ele>
        <time>2020-03-07T09:30:16Z</time>
      </trkpt>
      <trkpt lat="47.17087" lon="-1.64643">
        <ele>33.1</ele>
        <time>2020-03-07T09:30:18Z</time>
      </trkpt>
      <trkpt lat="47.17088" lon="-1.64664">
        <ele>33.08</ele>
        <time>2020-03-07T09:30:20Z</time>
      </trkpt>
      <trkpt lat="47.17089" lon="-1.64679">
        <ele>32.35</ele>
        <time>2020-03-07T09:30:22Z</time>
      </trkpt>
      <trkpt lat="47.17089" lon="-1.64697">
        <ele>32.34</ele>
        <time>2020-03-07T09:30:24Z</time>
      </trkpt>
      <trkpt lat="47.17089" lon="-1.64714">
        <ele>32.02</ele>
        <time>2020-03-07T09:30:26Z</time>
      </trkpt>
      <trkpt lat="47.1709" lon="-1.64732">
        <ele>31.09</ele>
        <time>2020-03-07T09:30:28Z</time>
      </trkpt>
      <trkpt lat="47.1709" lon="-1.64749">
        <ele>30.9</ele>
        <time>2020-03-07T09:30:30Z</time>
      </trkpt>
      <trkpt lat="47.17091" lon="-1.64764">
        <ele>31.12</ele>
        <time>2020-03-07T09:30:32Z</time>
      </trkpt>
      <trkpt lat="47.17093" lon="-1.6478">
        <ele>30.27</ele>
        <time>2020-03-07T09:30:34Z</time>
      </trkpt>
      <trkpt lat="47.17094" lon="-1.64799">
        <ele>29.77</ele>
        <time>2020-03-07T09:30:36Z</time>
      </trkpt>
      <trkpt lat="47.17098" lon="-1.64816">
        <ele>28.82</ele>
        <time>2020-03-07T09:30:38Z</time>
      </trkpt>
      <trkpt lat="47.17101" lon="-1.64835">
        <ele>29.33</ele>
        <time>2020-03-07T09:30:40Z</time>
      </trkpt>
      <trkpt lat="47.17102" lon="-1.64855">
        <ele>30.02</ele>
        <time>2020-03-07T09:30:42Z</time>
      </trkpt>
      <trkpt lat="47.17103" lon="-1.64871">
        <ele>29.95</ele>
        <time>2020-03-07T09:30:44Z</time>
      </trkpt>
      <trkpt lat="47.17105" lon="-1.64889">
        <ele>29.71</ele>
        <time>2020-03-07T09:30:46Z</time>
      </trkpt>
      <trkpt lat="47.17106" lon="-1.64908">
        <ele>29.15</ele>
        <time>2020-03-07T09:30:48Z</time>
      </trkpt>
      <trkpt lat="47.17106" lon="-1.64924">
        <ele>28.39</ele>
        <time>2020-03-07T09:30:50Z</time>
      </trkpt>
      <trkpt lat="47.17107" lon="-1.64942">
        <ele>28.12</ele>
        <time>2020-03-07T09:30:52Z</time>
      </trkpt>
      <trkpt lat="47.17108" lon="-1.64961">
        <ele>28.17</ele>
        <time>2020-03-07T09:30:54Z</time>
      </trkpt>
      <trkpt lat="47.17109" lon="-1.64978">
        <ele>28</ele>
        <time>2020-03-07T09:30:56Z</time>
      </trkpt>
      <trkpt lat="47.1711" lon="-1.64995">
        <ele>28.66</ele>
        <time>2020-03-07T09:30:58Z</time>
      </trkpt>
      <trkpt lat="47.1711" lon="-1.65009">
        <ele>28.77</ele>
        <time>2020-03-07T09:31:00Z</time>
      </trkpt>
      <trkpt lat="47.17112" lon="-1.65029">
        <ele>29.31</ele>
        <time>2020-03-07T09:31:02Z</time>
      </trkpt>
      <trkpt lat="47.17113" lon="-1.65048">
        <ele>30.1</ele>
        <time>2020-03-07T09:31:04Z</time>
      </trkpt>
      <trkpt lat="47.17114" lon="-1.65067">
        <ele>31.18</ele>
        <time>2020-03-07T09:31:06Z</time>
      </trkpt>
      <trkpt lat="47.17116" lon="-1.65085">
        <ele>32.74</ele>
        <time>2020-03-07T09:31:08Z</time>
      </trkpt>
      <trkpt lat="47.17116" lon="-1.65104">
        <ele>34.43</ele>
        <time>2020-03-07T09:31:10Z</time>
      </trkpt>
      <trkpt lat="47.17118" lon="-1.6512">
        <ele>35.5</ele>
        <time>2020-03-07T09:31:12Z</time>
      </trkpt>
      <trkpt lat="47.17119" lon="-1.65137">
        <ele>35.57</ele>
        <time>2020-03-07T09:31:14Z</time>
      </trkpt>
      <trkpt lat="47.17119" lon="-1.65154">
        <ele>34.46</ele>
        <time>2020-03-07T09:31:16Z</time>
      </trkpt>
      <trkpt lat="47.1712" lon="-1.65168">
        <ele>33.81</ele>
        <time>2020-03-07T09:31:18Z</time>
      </trkpt>
      <trkpt lat="47.17121" lon="-1.65184">
        <ele>32.67</ele>
        <time>2020-03-07T09:31:20Z</time>
      </trkpt>
      <trkpt lat="47.17122" lon="-1.65201">
        <ele>31.9</ele>
        <time>2020-03-07T09:31:22Z</time>
      </trkpt>
      <trkpt lat="47.17123" lon="-1.65218">
        <ele>31.43</ele>
        <time>2020-03-07T09:31:24Z</time>
      </trkpt>
      <trkpt lat="47.17125" lon="-1.65232">
        <ele>30.38</ele>
        <time>2020-03-07T09:31:26Z</time>
      </trkpt>
      <trkpt lat="47.17127" lon="-1.65245">
        <ele>30.34</ele>
        <time>2020-03-07T09:31:28Z</time>
      </trkpt>
      <trkpt lat="47.17128" lon="-1.65264">
        <ele>30.45</ele>
        <time>2020-03-07T09:31:30Z</time>
      </trkpt>
      <trkpt lat="47.17132" lon="-1.65283">
        <ele>32.83</ele>
        <time>2020-03-07T09:31:33Z</time>
      </trkpt>
      <trkpt lat="47.17137" lon="-1.65296">
        <ele>33.49</ele>
        <time>2020-03-07T09:31:35Z</time>
      </trkpt>
      <trkpt lat="47.1714" lon="-1.65312">
        <ele>33.36</ele>
        <time>2020-03-07T09:31:37Z</time>
      </trkpt>
      <trkpt lat="47.17135" lon="-1.65326">
        <ele>35.07</ele>
        <time>2020-03-07T09:31:39Z</time>
      </trkpt>
      <trkpt lat="47.17127" lon="-1.65337">
        <ele>36.13</ele>
        <time>2020-03-07T09:31:41Z</time>
      </trkpt>
      <trkpt lat="47.1712" lon="-1.65349">
        <ele>35.53</ele>
        <time>2020-03-07T09:31:43Z</time>
      </trkpt>
      <trkpt lat="47.17115" lon="-1.65367">
        <ele>35.02</ele>
        <time>2020-03-07T09:31:45Z</time>
      </trkpt>
      <trkpt lat="47.17116" lon="-1.65382">
        <ele>35.48</ele>
        <time>2020-03-07T09:31:47Z</time>
      </trkpt>
      <trkpt lat="47.17117" lon="-1.65398">
        <ele>35.82</ele>
        <time>2020-03-07T09:31:49Z</time>
      </trkpt>
      <trkpt lat="47.17117" lon="-1.65414">
        <ele>36.61</ele>
        <time>2020-03-07T09:31:51Z</time>
      </trkpt>
      <trkpt lat="47.17118" lon="-1.65428">
        <ele>36.86</ele>
        <time>2020-03-07T09:31:53Z</time>
      </trkpt>
      <trkpt lat="47.17119" lon="-1.65443">
        <ele>35.92</ele>
        <time>2020-03-07T09:31:55Z</time>
      </trkpt>
      <trkpt lat="47.17118" lon="-1.65459">
        <ele>34.88</ele>
        <time>2020-03-07T09:31:57Z</time>
      </trkpt>
      <trkpt lat="47.17117" lon="-1.65474">
        <ele>35.13</ele>
        <time>2020-03-07T09:31:59Z</time>
      </trkpt>
      <trkpt lat="47.17115" lon="-1.65494">
        <ele>35.12</ele>
        <time>2020-03-07T09:32:02Z</time>
      </trkpt>
      <trkpt lat="47.17112" lon="-1.65512">
        <ele>35.46</ele>
        <time>2020-03-07T09:32:05Z</time>
      </trkpt>
      <trkpt lat="47.17107" lon="-1.65527">
        <ele>35.55</ele>
        <time>2020-03-07T09:32:07Z</time>
      </trkpt>
      <trkpt lat="47.17101" lon="-1.65541">
        <ele>34.39</ele>
        <time>2020-03-07T09:32:09Z</time>
      </trkpt>
      <trkpt lat="47.17093" lon="-1.65558">
        <ele>34.13</ele>
        <time>2020-03-07T09:32:12Z</time>
      </trkpt>
      <trkpt lat="47.17086" lon="-1.65571">
        <ele>34.69</ele>
        <time>2020-03-07T09:32:14Z</time>
      </trkpt>
      <trkpt lat="47.17079" lon="-1.65582">
        <ele>36.61</ele>
        <time>2020-03-07T09:32:16Z</time>
      </trkpt>
      <trkpt lat="47.17071" lon="-1.65595">
        <ele>37.96</ele>
        <time>2020-03-07T09:32:18Z</time>
      </trkpt>
      <trkpt lat="47.17064" lon="-1.65605">
        <ele>37.83</ele>
        <time>2020-03-07T09:32:20Z</time>
      </trkpt>
      <trkpt lat="47.17055" lon="-1.65618">
        <ele>37.57</ele>
        <time>2020-03-07T09:32:22Z</time>
      </trkpt>
      <trkpt lat="47.17048" lon="-1.6563">
        <ele>38.23</ele>
        <time>2020-03-07T09:32:24Z</time>
      </trkpt>
      <trkpt lat="47.17041" lon="-1.65643">
        <ele>37.69</ele>
        <time>2020-03-07T09:32:26Z</time>
      </trkpt>
      <trkpt lat="47.17035" lon="-1.65655">
        <ele>37.91</ele>
        <time>2020-03-07T09:32:28Z</time>
      </trkpt>
      <trkpt lat="47.17027" lon="-1.65671">
        <ele>37.55</ele>
        <time>2020-03-07T09:32:30Z</time>
      </trkpt>
      <trkpt lat="47.1702" lon="-1.65685">
        <ele>37.01</ele>
        <time>2020-03-07T09:32:32Z</time>
      </trkpt>
      <trkpt lat="47.17013" lon="-1.657">
        <ele>36.46</ele>
        <time>2020-03-07T09:32:34Z</time>
      </trkpt>
      <trkpt lat="47.17007" lon="-1.65717">
        <ele>36.85</ele>
        <time>2020-03-07T09:32:36Z</time>
      </trkpt>
      <trkpt lat="47.17004" lon="-1.65734">
        <ele>34.94</ele>
        <time>2020-03-07T09:32:38Z</time>
      </trkpt>
      <trkpt lat="47.17002" lon="-1.65751">
        <ele>34.09</ele>
        <time>2020-03-07T09:32:40Z</time>
      </trkpt>
      <trkpt lat="47.16994" lon="-1.65765">
        <ele>33.68</ele>
        <time>2020-03-07T09:32:42Z</time>
      </trkpt>
      <trkpt lat="47.16985" lon="-1.65775">
        <ele>33.73</ele>
        <time>2020-03-07T09:32:44Z</time>
      </trkpt>
      <trkpt lat="47.16972" lon="-1.65783">
        <ele>34.48</ele>
        <time>2020-03-07T09:32:46Z</time>
      </trkpt>
      <trkpt lat="47.16961" lon="-1.6579">
        <ele>35.07</ele>
        <time>2020-03-07T09:32:48Z</time>
      </trkpt>
      <trkpt lat="47.16953" lon="-1.65805">
        <ele>35.53</ele>
        <time>2020-03-07T09:32:50Z</time>
      </trkpt>
      <trkpt lat="47.16946" lon="-1.65818">
        <ele>34.5</ele>
        <time>2020-03-07T09:32:52Z</time>
      </trkpt>
      <trkpt lat="47.16938" lon="-1.65835">
        <ele>33.99</ele>
        <time>2020-03-07T09:32:54Z</time>
      </trkpt>
      <trkpt lat="47.1693" lon="-1.65852">
        <ele>33.43</ele>
        <time>2020-03-07T09:32:56Z</time>
      </trkpt>
      <trkpt lat="47.16922" lon="-1.65869">
        <ele>33.33</ele>
        <time>2020-03-07T09:32:58Z</time>
      </trkpt>
      <trkpt lat="47.16916" lon="-1.65882">
        <ele>32.31</ele>
        <time>2020-03-07T09:33:00Z</time>
      </trkpt>
      <trkpt lat="47.16909" lon="-1.65898">
        <ele>31.57</ele>
        <time>2020-03-07T09:33:02Z</time>
      </trkpt>
      <trkpt lat="47.16901" lon="-1.65913">
        <ele>31.34</ele>
        <time>2020-03-07T09:33:04Z</time>
      </trkpt>
      <trkpt lat="47.16892" lon="-1.65929">
        <ele>31.78</ele>
        <time>2020-03-07T09:33:06Z</time>
      </trkpt>
      <trkpt lat="47.16884" lon="-1.65946">
        <ele>32.86</ele>
        <time>2020-03-07T09:33:08Z</time>
      </trkpt>
      <trkpt lat="47.16877" lon="-1.65962">
        <ele>32.7</ele>
        <time>2020-03-07T09:33:10Z</time>
      </trkpt>
      <trkpt lat="47.1687" lon="-1.65979">
        <ele>32.27</ele>
        <time>2020-03-07T09:33:12Z</time>
      </trkpt>
      <trkpt lat="47.16864" lon="-1.65996">
        <ele>31.83</ele>
        <time>2020-03-07T09:33:14Z</time>
      </trkpt>
      <trkpt lat="47.16859" lon="-1.66014">
        <ele>31.89</ele>
        <time>2020-03-07T09:33:16Z</time>
      </trkpt>
      <trkpt lat="47.16855" lon="-1.66029">
        <ele>31.79</ele>
        <time>2020-03-07T09:33:18Z</time>
      </trkpt>
      <trkpt lat="47.16851" lon="-1.66049">
        <ele>30.91</ele>
        <time>2020-03-07T09:33:20Z</time>
      </trkpt>
      <trkpt lat="47.16849" lon="-1.66064">
        <ele>29.32</ele>
        <time>2020-03-07T09:33:22Z</time>
      </trkpt>
      <trkpt lat="47.16847" lon="-1.66082">
        <ele>29.51</ele>
        <time>2020-03-07T09:33:24Z</time>
      </trkpt>
      <trkpt lat="47.16846" lon="-1.661">
        <ele>29.72</ele>
        <time>2020-03-07T09:33:26Z</time>
      </trkpt>
      <trkpt lat="47.16845" lon="-1.66119">
        <ele>29.96</ele>
        <time>2020-03-07T09:33:28Z</time>
      </trkpt>
      <trkpt lat="47.16844" lon="-1.66135">
        <ele>30.75</ele>
        <time>2020-03-07T09:33:30Z</time>
      </trkpt>
      <trkpt lat="47.16844" lon="-1.66154">
        <ele>31.03</ele>
        <time>2020-03-07T09:33:32Z</time>
      </trkpt>
      <trkpt lat="47.16845" lon="-1.66173">
        <ele>31.23</ele>
        <time>2020-03-07T09:33:34Z</time>
      </trkpt>
      <trkpt lat="47.16846" lon="-1.66195">
        <ele>30.1</ele>
        <time>2020-03-07T09:33:36Z</time>
      </trkpt>
      <trkpt lat="47.16846" lon="-1.66213">
        <ele>30.69</ele>
        <time>2020-03-07T09:33:38Z</time>
      </trkpt>
      <trkpt lat="47.16848" lon="-1.6623">
        <ele>31.29</ele>
        <time>2020-03-07T09:33:40Z</time>
      </trkpt>
      <trkpt lat="47.1685" lon="-1.66247">
        <ele>31.29</ele>
        <time>2020-03-07T09:33:42Z</time>
      </trkpt>
      <trkpt lat="47.16852" lon="-1.66265">
        <ele>31.44</ele>
        <time>2020-03-07T09:33:44Z</time>
      </trkpt>
      <trkpt lat="47.16855" lon="-1.66282">
        <ele>32.97</ele>
        <time>2020-03-07T09:33:46Z</time>
      </trkpt>
      <trkpt lat="47.16857" lon="-1.66299">
        <ele>33.82</ele>
        <time>2020-03-07T09:33:48Z</time>
      </trkpt>
      <trkpt lat="47.16858" lon="-1.66317">
        <ele>34.13</ele>
        <time>2020-03-07T09:33:50Z</time>
      </trkpt>
      <trkpt lat="47.16859" lon="-1.66335">
        <ele>32.89</ele>
        <time>2020-03-07T09:33:52Z</time>
      </trkpt>
      <trkpt lat="47.16861" lon="-1.6635">
        <ele>31.26</ele>
        <time>2020-03-07T09:33:54Z</time>
      </trkpt>
      <trkpt lat="47.16864" lon="-1.66367">
        <ele>30.37</ele>
        <time>2020-03-07T09:33:56Z</time>
      </trkpt>
      <trkpt lat="47.16867" lon="-1.66385">
        <ele>30.08</ele>
        <time>2020-03-07T09:33:58Z</time>
      </trkpt>
      <trkpt lat="47.16869" lon="-1.66402">
        <ele>29.74</ele>
        <time>2020-03-07T09:34:00Z</time>
      </trkpt>
      <trkpt lat="47.16871" lon="-1.66423">
        <ele>28.32</ele>
        <time>2020-03-07T09:34:02Z</time>
      </trkpt>
      <trkpt lat="47.16872" lon="-1.6644">
        <ele>27.42</ele>
        <time>2020-03-07T09:34:04Z</time>
      </trkpt>
      <trkpt lat="47.16874" lon="-1.66458">
        <ele>28.19</ele>
        <time>2020-03-07T09:34:06Z</time>
      </trkpt>
      <trkpt lat="47.16876" lon="-1.66475">
        <ele>29.53</ele>
        <time>2020-03-07T09:34:08Z</time>
      </trkpt>
      <trkpt lat="47.16878" lon="-1.66492">
        <ele>30.32</ele>
        <time>2020-03-07T09:34:10Z</time>
      </trkpt>
      <trkpt lat="47.1688" lon="-1.66512">
        <ele>29.65</ele>
        <time>2020-03-07T09:34:12Z</time>
      </trkpt>
      <trkpt lat="47.16883" lon="-1.66533">
        <ele>29.27</ele>
        <time>2020-03-07T09:34:14Z</time>
      </trkpt>
      <trkpt lat="47.16885" lon="-1.66549">
        <ele>28.08</ele>
        <time>2020-03-07T09:34:16Z</time>
      </trkpt>
      <trkpt lat="47.16886" lon="-1.66564">
        <ele>27.82</ele>
        <time>2020-03-07T09:34:18Z</time>
      </trkpt>
      <trkpt lat="47.16888" lon="-1.66581">
        <ele>27.95</ele>
        <time>2020-03-07T09:34:20Z</time>
      </trkpt>
      <trkpt lat="47.16889" lon="-1.66596">
        <ele>26.97</ele>
        <time>2020-03-07T09:34:22Z</time>
      </trkpt>
      <trkpt lat="47.16891" lon="-1.66612">
        <ele>27.25</ele>
        <time>2020-03-07T09:34:24Z</time>
      </trkpt>
      <trkpt lat="47.16893" lon="-1.66628">
        <ele>28.03</ele>
        <time>2020-03-07T09:34:26Z</time>
      </trkpt>
      <trkpt lat="47.16895" lon="-1.66646">
        <ele>28.57</ele>
        <time>2020-03-07T09:34:28Z</time>
      </trkpt>
      <trkpt lat="47.16896" lon="-1.66664">
        <ele>26.83</ele>
        <time>2020-03-07T09:34:30Z</time>
      </trkpt>
      <trkpt lat="47.16896" lon="-1.66682">
        <ele>26.51</ele>
        <time>2020-03-07T09:34:32Z</time>
      </trkpt>
      <trkpt lat="47.16895" lon="-1.667">
        <ele>28.06</ele>
        <time>2020-03-07T09:34:34Z</time>
      </trkpt>
      <trkpt lat="47.16889" lon="-1.66717">
        <ele>28.97</ele>
        <time>2020-03-07T09:34:36Z</time>
      </trkpt>
      <trkpt lat="47.16883" lon="-1.66734">
        <ele>28.66</ele>
        <time>2020-03-07T09:34:38Z</time>
      </trkpt>
      <trkpt lat="47.16875" lon="-1.6675">
        <ele>28.09</ele>
        <time>2020-03-07T09:34:40Z</time>
      </trkpt>
      <trkpt lat="47.16868" lon="-1.66764">
        <ele>28.37</ele>
        <time>2020-03-07T09:34:42Z</time>
      </trkpt>
      <trkpt lat="47.16859" lon="-1.6678">
        <ele>29.08</ele>
        <time>2020-03-07T09:34:44Z</time>
      </trkpt>
      <trkpt lat="47.1685" lon="-1.66797">
        <ele>29.03</ele>
        <time>2020-03-07T09:34:46Z</time>
      </trkpt>
      <trkpt lat="47.16842" lon="-1.66811">
        <ele>28.29</ele>
        <time>2020-03-07T09:34:48Z</time>
      </trkpt>
      <trkpt lat="47.16835" lon="-1.66826">
        <ele>27.04</ele>
        <time>2020-03-07T09:34:50Z</time>
      </trkpt>
      <trkpt lat="47.16827" lon="-1.66842">
        <ele>26.76</ele>
        <time>2020-03-07T09:34:52Z</time>
      </trkpt>
      <trkpt lat="47.16819" lon="-1.66857">
        <ele>27.11</ele>
        <time>2020-03-07T09:34:54Z</time>
      </trkpt>
      <trkpt lat="47.16812" lon="-1.6687">
        <ele>27.74</ele>
        <time>2020-03-07T09:34:56Z</time>
      </trkpt>
      <trkpt lat="47.16805" lon="-1.66884">
        <ele>27.14</ele>
        <time>2020-03-07T09:34:58Z</time>
      </trkpt>
      <trkpt lat="47.16797" lon="-1.66898">
        <ele>27.37</ele>
        <time>2020-03-07T09:35:00Z</time>
      </trkpt>
      <trkpt lat="47.16788" lon="-1.66907">
        <ele>26.32</ele>
        <time>2020-03-07T09:35:02Z</time>
      </trkpt>
      <trkpt lat="47.16778" lon="-1.66914">
        <ele>26.22</ele>
        <time>2020-03-07T09:35:04Z</time>
      </trkpt>
      <trkpt lat="47.16764" lon="-1.66918">
        <ele>27.12</ele>
        <time>2020-03-07T09:35:06Z</time>
      </trkpt>
      <trkpt lat="47.16751" lon="-1.66921">
        <ele>27.08</ele>
        <time>2020-03-07T09:35:08Z</time>
      </trkpt>
      <trkpt lat="47.16738" lon="-1.66922">
        <ele>26.01</ele>
        <time>2020-03-07T09:35:10Z</time>
      </trkpt>
      <trkpt lat="47.16727" lon="-1.66923">
        <ele>25.86</ele>
        <time>2020-03-07T09:35:12Z</time>
      </trkpt>
      <trkpt lat="47.16715" lon="-1.66927">
        <ele>26</ele>
        <time>2020-03-07T09:35:14Z</time>
      </trkpt>
      <trkpt lat="47.16701" lon="-1.66932">
        <ele>26.43</ele>
        <time>2020-03-07T09:35:16Z</time>
      </trkpt>
      <trkpt lat="47.16687" lon="-1.66938">
        <ele>25.71</ele>
        <time>2020-03-07T09:35:18Z</time>
      </trkpt>
      <trkpt lat="47.16676" lon="-1.66946">
        <ele>26.03</ele>
        <time>2020-03-07T09:35:20Z</time>
      </trkpt>
      <trkpt lat="47.16664" lon="-1.66965">
        <ele>26.09</ele>
        <time>2020-03-07T09:35:22Z</time>
      </trkpt>
      <trkpt lat="47.16658" lon="-1.66983">
        <ele>26.53</ele>
        <time>2020-03-07T09:35:24Z</time>
      </trkpt>
      <trkpt lat="47.16655" lon="-1.67003">
        <ele>26.77</ele>
        <time>2020-03-07T09:35:26Z</time>
      </trkpt>
      <trkpt lat="47.16653" lon="-1.67021">
        <ele>27.02</ele>
        <time>2020-03-07T09:35:28Z</time>
      </trkpt>
      <trkpt lat="47.16651" lon="-1.67038">
        <ele>27.41</ele>
        <time>2020-03-07T09:35:30Z</time>
      </trkpt>
      <trkpt lat="47.16647" lon="-1.6706">
        <ele>27.94</ele>
        <time>2020-03-07T09:35:32Z</time>
      </trkpt>
      <trkpt lat="47.16644" lon="-1.67076">
        <ele>27.88</ele>
        <time>2020-03-07T09:35:34Z</time>
      </trkpt>
      <trkpt lat="47.16642" lon="-1.67094">
        <ele>27.64</ele>
        <time>2020-03-07T09:35:36Z</time>
      </trkpt>
      <trkpt lat="47.16638" lon="-1.67114">
        <ele>26.91</ele>
        <time>2020-03-07T09:35:38Z</time>
      </trkpt>
      <trkpt lat="47.16636" lon="-1.67128">
        <ele>28.02</ele>
        <time>2020-03-07T09:35:40Z</time>
      </trkpt>
      <trkpt lat="47.16632" lon="-1.67146">
        <ele>27.49</ele>
        <time>2020-03-07T09:35:42Z</time>
      </trkpt>
      <trkpt lat="47.1663" lon="-1.67161">
        <ele>26.84</ele>
        <time>2020-03-07T09:35:44Z</time>
      </trkpt>
      <trkpt lat="47.16627" lon="-1.67177">
        <ele>27.29</ele>
        <time>2020-03-07T09:35:46Z</time>
      </trkpt>
      <trkpt lat="47.16624" lon="-1.67191">
        <ele>28.41</ele>
        <time>2020-03-07T09:35:48Z</time>
      </trkpt>
      <trkpt lat="47.1662" lon="-1.67211">
        <ele>29.21</ele>
        <time>2020-03-07T09:35:50Z</time>
      </trkpt>
      <trkpt lat="47.16617" lon="-1.67224">
        <ele>29.28</ele>
        <time>2020-03-07T09:35:52Z</time>
      </trkpt>
      <trkpt lat="47.16613" lon="-1.67239">
        <ele>28.96</ele>
        <time>2020-03-07T09:35:54Z</time>
      </trkpt>
      <trkpt lat="47.16611" lon="-1.67256">
        <ele>28.85</ele>
        <time>2020-03-07T09:35:57Z</time>
      </trkpt>
      <trkpt lat="47.16607" lon="-1.67273">
        <ele>29.1</ele>
        <time>2020-03-07T09:36:04Z</time>
      </trkpt>
      <trkpt lat="47.166" lon="-1.67287">
        <ele>29.92</ele>
        <time>2020-03-07T09:36:07Z</time>
      </trkpt>
      <trkpt lat="47.16593" lon="-1.67303">
        <ele>30.94</ele>
        <time>2020-03-07T09:36:09Z</time>
      </trkpt>
      <trkpt lat="47.16586" lon="-1.6732">
        <ele>31.23</ele>
        <time>2020-03-07T09:36:11Z</time>
      </trkpt>
      <trkpt lat="47.1658" lon="-1.67335">
        <ele>30.65</ele>
        <time>2020-03-07T09:36:13Z</time>
      </trkpt>
      <trkpt lat="47.16574" lon="-1.67348">
        <ele>29.42</ele>
        <time>2020-03-07T09:36:15Z</time>
      </trkpt>
      <trkpt lat="47.16566" lon="-1.67363">
        <ele>27.92</ele>
        <time>2020-03-07T09:36:17Z</time>
      </trkpt>
      <trkpt lat="47.16559" lon="-1.67376">
        <ele>27.02</ele>
        <time>2020-03-07T09:36:19Z</time>
      </trkpt>
      <trkpt lat="47.16551" lon="-1.67388">
        <ele>26.26</ele>
        <time>2020-03-07T09:36:21Z</time>
      </trkpt>
      <trkpt lat="47.1654" lon="-1.67401">
        <ele>25.76</ele>
        <time>2020-03-07T09:36:23Z</time>
      </trkpt>
      <trkpt lat="47.16532" lon="-1.67413">
        <ele>26.55</ele>
        <time>2020-03-07T09:36:25Z</time>
      </trkpt>
      <trkpt lat="47.16524" lon="-1.67424">
        <ele>26.55</ele>
        <time>2020-03-07T09:36:27Z</time>
      </trkpt>
      <trkpt lat="47.16514" lon="-1.67439">
        <ele>27.02</ele>
        <time>2020-03-07T09:36:29Z</time>
      </trkpt>
      <trkpt lat="47.16506" lon="-1.6745">
        <ele>27.33</ele>
        <time>2020-03-07T09:36:31Z</time>
      </trkpt>
      <trkpt lat="47.16498" lon="-1.67465">
        <ele>27.98</ele>
        <time>2020-03-07T09:36:33Z</time>
      </trkpt>
      <trkpt lat="47.16489" lon="-1.67481">
        <ele>28.86</ele>
        <time>2020-03-07T09:36:35Z</time>
      </trkpt>
      <trkpt lat="47.16482" lon="-1.67494">
        <ele>28.62</ele>
        <time>2020-03-07T09:36:37Z</time>
      </trkpt>
      <trkpt lat="47.16475" lon="-1.67507">
        <ele>27.9</ele>
        <time>2020-03-07T09:36:39Z</time>
      </trkpt>
      <trkpt lat="47.16467" lon="-1.67522">
        <ele>28.19</ele>
        <time>2020-03-07T09:36:41Z</time>
      </trkpt>
      <trkpt lat="47.1646" lon="-1.67536">
        <ele>29.29</ele>
        <time>2020-03-07T09:36:43Z</time>
      </trkpt>
      <trkpt lat="47.16453" lon="-1.67547">
        <ele>30.35</ele>
        <time>2020-03-07T09:36:45Z</time>
      </trkpt>
      <trkpt lat="47.16445" lon="-1.6756">
        <ele>31.15</ele>
        <time>2020-03-07T09:36:47Z</time>
      </trkpt>
      <trkpt lat="47.16438" lon="-1.67572">
        <ele>31.83</ele>
        <time>2020-03-07T09:36:49Z</time>
      </trkpt>
      <trkpt lat="47.16433" lon="-1.67584">
        <ele>31.73</ele>
        <time>2020-03-07T09:36:51Z</time>
      </trkpt>
      <trkpt lat="47.16425" lon="-1.67599">
        <ele>31.12</ele>
        <time>2020-03-07T09:36:53Z</time>
      </trkpt>
      <trkpt lat="47.16418" lon="-1.67614">
        <ele>30.54</ele>
        <time>2020-03-07T09:36:55Z</time>
      </trkpt>
      <trkpt lat="47.16411" lon="-1.67629">
        <ele>30.14</ele>
        <time>2020-03-07T09:36:57Z</time>
      </trkpt>
      <trkpt lat="47.16404" lon="-1.67644">
        <ele>29.04</ele>
        <time>2020-03-07T09:36:59Z</time>
      </trkpt>
      <trkpt lat="47.16398" lon="-1.67658">
        <ele>29.24</ele>
        <time>2020-03-07T09:37:01Z</time>
      </trkpt>
      <trkpt lat="47.1639" lon="-1.67672">
        <ele>29.49</ele>
        <time>2020-03-07T09:37:03Z</time>
      </trkpt>
      <trkpt lat="47.16384" lon="-1.67686">
        <ele>29.31</ele>
        <time>2020-03-07T09:37:05Z</time>
      </trkpt>
      <trkpt lat="47.16377" lon="-1.677">
        <ele>28.87</ele>
        <time>2020-03-07T09:37:07Z</time>
      </trkpt>
      <trkpt lat="47.1637" lon="-1.67716">
        <ele>28.32</ele>
        <time>2020-03-07T09:37:09Z</time>
      </trkpt>
      <trkpt lat="47.16364" lon="-1.67729">
        <ele>29.14</ele>
        <time>2020-03-07T09:37:11Z</time>
      </trkpt>
      <trkpt lat="47.16357" lon="-1.67743">
        <ele>29.81</ele>
        <time>2020-03-07T09:37:13Z</time>
      </trkpt>
      <trkpt lat="47.16352" lon="-1.67756">
        <ele>30.43</ele>
        <time>2020-03-07T09:37:15Z</time>
      </trkpt>
      <trkpt lat="47.16344" lon="-1.67774">
        <ele>31.9</ele>
        <time>2020-03-07T09:37:17Z</time>
      </trkpt>
      <trkpt lat="47.16337" lon="-1.67787">
        <ele>32.36</ele>
        <time>2020-03-07T09:37:19Z</time>
      </trkpt>
      <trkpt lat="47.16331" lon="-1.67799">
        <ele>32.83</ele>
        <time>2020-03-07T09:37:21Z</time>
      </trkpt>
      <trkpt lat="47.16323" lon="-1.67812">
        <ele>32.77</ele>
        <time>2020-03-07T09:37:23Z</time>
      </trkpt>
      <trkpt lat="47.16313" lon="-1.67827">
        <ele>31.83</ele>
        <time>2020-03-07T09:37:25Z</time>
      </trkpt>
      <trkpt lat="47.16303" lon="-1.67842">
        <ele>31.14</ele>
        <time>2020-03-07T09:37:27Z</time>
      </trkpt>
      <trkpt lat="47.16296" lon="-1.67854">
        <ele>31.6</ele>
        <time>2020-03-07T09:37:29Z</time>
      </trkpt>
      <trkpt lat="47.16288" lon="-1.67866">
        <ele>32.17</ele>
        <time>2020-03-07T09:37:31Z</time>
      </trkpt>
      <trkpt lat="47.16279" lon="-1.67877">
        <ele>32.31</ele>
        <time>2020-03-07T09:37:33Z</time>
      </trkpt>
      <trkpt lat="47.1627" lon="-1.67893">
        <ele>32.1</ele>
        <time>2020-03-07T09:37:35Z</time>
      </trkpt>
      <trkpt lat="47.16264" lon="-1.67904">
        <ele>30.42</ele>
        <time>2020-03-07T09:37:37Z</time>
      </trkpt>
      <trkpt lat="47.16257" lon="-1.67915">
        <ele>29.18</ele>
        <time>2020-03-07T09:37:39Z</time>
      </trkpt>
      <trkpt lat="47.1625" lon="-1.67928">
        <ele>28.39</ele>
        <time>2020-03-07T09:37:41Z</time>
      </trkpt>
      <trkpt lat="47.16243" lon="-1.67938">
        <ele>27.63</ele>
        <time>2020-03-07T09:37:43Z</time>
      </trkpt>
      <trkpt lat="47.16234" lon="-1.67951">
        <ele>27.74</ele>
        <time>2020-03-07T09:37:45Z</time>
      </trkpt>
      <trkpt lat="47.16227" lon="-1.67963">
        <ele>28.92</ele>
        <time>2020-03-07T09:37:47Z</time>
      </trkpt>
      <trkpt lat="47.16223" lon="-1.67979">
        <ele>30.44</ele>
        <time>2020-03-07T09:37:49Z</time>
      </trkpt>
      <trkpt lat="47.16216" lon="-1.6799">
        <ele>31.28</ele>
        <time>2020-03-07T09:37:51Z</time>
      </trkpt>
      <trkpt lat="47.16206" lon="-1.67994">
        <ele>31.6</ele>
        <time>2020-03-07T09:37:53Z</time>
      </trkpt>
      <trkpt lat="47.16195" lon="-1.68004">
        <ele>31.36</ele>
        <time>2020-03-07T09:37:55Z</time>
      </trkpt>
      <trkpt lat="47.16188" lon="-1.68018">
        <ele>30.96</ele>
        <time>2020-03-07T09:37:57Z</time>
      </trkpt>
      <trkpt lat="47.1618" lon="-1.68032">
        <ele>30.77</ele>
        <time>2020-03-07T09:37:59Z</time>
      </trkpt>
      <trkpt lat="47.16172" lon="-1.68045">
        <ele>29.53</ele>
        <time>2020-03-07T09:38:01Z</time>
      </trkpt>
      <trkpt lat="47.16166" lon="-1.68056">
        <ele>28.82</ele>
        <time>2020-03-07T09:38:03Z</time>
      </trkpt>
      <trkpt lat="47.16157" lon="-1.6807">
        <ele>28.24</ele>
        <time>2020-03-07T09:38:05Z</time>
      </trkpt>
      <trkpt lat="47.1615" lon="-1.68084">
        <ele>28.57</ele>
        <time>2020-03-07T09:38:07Z</time>
      </trkpt>
      <trkpt lat="47.16145" lon="-1.68098">
        <ele>27.08</ele>
        <time>2020-03-07T09:38:09Z</time>
      </trkpt>
      <trkpt lat="47.1614" lon="-1.68116">
        <ele>28.22</ele>
        <time>2020-03-07T09:38:11Z</time>
      </trkpt>
      <trkpt lat="47.16137" lon="-1.68132">
        <ele>29.5</ele>
        <time>2020-03-07T09:38:13Z</time>
      </trkpt>
      <trkpt lat="47.16132" lon="-1.68149">
        <ele>29.42</ele>
        <time>2020-03-07T09:38:15Z</time>
      </trkpt>
      <trkpt lat="47.16128" lon="-1.68169">
        <ele>28.67</ele>
        <time>2020-03-07T09:38:18Z</time>
      </trkpt>
      <trkpt lat="47.16125" lon="-1.68186">
        <ele>26.72</ele>
        <time>2020-03-07T09:38:20Z</time>
      </trkpt>
      <trkpt lat="47.16121" lon="-1.68202">
        <ele>25.53</ele>
        <time>2020-03-07T09:38:22Z</time>
      </trkpt>
      <trkpt lat="47.16118" lon="-1.68219">
        <ele>25.05</ele>
        <time>2020-03-07T09:38:24Z</time>
      </trkpt>
      <trkpt lat="47.16114" lon="-1.68234">
        <ele>24.14</ele>
        <time>2020-03-07T09:38:26Z</time>
      </trkpt>
      <trkpt lat="47.16109" lon="-1.68254">
        <ele>23.78</ele>
        <time>2020-03-07T09:38:28Z</time>
      </trkpt>
      <trkpt lat="47.16105" lon="-1.68275">
        <ele>24.98</ele>
        <time>2020-03-07T09:38:30Z</time>
      </trkpt>
      <trkpt lat="47.16101" lon="-1.68299">
        <ele>24.29</ele>
        <time>2020-03-07T09:38:32Z</time>
      </trkpt>
      <trkpt lat="47.16097" lon="-1.68319">
        <ele>23.6</ele>
        <time>2020-03-07T09:38:34Z</time>
      </trkpt>
      <trkpt lat="47.16094" lon="-1.68335">
        <ele>23.28</ele>
        <time>2020-03-07T09:38:36Z</time>
      </trkpt>
      <trkpt lat="47.1609" lon="-1.68354">
        <ele>23.56</ele>
        <time>2020-03-07T09:38:38Z</time>
      </trkpt>
      <trkpt lat="47.16086" lon="-1.68373">
        <ele>24.89</ele>
        <time>2020-03-07T09:38:40Z</time>
      </trkpt>
      <trkpt lat="47.16083" lon="-1.68391">
        <ele>25.61</ele>
        <time>2020-03-07T09:38:42Z</time>
      </trkpt>
      <trkpt lat="47.16079" lon="-1.68408">
        <ele>24.89</ele>
        <time>2020-03-07T09:38:44Z</time>
      </trkpt>
      <trkpt lat="47.16076" lon="-1.68424">
        <ele>24.99</ele>
        <time>2020-03-07T09:38:46Z</time>
      </trkpt>
      <trkpt lat="47.16072" lon="-1.6844">
        <ele>24.74</ele>
        <time>2020-03-07T09:38:48Z</time>
      </trkpt>
      <trkpt lat="47.16068" lon="-1.68456">
        <ele>23</ele>
        <time>2020-03-07T09:38:50Z</time>
      </trkpt>
      <trkpt lat="47.16064" lon="-1.68475">
        <ele>22.34</ele>
        <time>2020-03-07T09:38:52Z</time>
      </trkpt>
      <trkpt lat="47.1606" lon="-1.68494">
        <ele>21.86</ele>
        <time>2020-03-07T09:38:54Z</time>
      </trkpt>
      <trkpt lat="47.16058" lon="-1.6851">
        <ele>21.77</ele>
        <time>2020-03-07T09:38:56Z</time>
      </trkpt>
      <trkpt lat="47.16055" lon="-1.68528">
        <ele>22.72</ele>
        <time>2020-03-07T09:38:58Z</time>
      </trkpt>
      <trkpt lat="47.16053" lon="-1.68545">
        <ele>23.85</ele>
        <time>2020-03-07T09:39:00Z</time>
      </trkpt>
      <trkpt lat="47.16051" lon="-1.68562">
        <ele>24.01</ele>
        <time>2020-03-07T09:39:02Z</time>
      </trkpt>
      <trkpt lat="47.16048" lon="-1.6858">
        <ele>22.82</ele>
        <time>2020-03-07T09:39:04Z</time>
      </trkpt>
      <trkpt lat="47.16046" lon="-1.68596">
        <ele>21.7</ele>
        <time>2020-03-07T09:39:06Z</time>
      </trkpt>
      <trkpt lat="47.16044" lon="-1.68617">
        <ele>22.4</ele>
        <time>2020-03-07T09:39:08Z</time>
      </trkpt>
      <trkpt lat="47.16043" lon="-1.68632">
        <ele>23.07</ele>
        <time>2020-03-07T09:39:10Z</time>
      </trkpt>
      <trkpt lat="47.16043" lon="-1.6865">
        <ele>22.68</ele>
        <time>2020-03-07T09:39:12Z</time>
      </trkpt>
      <trkpt lat="47.16043" lon="-1.68668">
        <ele>22.95</ele>
        <time>2020-03-07T09:39:14Z</time>
      </trkpt>
      <trkpt lat="47.16043" lon="-1.68683">
        <ele>23.19</ele>
        <time>2020-03-07T09:39:16Z</time>
      </trkpt>
      <trkpt lat="47.16044" lon="-1.68701">
        <ele>22.71</ele>
        <time>2020-03-07T09:39:18Z</time>
      </trkpt>
      <trkpt lat="47.16045" lon="-1.68718">
        <ele>22.71</ele>
        <time>2020-03-07T09:39:20Z</time>
      </trkpt>
      <trkpt lat="47.16047" lon="-1.68736">
        <ele>23.31</ele>
        <time>2020-03-07T09:39:22Z</time>
      </trkpt>
      <trkpt lat="47.16049" lon="-1.68751">
        <ele>23.9</ele>
        <time>2020-03-07T09:39:24Z</time>
      </trkpt>
      <trkpt lat="47.16053" lon="-1.68767">
        <ele>23.71</ele>
        <time>2020-03-07T09:39:26Z</time>
      </trkpt>
      <trkpt lat="47.16057" lon="-1.68781">
        <ele>22.81</ele>
        <time>2020-03-07T09:39:28Z</time>
      </trkpt>
      <trkpt lat="47.16062" lon="-1.68797">
        <ele>23.37</ele>
        <time>2020-03-07T09:39:30Z</time>
      </trkpt>
      <trkpt lat="47.16067" lon="-1.68813">
        <ele>24.12</ele>
        <time>2020-03-07T09:39:32Z</time>
      </trkpt>
      <trkpt lat="47.16072" lon="-1.68827">
        <ele>24.02</ele>
        <time>2020-03-07T09:39:34Z</time>
      </trkpt>
      <trkpt lat="47.16077" lon="-1.68843">
        <ele>23.88</ele>
        <time>2020-03-07T09:39:36Z</time>
      </trkpt>
      <trkpt lat="47.16081" lon="-1.68856">
        <ele>24.63</ele>
        <time>2020-03-07T09:39:38Z</time>
      </trkpt>
      <trkpt lat="47.16086" lon="-1.68874">
        <ele>24.15</ele>
        <time>2020-03-07T09:39:40Z</time>
      </trkpt>
      <trkpt lat="47.1609" lon="-1.68887">
        <ele>24.17</ele>
        <time>2020-03-07T09:39:42Z</time>
      </trkpt>
      <trkpt lat="47.16095" lon="-1.68906">
        <ele>25.53</ele>
        <time>2020-03-07T09:39:44Z</time>
      </trkpt>
      <trkpt lat="47.161" lon="-1.68919">
        <ele>25.04</ele>
        <time>2020-03-07T09:39:46Z</time>
      </trkpt>
      <trkpt lat="47.16105" lon="-1.68937">
        <ele>24.69</ele>
        <time>2020-03-07T09:39:48Z</time>
      </trkpt>
      <trkpt lat="47.1611" lon="-1.68953">
        <ele>24.36</ele>
        <time>2020-03-07T09:39:50Z</time>
      </trkpt>
      <trkpt lat="47.16115" lon="-1.68971">
        <ele>24.09</ele>
        <time>2020-03-07T09:39:52Z</time>
      </trkpt>
      <trkpt lat="47.1612" lon="-1.68989">
        <ele>23.93</ele>
        <time>2020-03-07T09:39:54Z</time>
      </trkpt>
      <trkpt lat="47.16125" lon="-1.69007">
        <ele>23.5</ele>
        <time>2020-03-07T09:39:56Z</time>
      </trkpt>
      <trkpt lat="47.16131" lon="-1.69026">
        <ele>22.76</ele>
        <time>2020-03-07T09:39:58Z</time>
      </trkpt>
      <trkpt lat="47.16136" lon="-1.69044">
        <ele>21.19</ele>
        <time>2020-03-07T09:40:00Z</time>
      </trkpt>
      <trkpt lat="47.16141" lon="-1.69064">
        <ele>20.63</ele>
        <time>2020-03-07T09:40:02Z</time>
      </trkpt>
      <trkpt lat="47.16144" lon="-1.69084">
        <ele>19.98</ele>
        <time>2020-03-07T09:40:04Z</time>
      </trkpt>
      <trkpt lat="47.16147" lon="-1.69104">
        <ele>19.6</ele>
        <time>2020-03-07T09:40:06Z</time>
      </trkpt>
      <trkpt lat="47.16147" lon="-1.69124">
        <ele>19.69</ele>
        <time>2020-03-07T09:40:08Z</time>
      </trkpt>
      <trkpt lat="47.16149" lon="-1.69142">
        <ele>19.42</ele>
        <time>2020-03-07T09:40:10Z</time>
      </trkpt>
      <trkpt lat="47.16149" lon="-1.69159">
        <ele>19.62</ele>
        <time>2020-03-07T09:40:12Z</time>
      </trkpt>
      <trkpt lat="47.16148" lon="-1.69179">
        <ele>19.69</ele>
        <time>2020-03-07T09:40:15Z</time>
      </trkpt>
      <trkpt lat="47.16147" lon="-1.69199">
        <ele>20.43</ele>
        <time>2020-03-07T09:40:17Z</time>
      </trkpt>
      <trkpt lat="47.16145" lon="-1.69218">
        <ele>20.67</ele>
        <time>2020-03-07T09:40:19Z</time>
      </trkpt>
      <trkpt lat="47.16144" lon="-1.69238">
        <ele>21.52</ele>
        <time>2020-03-07T09:40:21Z</time>
      </trkpt>
      <trkpt lat="47.16142" lon="-1.69256">
        <ele>22.16</ele>
        <time>2020-03-07T09:40:23Z</time>
      </trkpt>
      <trkpt lat="47.16141" lon="-1.69275">
        <ele>21.48</ele>
        <time>2020-03-07T09:40:25Z</time>
      </trkpt>
      <trkpt lat="47.16138" lon="-1.69294">
        <ele>20.51</ele>
        <time>2020-03-07T09:40:27Z</time>
      </trkpt>
      <trkpt lat="47.16135" lon="-1.69311">
        <ele>20.41</ele>
        <time>2020-03-07T09:40:29Z</time>
      </trkpt>
      <trkpt lat="47.16131" lon="-1.6933">
        <ele>20.33</ele>
        <time>2020-03-07T09:40:31Z</time>
      </trkpt>
      <trkpt lat="47.16128" lon="-1.69348">
        <ele>20.63</ele>
        <time>2020-03-07T09:40:33Z</time>
      </trkpt>
      <trkpt lat="47.16125" lon="-1.69365">
        <ele>21.34</ele>
        <time>2020-03-07T09:40:35Z</time>
      </trkpt>
      <trkpt lat="47.16123" lon="-1.69381">
        <ele>21.55</ele>
        <time>2020-03-07T09:40:37Z</time>
      </trkpt>
      <trkpt lat="47.16121" lon="-1.69395">
        <ele>21.96</ele>
        <time>2020-03-07T09:40:39Z</time>
      </trkpt>
      <trkpt lat="47.16118" lon="-1.69413">
        <ele>22.35</ele>
        <time>2020-03-07T09:40:41Z</time>
      </trkpt>
      <trkpt lat="47.16117" lon="-1.6943">
        <ele>22.89</ele>
        <time>2020-03-07T09:40:43Z</time>
      </trkpt>
      <trkpt lat="47.16116" lon="-1.69444">
        <ele>23.44</ele>
        <time>2020-03-07T09:40:45Z</time>
      </trkpt>
      <trkpt lat="47.16115" lon="-1.69466">
        <ele>23.27</ele>
        <time>2020-03-07T09:40:47Z</time>
      </trkpt>
      <trkpt lat="47.16114" lon="-1.69486">
        <ele>23.62</ele>
        <time>2020-03-07T09:40:49Z</time>
      </trkpt>
      <trkpt lat="47.16113" lon="-1.69504">
        <ele>23.82</ele>
        <time>2020-03-07T09:40:51Z</time>
      </trkpt>
      <trkpt lat="47.16112" lon="-1.69519">
        <ele>24.02</ele>
        <time>2020-03-07T09:40:53Z</time>
      </trkpt>
      <trkpt lat="47.1611" lon="-1.69537">
        <ele>23.7</ele>
        <time>2020-03-07T09:40:55Z</time>
      </trkpt>
      <trkpt lat="47.1611" lon="-1.69554">
        <ele>22.99</ele>
        <time>2020-03-07T09:40:57Z</time>
      </trkpt>
      <trkpt lat="47.16109" lon="-1.69571">
        <ele>23.42</ele>
        <time>2020-03-07T09:40:59Z</time>
      </trkpt>
      <trkpt lat="47.16107" lon="-1.69589">
        <ele>23.54</ele>
        <time>2020-03-07T09:41:01Z</time>
      </trkpt>
      <trkpt lat="47.16106" lon="-1.69606">
        <ele>23.14</ele>
        <time>2020-03-07T09:41:03Z</time>
      </trkpt>
      <trkpt lat="47.16104" lon="-1.69624">
        <ele>22.64</ele>
        <time>2020-03-07T09:41:05Z</time>
      </trkpt>
      <trkpt lat="47.16103" lon="-1.6964">
        <ele>22.12</ele>
        <time>2020-03-07T09:41:07Z</time>
      </trkpt>
      <trkpt lat="47.16102" lon="-1.69655">
        <ele>21.11</ele>
        <time>2020-03-07T09:41:09Z</time>
      </trkpt>
      <trkpt lat="47.161" lon="-1.69673">
        <ele>21.17</ele>
        <time>2020-03-07T09:41:11Z</time>
      </trkpt>
      <trkpt lat="47.16098" lon="-1.69691">
        <ele>21.89</ele>
        <time>2020-03-07T09:41:13Z</time>
      </trkpt>
      <trkpt lat="47.16097" lon="-1.6971">
        <ele>21.21</ele>
        <time>2020-03-07T09:41:15Z</time>
      </trkpt>
      <trkpt lat="47.16096" lon="-1.69729">
        <ele>21.34</ele>
        <time>2020-03-07T09:41:17Z</time>
      </trkpt>
      <trkpt lat="47.16094" lon="-1.69744">
        <ele>20.23</ele>
        <time>2020-03-07T09:41:19Z</time>
      </trkpt>
      <trkpt lat="47.16093" lon="-1.69763">
        <ele>19.42</ele>
        <time>2020-03-07T09:41:21Z</time>
      </trkpt>
      <trkpt lat="47.16093" lon="-1.69777">
        <ele>20.48</ele>
        <time>2020-03-07T09:41:23Z</time>
      </trkpt>
      <trkpt lat="47.16092" lon="-1.69797">
        <ele>22.04</ele>
        <time>2020-03-07T09:41:25Z</time>
      </trkpt>
      <trkpt lat="47.1609" lon="-1.69813">
        <ele>23.18</ele>
        <time>2020-03-07T09:41:27Z</time>
      </trkpt>
      <trkpt lat="47.16089" lon="-1.69829">
        <ele>23.71</ele>
        <time>2020-03-07T09:41:29Z</time>
      </trkpt>
      <trkpt lat="47.16088" lon="-1.69845">
        <ele>24.16</ele>
        <time>2020-03-07T09:41:31Z</time>
      </trkpt>
      <trkpt lat="47.16087" lon="-1.69861">
        <ele>24.43</ele>
        <time>2020-03-07T09:41:33Z</time>
      </trkpt>
      <trkpt lat="47.16085" lon="-1.69882">
        <ele>23.95</ele>
        <time>2020-03-07T09:41:35Z</time>
      </trkpt>
      <trkpt lat="47.16083" lon="-1.69903">
        <ele>24.14</ele>
        <time>2020-03-07T09:41:37Z</time>
      </trkpt>
      <trkpt lat="47.16083" lon="-1.69921">
        <ele>24.38</ele>
        <time>2020-03-07T09:41:39Z</time>
      </trkpt>
      <trkpt lat="47.16081" lon="-1.69936">
        <ele>24.2</ele>
        <time>2020-03-07T09:41:41Z</time>
      </trkpt>
      <trkpt lat="47.1608" lon="-1.69956">
        <ele>24.51</ele>
        <time>2020-03-07T09:41:43Z</time>
      </trkpt>
      <trkpt lat="47.16079" lon="-1.69975">
        <ele>24.45</ele>
        <time>2020-03-07T09:41:45Z</time>
      </trkpt>
      <trkpt lat="47.16078" lon="-1.69993">
        <ele>23.93</ele>
        <time>2020-03-07T09:41:47Z</time>
      </trkpt>
      <trkpt lat="47.16076" lon="-1.7001">
        <ele>25.22</ele>
        <time>2020-03-07T09:41:49Z</time>
      </trkpt>
      <trkpt lat="47.16075" lon="-1.70028">
        <ele>25.77</ele>
        <time>2020-03-07T09:41:51Z</time>
      </trkpt>
      <trkpt lat="47.16073" lon="-1.70047">
        <ele>26.06</ele>
        <time>2020-03-07T09:41:53Z</time>
      </trkpt>
      <trkpt lat="47.16072" lon="-1.70068">
        <ele>25.35</ele>
        <time>2020-03-07T09:41:55Z</time>
      </trkpt>
      <trkpt lat="47.1607" lon="-1.70088">
        <ele>25.48</ele>
        <time>2020-03-07T09:41:57Z</time>
      </trkpt>
      <trkpt lat="47.16068" lon="-1.70105">
        <ele>25.74</ele>
        <time>2020-03-07T09:41:59Z</time>
      </trkpt>
      <trkpt lat="47.16066" lon="-1.7012">
        <ele>25.51</ele>
        <time>2020-03-07T09:42:01Z</time>
      </trkpt>
      <trkpt lat="47.16062" lon="-1.70137">
        <ele>25.76</ele>
        <time>2020-03-07T09:42:03Z</time>
      </trkpt>
      <trkpt lat="47.16058" lon="-1.70153">
        <ele>25.4</ele>
        <time>2020-03-07T09:42:05Z</time>
      </trkpt>
      <trkpt lat="47.16053" lon="-1.70168">
        <ele>25.02</ele>
        <time>2020-03-07T09:42:07Z</time>
      </trkpt>
      <trkpt lat="47.16047" lon="-1.70181">
        <ele>24.67</ele>
        <time>2020-03-07T09:42:09Z</time>
      </trkpt>
      <trkpt lat="47.16041" lon="-1.70194">
        <ele>23.74</ele>
        <time>2020-03-07T09:42:11Z</time>
      </trkpt>
      <trkpt lat="47.16032" lon="-1.7021">
        <ele>23.85</ele>
        <time>2020-03-07T09:42:13Z</time>
      </trkpt>
      <trkpt lat="47.16026" lon="-1.70224">
        <ele>22.68</ele>
        <time>2020-03-07T09:42:15Z</time>
      </trkpt>
      <trkpt lat="47.16019" lon="-1.70239">
        <ele>20.36</ele>
        <time>2020-03-07T09:42:17Z</time>
      </trkpt>
      <trkpt lat="47.16011" lon="-1.70256">
        <ele>19.69</ele>
        <time>2020-03-07T09:42:19Z</time>
      </trkpt>
      <trkpt lat="47.16004" lon="-1.70274">
        <ele>19.13</ele>
        <time>2020-03-07T09:42:21Z</time>
      </trkpt>
      <trkpt lat="47.15997" lon="-1.7029">
        <ele>19.41</ele>
        <time>2020-03-07T09:42:23Z</time>
      </trkpt>
      <trkpt lat="47.15991" lon="-1.70305">
        <ele>20.22</ele>
        <time>2020-03-07T09:42:25Z</time>
      </trkpt>
      <trkpt lat="47.15985" lon="-1.70318">
        <ele>20.79</ele>
        <time>2020-03-07T09:42:27Z</time>
      </trkpt>
      <trkpt lat="47.15978" lon="-1.70332">
        <ele>21.29</ele>
        <time>2020-03-07T09:42:29Z</time>
      </trkpt>
      <trkpt lat="47.1597" lon="-1.70345">
        <ele>22.95</ele>
        <time>2020-03-07T09:42:31Z</time>
      </trkpt>
      <trkpt lat="47.15964" lon="-1.70361">
        <ele>23</ele>
        <time>2020-03-07T09:42:33Z</time>
      </trkpt>
      <trkpt lat="47.15956" lon="-1.70381">
        <ele>23.33</ele>
        <time>2020-03-07T09:42:35Z</time>
      </trkpt>
      <trkpt lat="47.15949" lon="-1.70396">
        <ele>23.48</ele>
        <time>2020-03-07T09:42:37Z</time>
      </trkpt>
      <trkpt lat="47.15943" lon="-1.70411">
        <ele>23.05</ele>
        <time>2020-03-07T09:42:39Z</time>
      </trkpt>
      <trkpt lat="47.15936" lon="-1.70426">
        <ele>23.72</ele>
        <time>2020-03-07T09:42:41Z</time>
      </trkpt>
      <trkpt lat="47.15929" lon="-1.70441">
        <ele>23.73</ele>
        <time>2020-03-07T09:42:43Z</time>
      </trkpt>
      <trkpt lat="47.15922" lon="-1.70456">
        <ele>22.95</ele>
        <time>2020-03-07T09:42:45Z</time>
      </trkpt>
      <trkpt lat="47.15915" lon="-1.70474">
        <ele>22.09</ele>
        <time>2020-03-07T09:42:47Z</time>
      </trkpt>
      <trkpt lat="47.15907" lon="-1.7049">
        <ele>21.8</ele>
        <time>2020-03-07T09:42:49Z</time>
      </trkpt>
      <trkpt lat="47.15899" lon="-1.70506">
        <ele>21.98</ele>
        <time>2020-03-07T09:42:51Z</time>
      </trkpt>
      <trkpt lat="47.15893" lon="-1.7052">
        <ele>23.27</ele>
        <time>2020-03-07T09:42:53Z</time>
      </trkpt>
      <trkpt lat="47.15887" lon="-1.70539">
        <ele>24.26</ele>
        <time>2020-03-07T09:42:55Z</time>
      </trkpt>
      <trkpt lat="47.15883" lon="-1.70556">
        <ele>24.93</ele>
        <time>2020-03-07T09:42:57Z</time>
      </trkpt>
      <trkpt lat="47.15879" lon="-1.70571">
        <ele>24.99</ele>
        <time>2020-03-07T09:42:59Z</time>
      </trkpt>
      <trkpt lat="47.15875" lon="-1.70587">
        <ele>24.7</ele>
        <time>2020-03-07T09:43:01Z</time>
      </trkpt>
      <trkpt lat="47.15871" lon="-1.70603">
        <ele>24.07</ele>
        <time>2020-03-07T09:43:03Z</time>
      </trkpt>
      <trkpt lat="47.15865" lon="-1.70622">
        <ele>24.21</ele>
        <time>2020-03-07T09:43:05Z</time>
      </trkpt>
      <trkpt lat="47.1586" lon="-1.70636">
        <ele>24.35</ele>
        <time>2020-03-07T09:43:07Z</time>
      </trkpt>
      <trkpt lat="47.15856" lon="-1.70651">
        <ele>24.2</ele>
        <time>2020-03-07T09:43:09Z</time>
      </trkpt>
      <trkpt lat="47.1585" lon="-1.70665">
        <ele>24.05</ele>
        <time>2020-03-07T09:43:11Z</time>
      </trkpt>
      <trkpt lat="47.15845" lon="-1.70679">
        <ele>24.29</ele>
        <time>2020-03-07T09:43:13Z</time>
      </trkpt>
      <trkpt lat="47.15839" lon="-1.70695">
        <ele>24.49</ele>
        <time>2020-03-07T09:43:15Z</time>
      </trkpt>
      <trkpt lat="47.15833" lon="-1.70708">
        <ele>24.89</ele>
        <time>2020-03-07T09:43:17Z</time>
      </trkpt>
      <trkpt lat="47.15826" lon="-1.70723">
        <ele>26.35</ele>
        <time>2020-03-07T09:43:19Z</time>
      </trkpt>
      <trkpt lat="47.15819" lon="-1.70737">
        <ele>26.57</ele>
        <time>2020-03-07T09:43:21Z</time>
      </trkpt>
      <trkpt lat="47.15813" lon="-1.7075">
        <ele>25.96</ele>
        <time>2020-03-07T09:43:23Z</time>
      </trkpt>
      <trkpt lat="47.15806" lon="-1.70766">
        <ele>25.36</ele>
        <time>2020-03-07T09:43:25Z</time>
      </trkpt>
      <trkpt lat="47.15798" lon="-1.70782">
        <ele>25.72</ele>
        <time>2020-03-07T09:43:27Z</time>
      </trkpt>
      <trkpt lat="47.15792" lon="-1.70796">
        <ele>26.68</ele>
        <time>2020-03-07T09:43:29Z</time>
      </trkpt>
      <trkpt lat="47.15786" lon="-1.7081">
        <ele>26.45</ele>
        <time>2020-03-07T09:43:31Z</time>
      </trkpt>
      <trkpt lat="47.15779" lon="-1.70824">
        <ele>25.37</ele>
        <time>2020-03-07T09:43:33Z</time>
      </trkpt>
      <trkpt lat="47.15772" lon="-1.70837">
        <ele>25.51</ele>
        <time>2020-03-07T09:43:35Z</time>
      </trkpt>
      <trkpt lat="47.15765" lon="-1.70849">
        <ele>24.17</ele>
        <time>2020-03-07T09:43:37Z</time>
      </trkpt>
      <trkpt lat="47.15757" lon="-1.70864">
        <ele>23.53</ele>
        <time>2020-03-07T09:43:39Z</time>
      </trkpt>
      <trkpt lat="47.15748" lon="-1.70878">
        <ele>22.56</ele>
        <time>2020-03-07T09:43:41Z</time>
      </trkpt>
      <trkpt lat="47.15741" lon="-1.70891">
        <ele>23.83</ele>
        <time>2020-03-07T09:43:43Z</time>
      </trkpt>
      <trkpt lat="47.15734" lon="-1.70905">
        <ele>24.59</ele>
        <time>2020-03-07T09:43:45Z</time>
      </trkpt>
      <trkpt lat="47.15726" lon="-1.70917">
        <ele>25.31</ele>
        <time>2020-03-07T09:43:47Z</time>
      </trkpt>
      <trkpt lat="47.15718" lon="-1.70932">
        <ele>23.7</ele>
        <time>2020-03-07T09:43:49Z</time>
      </trkpt>
      <trkpt lat="47.15711" lon="-1.70944">
        <ele>23.2</ele>
        <time>2020-03-07T09:43:51Z</time>
      </trkpt>
      <trkpt lat="47.15704" lon="-1.70957">
        <ele>23.89</ele>
        <time>2020-03-07T09:43:53Z</time>
      </trkpt>
      <trkpt lat="47.15697" lon="-1.7097">
        <ele>24.45</ele>
        <time>2020-03-07T09:43:55Z</time>
      </trkpt>
      <trkpt lat="47.15689" lon="-1.70986">
        <ele>23.77</ele>
        <time>2020-03-07T09:43:57Z</time>
      </trkpt>
      <trkpt lat="47.15683" lon="-1.70999">
        <ele>23.81</ele>
        <time>2020-03-07T09:43:59Z</time>
      </trkpt>
      <trkpt lat="47.15678" lon="-1.7101">
        <ele>24.19</ele>
        <time>2020-03-07T09:44:01Z</time>
      </trkpt>
      <trkpt lat="47.15673" lon="-1.71023">
        <ele>24.11</ele>
        <time>2020-03-07T09:44:03Z</time>
      </trkpt>
      <trkpt lat="47.15667" lon="-1.71036">
        <ele>23.05</ele>
        <time>2020-03-07T09:44:05Z</time>
      </trkpt>
      <trkpt lat="47.1566" lon="-1.71051">
        <ele>23.61</ele>
        <time>2020-03-07T09:44:08Z</time>
      </trkpt>
      <trkpt lat="47.15654" lon="-1.71063">
        <ele>24.01</ele>
        <time>2020-03-07T09:44:11Z</time>
      </trkpt>
      <trkpt lat="47.15643" lon="-1.71071">
        <ele>23.85</ele>
        <time>2020-03-07T09:44:14Z</time>
      </trkpt>
      <trkpt lat="47.15635" lon="-1.71079">
        <ele>23.44</ele>
        <time>2020-03-07T09:44:16Z</time>
      </trkpt>
      <trkpt lat="47.15626" lon="-1.71091">
        <ele>23.83</ele>
        <time>2020-03-07T09:44:18Z</time>
      </trkpt>
      <trkpt lat="47.15618" lon="-1.71105">
        <ele>24.5</ele>
        <time>2020-03-07T09:44:20Z</time>
      </trkpt>
      <trkpt lat="47.15611" lon="-1.71119">
        <ele>24.92</ele>
        <time>2020-03-07T09:44:22Z</time>
      </trkpt>
      <trkpt lat="47.15604" lon="-1.71133">
        <ele>25.74</ele>
        <time>2020-03-07T09:44:24Z</time>
      </trkpt>
      <trkpt lat="47.15598" lon="-1.71145">
        <ele>25.62</ele>
        <time>2020-03-07T09:44:26Z</time>
      </trkpt>
      <trkpt lat="47.1559" lon="-1.71158">
        <ele>24.9</ele>
        <time>2020-03-07T09:44:28Z</time>
      </trkpt>
      <trkpt lat="47.15583" lon="-1.71168">
        <ele>24.17</ele>
        <time>2020-03-07T09:44:30Z</time>
      </trkpt>
      <trkpt lat="47.15574" lon="-1.71182">
        <ele>22.73</ele>
        <time>2020-03-07T09:44:32Z</time>
      </trkpt>
      <trkpt lat="47.15566" lon="-1.71195">
        <ele>22.32</ele>
        <time>2020-03-07T09:44:34Z</time>
      </trkpt>
      <trkpt lat="47.15559" lon="-1.71209">
        <ele>22.18</ele>
        <time>2020-03-07T09:44:36Z</time>
      </trkpt>
      <trkpt lat="47.15552" lon="-1.71223">
        <ele>22.19</ele>
        <time>2020-03-07T09:44:38Z</time>
      </trkpt>
      <trkpt lat="47.15546" lon="-1.71236">
        <ele>23.05</ele>
        <time>2020-03-07T09:44:40Z</time>
      </trkpt>
      <trkpt lat="47.1554" lon="-1.7125">
        <ele>23.39</ele>
        <time>2020-03-07T09:44:42Z</time>
      </trkpt>
      <trkpt lat="47.15532" lon="-1.71268">
        <ele>23.04</ele>
        <time>2020-03-07T09:44:44Z</time>
      </trkpt>
      <trkpt lat="47.15528" lon="-1.71283">
        <ele>23.48</ele>
        <time>2020-03-07T09:44:46Z</time>
      </trkpt>
      <trkpt lat="47.15522" lon="-1.71299">
        <ele>23.63</ele>
        <time>2020-03-07T09:44:48Z</time>
      </trkpt>
      <trkpt lat="47.15515" lon="-1.71313">
        <ele>24.68</ele>
        <time>2020-03-07T09:44:50Z</time>
      </trkpt>
      <trkpt lat="47.15508" lon="-1.71327">
        <ele>25.22</ele>
        <time>2020-03-07T09:44:52Z</time>
      </trkpt>
      <trkpt lat="47.15499" lon="-1.71343">
        <ele>26.08</ele>
        <time>2020-03-07T09:44:54Z</time>
      </trkpt>
      <trkpt lat="47.1549" lon="-1.71355">
        <ele>26.97</ele>
        <time>2020-03-07T09:44:56Z</time>
      </trkpt>
      <trkpt lat="47.15482" lon="-1.71367">
        <ele>27.28</ele>
        <time>2020-03-07T09:44:58Z</time>
      </trkpt>
      <trkpt lat="47.15471" lon="-1.7138">
        <ele>27.61</ele>
        <time>2020-03-07T09:45:00Z</time>
      </trkpt>
      <trkpt lat="47.15462" lon="-1.71392">
        <ele>28.12</ele>
        <time>2020-03-07T09:45:02Z</time>
      </trkpt>
      <trkpt lat="47.15453" lon="-1.71402">
        <ele>28.71</ele>
        <time>2020-03-07T09:45:04Z</time>
      </trkpt>
      <trkpt lat="47.15444" lon="-1.71411">
        <ele>28.74</ele>
        <time>2020-03-07T09:45:06Z</time>
      </trkpt>
      <trkpt lat="47.15433" lon="-1.71421">
        <ele>27.95</ele>
        <time>2020-03-07T09:45:08Z</time>
      </trkpt>
      <trkpt lat="47.15424" lon="-1.71431">
        <ele>27.07</ele>
        <time>2020-03-07T09:45:10Z</time>
      </trkpt>
      <trkpt lat="47.15413" lon="-1.71441">
        <ele>26.13</ele>
        <time>2020-03-07T09:45:12Z</time>
      </trkpt>
      <trkpt lat="47.15403" lon="-1.7145">
        <ele>25.25</ele>
        <time>2020-03-07T09:45:14Z</time>
      </trkpt>
      <trkpt lat="47.15392" lon="-1.71459">
        <ele>24.44</ele>
        <time>2020-03-07T09:45:16Z</time>
      </trkpt>
      <trkpt lat="47.15382" lon="-1.71467">
        <ele>24.27</ele>
        <time>2020-03-07T09:45:18Z</time>
      </trkpt>
      <trkpt lat="47.15371" lon="-1.71477">
        <ele>23.81</ele>
        <time>2020-03-07T09:45:20Z</time>
      </trkpt>
      <trkpt lat="47.15359" lon="-1.71487">
        <ele>23.68</ele>
        <time>2020-03-07T09:45:22Z</time>
      </trkpt>
      <trkpt lat="47.15347" lon="-1.71499">
        <ele>23.35</ele>
        <time>2020-03-07T09:45:24Z</time>
      </trkpt>
      <trkpt lat="47.15337" lon="-1.7151">
        <ele>22.96</ele>
        <time>2020-03-07T09:45:26Z</time>
      </trkpt>
      <trkpt lat="47.15328" lon="-1.7152">
        <ele>22.68</ele>
        <time>2020-03-07T09:45:28Z</time>
      </trkpt>
      <trkpt lat="47.15317" lon="-1.71531">
        <ele>22.84</ele>
        <time>2020-03-07T09:45:30Z</time>
      </trkpt>
      <trkpt lat="47.15309" lon="-1.71541">
        <ele>23.47</ele>
        <time>2020-03-07T09:45:32Z</time>
      </trkpt>
      <trkpt lat="47.15301" lon="-1.71551">
        <ele>24.01</ele>
        <time>2020-03-07T09:45:34Z</time>
      </trkpt>
      <trkpt lat="47.15292" lon="-1.71561">
        <ele>24.78</ele>
        <time>2020-03-07T09:45:36Z</time>
      </trkpt>
      <trkpt lat="47.15282" lon="-1.71572">
        <ele>25.44</ele>
        <time>2020-03-07T09:45:38Z</time>
      </trkpt>
      <trkpt lat="47.15272" lon="-1.71585">
        <ele>25.01</ele>
        <time>2020-03-07T09:45:40Z</time>
      </trkpt>
      <trkpt lat="47.15261" lon="-1.71597">
        <ele>23.22</ele>
        <time>2020-03-07T09:45:42Z</time>
      </trkpt>
      <trkpt lat="47.15251" lon="-1.71609">
        <ele>22.63</ele>
        <time>2020-03-07T09:45:44Z</time>
      </trkpt>
      <trkpt lat="47.15242" lon="-1.71622">
        <ele>22.42</ele>
        <time>2020-03-07T09:45:46Z</time>
      </trkpt>
      <trkpt lat="47.15232" lon="-1.7163">
        <ele>22.96</ele>
        <time>2020-03-07T09:45:48Z</time>
      </trkpt>
      <trkpt lat="47.1522" lon="-1.71622">
        <ele>23.47</ele>
        <time>2020-03-07T09:45:50Z</time>
      </trkpt>
      <trkpt lat="47.15208" lon="-1.71611">
        <ele>23.29</ele>
        <time>2020-03-07T09:45:52Z</time>
      </trkpt>
      <trkpt lat="47.15197" lon="-1.71604">
        <ele>22.75</ele>
        <time>2020-03-07T09:45:54Z</time>
      </trkpt>
      <trkpt lat="47.15189" lon="-1.71595">
        <ele>21.54</ele>
        <time>2020-03-07T09:45:56Z</time>
      </trkpt>
      <trkpt lat="47.15177" lon="-1.71586">
        <ele>20.56</ele>
        <time>2020-03-07T09:45:58Z</time>
      </trkpt>
      <trkpt lat="47.15165" lon="-1.71577">
        <ele>21.04</ele>
        <time>2020-03-07T09:46:00Z</time>
      </trkpt>
      <trkpt lat="47.15156" lon="-1.71571">
        <ele>20.17</ele>
        <time>2020-03-07T09:46:02Z</time>
      </trkpt>
      <trkpt lat="47.15143" lon="-1.71561">
        <ele>20.57</ele>
        <time>2020-03-07T09:46:04Z</time>
      </trkpt>
      <trkpt lat="47.15134" lon="-1.71553">
        <ele>20.83</ele>
        <time>2020-03-07T09:46:06Z</time>
      </trkpt>
      <trkpt lat="47.15122" lon="-1.71544">
        <ele>20.79</ele>
        <time>2020-03-07T09:46:08Z</time>
      </trkpt>
      <trkpt lat="47.15112" lon="-1.71535">
        <ele>20.39</ele>
        <time>2020-03-07T09:46:10Z</time>
      </trkpt>
      <trkpt lat="47.151" lon="-1.71525">
        <ele>20.77</ele>
        <time>2020-03-07T09:46:12Z</time>
      </trkpt>
      <trkpt lat="47.1509" lon="-1.71517">
        <ele>20.7</ele>
        <time>2020-03-07T09:46:14Z</time>
      </trkpt>
      <trkpt lat="47.15082" lon="-1.71511">
        <ele>21.29</ele>
        <time>2020-03-07T09:46:16Z</time>
      </trkpt>
      <trkpt lat="47.15072" lon="-1.715">
        <ele>21.83</ele>
        <time>2020-03-07T09:46:18Z</time>
      </trkpt>
      <trkpt lat="47.15062" lon="-1.71489">
        <ele>22.11</ele>
        <time>2020-03-07T09:46:20Z</time>
      </trkpt>
      <trkpt lat="47.15051" lon="-1.71477">
        <ele>21.78</ele>
        <time>2020-03-07T09:46:22Z</time>
      </trkpt>
      <trkpt lat="47.15043" lon="-1.71467">
        <ele>20.69</ele>
        <time>2020-03-07T09:46:24Z</time>
      </trkpt>
      <trkpt lat="47.15034" lon="-1.71457">
        <ele>20.32</ele>
        <time>2020-03-07T09:46:26Z</time>
      </trkpt>
      <trkpt lat="47.15024" lon="-1.71447">
        <ele>19.25</ele>
        <time>2020-03-07T09:46:28Z</time>
      </trkpt>
      <trkpt lat="47.15014" lon="-1.71437">
        <ele>19.62</ele>
        <time>2020-03-07T09:46:30Z</time>
      </trkpt>
      <trkpt lat="47.15003" lon="-1.71427">
        <ele>20.52</ele>
        <time>2020-03-07T09:46:32Z</time>
      </trkpt>
      <trkpt lat="47.14992" lon="-1.71418">
        <ele>20.75</ele>
        <time>2020-03-07T09:46:34Z</time>
      </trkpt>
      <trkpt lat="47.14981" lon="-1.71408">
        <ele>21.2</ele>
        <time>2020-03-07T09:46:36Z</time>
      </trkpt>
      <trkpt lat="47.14971" lon="-1.71399">
        <ele>21.51</ele>
        <time>2020-03-07T09:46:38Z</time>
      </trkpt>
      <trkpt lat="47.14962" lon="-1.71389">
        <ele>23.54</ele>
        <time>2020-03-07T09:46:40Z</time>
      </trkpt>
      <trkpt lat="47.14953" lon="-1.7138">
        <ele>23.97</ele>
        <time>2020-03-07T09:46:42Z</time>
      </trkpt>
      <trkpt lat="47.14944" lon="-1.71369">
        <ele>22.86</ele>
        <time>2020-03-07T09:46:44Z</time>
      </trkpt>
      <trkpt lat="47.14934" lon="-1.71357">
        <ele>22.54</ele>
        <time>2020-03-07T09:46:46Z</time>
      </trkpt>
      <trkpt lat="47.14925" lon="-1.71345">
        <ele>22.76</ele>
        <time>2020-03-07T09:46:48Z</time>
      </trkpt>
      <trkpt lat="47.14916" lon="-1.71334">
        <ele>23.63</ele>
        <time>2020-03-07T09:46:50Z</time>
      </trkpt>
      <trkpt lat="47.14909" lon="-1.71323">
        <ele>23.36</ele>
        <time>2020-03-07T09:46:52Z</time>
      </trkpt>
      <trkpt lat="47.14901" lon="-1.71312">
        <ele>23.22</ele>
        <time>2020-03-07T09:46:54Z</time>
      </trkpt>
      <trkpt lat="47.14892" lon="-1.71301">
        <ele>23.1</ele>
        <time>2020-03-07T09:46:56Z</time>
      </trkpt>
      <trkpt lat="47.14882" lon="-1.7129">
        <ele>23.25</ele>
        <time>2020-03-07T09:46:58Z</time>
      </trkpt>
      <trkpt lat="47.14872" lon="-1.71281">
        <ele>23.02</ele>
        <time>2020-03-07T09:47:00Z</time>
      </trkpt>
      <trkpt lat="47.14862" lon="-1.71272">
        <ele>23.73</ele>
        <time>2020-03-07T09:47:02Z</time>
      </trkpt>
      <trkpt lat="47.1485" lon="-1.7126">
        <ele>24.8</ele>
        <time>2020-03-07T09:47:04Z</time>
      </trkpt>
      <trkpt lat="47.14842" lon="-1.71244">
        <ele>25.6</ele>
        <time>2020-03-07T09:47:06Z</time>
      </trkpt>
      <trkpt lat="47.14835" lon="-1.71229">
        <ele>25.57</ele>
        <time>2020-03-07T09:47:08Z</time>
      </trkpt>
      <trkpt lat="47.14829" lon="-1.71212">
        <ele>25.73</ele>
        <time>2020-03-07T09:47:10Z</time>
      </trkpt>
      <trkpt lat="47.14823" lon="-1.71198">
        <ele>26.36</ele>
        <time>2020-03-07T09:47:12Z</time>
      </trkpt>
      <trkpt lat="47.14817" lon="-1.71184">
        <ele>26.79</ele>
        <time>2020-03-07T09:47:14Z</time>
      </trkpt>
      <trkpt lat="47.14811" lon="-1.71166">
        <ele>27</ele>
        <time>2020-03-07T09:47:16Z</time>
      </trkpt>
      <trkpt lat="47.14806" lon="-1.71152">
        <ele>26.54</ele>
        <time>2020-03-07T09:47:18Z</time>
      </trkpt>
      <trkpt lat="47.14801" lon="-1.71135">
        <ele>25.6</ele>
        <time>2020-03-07T09:47:20Z</time>
      </trkpt>
      <trkpt lat="47.14794" lon="-1.71119">
        <ele>25.07</ele>
        <time>2020-03-07T09:47:22Z</time>
      </trkpt>
      <trkpt lat="47.14788" lon="-1.71105">
        <ele>24.21</ele>
        <time>2020-03-07T09:47:24Z</time>
      </trkpt>
      <trkpt lat="47.1478" lon="-1.71088">
        <ele>24.33</ele>
        <time>2020-03-07T09:47:26Z</time>
      </trkpt>
      <trkpt lat="47.14774" lon="-1.71072">
        <ele>25.2</ele>
        <time>2020-03-07T09:47:28Z</time>
      </trkpt>
      <trkpt lat="47.14769" lon="-1.71058">
        <ele>25.83</ele>
        <time>2020-03-07T09:47:30Z</time>
      </trkpt>
      <trkpt lat="47.14764" lon="-1.71042">
        <ele>26.1</ele>
        <time>2020-03-07T09:47:32Z</time>
      </trkpt>
      <trkpt lat="47.14759" lon="-1.71026">
        <ele>25.96</ele>
        <time>2020-03-07T09:47:34Z</time>
      </trkpt>
      <trkpt lat="47.14754" lon="-1.71008">
        <ele>26</ele>
        <time>2020-03-07T09:47:36Z</time>
      </trkpt>
      <trkpt lat="47.1475" lon="-1.70994">
        <ele>26.16</ele>
        <time>2020-03-07T09:47:38Z</time>
      </trkpt>
      <trkpt lat="47.1474" lon="-1.70981">
        <ele>26.91</ele>
        <time>2020-03-07T09:47:41Z</time>
      </trkpt>
      <trkpt lat="47.14728" lon="-1.70991">
        <ele>27.78</ele>
        <time>2020-03-07T09:47:44Z</time>
      </trkpt>
      <trkpt lat="47.14719" lon="-1.71007">
        <ele>27.11</ele>
        <time>2020-03-07T09:47:47Z</time>
      </trkpt>
      <trkpt lat="47.14715" lon="-1.71025">
        <ele>26.38</ele>
        <time>2020-03-07T09:47:49Z</time>
      </trkpt>
      <trkpt lat="47.14712" lon="-1.71046">
        <ele>26.29</ele>
        <time>2020-03-07T09:47:51Z</time>
      </trkpt>
      <trkpt lat="47.14717" lon="-1.71062">
        <ele>25.34</ele>
        <time>2020-03-07T09:47:53Z</time>
      </trkpt>
      <trkpt lat="47.14718" lon="-1.7108">
        <ele>24.3</ele>
        <time>2020-03-07T09:47:55Z</time>
      </trkpt>
      <trkpt lat="47.14719" lon="-1.71098">
        <ele>23.45</ele>
        <time>2020-03-07T09:47:57Z</time>
      </trkpt>
      <trkpt lat="47.14721" lon="-1.71115">
        <ele>23.74</ele>
        <time>2020-03-07T09:47:59Z</time>
      </trkpt>
      <trkpt lat="47.14723" lon="-1.71133">
        <ele>23.07</ele>
        <time>2020-03-07T09:48:01Z</time>
      </trkpt>
      <trkpt lat="47.14726" lon="-1.71151">
        <ele>21.9</ele>
        <time>2020-03-07T09:48:03Z</time>
      </trkpt>
      <trkpt lat="47.14729" lon="-1.71168">
        <ele>22.52</ele>
        <time>2020-03-07T09:48:05Z</time>
      </trkpt>
      <trkpt lat="47.14731" lon="-1.71184">
        <ele>23.65</ele>
        <time>2020-03-07T09:48:07Z</time>
      </trkpt>
      <trkpt lat="47.14736" lon="-1.71201">
        <ele>23.77</ele>
        <time>2020-03-07T09:48:09Z</time>
      </trkpt>
      <trkpt lat="47.14741" lon="-1.71215">
        <ele>22.89</ele>
        <time>2020-03-07T09:48:11Z</time>
      </trkpt>
      <trkpt lat="47.14744" lon="-1.71231">
        <ele>22.05</ele>
        <time>2020-03-07T09:48:13Z</time>
      </trkpt>
      <trkpt lat="47.14747" lon="-1.71247">
        <ele>21.68</ele>
        <time>2020-03-07T09:48:15Z</time>
      </trkpt>
      <trkpt lat="47.1475" lon="-1.7126">
        <ele>21.3</ele>
        <time>2020-03-07T09:48:17Z</time>
      </trkpt>
      <trkpt lat="47.14756" lon="-1.71278">
        <ele>21.37</ele>
        <time>2020-03-07T09:48:19Z</time>
      </trkpt>
      <trkpt lat="47.1476" lon="-1.71295">
        <ele>21.96</ele>
        <time>2020-03-07T09:48:21Z</time>
      </trkpt>
      <trkpt lat="47.14764" lon="-1.71312">
        <ele>22.5</ele>
        <time>2020-03-07T09:48:23Z</time>
      </trkpt>
      <trkpt lat="47.14766" lon="-1.7133">
        <ele>22.91</ele>
        <time>2020-03-07T09:48:25Z</time>
      </trkpt>
      <trkpt lat="47.14768" lon="-1.71346">
        <ele>24.12</ele>
        <time>2020-03-07T09:48:27Z</time>
      </trkpt>
      <trkpt lat="47.14771" lon="-1.71365">
        <ele>24.33</ele>
        <time>2020-03-07T09:48:29Z</time>
      </trkpt>
      <trkpt lat="47.14773" lon="-1.71383">
        <ele>24.35</ele>
        <time>2020-03-07T09:48:31Z</time>
      </trkpt>
      <trkpt lat="47.14775" lon="-1.71399">
        <ele>23.98</ele>
        <time>2020-03-07T09:48:33Z</time>
      </trkpt>
      <trkpt lat="47.14777" lon="-1.71414">
        <ele>24.32</ele>
        <time>2020-03-07T09:48:35Z</time>
      </trkpt>
      <trkpt lat="47.1478" lon="-1.71435">
        <ele>24.44</ele>
        <time>2020-03-07T09:48:37Z</time>
      </trkpt>
      <trkpt lat="47.14783" lon="-1.71451">
        <ele>23.97</ele>
        <time>2020-03-07T09:48:39Z</time>
      </trkpt>
      <trkpt lat="47.14786" lon="-1.7147">
        <ele>23.37</ele>
        <time>2020-03-07T09:48:41Z</time>
      </trkpt>
      <trkpt lat="47.14788" lon="-1.71487">
        <ele>23.38</ele>
        <time>2020-03-07T09:48:43Z</time>
      </trkpt>
      <trkpt lat="47.14791" lon="-1.71504">
        <ele>23.71</ele>
        <time>2020-03-07T09:48:45Z</time>
      </trkpt>
      <trkpt lat="47.14792" lon="-1.71525">
        <ele>24.66</ele>
        <time>2020-03-07T09:48:47Z</time>
      </trkpt>
      <trkpt lat="47.14793" lon="-1.7154">
        <ele>25.4</ele>
        <time>2020-03-07T09:48:49Z</time>
      </trkpt>
      <trkpt lat="47.14793" lon="-1.71558">
        <ele>25.36</ele>
        <time>2020-03-07T09:48:51Z</time>
      </trkpt>
      <trkpt lat="47.14792" lon="-1.71576">
        <ele>25.36</ele>
        <time>2020-03-07T09:48:53Z</time>
      </trkpt>
      <trkpt lat="47.1479" lon="-1.71593">
        <ele>25.81</ele>
        <time>2020-03-07T09:48:55Z</time>
      </trkpt>
      <trkpt lat="47.14787" lon="-1.7161">
        <ele>25.57</ele>
        <time>2020-03-07T09:48:57Z</time>
      </trkpt>
      <trkpt lat="47.14783" lon="-1.71629">
        <ele>25.72</ele>
        <time>2020-03-07T09:48:59Z</time>
      </trkpt>
      <trkpt lat="47.14781" lon="-1.71645">
        <ele>24.83</ele>
        <time>2020-03-07T09:49:01Z</time>
      </trkpt>
      <trkpt lat="47.14778" lon="-1.71659">
        <ele>23.4</ele>
        <time>2020-03-07T09:49:03Z</time>
      </trkpt>
      <trkpt lat="47.14775" lon="-1.71676">
        <ele>23.04</ele>
        <time>2020-03-07T09:49:05Z</time>
      </trkpt>
      <trkpt lat="47.14772" lon="-1.71694">
        <ele>23.51</ele>
        <time>2020-03-07T09:49:07Z</time>
      </trkpt>
      <trkpt lat="47.1477" lon="-1.71711">
        <ele>24.1</ele>
        <time>2020-03-07T09:49:09Z</time>
      </trkpt>
      <trkpt lat="47.14768" lon="-1.71725">
        <ele>24.86</ele>
        <time>2020-03-07T09:49:11Z</time>
      </trkpt>
      <trkpt lat="47.14765" lon="-1.7174">
        <ele>25.46</ele>
        <time>2020-03-07T09:49:13Z</time>
      </trkpt>
      <trkpt lat="47.14762" lon="-1.71757">
        <ele>25.63</ele>
        <time>2020-03-07T09:49:15Z</time>
      </trkpt>
      <trkpt lat="47.14758" lon="-1.71771">
        <ele>25.86</ele>
        <time>2020-03-07T09:49:17Z</time>
      </trkpt>
      <trkpt lat="47.14753" lon="-1.71788">
        <ele>26.16</ele>
        <time>2020-03-07T09:49:19Z</time>
      </trkpt>
      <trkpt lat="47.14745" lon="-1.71802">
        <ele>25.26</ele>
        <time>2020-03-07T09:49:21Z</time>
      </trkpt>
      <trkpt lat="47.14735" lon="-1.71812">
        <ele>24.35</ele>
        <time>2020-03-07T09:49:23Z</time>
      </trkpt>
      <trkpt lat="47.14725" lon="-1.71821">
        <ele>24.06</ele>
        <time>2020-03-07T09:49:25Z</time>
      </trkpt>
      <trkpt lat="47.14715" lon="-1.71828">
        <ele>24.99</ele>
        <time>2020-03-07T09:49:27Z</time>
      </trkpt>
      <trkpt lat="47.14703" lon="-1.71835">
        <ele>24.7</ele>
        <time>2020-03-07T09:49:29Z</time>
      </trkpt>
      <trkpt lat="47.14692" lon="-1.7184">
        <ele>24.23</ele>
        <time>2020-03-07T09:49:31Z</time>
      </trkpt>
      <trkpt lat="47.14679" lon="-1.71846">
        <ele>24.69</ele>
        <time>2020-03-07T09:49:33Z</time>
      </trkpt>
      <trkpt lat="47.14666" lon="-1.71851">
        <ele>23.88</ele>
        <time>2020-03-07T09:49:35Z</time>
      </trkpt>
      <trkpt lat="47.14655" lon="-1.71855">
        <ele>23.18</ele>
        <time>2020-03-07T09:49:37Z</time>
      </trkpt>
      <trkpt lat="47.14643" lon="-1.71858">
        <ele>22.73</ele>
        <time>2020-03-07T09:49:39Z</time>
      </trkpt>
      <trkpt lat="47.1463" lon="-1.71859">
        <ele>22.38</ele>
        <time>2020-03-07T09:49:41Z</time>
      </trkpt>
      <trkpt lat="47.14618" lon="-1.71857">
        <ele>22.94</ele>
        <time>2020-03-07T09:49:43Z</time>
      </trkpt>
      <trkpt lat="47.14606" lon="-1.71856">
        <ele>23.3</ele>
        <time>2020-03-07T09:49:45Z</time>
      </trkpt>
      <trkpt lat="47.14592" lon="-1.71851">
        <ele>23.47</ele>
        <time>2020-03-07T09:49:47Z</time>
      </trkpt>
      <trkpt lat="47.14579" lon="-1.71846">
        <ele>23.83</ele>
        <time>2020-03-07T09:49:49Z</time>
      </trkpt>
      <trkpt lat="47.14569" lon="-1.71841">
        <ele>24.09</ele>
        <time>2020-03-07T09:49:51Z</time>
      </trkpt>
      <trkpt lat="47.14558" lon="-1.71834">
        <ele>24.7</ele>
        <time>2020-03-07T09:49:53Z</time>
      </trkpt>
      <trkpt lat="47.14545" lon="-1.71829">
        <ele>24.22</ele>
        <time>2020-03-07T09:49:55Z</time>
      </trkpt>
      <trkpt lat="47.14532" lon="-1.71822">
        <ele>23.5</ele>
        <time>2020-03-07T09:49:57Z</time>
      </trkpt>
      <trkpt lat="47.14521" lon="-1.71815">
        <ele>23.45</ele>
        <time>2020-03-07T09:49:59Z</time>
      </trkpt>
      <trkpt lat="47.1451" lon="-1.7181">
        <ele>23.51</ele>
        <time>2020-03-07T09:50:01Z</time>
      </trkpt>
      <trkpt lat="47.14498" lon="-1.71804">
        <ele>23.62</ele>
        <time>2020-03-07T09:50:03Z</time>
      </trkpt>
      <trkpt lat="47.14487" lon="-1.71797">
        <ele>23.12</ele>
        <time>2020-03-07T09:50:05Z</time>
      </trkpt>
      <trkpt lat="47.14476" lon="-1.71792">
        <ele>23.18</ele>
        <time>2020-03-07T09:50:07Z</time>
      </trkpt>
      <trkpt lat="47.14464" lon="-1.71786">
        <ele>21.94</ele>
        <time>2020-03-07T09:50:09Z</time>
      </trkpt>
      <trkpt lat="47.14453" lon="-1.71782">
        <ele>21.72</ele>
        <time>2020-03-07T09:50:11Z</time>
      </trkpt>
      <trkpt lat="47.14439" lon="-1.71779">
        <ele>20.67</ele>
        <time>2020-03-07T09:50:13Z</time>
      </trkpt>
      <trkpt lat="47.14426" lon="-1.71778">
        <ele>20.63</ele>
        <time>2020-03-07T09:50:15Z</time>
      </trkpt>
      <trkpt lat="47.14414" lon="-1.71779">
        <ele>21.62</ele>
        <time>2020-03-07T09:50:17Z</time>
      </trkpt>
      <trkpt lat="47.14401" lon="-1.71781">
        <ele>22.13</ele>
        <time>2020-03-07T09:50:19Z</time>
      </trkpt>
      <trkpt lat="47.14387" lon="-1.71784">
        <ele>22.43</ele>
        <time>2020-03-07T09:50:21Z</time>
      </trkpt>
      <trkpt lat="47.14373" lon="-1.71789">
        <ele>22.6</ele>
        <time>2020-03-07T09:50:23Z</time>
      </trkpt>
      <trkpt lat="47.1436" lon="-1.71792">
        <ele>21.83</ele>
        <time>2020-03-07T09:50:25Z</time>
      </trkpt>
      <trkpt lat="47.14348" lon="-1.71797">
        <ele>20.93</ele>
        <time>2020-03-07T09:50:26Z</time>
      </trkpt>
      <trkpt lat="47.14337" lon="-1.71801">
        <ele>21.62</ele>
        <time>2020-03-07T09:50:28Z</time>
      </trkpt>
      <trkpt lat="47.14325" lon="-1.71805">
        <ele>22.23</ele>
        <time>2020-03-07T09:50:30Z</time>
      </trkpt>
      <trkpt lat="47.14311" lon="-1.7181">
        <ele>22.6</ele>
        <time>2020-03-07T09:50:32Z</time>
      </trkpt>
      <trkpt lat="47.143" lon="-1.71814">
        <ele>22.32</ele>
        <time>2020-03-07T09:50:34Z</time>
      </trkpt>
      <trkpt lat="47.14287" lon="-1.71819">
        <ele>22.22</ele>
        <time>2020-03-07T09:50:36Z</time>
      </trkpt>
      <trkpt lat="47.14275" lon="-1.71823">
        <ele>22.4</ele>
        <time>2020-03-07T09:50:38Z</time>
      </trkpt>
      <trkpt lat="47.14262" lon="-1.71827">
        <ele>22.92</ele>
        <time>2020-03-07T09:50:40Z</time>
      </trkpt>
      <trkpt lat="47.14249" lon="-1.71831">
        <ele>22.61</ele>
        <time>2020-03-07T09:50:42Z</time>
      </trkpt>
      <trkpt lat="47.14236" lon="-1.71836">
        <ele>21.88</ele>
        <time>2020-03-07T09:50:44Z</time>
      </trkpt>
      <trkpt lat="47.14224" lon="-1.71841">
        <ele>21.57</ele>
        <time>2020-03-07T09:50:46Z</time>
      </trkpt>
      <trkpt lat="47.14212" lon="-1.71845">
        <ele>21.74</ele>
        <time>2020-03-07T09:50:48Z</time>
      </trkpt>
      <trkpt lat="47.14199" lon="-1.7185">
        <ele>21.19</ele>
        <time>2020-03-07T09:50:50Z</time>
      </trkpt>
      <trkpt lat="47.14186" lon="-1.71854">
        <ele>19.99</ele>
        <time>2020-03-07T09:50:52Z</time>
      </trkpt>
      <trkpt lat="47.14173" lon="-1.71858">
        <ele>18.81</ele>
        <time>2020-03-07T09:50:54Z</time>
      </trkpt>
      <trkpt lat="47.14159" lon="-1.71862">
        <ele>18.63</ele>
        <time>2020-03-07T09:50:56Z</time>
      </trkpt>
      <trkpt lat="47.14146" lon="-1.71865">
        <ele>18.01</ele>
        <time>2020-03-07T09:50:58Z</time>
      </trkpt>
      <trkpt lat="47.14134" lon="-1.71869">
        <ele>17.25</ele>
        <time>2020-03-07T09:51:00Z</time>
      </trkpt>
      <trkpt lat="47.14119" lon="-1.71874">
        <ele>16.41</ele>
        <time>2020-03-07T09:51:02Z</time>
      </trkpt>
      <trkpt lat="47.14104" lon="-1.71879">
        <ele>14.78</ele>
        <time>2020-03-07T09:51:04Z</time>
      </trkpt>
      <trkpt lat="47.14089" lon="-1.71884">
        <ele>12.94</ele>
        <time>2020-03-07T09:51:06Z</time>
      </trkpt>
      <trkpt lat="47.14074" lon="-1.71888">
        <ele>12.23</ele>
        <time>2020-03-07T09:51:08Z</time>
      </trkpt>
      <trkpt lat="47.14059" lon="-1.71892">
        <ele>11.03</ele>
        <time>2020-03-07T09:51:10Z</time>
      </trkpt>
      <trkpt lat="47.14046" lon="-1.71897">
        <ele>10.5</ele>
        <time>2020-03-07T09:51:12Z</time>
      </trkpt>
      <trkpt lat="47.1403" lon="-1.71903">
        <ele>10.58</ele>
        <time>2020-03-07T09:51:14Z</time>
      </trkpt>
      <trkpt lat="47.14017" lon="-1.71906">
        <ele>10.68</ele>
        <time>2020-03-07T09:51:16Z</time>
      </trkpt>
      <trkpt lat="47.14" lon="-1.71904">
        <ele>11.44</ele>
        <time>2020-03-07T09:51:18Z</time>
      </trkpt>
      <trkpt lat="47.13987" lon="-1.71901">
        <ele>11.83</ele>
        <time>2020-03-07T09:51:20Z</time>
      </trkpt>
      <trkpt lat="47.13975" lon="-1.71901">
        <ele>10.89</ele>
        <time>2020-03-07T09:51:23Z</time>
      </trkpt>
      <trkpt lat="47.13968" lon="-1.71913">
        <ele>10.28</ele>
        <time>2020-03-07T09:51:25Z</time>
      </trkpt>
      <trkpt lat="47.13969" lon="-1.7193">
        <ele>9.49</ele>
        <time>2020-03-07T09:51:27Z</time>
      </trkpt>
      <trkpt lat="47.13969" lon="-1.71946">
        <ele>8.93</ele>
        <time>2020-03-07T09:51:29Z</time>
      </trkpt>
      <trkpt lat="47.13966" lon="-1.71958">
        <ele>7.99</ele>
        <time>2020-03-07T09:51:31Z</time>
      </trkpt>
      <trkpt lat="47.13958" lon="-1.71968">
        <ele>7.52</ele>
        <time>2020-03-07T09:51:33Z</time>
      </trkpt>
      <trkpt lat="47.13946" lon="-1.71975">
        <ele>7.94</ele>
        <time>2020-03-07T09:51:35Z</time>
      </trkpt>
      <trkpt lat="47.13935" lon="-1.71983">
        <ele>7.42</ele>
        <time>2020-03-07T09:51:37Z</time>
      </trkpt>
      <trkpt lat="47.13927" lon="-1.71987">
        <ele>7.24</ele>
        <time>2020-03-07T09:51:39Z</time>
      </trkpt>
      <trkpt lat="47.13914" lon="-1.71993">
        <ele>8.46</ele>
        <time>2020-03-07T09:51:41Z</time>
      </trkpt>
      <trkpt lat="47.13902" lon="-1.71999">
        <ele>8.62</ele>
        <time>2020-03-07T09:51:43Z</time>
      </trkpt>
      <trkpt lat="47.13891" lon="-1.72005">
        <ele>7.3</ele>
        <time>2020-03-07T09:51:45Z</time>
      </trkpt>
      <trkpt lat="47.13878" lon="-1.72013">
        <ele>8.6</ele>
        <time>2020-03-07T09:51:47Z</time>
      </trkpt>
      <trkpt lat="47.13866" lon="-1.72023">
        <ele>7.52</ele>
        <time>2020-03-07T09:51:49Z</time>
      </trkpt>
      <trkpt lat="47.13858" lon="-1.72033">
        <ele>6.64</ele>
        <time>2020-03-07T09:51:51Z</time>
      </trkpt>
      <trkpt lat="47.1385" lon="-1.72045">
        <ele>6.47</ele>
        <time>2020-03-07T09:51:53Z</time>
      </trkpt>
      <trkpt lat="47.13844" lon="-1.72055">
        <ele>6.27</ele>
        <time>2020-03-07T09:51:55Z</time>
      </trkpt>
      <trkpt lat="47.13836" lon="-1.72068">
        <ele>7.57</ele>
        <time>2020-03-07T09:51:57Z</time>
      </trkpt>
      <trkpt lat="47.13828" lon="-1.72082">
        <ele>9.94</ele>
        <time>2020-03-07T09:51:59Z</time>
      </trkpt>
      <trkpt lat="47.13822" lon="-1.72096">
        <ele>11.98</ele>
        <time>2020-03-07T09:52:01Z</time>
      </trkpt>
      <trkpt lat="47.13816" lon="-1.7211">
        <ele>12.74</ele>
        <time>2020-03-07T09:52:03Z</time>
      </trkpt>
      <trkpt lat="47.13808" lon="-1.72124">
        <ele>15.2</ele>
        <time>2020-03-07T09:52:05Z</time>
      </trkpt>
      <trkpt lat="47.13802" lon="-1.72135">
        <ele>15.2</ele>
        <time>2020-03-07T09:52:07Z</time>
      </trkpt>
      <trkpt lat="47.13796" lon="-1.72145">
        <ele>15.32</ele>
        <time>2020-03-07T09:52:09Z</time>
      </trkpt>
      <trkpt lat="47.13787" lon="-1.72159">
        <ele>15.45</ele>
        <time>2020-03-07T09:52:11Z</time>
      </trkpt>
      <trkpt lat="47.13779" lon="-1.72172">
        <ele>15.32</ele>
        <time>2020-03-07T09:52:13Z</time>
      </trkpt>
      <trkpt lat="47.13773" lon="-1.72182">
        <ele>15.54</ele>
        <time>2020-03-07T09:52:15Z</time>
      </trkpt>
      <trkpt lat="47.13767" lon="-1.72192">
        <ele>17.57</ele>
        <time>2020-03-07T09:52:17Z</time>
      </trkpt>
      <trkpt lat="47.13761" lon="-1.72203">
        <ele>18.75</ele>
        <time>2020-03-07T09:52:19Z</time>
      </trkpt>
      <trkpt lat="47.13755" lon="-1.72216">
        <ele>18.88</ele>
        <time>2020-03-07T09:52:21Z</time>
      </trkpt>
      <trkpt lat="47.13748" lon="-1.72228">
        <ele>18.71</ele>
        <time>2020-03-07T09:52:23Z</time>
      </trkpt>
      <trkpt lat="47.13743" lon="-1.72243">
        <ele>18.67</ele>
        <time>2020-03-07T09:52:25Z</time>
      </trkpt>
      <trkpt lat="47.1374" lon="-1.72263">
        <ele>17.18</ele>
        <time>2020-03-07T09:52:28Z</time>
      </trkpt>
      <trkpt lat="47.13737" lon="-1.72277">
        <ele>16.98</ele>
        <time>2020-03-07T09:52:30Z</time>
      </trkpt>
      <trkpt lat="47.13733" lon="-1.72297">
        <ele>17.41</ele>
        <time>2020-03-07T09:52:33Z</time>
      </trkpt>
      <trkpt lat="47.13731" lon="-1.72313">
        <ele>18.21</ele>
        <time>2020-03-07T09:52:35Z</time>
      </trkpt>
      <trkpt lat="47.13729" lon="-1.72329">
        <ele>19.14</ele>
        <time>2020-03-07T09:52:37Z</time>
      </trkpt>
      <trkpt lat="47.13728" lon="-1.72344">
        <ele>19.75</ele>
        <time>2020-03-07T09:52:39Z</time>
      </trkpt>
      <trkpt lat="47.13724" lon="-1.72364">
        <ele>20.11</ele>
        <time>2020-03-07T09:52:42Z</time>
      </trkpt>
      <trkpt lat="47.1372" lon="-1.72378">
        <ele>20.45</ele>
        <time>2020-03-07T09:52:44Z</time>
      </trkpt>
      <trkpt lat="47.13715" lon="-1.72396">
        <ele>20.41</ele>
        <time>2020-03-07T09:52:47Z</time>
      </trkpt>
      <trkpt lat="47.13712" lon="-1.72409">
        <ele>20.63</ele>
        <time>2020-03-07T09:52:49Z</time>
      </trkpt>
      <trkpt lat="47.13707" lon="-1.72427">
        <ele>20.81</ele>
        <time>2020-03-07T09:52:51Z</time>
      </trkpt>
      <trkpt lat="47.13702" lon="-1.72445">
        <ele>20.18</ele>
        <time>2020-03-07T09:52:54Z</time>
      </trkpt>
      <trkpt lat="47.13698" lon="-1.7246">
        <ele>19.28</ele>
        <time>2020-03-07T09:52:56Z</time>
      </trkpt>
      <trkpt lat="47.13694" lon="-1.72474">
        <ele>18.49</ele>
        <time>2020-03-07T09:52:58Z</time>
      </trkpt>
      <trkpt lat="47.1369" lon="-1.72487">
        <ele>18.36</ele>
        <time>2020-03-07T09:53:00Z</time>
      </trkpt>
      <trkpt lat="47.13687" lon="-1.72503">
        <ele>17.24</ele>
        <time>2020-03-07T09:53:02Z</time>
      </trkpt>
      <trkpt lat="47.13683" lon="-1.72517">
        <ele>16.26</ele>
        <time>2020-03-07T09:53:04Z</time>
      </trkpt>
      <trkpt lat="47.13681" lon="-1.72531">
        <ele>16.96</ele>
        <time>2020-03-07T09:53:06Z</time>
      </trkpt>
      <trkpt lat="47.13679" lon="-1.72549">
        <ele>17.08</ele>
        <time>2020-03-07T09:53:08Z</time>
      </trkpt>
      <trkpt lat="47.13677" lon="-1.72566">
        <ele>17.06</ele>
        <time>2020-03-07T09:53:10Z</time>
      </trkpt>
      <trkpt lat="47.13677" lon="-1.72582">
        <ele>16.94</ele>
        <time>2020-03-07T09:53:12Z</time>
      </trkpt>
      <trkpt lat="47.13677" lon="-1.72597">
        <ele>15.84</ele>
        <time>2020-03-07T09:53:14Z</time>
      </trkpt>
      <trkpt lat="47.13676" lon="-1.72612">
        <ele>16.49</ele>
        <time>2020-03-07T09:53:16Z</time>
      </trkpt>
      <trkpt lat="47.13675" lon="-1.72628">
        <ele>16.1</ele>
        <time>2020-03-07T09:53:18Z</time>
      </trkpt>
      <trkpt lat="47.13673" lon="-1.72643">
        <ele>15.18</ele>
        <time>2020-03-07T09:53:20Z</time>
      </trkpt>
      <trkpt lat="47.13671" lon="-1.72659">
        <ele>14.89</ele>
        <time>2020-03-07T09:53:22Z</time>
      </trkpt>
      <trkpt lat="47.13667" lon="-1.72672">
        <ele>15.69</ele>
        <time>2020-03-07T09:53:24Z</time>
      </trkpt>
      <trkpt lat="47.13664" lon="-1.72688">
        <ele>17.25</ele>
        <time>2020-03-07T09:53:26Z</time>
      </trkpt>
      <trkpt lat="47.13662" lon="-1.72704">
        <ele>18.09</ele>
        <time>2020-03-07T09:53:28Z</time>
      </trkpt>
      <trkpt lat="47.13661" lon="-1.72718">
        <ele>17.79</ele>
        <time>2020-03-07T09:53:30Z</time>
      </trkpt>
      <trkpt lat="47.1366" lon="-1.72732">
        <ele>17.53</ele>
        <time>2020-03-07T09:53:32Z</time>
      </trkpt>
      <trkpt lat="47.13659" lon="-1.72747">
        <ele>17.65</ele>
        <time>2020-03-07T09:53:34Z</time>
      </trkpt>
      <trkpt lat="47.13658" lon="-1.72762">
        <ele>18.66</ele>
        <time>2020-03-07T09:53:36Z</time>
      </trkpt>
      <trkpt lat="47.13656" lon="-1.7278">
        <ele>19.64</ele>
        <time>2020-03-07T09:53:38Z</time>
      </trkpt>
      <trkpt lat="47.13655" lon="-1.72794">
        <ele>19.67</ele>
        <time>2020-03-07T09:53:40Z</time>
      </trkpt>
      <trkpt lat="47.13653" lon="-1.72808">
        <ele>19.11</ele>
        <time>2020-03-07T09:53:42Z</time>
      </trkpt>
      <trkpt lat="47.13652" lon="-1.72824">
        <ele>18.81</ele>
        <time>2020-03-07T09:53:44Z</time>
      </trkpt>
      <trkpt lat="47.13651" lon="-1.72838">
        <ele>18.67</ele>
        <time>2020-03-07T09:53:46Z</time>
      </trkpt>
      <trkpt lat="47.13651" lon="-1.72854">
        <ele>18.82</ele>
        <time>2020-03-07T09:53:48Z</time>
      </trkpt>
      <trkpt lat="47.13649" lon="-1.72873">
        <ele>19.01</ele>
        <time>2020-03-07T09:53:50Z</time>
      </trkpt>
      <trkpt lat="47.13647" lon="-1.72891">
        <ele>18.82</ele>
        <time>2020-03-07T09:53:52Z</time>
      </trkpt>
      <trkpt lat="47.13645" lon="-1.72908">
        <ele>18.52</ele>
        <time>2020-03-07T09:53:54Z</time>
      </trkpt>
      <trkpt lat="47.13644" lon="-1.72927">
        <ele>18.33</ele>
        <time>2020-03-07T09:53:56Z</time>
      </trkpt>
      <trkpt lat="47.13644" lon="-1.72947">
        <ele>18.53</ele>
        <time>2020-03-07T09:53:58Z</time>
      </trkpt>
      <trkpt lat="47.13643" lon="-1.7297">
        <ele>17.53</ele>
        <time>2020-03-07T09:54:00Z</time>
      </trkpt>
      <trkpt lat="47.13642" lon="-1.72993">
        <ele>16.68</ele>
        <time>2020-03-07T09:54:02Z</time>
      </trkpt>
      <trkpt lat="47.1364" lon="-1.73015">
        <ele>15.32</ele>
        <time>2020-03-07T09:54:04Z</time>
      </trkpt>
      <trkpt lat="47.13634" lon="-1.73036">
        <ele>14.41</ele>
        <time>2020-03-07T09:54:06Z</time>
      </trkpt>
      <trkpt lat="47.13624" lon="-1.73054">
        <ele>14.17</ele>
        <time>2020-03-07T09:54:08Z</time>
      </trkpt>
      <trkpt lat="47.1361" lon="-1.73067">
        <ele>12.64</ele>
        <time>2020-03-07T09:54:10Z</time>
      </trkpt>
      <trkpt lat="47.13598" lon="-1.73077">
        <ele>10.7</ele>
        <time>2020-03-07T09:54:12Z</time>
      </trkpt>
      <trkpt lat="47.13584" lon="-1.73087">
        <ele>9.92</ele>
        <time>2020-03-07T09:54:14Z</time>
      </trkpt>
      <trkpt lat="47.13572" lon="-1.73097">
        <ele>9.46</ele>
        <time>2020-03-07T09:54:16Z</time>
      </trkpt>
      <trkpt lat="47.13561" lon="-1.73107">
        <ele>9.91</ele>
        <time>2020-03-07T09:54:18Z</time>
      </trkpt>
      <trkpt lat="47.13549" lon="-1.7312">
        <ele>8.96</ele>
        <time>2020-03-07T09:54:20Z</time>
      </trkpt>
      <trkpt lat="47.13537" lon="-1.73133">
        <ele>8.57</ele>
        <time>2020-03-07T09:54:22Z</time>
      </trkpt>
      <trkpt lat="47.13525" lon="-1.73147">
        <ele>7.5</ele>
        <time>2020-03-07T09:54:24Z</time>
      </trkpt>
      <trkpt lat="47.13517" lon="-1.73155">
        <ele>7.22</ele>
        <time>2020-03-07T09:54:25Z</time>
      </trkpt>
      <trkpt lat="47.13512" lon="-1.73175">
        <ele>6.53</ele>
        <time>2020-03-07T09:54:27Z</time>
      </trkpt>
      <trkpt lat="47.13508" lon="-1.73195">
        <ele>4.92</ele>
        <time>2020-03-07T09:54:29Z</time>
      </trkpt>
      <trkpt lat="47.13505" lon="-1.73217">
        <ele>4.47</ele>
        <time>2020-03-07T09:54:31Z</time>
      </trkpt>
      <trkpt lat="47.13502" lon="-1.73238">
        <ele>4.27</ele>
        <time>2020-03-07T09:54:33Z</time>
      </trkpt>
      <trkpt lat="47.135" lon="-1.73252">
        <ele>4.1</ele>
        <time>2020-03-07T09:54:34Z</time>
      </trkpt>
      <trkpt lat="47.135" lon="-1.73271">
        <ele>2.93</ele>
        <time>2020-03-07T09:54:36Z</time>
      </trkpt>
      <trkpt lat="47.13501" lon="-1.73294">
        <ele>3.92</ele>
        <time>2020-03-07T09:54:38Z</time>
      </trkpt>
      <trkpt lat="47.13504" lon="-1.73315">
        <ele>5.67</ele>
        <time>2020-03-07T09:54:40Z</time>
      </trkpt>
      <trkpt lat="47.13511" lon="-1.73335">
        <ele>5.88</ele>
        <time>2020-03-07T09:54:42Z</time>
      </trkpt>
      <trkpt lat="47.13516" lon="-1.7335">
        <ele>5.79</ele>
        <time>2020-03-07T09:54:44Z</time>
      </trkpt>
      <trkpt lat="47.13521" lon="-1.73366">
        <ele>6.39</ele>
        <time>2020-03-07T09:54:46Z</time>
      </trkpt>
      <trkpt lat="47.13524" lon="-1.7338">
        <ele>7.45</ele>
        <time>2020-03-07T09:54:48Z</time>
      </trkpt>
      <trkpt lat="47.13529" lon="-1.73397">
        <ele>7.99</ele>
        <time>2020-03-07T09:54:50Z</time>
      </trkpt>
      <trkpt lat="47.13533" lon="-1.73415">
        <ele>9.28</ele>
        <time>2020-03-07T09:54:52Z</time>
      </trkpt>
      <trkpt lat="47.13538" lon="-1.7343">
        <ele>10.22</ele>
        <time>2020-03-07T09:54:54Z</time>
      </trkpt>
      <trkpt lat="47.13542" lon="-1.73443">
        <ele>10.06</ele>
        <time>2020-03-07T09:54:56Z</time>
      </trkpt>
      <trkpt lat="47.13547" lon="-1.73461">
        <ele>8.4</ele>
        <time>2020-03-07T09:54:58Z</time>
      </trkpt>
      <trkpt lat="47.13553" lon="-1.73477">
        <ele>8.92</ele>
        <time>2020-03-07T09:55:00Z</time>
      </trkpt>
      <trkpt lat="47.13559" lon="-1.73494">
        <ele>9.28</ele>
        <time>2020-03-07T09:55:02Z</time>
      </trkpt>
      <trkpt lat="47.13564" lon="-1.73509">
        <ele>9.75</ele>
        <time>2020-03-07T09:55:04Z</time>
      </trkpt>
      <trkpt lat="47.1357" lon="-1.73527">
        <ele>10.22</ele>
        <time>2020-03-07T09:55:06Z</time>
      </trkpt>
      <trkpt lat="47.13575" lon="-1.73542">
        <ele>10.44</ele>
        <time>2020-03-07T09:55:08Z</time>
      </trkpt>
      <trkpt lat="47.1358" lon="-1.73558">
        <ele>11.33</ele>
        <time>2020-03-07T09:55:10Z</time>
      </trkpt>
      <trkpt lat="47.13585" lon="-1.73573">
        <ele>12.12</ele>
        <time>2020-03-07T09:55:12Z</time>
      </trkpt>
      <trkpt lat="47.13591" lon="-1.7359">
        <ele>11.95</ele>
        <time>2020-03-07T09:55:14Z</time>
      </trkpt>
      <trkpt lat="47.13597" lon="-1.73607">
        <ele>11.05</ele>
        <time>2020-03-07T09:55:16Z</time>
      </trkpt>
      <trkpt lat="47.13604" lon="-1.73623">
        <ele>10.34</ele>
        <time>2020-03-07T09:55:18Z</time>
      </trkpt>
      <trkpt lat="47.13611" lon="-1.73639">
        <ele>10.37</ele>
        <time>2020-03-07T09:55:20Z</time>
      </trkpt>
      <trkpt lat="47.13618" lon="-1.73653">
        <ele>10.47</ele>
        <time>2020-03-07T09:55:22Z</time>
      </trkpt>
      <trkpt lat="47.13623" lon="-1.73669">
        <ele>10.64</ele>
        <time>2020-03-07T09:55:24Z</time>
      </trkpt>
      <trkpt lat="47.13628" lon="-1.73689">
        <ele>10.35</ele>
        <time>2020-03-07T09:55:26Z</time>
      </trkpt>
      <trkpt lat="47.13632" lon="-1.73706">
        <ele>9.43</ele>
        <time>2020-03-07T09:55:28Z</time>
      </trkpt>
      <trkpt lat="47.13633" lon="-1.73725">
        <ele>8.67</ele>
        <time>2020-03-07T09:55:30Z</time>
      </trkpt>
      <trkpt lat="47.13634" lon="-1.73745">
        <ele>7.32</ele>
        <time>2020-03-07T09:55:32Z</time>
      </trkpt>
      <trkpt lat="47.13635" lon="-1.73765">
        <ele>5.77</ele>
        <time>2020-03-07T09:55:34Z</time>
      </trkpt>
      <trkpt lat="47.13636" lon="-1.73786">
        <ele>5.85</ele>
        <time>2020-03-07T09:55:36Z</time>
      </trkpt>
      <trkpt lat="47.13637" lon="-1.73808">
        <ele>6.2</ele>
        <time>2020-03-07T09:55:38Z</time>
      </trkpt>
      <trkpt lat="47.1364" lon="-1.73827">
        <ele>6.1</ele>
        <time>2020-03-07T09:55:40Z</time>
      </trkpt>
      <trkpt lat="47.13643" lon="-1.73847">
        <ele>6.35</ele>
        <time>2020-03-07T09:55:42Z</time>
      </trkpt>
      <trkpt lat="47.13644" lon="-1.73869">
        <ele>6.94</ele>
        <time>2020-03-07T09:55:44Z</time>
      </trkpt>
      <trkpt lat="47.13644" lon="-1.73888">
        <ele>6.62</ele>
        <time>2020-03-07T09:55:46Z</time>
      </trkpt>
      <trkpt lat="47.13645" lon="-1.73907">
        <ele>5.65</ele>
        <time>2020-03-07T09:55:48Z</time>
      </trkpt>
      <trkpt lat="47.13647" lon="-1.73922">
        <ele>4.96</ele>
        <time>2020-03-07T09:55:50Z</time>
      </trkpt>
      <trkpt lat="47.13648" lon="-1.73938">
        <ele>4.31</ele>
        <time>2020-03-07T09:55:52Z</time>
      </trkpt>
      <trkpt lat="47.13649" lon="-1.73959">
        <ele>4.1</ele>
        <time>2020-03-07T09:55:54Z</time>
      </trkpt>
      <trkpt lat="47.13649" lon="-1.73979">
        <ele>4.53</ele>
        <time>2020-03-07T09:55:57Z</time>
      </trkpt>
      <trkpt lat="47.13648" lon="-1.73996">
        <ele>5.38</ele>
        <time>2020-03-07T09:55:59Z</time>
      </trkpt>
      <trkpt lat="47.13647" lon="-1.74012">
        <ele>5.53</ele>
        <time>2020-03-07T09:56:01Z</time>
      </trkpt>
      <trkpt lat="47.13644" lon="-1.74028">
        <ele>5.85</ele>
        <time>2020-03-07T09:56:03Z</time>
      </trkpt>
      <trkpt lat="47.13642" lon="-1.74041">
        <ele>5.59</ele>
        <time>2020-03-07T09:56:05Z</time>
      </trkpt>
      <trkpt lat="47.13641" lon="-1.74056">
        <ele>7.5</ele>
        <time>2020-03-07T09:56:07Z</time>
      </trkpt>
      <trkpt lat="47.1364" lon="-1.74074">
        <ele>9.42</ele>
        <time>2020-03-07T09:56:09Z</time>
      </trkpt>
      <trkpt lat="47.13639" lon="-1.7409">
        <ele>11.2</ele>
        <time>2020-03-07T09:56:11Z</time>
      </trkpt>
      <trkpt lat="47.1364" lon="-1.74105">
        <ele>12.1</ele>
        <time>2020-03-07T09:56:13Z</time>
      </trkpt>
      <trkpt lat="47.13641" lon="-1.74121">
        <ele>12.62</ele>
        <time>2020-03-07T09:56:15Z</time>
      </trkpt>
      <trkpt lat="47.13643" lon="-1.74139">
        <ele>12.25</ele>
        <time>2020-03-07T09:56:17Z</time>
      </trkpt>
      <trkpt lat="47.13647" lon="-1.7416">
        <ele>13.42</ele>
        <time>2020-03-07T09:56:20Z</time>
      </trkpt>
      <trkpt lat="47.1365" lon="-1.74176">
        <ele>12.37</ele>
        <time>2020-03-07T09:56:22Z</time>
      </trkpt>
      <trkpt lat="47.13653" lon="-1.74191">
        <ele>11.76</ele>
        <time>2020-03-07T09:56:24Z</time>
      </trkpt>
      <trkpt lat="47.13657" lon="-1.74206">
        <ele>10.85</ele>
        <time>2020-03-07T09:56:26Z</time>
      </trkpt>
      <trkpt lat="47.1366" lon="-1.74219">
        <ele>10.24</ele>
        <time>2020-03-07T09:56:28Z</time>
      </trkpt>
      <trkpt lat="47.13664" lon="-1.74235">
        <ele>10.68</ele>
        <time>2020-03-07T09:56:30Z</time>
      </trkpt>
      <trkpt lat="47.13668" lon="-1.74251">
        <ele>10.58</ele>
        <time>2020-03-07T09:56:32Z</time>
      </trkpt>
      <trkpt lat="47.13673" lon="-1.74267">
        <ele>10.75</ele>
        <time>2020-03-07T09:56:34Z</time>
      </trkpt>
      <trkpt lat="47.13679" lon="-1.74286">
        <ele>10.95</ele>
        <time>2020-03-07T09:56:36Z</time>
      </trkpt>
      <trkpt lat="47.13685" lon="-1.74302">
        <ele>9.74</ele>
        <time>2020-03-07T09:56:38Z</time>
      </trkpt>
      <trkpt lat="47.1369" lon="-1.74316">
        <ele>8.75</ele>
        <time>2020-03-07T09:56:40Z</time>
      </trkpt>
      <trkpt lat="47.13695" lon="-1.74334">
        <ele>8.07</ele>
        <time>2020-03-07T09:56:42Z</time>
      </trkpt>
      <trkpt lat="47.13695" lon="-1.74354">
        <ele>7.88</ele>
        <time>2020-03-07T09:56:44Z</time>
      </trkpt>
      <trkpt lat="47.13696" lon="-1.74374">
        <ele>7.25</ele>
        <time>2020-03-07T09:56:46Z</time>
      </trkpt>
      <trkpt lat="47.13696" lon="-1.74398">
        <ele>6.3</ele>
        <time>2020-03-07T09:56:48Z</time>
      </trkpt>
      <trkpt lat="47.13696" lon="-1.74421">
        <ele>5.91</ele>
        <time>2020-03-07T09:56:50Z</time>
      </trkpt>
      <trkpt lat="47.13696" lon="-1.74443">
        <ele>4.88</ele>
        <time>2020-03-07T09:56:52Z</time>
      </trkpt>
      <trkpt lat="47.13688" lon="-1.74464">
        <ele>3.94</ele>
        <time>2020-03-07T09:56:54Z</time>
      </trkpt>
      <trkpt lat="47.13679" lon="-1.74482">
        <ele>2.74</ele>
        <time>2020-03-07T09:56:56Z</time>
      </trkpt>
      <trkpt lat="47.13669" lon="-1.74495">
        <ele>3.15</ele>
        <time>2020-03-07T09:56:58Z</time>
      </trkpt>
      <trkpt lat="47.13659" lon="-1.74507">
        <ele>3.79</ele>
        <time>2020-03-07T09:57:00Z</time>
      </trkpt>
      <trkpt lat="47.13648" lon="-1.74516">
        <ele>4.43</ele>
        <time>2020-03-07T09:57:02Z</time>
      </trkpt>
      <trkpt lat="47.13635" lon="-1.74526">
        <ele>3.15</ele>
        <time>2020-03-07T09:57:04Z</time>
      </trkpt>
      <trkpt lat="47.13627" lon="-1.74535">
        <ele>0.21</ele>
        <time>2020-03-07T09:57:06Z</time>
      </trkpt>
      <trkpt lat="47.13616" lon="-1.74545">
        <ele>0.47</ele>
        <time>2020-03-07T09:57:09Z</time>
      </trkpt>
      <trkpt lat="47.13607" lon="-1.74551">
        <ele>0.4</ele>
        <time>2020-03-07T09:57:11Z</time>
      </trkpt>
      <trkpt lat="47.13597" lon="-1.74561">
        <ele>-0.33</ele>
        <time>2020-03-07T09:57:13Z</time>
      </trkpt>
      <trkpt lat="47.13588" lon="-1.74569">
        <ele>0.57</ele>
        <time>2020-03-07T09:57:15Z</time>
      </trkpt>
      <trkpt lat="47.13576" lon="-1.74581">
        <ele>2.3</ele>
        <time>2020-03-07T09:57:17Z</time>
      </trkpt>
      <trkpt lat="47.13568" lon="-1.7459">
        <ele>5.04</ele>
        <time>2020-03-07T09:57:19Z</time>
      </trkpt>
      <trkpt lat="47.13559" lon="-1.746">
        <ele>4.73</ele>
        <time>2020-03-07T09:57:21Z</time>
      </trkpt>
      <trkpt lat="47.13551" lon="-1.74611">
        <ele>3.18</ele>
        <time>2020-03-07T09:57:23Z</time>
      </trkpt>
      <trkpt lat="47.13543" lon="-1.74619">
        <ele>1.49</ele>
        <time>2020-03-07T09:57:25Z</time>
      </trkpt>
      <trkpt lat="47.13535" lon="-1.74627">
        <ele>1.59</ele>
        <time>2020-03-07T09:57:27Z</time>
      </trkpt>
      <trkpt lat="47.13526" lon="-1.74636">
        <ele>2.61</ele>
        <time>2020-03-07T09:57:29Z</time>
      </trkpt>
      <trkpt lat="47.13518" lon="-1.74644">
        <ele>2.99</ele>
        <time>2020-03-07T09:57:31Z</time>
      </trkpt>
      <trkpt lat="47.1351" lon="-1.74653">
        <ele>3.32</ele>
        <time>2020-03-07T09:57:33Z</time>
      </trkpt>
      <trkpt lat="47.13503" lon="-1.74664">
        <ele>3.55</ele>
        <time>2020-03-07T09:57:35Z</time>
      </trkpt>
      <trkpt lat="47.13496" lon="-1.74674">
        <ele>3.93</ele>
        <time>2020-03-07T09:57:37Z</time>
      </trkpt>
      <trkpt lat="47.13489" lon="-1.74686">
        <ele>3.93</ele>
        <time>2020-03-07T09:57:39Z</time>
      </trkpt>
      <trkpt lat="47.13483" lon="-1.74697">
        <ele>3.58</ele>
        <time>2020-03-07T09:57:41Z</time>
      </trkpt>
      <trkpt lat="47.13477" lon="-1.74714">
        <ele>3.49</ele>
        <time>2020-03-07T09:57:44Z</time>
      </trkpt>
      <trkpt lat="47.13472" lon="-1.74727">
        <ele>3.83</ele>
        <time>2020-03-07T09:57:46Z</time>
      </trkpt>
      <trkpt lat="47.13463" lon="-1.74738">
        <ele>5.43</ele>
        <time>2020-03-07T09:57:49Z</time>
      </trkpt>
      <trkpt lat="47.13455" lon="-1.74744">
        <ele>7.26</ele>
        <time>2020-03-07T09:57:51Z</time>
      </trkpt>
      <trkpt lat="47.13447" lon="-1.74751">
        <ele>8.59</ele>
        <time>2020-03-07T09:57:53Z</time>
      </trkpt>
      <trkpt lat="47.13437" lon="-1.7476">
        <ele>10</ele>
        <time>2020-03-07T09:57:56Z</time>
      </trkpt>
      <trkpt lat="47.13426" lon="-1.74768">
        <ele>10.05</ele>
        <time>2020-03-07T09:57:59Z</time>
      </trkpt>
      <trkpt lat="47.13415" lon="-1.7478">
        <ele>10.09</ele>
        <time>2020-03-07T09:58:02Z</time>
      </trkpt>
      <trkpt lat="47.13405" lon="-1.74788">
        <ele>10.02</ele>
        <time>2020-03-07T09:58:04Z</time>
      </trkpt>
      <trkpt lat="47.13397" lon="-1.74797">
        <ele>10</ele>
        <time>2020-03-07T09:58:06Z</time>
      </trkpt>
      <trkpt lat="47.1339" lon="-1.74808">
        <ele>9.83</ele>
        <time>2020-03-07T09:58:08Z</time>
      </trkpt>
      <trkpt lat="47.13386" lon="-1.74819">
        <ele>9.6</ele>
        <time>2020-03-07T09:58:10Z</time>
      </trkpt>
      <trkpt lat="47.13381" lon="-1.74833">
        <ele>8.62</ele>
        <time>2020-03-07T09:58:12Z</time>
      </trkpt>
      <trkpt lat="47.13378" lon="-1.74845">
        <ele>8.55</ele>
        <time>2020-03-07T09:58:14Z</time>
      </trkpt>
      <trkpt lat="47.13375" lon="-1.74858">
        <ele>8.23</ele>
        <time>2020-03-07T09:58:16Z</time>
      </trkpt>
      <trkpt lat="47.13372" lon="-1.74871">
        <ele>7.94</ele>
        <time>2020-03-07T09:58:18Z</time>
      </trkpt>
      <trkpt lat="47.13368" lon="-1.74885">
        <ele>7.17</ele>
        <time>2020-03-07T09:58:20Z</time>
      </trkpt>
      <trkpt lat="47.13364" lon="-1.74899">
        <ele>6.7</ele>
        <time>2020-03-07T09:58:22Z</time>
      </trkpt>
      <trkpt lat="47.1336" lon="-1.74913">
        <ele>6.98</ele>
        <time>2020-03-07T09:58:24Z</time>
      </trkpt>
      <trkpt lat="47.13355" lon="-1.74928">
        <ele>7.85</ele>
        <time>2020-03-07T09:58:26Z</time>
      </trkpt>
      <trkpt lat="47.1335" lon="-1.74941">
        <ele>9.1</ele>
        <time>2020-03-07T09:58:28Z</time>
      </trkpt>
      <trkpt lat="47.13344" lon="-1.74953">
        <ele>10.26</ele>
        <time>2020-03-07T09:58:30Z</time>
      </trkpt>
      <trkpt lat="47.13336" lon="-1.74964">
        <ele>11.62</ele>
        <time>2020-03-07T09:58:32Z</time>
      </trkpt>
      <trkpt lat="47.13329" lon="-1.74976">
        <ele>12.62</ele>
        <time>2020-03-07T09:58:34Z</time>
      </trkpt>
      <trkpt lat="47.13322" lon="-1.74986">
        <ele>12.15</ele>
        <time>2020-03-07T09:58:36Z</time>
      </trkpt>
      <trkpt lat="47.13314" lon="-1.74997">
        <ele>12.27</ele>
        <time>2020-03-07T09:58:38Z</time>
      </trkpt>
      <trkpt lat="47.13305" lon="-1.75007">
        <ele>12.43</ele>
        <time>2020-03-07T09:58:40Z</time>
      </trkpt>
      <trkpt lat="47.13296" lon="-1.75016">
        <ele>13.29</ele>
        <time>2020-03-07T09:58:42Z</time>
      </trkpt>
      <trkpt lat="47.13287" lon="-1.75025">
        <ele>14.78</ele>
        <time>2020-03-07T09:58:44Z</time>
      </trkpt>
      <trkpt lat="47.13278" lon="-1.75032">
        <ele>16.38</ele>
        <time>2020-03-07T09:58:46Z</time>
      </trkpt>
      <trkpt lat="47.1327" lon="-1.75039">
        <ele>17.27</ele>
        <time>2020-03-07T09:58:48Z</time>
      </trkpt>
      <trkpt lat="47.13259" lon="-1.75047">
        <ele>16.87</ele>
        <time>2020-03-07T09:58:50Z</time>
      </trkpt>
      <trkpt lat="47.13251" lon="-1.75054">
        <ele>16.86</ele>
        <time>2020-03-07T09:58:52Z</time>
      </trkpt>
      <trkpt lat="47.13242" lon="-1.7506">
        <ele>17.04</ele>
        <time>2020-03-07T09:58:54Z</time>
      </trkpt>
      <trkpt lat="47.13234" lon="-1.75068">
        <ele>17.79</ele>
        <time>2020-03-07T09:58:56Z</time>
      </trkpt>
      <trkpt lat="47.13225" lon="-1.75076">
        <ele>18.3</ele>
        <time>2020-03-07T09:58:58Z</time>
      </trkpt>
      <trkpt lat="47.13217" lon="-1.75087">
        <ele>18.77</ele>
        <time>2020-03-07T09:59:00Z</time>
      </trkpt>
      <trkpt lat="47.13208" lon="-1.75097">
        <ele>19.17</ele>
        <time>2020-03-07T09:59:02Z</time>
      </trkpt>
      <trkpt lat="47.132" lon="-1.75108">
        <ele>19.41</ele>
        <time>2020-03-07T09:59:04Z</time>
      </trkpt>
      <trkpt lat="47.13194" lon="-1.75119">
        <ele>19.63</ele>
        <time>2020-03-07T09:59:06Z</time>
      </trkpt>
      <trkpt lat="47.13188" lon="-1.7513">
        <ele>20.18</ele>
        <time>2020-03-07T09:59:08Z</time>
      </trkpt>
      <trkpt lat="47.13182" lon="-1.75142">
        <ele>20.23</ele>
        <time>2020-03-07T09:59:10Z</time>
      </trkpt>
      <trkpt lat="47.13176" lon="-1.75155">
        <ele>19</ele>
        <time>2020-03-07T09:59:12Z</time>
      </trkpt>
      <trkpt lat="47.13171" lon="-1.75168">
        <ele>18.15</ele>
        <time>2020-03-07T09:59:14Z</time>
      </trkpt>
      <trkpt lat="47.13164" lon="-1.75187">
        <ele>17.92</ele>
        <time>2020-03-07T09:59:17Z</time>
      </trkpt>
      <trkpt lat="47.1316" lon="-1.75202">
        <ele>17.6</ele>
        <time>2020-03-07T09:59:19Z</time>
      </trkpt>
      <trkpt lat="47.13155" lon="-1.75218">
        <ele>15.85</ele>
        <time>2020-03-07T09:59:21Z</time>
      </trkpt>
      <trkpt lat="47.13151" lon="-1.75233">
        <ele>15.33</ele>
        <time>2020-03-07T09:59:23Z</time>
      </trkpt>
      <trkpt lat="47.13148" lon="-1.75248">
        <ele>15.01</ele>
        <time>2020-03-07T09:59:25Z</time>
      </trkpt>
      <trkpt lat="47.13145" lon="-1.75263">
        <ele>15.89</ele>
        <time>2020-03-07T09:59:27Z</time>
      </trkpt>
      <trkpt lat="47.13144" lon="-1.75284">
        <ele>16.6</ele>
        <time>2020-03-07T09:59:30Z</time>
      </trkpt>
      <trkpt lat="47.13141" lon="-1.75301">
        <ele>17.05</ele>
        <time>2020-03-07T09:59:32Z</time>
      </trkpt>
      <trkpt lat="47.13138" lon="-1.75317">
        <ele>16.66</ele>
        <time>2020-03-07T09:59:34Z</time>
      </trkpt>
      <trkpt lat="47.13133" lon="-1.75332">
        <ele>16.45</ele>
        <time>2020-03-07T09:59:36Z</time>
      </trkpt>
      <trkpt lat="47.13129" lon="-1.75349">
        <ele>15.66</ele>
        <time>2020-03-07T09:59:38Z</time>
      </trkpt>
      <trkpt lat="47.13127" lon="-1.75361">
        <ele>14.44</ele>
        <time>2020-03-07T09:59:40Z</time>
      </trkpt>
      <trkpt lat="47.13124" lon="-1.75376">
        <ele>14.71</ele>
        <time>2020-03-07T09:59:42Z</time>
      </trkpt>
      <trkpt lat="47.13122" lon="-1.7539">
        <ele>15.06</ele>
        <time>2020-03-07T09:59:44Z</time>
      </trkpt>
      <trkpt lat="47.13118" lon="-1.75405">
        <ele>15.16</ele>
        <time>2020-03-07T09:59:46Z</time>
      </trkpt>
      <trkpt lat="47.13113" lon="-1.75421">
        <ele>16.01</ele>
        <time>2020-03-07T09:59:49Z</time>
      </trkpt>
      <trkpt lat="47.13112" lon="-1.75435">
        <ele>16.16</ele>
        <time>2020-03-07T09:59:51Z</time>
      </trkpt>
      <trkpt lat="47.1311" lon="-1.75451">
        <ele>17.18</ele>
        <time>2020-03-07T09:59:53Z</time>
      </trkpt>
      <trkpt lat="47.13107" lon="-1.75464">
        <ele>17.82</ele>
        <time>2020-03-07T09:59:55Z</time>
      </trkpt>
      <trkpt lat="47.13104" lon="-1.75487">
        <ele>19.29</ele>
        <time>2020-03-07T09:59:58Z</time>
      </trkpt>
      <trkpt lat="47.13102" lon="-1.75501">
        <ele>19.79</ele>
        <time>2020-03-07T10:00:00Z</time>
      </trkpt>
      <trkpt lat="47.13101" lon="-1.75516">
        <ele>19.8</ele>
        <time>2020-03-07T10:00:02Z</time>
      </trkpt>
      <trkpt lat="47.13098" lon="-1.75531">
        <ele>19.1</ele>
        <time>2020-03-07T10:00:04Z</time>
      </trkpt>
      <trkpt lat="47.13095" lon="-1.75543">
        <ele>20.2</ele>
        <time>2020-03-07T10:00:06Z</time>
      </trkpt>
      <trkpt lat="47.13092" lon="-1.75558">
        <ele>20.44</ele>
        <time>2020-03-07T10:00:08Z</time>
      </trkpt>
      <trkpt lat="47.1309" lon="-1.75573">
        <ele>20.68</ele>
        <time>2020-03-07T10:00:10Z</time>
      </trkpt>
      <trkpt lat="47.13088" lon="-1.75588">
        <ele>21.18</ele>
        <time>2020-03-07T10:00:12Z</time>
      </trkpt>
      <trkpt lat="47.13086" lon="-1.75603">
        <ele>20.96</ele>
        <time>2020-03-07T10:00:14Z</time>
      </trkpt>
      <trkpt lat="47.13084" lon="-1.75617">
        <ele>21</ele>
        <time>2020-03-07T10:00:16Z</time>
      </trkpt>
      <trkpt lat="47.1308" lon="-1.75636">
        <ele>21.54</ele>
        <time>2020-03-07T10:00:18Z</time>
      </trkpt>
      <trkpt lat="47.13077" lon="-1.75652">
        <ele>21.21</ele>
        <time>2020-03-07T10:00:20Z</time>
      </trkpt>
      <trkpt lat="47.13073" lon="-1.7567">
        <ele>20.65</ele>
        <time>2020-03-07T10:00:22Z</time>
      </trkpt>
      <trkpt lat="47.13071" lon="-1.75686">
        <ele>20.13</ele>
        <time>2020-03-07T10:00:24Z</time>
      </trkpt>
      <trkpt lat="47.13065" lon="-1.75707">
        <ele>20.03</ele>
        <time>2020-03-07T10:00:27Z</time>
      </trkpt>
      <trkpt lat="47.1306" lon="-1.75719">
        <ele>20.57</ele>
        <time>2020-03-07T10:00:29Z</time>
      </trkpt>
      <trkpt lat="47.13055" lon="-1.75734">
        <ele>20.24</ele>
        <time>2020-03-07T10:00:31Z</time>
      </trkpt>
      <trkpt lat="47.13049" lon="-1.75747">
        <ele>20.2</ele>
        <time>2020-03-07T10:00:33Z</time>
      </trkpt>
      <trkpt lat="47.13041" lon="-1.75764">
        <ele>21.24</ele>
        <time>2020-03-07T10:00:36Z</time>
      </trkpt>
      <trkpt lat="47.13034" lon="-1.75775">
        <ele>21.45</ele>
        <time>2020-03-07T10:00:38Z</time>
      </trkpt>
      <trkpt lat="47.13026" lon="-1.75787">
        <ele>22.08</ele>
        <time>2020-03-07T10:00:41Z</time>
      </trkpt>
      <trkpt lat="47.13018" lon="-1.75798">
        <ele>21.84</ele>
        <time>2020-03-07T10:00:43Z</time>
      </trkpt>
      <trkpt lat="47.13011" lon="-1.7581">
        <ele>22.36</ele>
        <time>2020-03-07T10:00:45Z</time>
      </trkpt>
      <trkpt lat="47.13004" lon="-1.75826">
        <ele>22.68</ele>
        <time>2020-03-07T10:00:47Z</time>
      </trkpt>
      <trkpt lat="47.13003" lon="-1.75841">
        <ele>23.16</ele>
        <time>2020-03-07T10:00:49Z</time>
      </trkpt>
      <trkpt lat="47.13003" lon="-1.75856">
        <ele>23.9</ele>
        <time>2020-03-07T10:00:51Z</time>
      </trkpt>
      <trkpt lat="47.13005" lon="-1.7587">
        <ele>23.8</ele>
        <time>2020-03-07T10:00:53Z</time>
      </trkpt>
      <trkpt lat="47.13005" lon="-1.75885">
        <ele>24.86</ele>
        <time>2020-03-07T10:00:55Z</time>
      </trkpt>
      <trkpt lat="47.13003" lon="-1.75902">
        <ele>25.48</ele>
        <time>2020-03-07T10:00:57Z</time>
      </trkpt>
      <trkpt lat="47.13" lon="-1.75918">
        <ele>26.31</ele>
        <time>2020-03-07T10:00:59Z</time>
      </trkpt>
      <trkpt lat="47.12995" lon="-1.75939">
        <ele>26.77</ele>
        <time>2020-03-07T10:01:02Z</time>
      </trkpt>
      <trkpt lat="47.12992" lon="-1.75954">
        <ele>26.23</ele>
        <time>2020-03-07T10:01:04Z</time>
      </trkpt>
      <trkpt lat="47.12989" lon="-1.75969">
        <ele>25.97</ele>
        <time>2020-03-07T10:01:06Z</time>
      </trkpt>
      <trkpt lat="47.12987" lon="-1.75985">
        <ele>25.54</ele>
        <time>2020-03-07T10:01:08Z</time>
      </trkpt>
      <trkpt lat="47.12985" lon="-1.75999">
        <ele>25.26</ele>
        <time>2020-03-07T10:01:10Z</time>
      </trkpt>
      <trkpt lat="47.12983" lon="-1.76015">
        <ele>25.77</ele>
        <time>2020-03-07T10:01:12Z</time>
      </trkpt>
      <trkpt lat="47.12981" lon="-1.76031">
        <ele>26.43</ele>
        <time>2020-03-07T10:01:14Z</time>
      </trkpt>
      <trkpt lat="47.12981" lon="-1.76045">
        <ele>27.46</ele>
        <time>2020-03-07T10:01:16Z</time>
      </trkpt>
      <trkpt lat="47.12981" lon="-1.76063">
        <ele>28.02</ele>
        <time>2020-03-07T10:01:18Z</time>
      </trkpt>
      <trkpt lat="47.12981" lon="-1.76079">
        <ele>29.11</ele>
        <time>2020-03-07T10:01:20Z</time>
      </trkpt>
      <trkpt lat="47.12982" lon="-1.76093">
        <ele>29.24</ele>
        <time>2020-03-07T10:01:22Z</time>
      </trkpt>
      <trkpt lat="47.12984" lon="-1.7611">
        <ele>29.86</ele>
        <time>2020-03-07T10:01:24Z</time>
      </trkpt>
      <trkpt lat="47.12989" lon="-1.76131">
        <ele>29.39</ele>
        <time>2020-03-07T10:01:27Z</time>
      </trkpt>
      <trkpt lat="47.12994" lon="-1.76148">
        <ele>28.87</ele>
        <time>2020-03-07T10:01:29Z</time>
      </trkpt>
      <trkpt lat="47.12997" lon="-1.76161">
        <ele>28.87</ele>
        <time>2020-03-07T10:01:31Z</time>
      </trkpt>
      <trkpt lat="47.13001" lon="-1.76175">
        <ele>29.16</ele>
        <time>2020-03-07T10:01:33Z</time>
      </trkpt>
      <trkpt lat="47.13005" lon="-1.7619">
        <ele>28.45</ele>
        <time>2020-03-07T10:01:35Z</time>
      </trkpt>
      <trkpt lat="47.13009" lon="-1.76206">
        <ele>27.78</ele>
        <time>2020-03-07T10:01:37Z</time>
      </trkpt>
      <trkpt lat="47.13012" lon="-1.7622">
        <ele>27.42</ele>
        <time>2020-03-07T10:01:39Z</time>
      </trkpt>
      <trkpt lat="47.13016" lon="-1.76237">
        <ele>26.36</ele>
        <time>2020-03-07T10:01:41Z</time>
      </trkpt>
      <trkpt lat="47.13019" lon="-1.76254">
        <ele>26.09</ele>
        <time>2020-03-07T10:01:43Z</time>
      </trkpt>
      <trkpt lat="47.13021" lon="-1.76267">
        <ele>26.31</ele>
        <time>2020-03-07T10:01:45Z</time>
      </trkpt>
      <trkpt lat="47.13024" lon="-1.76281">
        <ele>25.92</ele>
        <time>2020-03-07T10:01:47Z</time>
      </trkpt>
      <trkpt lat="47.13026" lon="-1.76298">
        <ele>26.53</ele>
        <time>2020-03-07T10:01:49Z</time>
      </trkpt>
      <trkpt lat="47.1303" lon="-1.76314">
        <ele>26.69</ele>
        <time>2020-03-07T10:01:51Z</time>
      </trkpt>
      <trkpt lat="47.13034" lon="-1.7633">
        <ele>26.48</ele>
        <time>2020-03-07T10:01:53Z</time>
      </trkpt>
      <trkpt lat="47.13037" lon="-1.76349">
        <ele>25.81</ele>
        <time>2020-03-07T10:01:55Z</time>
      </trkpt>
      <trkpt lat="47.1304" lon="-1.76363">
        <ele>26.21</ele>
        <time>2020-03-07T10:01:57Z</time>
      </trkpt>
      <trkpt lat="47.13043" lon="-1.76379">
        <ele>26.67</ele>
        <time>2020-03-07T10:01:59Z</time>
      </trkpt>
      <trkpt lat="47.13046" lon="-1.76395">
        <ele>25.69</ele>
        <time>2020-03-07T10:02:01Z</time>
      </trkpt>
      <trkpt lat="47.13048" lon="-1.76411">
        <ele>25.33</ele>
        <time>2020-03-07T10:02:03Z</time>
      </trkpt>
      <trkpt lat="47.1305" lon="-1.76428">
        <ele>25.73</ele>
        <time>2020-03-07T10:02:05Z</time>
      </trkpt>
      <trkpt lat="47.13051" lon="-1.76445">
        <ele>25.77</ele>
        <time>2020-03-07T10:02:07Z</time>
      </trkpt>
      <trkpt lat="47.13051" lon="-1.7646">
        <ele>25.9</ele>
        <time>2020-03-07T10:02:09Z</time>
      </trkpt>
      <trkpt lat="47.13052" lon="-1.76478">
        <ele>25.29</ele>
        <time>2020-03-07T10:02:11Z</time>
      </trkpt>
      <trkpt lat="47.13053" lon="-1.76493">
        <ele>25.81</ele>
        <time>2020-03-07T10:02:13Z</time>
      </trkpt>
      <trkpt lat="47.13053" lon="-1.76511">
        <ele>25.42</ele>
        <time>2020-03-07T10:02:15Z</time>
      </trkpt>
      <trkpt lat="47.13053" lon="-1.76528">
        <ele>25.72</ele>
        <time>2020-03-07T10:02:17Z</time>
      </trkpt>
      <trkpt lat="47.13054" lon="-1.76545">
        <ele>26.7</ele>
        <time>2020-03-07T10:02:19Z</time>
      </trkpt>
      <trkpt lat="47.13055" lon="-1.76562">
        <ele>26.72</ele>
        <time>2020-03-07T10:02:21Z</time>
      </trkpt>
      <trkpt lat="47.13056" lon="-1.76578">
        <ele>27.01</ele>
        <time>2020-03-07T10:02:23Z</time>
      </trkpt>
      <trkpt lat="47.13058" lon="-1.76595">
        <ele>26.95</ele>
        <time>2020-03-07T10:02:25Z</time>
      </trkpt>
      <trkpt lat="47.13059" lon="-1.76615">
        <ele>25.86</ele>
        <time>2020-03-07T10:02:27Z</time>
      </trkpt>
      <trkpt lat="47.13061" lon="-1.76631">
        <ele>24.86</ele>
        <time>2020-03-07T10:02:29Z</time>
      </trkpt>
      <trkpt lat="47.13063" lon="-1.76646">
        <ele>24.82</ele>
        <time>2020-03-07T10:02:31Z</time>
      </trkpt>
      <trkpt lat="47.13066" lon="-1.76667">
        <ele>24.92</ele>
        <time>2020-03-07T10:02:33Z</time>
      </trkpt>
      <trkpt lat="47.13067" lon="-1.7669">
        <ele>23.61</ele>
        <time>2020-03-07T10:02:36Z</time>
      </trkpt>
      <trkpt lat="47.13066" lon="-1.76711">
        <ele>23.49</ele>
        <time>2020-03-07T10:02:38Z</time>
      </trkpt>
      <trkpt lat="47.13063" lon="-1.76729">
        <ele>23.91</ele>
        <time>2020-03-07T10:02:40Z</time>
      </trkpt>
      <trkpt lat="47.13062" lon="-1.76745">
        <ele>24.66</ele>
        <time>2020-03-07T10:02:42Z</time>
      </trkpt>
      <trkpt lat="47.1306" lon="-1.76761">
        <ele>25.7</ele>
        <time>2020-03-07T10:02:44Z</time>
      </trkpt>
      <trkpt lat="47.13059" lon="-1.76778">
        <ele>27.28</ele>
        <time>2020-03-07T10:02:46Z</time>
      </trkpt>
      <trkpt lat="47.13056" lon="-1.76794">
        <ele>27.73</ele>
        <time>2020-03-07T10:02:48Z</time>
      </trkpt>
      <trkpt lat="47.13053" lon="-1.76812">
        <ele>26.2</ele>
        <time>2020-03-07T10:02:50Z</time>
      </trkpt>
      <trkpt lat="47.13052" lon="-1.76826">
        <ele>25.7</ele>
        <time>2020-03-07T10:02:52Z</time>
      </trkpt>
      <trkpt lat="47.13049" lon="-1.76843">
        <ele>25.3</ele>
        <time>2020-03-07T10:02:54Z</time>
      </trkpt>
      <trkpt lat="47.13047" lon="-1.7686">
        <ele>25.89</ele>
        <time>2020-03-07T10:02:56Z</time>
      </trkpt>
      <trkpt lat="47.13045" lon="-1.76877">
        <ele>26.08</ele>
        <time>2020-03-07T10:02:58Z</time>
      </trkpt>
      <trkpt lat="47.13043" lon="-1.76892">
        <ele>26.43</ele>
        <time>2020-03-07T10:03:00Z</time>
      </trkpt>
      <trkpt lat="47.13042" lon="-1.7691">
        <ele>26.24</ele>
        <time>2020-03-07T10:03:02Z</time>
      </trkpt>
      <trkpt lat="47.1304" lon="-1.76923">
        <ele>26.06</ele>
        <time>2020-03-07T10:03:04Z</time>
      </trkpt>
      <trkpt lat="47.13039" lon="-1.76939">
        <ele>25.61</ele>
        <time>2020-03-07T10:03:06Z</time>
      </trkpt>
      <trkpt lat="47.13037" lon="-1.76955">
        <ele>25.51</ele>
        <time>2020-03-07T10:03:08Z</time>
      </trkpt>
      <trkpt lat="47.13036" lon="-1.7697">
        <ele>25.21</ele>
        <time>2020-03-07T10:03:10Z</time>
      </trkpt>
      <trkpt lat="47.13035" lon="-1.76988">
        <ele>25.24</ele>
        <time>2020-03-07T10:03:12Z</time>
      </trkpt>
      <trkpt lat="47.13034" lon="-1.77002">
        <ele>24.52</ele>
        <time>2020-03-07T10:03:14Z</time>
      </trkpt>
      <trkpt lat="47.13033" lon="-1.77018">
        <ele>23.77</ele>
        <time>2020-03-07T10:03:16Z</time>
      </trkpt>
      <trkpt lat="47.13032" lon="-1.77034">
        <ele>23.17</ele>
        <time>2020-03-07T10:03:18Z</time>
      </trkpt>
      <trkpt lat="47.13031" lon="-1.7705">
        <ele>23.45</ele>
        <time>2020-03-07T10:03:20Z</time>
      </trkpt>
      <trkpt lat="47.13029" lon="-1.77066">
        <ele>24.02</ele>
        <time>2020-03-07T10:03:22Z</time>
      </trkpt>
      <trkpt lat="47.13027" lon="-1.77083">
        <ele>25.05</ele>
        <time>2020-03-07T10:03:24Z</time>
      </trkpt>
      <trkpt lat="47.13025" lon="-1.77097">
        <ele>26.29</ele>
        <time>2020-03-07T10:03:26Z</time>
      </trkpt>
      <trkpt lat="47.13023" lon="-1.77114">
        <ele>27.03</ele>
        <time>2020-03-07T10:03:28Z</time>
      </trkpt>
      <trkpt lat="47.13021" lon="-1.77129">
        <ele>27.66</ele>
        <time>2020-03-07T10:03:30Z</time>
      </trkpt>
      <trkpt lat="47.1302" lon="-1.77144">
        <ele>28.39</ele>
        <time>2020-03-07T10:03:32Z</time>
      </trkpt>
      <trkpt lat="47.13018" lon="-1.7716">
        <ele>29.98</ele>
        <time>2020-03-07T10:03:34Z</time>
      </trkpt>
      <trkpt lat="47.13016" lon="-1.77175">
        <ele>30.81</ele>
        <time>2020-03-07T10:03:36Z</time>
      </trkpt>
      <trkpt lat="47.13012" lon="-1.77191">
        <ele>30.74</ele>
        <time>2020-03-07T10:03:38Z</time>
      </trkpt>
      <trkpt lat="47.13009" lon="-1.77205">
        <ele>29.39</ele>
        <time>2020-03-07T10:03:40Z</time>
      </trkpt>
      <trkpt lat="47.13005" lon="-1.77219">
        <ele>28.36</ele>
        <time>2020-03-07T10:03:42Z</time>
      </trkpt>
      <trkpt lat="47.13001" lon="-1.77233">
        <ele>27.39</ele>
        <time>2020-03-07T10:03:44Z</time>
      </trkpt>
      <trkpt lat="47.12996" lon="-1.77249">
        <ele>26.66</ele>
        <time>2020-03-07T10:03:46Z</time>
      </trkpt>
      <trkpt lat="47.12991" lon="-1.77265">
        <ele>26.28</ele>
        <time>2020-03-07T10:03:48Z</time>
      </trkpt>
      <trkpt lat="47.12986" lon="-1.77281">
        <ele>26.11</ele>
        <time>2020-03-07T10:03:50Z</time>
      </trkpt>
      <trkpt lat="47.12981" lon="-1.77295">
        <ele>26.54</ele>
        <time>2020-03-07T10:03:52Z</time>
      </trkpt>
      <trkpt lat="47.12975" lon="-1.77311">
        <ele>26.19</ele>
        <time>2020-03-07T10:03:54Z</time>
      </trkpt>
      <trkpt lat="47.12969" lon="-1.77325">
        <ele>26.6</ele>
        <time>2020-03-07T10:03:56Z</time>
      </trkpt>
      <trkpt lat="47.12965" lon="-1.77337">
        <ele>26.36</ele>
        <time>2020-03-07T10:03:58Z</time>
      </trkpt>
      <trkpt lat="47.12958" lon="-1.77351">
        <ele>26.85</ele>
        <time>2020-03-07T10:04:00Z</time>
      </trkpt>
      <trkpt lat="47.12953" lon="-1.77365">
        <ele>28.33</ele>
        <time>2020-03-07T10:04:02Z</time>
      </trkpt>
      <trkpt lat="47.12948" lon="-1.7738">
        <ele>29.58</ele>
        <time>2020-03-07T10:04:04Z</time>
      </trkpt>
      <trkpt lat="47.12943" lon="-1.77394">
        <ele>30.56</ele>
        <time>2020-03-07T10:04:06Z</time>
      </trkpt>
      <trkpt lat="47.12938" lon="-1.77409">
        <ele>29.14</ele>
        <time>2020-03-07T10:04:08Z</time>
      </trkpt>
      <trkpt lat="47.12932" lon="-1.77425">
        <ele>28.18</ele>
        <time>2020-03-07T10:04:10Z</time>
      </trkpt>
      <trkpt lat="47.12927" lon="-1.7744">
        <ele>27.6</ele>
        <time>2020-03-07T10:04:12Z</time>
      </trkpt>
      <trkpt lat="47.12922" lon="-1.77454">
        <ele>27.83</ele>
        <time>2020-03-07T10:04:14Z</time>
      </trkpt>
      <trkpt lat="47.12917" lon="-1.77469">
        <ele>27.73</ele>
        <time>2020-03-07T10:04:16Z</time>
      </trkpt>
      <trkpt lat="47.12912" lon="-1.77486">
        <ele>27.62</ele>
        <time>2020-03-07T10:04:18Z</time>
      </trkpt>
      <trkpt lat="47.12907" lon="-1.77501">
        <ele>26.89</ele>
        <time>2020-03-07T10:04:20Z</time>
      </trkpt>
      <trkpt lat="47.12903" lon="-1.77516">
        <ele>25.9</ele>
        <time>2020-03-07T10:04:22Z</time>
      </trkpt>
      <trkpt lat="47.129" lon="-1.77531">
        <ele>25.21</ele>
        <time>2020-03-07T10:04:24Z</time>
      </trkpt>
      <trkpt lat="47.12896" lon="-1.77545">
        <ele>26.35</ele>
        <time>2020-03-07T10:04:26Z</time>
      </trkpt>
      <trkpt lat="47.12891" lon="-1.77561">
        <ele>27.27</ele>
        <time>2020-03-07T10:04:28Z</time>
      </trkpt>
      <trkpt lat="47.12886" lon="-1.77577">
        <ele>26.46</ele>
        <time>2020-03-07T10:04:30Z</time>
      </trkpt>
      <trkpt lat="47.12881" lon="-1.7759">
        <ele>26.03</ele>
        <time>2020-03-07T10:04:32Z</time>
      </trkpt>
      <trkpt lat="47.12876" lon="-1.77604">
        <ele>26.37</ele>
        <time>2020-03-07T10:04:34Z</time>
      </trkpt>
      <trkpt lat="47.12871" lon="-1.77621">
        <ele>26.98</ele>
        <time>2020-03-07T10:04:36Z</time>
      </trkpt>
      <trkpt lat="47.12867" lon="-1.77637">
        <ele>27.95</ele>
        <time>2020-03-07T10:04:38Z</time>
      </trkpt>
      <trkpt lat="47.12862" lon="-1.77653">
        <ele>28.15</ele>
        <time>2020-03-07T10:04:40Z</time>
      </trkpt>
      <trkpt lat="47.12857" lon="-1.7767">
        <ele>28.74</ele>
        <time>2020-03-07T10:04:42Z</time>
      </trkpt>
      <trkpt lat="47.12853" lon="-1.77684">
        <ele>28.64</ele>
        <time>2020-03-07T10:04:44Z</time>
      </trkpt>
      <trkpt lat="47.12849" lon="-1.77698">
        <ele>28.97</ele>
        <time>2020-03-07T10:04:46Z</time>
      </trkpt>
      <trkpt lat="47.12844" lon="-1.77712">
        <ele>29.32</ele>
        <time>2020-03-07T10:04:48Z</time>
      </trkpt>
      <trkpt lat="47.12841" lon="-1.77727">
        <ele>29.89</ele>
        <time>2020-03-07T10:04:50Z</time>
      </trkpt>
      <trkpt lat="47.12836" lon="-1.77743">
        <ele>29.84</ele>
        <time>2020-03-07T10:04:52Z</time>
      </trkpt>
      <trkpt lat="47.12832" lon="-1.77761">
        <ele>30.48</ele>
        <time>2020-03-07T10:04:54Z</time>
      </trkpt>
      <trkpt lat="47.12828" lon="-1.77775">
        <ele>31.19</ele>
        <time>2020-03-07T10:04:56Z</time>
      </trkpt>
      <trkpt lat="47.12825" lon="-1.7779">
        <ele>30.99</ele>
        <time>2020-03-07T10:04:58Z</time>
      </trkpt>
      <trkpt lat="47.12821" lon="-1.77803">
        <ele>30.89</ele>
        <time>2020-03-07T10:05:00Z</time>
      </trkpt>
      <trkpt lat="47.12815" lon="-1.77819">
        <ele>30.97</ele>
        <time>2020-03-07T10:05:02Z</time>
      </trkpt>
      <trkpt lat="47.12809" lon="-1.77836">
        <ele>30.4</ele>
        <time>2020-03-07T10:05:04Z</time>
      </trkpt>
      <trkpt lat="47.12806" lon="-1.77849">
        <ele>29.09</ele>
        <time>2020-03-07T10:05:06Z</time>
      </trkpt>
      <trkpt lat="47.128" lon="-1.77866">
        <ele>28.46</ele>
        <time>2020-03-07T10:05:08Z</time>
      </trkpt>
      <trkpt lat="47.12795" lon="-1.77881">
        <ele>28.08</ele>
        <time>2020-03-07T10:05:10Z</time>
      </trkpt>
      <trkpt lat="47.1279" lon="-1.77897">
        <ele>26.84</ele>
        <time>2020-03-07T10:05:12Z</time>
      </trkpt>
      <trkpt lat="47.12786" lon="-1.7791">
        <ele>27.53</ele>
        <time>2020-03-07T10:05:14Z</time>
      </trkpt>
      <trkpt lat="47.12782" lon="-1.77925">
        <ele>27.03</ele>
        <time>2020-03-07T10:05:16Z</time>
      </trkpt>
      <trkpt lat="47.12778" lon="-1.77942">
        <ele>25.89</ele>
        <time>2020-03-07T10:05:18Z</time>
      </trkpt>
      <trkpt lat="47.12774" lon="-1.77956">
        <ele>26.07</ele>
        <time>2020-03-07T10:05:20Z</time>
      </trkpt>
      <trkpt lat="47.1277" lon="-1.77972">
        <ele>27.68</ele>
        <time>2020-03-07T10:05:22Z</time>
      </trkpt>
      <trkpt lat="47.12765" lon="-1.77988">
        <ele>27.96</ele>
        <time>2020-03-07T10:05:24Z</time>
      </trkpt>
      <trkpt lat="47.12761" lon="-1.78002">
        <ele>28.91</ele>
        <time>2020-03-07T10:05:26Z</time>
      </trkpt>
      <trkpt lat="47.12755" lon="-1.78018">
        <ele>27.38</ele>
        <time>2020-03-07T10:05:28Z</time>
      </trkpt>
      <trkpt lat="47.1275" lon="-1.78034">
        <ele>26.16</ele>
        <time>2020-03-07T10:05:30Z</time>
      </trkpt>
      <trkpt lat="47.12745" lon="-1.78048">
        <ele>25.63</ele>
        <time>2020-03-07T10:05:32Z</time>
      </trkpt>
      <trkpt lat="47.12738" lon="-1.78061">
        <ele>24.78</ele>
        <time>2020-03-07T10:05:34Z</time>
      </trkpt>
      <trkpt lat="47.12732" lon="-1.78072">
        <ele>24.46</ele>
        <time>2020-03-07T10:05:36Z</time>
      </trkpt>
      <trkpt lat="47.12724" lon="-1.78083">
        <ele>25.08</ele>
        <time>2020-03-07T10:05:38Z</time>
      </trkpt>
      <trkpt lat="47.12717" lon="-1.78094">
        <ele>25.63</ele>
        <time>2020-03-07T10:05:40Z</time>
      </trkpt>
      <trkpt lat="47.12708" lon="-1.78107">
        <ele>26.5</ele>
        <time>2020-03-07T10:05:42Z</time>
      </trkpt>
      <trkpt lat="47.127" lon="-1.78119">
        <ele>26.84</ele>
        <time>2020-03-07T10:05:44Z</time>
      </trkpt>
      <trkpt lat="47.12692" lon="-1.7813">
        <ele>27.18</ele>
        <time>2020-03-07T10:05:46Z</time>
      </trkpt>
      <trkpt lat="47.12684" lon="-1.78142">
        <ele>27.62</ele>
        <time>2020-03-07T10:05:48Z</time>
      </trkpt>
      <trkpt lat="47.12675" lon="-1.78155">
        <ele>27.86</ele>
        <time>2020-03-07T10:05:50Z</time>
      </trkpt>
      <trkpt lat="47.12667" lon="-1.78165">
        <ele>28.82</ele>
        <time>2020-03-07T10:05:52Z</time>
      </trkpt>
      <trkpt lat="47.12659" lon="-1.78177">
        <ele>29.27</ele>
        <time>2020-03-07T10:05:54Z</time>
      </trkpt>
      <trkpt lat="47.12651" lon="-1.78189">
        <ele>29.3</ele>
        <time>2020-03-07T10:05:56Z</time>
      </trkpt>
      <trkpt lat="47.12642" lon="-1.78201">
        <ele>27.33</ele>
        <time>2020-03-07T10:05:58Z</time>
      </trkpt>
      <trkpt lat="47.12634" lon="-1.78213">
        <ele>26.67</ele>
        <time>2020-03-07T10:06:00Z</time>
      </trkpt>
      <trkpt lat="47.12627" lon="-1.78225">
        <ele>27.37</ele>
        <time>2020-03-07T10:06:02Z</time>
      </trkpt>
      <trkpt lat="47.12621" lon="-1.7824">
        <ele>27.48</ele>
        <time>2020-03-07T10:06:04Z</time>
      </trkpt>
      <trkpt lat="47.12617" lon="-1.78254">
        <ele>27.65</ele>
        <time>2020-03-07T10:06:06Z</time>
      </trkpt>
      <trkpt lat="47.12612" lon="-1.78272">
        <ele>27.67</ele>
        <time>2020-03-07T10:06:08Z</time>
      </trkpt>
      <trkpt lat="47.12607" lon="-1.78289">
        <ele>26.92</ele>
        <time>2020-03-07T10:06:10Z</time>
      </trkpt>
      <trkpt lat="47.12604" lon="-1.78303">
        <ele>26.72</ele>
        <time>2020-03-07T10:06:12Z</time>
      </trkpt>
      <trkpt lat="47.12601" lon="-1.78318">
        <ele>26.5</ele>
        <time>2020-03-07T10:06:14Z</time>
      </trkpt>
      <trkpt lat="47.12597" lon="-1.78335">
        <ele>25.45</ele>
        <time>2020-03-07T10:06:16Z</time>
      </trkpt>
      <trkpt lat="47.12593" lon="-1.78352">
        <ele>27.25</ele>
        <time>2020-03-07T10:06:18Z</time>
      </trkpt>
      <trkpt lat="47.1259" lon="-1.78367">
        <ele>28.06</ele>
        <time>2020-03-07T10:06:20Z</time>
      </trkpt>
      <trkpt lat="47.12586" lon="-1.78382">
        <ele>28.36</ele>
        <time>2020-03-07T10:06:22Z</time>
      </trkpt>
      <trkpt lat="47.12583" lon="-1.78398">
        <ele>27.31</ele>
        <time>2020-03-07T10:06:24Z</time>
      </trkpt>
      <trkpt lat="47.1258" lon="-1.78412">
        <ele>26.94</ele>
        <time>2020-03-07T10:06:26Z</time>
      </trkpt>
      <trkpt lat="47.12575" lon="-1.7843">
        <ele>27.35</ele>
        <time>2020-03-07T10:06:28Z</time>
      </trkpt>
      <trkpt lat="47.12572" lon="-1.78445">
        <ele>27.53</ele>
        <time>2020-03-07T10:06:30Z</time>
      </trkpt>
      <trkpt lat="47.12569" lon="-1.78459">
        <ele>27.02</ele>
        <time>2020-03-07T10:06:32Z</time>
      </trkpt>
      <trkpt lat="47.12564" lon="-1.78477">
        <ele>27.39</ele>
        <time>2020-03-07T10:06:34Z</time>
      </trkpt>
      <trkpt lat="47.1256" lon="-1.78492">
        <ele>26.56</ele>
        <time>2020-03-07T10:06:36Z</time>
      </trkpt>
      <trkpt lat="47.12557" lon="-1.78508">
        <ele>26.24</ele>
        <time>2020-03-07T10:06:38Z</time>
      </trkpt>
      <trkpt lat="47.12553" lon="-1.78524">
        <ele>25.86</ele>
        <time>2020-03-07T10:06:40Z</time>
      </trkpt>
      <trkpt lat="47.12549" lon="-1.78541">
        <ele>25.93</ele>
        <time>2020-03-07T10:06:42Z</time>
      </trkpt>
      <trkpt lat="47.12546" lon="-1.78557">
        <ele>25.27</ele>
        <time>2020-03-07T10:06:44Z</time>
      </trkpt>
      <trkpt lat="47.12541" lon="-1.78576">
        <ele>25.38</ele>
        <time>2020-03-07T10:06:46Z</time>
      </trkpt>
      <trkpt lat="47.12539" lon="-1.78589">
        <ele>25.41</ele>
        <time>2020-03-07T10:06:48Z</time>
      </trkpt>
      <trkpt lat="47.12534" lon="-1.78605">
        <ele>24.98</ele>
        <time>2020-03-07T10:06:50Z</time>
      </trkpt>
      <trkpt lat="47.12531" lon="-1.78619">
        <ele>24.77</ele>
        <time>2020-03-07T10:06:52Z</time>
      </trkpt>
      <trkpt lat="47.12526" lon="-1.78635">
        <ele>23.78</ele>
        <time>2020-03-07T10:06:54Z</time>
      </trkpt>
      <trkpt lat="47.12521" lon="-1.7865">
        <ele>22.64</ele>
        <time>2020-03-07T10:06:56Z</time>
      </trkpt>
      <trkpt lat="47.12515" lon="-1.78664">
        <ele>23</ele>
        <time>2020-03-07T10:06:58Z</time>
      </trkpt>
      <trkpt lat="47.12509" lon="-1.78679">
        <ele>22.94</ele>
        <time>2020-03-07T10:07:00Z</time>
      </trkpt>
      <trkpt lat="47.12504" lon="-1.78694">
        <ele>23.93</ele>
        <time>2020-03-07T10:07:02Z</time>
      </trkpt>
      <trkpt lat="47.12499" lon="-1.78708">
        <ele>24.64</ele>
        <time>2020-03-07T10:07:04Z</time>
      </trkpt>
      <trkpt lat="47.12493" lon="-1.78726">
        <ele>25.13</ele>
        <time>2020-03-07T10:07:06Z</time>
      </trkpt>
      <trkpt lat="47.1249" lon="-1.78741">
        <ele>25.13</ele>
        <time>2020-03-07T10:07:08Z</time>
      </trkpt>
      <trkpt lat="47.12487" lon="-1.78755">
        <ele>25.01</ele>
        <time>2020-03-07T10:07:10Z</time>
      </trkpt>
      <trkpt lat="47.12483" lon="-1.78772">
        <ele>24.79</ele>
        <time>2020-03-07T10:07:12Z</time>
      </trkpt>
      <trkpt lat="47.12479" lon="-1.78788">
        <ele>23.66</ele>
        <time>2020-03-07T10:07:14Z</time>
      </trkpt>
      <trkpt lat="47.12476" lon="-1.78804">
        <ele>23.26</ele>
        <time>2020-03-07T10:07:16Z</time>
      </trkpt>
      <trkpt lat="47.12472" lon="-1.7882">
        <ele>23.14</ele>
        <time>2020-03-07T10:07:18Z</time>
      </trkpt>
      <trkpt lat="47.12468" lon="-1.78837">
        <ele>23.4</ele>
        <time>2020-03-07T10:07:20Z</time>
      </trkpt>
      <trkpt lat="47.12466" lon="-1.78852">
        <ele>23.02</ele>
        <time>2020-03-07T10:07:22Z</time>
      </trkpt>
      <trkpt lat="47.12464" lon="-1.78871">
        <ele>23.29</ele>
        <time>2020-03-07T10:07:24Z</time>
      </trkpt>
      <trkpt lat="47.12462" lon="-1.78888">
        <ele>22.67</ele>
        <time>2020-03-07T10:07:26Z</time>
      </trkpt>
      <trkpt lat="47.12461" lon="-1.78904">
        <ele>23.31</ele>
        <time>2020-03-07T10:07:28Z</time>
      </trkpt>
      <trkpt lat="47.12458" lon="-1.78925">
        <ele>24.14</ele>
        <time>2020-03-07T10:07:31Z</time>
      </trkpt>
      <trkpt lat="47.12454" lon="-1.78944">
        <ele>24.45</ele>
        <time>2020-03-07T10:07:33Z</time>
      </trkpt>
      <trkpt lat="47.1245" lon="-1.78958">
        <ele>24.45</ele>
        <time>2020-03-07T10:07:35Z</time>
      </trkpt>
      <trkpt lat="47.12447" lon="-1.78975">
        <ele>24.25</ele>
        <time>2020-03-07T10:07:37Z</time>
      </trkpt>
      <trkpt lat="47.12442" lon="-1.7899">
        <ele>23.21</ele>
        <time>2020-03-07T10:07:39Z</time>
      </trkpt>
      <trkpt lat="47.12438" lon="-1.79005">
        <ele>22.9</ele>
        <time>2020-03-07T10:07:41Z</time>
      </trkpt>
      <trkpt lat="47.12434" lon="-1.79021">
        <ele>23.61</ele>
        <time>2020-03-07T10:07:43Z</time>
      </trkpt>
      <trkpt lat="47.1243" lon="-1.79035">
        <ele>23.14</ele>
        <time>2020-03-07T10:07:45Z</time>
      </trkpt>
      <trkpt lat="47.12426" lon="-1.7905">
        <ele>22.74</ele>
        <time>2020-03-07T10:07:47Z</time>
      </trkpt>
      <trkpt lat="47.12422" lon="-1.79067">
        <ele>22.74</ele>
        <time>2020-03-07T10:07:49Z</time>
      </trkpt>
      <trkpt lat="47.12419" lon="-1.79084">
        <ele>23.52</ele>
        <time>2020-03-07T10:07:51Z</time>
      </trkpt>
      <trkpt lat="47.12417" lon="-1.79099">
        <ele>24.1</ele>
        <time>2020-03-07T10:07:53Z</time>
      </trkpt>
      <trkpt lat="47.12415" lon="-1.79114">
        <ele>23.94</ele>
        <time>2020-03-07T10:07:55Z</time>
      </trkpt>
      <trkpt lat="47.12414" lon="-1.79127">
        <ele>24.1</ele>
        <time>2020-03-07T10:07:57Z</time>
      </trkpt>
      <trkpt lat="47.12413" lon="-1.79144">
        <ele>24.78</ele>
        <time>2020-03-07T10:07:59Z</time>
      </trkpt>
      <trkpt lat="47.12414" lon="-1.79161">
        <ele>25.04</ele>
        <time>2020-03-07T10:08:01Z</time>
      </trkpt>
      <trkpt lat="47.12416" lon="-1.79178">
        <ele>24.91</ele>
        <time>2020-03-07T10:08:03Z</time>
      </trkpt>
      <trkpt lat="47.12417" lon="-1.79199">
        <ele>24.71</ele>
        <time>2020-03-07T10:08:06Z</time>
      </trkpt>
      <trkpt lat="47.1242" lon="-1.79219">
        <ele>24.66</ele>
        <time>2020-03-07T10:08:08Z</time>
      </trkpt>
      <trkpt lat="47.12422" lon="-1.79237">
        <ele>23.98</ele>
        <time>2020-03-07T10:08:10Z</time>
      </trkpt>
      <trkpt lat="47.12421" lon="-1.79257">
        <ele>23.46</ele>
        <time>2020-03-07T10:08:13Z</time>
      </trkpt>
      <trkpt lat="47.12417" lon="-1.79275">
        <ele>22.75</ele>
        <time>2020-03-07T10:08:15Z</time>
      </trkpt>
      <trkpt lat="47.12412" lon="-1.79291">
        <ele>21.95</ele>
        <time>2020-03-07T10:08:17Z</time>
      </trkpt>
      <trkpt lat="47.12405" lon="-1.79306">
        <ele>20.77</ele>
        <time>2020-03-07T10:08:19Z</time>
      </trkpt>
      <trkpt lat="47.12398" lon="-1.7932">
        <ele>20.4</ele>
        <time>2020-03-07T10:08:21Z</time>
      </trkpt>
      <trkpt lat="47.12392" lon="-1.79332">
        <ele>20.49</ele>
        <time>2020-03-07T10:08:23Z</time>
      </trkpt>
      <trkpt lat="47.12386" lon="-1.79344">
        <ele>20.49</ele>
        <time>2020-03-07T10:08:25Z</time>
      </trkpt>
      <trkpt lat="47.12378" lon="-1.79358">
        <ele>21.32</ele>
        <time>2020-03-07T10:08:27Z</time>
      </trkpt>
      <trkpt lat="47.12371" lon="-1.79373">
        <ele>22.03</ele>
        <time>2020-03-07T10:08:29Z</time>
      </trkpt>
      <trkpt lat="47.12365" lon="-1.79388">
        <ele>23.19</ele>
        <time>2020-03-07T10:08:31Z</time>
      </trkpt>
      <trkpt lat="47.12359" lon="-1.79403">
        <ele>24.21</ele>
        <time>2020-03-07T10:08:33Z</time>
      </trkpt>
      <trkpt lat="47.12355" lon="-1.79415">
        <ele>25.07</ele>
        <time>2020-03-07T10:08:35Z</time>
      </trkpt>
      <trkpt lat="47.1235" lon="-1.7943">
        <ele>24.59</ele>
        <time>2020-03-07T10:08:37Z</time>
      </trkpt>
      <trkpt lat="47.12347" lon="-1.79445">
        <ele>24.78</ele>
        <time>2020-03-07T10:08:39Z</time>
      </trkpt>
      <trkpt lat="47.12343" lon="-1.79461">
        <ele>24.9</ele>
        <time>2020-03-07T10:08:41Z</time>
      </trkpt>
      <trkpt lat="47.12342" lon="-1.79476">
        <ele>23.48</ele>
        <time>2020-03-07T10:08:43Z</time>
      </trkpt>
      <trkpt lat="47.12339" lon="-1.79494">
        <ele>22.65</ele>
        <time>2020-03-07T10:08:45Z</time>
      </trkpt>
      <trkpt lat="47.12337" lon="-1.7951">
        <ele>22.83</ele>
        <time>2020-03-07T10:08:47Z</time>
      </trkpt>
      <trkpt lat="47.12335" lon="-1.79526">
        <ele>23.16</ele>
        <time>2020-03-07T10:08:49Z</time>
      </trkpt>
      <trkpt lat="47.12332" lon="-1.79542">
        <ele>24.12</ele>
        <time>2020-03-07T10:08:51Z</time>
      </trkpt>
      <trkpt lat="47.1233" lon="-1.79558">
        <ele>22.94</ele>
        <time>2020-03-07T10:08:53Z</time>
      </trkpt>
      <trkpt lat="47.12327" lon="-1.79578">
        <ele>22.89</ele>
        <time>2020-03-07T10:08:56Z</time>
      </trkpt>
      <trkpt lat="47.12321" lon="-1.79591">
        <ele>22.48</ele>
        <time>2020-03-07T10:08:58Z</time>
      </trkpt>
      <trkpt lat="47.12312" lon="-1.79595">
        <ele>22.99</ele>
        <time>2020-03-07T10:09:00Z</time>
      </trkpt>
      <trkpt lat="47.123" lon="-1.79597">
        <ele>23.71</ele>
        <time>2020-03-07T10:09:03Z</time>
      </trkpt>
      <trkpt lat="47.1229" lon="-1.79597">
        <ele>23.24</ele>
        <time>2020-03-07T10:09:05Z</time>
      </trkpt>
      <trkpt lat="47.12279" lon="-1.79596">
        <ele>22.22</ele>
        <time>2020-03-07T10:09:07Z</time>
      </trkpt>
      <trkpt lat="47.12269" lon="-1.79596">
        <ele>22.86</ele>
        <time>2020-03-07T10:09:09Z</time>
      </trkpt>
      <trkpt lat="47.12258" lon="-1.79596">
        <ele>23.33</ele>
        <time>2020-03-07T10:09:11Z</time>
      </trkpt>
      <trkpt lat="47.12245" lon="-1.79596">
        <ele>24.61</ele>
        <time>2020-03-07T10:09:13Z</time>
      </trkpt>
      <trkpt lat="47.12235" lon="-1.79596">
        <ele>25.94</ele>
        <time>2020-03-07T10:09:15Z</time>
      </trkpt>
      <trkpt lat="47.12225" lon="-1.79596">
        <ele>26.18</ele>
        <time>2020-03-07T10:09:17Z</time>
      </trkpt>
      <trkpt lat="47.12214" lon="-1.79596">
        <ele>26.16</ele>
        <time>2020-03-07T10:09:19Z</time>
      </trkpt>
      <trkpt lat="47.12204" lon="-1.79595">
        <ele>26.39</ele>
        <time>2020-03-07T10:09:21Z</time>
      </trkpt>
      <trkpt lat="47.12194" lon="-1.79594">
        <ele>26.38</ele>
        <time>2020-03-07T10:09:23Z</time>
      </trkpt>
      <trkpt lat="47.12182" lon="-1.79595">
        <ele>26.02</ele>
        <time>2020-03-07T10:09:25Z</time>
      </trkpt>
      <trkpt lat="47.12171" lon="-1.79595">
        <ele>25.55</ele>
        <time>2020-03-07T10:09:27Z</time>
      </trkpt>
      <trkpt lat="47.1216" lon="-1.79595">
        <ele>24.96</ele>
        <time>2020-03-07T10:09:29Z</time>
      </trkpt>
      <trkpt lat="47.12148" lon="-1.79596">
        <ele>24.6</ele>
        <time>2020-03-07T10:09:31Z</time>
      </trkpt>
      <trkpt lat="47.12136" lon="-1.79596">
        <ele>23.68</ele>
        <time>2020-03-07T10:09:33Z</time>
      </trkpt>
      <trkpt lat="47.12125" lon="-1.79597">
        <ele>24.39</ele>
        <time>2020-03-07T10:09:35Z</time>
      </trkpt>
      <trkpt lat="47.12114" lon="-1.79598">
        <ele>25.65</ele>
        <time>2020-03-07T10:09:37Z</time>
      </trkpt>
      <trkpt lat="47.12103" lon="-1.79601">
        <ele>27.05</ele>
        <time>2020-03-07T10:09:39Z</time>
      </trkpt>
      <trkpt lat="47.1209" lon="-1.79607">
        <ele>27.31</ele>
        <time>2020-03-07T10:09:41Z</time>
      </trkpt>
      <trkpt lat="47.12078" lon="-1.79617">
        <ele>27.29</ele>
        <time>2020-03-07T10:09:43Z</time>
      </trkpt>
      <trkpt lat="47.12067" lon="-1.79628">
        <ele>26.36</ele>
        <time>2020-03-07T10:09:45Z</time>
      </trkpt>
      <trkpt lat="47.12057" lon="-1.79639">
        <ele>25.17</ele>
        <time>2020-03-07T10:09:47Z</time>
      </trkpt>
      <trkpt lat="47.12047" lon="-1.79649">
        <ele>24.21</ele>
        <time>2020-03-07T10:09:49Z</time>
      </trkpt>
      <trkpt lat="47.12038" lon="-1.7966">
        <ele>22.76</ele>
        <time>2020-03-07T10:09:51Z</time>
      </trkpt>
      <trkpt lat="47.12027" lon="-1.7967">
        <ele>21.5</ele>
        <time>2020-03-07T10:09:53Z</time>
      </trkpt>
      <trkpt lat="47.12017" lon="-1.7968">
        <ele>20.84</ele>
        <time>2020-03-07T10:09:55Z</time>
      </trkpt>
      <trkpt lat="47.12007" lon="-1.7969">
        <ele>21.2</ele>
        <time>2020-03-07T10:09:57Z</time>
      </trkpt>
      <trkpt lat="47.11997" lon="-1.79701">
        <ele>22.14</ele>
        <time>2020-03-07T10:09:59Z</time>
      </trkpt>
      <trkpt lat="47.11987" lon="-1.79711">
        <ele>22.38</ele>
        <time>2020-03-07T10:10:01Z</time>
      </trkpt>
      <trkpt lat="47.11977" lon="-1.7972">
        <ele>21.47</ele>
        <time>2020-03-07T10:10:03Z</time>
      </trkpt>
      <trkpt lat="47.11967" lon="-1.79731">
        <ele>20.74</ele>
        <time>2020-03-07T10:10:05Z</time>
      </trkpt>
      <trkpt lat="47.11957" lon="-1.79742">
        <ele>20.72</ele>
        <time>2020-03-07T10:10:07Z</time>
      </trkpt>
      <trkpt lat="47.11947" lon="-1.79755">
        <ele>20.5</ele>
        <time>2020-03-07T10:10:09Z</time>
      </trkpt>
      <trkpt lat="47.11937" lon="-1.79768">
        <ele>19.74</ele>
        <time>2020-03-07T10:10:11Z</time>
      </trkpt>
      <trkpt lat="47.11929" lon="-1.79779">
        <ele>19.49</ele>
        <time>2020-03-07T10:10:13Z</time>
      </trkpt>
      <trkpt lat="47.11919" lon="-1.7979">
        <ele>19.65</ele>
        <time>2020-03-07T10:10:15Z</time>
      </trkpt>
      <trkpt lat="47.1191" lon="-1.79802">
        <ele>19.54</ele>
        <time>2020-03-07T10:10:17Z</time>
      </trkpt>
      <trkpt lat="47.11899" lon="-1.79815">
        <ele>18.87</ele>
        <time>2020-03-07T10:10:19Z</time>
      </trkpt>
      <trkpt lat="47.11891" lon="-1.79826">
        <ele>18.9</ele>
        <time>2020-03-07T10:10:21Z</time>
      </trkpt>
      <trkpt lat="47.11882" lon="-1.79836">
        <ele>18.13</ele>
        <time>2020-03-07T10:10:23Z</time>
      </trkpt>
      <trkpt lat="47.11872" lon="-1.79847">
        <ele>18.55</ele>
        <time>2020-03-07T10:10:25Z</time>
      </trkpt>
      <trkpt lat="47.11863" lon="-1.79858">
        <ele>18.22</ele>
        <time>2020-03-07T10:10:27Z</time>
      </trkpt>
      <trkpt lat="47.11852" lon="-1.79869">
        <ele>18.41</ele>
        <time>2020-03-07T10:10:29Z</time>
      </trkpt>
      <trkpt lat="47.11843" lon="-1.79879">
        <ele>18.21</ele>
        <time>2020-03-07T10:10:31Z</time>
      </trkpt>
      <trkpt lat="47.11832" lon="-1.7989">
        <ele>16.93</ele>
        <time>2020-03-07T10:10:33Z</time>
      </trkpt>
      <trkpt lat="47.11822" lon="-1.79901">
        <ele>14.97</ele>
        <time>2020-03-07T10:10:35Z</time>
      </trkpt>
      <trkpt lat="47.11814" lon="-1.79909">
        <ele>13.47</ele>
        <time>2020-03-07T10:10:37Z</time>
      </trkpt>
      <trkpt lat="47.11804" lon="-1.79921">
        <ele>12.68</ele>
        <time>2020-03-07T10:10:39Z</time>
      </trkpt>
      <trkpt lat="47.11795" lon="-1.79932">
        <ele>12.83</ele>
        <time>2020-03-07T10:10:41Z</time>
      </trkpt>
      <trkpt lat="47.11788" lon="-1.7994">
        <ele>12.94</ele>
        <time>2020-03-07T10:10:43Z</time>
      </trkpt>
      <trkpt lat="47.11779" lon="-1.7995">
        <ele>12.96</ele>
        <time>2020-03-07T10:10:45Z</time>
      </trkpt>
      <trkpt lat="47.1177" lon="-1.7996">
        <ele>13.39</ele>
        <time>2020-03-07T10:10:47Z</time>
      </trkpt>
      <trkpt lat="47.1176" lon="-1.79973">
        <ele>13.5</ele>
        <time>2020-03-07T10:10:49Z</time>
      </trkpt>
      <trkpt lat="47.11752" lon="-1.79981">
        <ele>12.42</ele>
        <time>2020-03-07T10:10:52Z</time>
      </trkpt>
      <trkpt lat="47.11742" lon="-1.79979">
        <ele>13.23</ele>
        <time>2020-03-07T10:10:54Z</time>
      </trkpt>
      <trkpt lat="47.1173" lon="-1.79976">
        <ele>16.1</ele>
        <time>2020-03-07T10:10:57Z</time>
      </trkpt>
      <trkpt lat="47.11719" lon="-1.79974">
        <ele>17.52</ele>
        <time>2020-03-07T10:10:59Z</time>
      </trkpt>
      <trkpt lat="47.11707" lon="-1.79973">
        <ele>18.03</ele>
        <time>2020-03-07T10:11:01Z</time>
      </trkpt>
      <trkpt lat="47.11695" lon="-1.79972">
        <ele>18.45</ele>
        <time>2020-03-07T10:11:03Z</time>
      </trkpt>
      <trkpt lat="47.11683" lon="-1.7997">
        <ele>17.97</ele>
        <time>2020-03-07T10:11:05Z</time>
      </trkpt>
      <trkpt lat="47.11673" lon="-1.79969">
        <ele>17.56</ele>
        <time>2020-03-07T10:11:07Z</time>
      </trkpt>
      <trkpt lat="47.11662" lon="-1.79966">
        <ele>18.17</ele>
        <time>2020-03-07T10:11:09Z</time>
      </trkpt>
      <trkpt lat="47.1165" lon="-1.79964">
        <ele>18.75</ele>
        <time>2020-03-07T10:11:11Z</time>
      </trkpt>
      <trkpt lat="47.11638" lon="-1.79962">
        <ele>19.26</ele>
        <time>2020-03-07T10:11:13Z</time>
      </trkpt>
      <trkpt lat="47.11626" lon="-1.7996">
        <ele>19.41</ele>
        <time>2020-03-07T10:11:15Z</time>
      </trkpt>
      <trkpt lat="47.11611" lon="-1.79958">
        <ele>18.93</ele>
        <time>2020-03-07T10:11:17Z</time>
      </trkpt>
      <trkpt lat="47.11598" lon="-1.79956">
        <ele>18.84</ele>
        <time>2020-03-07T10:11:19Z</time>
      </trkpt>
      <trkpt lat="47.11585" lon="-1.79954">
        <ele>17.78</ele>
        <time>2020-03-07T10:11:21Z</time>
      </trkpt>
      <trkpt lat="47.11572" lon="-1.79954">
        <ele>17.3</ele>
        <time>2020-03-07T10:11:23Z</time>
      </trkpt>
      <trkpt lat="47.11559" lon="-1.79956">
        <ele>17.33</ele>
        <time>2020-03-07T10:11:25Z</time>
      </trkpt>
      <trkpt lat="47.11546" lon="-1.79962">
        <ele>16.93</ele>
        <time>2020-03-07T10:11:27Z</time>
      </trkpt>
      <trkpt lat="47.11536" lon="-1.79969">
        <ele>16.96</ele>
        <time>2020-03-07T10:11:29Z</time>
      </trkpt>
      <trkpt lat="47.11525" lon="-1.79979">
        <ele>17.61</ele>
        <time>2020-03-07T10:11:31Z</time>
      </trkpt>
      <trkpt lat="47.11514" lon="-1.79992">
        <ele>16.78</ele>
        <time>2020-03-07T10:11:33Z</time>
      </trkpt>
      <trkpt lat="47.11504" lon="-1.80004">
        <ele>16.23</ele>
        <time>2020-03-07T10:11:35Z</time>
      </trkpt>
      <trkpt lat="47.11495" lon="-1.80017">
        <ele>16.46</ele>
        <time>2020-03-07T10:11:37Z</time>
      </trkpt>
      <trkpt lat="47.11486" lon="-1.80028">
        <ele>16.62</ele>
        <time>2020-03-07T10:11:39Z</time>
      </trkpt>
      <trkpt lat="47.11475" lon="-1.80042">
        <ele>15.98</ele>
        <time>2020-03-07T10:11:41Z</time>
      </trkpt>
      <trkpt lat="47.11466" lon="-1.80055">
        <ele>15.21</ele>
        <time>2020-03-07T10:11:43Z</time>
      </trkpt>
      <trkpt lat="47.11457" lon="-1.80067">
        <ele>15.16</ele>
        <time>2020-03-07T10:11:45Z</time>
      </trkpt>
      <trkpt lat="47.11447" lon="-1.80081">
        <ele>14.79</ele>
        <time>2020-03-07T10:11:47Z</time>
      </trkpt>
      <trkpt lat="47.11438" lon="-1.80093">
        <ele>14.07</ele>
        <time>2020-03-07T10:11:49Z</time>
      </trkpt>
      <trkpt lat="47.11429" lon="-1.80104">
        <ele>13.44</ele>
        <time>2020-03-07T10:11:51Z</time>
      </trkpt>
      <trkpt lat="47.11419" lon="-1.80117">
        <ele>13.44</ele>
        <time>2020-03-07T10:11:53Z</time>
      </trkpt>
      <trkpt lat="47.1141" lon="-1.8013">
        <ele>12.75</ele>
        <time>2020-03-07T10:11:55Z</time>
      </trkpt>
      <trkpt lat="47.114" lon="-1.80142">
        <ele>11.81</ele>
        <time>2020-03-07T10:11:57Z</time>
      </trkpt>
      <trkpt lat="47.11391" lon="-1.80154">
        <ele>11.65</ele>
        <time>2020-03-07T10:11:59Z</time>
      </trkpt>
      <trkpt lat="47.11382" lon="-1.80165">
        <ele>11.38</ele>
        <time>2020-03-07T10:12:01Z</time>
      </trkpt>
      <trkpt lat="47.11372" lon="-1.80179">
        <ele>11.3</ele>
        <time>2020-03-07T10:12:03Z</time>
      </trkpt>
      <trkpt lat="47.11362" lon="-1.80191">
        <ele>11.31</ele>
        <time>2020-03-07T10:12:05Z</time>
      </trkpt>
      <trkpt lat="47.11354" lon="-1.80202">
        <ele>11.25</ele>
        <time>2020-03-07T10:12:07Z</time>
      </trkpt>
      <trkpt lat="47.11345" lon="-1.80213">
        <ele>11.11</ele>
        <time>2020-03-07T10:12:09Z</time>
      </trkpt>
      <trkpt lat="47.11336" lon="-1.80227">
        <ele>11.7</ele>
        <time>2020-03-07T10:12:11Z</time>
      </trkpt>
      <trkpt lat="47.11327" lon="-1.8024">
        <ele>11.08</ele>
        <time>2020-03-07T10:12:13Z</time>
      </trkpt>
      <trkpt lat="47.11317" lon="-1.80253">
        <ele>10.35</ele>
        <time>2020-03-07T10:12:15Z</time>
      </trkpt>
      <trkpt lat="47.11307" lon="-1.80265">
        <ele>10.15</ele>
        <time>2020-03-07T10:12:17Z</time>
      </trkpt>
      <trkpt lat="47.11297" lon="-1.80278">
        <ele>11.08</ele>
        <time>2020-03-07T10:12:19Z</time>
      </trkpt>
      <trkpt lat="47.11289" lon="-1.80291">
        <ele>11.15</ele>
        <time>2020-03-07T10:12:21Z</time>
      </trkpt>
      <trkpt lat="47.11281" lon="-1.80302">
        <ele>10.93</ele>
        <time>2020-03-07T10:12:23Z</time>
      </trkpt>
      <trkpt lat="47.11272" lon="-1.80314">
        <ele>11.85</ele>
        <time>2020-03-07T10:12:25Z</time>
      </trkpt>
      <trkpt lat="47.11263" lon="-1.80327">
        <ele>13.04</ele>
        <time>2020-03-07T10:12:27Z</time>
      </trkpt>
      <trkpt lat="47.11254" lon="-1.80339">
        <ele>12.89</ele>
        <time>2020-03-07T10:12:29Z</time>
      </trkpt>
      <trkpt lat="47.11245" lon="-1.80351">
        <ele>11.56</ele>
        <time>2020-03-07T10:12:31Z</time>
      </trkpt>
      <trkpt lat="47.11236" lon="-1.80363">
        <ele>10.39</ele>
        <time>2020-03-07T10:12:33Z</time>
      </trkpt>
      <trkpt lat="47.11226" lon="-1.80378">
        <ele>10.61</ele>
        <time>2020-03-07T10:12:35Z</time>
      </trkpt>
      <trkpt lat="47.11217" lon="-1.8039">
        <ele>11.6</ele>
        <time>2020-03-07T10:12:37Z</time>
      </trkpt>
      <trkpt lat="47.11207" lon="-1.80401">
        <ele>12.11</ele>
        <time>2020-03-07T10:12:39Z</time>
      </trkpt>
      <trkpt lat="47.11196" lon="-1.80412">
        <ele>12.4</ele>
        <time>2020-03-07T10:12:41Z</time>
      </trkpt>
      <trkpt lat="47.11186" lon="-1.80423">
        <ele>13.1</ele>
        <time>2020-03-07T10:12:43Z</time>
      </trkpt>
      <trkpt lat="47.11177" lon="-1.80432">
        <ele>13.95</ele>
        <time>2020-03-07T10:12:45Z</time>
      </trkpt>
      <trkpt lat="47.11166" lon="-1.80442">
        <ele>14.2</ele>
        <time>2020-03-07T10:12:47Z</time>
      </trkpt>
      <trkpt lat="47.11156" lon="-1.80448">
        <ele>14.76</ele>
        <time>2020-03-07T10:12:49Z</time>
      </trkpt>
      <trkpt lat="47.11144" lon="-1.80456">
        <ele>15.75</ele>
        <time>2020-03-07T10:12:51Z</time>
      </trkpt>
      <trkpt lat="47.11134" lon="-1.80462">
        <ele>16.4</ele>
        <time>2020-03-07T10:12:53Z</time>
      </trkpt>
      <trkpt lat="47.11125" lon="-1.80468">
        <ele>16.55</ele>
        <time>2020-03-07T10:12:55Z</time>
      </trkpt>
      <trkpt lat="47.11112" lon="-1.80476">
        <ele>16.35</ele>
        <time>2020-03-07T10:12:57Z</time>
      </trkpt>
      <trkpt lat="47.11102" lon="-1.80483">
        <ele>16.29</ele>
        <time>2020-03-07T10:12:59Z</time>
      </trkpt>
      <trkpt lat="47.11092" lon="-1.80488">
        <ele>15.91</ele>
        <time>2020-03-07T10:13:01Z</time>
      </trkpt>
      <trkpt lat="47.11079" lon="-1.80497">
        <ele>15.76</ele>
        <time>2020-03-07T10:13:03Z</time>
      </trkpt>
      <trkpt lat="47.11066" lon="-1.80504">
        <ele>15.85</ele>
        <time>2020-03-07T10:13:05Z</time>
      </trkpt>
      <trkpt lat="47.11053" lon="-1.80512">
        <ele>17.21</ele>
        <time>2020-03-07T10:13:07Z</time>
      </trkpt>
      <trkpt lat="47.11041" lon="-1.80522">
        <ele>17.64</ele>
        <time>2020-03-07T10:13:09Z</time>
      </trkpt>
      <trkpt lat="47.11029" lon="-1.80531">
        <ele>18.14</ele>
        <time>2020-03-07T10:13:11Z</time>
      </trkpt>
      <trkpt lat="47.11018" lon="-1.80539">
        <ele>18.53</ele>
        <time>2020-03-07T10:13:13Z</time>
      </trkpt>
      <trkpt lat="47.11009" lon="-1.80545">
        <ele>18.47</ele>
        <time>2020-03-07T10:13:15Z</time>
      </trkpt>
      <trkpt lat="47.10997" lon="-1.80553">
        <ele>18.29</ele>
        <time>2020-03-07T10:13:17Z</time>
      </trkpt>
      <trkpt lat="47.10986" lon="-1.80559">
        <ele>17.02</ele>
        <time>2020-03-07T10:13:19Z</time>
      </trkpt>
      <trkpt lat="47.10972" lon="-1.80567">
        <ele>15.71</ele>
        <time>2020-03-07T10:13:21Z</time>
      </trkpt>
      <trkpt lat="47.1096" lon="-1.80576">
        <ele>15.52</ele>
        <time>2020-03-07T10:13:23Z</time>
      </trkpt>
      <trkpt lat="47.10948" lon="-1.80584">
        <ele>15.32</ele>
        <time>2020-03-07T10:13:25Z</time>
      </trkpt>
      <trkpt lat="47.10936" lon="-1.80592">
        <ele>16.46</ele>
        <time>2020-03-07T10:13:27Z</time>
      </trkpt>
      <trkpt lat="47.10926" lon="-1.80599">
        <ele>16.61</ele>
        <time>2020-03-07T10:13:29Z</time>
      </trkpt>
      <trkpt lat="47.10917" lon="-1.80605">
        <ele>16.5</ele>
        <time>2020-03-07T10:13:31Z</time>
      </trkpt>
      <trkpt lat="47.10905" lon="-1.80612">
        <ele>16.83</ele>
        <time>2020-03-07T10:13:33Z</time>
      </trkpt>
      <trkpt lat="47.10893" lon="-1.80621">
        <ele>16.96</ele>
        <time>2020-03-07T10:13:35Z</time>
      </trkpt>
      <trkpt lat="47.10883" lon="-1.80628">
        <ele>16.87</ele>
        <time>2020-03-07T10:13:37Z</time>
      </trkpt>
      <trkpt lat="47.1087" lon="-1.80636">
        <ele>17.48</ele>
        <time>2020-03-07T10:13:39Z</time>
      </trkpt>
      <trkpt lat="47.10859" lon="-1.80644">
        <ele>16.74</ele>
        <time>2020-03-07T10:13:41Z</time>
      </trkpt>
      <trkpt lat="47.1085" lon="-1.80648">
        <ele>16.63</ele>
        <time>2020-03-07T10:13:43Z</time>
      </trkpt>
      <trkpt lat="47.10837" lon="-1.80653">
        <ele>18.04</ele>
        <time>2020-03-07T10:13:46Z</time>
      </trkpt>
      <trkpt lat="47.10823" lon="-1.80659">
        <ele>18.36</ele>
        <time>2020-03-07T10:13:48Z</time>
      </trkpt>
      <trkpt lat="47.1081" lon="-1.80664">
        <ele>17.54</ele>
        <time>2020-03-07T10:13:50Z</time>
      </trkpt>
      <trkpt lat="47.10797" lon="-1.80669">
        <ele>16.86</ele>
        <time>2020-03-07T10:13:52Z</time>
      </trkpt>
      <trkpt lat="47.10784" lon="-1.80674">
        <ele>15.57</ele>
        <time>2020-03-07T10:13:54Z</time>
      </trkpt>
      <trkpt lat="47.10771" lon="-1.80679">
        <ele>15.33</ele>
        <time>2020-03-07T10:13:56Z</time>
      </trkpt>
      <trkpt lat="47.10757" lon="-1.80683">
        <ele>15.46</ele>
        <time>2020-03-07T10:13:58Z</time>
      </trkpt>
      <trkpt lat="47.10744" lon="-1.80686">
        <ele>15.71</ele>
        <time>2020-03-07T10:14:00Z</time>
      </trkpt>
      <trkpt lat="47.1073" lon="-1.80688">
        <ele>15.46</ele>
        <time>2020-03-07T10:14:02Z</time>
      </trkpt>
      <trkpt lat="47.10717" lon="-1.8069">
        <ele>16.1</ele>
        <time>2020-03-07T10:14:04Z</time>
      </trkpt>
      <trkpt lat="47.10705" lon="-1.80691">
        <ele>16.34</ele>
        <time>2020-03-07T10:14:06Z</time>
      </trkpt>
      <trkpt lat="47.10693" lon="-1.80691">
        <ele>15.72</ele>
        <time>2020-03-07T10:14:08Z</time>
      </trkpt>
      <trkpt lat="47.1068" lon="-1.80693">
        <ele>15.15</ele>
        <time>2020-03-07T10:14:10Z</time>
      </trkpt>
      <trkpt lat="47.10667" lon="-1.80694">
        <ele>14.71</ele>
        <time>2020-03-07T10:14:12Z</time>
      </trkpt>
      <trkpt lat="47.10654" lon="-1.80695">
        <ele>13.26</ele>
        <time>2020-03-07T10:14:14Z</time>
      </trkpt>
      <trkpt lat="47.10642" lon="-1.80696">
        <ele>11.95</ele>
        <time>2020-03-07T10:14:16Z</time>
      </trkpt>
      <trkpt lat="47.10629" lon="-1.80697">
        <ele>11.89</ele>
        <time>2020-03-07T10:14:18Z</time>
      </trkpt>
      <trkpt lat="47.10617" lon="-1.807">
        <ele>12.78</ele>
        <time>2020-03-07T10:14:20Z</time>
      </trkpt>
      <trkpt lat="47.10605" lon="-1.80704">
        <ele>12.43</ele>
        <time>2020-03-07T10:14:22Z</time>
      </trkpt>
      <trkpt lat="47.10592" lon="-1.8071">
        <ele>13.65</ele>
        <time>2020-03-07T10:14:24Z</time>
      </trkpt>
      <trkpt lat="47.10581" lon="-1.80718">
        <ele>13.24</ele>
        <time>2020-03-07T10:14:26Z</time>
      </trkpt>
      <trkpt lat="47.10571" lon="-1.80727">
        <ele>12.3</ele>
        <time>2020-03-07T10:14:28Z</time>
      </trkpt>
      <trkpt lat="47.1056" lon="-1.8074">
        <ele>11.41</ele>
        <time>2020-03-07T10:14:30Z</time>
      </trkpt>
      <trkpt lat="47.10551" lon="-1.80754">
        <ele>10.28</ele>
        <time>2020-03-07T10:14:32Z</time>
      </trkpt>
      <trkpt lat="47.10542" lon="-1.80765">
        <ele>9.36</ele>
        <time>2020-03-07T10:14:34Z</time>
      </trkpt>
      <trkpt lat="47.10531" lon="-1.80779">
        <ele>8.25</ele>
        <time>2020-03-07T10:14:36Z</time>
      </trkpt>
      <trkpt lat="47.10523" lon="-1.80788">
        <ele>7.75</ele>
        <time>2020-03-07T10:14:38Z</time>
      </trkpt>
      <trkpt lat="47.10514" lon="-1.80801">
        <ele>6.63</ele>
        <time>2020-03-07T10:14:40Z</time>
      </trkpt>
      <trkpt lat="47.10506" lon="-1.80812">
        <ele>6.79</ele>
        <time>2020-03-07T10:14:42Z</time>
      </trkpt>
      <trkpt lat="47.10495" lon="-1.80817">
        <ele>6.97</ele>
        <time>2020-03-07T10:14:44Z</time>
      </trkpt>
      <trkpt lat="47.10486" lon="-1.80824">
        <ele>7.74</ele>
        <time>2020-03-07T10:14:46Z</time>
      </trkpt>
      <trkpt lat="47.10475" lon="-1.80835">
        <ele>8.23</ele>
        <time>2020-03-07T10:14:48Z</time>
      </trkpt>
      <trkpt lat="47.10467" lon="-1.80849">
        <ele>8.25</ele>
        <time>2020-03-07T10:14:50Z</time>
      </trkpt>
      <trkpt lat="47.10459" lon="-1.80863">
        <ele>8.52</ele>
        <time>2020-03-07T10:14:52Z</time>
      </trkpt>
      <trkpt lat="47.10452" lon="-1.80877">
        <ele>8.49</ele>
        <time>2020-03-07T10:14:54Z</time>
      </trkpt>
      <trkpt lat="47.10445" lon="-1.8089">
        <ele>8.81</ele>
        <time>2020-03-07T10:14:56Z</time>
      </trkpt>
      <trkpt lat="47.10435" lon="-1.80905">
        <ele>8.69</ele>
        <time>2020-03-07T10:14:58Z</time>
      </trkpt>
      <trkpt lat="47.10428" lon="-1.80917">
        <ele>9.85</ele>
        <time>2020-03-07T10:15:00Z</time>
      </trkpt>
      <trkpt lat="47.1042" lon="-1.80927">
        <ele>11.9</ele>
        <time>2020-03-07T10:15:02Z</time>
      </trkpt>
      <trkpt lat="47.10413" lon="-1.80938">
        <ele>13.44</ele>
        <time>2020-03-07T10:15:04Z</time>
      </trkpt>
      <trkpt lat="47.10405" lon="-1.80949">
        <ele>13.7</ele>
        <time>2020-03-07T10:15:06Z</time>
      </trkpt>
      <trkpt lat="47.10398" lon="-1.80962">
        <ele>13.11</ele>
        <time>2020-03-07T10:15:08Z</time>
      </trkpt>
      <trkpt lat="47.10391" lon="-1.80973">
        <ele>11.94</ele>
        <time>2020-03-07T10:15:10Z</time>
      </trkpt>
      <trkpt lat="47.10383" lon="-1.80984">
        <ele>12.7</ele>
        <time>2020-03-07T10:15:13Z</time>
      </trkpt>
      <trkpt lat="47.10377" lon="-1.81001">
        <ele>12.6</ele>
        <time>2020-03-07T10:15:16Z</time>
      </trkpt>
      <trkpt lat="47.10372" lon="-1.81018">
        <ele>10.64</ele>
        <time>2020-03-07T10:15:19Z</time>
      </trkpt>
      <trkpt lat="47.10368" lon="-1.8103">
        <ele>9.74</ele>
        <time>2020-03-07T10:15:21Z</time>
      </trkpt>
      <trkpt lat="47.10361" lon="-1.81041">
        <ele>8.8</ele>
        <time>2020-03-07T10:15:24Z</time>
      </trkpt>
      <trkpt lat="47.10349" lon="-1.81046">
        <ele>8.98</ele>
        <time>2020-03-07T10:15:26Z</time>
      </trkpt>
      <trkpt lat="47.10343" lon="-1.81035">
        <ele>10.76</ele>
        <time>2020-03-07T10:15:28Z</time>
      </trkpt>
      <trkpt lat="47.10332" lon="-1.81025">
        <ele>13.19</ele>
        <time>2020-03-07T10:15:30Z</time>
      </trkpt>
      <trkpt lat="47.10325" lon="-1.81017">
        <ele>14.43</ele>
        <time>2020-03-07T10:15:34Z</time>
      </trkpt>
      <trkpt lat="47.10314" lon="-1.81016">
        <ele>17.57</ele>
        <time>2020-03-07T10:15:37Z</time>
      </trkpt>
      <trkpt lat="47.10304" lon="-1.81016">
        <ele>18.47</ele>
        <time>2020-03-07T10:15:39Z</time>
      </trkpt>
      <trkpt lat="47.10292" lon="-1.81015">
        <ele>18.63</ele>
        <time>2020-03-07T10:15:41Z</time>
      </trkpt>
      <trkpt lat="47.10283" lon="-1.81013">
        <ele>18.76</ele>
        <time>2020-03-07T10:15:43Z</time>
      </trkpt>
      <trkpt lat="47.10272" lon="-1.81011">
        <ele>19.22</ele>
        <time>2020-03-07T10:15:45Z</time>
      </trkpt>
      <trkpt lat="47.10261" lon="-1.81011">
        <ele>20.87</ele>
        <time>2020-03-07T10:15:47Z</time>
      </trkpt>
      <trkpt lat="47.10248" lon="-1.8101">
        <ele>20.38</ele>
        <time>2020-03-07T10:15:49Z</time>
      </trkpt>
      <trkpt lat="47.10237" lon="-1.81011">
        <ele>20.89</ele>
        <time>2020-03-07T10:15:51Z</time>
      </trkpt>
      <trkpt lat="47.10227" lon="-1.8101">
        <ele>20.74</ele>
        <time>2020-03-07T10:15:53Z</time>
      </trkpt>
      <trkpt lat="47.10218" lon="-1.81008">
        <ele>19.66</ele>
        <time>2020-03-07T10:15:55Z</time>
      </trkpt>
      <trkpt lat="47.10205" lon="-1.81003">
        <ele>19.9</ele>
        <time>2020-03-07T10:15:57Z</time>
      </trkpt>
      <trkpt lat="47.10189" lon="-1.80996">
        <ele>18.38</ele>
        <time>2020-03-07T10:15:59Z</time>
      </trkpt>
      <trkpt lat="47.10176" lon="-1.80992">
        <ele>16.1</ele>
        <time>2020-03-07T10:16:01Z</time>
      </trkpt>
      <trkpt lat="47.10166" lon="-1.80986">
        <ele>12.87</ele>
        <time>2020-03-07T10:16:03Z</time>
      </trkpt>
      <trkpt lat="47.10157" lon="-1.80981">
        <ele>10.55</ele>
        <time>2020-03-07T10:16:05Z</time>
      </trkpt>
      <trkpt lat="47.10148" lon="-1.80976">
        <ele>9.72</ele>
        <time>2020-03-07T10:16:10Z</time>
      </trkpt>
      <trkpt lat="47.10137" lon="-1.80975">
        <ele>8.74</ele>
        <time>2020-03-07T10:16:13Z</time>
      </trkpt>
      <trkpt lat="47.10123" lon="-1.80974">
        <ele>7.67</ele>
        <time>2020-03-07T10:16:16Z</time>
      </trkpt>
      <trkpt lat="47.10112" lon="-1.80972">
        <ele>6.91</ele>
        <time>2020-03-07T10:16:18Z</time>
      </trkpt>
      <trkpt lat="47.101" lon="-1.80973">
        <ele>7.68</ele>
        <time>2020-03-07T10:16:20Z</time>
      </trkpt>
      <trkpt lat="47.10089" lon="-1.80974">
        <ele>8.91</ele>
        <time>2020-03-07T10:16:22Z</time>
      </trkpt>
      <trkpt lat="47.10076" lon="-1.80974">
        <ele>10.94</ele>
        <time>2020-03-07T10:16:25Z</time>
      </trkpt>
      <trkpt lat="47.10065" lon="-1.80974">
        <ele>11.91</ele>
        <time>2020-03-07T10:16:27Z</time>
      </trkpt>
      <trkpt lat="47.10053" lon="-1.80973">
        <ele>12.83</ele>
        <time>2020-03-07T10:16:29Z</time>
      </trkpt>
      <trkpt lat="47.10042" lon="-1.80974">
        <ele>13.41</ele>
        <time>2020-03-07T10:16:31Z</time>
      </trkpt>
      <trkpt lat="47.10031" lon="-1.80975">
        <ele>14.07</ele>
        <time>2020-03-07T10:16:33Z</time>
      </trkpt>
      <trkpt lat="47.10019" lon="-1.80976">
        <ele>13.03</ele>
        <time>2020-03-07T10:16:35Z</time>
      </trkpt>
      <trkpt lat="47.10006" lon="-1.80977">
        <ele>12.56</ele>
        <time>2020-03-07T10:16:37Z</time>
      </trkpt>
      <trkpt lat="47.09995" lon="-1.80978">
        <ele>13.93</ele>
        <time>2020-03-07T10:16:39Z</time>
      </trkpt>
      <trkpt lat="47.09985" lon="-1.80978">
        <ele>13.64</ele>
        <time>2020-03-07T10:16:41Z</time>
      </trkpt>
      <trkpt lat="47.09971" lon="-1.80978">
        <ele>12.71</ele>
        <time>2020-03-07T10:16:44Z</time>
      </trkpt>
      <trkpt lat="47.09958" lon="-1.80978">
        <ele>12.83</ele>
        <time>2020-03-07T10:16:46Z</time>
      </trkpt>
      <trkpt lat="47.09947" lon="-1.8098">
        <ele>11.27</ele>
        <time>2020-03-07T10:16:48Z</time>
      </trkpt>
      <trkpt lat="47.09935" lon="-1.80981">
        <ele>10.33</ele>
        <time>2020-03-07T10:16:50Z</time>
      </trkpt>
      <trkpt lat="47.09923" lon="-1.80982">
        <ele>9.4</ele>
        <time>2020-03-07T10:16:52Z</time>
      </trkpt>
      <trkpt lat="47.09914" lon="-1.80984">
        <ele>9.08</ele>
        <time>2020-03-07T10:16:54Z</time>
      </trkpt>
      <trkpt lat="47.09902" lon="-1.80986">
        <ele>11.02</ele>
        <time>2020-03-07T10:16:56Z</time>
      </trkpt>
      <trkpt lat="47.09892" lon="-1.80987">
        <ele>13.62</ele>
        <time>2020-03-07T10:16:58Z</time>
      </trkpt>
      <trkpt lat="47.09881" lon="-1.80988">
        <ele>16.58</ele>
        <time>2020-03-07T10:17:00Z</time>
      </trkpt>
      <trkpt lat="47.0987" lon="-1.80989">
        <ele>17.19</ele>
        <time>2020-03-07T10:17:02Z</time>
      </trkpt>
      <trkpt lat="47.09859" lon="-1.80989">
        <ele>17.5</ele>
        <time>2020-03-07T10:17:04Z</time>
      </trkpt>
      <trkpt lat="47.09847" lon="-1.80989">
        <ele>17.9</ele>
        <time>2020-03-07T10:17:06Z</time>
      </trkpt>
      <trkpt lat="47.09836" lon="-1.80989">
        <ele>17.48</ele>
        <time>2020-03-07T10:17:08Z</time>
      </trkpt>
      <trkpt lat="47.09824" lon="-1.80989">
        <ele>17</ele>
        <time>2020-03-07T10:17:10Z</time>
      </trkpt>
      <trkpt lat="47.09811" lon="-1.8099">
        <ele>15.94</ele>
        <time>2020-03-07T10:17:13Z</time>
      </trkpt>
      <trkpt lat="47.09801" lon="-1.80991">
        <ele>15.57</ele>
        <time>2020-03-07T10:17:15Z</time>
      </trkpt>
      <trkpt lat="47.09792" lon="-1.80991">
        <ele>16.77</ele>
        <time>2020-03-07T10:17:17Z</time>
      </trkpt>
      <trkpt lat="47.0978" lon="-1.80988">
        <ele>16.43</ele>
        <time>2020-03-07T10:17:19Z</time>
      </trkpt>
      <trkpt lat="47.09767" lon="-1.80987">
        <ele>15.78</ele>
        <time>2020-03-07T10:17:21Z</time>
      </trkpt>
      <trkpt lat="47.09755" lon="-1.80985">
        <ele>14.65</ele>
        <time>2020-03-07T10:17:23Z</time>
      </trkpt>
      <trkpt lat="47.09745" lon="-1.80983">
        <ele>14.49</ele>
        <time>2020-03-07T10:17:25Z</time>
      </trkpt>
      <trkpt lat="47.09732" lon="-1.8098">
        <ele>14.47</ele>
        <time>2020-03-07T10:17:27Z</time>
      </trkpt>
      <trkpt lat="47.09719" lon="-1.80978">
        <ele>12.68</ele>
        <time>2020-03-07T10:17:29Z</time>
      </trkpt>
      <trkpt lat="47.09706" lon="-1.80973">
        <ele>11.98</ele>
        <time>2020-03-07T10:17:31Z</time>
      </trkpt>
      <trkpt lat="47.09695" lon="-1.80971">
        <ele>12.09</ele>
        <time>2020-03-07T10:17:33Z</time>
      </trkpt>
      <trkpt lat="47.09681" lon="-1.80968">
        <ele>13.84</ele>
        <time>2020-03-07T10:17:35Z</time>
      </trkpt>
      <trkpt lat="47.09668" lon="-1.80965">
        <ele>15.53</ele>
        <time>2020-03-07T10:17:37Z</time>
      </trkpt>
      <trkpt lat="47.09653" lon="-1.80961">
        <ele>16.11</ele>
        <time>2020-03-07T10:17:39Z</time>
      </trkpt>
      <trkpt lat="47.09639" lon="-1.80957">
        <ele>16.1</ele>
        <time>2020-03-07T10:17:41Z</time>
      </trkpt>
      <trkpt lat="47.09627" lon="-1.80954">
        <ele>16.25</ele>
        <time>2020-03-07T10:17:43Z</time>
      </trkpt>
      <trkpt lat="47.09617" lon="-1.80951">
        <ele>16.81</ele>
        <time>2020-03-07T10:17:45Z</time>
      </trkpt>
      <trkpt lat="47.09605" lon="-1.80949">
        <ele>16.11</ele>
        <time>2020-03-07T10:17:47Z</time>
      </trkpt>
      <trkpt lat="47.09594" lon="-1.80943">
        <ele>14.92</ele>
        <time>2020-03-07T10:17:49Z</time>
      </trkpt>
      <trkpt lat="47.09582" lon="-1.80942">
        <ele>14.53</ele>
        <time>2020-03-07T10:17:51Z</time>
      </trkpt>
      <trkpt lat="47.09567" lon="-1.8094">
        <ele>15.05</ele>
        <time>2020-03-07T10:17:53Z</time>
      </trkpt>
      <trkpt lat="47.09552" lon="-1.80937">
        <ele>14.02</ele>
        <time>2020-03-07T10:17:55Z</time>
      </trkpt>
      <trkpt lat="47.0954" lon="-1.80934">
        <ele>13.27</ele>
        <time>2020-03-07T10:17:57Z</time>
      </trkpt>
      <trkpt lat="47.09528" lon="-1.80932">
        <ele>13.19</ele>
        <time>2020-03-07T10:17:59Z</time>
      </trkpt>
      <trkpt lat="47.09517" lon="-1.8093">
        <ele>14.97</ele>
        <time>2020-03-07T10:18:01Z</time>
      </trkpt>
      <trkpt lat="47.09505" lon="-1.80927">
        <ele>14.66</ele>
        <time>2020-03-07T10:18:03Z</time>
      </trkpt>
      <trkpt lat="47.09492" lon="-1.80926">
        <ele>13.81</ele>
        <time>2020-03-07T10:18:05Z</time>
      </trkpt>
      <trkpt lat="47.0948" lon="-1.8093">
        <ele>13.01</ele>
        <time>2020-03-07T10:18:07Z</time>
      </trkpt>
      <trkpt lat="47.09466" lon="-1.80935">
        <ele>11.83</ele>
        <time>2020-03-07T10:18:09Z</time>
      </trkpt>
      <trkpt lat="47.09454" lon="-1.80941">
        <ele>10.34</ele>
        <time>2020-03-07T10:18:11Z</time>
      </trkpt>
      <trkpt lat="47.09443" lon="-1.80948">
        <ele>9.5</ele>
        <time>2020-03-07T10:18:13Z</time>
      </trkpt>
      <trkpt lat="47.09432" lon="-1.80955">
        <ele>8.87</ele>
        <time>2020-03-07T10:18:15Z</time>
      </trkpt>
      <trkpt lat="47.09421" lon="-1.80962">
        <ele>9.23</ele>
        <time>2020-03-07T10:18:17Z</time>
      </trkpt>
      <trkpt lat="47.0941" lon="-1.80971">
        <ele>9.74</ele>
        <time>2020-03-07T10:18:19Z</time>
      </trkpt>
      <trkpt lat="47.09401" lon="-1.80977">
        <ele>10.28</ele>
        <time>2020-03-07T10:18:21Z</time>
      </trkpt>
      <trkpt lat="47.09388" lon="-1.80985">
        <ele>9.51</ele>
        <time>2020-03-07T10:18:23Z</time>
      </trkpt>
      <trkpt lat="47.09375" lon="-1.80992">
        <ele>8.62</ele>
        <time>2020-03-07T10:18:25Z</time>
      </trkpt>
      <trkpt lat="47.09362" lon="-1.81">
        <ele>7.45</ele>
        <time>2020-03-07T10:18:27Z</time>
      </trkpt>
      <trkpt lat="47.0935" lon="-1.81006">
        <ele>7.56</ele>
        <time>2020-03-07T10:18:29Z</time>
      </trkpt>
      <trkpt lat="47.09339" lon="-1.81012">
        <ele>8.67</ele>
        <time>2020-03-07T10:18:31Z</time>
      </trkpt>
      <trkpt lat="47.09328" lon="-1.81019">
        <ele>8.37</ele>
        <time>2020-03-07T10:18:33Z</time>
      </trkpt>
      <trkpt lat="47.09315" lon="-1.81027">
        <ele>7.24</ele>
        <time>2020-03-07T10:18:35Z</time>
      </trkpt>
      <trkpt lat="47.09303" lon="-1.81034">
        <ele>6.38</ele>
        <time>2020-03-07T10:18:37Z</time>
      </trkpt>
      <trkpt lat="47.09291" lon="-1.8104">
        <ele>5.39</ele>
        <time>2020-03-07T10:18:39Z</time>
      </trkpt>
      <trkpt lat="47.0928" lon="-1.81046">
        <ele>4.02</ele>
        <time>2020-03-07T10:18:41Z</time>
      </trkpt>
      <trkpt lat="47.09268" lon="-1.81054">
        <ele>2.92</ele>
        <time>2020-03-07T10:18:43Z</time>
      </trkpt>
      <trkpt lat="47.09258" lon="-1.81061">
        <ele>3.43</ele>
        <time>2020-03-07T10:18:45Z</time>
      </trkpt>
      <trkpt lat="47.09247" lon="-1.81069">
        <ele>4.54</ele>
        <time>2020-03-07T10:18:47Z</time>
      </trkpt>
      <trkpt lat="47.09239" lon="-1.81074">
        <ele>6.08</ele>
        <time>2020-03-07T10:18:49Z</time>
      </trkpt>
      <trkpt lat="47.0923" lon="-1.81082">
        <ele>5.98</ele>
        <time>2020-03-07T10:18:51Z</time>
      </trkpt>
      <trkpt lat="47.09221" lon="-1.81089">
        <ele>5.57</ele>
        <time>2020-03-07T10:19:00Z</time>
      </trkpt>
      <trkpt lat="47.09211" lon="-1.81085">
        <ele>4.29</ele>
        <time>2020-03-07T10:19:03Z</time>
      </trkpt>
      <trkpt lat="47.09203" lon="-1.81078">
        <ele>1.58</ele>
        <time>2020-03-07T10:19:06Z</time>
      </trkpt>
      <trkpt lat="47.09193" lon="-1.8107">
        <ele>2.25</ele>
        <time>2020-03-07T10:19:08Z</time>
      </trkpt>
      <trkpt lat="47.09181" lon="-1.81061">
        <ele>3.57</ele>
        <time>2020-03-07T10:19:11Z</time>
      </trkpt>
      <trkpt lat="47.09172" lon="-1.81053">
        <ele>2.57</ele>
        <time>2020-03-07T10:19:13Z</time>
      </trkpt>
      <trkpt lat="47.09164" lon="-1.81067">
        <ele>1.4</ele>
        <time>2020-03-07T10:19:16Z</time>
      </trkpt>
      <trkpt lat="47.09159" lon="-1.81082">
        <ele>0.96</ele>
        <time>2020-03-07T10:19:18Z</time>
      </trkpt>
      <trkpt lat="47.09148" lon="-1.81098">
        <ele>1.58</ele>
        <time>2020-03-07T10:19:21Z</time>
      </trkpt>
      <trkpt lat="47.09136" lon="-1.8111">
        <ele>1.63</ele>
        <time>2020-03-07T10:19:23Z</time>
      </trkpt>
      <trkpt lat="47.09126" lon="-1.81118">
        <ele>1.97</ele>
        <time>2020-03-07T10:19:25Z</time>
      </trkpt>
      <trkpt lat="47.09114" lon="-1.81121">
        <ele>1.92</ele>
        <time>2020-03-07T10:19:27Z</time>
      </trkpt>
      <trkpt lat="47.09102" lon="-1.81123">
        <ele>0.28</ele>
        <time>2020-03-07T10:19:29Z</time>
      </trkpt>
      <trkpt lat="47.09093" lon="-1.81123">
        <ele>1.47</ele>
        <time>2020-03-07T10:19:31Z</time>
      </trkpt>
      <trkpt lat="47.09084" lon="-1.81124">
        <ele>3.18</ele>
        <time>2020-03-07T10:19:33Z</time>
      </trkpt>
      <trkpt lat="47.09072" lon="-1.8113">
        <ele>4.41</ele>
        <time>2020-03-07T10:19:35Z</time>
      </trkpt>
      <trkpt lat="47.0906" lon="-1.81141">
        <ele>5.08</ele>
        <time>2020-03-07T10:19:37Z</time>
      </trkpt>
      <trkpt lat="47.09052" lon="-1.81153">
        <ele>4.61</ele>
        <time>2020-03-07T10:19:39Z</time>
      </trkpt>
      <trkpt lat="47.09045" lon="-1.81168">
        <ele>4.54</ele>
        <time>2020-03-07T10:19:41Z</time>
      </trkpt>
      <trkpt lat="47.09039" lon="-1.81183">
        <ele>4.08</ele>
        <time>2020-03-07T10:19:43Z</time>
      </trkpt>
      <trkpt lat="47.09035" lon="-1.81197">
        <ele>3.77</ele>
        <time>2020-03-07T10:19:45Z</time>
      </trkpt>
      <trkpt lat="47.09031" lon="-1.81213">
        <ele>2.66</ele>
        <time>2020-03-07T10:19:47Z</time>
      </trkpt>
      <trkpt lat="47.09025" lon="-1.81227">
        <ele>1.75</ele>
        <time>2020-03-07T10:19:49Z</time>
      </trkpt>
      <trkpt lat="47.0902" lon="-1.81241">
        <ele>0.2</ele>
        <time>2020-03-07T10:19:51Z</time>
      </trkpt>
      <trkpt lat="47.09014" lon="-1.81257">
        <ele>1.17</ele>
        <time>2020-03-07T10:19:53Z</time>
      </trkpt>
      <trkpt lat="47.09007" lon="-1.8127">
        <ele>1.58</ele>
        <time>2020-03-07T10:19:56Z</time>
      </trkpt>
      <trkpt lat="47.08999" lon="-1.81281">
        <ele>2.87</ele>
        <time>2020-03-07T10:19:58Z</time>
      </trkpt>
      <trkpt lat="47.08992" lon="-1.81291">
        <ele>3.69</ele>
        <time>2020-03-07T10:20:00Z</time>
      </trkpt>
      <trkpt lat="47.08984" lon="-1.813">
        <ele>3.24</ele>
        <time>2020-03-07T10:20:02Z</time>
      </trkpt>
      <trkpt lat="47.08975" lon="-1.8131">
        <ele>4.23</ele>
        <time>2020-03-07T10:20:04Z</time>
      </trkpt>
      <trkpt lat="47.08968" lon="-1.8132">
        <ele>5.11</ele>
        <time>2020-03-07T10:20:06Z</time>
      </trkpt>
      <trkpt lat="47.08959" lon="-1.81333">
        <ele>5.22</ele>
        <time>2020-03-07T10:20:08Z</time>
      </trkpt>
      <trkpt lat="47.08952" lon="-1.81344">
        <ele>5.19</ele>
        <time>2020-03-07T10:20:10Z</time>
      </trkpt>
      <trkpt lat="47.08943" lon="-1.81355">
        <ele>3.85</ele>
        <time>2020-03-07T10:20:12Z</time>
      </trkpt>
      <trkpt lat="47.08933" lon="-1.81367">
        <ele>3.16</ele>
        <time>2020-03-07T10:20:14Z</time>
      </trkpt>
      <trkpt lat="47.08925" lon="-1.81375">
        <ele>3.02</ele>
        <time>2020-03-07T10:20:16Z</time>
      </trkpt>
      <trkpt lat="47.08917" lon="-1.81381">
        <ele>4.32</ele>
        <time>2020-03-07T10:20:18Z</time>
      </trkpt>
      <trkpt lat="47.08907" lon="-1.81391">
        <ele>5.66</ele>
        <time>2020-03-07T10:20:20Z</time>
      </trkpt>
      <trkpt lat="47.08899" lon="-1.81399">
        <ele>7.12</ele>
        <time>2020-03-07T10:20:22Z</time>
      </trkpt>
      <trkpt lat="47.08891" lon="-1.81409">
        <ele>9.01</ele>
        <time>2020-03-07T10:20:24Z</time>
      </trkpt>
      <trkpt lat="47.08882" lon="-1.8142">
        <ele>8.43</ele>
        <time>2020-03-07T10:20:26Z</time>
      </trkpt>
      <trkpt lat="47.08872" lon="-1.81431">
        <ele>7.04</ele>
        <time>2020-03-07T10:20:28Z</time>
      </trkpt>
      <trkpt lat="47.08864" lon="-1.81442">
        <ele>7.33</ele>
        <time>2020-03-07T10:20:30Z</time>
      </trkpt>
      <trkpt lat="47.08856" lon="-1.81452">
        <ele>6.46</ele>
        <time>2020-03-07T10:20:32Z</time>
      </trkpt>
      <trkpt lat="47.08848" lon="-1.81461">
        <ele>5.49</ele>
        <time>2020-03-07T10:20:34Z</time>
      </trkpt>
      <trkpt lat="47.08841" lon="-1.81469">
        <ele>5.66</ele>
        <time>2020-03-07T10:20:36Z</time>
      </trkpt>
      <trkpt lat="47.08833" lon="-1.81476">
        <ele>6.19</ele>
        <time>2020-03-07T10:20:38Z</time>
      </trkpt>
      <trkpt lat="47.08825" lon="-1.81483">
        <ele>8.21</ele>
        <time>2020-03-07T10:20:40Z</time>
      </trkpt>
      <trkpt lat="47.08817" lon="-1.8149">
        <ele>9.17</ele>
        <time>2020-03-07T10:20:42Z</time>
      </trkpt>
      <trkpt lat="47.08807" lon="-1.81497">
        <ele>10.99</ele>
        <time>2020-03-07T10:20:45Z</time>
      </trkpt>
      <trkpt lat="47.08796" lon="-1.81507">
        <ele>13.75</ele>
        <time>2020-03-07T10:20:48Z</time>
      </trkpt>
      <trkpt lat="47.08785" lon="-1.81516">
        <ele>13.45</ele>
        <time>2020-03-07T10:20:50Z</time>
      </trkpt>
      <trkpt lat="47.08775" lon="-1.81523">
        <ele>12.9</ele>
        <time>2020-03-07T10:20:52Z</time>
      </trkpt>
      <trkpt lat="47.08765" lon="-1.81531">
        <ele>14.09</ele>
        <time>2020-03-07T10:20:54Z</time>
      </trkpt>
      <trkpt lat="47.08754" lon="-1.81542">
        <ele>15.47</ele>
        <time>2020-03-07T10:20:57Z</time>
      </trkpt>
      <trkpt lat="47.08747" lon="-1.81551">
        <ele>16.2</ele>
        <time>2020-03-07T10:20:59Z</time>
      </trkpt>
      <trkpt lat="47.08738" lon="-1.81563">
        <ele>16.07</ele>
        <time>2020-03-07T10:21:02Z</time>
      </trkpt>
      <trkpt lat="47.0873" lon="-1.81574">
        <ele>15.57</ele>
        <time>2020-03-07T10:21:04Z</time>
      </trkpt>
      <trkpt lat="47.08723" lon="-1.81589">
        <ele>15.29</ele>
        <time>2020-03-07T10:21:06Z</time>
      </trkpt>
      <trkpt lat="47.08717" lon="-1.81602">
        <ele>14.61</ele>
        <time>2020-03-07T10:21:08Z</time>
      </trkpt>
      <trkpt lat="47.08712" lon="-1.81617">
        <ele>13.14</ele>
        <time>2020-03-07T10:21:10Z</time>
      </trkpt>
      <trkpt lat="47.08705" lon="-1.81631">
        <ele>11.8</ele>
        <time>2020-03-07T10:21:12Z</time>
      </trkpt>
      <trkpt lat="47.08698" lon="-1.81646">
        <ele>10.18</ele>
        <time>2020-03-07T10:21:14Z</time>
      </trkpt>
      <trkpt lat="47.08692" lon="-1.81664">
        <ele>8.7</ele>
        <time>2020-03-07T10:21:17Z</time>
      </trkpt>
      <trkpt lat="47.08686" lon="-1.81675">
        <ele>8.8</ele>
        <time>2020-03-07T10:21:19Z</time>
      </trkpt>
      <trkpt lat="47.08677" lon="-1.81685">
        <ele>9.07</ele>
        <time>2020-03-07T10:21:21Z</time>
      </trkpt>
      <trkpt lat="47.08668" lon="-1.81691">
        <ele>9.95</ele>
        <time>2020-03-07T10:21:23Z</time>
      </trkpt>
      <trkpt lat="47.08659" lon="-1.81695">
        <ele>10.53</ele>
        <time>2020-03-07T10:21:25Z</time>
      </trkpt>
      <trkpt lat="47.0865" lon="-1.81697">
        <ele>10.99</ele>
        <time>2020-03-07T10:21:27Z</time>
      </trkpt>
      <trkpt lat="47.0864" lon="-1.81696">
        <ele>11.25</ele>
        <time>2020-03-07T10:21:29Z</time>
      </trkpt>
      <trkpt lat="47.08629" lon="-1.81694">
        <ele>12.57</ele>
        <time>2020-03-07T10:21:31Z</time>
      </trkpt>
      <trkpt lat="47.0862" lon="-1.81692">
        <ele>14.16</ele>
        <time>2020-03-07T10:21:33Z</time>
      </trkpt>
      <trkpt lat="47.08609" lon="-1.81689">
        <ele>15.14</ele>
        <time>2020-03-07T10:21:35Z</time>
      </trkpt>
      <trkpt lat="47.086" lon="-1.81686">
        <ele>16.2</ele>
        <time>2020-03-07T10:21:37Z</time>
      </trkpt>
      <trkpt lat="47.0859" lon="-1.81682">
        <ele>17.46</ele>
        <time>2020-03-07T10:21:39Z</time>
      </trkpt>
      <trkpt lat="47.0858" lon="-1.8168">
        <ele>18.55</ele>
        <time>2020-03-07T10:21:41Z</time>
      </trkpt>
      <trkpt lat="47.0857" lon="-1.81678">
        <ele>19.83</ele>
        <time>2020-03-07T10:21:43Z</time>
      </trkpt>
      <trkpt lat="47.0856" lon="-1.81675">
        <ele>19.32</ele>
        <time>2020-03-07T10:21:45Z</time>
      </trkpt>
      <trkpt lat="47.08548" lon="-1.81672">
        <ele>18.46</ele>
        <time>2020-03-07T10:21:47Z</time>
      </trkpt>
      <trkpt lat="47.08536" lon="-1.8167">
        <ele>19.52</ele>
        <time>2020-03-07T10:21:50Z</time>
      </trkpt>
      <trkpt lat="47.08527" lon="-1.8167">
        <ele>20.1</ele>
        <time>2020-03-07T10:21:52Z</time>
      </trkpt>
      <trkpt lat="47.08517" lon="-1.81667">
        <ele>20.28</ele>
        <time>2020-03-07T10:21:54Z</time>
      </trkpt>
      <trkpt lat="47.08507" lon="-1.81665">
        <ele>20.54</ele>
        <time>2020-03-07T10:21:56Z</time>
      </trkpt>
      <trkpt lat="47.08497" lon="-1.81662">
        <ele>21.22</ele>
        <time>2020-03-07T10:21:58Z</time>
      </trkpt>
      <trkpt lat="47.08486" lon="-1.8166">
        <ele>21.55</ele>
        <time>2020-03-07T10:22:00Z</time>
      </trkpt>
      <trkpt lat="47.08476" lon="-1.81659">
        <ele>21.33</ele>
        <time>2020-03-07T10:22:02Z</time>
      </trkpt>
      <trkpt lat="47.08463" lon="-1.81658">
        <ele>20.42</ele>
        <time>2020-03-07T10:22:04Z</time>
      </trkpt>
      <trkpt lat="47.08451" lon="-1.81655">
        <ele>19.91</ele>
        <time>2020-03-07T10:22:06Z</time>
      </trkpt>
      <trkpt lat="47.08439" lon="-1.81653">
        <ele>19.18</ele>
        <time>2020-03-07T10:22:08Z</time>
      </trkpt>
      <trkpt lat="47.0843" lon="-1.81652">
        <ele>17.99</ele>
        <time>2020-03-07T10:22:10Z</time>
      </trkpt>
      <trkpt lat="47.08417" lon="-1.8165">
        <ele>16.82</ele>
        <time>2020-03-07T10:22:13Z</time>
      </trkpt>
      <trkpt lat="47.08407" lon="-1.81647">
        <ele>17.37</ele>
        <time>2020-03-07T10:22:15Z</time>
      </trkpt>
      <trkpt lat="47.08396" lon="-1.81646">
        <ele>18.81</ele>
        <time>2020-03-07T10:22:17Z</time>
      </trkpt>
      <trkpt lat="47.08385" lon="-1.81644">
        <ele>19.31</ele>
        <time>2020-03-07T10:22:19Z</time>
      </trkpt>
      <trkpt lat="47.08373" lon="-1.81644">
        <ele>19.06</ele>
        <time>2020-03-07T10:22:21Z</time>
      </trkpt>
      <trkpt lat="47.08363" lon="-1.81643">
        <ele>18.53</ele>
        <time>2020-03-07T10:22:23Z</time>
      </trkpt>
      <trkpt lat="47.08352" lon="-1.81642">
        <ele>18.16</ele>
        <time>2020-03-07T10:22:25Z</time>
      </trkpt>
      <trkpt lat="47.08341" lon="-1.81641">
        <ele>18.22</ele>
        <time>2020-03-07T10:22:27Z</time>
      </trkpt>
      <trkpt lat="47.0833" lon="-1.8164">
        <ele>17.22</ele>
        <time>2020-03-07T10:22:29Z</time>
      </trkpt>
      <trkpt lat="47.0832" lon="-1.81638">
        <ele>15.75</ele>
        <time>2020-03-07T10:22:31Z</time>
      </trkpt>
      <trkpt lat="47.08308" lon="-1.81636">
        <ele>14.79</ele>
        <time>2020-03-07T10:22:33Z</time>
      </trkpt>
      <trkpt lat="47.08295" lon="-1.81636">
        <ele>14.58</ele>
        <time>2020-03-07T10:22:36Z</time>
      </trkpt>
      <trkpt lat="47.08284" lon="-1.81635">
        <ele>14.7</ele>
        <time>2020-03-07T10:22:38Z</time>
      </trkpt>
      <trkpt lat="47.08274" lon="-1.81634">
        <ele>15.74</ele>
        <time>2020-03-07T10:22:40Z</time>
      </trkpt>
      <trkpt lat="47.08263" lon="-1.81635">
        <ele>16.39</ele>
        <time>2020-03-07T10:22:42Z</time>
      </trkpt>
      <trkpt lat="47.08252" lon="-1.81635">
        <ele>17.04</ele>
        <time>2020-03-07T10:22:44Z</time>
      </trkpt>
      <trkpt lat="47.08242" lon="-1.81634">
        <ele>17.14</ele>
        <time>2020-03-07T10:22:46Z</time>
      </trkpt>
      <trkpt lat="47.08232" lon="-1.81634">
        <ele>18.35</ele>
        <time>2020-03-07T10:22:48Z</time>
      </trkpt>
      <trkpt lat="47.08221" lon="-1.81633">
        <ele>19.9</ele>
        <time>2020-03-07T10:22:50Z</time>
      </trkpt>
      <trkpt lat="47.08212" lon="-1.81633">
        <ele>20.89</ele>
        <time>2020-03-07T10:22:52Z</time>
      </trkpt>
      <trkpt lat="47.08201" lon="-1.81633">
        <ele>20.82</ele>
        <time>2020-03-07T10:22:54Z</time>
      </trkpt>
      <trkpt lat="47.0819" lon="-1.81632">
        <ele>20.98</ele>
        <time>2020-03-07T10:22:56Z</time>
      </trkpt>
      <trkpt lat="47.08178" lon="-1.81631">
        <ele>21.25</ele>
        <time>2020-03-07T10:22:58Z</time>
      </trkpt>
      <trkpt lat="47.08165" lon="-1.81631">
        <ele>19.24</ele>
        <time>2020-03-07T10:23:01Z</time>
      </trkpt>
      <trkpt lat="47.08153" lon="-1.81629">
        <ele>19.29</ele>
        <time>2020-03-07T10:23:03Z</time>
      </trkpt>
      <trkpt lat="47.0814" lon="-1.81628">
        <ele>17.73</ele>
        <time>2020-03-07T10:23:05Z</time>
      </trkpt>
      <trkpt lat="47.08129" lon="-1.81627">
        <ele>16.57</ele>
        <time>2020-03-07T10:23:07Z</time>
      </trkpt>
      <trkpt lat="47.08118" lon="-1.81627">
        <ele>16.17</ele>
        <time>2020-03-07T10:23:09Z</time>
      </trkpt>
      <trkpt lat="47.08106" lon="-1.81624">
        <ele>15.65</ele>
        <time>2020-03-07T10:23:11Z</time>
      </trkpt>
      <trkpt lat="47.08095" lon="-1.81623">
        <ele>15.5</ele>
        <time>2020-03-07T10:23:13Z</time>
      </trkpt>
      <trkpt lat="47.08084" lon="-1.8162">
        <ele>14.69</ele>
        <time>2020-03-07T10:23:15Z</time>
      </trkpt>
      <trkpt lat="47.08072" lon="-1.81616">
        <ele>14.08</ele>
        <time>2020-03-07T10:23:17Z</time>
      </trkpt>
      <trkpt lat="47.08061" lon="-1.81611">
        <ele>14.28</ele>
        <time>2020-03-07T10:23:19Z</time>
      </trkpt>
      <trkpt lat="47.0805" lon="-1.81606">
        <ele>13.64</ele>
        <time>2020-03-07T10:23:21Z</time>
      </trkpt>
      <trkpt lat="47.08039" lon="-1.81601">
        <ele>11.39</ele>
        <time>2020-03-07T10:23:23Z</time>
      </trkpt>
      <trkpt lat="47.08029" lon="-1.81597">
        <ele>9.85</ele>
        <time>2020-03-07T10:23:25Z</time>
      </trkpt>
      <trkpt lat="47.08018" lon="-1.81592">
        <ele>8.99</ele>
        <time>2020-03-07T10:23:27Z</time>
      </trkpt>
      <trkpt lat="47.08007" lon="-1.81585">
        <ele>10.24</ele>
        <time>2020-03-07T10:23:29Z</time>
      </trkpt>
      <trkpt lat="47.07996" lon="-1.8158">
        <ele>9.95</ele>
        <time>2020-03-07T10:23:31Z</time>
      </trkpt>
      <trkpt lat="47.07984" lon="-1.81575">
        <ele>8.41</ele>
        <time>2020-03-07T10:23:33Z</time>
      </trkpt>
      <trkpt lat="47.07974" lon="-1.8157">
        <ele>8.12</ele>
        <time>2020-03-07T10:23:35Z</time>
      </trkpt>
      <trkpt lat="47.07962" lon="-1.81568">
        <ele>8.86</ele>
        <time>2020-03-07T10:23:37Z</time>
      </trkpt>
      <trkpt lat="47.07951" lon="-1.81567">
        <ele>9.95</ele>
        <time>2020-03-07T10:23:39Z</time>
      </trkpt>
      <trkpt lat="47.07938" lon="-1.81565">
        <ele>14.28</ele>
        <time>2020-03-07T10:23:42Z</time>
      </trkpt>
      <trkpt lat="47.07928" lon="-1.81564">
        <ele>18.48</ele>
        <time>2020-03-07T10:23:44Z</time>
      </trkpt>
      <trkpt lat="47.07918" lon="-1.81563">
        <ele>22.68</ele>
        <time>2020-03-07T10:23:46Z</time>
      </trkpt>
      <trkpt lat="47.07907" lon="-1.81565">
        <ele>24.28</ele>
        <time>2020-03-07T10:23:48Z</time>
      </trkpt>
      <trkpt lat="47.07896" lon="-1.81565">
        <ele>23.85</ele>
        <time>2020-03-07T10:23:50Z</time>
      </trkpt>
      <trkpt lat="47.07885" lon="-1.81566">
        <ele>22.92</ele>
        <time>2020-03-07T10:23:52Z</time>
      </trkpt>
      <trkpt lat="47.07873" lon="-1.81565">
        <ele>22.33</ele>
        <time>2020-03-07T10:23:54Z</time>
      </trkpt>
      <trkpt lat="47.07862" lon="-1.81565">
        <ele>21.75</ele>
        <time>2020-03-07T10:23:56Z</time>
      </trkpt>
      <trkpt lat="47.07849" lon="-1.81564">
        <ele>20.89</ele>
        <time>2020-03-07T10:23:58Z</time>
      </trkpt>
      <trkpt lat="47.07839" lon="-1.81562">
        <ele>21.16</ele>
        <time>2020-03-07T10:24:00Z</time>
      </trkpt>
      <trkpt lat="47.07826" lon="-1.81559">
        <ele>20.85</ele>
        <time>2020-03-07T10:24:02Z</time>
      </trkpt>
      <trkpt lat="47.07814" lon="-1.81556">
        <ele>21.24</ele>
        <time>2020-03-07T10:24:04Z</time>
      </trkpt>
      <trkpt lat="47.07804" lon="-1.81554">
        <ele>20.45</ele>
        <time>2020-03-07T10:24:06Z</time>
      </trkpt>
      <trkpt lat="47.07793" lon="-1.81552">
        <ele>20.29</ele>
        <time>2020-03-07T10:24:08Z</time>
      </trkpt>
      <trkpt lat="47.07782" lon="-1.81552">
        <ele>20.43</ele>
        <time>2020-03-07T10:24:10Z</time>
      </trkpt>
      <trkpt lat="47.07772" lon="-1.81552">
        <ele>21.66</ele>
        <time>2020-03-07T10:24:12Z</time>
      </trkpt>
      <trkpt lat="47.07761" lon="-1.81552">
        <ele>21.98</ele>
        <time>2020-03-07T10:24:14Z</time>
      </trkpt>
      <trkpt lat="47.07749" lon="-1.81551">
        <ele>23.61</ele>
        <time>2020-03-07T10:24:16Z</time>
      </trkpt>
      <trkpt lat="47.07738" lon="-1.8155">
        <ele>23.94</ele>
        <time>2020-03-07T10:24:18Z</time>
      </trkpt>
      <trkpt lat="47.07726" lon="-1.81549">
        <ele>23.98</ele>
        <time>2020-03-07T10:24:20Z</time>
      </trkpt>
      <trkpt lat="47.07714" lon="-1.81548">
        <ele>22.58</ele>
        <time>2020-03-07T10:24:22Z</time>
      </trkpt>
      <trkpt lat="47.07701" lon="-1.81548">
        <ele>21.34</ele>
        <time>2020-03-07T10:24:24Z</time>
      </trkpt>
      <trkpt lat="47.07689" lon="-1.81548">
        <ele>20.18</ele>
        <time>2020-03-07T10:24:26Z</time>
      </trkpt>
      <trkpt lat="47.07677" lon="-1.81548">
        <ele>19.93</ele>
        <time>2020-03-07T10:24:28Z</time>
      </trkpt>
      <trkpt lat="47.07665" lon="-1.81547">
        <ele>19.13</ele>
        <time>2020-03-07T10:24:30Z</time>
      </trkpt>
      <trkpt lat="47.07654" lon="-1.81544">
        <ele>19.57</ele>
        <time>2020-03-07T10:24:32Z</time>
      </trkpt>
      <trkpt lat="47.07643" lon="-1.8154">
        <ele>18.92</ele>
        <time>2020-03-07T10:24:34Z</time>
      </trkpt>
      <trkpt lat="47.07633" lon="-1.81535">
        <ele>18.25</ele>
        <time>2020-03-07T10:24:36Z</time>
      </trkpt>
      <trkpt lat="47.0762" lon="-1.81526">
        <ele>17.26</ele>
        <time>2020-03-07T10:24:38Z</time>
      </trkpt>
      <trkpt lat="47.0761" lon="-1.81518">
        <ele>16.84</ele>
        <time>2020-03-07T10:24:40Z</time>
      </trkpt>
      <trkpt lat="47.076" lon="-1.81508">
        <ele>16.58</ele>
        <time>2020-03-07T10:24:42Z</time>
      </trkpt>
      <trkpt lat="47.0759" lon="-1.81499">
        <ele>17.02</ele>
        <time>2020-03-07T10:24:44Z</time>
      </trkpt>
      <trkpt lat="47.07581" lon="-1.81489">
        <ele>16.91</ele>
        <time>2020-03-07T10:24:46Z</time>
      </trkpt>
      <trkpt lat="47.07571" lon="-1.8148">
        <ele>16.31</ele>
        <time>2020-03-07T10:24:48Z</time>
      </trkpt>
      <trkpt lat="47.0756" lon="-1.8147">
        <ele>15.32</ele>
        <time>2020-03-07T10:24:50Z</time>
      </trkpt>
      <trkpt lat="47.07549" lon="-1.8146">
        <ele>14.87</ele>
        <time>2020-03-07T10:24:52Z</time>
      </trkpt>
      <trkpt lat="47.07541" lon="-1.81452">
        <ele>14.09</ele>
        <time>2020-03-07T10:24:54Z</time>
      </trkpt>
      <trkpt lat="47.07531" lon="-1.81446">
        <ele>13.94</ele>
        <time>2020-03-07T10:24:56Z</time>
      </trkpt>
      <trkpt lat="47.0752" lon="-1.81445">
        <ele>14.4</ele>
        <time>2020-03-07T10:24:58Z</time>
      </trkpt>
      <trkpt lat="47.07511" lon="-1.81447">
        <ele>14.85</ele>
        <time>2020-03-07T10:25:00Z</time>
      </trkpt>
      <trkpt lat="47.07501" lon="-1.81453">
        <ele>16.49</ele>
        <time>2020-03-07T10:25:02Z</time>
      </trkpt>
      <trkpt lat="47.07491" lon="-1.8146">
        <ele>18.37</ele>
        <time>2020-03-07T10:25:04Z</time>
      </trkpt>
      <trkpt lat="47.07479" lon="-1.81467">
        <ele>20</ele>
        <time>2020-03-07T10:25:07Z</time>
      </trkpt>
      <trkpt lat="47.07469" lon="-1.81473">
        <ele>20.99</ele>
        <time>2020-03-07T10:25:09Z</time>
      </trkpt>
      <trkpt lat="47.07456" lon="-1.81479">
        <ele>20.75</ele>
        <time>2020-03-07T10:25:11Z</time>
      </trkpt>
      <trkpt lat="47.07444" lon="-1.81483">
        <ele>21.31</ele>
        <time>2020-03-07T10:25:13Z</time>
      </trkpt>
      <trkpt lat="47.07432" lon="-1.81486">
        <ele>21.61</ele>
        <time>2020-03-07T10:25:15Z</time>
      </trkpt>
      <trkpt lat="47.07421" lon="-1.81487">
        <ele>22.55</ele>
        <time>2020-03-07T10:25:17Z</time>
      </trkpt>
      <trkpt lat="47.0741" lon="-1.81487">
        <ele>24.03</ele>
        <time>2020-03-07T10:25:19Z</time>
      </trkpt>
      <trkpt lat="47.07398" lon="-1.81487">
        <ele>24.63</ele>
        <time>2020-03-07T10:25:21Z</time>
      </trkpt>
      <trkpt lat="47.07386" lon="-1.81487">
        <ele>24.8</ele>
        <time>2020-03-07T10:25:23Z</time>
      </trkpt>
      <trkpt lat="47.07373" lon="-1.81486">
        <ele>26.25</ele>
        <time>2020-03-07T10:25:25Z</time>
      </trkpt>
      <trkpt lat="47.0736" lon="-1.81482">
        <ele>24.89</ele>
        <time>2020-03-07T10:25:27Z</time>
      </trkpt>
      <trkpt lat="47.07349" lon="-1.81477">
        <ele>23.98</ele>
        <time>2020-03-07T10:25:29Z</time>
      </trkpt>
      <trkpt lat="47.07339" lon="-1.81472">
        <ele>23.46</ele>
        <time>2020-03-07T10:25:31Z</time>
      </trkpt>
      <trkpt lat="47.07327" lon="-1.81467">
        <ele>22.93</ele>
        <time>2020-03-07T10:25:33Z</time>
      </trkpt>
      <trkpt lat="47.07316" lon="-1.8146">
        <ele>21.96</ele>
        <time>2020-03-07T10:25:35Z</time>
      </trkpt>
      <trkpt lat="47.07305" lon="-1.81453">
        <ele>21.09</ele>
        <time>2020-03-07T10:25:37Z</time>
      </trkpt>
      <trkpt lat="47.07294" lon="-1.81447">
        <ele>19.62</ele>
        <time>2020-03-07T10:25:39Z</time>
      </trkpt>
      <trkpt lat="47.07281" lon="-1.81439">
        <ele>17.27</ele>
        <time>2020-03-07T10:25:41Z</time>
      </trkpt>
      <trkpt lat="47.07269" lon="-1.81431">
        <ele>15.99</ele>
        <time>2020-03-07T10:25:43Z</time>
      </trkpt>
      <trkpt lat="47.07258" lon="-1.81425">
        <ele>15.62</ele>
        <time>2020-03-07T10:25:45Z</time>
      </trkpt>
      <trkpt lat="47.07247" lon="-1.81417">
        <ele>16.47</ele>
        <time>2020-03-07T10:25:47Z</time>
      </trkpt>
      <trkpt lat="47.07239" lon="-1.81408">
        <ele>16.59</ele>
        <time>2020-03-07T10:25:49Z</time>
      </trkpt>
      <trkpt lat="47.07229" lon="-1.81398">
        <ele>15.42</ele>
        <time>2020-03-07T10:25:51Z</time>
      </trkpt>
      <trkpt lat="47.07222" lon="-1.8139">
        <ele>15.2</ele>
        <time>2020-03-07T10:25:53Z</time>
      </trkpt>
      <trkpt lat="47.07211" lon="-1.81381">
        <ele>15.54</ele>
        <time>2020-03-07T10:25:55Z</time>
      </trkpt>
      <trkpt lat="47.07201" lon="-1.81372">
        <ele>16.28</ele>
        <time>2020-03-07T10:25:57Z</time>
      </trkpt>
      <trkpt lat="47.0719" lon="-1.81362">
        <ele>17.74</ele>
        <time>2020-03-07T10:25:59Z</time>
      </trkpt>
      <trkpt lat="47.07181" lon="-1.81354">
        <ele>18.69</ele>
        <time>2020-03-07T10:26:01Z</time>
      </trkpt>
      <trkpt lat="47.07172" lon="-1.8135">
        <ele>20.04</ele>
        <time>2020-03-07T10:26:03Z</time>
      </trkpt>
      <trkpt lat="47.07163" lon="-1.81354">
        <ele>20.73</ele>
        <time>2020-03-07T10:26:05Z</time>
      </trkpt>
      <trkpt lat="47.07152" lon="-1.81366">
        <ele>20.1</ele>
        <time>2020-03-07T10:26:08Z</time>
      </trkpt>
      <trkpt lat="47.07141" lon="-1.81376">
        <ele>19.46</ele>
        <time>2020-03-07T10:26:10Z</time>
      </trkpt>
      <trkpt lat="47.07133" lon="-1.81383">
        <ele>19.86</ele>
        <time>2020-03-07T10:26:12Z</time>
      </trkpt>
      <trkpt lat="47.07126" lon="-1.81393">
        <ele>20.63</ele>
        <time>2020-03-07T10:26:14Z</time>
      </trkpt>
      <trkpt lat="47.07116" lon="-1.81403">
        <ele>20.47</ele>
        <time>2020-03-07T10:26:16Z</time>
      </trkpt>
      <trkpt lat="47.07108" lon="-1.81412">
        <ele>20.52</ele>
        <time>2020-03-07T10:26:18Z</time>
      </trkpt>
      <trkpt lat="47.071" lon="-1.81426">
        <ele>21.52</ele>
        <time>2020-03-07T10:26:20Z</time>
      </trkpt>
      <trkpt lat="47.07093" lon="-1.81436">
        <ele>22.48</ele>
        <time>2020-03-07T10:26:22Z</time>
      </trkpt>
      <trkpt lat="47.07086" lon="-1.81447">
        <ele>23.03</ele>
        <time>2020-03-07T10:26:24Z</time>
      </trkpt>
      <trkpt lat="47.07078" lon="-1.81458">
        <ele>22.21</ele>
        <time>2020-03-07T10:26:26Z</time>
      </trkpt>
      <trkpt lat="47.0707" lon="-1.81469">
        <ele>22.17</ele>
        <time>2020-03-07T10:26:28Z</time>
      </trkpt>
      <trkpt lat="47.07063" lon="-1.8148">
        <ele>20.87</ele>
        <time>2020-03-07T10:26:30Z</time>
      </trkpt>
      <trkpt lat="47.07058" lon="-1.81492">
        <ele>21.28</ele>
        <time>2020-03-07T10:26:32Z</time>
      </trkpt>
      <trkpt lat="47.07053" lon="-1.81504">
        <ele>22.41</ele>
        <time>2020-03-07T10:26:34Z</time>
      </trkpt>
      <trkpt lat="47.07046" lon="-1.81518">
        <ele>21.58</ele>
        <time>2020-03-07T10:26:36Z</time>
      </trkpt>
      <trkpt lat="47.07041" lon="-1.8153">
        <ele>21.28</ele>
        <time>2020-03-07T10:26:38Z</time>
      </trkpt>
      <trkpt lat="47.07035" lon="-1.81541">
        <ele>21.31</ele>
        <time>2020-03-07T10:26:40Z</time>
      </trkpt>
      <trkpt lat="47.07028" lon="-1.81556">
        <ele>19.21</ele>
        <time>2020-03-07T10:26:43Z</time>
      </trkpt>
      <trkpt lat="47.07023" lon="-1.81571">
        <ele>18.84</ele>
        <time>2020-03-07T10:26:45Z</time>
      </trkpt>
      <trkpt lat="47.07019" lon="-1.81584">
        <ele>19.22</ele>
        <time>2020-03-07T10:26:47Z</time>
      </trkpt>
      <trkpt lat="47.07014" lon="-1.81602">
        <ele>19.84</ele>
        <time>2020-03-07T10:26:50Z</time>
      </trkpt>
      <trkpt lat="47.0701" lon="-1.81616">
        <ele>20.43</ele>
        <time>2020-03-07T10:26:52Z</time>
      </trkpt>
      <trkpt lat="47.07004" lon="-1.81634">
        <ele>22.53</ele>
        <time>2020-03-07T10:26:55Z</time>
      </trkpt>
      <trkpt lat="47.07001" lon="-1.81648">
        <ele>23.89</ele>
        <time>2020-03-07T10:26:57Z</time>
      </trkpt>
      <trkpt lat="47.06996" lon="-1.81667">
        <ele>25.17</ele>
        <time>2020-03-07T10:27:00Z</time>
      </trkpt>
      <trkpt lat="47.06992" lon="-1.81679">
        <ele>25.91</ele>
        <time>2020-03-07T10:27:02Z</time>
      </trkpt>
      <trkpt lat="47.06988" lon="-1.81693">
        <ele>26.77</ele>
        <time>2020-03-07T10:27:04Z</time>
      </trkpt>
      <trkpt lat="47.06981" lon="-1.8171">
        <ele>26.53</ele>
        <time>2020-03-07T10:27:07Z</time>
      </trkpt>
      <trkpt lat="47.06978" lon="-1.81723">
        <ele>26.11</ele>
        <time>2020-03-07T10:27:09Z</time>
      </trkpt>
      <trkpt lat="47.06974" lon="-1.81735">
        <ele>26.4</ele>
        <time>2020-03-07T10:27:11Z</time>
      </trkpt>
      <trkpt lat="47.06969" lon="-1.81749">
        <ele>27.93</ele>
        <time>2020-03-07T10:27:13Z</time>
      </trkpt>
      <trkpt lat="47.06962" lon="-1.81765">
        <ele>26.55</ele>
        <time>2020-03-07T10:27:16Z</time>
      </trkpt>
      <trkpt lat="47.06958" lon="-1.81778">
        <ele>26.47</ele>
        <time>2020-03-07T10:27:18Z</time>
      </trkpt>
      <trkpt lat="47.06952" lon="-1.81795">
        <ele>28.51</ele>
        <time>2020-03-07T10:27:21Z</time>
      </trkpt>
      <trkpt lat="47.06947" lon="-1.81806">
        <ele>28.88</ele>
        <time>2020-03-07T10:27:23Z</time>
      </trkpt>
      <trkpt lat="47.06938" lon="-1.81825">
        <ele>28.47</ele>
        <time>2020-03-07T10:27:26Z</time>
      </trkpt>
      <trkpt lat="47.06932" lon="-1.81841">
        <ele>28.25</ele>
        <time>2020-03-07T10:27:29Z</time>
      </trkpt>
      <trkpt lat="47.06923" lon="-1.81858">
        <ele>26.82</ele>
        <time>2020-03-07T10:27:32Z</time>
      </trkpt>
      <trkpt lat="47.06917" lon="-1.8187">
        <ele>25.07</ele>
        <time>2020-03-07T10:27:34Z</time>
      </trkpt>
      <trkpt lat="47.0691" lon="-1.81886">
        <ele>25.14</ele>
        <time>2020-03-07T10:27:37Z</time>
      </trkpt>
      <trkpt lat="47.06905" lon="-1.81899">
        <ele>24.09</ele>
        <time>2020-03-07T10:27:39Z</time>
      </trkpt>
      <trkpt lat="47.069" lon="-1.81911">
        <ele>23.92</ele>
        <time>2020-03-07T10:27:41Z</time>
      </trkpt>
      <trkpt lat="47.06894" lon="-1.81928">
        <ele>24.73</ele>
        <time>2020-03-07T10:27:44Z</time>
      </trkpt>
      <trkpt lat="47.06891" lon="-1.81949">
        <ele>26.79</ele>
        <time>2020-03-07T10:27:47Z</time>
      </trkpt>
      <trkpt lat="47.06891" lon="-1.81969">
        <ele>29.06</ele>
        <time>2020-03-07T10:27:50Z</time>
      </trkpt>
      <trkpt lat="47.06892" lon="-1.81982">
        <ele>30.84</ele>
        <time>2020-03-07T10:27:52Z</time>
      </trkpt>
      <trkpt lat="47.06894" lon="-1.81997">
        <ele>32.17</ele>
        <time>2020-03-07T10:27:54Z</time>
      </trkpt>
      <trkpt lat="47.06894" lon="-1.82011">
        <ele>31.7</ele>
        <time>2020-03-07T10:27:56Z</time>
      </trkpt>
      <trkpt lat="47.06895" lon="-1.82031">
        <ele>30.37</ele>
        <time>2020-03-07T10:27:59Z</time>
      </trkpt>
      <trkpt lat="47.06897" lon="-1.82047">
        <ele>30.28</ele>
        <time>2020-03-07T10:28:01Z</time>
      </trkpt>
      <trkpt lat="47.06898" lon="-1.82062">
        <ele>30.55</ele>
        <time>2020-03-07T10:28:03Z</time>
      </trkpt>
      <trkpt lat="47.06901" lon="-1.8208">
        <ele>31.43</ele>
        <time>2020-03-07T10:28:06Z</time>
      </trkpt>
      <trkpt lat="47.06903" lon="-1.82095">
        <ele>31.29</ele>
        <time>2020-03-07T10:28:08Z</time>
      </trkpt>
      <trkpt lat="47.06904" lon="-1.82109">
        <ele>31.59</ele>
        <time>2020-03-07T10:28:10Z</time>
      </trkpt>
      <trkpt lat="47.06905" lon="-1.8213">
        <ele>33.79</ele>
        <time>2020-03-07T10:28:13Z</time>
      </trkpt>
      <trkpt lat="47.06905" lon="-1.82145">
        <ele>34.38</ele>
        <time>2020-03-07T10:28:15Z</time>
      </trkpt>
      <trkpt lat="47.06906" lon="-1.82167">
        <ele>34.94</ele>
        <time>2020-03-07T10:28:18Z</time>
      </trkpt>
      <trkpt lat="47.06906" lon="-1.82184">
        <ele>34.46</ele>
        <time>2020-03-07T10:28:20Z</time>
      </trkpt>
      <trkpt lat="47.06906" lon="-1.82198">
        <ele>35.2</ele>
        <time>2020-03-07T10:28:22Z</time>
      </trkpt>
      <trkpt lat="47.06905" lon="-1.82218">
        <ele>36.56</ele>
        <time>2020-03-07T10:28:25Z</time>
      </trkpt>
      <trkpt lat="47.06905" lon="-1.82236">
        <ele>37.19</ele>
        <time>2020-03-07T10:28:27Z</time>
      </trkpt>
      <trkpt lat="47.06903" lon="-1.8225">
        <ele>36.55</ele>
        <time>2020-03-07T10:28:29Z</time>
      </trkpt>
      <trkpt lat="47.06903" lon="-1.82265">
        <ele>35.34</ele>
        <time>2020-03-07T10:28:31Z</time>
      </trkpt>
      <trkpt lat="47.06903" lon="-1.82285">
        <ele>33.13</ele>
        <time>2020-03-07T10:28:34Z</time>
      </trkpt>
      <trkpt lat="47.06902" lon="-1.82299">
        <ele>32.63</ele>
        <time>2020-03-07T10:28:36Z</time>
      </trkpt>
      <trkpt lat="47.06901" lon="-1.82314">
        <ele>32.11</ele>
        <time>2020-03-07T10:28:38Z</time>
      </trkpt>
      <trkpt lat="47.069" lon="-1.82331">
        <ele>32.02</ele>
        <time>2020-03-07T10:28:40Z</time>
      </trkpt>
      <trkpt lat="47.06898" lon="-1.82346">
        <ele>33.12</ele>
        <time>2020-03-07T10:28:42Z</time>
      </trkpt>
      <trkpt lat="47.06896" lon="-1.82361">
        <ele>34.29</ele>
        <time>2020-03-07T10:28:44Z</time>
      </trkpt>
      <trkpt lat="47.06894" lon="-1.82378">
        <ele>34.67</ele>
        <time>2020-03-07T10:28:46Z</time>
      </trkpt>
      <trkpt lat="47.06891" lon="-1.82392">
        <ele>34.28</ele>
        <time>2020-03-07T10:28:48Z</time>
      </trkpt>
      <trkpt lat="47.06889" lon="-1.82405">
        <ele>33.99</ele>
        <time>2020-03-07T10:28:50Z</time>
      </trkpt>
      <trkpt lat="47.06886" lon="-1.82419">
        <ele>33.46</ele>
        <time>2020-03-07T10:28:52Z</time>
      </trkpt>
      <trkpt lat="47.06884" lon="-1.82434">
        <ele>32.52</ele>
        <time>2020-03-07T10:28:54Z</time>
      </trkpt>
      <trkpt lat="47.06882" lon="-1.8245">
        <ele>30.88</ele>
        <time>2020-03-07T10:28:56Z</time>
      </trkpt>
      <trkpt lat="47.0688" lon="-1.82466">
        <ele>30.82</ele>
        <time>2020-03-07T10:28:58Z</time>
      </trkpt>
      <trkpt lat="47.0688" lon="-1.82486">
        <ele>30.76</ele>
        <time>2020-03-07T10:29:01Z</time>
      </trkpt>
      <trkpt lat="47.06881" lon="-1.82502">
        <ele>31.98</ele>
        <time>2020-03-07T10:29:03Z</time>
      </trkpt>
      <trkpt lat="47.06882" lon="-1.82518">
        <ele>32.86</ele>
        <time>2020-03-07T10:29:05Z</time>
      </trkpt>
      <trkpt lat="47.06883" lon="-1.82532">
        <ele>32.25</ele>
        <time>2020-03-07T10:29:07Z</time>
      </trkpt>
      <trkpt lat="47.06884" lon="-1.82547">
        <ele>32.05</ele>
        <time>2020-03-07T10:29:09Z</time>
      </trkpt>
      <trkpt lat="47.06885" lon="-1.82563">
        <ele>31.53</ele>
        <time>2020-03-07T10:29:11Z</time>
      </trkpt>
      <trkpt lat="47.06887" lon="-1.82579">
        <ele>31.72</ele>
        <time>2020-03-07T10:29:13Z</time>
      </trkpt>
      <trkpt lat="47.06889" lon="-1.82593">
        <ele>31.61</ele>
        <time>2020-03-07T10:29:15Z</time>
      </trkpt>
      <trkpt lat="47.0689" lon="-1.82607">
        <ele>30.32</ele>
        <time>2020-03-07T10:29:17Z</time>
      </trkpt>
      <trkpt lat="47.0689" lon="-1.82624">
        <ele>30.59</ele>
        <time>2020-03-07T10:29:19Z</time>
      </trkpt>
      <trkpt lat="47.06891" lon="-1.8264">
        <ele>29.71</ele>
        <time>2020-03-07T10:29:21Z</time>
      </trkpt>
      <trkpt lat="47.0689" lon="-1.82654">
        <ele>29.56</ele>
        <time>2020-03-07T10:29:23Z</time>
      </trkpt>
      <trkpt lat="47.06891" lon="-1.82669">
        <ele>31.41</ele>
        <time>2020-03-07T10:29:25Z</time>
      </trkpt>
      <trkpt lat="47.06892" lon="-1.82685">
        <ele>33.83</ele>
        <time>2020-03-07T10:29:27Z</time>
      </trkpt>
      <trkpt lat="47.06892" lon="-1.82699">
        <ele>36.48</ele>
        <time>2020-03-07T10:29:29Z</time>
      </trkpt>
      <trkpt lat="47.06892" lon="-1.82717">
        <ele>38.3</ele>
        <time>2020-03-07T10:29:31Z</time>
      </trkpt>
      <trkpt lat="47.06892" lon="-1.82732">
        <ele>39.23</ele>
        <time>2020-03-07T10:29:33Z</time>
      </trkpt>
      <trkpt lat="47.06893" lon="-1.82749">
        <ele>38.45</ele>
        <time>2020-03-07T10:29:35Z</time>
      </trkpt>
      <trkpt lat="47.06893" lon="-1.82766">
        <ele>37.12</ele>
        <time>2020-03-07T10:29:37Z</time>
      </trkpt>
      <trkpt lat="47.06893" lon="-1.8278">
        <ele>36.28</ele>
        <time>2020-03-07T10:29:39Z</time>
      </trkpt>
      <trkpt lat="47.06894" lon="-1.82797">
        <ele>34.58</ele>
        <time>2020-03-07T10:29:41Z</time>
      </trkpt>
      <trkpt lat="47.06894" lon="-1.82812">
        <ele>33.28</ele>
        <time>2020-03-07T10:29:43Z</time>
      </trkpt>
      <trkpt lat="47.06894" lon="-1.8283">
        <ele>31.93</ele>
        <time>2020-03-07T10:29:45Z</time>
      </trkpt>
      <trkpt lat="47.06895" lon="-1.82844">
        <ele>31.36</ele>
        <time>2020-03-07T10:29:47Z</time>
      </trkpt>
      <trkpt lat="47.06896" lon="-1.8286">
        <ele>31.51</ele>
        <time>2020-03-07T10:29:49Z</time>
      </trkpt>
      <trkpt lat="47.06897" lon="-1.82875">
        <ele>31.93</ele>
        <time>2020-03-07T10:29:51Z</time>
      </trkpt>
      <trkpt lat="47.06898" lon="-1.82892">
        <ele>31.96</ele>
        <time>2020-03-07T10:29:53Z</time>
      </trkpt>
      <trkpt lat="47.06899" lon="-1.82907">
        <ele>30.8</ele>
        <time>2020-03-07T10:29:55Z</time>
      </trkpt>
      <trkpt lat="47.069" lon="-1.82923">
        <ele>29.98</ele>
        <time>2020-03-07T10:29:57Z</time>
      </trkpt>
      <trkpt lat="47.069" lon="-1.82938">
        <ele>30.75</ele>
        <time>2020-03-07T10:29:59Z</time>
      </trkpt>
      <trkpt lat="47.06901" lon="-1.82954">
        <ele>30.73</ele>
        <time>2020-03-07T10:30:01Z</time>
      </trkpt>
      <trkpt lat="47.06902" lon="-1.82968">
        <ele>30.43</ele>
        <time>2020-03-07T10:30:03Z</time>
      </trkpt>
      <trkpt lat="47.06903" lon="-1.82984">
        <ele>30.97</ele>
        <time>2020-03-07T10:30:05Z</time>
      </trkpt>
      <trkpt lat="47.06904" lon="-1.83001">
        <ele>29.84</ele>
        <time>2020-03-07T10:30:07Z</time>
      </trkpt>
      <trkpt lat="47.06907" lon="-1.83016">
        <ele>29.75</ele>
        <time>2020-03-07T10:30:09Z</time>
      </trkpt>
      <trkpt lat="47.06911" lon="-1.83028">
        <ele>30.22</ele>
        <time>2020-03-07T10:30:11Z</time>
      </trkpt>
      <trkpt lat="47.06908" lon="-1.83042">
        <ele>31.27</ele>
        <time>2020-03-07T10:30:14Z</time>
      </trkpt>
      <trkpt lat="47.06897" lon="-1.83044">
        <ele>32.73</ele>
        <time>2020-03-07T10:30:17Z</time>
      </trkpt>
      <trkpt lat="47.06888" lon="-1.83042">
        <ele>32.85</ele>
        <time>2020-03-07T10:30:19Z</time>
      </trkpt>
      <trkpt lat="47.06878" lon="-1.83041">
        <ele>33.29</ele>
        <time>2020-03-07T10:30:21Z</time>
      </trkpt>
      <trkpt lat="47.06868" lon="-1.83039">
        <ele>33.35</ele>
        <time>2020-03-07T10:30:23Z</time>
      </trkpt>
      <trkpt lat="47.06857" lon="-1.83038">
        <ele>34.14</ele>
        <time>2020-03-07T10:30:25Z</time>
      </trkpt>
      <trkpt lat="47.06843" lon="-1.83036">
        <ele>34.8</ele>
        <time>2020-03-07T10:30:27Z</time>
      </trkpt>
      <trkpt lat="47.06833" lon="-1.83035">
        <ele>34.76</ele>
        <time>2020-03-07T10:30:29Z</time>
      </trkpt>
      <trkpt lat="47.06822" lon="-1.83035">
        <ele>34.71</ele>
        <time>2020-03-07T10:30:31Z</time>
      </trkpt>
      <trkpt lat="47.06809" lon="-1.83036">
        <ele>34.28</ele>
        <time>2020-03-07T10:30:33Z</time>
      </trkpt>
      <trkpt lat="47.06798" lon="-1.83038">
        <ele>34.04</ele>
        <time>2020-03-07T10:30:35Z</time>
      </trkpt>
      <trkpt lat="47.06786" lon="-1.83041">
        <ele>33.22</ele>
        <time>2020-03-07T10:30:37Z</time>
      </trkpt>
      <trkpt lat="47.06774" lon="-1.83042">
        <ele>32.81</ele>
        <time>2020-03-07T10:30:39Z</time>
      </trkpt>
      <trkpt lat="47.06762" lon="-1.83044">
        <ele>32.32</ele>
        <time>2020-03-07T10:30:41Z</time>
      </trkpt>
      <trkpt lat="47.0675" lon="-1.83046">
        <ele>32.34</ele>
        <time>2020-03-07T10:30:43Z</time>
      </trkpt>
      <trkpt lat="47.06739" lon="-1.83047">
        <ele>32.21</ele>
        <time>2020-03-07T10:30:45Z</time>
      </trkpt>
      <trkpt lat="47.06727" lon="-1.83049">
        <ele>33.15</ele>
        <time>2020-03-07T10:30:47Z</time>
      </trkpt>
      <trkpt lat="47.06716" lon="-1.8305">
        <ele>33.96</ele>
        <time>2020-03-07T10:30:49Z</time>
      </trkpt>
      <trkpt lat="47.06705" lon="-1.83052">
        <ele>33.03</ele>
        <time>2020-03-07T10:30:51Z</time>
      </trkpt>
      <trkpt lat="47.06693" lon="-1.83055">
        <ele>32.39</ele>
        <time>2020-03-07T10:30:53Z</time>
      </trkpt>
      <trkpt lat="47.06682" lon="-1.83058">
        <ele>32.61</ele>
        <time>2020-03-07T10:30:55Z</time>
      </trkpt>
      <trkpt lat="47.06672" lon="-1.83061">
        <ele>33.23</ele>
        <time>2020-03-07T10:30:57Z</time>
      </trkpt>
      <trkpt lat="47.06661" lon="-1.83063">
        <ele>33.9</ele>
        <time>2020-03-07T10:30:59Z</time>
      </trkpt>
      <trkpt lat="47.06649" lon="-1.83066">
        <ele>34.58</ele>
        <time>2020-03-07T10:31:01Z</time>
      </trkpt>
      <trkpt lat="47.06637" lon="-1.83069">
        <ele>34.21</ele>
        <time>2020-03-07T10:31:03Z</time>
      </trkpt>
      <trkpt lat="47.06624" lon="-1.83072">
        <ele>34.56</ele>
        <time>2020-03-07T10:31:05Z</time>
      </trkpt>
      <trkpt lat="47.06614" lon="-1.83076">
        <ele>35.62</ele>
        <time>2020-03-07T10:31:07Z</time>
      </trkpt>
      <trkpt lat="47.06605" lon="-1.83079">
        <ele>37.04</ele>
        <time>2020-03-07T10:31:09Z</time>
      </trkpt>
      <trkpt lat="47.06594" lon="-1.83081">
        <ele>38.52</ele>
        <time>2020-03-07T10:31:11Z</time>
      </trkpt>
      <trkpt lat="47.06581" lon="-1.83083">
        <ele>38.66</ele>
        <time>2020-03-07T10:31:12Z</time>
      </trkpt>
      <trkpt lat="47.06568" lon="-1.83088">
        <ele>38</ele>
        <time>2020-03-07T10:31:14Z</time>
      </trkpt>
      <trkpt lat="47.06557" lon="-1.83092">
        <ele>37.49</ele>
        <time>2020-03-07T10:31:16Z</time>
      </trkpt>
      <trkpt lat="47.06546" lon="-1.83097">
        <ele>36.68</ele>
        <time>2020-03-07T10:31:18Z</time>
      </trkpt>
      <trkpt lat="47.06533" lon="-1.83103">
        <ele>35.14</ele>
        <time>2020-03-07T10:31:20Z</time>
      </trkpt>
      <trkpt lat="47.06521" lon="-1.83108">
        <ele>33.88</ele>
        <time>2020-03-07T10:31:22Z</time>
      </trkpt>
      <trkpt lat="47.06509" lon="-1.83113">
        <ele>31.96</ele>
        <time>2020-03-07T10:31:24Z</time>
      </trkpt>
      <trkpt lat="47.065" lon="-1.83116">
        <ele>31.44</ele>
        <time>2020-03-07T10:31:26Z</time>
      </trkpt>
      <trkpt lat="47.0649" lon="-1.8312">
        <ele>31.18</ele>
        <time>2020-03-07T10:31:28Z</time>
      </trkpt>
      <trkpt lat="47.06477" lon="-1.83126">
        <ele>32.06</ele>
        <time>2020-03-07T10:31:30Z</time>
      </trkpt>
      <trkpt lat="47.06466" lon="-1.8313">
        <ele>32.3</ele>
        <time>2020-03-07T10:31:32Z</time>
      </trkpt>
      <trkpt lat="47.06455" lon="-1.83135">
        <ele>31.42</ele>
        <time>2020-03-07T10:31:34Z</time>
      </trkpt>
      <trkpt lat="47.06443" lon="-1.8314">
        <ele>30.03</ele>
        <time>2020-03-07T10:31:36Z</time>
      </trkpt>
      <trkpt lat="47.06431" lon="-1.83145">
        <ele>29.2</ele>
        <time>2020-03-07T10:31:38Z</time>
      </trkpt>
      <trkpt lat="47.0642" lon="-1.83149">
        <ele>27.85</ele>
        <time>2020-03-07T10:31:40Z</time>
      </trkpt>
      <trkpt lat="47.06408" lon="-1.83154">
        <ele>26.36</ele>
        <time>2020-03-07T10:31:42Z</time>
      </trkpt>
      <trkpt lat="47.06398" lon="-1.83159">
        <ele>25.75</ele>
        <time>2020-03-07T10:31:44Z</time>
      </trkpt>
      <trkpt lat="47.06388" lon="-1.83163">
        <ele>25.22</ele>
        <time>2020-03-07T10:31:46Z</time>
      </trkpt>
      <trkpt lat="47.06375" lon="-1.83169">
        <ele>27.15</ele>
        <time>2020-03-07T10:31:49Z</time>
      </trkpt>
      <trkpt lat="47.06364" lon="-1.83174">
        <ele>29.05</ele>
        <time>2020-03-07T10:31:51Z</time>
      </trkpt>
      <trkpt lat="47.06354" lon="-1.83178">
        <ele>29.7</ele>
        <time>2020-03-07T10:31:53Z</time>
      </trkpt>
      <trkpt lat="47.06343" lon="-1.83183">
        <ele>30.81</ele>
        <time>2020-03-07T10:31:55Z</time>
      </trkpt>
      <trkpt lat="47.06331" lon="-1.83188">
        <ele>30.41</ele>
        <time>2020-03-07T10:31:57Z</time>
      </trkpt>
      <trkpt lat="47.06321" lon="-1.83191">
        <ele>30.18</ele>
        <time>2020-03-07T10:31:59Z</time>
      </trkpt>
      <trkpt lat="47.06309" lon="-1.83196">
        <ele>29.34</ele>
        <time>2020-03-07T10:32:01Z</time>
      </trkpt>
      <trkpt lat="47.06298" lon="-1.83199">
        <ele>28.58</ele>
        <time>2020-03-07T10:32:03Z</time>
      </trkpt>
      <trkpt lat="47.06287" lon="-1.83203">
        <ele>27.28</ele>
        <time>2020-03-07T10:32:05Z</time>
      </trkpt>
      <trkpt lat="47.06276" lon="-1.83204">
        <ele>27.44</ele>
        <time>2020-03-07T10:32:07Z</time>
      </trkpt>
      <trkpt lat="47.06265" lon="-1.83204">
        <ele>26.73</ele>
        <time>2020-03-07T10:32:09Z</time>
      </trkpt>
      <trkpt lat="47.06254" lon="-1.83205">
        <ele>27.24</ele>
        <time>2020-03-07T10:32:11Z</time>
      </trkpt>
      <trkpt lat="47.06244" lon="-1.83205">
        <ele>28.42</ele>
        <time>2020-03-07T10:32:13Z</time>
      </trkpt>
      <trkpt lat="47.06231" lon="-1.83206">
        <ele>30.81</ele>
        <time>2020-03-07T10:32:16Z</time>
      </trkpt>
      <trkpt lat="47.0622" lon="-1.83206">
        <ele>32.12</ele>
        <time>2020-03-07T10:32:18Z</time>
      </trkpt>
      <trkpt lat="47.0621" lon="-1.83207">
        <ele>32.91</ele>
        <time>2020-03-07T10:32:20Z</time>
      </trkpt>
      <trkpt lat="47.062" lon="-1.83208">
        <ele>33.5</ele>
        <time>2020-03-07T10:32:22Z</time>
      </trkpt>
      <trkpt lat="47.0619" lon="-1.83209">
        <ele>35.2</ele>
        <time>2020-03-07T10:32:24Z</time>
      </trkpt>
      <trkpt lat="47.06177" lon="-1.83209">
        <ele>35.85</ele>
        <time>2020-03-07T10:32:26Z</time>
      </trkpt>
      <trkpt lat="47.06167" lon="-1.8321">
        <ele>36.86</ele>
        <time>2020-03-07T10:32:28Z</time>
      </trkpt>
      <trkpt lat="47.06156" lon="-1.8321">
        <ele>38.51</ele>
        <time>2020-03-07T10:32:30Z</time>
      </trkpt>
      <trkpt lat="47.06144" lon="-1.83211">
        <ele>40.04</ele>
        <time>2020-03-07T10:32:32Z</time>
      </trkpt>
      <trkpt lat="47.06135" lon="-1.83211">
        <ele>41.09</ele>
        <time>2020-03-07T10:32:34Z</time>
      </trkpt>
      <trkpt lat="47.06123" lon="-1.83213">
        <ele>41.39</ele>
        <time>2020-03-07T10:32:36Z</time>
      </trkpt>
      <trkpt lat="47.06111" lon="-1.83212">
        <ele>40.42</ele>
        <time>2020-03-07T10:32:38Z</time>
      </trkpt>
      <trkpt lat="47.061" lon="-1.83213">
        <ele>39.9</ele>
        <time>2020-03-07T10:32:40Z</time>
      </trkpt>
      <trkpt lat="47.06088" lon="-1.83214">
        <ele>39.54</ele>
        <time>2020-03-07T10:32:42Z</time>
      </trkpt>
      <trkpt lat="47.06078" lon="-1.83215">
        <ele>38.27</ele>
        <time>2020-03-07T10:32:44Z</time>
      </trkpt>
      <trkpt lat="47.06066" lon="-1.83215">
        <ele>37.65</ele>
        <time>2020-03-07T10:32:46Z</time>
      </trkpt>
      <trkpt lat="47.06055" lon="-1.83216">
        <ele>37.07</ele>
        <time>2020-03-07T10:32:48Z</time>
      </trkpt>
      <trkpt lat="47.06044" lon="-1.83217">
        <ele>36.21</ele>
        <time>2020-03-07T10:32:50Z</time>
      </trkpt>
      <trkpt lat="47.06033" lon="-1.83219">
        <ele>35.97</ele>
        <time>2020-03-07T10:32:52Z</time>
      </trkpt>
      <trkpt lat="47.06022" lon="-1.83219">
        <ele>36.16</ele>
        <time>2020-03-07T10:32:54Z</time>
      </trkpt>
      <trkpt lat="47.06011" lon="-1.83219">
        <ele>36.06</ele>
        <time>2020-03-07T10:32:56Z</time>
      </trkpt>
      <trkpt lat="47.06" lon="-1.8322">
        <ele>35.66</ele>
        <time>2020-03-07T10:32:58Z</time>
      </trkpt>
      <trkpt lat="47.05989" lon="-1.83222">
        <ele>35.5</ele>
        <time>2020-03-07T10:33:00Z</time>
      </trkpt>
      <trkpt lat="47.05979" lon="-1.83225">
        <ele>35.51</ele>
        <time>2020-03-07T10:33:02Z</time>
      </trkpt>
      <trkpt lat="47.05971" lon="-1.83233">
        <ele>35.37</ele>
        <time>2020-03-07T10:33:04Z</time>
      </trkpt>
      <trkpt lat="47.05962" lon="-1.83243">
        <ele>34.8</ele>
        <time>2020-03-07T10:33:06Z</time>
      </trkpt>
      <trkpt lat="47.05954" lon="-1.83254">
        <ele>33.23</ele>
        <time>2020-03-07T10:33:08Z</time>
      </trkpt>
      <trkpt lat="47.05947" lon="-1.83266">
        <ele>32.69</ele>
        <time>2020-03-07T10:33:10Z</time>
      </trkpt>
      <trkpt lat="47.05938" lon="-1.83277">
        <ele>31.93</ele>
        <time>2020-03-07T10:33:12Z</time>
      </trkpt>
      <trkpt lat="47.05929" lon="-1.83289">
        <ele>30.97</ele>
        <time>2020-03-07T10:33:14Z</time>
      </trkpt>
      <trkpt lat="47.05921" lon="-1.833">
        <ele>29.7</ele>
        <time>2020-03-07T10:33:16Z</time>
      </trkpt>
      <trkpt lat="47.05912" lon="-1.83312">
        <ele>28.67</ele>
        <time>2020-03-07T10:33:18Z</time>
      </trkpt>
      <trkpt lat="47.05905" lon="-1.83322">
        <ele>28.37</ele>
        <time>2020-03-07T10:33:20Z</time>
      </trkpt>
      <trkpt lat="47.05897" lon="-1.83333">
        <ele>28.36</ele>
        <time>2020-03-07T10:33:22Z</time>
      </trkpt>
      <trkpt lat="47.05889" lon="-1.83344">
        <ele>27.76</ele>
        <time>2020-03-07T10:33:24Z</time>
      </trkpt>
      <trkpt lat="47.0588" lon="-1.83357">
        <ele>27.81</ele>
        <time>2020-03-07T10:33:26Z</time>
      </trkpt>
      <trkpt lat="47.05874" lon="-1.83367">
        <ele>28.37</ele>
        <time>2020-03-07T10:33:28Z</time>
      </trkpt>
      <trkpt lat="47.05868" lon="-1.83377">
        <ele>28.96</ele>
        <time>2020-03-07T10:33:30Z</time>
      </trkpt>
      <trkpt lat="47.05859" lon="-1.83389">
        <ele>29.13</ele>
        <time>2020-03-07T10:33:32Z</time>
      </trkpt>
      <trkpt lat="47.05851" lon="-1.83402">
        <ele>29.04</ele>
        <time>2020-03-07T10:33:34Z</time>
      </trkpt>
      <trkpt lat="47.05844" lon="-1.83412">
        <ele>29.15</ele>
        <time>2020-03-07T10:33:36Z</time>
      </trkpt>
      <trkpt lat="47.05836" lon="-1.83423">
        <ele>30.62</ele>
        <time>2020-03-07T10:33:38Z</time>
      </trkpt>
      <trkpt lat="47.05829" lon="-1.83434">
        <ele>31.36</ele>
        <time>2020-03-07T10:33:40Z</time>
      </trkpt>
      <trkpt lat="47.05821" lon="-1.83447">
        <ele>30.77</ele>
        <time>2020-03-07T10:33:42Z</time>
      </trkpt>
      <trkpt lat="47.05814" lon="-1.83458">
        <ele>30.51</ele>
        <time>2020-03-07T10:33:44Z</time>
      </trkpt>
      <trkpt lat="47.05807" lon="-1.8347">
        <ele>29.81</ele>
        <time>2020-03-07T10:33:46Z</time>
      </trkpt>
      <trkpt lat="47.05799" lon="-1.8348">
        <ele>28.41</ele>
        <time>2020-03-07T10:33:48Z</time>
      </trkpt>
      <trkpt lat="47.05791" lon="-1.83489">
        <ele>28.76</ele>
        <time>2020-03-07T10:33:50Z</time>
      </trkpt>
      <trkpt lat="47.05783" lon="-1.83498">
        <ele>29.49</ele>
        <time>2020-03-07T10:33:52Z</time>
      </trkpt>
      <trkpt lat="47.05776" lon="-1.83507">
        <ele>30.98</ele>
        <time>2020-03-07T10:33:54Z</time>
      </trkpt>
      <trkpt lat="47.05768" lon="-1.83518">
        <ele>31.61</ele>
        <time>2020-03-07T10:33:56Z</time>
      </trkpt>
      <trkpt lat="47.0576" lon="-1.83528">
        <ele>32.15</ele>
        <time>2020-03-07T10:33:58Z</time>
      </trkpt>
      <trkpt lat="47.05752" lon="-1.83538">
        <ele>33.5</ele>
        <time>2020-03-07T10:34:00Z</time>
      </trkpt>
      <trkpt lat="47.05744" lon="-1.83548">
        <ele>34.09</ele>
        <time>2020-03-07T10:34:02Z</time>
      </trkpt>
      <trkpt lat="47.05737" lon="-1.83557">
        <ele>34.71</ele>
        <time>2020-03-07T10:34:04Z</time>
      </trkpt>
      <trkpt lat="47.0573" lon="-1.83568">
        <ele>35.07</ele>
        <time>2020-03-07T10:34:06Z</time>
      </trkpt>
      <trkpt lat="47.05723" lon="-1.8358">
        <ele>35.27</ele>
        <time>2020-03-07T10:34:08Z</time>
      </trkpt>
      <trkpt lat="47.05715" lon="-1.83593">
        <ele>35.99</ele>
        <time>2020-03-07T10:34:10Z</time>
      </trkpt>
      <trkpt lat="47.05707" lon="-1.83605">
        <ele>35.53</ele>
        <time>2020-03-07T10:34:12Z</time>
      </trkpt>
      <trkpt lat="47.05701" lon="-1.83617">
        <ele>35.44</ele>
        <time>2020-03-07T10:34:14Z</time>
      </trkpt>
      <trkpt lat="47.05693" lon="-1.83631">
        <ele>35.46</ele>
        <time>2020-03-07T10:34:16Z</time>
      </trkpt>
      <trkpt lat="47.05686" lon="-1.83642">
        <ele>36.57</ele>
        <time>2020-03-07T10:34:18Z</time>
      </trkpt>
      <trkpt lat="47.05678" lon="-1.83654">
        <ele>38.03</ele>
        <time>2020-03-07T10:34:20Z</time>
      </trkpt>
      <trkpt lat="47.05672" lon="-1.83664">
        <ele>38.93</ele>
        <time>2020-03-07T10:34:22Z</time>
      </trkpt>
      <trkpt lat="47.05666" lon="-1.83675">
        <ele>40.16</ele>
        <time>2020-03-07T10:34:24Z</time>
      </trkpt>
      <trkpt lat="47.05659" lon="-1.83687">
        <ele>40.97</ele>
        <time>2020-03-07T10:34:26Z</time>
      </trkpt>
      <trkpt lat="47.05651" lon="-1.83702">
        <ele>39.91</ele>
        <time>2020-03-07T10:34:28Z</time>
      </trkpt>
      <trkpt lat="47.05644" lon="-1.83714">
        <ele>39.19</ele>
        <time>2020-03-07T10:34:30Z</time>
      </trkpt>
      <trkpt lat="47.05637" lon="-1.83727">
        <ele>39.14</ele>
        <time>2020-03-07T10:34:32Z</time>
      </trkpt>
      <trkpt lat="47.05629" lon="-1.8374">
        <ele>38.98</ele>
        <time>2020-03-07T10:34:34Z</time>
      </trkpt>
      <trkpt lat="47.05622" lon="-1.83753">
        <ele>38.81</ele>
        <time>2020-03-07T10:34:36Z</time>
      </trkpt>
      <trkpt lat="47.05614" lon="-1.83768">
        <ele>38.32</ele>
        <time>2020-03-07T10:34:39Z</time>
      </trkpt>
      <trkpt lat="47.05607" lon="-1.83781">
        <ele>38.95</ele>
        <time>2020-03-07T10:34:41Z</time>
      </trkpt>
      <trkpt lat="47.056" lon="-1.83795">
        <ele>39.09</ele>
        <time>2020-03-07T10:34:43Z</time>
      </trkpt>
      <trkpt lat="47.05595" lon="-1.83807">
        <ele>38.79</ele>
        <time>2020-03-07T10:34:45Z</time>
      </trkpt>
      <trkpt lat="47.05587" lon="-1.83821">
        <ele>38.16</ele>
        <time>2020-03-07T10:34:47Z</time>
      </trkpt>
      <trkpt lat="47.0558" lon="-1.83832">
        <ele>36.75</ele>
        <time>2020-03-07T10:34:49Z</time>
      </trkpt>
      <trkpt lat="47.05573" lon="-1.83845">
        <ele>36.48</ele>
        <time>2020-03-07T10:34:51Z</time>
      </trkpt>
      <trkpt lat="47.05565" lon="-1.83859">
        <ele>35.5</ele>
        <time>2020-03-07T10:34:53Z</time>
      </trkpt>
      <trkpt lat="47.05557" lon="-1.83871">
        <ele>33.53</ele>
        <time>2020-03-07T10:34:55Z</time>
      </trkpt>
      <trkpt lat="47.05551" lon="-1.83883">
        <ele>31.36</ele>
        <time>2020-03-07T10:34:57Z</time>
      </trkpt>
      <trkpt lat="47.05542" lon="-1.83897">
        <ele>31.36</ele>
        <time>2020-03-07T10:34:59Z</time>
      </trkpt>
      <trkpt lat="47.05536" lon="-1.83908">
        <ele>32.92</ele>
        <time>2020-03-07T10:35:01Z</time>
      </trkpt>
      <trkpt lat="47.05528" lon="-1.83925">
        <ele>36.27</ele>
        <time>2020-03-07T10:35:04Z</time>
      </trkpt>
      <trkpt lat="47.0552" lon="-1.83938">
        <ele>37.67</ele>
        <time>2020-03-07T10:35:06Z</time>
      </trkpt>
      <trkpt lat="47.05516" lon="-1.8395">
        <ele>38.55</ele>
        <time>2020-03-07T10:35:08Z</time>
      </trkpt>
      <trkpt lat="47.05509" lon="-1.83963">
        <ele>38.19</ele>
        <time>2020-03-07T10:35:10Z</time>
      </trkpt>
      <trkpt lat="47.05502" lon="-1.83976">
        <ele>36.47</ele>
        <time>2020-03-07T10:35:12Z</time>
      </trkpt>
      <trkpt lat="47.05495" lon="-1.83988">
        <ele>36.88</ele>
        <time>2020-03-07T10:35:14Z</time>
      </trkpt>
      <trkpt lat="47.05489" lon="-1.83999">
        <ele>37.57</ele>
        <time>2020-03-07T10:35:16Z</time>
      </trkpt>
      <trkpt lat="47.05482" lon="-1.84012">
        <ele>38.14</ele>
        <time>2020-03-07T10:35:18Z</time>
      </trkpt>
      <trkpt lat="47.05476" lon="-1.84024">
        <ele>37.11</ele>
        <time>2020-03-07T10:35:20Z</time>
      </trkpt>
      <trkpt lat="47.05467" lon="-1.84042">
        <ele>37.72</ele>
        <time>2020-03-07T10:35:23Z</time>
      </trkpt>
      <trkpt lat="47.05461" lon="-1.84055">
        <ele>38.4</ele>
        <time>2020-03-07T10:35:25Z</time>
      </trkpt>
      <trkpt lat="47.05455" lon="-1.84067">
        <ele>39.38</ele>
        <time>2020-03-07T10:35:27Z</time>
      </trkpt>
      <trkpt lat="47.05449" lon="-1.84079">
        <ele>40.23</ele>
        <time>2020-03-07T10:35:29Z</time>
      </trkpt>
      <trkpt lat="47.05442" lon="-1.8409">
        <ele>39.77</ele>
        <time>2020-03-07T10:35:31Z</time>
      </trkpt>
      <trkpt lat="47.05436" lon="-1.84102">
        <ele>38.84</ele>
        <time>2020-03-07T10:35:33Z</time>
      </trkpt>
      <trkpt lat="47.05429" lon="-1.84114">
        <ele>37.41</ele>
        <time>2020-03-07T10:35:35Z</time>
      </trkpt>
      <trkpt lat="47.05422" lon="-1.84127">
        <ele>35.9</ele>
        <time>2020-03-07T10:35:37Z</time>
      </trkpt>
      <trkpt lat="47.05415" lon="-1.8414">
        <ele>34.09</ele>
        <time>2020-03-07T10:35:39Z</time>
      </trkpt>
      <trkpt lat="47.05408" lon="-1.84153">
        <ele>32.83</ele>
        <time>2020-03-07T10:35:41Z</time>
      </trkpt>
      <trkpt lat="47.05402" lon="-1.84165">
        <ele>32.61</ele>
        <time>2020-03-07T10:35:43Z</time>
      </trkpt>
      <trkpt lat="47.05397" lon="-1.84176">
        <ele>32.85</ele>
        <time>2020-03-07T10:35:45Z</time>
      </trkpt>
      <trkpt lat="47.05391" lon="-1.84189">
        <ele>34.05</ele>
        <time>2020-03-07T10:35:47Z</time>
      </trkpt>
      <trkpt lat="47.05386" lon="-1.842">
        <ele>34.64</ele>
        <time>2020-03-07T10:35:49Z</time>
      </trkpt>
      <trkpt lat="47.05377" lon="-1.84217">
        <ele>35.57</ele>
        <time>2020-03-07T10:35:52Z</time>
      </trkpt>
      <trkpt lat="47.05371" lon="-1.8423">
        <ele>36.06</ele>
        <time>2020-03-07T10:35:54Z</time>
      </trkpt>
      <trkpt lat="47.05363" lon="-1.84243">
        <ele>35.85</ele>
        <time>2020-03-07T10:35:56Z</time>
      </trkpt>
      <trkpt lat="47.05357" lon="-1.84256">
        <ele>35.96</ele>
        <time>2020-03-07T10:35:58Z</time>
      </trkpt>
      <trkpt lat="47.05352" lon="-1.84268">
        <ele>36.22</ele>
        <time>2020-03-07T10:36:00Z</time>
      </trkpt>
      <trkpt lat="47.05346" lon="-1.84279">
        <ele>36.44</ele>
        <time>2020-03-07T10:36:02Z</time>
      </trkpt>
      <trkpt lat="47.05341" lon="-1.8429">
        <ele>36.88</ele>
        <time>2020-03-07T10:36:04Z</time>
      </trkpt>
      <trkpt lat="47.05333" lon="-1.84303">
        <ele>37.93</ele>
        <time>2020-03-07T10:36:06Z</time>
      </trkpt>
      <trkpt lat="47.05324" lon="-1.84321">
        <ele>38.29</ele>
        <time>2020-03-07T10:36:09Z</time>
      </trkpt>
      <trkpt lat="47.05317" lon="-1.84335">
        <ele>37.26</ele>
        <time>2020-03-07T10:36:11Z</time>
      </trkpt>
      <trkpt lat="47.05311" lon="-1.84347">
        <ele>36.43</ele>
        <time>2020-03-07T10:36:13Z</time>
      </trkpt>
      <trkpt lat="47.05305" lon="-1.8436">
        <ele>35.02</ele>
        <time>2020-03-07T10:36:15Z</time>
      </trkpt>
      <trkpt lat="47.05297" lon="-1.84374">
        <ele>34.84</ele>
        <time>2020-03-07T10:36:17Z</time>
      </trkpt>
      <trkpt lat="47.05291" lon="-1.84387">
        <ele>35.39</ele>
        <time>2020-03-07T10:36:19Z</time>
      </trkpt>
      <trkpt lat="47.05285" lon="-1.84399">
        <ele>35.64</ele>
        <time>2020-03-07T10:36:21Z</time>
      </trkpt>
      <trkpt lat="47.05279" lon="-1.84411">
        <ele>34.42</ele>
        <time>2020-03-07T10:36:23Z</time>
      </trkpt>
      <trkpt lat="47.05273" lon="-1.84424">
        <ele>33.49</ele>
        <time>2020-03-07T10:36:25Z</time>
      </trkpt>
      <trkpt lat="47.05266" lon="-1.84437">
        <ele>33.81</ele>
        <time>2020-03-07T10:36:27Z</time>
      </trkpt>
      <trkpt lat="47.0526" lon="-1.84449">
        <ele>35.83</ele>
        <time>2020-03-07T10:36:29Z</time>
      </trkpt>
      <trkpt lat="47.05255" lon="-1.8446">
        <ele>36.38</ele>
        <time>2020-03-07T10:36:31Z</time>
      </trkpt>
      <trkpt lat="47.05247" lon="-1.84477">
        <ele>35.88</ele>
        <time>2020-03-07T10:36:34Z</time>
      </trkpt>
      <trkpt lat="47.05241" lon="-1.84488">
        <ele>35.42</ele>
        <time>2020-03-07T10:36:36Z</time>
      </trkpt>
      <trkpt lat="47.05235" lon="-1.84499">
        <ele>34.04</ele>
        <time>2020-03-07T10:36:38Z</time>
      </trkpt>
      <trkpt lat="47.05227" lon="-1.84513">
        <ele>34.1</ele>
        <time>2020-03-07T10:36:40Z</time>
      </trkpt>
      <trkpt lat="47.05222" lon="-1.84525">
        <ele>34.52</ele>
        <time>2020-03-07T10:36:42Z</time>
      </trkpt>
      <trkpt lat="47.05217" lon="-1.84537">
        <ele>34.87</ele>
        <time>2020-03-07T10:36:44Z</time>
      </trkpt>
      <trkpt lat="47.0521" lon="-1.84545">
        <ele>35.77</ele>
        <time>2020-03-07T10:36:47Z</time>
      </trkpt>
      <trkpt lat="47.052" lon="-1.84544">
        <ele>35.8</ele>
        <time>2020-03-07T10:36:51Z</time>
      </trkpt>
      <trkpt lat="47.05195" lon="-1.84533">
        <ele>36.18</ele>
        <time>2020-03-07T10:38:50Z</time>
      </trkpt>
      <trkpt lat="47.05187" lon="-1.84521">
        <ele>36.54</ele>
        <time>2020-03-07T10:38:54Z</time>
      </trkpt>
      <trkpt lat="47.0518" lon="-1.84511">
        <ele>36.75</ele>
        <time>2020-03-07T10:38:57Z</time>
      </trkpt>
      <trkpt lat="47.0517" lon="-1.84499">
        <ele>37.53</ele>
        <time>2020-03-07T10:39:00Z</time>
      </trkpt>
      <trkpt lat="47.05162" lon="-1.84489">
        <ele>37.73</ele>
        <time>2020-03-07T10:39:02Z</time>
      </trkpt>
      <trkpt lat="47.05153" lon="-1.84477">
        <ele>36.83</ele>
        <time>2020-03-07T10:39:04Z</time>
      </trkpt>
      <trkpt lat="47.05144" lon="-1.84463">
        <ele>36.61</ele>
        <time>2020-03-07T10:39:07Z</time>
      </trkpt>
      <trkpt lat="47.05137" lon="-1.84452">
        <ele>36.52</ele>
        <time>2020-03-07T10:39:09Z</time>
      </trkpt>
      <trkpt lat="47.0513" lon="-1.8444">
        <ele>36.64</ele>
        <time>2020-03-07T10:39:11Z</time>
      </trkpt>
      <trkpt lat="47.05122" lon="-1.84428">
        <ele>36.86</ele>
        <time>2020-03-07T10:39:13Z</time>
      </trkpt>
      <trkpt lat="47.05115" lon="-1.84418">
        <ele>36.48</ele>
        <time>2020-03-07T10:39:15Z</time>
      </trkpt>
      <trkpt lat="47.05105" lon="-1.84407">
        <ele>35.78</ele>
        <time>2020-03-07T10:39:17Z</time>
      </trkpt>
      <trkpt lat="47.05097" lon="-1.84397">
        <ele>34.92</ele>
        <time>2020-03-07T10:39:19Z</time>
      </trkpt>
      <trkpt lat="47.05089" lon="-1.84387">
        <ele>34.45</ele>
        <time>2020-03-07T10:39:21Z</time>
      </trkpt>
      <trkpt lat="47.05078" lon="-1.84375">
        <ele>34.05</ele>
        <time>2020-03-07T10:39:23Z</time>
      </trkpt>
      <trkpt lat="47.05067" lon="-1.84364">
        <ele>34.47</ele>
        <time>2020-03-07T10:39:25Z</time>
      </trkpt>
      <trkpt lat="47.05057" lon="-1.84355">
        <ele>34.52</ele>
        <time>2020-03-07T10:39:27Z</time>
      </trkpt>
      <trkpt lat="47.05048" lon="-1.84345">
        <ele>34.51</ele>
        <time>2020-03-07T10:39:29Z</time>
      </trkpt>
      <trkpt lat="47.05039" lon="-1.84334">
        <ele>33.95</ele>
        <time>2020-03-07T10:39:31Z</time>
      </trkpt>
      <trkpt lat="47.05027" lon="-1.84323">
        <ele>33.09</ele>
        <time>2020-03-07T10:39:33Z</time>
      </trkpt>
      <trkpt lat="47.05017" lon="-1.84315">
        <ele>33.66</ele>
        <time>2020-03-07T10:39:35Z</time>
      </trkpt>
      <trkpt lat="47.05006" lon="-1.84305">
        <ele>32.61</ele>
        <time>2020-03-07T10:39:37Z</time>
      </trkpt>
      <trkpt lat="47.04996" lon="-1.84297">
        <ele>31.98</ele>
        <time>2020-03-07T10:39:39Z</time>
      </trkpt>
      <trkpt lat="47.04985" lon="-1.84288">
        <ele>33.09</ele>
        <time>2020-03-07T10:39:41Z</time>
      </trkpt>
      <trkpt lat="47.04976" lon="-1.84281">
        <ele>34.41</ele>
        <time>2020-03-07T10:39:43Z</time>
      </trkpt>
      <trkpt lat="47.04966" lon="-1.84271">
        <ele>35.5</ele>
        <time>2020-03-07T10:39:45Z</time>
      </trkpt>
      <trkpt lat="47.04956" lon="-1.84261">
        <ele>36.34</ele>
        <time>2020-03-07T10:39:47Z</time>
      </trkpt>
      <trkpt lat="47.04948" lon="-1.84253">
        <ele>36.58</ele>
        <time>2020-03-07T10:39:49Z</time>
      </trkpt>
      <trkpt lat="47.04938" lon="-1.84243">
        <ele>37.23</ele>
        <time>2020-03-07T10:39:51Z</time>
      </trkpt>
      <trkpt lat="47.04929" lon="-1.84234">
        <ele>37.4</ele>
        <time>2020-03-07T10:39:53Z</time>
      </trkpt>
      <trkpt lat="47.0492" lon="-1.84225">
        <ele>37.86</ele>
        <time>2020-03-07T10:39:55Z</time>
      </trkpt>
      <trkpt lat="47.0491" lon="-1.84215">
        <ele>37.92</ele>
        <time>2020-03-07T10:39:57Z</time>
      </trkpt>
      <trkpt lat="47.04899" lon="-1.84205">
        <ele>36.47</ele>
        <time>2020-03-07T10:39:59Z</time>
      </trkpt>
      <trkpt lat="47.04889" lon="-1.84196">
        <ele>35.54</ele>
        <time>2020-03-07T10:40:01Z</time>
      </trkpt>
      <trkpt lat="47.04881" lon="-1.84188">
        <ele>35.72</ele>
        <time>2020-03-07T10:40:03Z</time>
      </trkpt>
      <trkpt lat="47.04871" lon="-1.84177">
        <ele>35.62</ele>
        <time>2020-03-07T10:40:05Z</time>
      </trkpt>
      <trkpt lat="47.04862" lon="-1.84168">
        <ele>35.43</ele>
        <time>2020-03-07T10:40:07Z</time>
      </trkpt>
      <trkpt lat="47.04853" lon="-1.84158">
        <ele>35.56</ele>
        <time>2020-03-07T10:40:09Z</time>
      </trkpt>
      <trkpt lat="47.04843" lon="-1.84147">
        <ele>34.21</ele>
        <time>2020-03-07T10:40:11Z</time>
      </trkpt>
      <trkpt lat="47.04832" lon="-1.84135">
        <ele>32.55</ele>
        <time>2020-03-07T10:40:13Z</time>
      </trkpt>
      <trkpt lat="47.04822" lon="-1.84123">
        <ele>33.04</ele>
        <time>2020-03-07T10:40:15Z</time>
      </trkpt>
      <trkpt lat="47.04813" lon="-1.84112">
        <ele>32.55</ele>
        <time>2020-03-07T10:40:17Z</time>
      </trkpt>
      <trkpt lat="47.04803" lon="-1.841">
        <ele>31.73</ele>
        <time>2020-03-07T10:40:19Z</time>
      </trkpt>
      <trkpt lat="47.04794" lon="-1.84089">
        <ele>31.06</ele>
        <time>2020-03-07T10:40:21Z</time>
      </trkpt>
      <trkpt lat="47.04786" lon="-1.84077">
        <ele>31.53</ele>
        <time>2020-03-07T10:40:23Z</time>
      </trkpt>
      <trkpt lat="47.04777" lon="-1.84063">
        <ele>31.83</ele>
        <time>2020-03-07T10:40:25Z</time>
      </trkpt>
      <trkpt lat="47.04767" lon="-1.84051">
        <ele>31.92</ele>
        <time>2020-03-07T10:40:27Z</time>
      </trkpt>
      <trkpt lat="47.04758" lon="-1.84039">
        <ele>31.78</ele>
        <time>2020-03-07T10:40:29Z</time>
      </trkpt>
      <trkpt lat="47.04748" lon="-1.84027">
        <ele>32.2</ele>
        <time>2020-03-07T10:40:31Z</time>
      </trkpt>
      <trkpt lat="47.04739" lon="-1.84014">
        <ele>32.71</ele>
        <time>2020-03-07T10:40:33Z</time>
      </trkpt>
      <trkpt lat="47.0473" lon="-1.84002">
        <ele>33.49</ele>
        <time>2020-03-07T10:40:35Z</time>
      </trkpt>
      <trkpt lat="47.04719" lon="-1.8399">
        <ele>33.14</ele>
        <time>2020-03-07T10:40:37Z</time>
      </trkpt>
      <trkpt lat="47.04709" lon="-1.83978">
        <ele>32.76</ele>
        <time>2020-03-07T10:40:39Z</time>
      </trkpt>
      <trkpt lat="47.04699" lon="-1.83966">
        <ele>32.96</ele>
        <time>2020-03-07T10:40:41Z</time>
      </trkpt>
      <trkpt lat="47.04688" lon="-1.83953">
        <ele>32.41</ele>
        <time>2020-03-07T10:40:43Z</time>
      </trkpt>
      <trkpt lat="47.04678" lon="-1.83941">
        <ele>32.17</ele>
        <time>2020-03-07T10:40:45Z</time>
      </trkpt>
      <trkpt lat="47.04668" lon="-1.8393">
        <ele>31.76</ele>
        <time>2020-03-07T10:40:47Z</time>
      </trkpt>
      <trkpt lat="47.04658" lon="-1.83916">
        <ele>31.06</ele>
        <time>2020-03-07T10:40:49Z</time>
      </trkpt>
      <trkpt lat="47.0465" lon="-1.83905">
        <ele>31.67</ele>
        <time>2020-03-07T10:40:51Z</time>
      </trkpt>
      <trkpt lat="47.04639" lon="-1.8389">
        <ele>31.77</ele>
        <time>2020-03-07T10:40:53Z</time>
      </trkpt>
      <trkpt lat="47.04631" lon="-1.83877">
        <ele>31.8</ele>
        <time>2020-03-07T10:40:55Z</time>
      </trkpt>
      <trkpt lat="47.04622" lon="-1.83865">
        <ele>30.81</ele>
        <time>2020-03-07T10:40:57Z</time>
      </trkpt>
      <trkpt lat="47.04612" lon="-1.83851">
        <ele>31.25</ele>
        <time>2020-03-07T10:40:59Z</time>
      </trkpt>
      <trkpt lat="47.04602" lon="-1.83838">
        <ele>31.71</ele>
        <time>2020-03-07T10:41:01Z</time>
      </trkpt>
      <trkpt lat="47.04592" lon="-1.83827">
        <ele>31.62</ele>
        <time>2020-03-07T10:41:03Z</time>
      </trkpt>
      <trkpt lat="47.0458" lon="-1.83818">
        <ele>30.98</ele>
        <time>2020-03-07T10:41:05Z</time>
      </trkpt>
      <trkpt lat="47.04569" lon="-1.8381">
        <ele>30.96</ele>
        <time>2020-03-07T10:41:07Z</time>
      </trkpt>
      <trkpt lat="47.04556" lon="-1.83802">
        <ele>31.16</ele>
        <time>2020-03-07T10:41:09Z</time>
      </trkpt>
      <trkpt lat="47.04544" lon="-1.83795">
        <ele>31.55</ele>
        <time>2020-03-07T10:41:11Z</time>
      </trkpt>
      <trkpt lat="47.04532" lon="-1.83787">
        <ele>31.95</ele>
        <time>2020-03-07T10:41:13Z</time>
      </trkpt>
      <trkpt lat="47.0452" lon="-1.83779">
        <ele>31.86</ele>
        <time>2020-03-07T10:41:15Z</time>
      </trkpt>
      <trkpt lat="47.04509" lon="-1.8377">
        <ele>31.03</ele>
        <time>2020-03-07T10:41:17Z</time>
      </trkpt>
      <trkpt lat="47.04498" lon="-1.83762">
        <ele>30.22</ele>
        <time>2020-03-07T10:41:20Z</time>
      </trkpt>
      <trkpt lat="47.04487" lon="-1.83754">
        <ele>29.54</ele>
        <time>2020-03-07T10:41:21Z</time>
      </trkpt>
      <trkpt lat="47.04475" lon="-1.83745">
        <ele>28.97</ele>
        <time>2020-03-07T10:41:23Z</time>
      </trkpt>
      <trkpt lat="47.04465" lon="-1.83737">
        <ele>29.02</ele>
        <time>2020-03-07T10:41:25Z</time>
      </trkpt>
      <trkpt lat="47.04453" lon="-1.83727">
        <ele>29.12</ele>
        <time>2020-03-07T10:41:27Z</time>
      </trkpt>
      <trkpt lat="47.04444" lon="-1.83719">
        <ele>30.66</ele>
        <time>2020-03-07T10:41:30Z</time>
      </trkpt>
      <trkpt lat="47.04435" lon="-1.8371">
        <ele>32.28</ele>
        <time>2020-03-07T10:41:32Z</time>
      </trkpt>
      <trkpt lat="47.04423" lon="-1.837">
        <ele>32.94</ele>
        <time>2020-03-07T10:41:34Z</time>
      </trkpt>
      <trkpt lat="47.0441" lon="-1.83691">
        <ele>33.56</ele>
        <time>2020-03-07T10:41:36Z</time>
      </trkpt>
      <trkpt lat="47.04397" lon="-1.83682">
        <ele>33.81</ele>
        <time>2020-03-07T10:41:38Z</time>
      </trkpt>
      <trkpt lat="47.04387" lon="-1.83677">
        <ele>33.2</ele>
        <time>2020-03-07T10:41:40Z</time>
      </trkpt>
      <trkpt lat="47.04373" lon="-1.83669">
        <ele>32.52</ele>
        <time>2020-03-07T10:41:42Z</time>
      </trkpt>
      <trkpt lat="47.04359" lon="-1.83665">
        <ele>32.43</ele>
        <time>2020-03-07T10:41:44Z</time>
      </trkpt>
      <trkpt lat="47.04348" lon="-1.83663">
        <ele>32.71</ele>
        <time>2020-03-07T10:41:46Z</time>
      </trkpt>
      <trkpt lat="47.04335" lon="-1.8366">
        <ele>32.78</ele>
        <time>2020-03-07T10:41:48Z</time>
      </trkpt>
      <trkpt lat="47.04321" lon="-1.83657">
        <ele>32.93</ele>
        <time>2020-03-07T10:41:50Z</time>
      </trkpt>
      <trkpt lat="47.04306" lon="-1.83655">
        <ele>32.82</ele>
        <time>2020-03-07T10:41:52Z</time>
      </trkpt>
      <trkpt lat="47.04293" lon="-1.83652">
        <ele>32.9</ele>
        <time>2020-03-07T10:41:54Z</time>
      </trkpt>
      <trkpt lat="47.0428" lon="-1.83648">
        <ele>33.06</ele>
        <time>2020-03-07T10:41:56Z</time>
      </trkpt>
      <trkpt lat="47.04267" lon="-1.83646">
        <ele>32.91</ele>
        <time>2020-03-07T10:41:58Z</time>
      </trkpt>
      <trkpt lat="47.04255" lon="-1.83642">
        <ele>31.75</ele>
        <time>2020-03-07T10:42:00Z</time>
      </trkpt>
      <trkpt lat="47.04242" lon="-1.83638">
        <ele>30.54</ele>
        <time>2020-03-07T10:42:02Z</time>
      </trkpt>
      <trkpt lat="47.0423" lon="-1.83634">
        <ele>29.44</ele>
        <time>2020-03-07T10:42:04Z</time>
      </trkpt>
      <trkpt lat="47.04217" lon="-1.83625">
        <ele>28.02</ele>
        <time>2020-03-07T10:42:06Z</time>
      </trkpt>
      <trkpt lat="47.04208" lon="-1.83618">
        <ele>27.88</ele>
        <time>2020-03-07T10:42:08Z</time>
      </trkpt>
      <trkpt lat="47.04198" lon="-1.83615">
        <ele>29.14</ele>
        <time>2020-03-07T10:42:10Z</time>
      </trkpt>
      <trkpt lat="47.04186" lon="-1.83616">
        <ele>29.57</ele>
        <time>2020-03-07T10:42:12Z</time>
      </trkpt>
      <trkpt lat="47.04173" lon="-1.83614">
        <ele>29</ele>
        <time>2020-03-07T10:42:14Z</time>
      </trkpt>
      <trkpt lat="47.04162" lon="-1.83608">
        <ele>28.67</ele>
        <time>2020-03-07T10:42:16Z</time>
      </trkpt>
      <trkpt lat="47.04151" lon="-1.83602">
        <ele>29.49</ele>
        <time>2020-03-07T10:42:18Z</time>
      </trkpt>
      <trkpt lat="47.04139" lon="-1.83596">
        <ele>30.36</ele>
        <time>2020-03-07T10:42:20Z</time>
      </trkpt>
      <trkpt lat="47.04127" lon="-1.8359">
        <ele>30.38</ele>
        <time>2020-03-07T10:42:22Z</time>
      </trkpt>
      <trkpt lat="47.04115" lon="-1.83585">
        <ele>31.18</ele>
        <time>2020-03-07T10:42:24Z</time>
      </trkpt>
      <trkpt lat="47.04103" lon="-1.83579">
        <ele>31.4</ele>
        <time>2020-03-07T10:42:26Z</time>
      </trkpt>
      <trkpt lat="47.04092" lon="-1.83576">
        <ele>30.75</ele>
        <time>2020-03-07T10:42:28Z</time>
      </trkpt>
      <trkpt lat="47.04079" lon="-1.83572">
        <ele>30.12</ele>
        <time>2020-03-07T10:42:30Z</time>
      </trkpt>
      <trkpt lat="47.04068" lon="-1.83569">
        <ele>30.44</ele>
        <time>2020-03-07T10:42:32Z</time>
      </trkpt>
      <trkpt lat="47.04056" lon="-1.83568">
        <ele>30.93</ele>
        <time>2020-03-07T10:42:34Z</time>
      </trkpt>
      <trkpt lat="47.04043" lon="-1.83567">
        <ele>30.64</ele>
        <time>2020-03-07T10:42:36Z</time>
      </trkpt>
      <trkpt lat="47.04032" lon="-1.83567">
        <ele>30.13</ele>
        <time>2020-03-07T10:42:38Z</time>
      </trkpt>
      <trkpt lat="47.04021" lon="-1.83565">
        <ele>29.76</ele>
        <time>2020-03-07T10:42:40Z</time>
      </trkpt>
      <trkpt lat="47.04008" lon="-1.83564">
        <ele>29.91</ele>
        <time>2020-03-07T10:42:42Z</time>
      </trkpt>
      <trkpt lat="47.03995" lon="-1.83561">
        <ele>29.13</ele>
        <time>2020-03-07T10:42:44Z</time>
      </trkpt>
      <trkpt lat="47.03985" lon="-1.8356">
        <ele>29.06</ele>
        <time>2020-03-07T10:42:46Z</time>
      </trkpt>
      <trkpt lat="47.03974" lon="-1.83558">
        <ele>28.25</ele>
        <time>2020-03-07T10:42:48Z</time>
      </trkpt>
      <trkpt lat="47.03962" lon="-1.83557">
        <ele>27.26</ele>
        <time>2020-03-07T10:42:50Z</time>
      </trkpt>
      <trkpt lat="47.03949" lon="-1.83556">
        <ele>27.22</ele>
        <time>2020-03-07T10:42:52Z</time>
      </trkpt>
      <trkpt lat="47.03938" lon="-1.83554">
        <ele>28.05</ele>
        <time>2020-03-07T10:42:54Z</time>
      </trkpt>
      <trkpt lat="47.03926" lon="-1.83553">
        <ele>29.25</ele>
        <time>2020-03-07T10:42:56Z</time>
      </trkpt>
      <trkpt lat="47.03915" lon="-1.83552">
        <ele>29.13</ele>
        <time>2020-03-07T10:42:58Z</time>
      </trkpt>
      <trkpt lat="47.03903" lon="-1.8355">
        <ele>28.61</ele>
        <time>2020-03-07T10:43:00Z</time>
      </trkpt>
      <trkpt lat="47.0389" lon="-1.83547">
        <ele>29.3</ele>
        <time>2020-03-07T10:43:02Z</time>
      </trkpt>
      <trkpt lat="47.03877" lon="-1.83546">
        <ele>29.35</ele>
        <time>2020-03-07T10:43:04Z</time>
      </trkpt>
      <trkpt lat="47.03866" lon="-1.83544">
        <ele>28.64</ele>
        <time>2020-03-07T10:43:06Z</time>
      </trkpt>
      <trkpt lat="47.03855" lon="-1.83543">
        <ele>29.08</ele>
        <time>2020-03-07T10:43:08Z</time>
      </trkpt>
      <trkpt lat="47.03843" lon="-1.83541">
        <ele>29.9</ele>
        <time>2020-03-07T10:43:10Z</time>
      </trkpt>
      <trkpt lat="47.03832" lon="-1.8354">
        <ele>30.63</ele>
        <time>2020-03-07T10:43:12Z</time>
      </trkpt>
      <trkpt lat="47.03821" lon="-1.83539">
        <ele>30.24</ele>
        <time>2020-03-07T10:43:14Z</time>
      </trkpt>
      <trkpt lat="47.03807" lon="-1.83538">
        <ele>29.84</ele>
        <time>2020-03-07T10:43:16Z</time>
      </trkpt>
      <trkpt lat="47.03795" lon="-1.83537">
        <ele>29.31</ele>
        <time>2020-03-07T10:43:18Z</time>
      </trkpt>
      <trkpt lat="47.03783" lon="-1.83536">
        <ele>30.21</ele>
        <time>2020-03-07T10:43:20Z</time>
      </trkpt>
      <trkpt lat="47.03772" lon="-1.83535">
        <ele>30.29</ele>
        <time>2020-03-07T10:43:22Z</time>
      </trkpt>
      <trkpt lat="47.03759" lon="-1.83536">
        <ele>30.13</ele>
        <time>2020-03-07T10:43:24Z</time>
      </trkpt>
      <trkpt lat="47.03747" lon="-1.83535">
        <ele>30.71</ele>
        <time>2020-03-07T10:43:26Z</time>
      </trkpt>
      <trkpt lat="47.03735" lon="-1.83535">
        <ele>31.17</ele>
        <time>2020-03-07T10:43:28Z</time>
      </trkpt>
      <trkpt lat="47.03724" lon="-1.83535">
        <ele>30.36</ele>
        <time>2020-03-07T10:43:30Z</time>
      </trkpt>
      <trkpt lat="47.0371" lon="-1.83535">
        <ele>29.28</ele>
        <time>2020-03-07T10:43:32Z</time>
      </trkpt>
      <trkpt lat="47.03698" lon="-1.83535">
        <ele>29.32</ele>
        <time>2020-03-07T10:43:34Z</time>
      </trkpt>
      <trkpt lat="47.03687" lon="-1.83535">
        <ele>30.06</ele>
        <time>2020-03-07T10:43:36Z</time>
      </trkpt>
      <trkpt lat="47.03676" lon="-1.83536">
        <ele>31.46</ele>
        <time>2020-03-07T10:43:38Z</time>
      </trkpt>
      <trkpt lat="47.03662" lon="-1.83536">
        <ele>31.24</ele>
        <time>2020-03-07T10:43:40Z</time>
      </trkpt>
      <trkpt lat="47.0365" lon="-1.83536">
        <ele>30.47</ele>
        <time>2020-03-07T10:43:42Z</time>
      </trkpt>
      <trkpt lat="47.03639" lon="-1.83536">
        <ele>30.65</ele>
        <time>2020-03-07T10:43:44Z</time>
      </trkpt>
      <trkpt lat="47.03628" lon="-1.83536">
        <ele>30.51</ele>
        <time>2020-03-07T10:43:46Z</time>
      </trkpt>
      <trkpt lat="47.03615" lon="-1.83537">
        <ele>30.79</ele>
        <time>2020-03-07T10:43:48Z</time>
      </trkpt>
      <trkpt lat="47.03602" lon="-1.83537">
        <ele>30.41</ele>
        <time>2020-03-07T10:43:50Z</time>
      </trkpt>
      <trkpt lat="47.0359" lon="-1.83537">
        <ele>29.35</ele>
        <time>2020-03-07T10:43:52Z</time>
      </trkpt>
      <trkpt lat="47.03578" lon="-1.83538">
        <ele>29.22</ele>
        <time>2020-03-07T10:43:54Z</time>
      </trkpt>
      <trkpt lat="47.03566" lon="-1.8354">
        <ele>29.07</ele>
        <time>2020-03-07T10:43:56Z</time>
      </trkpt>
      <trkpt lat="47.03554" lon="-1.8354">
        <ele>28.68</ele>
        <time>2020-03-07T10:43:58Z</time>
      </trkpt>
      <trkpt lat="47.03542" lon="-1.83541">
        <ele>27.63</ele>
        <time>2020-03-07T10:44:00Z</time>
      </trkpt>
      <trkpt lat="47.03528" lon="-1.83541">
        <ele>26.81</ele>
        <time>2020-03-07T10:44:02Z</time>
      </trkpt>
      <trkpt lat="47.03515" lon="-1.8354">
        <ele>27.13</ele>
        <time>2020-03-07T10:44:04Z</time>
      </trkpt>
      <trkpt lat="47.03503" lon="-1.83539">
        <ele>28.03</ele>
        <time>2020-03-07T10:44:06Z</time>
      </trkpt>
      <trkpt lat="47.0349" lon="-1.83537">
        <ele>27.26</ele>
        <time>2020-03-07T10:44:08Z</time>
      </trkpt>
      <trkpt lat="47.03477" lon="-1.83535">
        <ele>26.16</ele>
        <time>2020-03-07T10:44:10Z</time>
      </trkpt>
      <trkpt lat="47.03465" lon="-1.83532">
        <ele>25.24</ele>
        <time>2020-03-07T10:44:12Z</time>
      </trkpt>
      <trkpt lat="47.03451" lon="-1.83528">
        <ele>24.12</ele>
        <time>2020-03-07T10:44:14Z</time>
      </trkpt>
      <trkpt lat="47.03437" lon="-1.83524">
        <ele>23.76</ele>
        <time>2020-03-07T10:44:16Z</time>
      </trkpt>
      <trkpt lat="47.03425" lon="-1.83519">
        <ele>23</ele>
        <time>2020-03-07T10:44:18Z</time>
      </trkpt>
      <trkpt lat="47.03413" lon="-1.83515">
        <ele>22.99</ele>
        <time>2020-03-07T10:44:20Z</time>
      </trkpt>
      <trkpt lat="47.03402" lon="-1.83512">
        <ele>23.59</ele>
        <time>2020-03-07T10:44:22Z</time>
      </trkpt>
      <trkpt lat="47.0339" lon="-1.83509">
        <ele>24.11</ele>
        <time>2020-03-07T10:44:24Z</time>
      </trkpt>
      <trkpt lat="47.03376" lon="-1.83504">
        <ele>23.41</ele>
        <time>2020-03-07T10:44:26Z</time>
      </trkpt>
      <trkpt lat="47.03364" lon="-1.83501">
        <ele>23.55</ele>
        <time>2020-03-07T10:44:28Z</time>
      </trkpt>
      <trkpt lat="47.03352" lon="-1.83499">
        <ele>23.92</ele>
        <time>2020-03-07T10:44:30Z</time>
      </trkpt>
      <trkpt lat="47.03339" lon="-1.83495">
        <ele>23.65</ele>
        <time>2020-03-07T10:44:32Z</time>
      </trkpt>
      <trkpt lat="47.03326" lon="-1.83491">
        <ele>23.14</ele>
        <time>2020-03-07T10:44:34Z</time>
      </trkpt>
      <trkpt lat="47.03314" lon="-1.83488">
        <ele>23.23</ele>
        <time>2020-03-07T10:44:36Z</time>
      </trkpt>
      <trkpt lat="47.03302" lon="-1.83485">
        <ele>24.3</ele>
        <time>2020-03-07T10:44:38Z</time>
      </trkpt>
      <trkpt lat="47.03289" lon="-1.83482">
        <ele>25.15</ele>
        <time>2020-03-07T10:44:40Z</time>
      </trkpt>
      <trkpt lat="47.03277" lon="-1.83479">
        <ele>25.1</ele>
        <time>2020-03-07T10:44:42Z</time>
      </trkpt>
      <trkpt lat="47.03265" lon="-1.83476">
        <ele>24.93</ele>
        <time>2020-03-07T10:44:44Z</time>
      </trkpt>
      <trkpt lat="47.03253" lon="-1.83474">
        <ele>23.98</ele>
        <time>2020-03-07T10:44:46Z</time>
      </trkpt>
      <trkpt lat="47.03241" lon="-1.83471">
        <ele>23.33</ele>
        <time>2020-03-07T10:44:48Z</time>
      </trkpt>
      <trkpt lat="47.03228" lon="-1.83467">
        <ele>23.18</ele>
        <time>2020-03-07T10:44:50Z</time>
      </trkpt>
      <trkpt lat="47.03216" lon="-1.83462">
        <ele>24.76</ele>
        <time>2020-03-07T10:44:52Z</time>
      </trkpt>
      <trkpt lat="47.03205" lon="-1.83458">
        <ele>25.92</ele>
        <time>2020-03-07T10:44:54Z</time>
      </trkpt>
      <trkpt lat="47.03194" lon="-1.83455">
        <ele>25.52</ele>
        <time>2020-03-07T10:44:56Z</time>
      </trkpt>
      <trkpt lat="47.03182" lon="-1.83453">
        <ele>24.89</ele>
        <time>2020-03-07T10:44:58Z</time>
      </trkpt>
      <trkpt lat="47.0317" lon="-1.83452">
        <ele>23.7</ele>
        <time>2020-03-07T10:45:01Z</time>
      </trkpt>
      <trkpt lat="47.03163" lon="-1.83461">
        <ele>24.38</ele>
        <time>2020-03-07T10:45:03Z</time>
      </trkpt>
      <trkpt lat="47.03159" lon="-1.83474">
        <ele>26.2</ele>
        <time>2020-03-07T10:45:06Z</time>
      </trkpt>
      <trkpt lat="47.03151" lon="-1.83484">
        <ele>25.07</ele>
        <time>2020-03-07T10:45:08Z</time>
      </trkpt>
      <trkpt lat="47.03143" lon="-1.8349">
        <ele>25</ele>
        <time>2020-03-07T10:45:10Z</time>
      </trkpt>
      <trkpt lat="47.0313" lon="-1.83493">
        <ele>25.52</ele>
        <time>2020-03-07T10:45:13Z</time>
      </trkpt>
      <trkpt lat="47.03118" lon="-1.83493">
        <ele>24.56</ele>
        <time>2020-03-07T10:45:15Z</time>
      </trkpt>
      <trkpt lat="47.03108" lon="-1.83493">
        <ele>24.88</ele>
        <time>2020-03-07T10:45:17Z</time>
      </trkpt>
      <trkpt lat="47.03096" lon="-1.83495">
        <ele>24.59</ele>
        <time>2020-03-07T10:45:19Z</time>
      </trkpt>
      <trkpt lat="47.03083" lon="-1.83495">
        <ele>24.16</ele>
        <time>2020-03-07T10:45:21Z</time>
      </trkpt>
      <trkpt lat="47.03071" lon="-1.83497">
        <ele>24.21</ele>
        <time>2020-03-07T10:45:23Z</time>
      </trkpt>
      <trkpt lat="47.03059" lon="-1.83499">
        <ele>24.31</ele>
        <time>2020-03-07T10:45:25Z</time>
      </trkpt>
      <trkpt lat="47.03048" lon="-1.83499">
        <ele>24.72</ele>
        <time>2020-03-07T10:45:27Z</time>
      </trkpt>
      <trkpt lat="47.03034" lon="-1.83501">
        <ele>24.76</ele>
        <time>2020-03-07T10:45:29Z</time>
      </trkpt>
      <trkpt lat="47.0302" lon="-1.83503">
        <ele>24.48</ele>
        <time>2020-03-07T10:45:31Z</time>
      </trkpt>
      <trkpt lat="47.03009" lon="-1.83504">
        <ele>23.98</ele>
        <time>2020-03-07T10:45:33Z</time>
      </trkpt>
      <trkpt lat="47.02995" lon="-1.83505">
        <ele>23.45</ele>
        <time>2020-03-07T10:45:35Z</time>
      </trkpt>
      <trkpt lat="47.02983" lon="-1.83507">
        <ele>22.86</ele>
        <time>2020-03-07T10:45:37Z</time>
      </trkpt>
      <trkpt lat="47.02971" lon="-1.83508">
        <ele>21.77</ele>
        <time>2020-03-07T10:45:39Z</time>
      </trkpt>
      <trkpt lat="47.02959" lon="-1.83509">
        <ele>21.47</ele>
        <time>2020-03-07T10:45:41Z</time>
      </trkpt>
      <trkpt lat="47.02947" lon="-1.8351">
        <ele>21.74</ele>
        <time>2020-03-07T10:45:43Z</time>
      </trkpt>
      <trkpt lat="47.02933" lon="-1.83513">
        <ele>21.59</ele>
        <time>2020-03-07T10:45:45Z</time>
      </trkpt>
      <trkpt lat="47.02921" lon="-1.83516">
        <ele>22.33</ele>
        <time>2020-03-07T10:45:47Z</time>
      </trkpt>
      <trkpt lat="47.02908" lon="-1.8352">
        <ele>22.82</ele>
        <time>2020-03-07T10:45:49Z</time>
      </trkpt>
      <trkpt lat="47.02896" lon="-1.83522">
        <ele>22.89</ele>
        <time>2020-03-07T10:45:51Z</time>
      </trkpt>
      <trkpt lat="47.02884" lon="-1.83525">
        <ele>23.46</ele>
        <time>2020-03-07T10:45:53Z</time>
      </trkpt>
      <trkpt lat="47.0287" lon="-1.8353">
        <ele>23.27</ele>
        <time>2020-03-07T10:45:55Z</time>
      </trkpt>
      <trkpt lat="47.0286" lon="-1.83534">
        <ele>23.04</ele>
        <time>2020-03-07T10:45:57Z</time>
      </trkpt>
      <trkpt lat="47.02849" lon="-1.83539">
        <ele>22.91</ele>
        <time>2020-03-07T10:45:59Z</time>
      </trkpt>
      <trkpt lat="47.02837" lon="-1.83545">
        <ele>22.91</ele>
        <time>2020-03-07T10:46:01Z</time>
      </trkpt>
      <trkpt lat="47.02828" lon="-1.83552">
        <ele>22.81</ele>
        <time>2020-03-07T10:46:03Z</time>
      </trkpt>
      <trkpt lat="47.02818" lon="-1.8356">
        <ele>22.32</ele>
        <time>2020-03-07T10:46:05Z</time>
      </trkpt>
      <trkpt lat="47.02806" lon="-1.83571">
        <ele>22.46</ele>
        <time>2020-03-07T10:46:07Z</time>
      </trkpt>
      <trkpt lat="47.02796" lon="-1.83582">
        <ele>22.81</ele>
        <time>2020-03-07T10:46:09Z</time>
      </trkpt>
      <trkpt lat="47.02787" lon="-1.83592">
        <ele>22.27</ele>
        <time>2020-03-07T10:46:11Z</time>
      </trkpt>
      <trkpt lat="47.02778" lon="-1.83599">
        <ele>21.86</ele>
        <time>2020-03-07T10:46:13Z</time>
      </trkpt>
      <trkpt lat="47.02768" lon="-1.83606">
        <ele>22.49</ele>
        <time>2020-03-07T10:46:15Z</time>
      </trkpt>
      <trkpt lat="47.02756" lon="-1.83613">
        <ele>22.42</ele>
        <time>2020-03-07T10:46:17Z</time>
      </trkpt>
      <trkpt lat="47.02745" lon="-1.83618">
        <ele>22.83</ele>
        <time>2020-03-07T10:46:19Z</time>
      </trkpt>
      <trkpt lat="47.02731" lon="-1.83619">
        <ele>22.73</ele>
        <time>2020-03-07T10:46:21Z</time>
      </trkpt>
      <trkpt lat="47.02719" lon="-1.83621">
        <ele>22.57</ele>
        <time>2020-03-07T10:46:23Z</time>
      </trkpt>
      <trkpt lat="47.02706" lon="-1.83622">
        <ele>22.19</ele>
        <time>2020-03-07T10:46:25Z</time>
      </trkpt>
      <trkpt lat="47.02694" lon="-1.83622">
        <ele>21.48</ele>
        <time>2020-03-07T10:46:27Z</time>
      </trkpt>
      <trkpt lat="47.02682" lon="-1.83622">
        <ele>21.27</ele>
        <time>2020-03-07T10:46:29Z</time>
      </trkpt>
      <trkpt lat="47.02668" lon="-1.83623">
        <ele>21.22</ele>
        <time>2020-03-07T10:46:31Z</time>
      </trkpt>
      <trkpt lat="47.02655" lon="-1.83624">
        <ele>21.22</ele>
        <time>2020-03-07T10:46:33Z</time>
      </trkpt>
      <trkpt lat="47.02642" lon="-1.83625">
        <ele>21.08</ele>
        <time>2020-03-07T10:46:35Z</time>
      </trkpt>
      <trkpt lat="47.0263" lon="-1.83625">
        <ele>20.68</ele>
        <time>2020-03-07T10:46:37Z</time>
      </trkpt>
      <trkpt lat="47.02618" lon="-1.83626">
        <ele>20.72</ele>
        <time>2020-03-07T10:46:39Z</time>
      </trkpt>
      <trkpt lat="47.02604" lon="-1.83627">
        <ele>20.34</ele>
        <time>2020-03-07T10:46:41Z</time>
      </trkpt>
      <trkpt lat="47.02591" lon="-1.83628">
        <ele>20.32</ele>
        <time>2020-03-07T10:46:43Z</time>
      </trkpt>
      <trkpt lat="47.02577" lon="-1.83628">
        <ele>20.46</ele>
        <time>2020-03-07T10:46:45Z</time>
      </trkpt>
      <trkpt lat="47.02565" lon="-1.8363">
        <ele>20.38</ele>
        <time>2020-03-07T10:46:47Z</time>
      </trkpt>
      <trkpt lat="47.02553" lon="-1.83631">
        <ele>20.34</ele>
        <time>2020-03-07T10:46:49Z</time>
      </trkpt>
      <trkpt lat="47.02539" lon="-1.83633">
        <ele>20.28</ele>
        <time>2020-03-07T10:46:51Z</time>
      </trkpt>
      <trkpt lat="47.02526" lon="-1.83634">
        <ele>19.59</ele>
        <time>2020-03-07T10:46:53Z</time>
      </trkpt>
      <trkpt lat="47.02513" lon="-1.83636">
        <ele>19.01</ele>
        <time>2020-03-07T10:46:55Z</time>
      </trkpt>
      <trkpt lat="47.025" lon="-1.8364">
        <ele>19.02</ele>
        <time>2020-03-07T10:46:57Z</time>
      </trkpt>
      <trkpt lat="47.02489" lon="-1.83642">
        <ele>19.41</ele>
        <time>2020-03-07T10:46:59Z</time>
      </trkpt>
      <trkpt lat="47.02476" lon="-1.83645">
        <ele>19.08</ele>
        <time>2020-03-07T10:47:01Z</time>
      </trkpt>
      <trkpt lat="47.02463" lon="-1.83648">
        <ele>18.94</ele>
        <time>2020-03-07T10:47:03Z</time>
      </trkpt>
      <trkpt lat="47.02449" lon="-1.83652">
        <ele>19.33</ele>
        <time>2020-03-07T10:47:05Z</time>
      </trkpt>
      <trkpt lat="47.02437" lon="-1.83654">
        <ele>19.4</ele>
        <time>2020-03-07T10:47:07Z</time>
      </trkpt>
      <trkpt lat="47.02424" lon="-1.83658">
        <ele>19.38</ele>
        <time>2020-03-07T10:47:09Z</time>
      </trkpt>
      <trkpt lat="47.02413" lon="-1.83661">
        <ele>19.09</ele>
        <time>2020-03-07T10:47:11Z</time>
      </trkpt>
      <trkpt lat="47.02401" lon="-1.83662">
        <ele>18.22</ele>
        <time>2020-03-07T10:47:13Z</time>
      </trkpt>
      <trkpt lat="47.02387" lon="-1.83663">
        <ele>18.33</ele>
        <time>2020-03-07T10:47:15Z</time>
      </trkpt>
      <trkpt lat="47.02371" lon="-1.83663">
        <ele>18.79</ele>
        <time>2020-03-07T10:47:17Z</time>
      </trkpt>
      <trkpt lat="47.02358" lon="-1.83661">
        <ele>19.31</ele>
        <time>2020-03-07T10:47:19Z</time>
      </trkpt>
      <trkpt lat="47.02344" lon="-1.8366">
        <ele>19.58</ele>
        <time>2020-03-07T10:47:21Z</time>
      </trkpt>
      <trkpt lat="47.02331" lon="-1.83659">
        <ele>20.17</ele>
        <time>2020-03-07T10:47:23Z</time>
      </trkpt>
      <trkpt lat="47.02318" lon="-1.83658">
        <ele>20.99</ele>
        <time>2020-03-07T10:47:25Z</time>
      </trkpt>
      <trkpt lat="47.02304" lon="-1.83657">
        <ele>21.17</ele>
        <time>2020-03-07T10:47:27Z</time>
      </trkpt>
      <trkpt lat="47.02291" lon="-1.83657">
        <ele>20.25</ele>
        <time>2020-03-07T10:47:29Z</time>
      </trkpt>
      <trkpt lat="47.02277" lon="-1.83656">
        <ele>19.56</ele>
        <time>2020-03-07T10:47:31Z</time>
      </trkpt>
      <trkpt lat="47.02265" lon="-1.83655">
        <ele>19.08</ele>
        <time>2020-03-07T10:47:33Z</time>
      </trkpt>
      <trkpt lat="47.02252" lon="-1.83653">
        <ele>18.58</ele>
        <time>2020-03-07T10:47:35Z</time>
      </trkpt>
      <trkpt lat="47.02239" lon="-1.83652">
        <ele>18.14</ele>
        <time>2020-03-07T10:47:37Z</time>
      </trkpt>
      <trkpt lat="47.02226" lon="-1.8365">
        <ele>17.76</ele>
        <time>2020-03-07T10:47:39Z</time>
      </trkpt>
      <trkpt lat="47.02214" lon="-1.83649">
        <ele>17.97</ele>
        <time>2020-03-07T10:47:41Z</time>
      </trkpt>
      <trkpt lat="47.02201" lon="-1.83646">
        <ele>17.78</ele>
        <time>2020-03-07T10:47:43Z</time>
      </trkpt>
      <trkpt lat="47.02189" lon="-1.83643">
        <ele>16.93</ele>
        <time>2020-03-07T10:47:45Z</time>
      </trkpt>
      <trkpt lat="47.02176" lon="-1.83638">
        <ele>16.35</ele>
        <time>2020-03-07T10:47:47Z</time>
      </trkpt>
      <trkpt lat="47.02164" lon="-1.83631">
        <ele>16.42</ele>
        <time>2020-03-07T10:47:49Z</time>
      </trkpt>
      <trkpt lat="47.02151" lon="-1.83622">
        <ele>17.41</ele>
        <time>2020-03-07T10:47:51Z</time>
      </trkpt>
      <trkpt lat="47.02138" lon="-1.83614">
        <ele>18.68</ele>
        <time>2020-03-07T10:47:53Z</time>
      </trkpt>
      <trkpt lat="47.02125" lon="-1.83606">
        <ele>19.81</ele>
        <time>2020-03-07T10:47:55Z</time>
      </trkpt>
      <trkpt lat="47.02112" lon="-1.83597">
        <ele>18.86</ele>
        <time>2020-03-07T10:47:57Z</time>
      </trkpt>
      <trkpt lat="47.02101" lon="-1.83589">
        <ele>19.08</ele>
        <time>2020-03-07T10:47:59Z</time>
      </trkpt>
      <trkpt lat="47.02089" lon="-1.8358">
        <ele>18.9</ele>
        <time>2020-03-07T10:48:01Z</time>
      </trkpt>
      <trkpt lat="47.02078" lon="-1.83574">
        <ele>18.49</ele>
        <time>2020-03-07T10:48:03Z</time>
      </trkpt>
      <trkpt lat="47.02064" lon="-1.83566">
        <ele>17.91</ele>
        <time>2020-03-07T10:48:05Z</time>
      </trkpt>
      <trkpt lat="47.02053" lon="-1.83561">
        <ele>17.87</ele>
        <time>2020-03-07T10:48:07Z</time>
      </trkpt>
      <trkpt lat="47.02043" lon="-1.83554">
        <ele>17.63</ele>
        <time>2020-03-07T10:48:09Z</time>
      </trkpt>
      <trkpt lat="47.02032" lon="-1.83548">
        <ele>17.2</ele>
        <time>2020-03-07T10:48:11Z</time>
      </trkpt>
      <trkpt lat="47.02019" lon="-1.83542">
        <ele>16.61</ele>
        <time>2020-03-07T10:48:13Z</time>
      </trkpt>
      <trkpt lat="47.02009" lon="-1.83534">
        <ele>16.74</ele>
        <time>2020-03-07T10:48:15Z</time>
      </trkpt>
      <trkpt lat="47.01996" lon="-1.83526">
        <ele>16.12</ele>
        <time>2020-03-07T10:48:17Z</time>
      </trkpt>
      <trkpt lat="47.01984" lon="-1.83518">
        <ele>16.04</ele>
        <time>2020-03-07T10:48:19Z</time>
      </trkpt>
      <trkpt lat="47.01972" lon="-1.83512">
        <ele>16.47</ele>
        <time>2020-03-07T10:48:21Z</time>
      </trkpt>
      <trkpt lat="47.0196" lon="-1.83505">
        <ele>16.14</ele>
        <time>2020-03-07T10:48:23Z</time>
      </trkpt>
      <trkpt lat="47.01947" lon="-1.83499">
        <ele>15.77</ele>
        <time>2020-03-07T10:48:25Z</time>
      </trkpt>
      <trkpt lat="47.01935" lon="-1.83496">
        <ele>15.59</ele>
        <time>2020-03-07T10:48:27Z</time>
      </trkpt>
      <trkpt lat="47.01921" lon="-1.83495">
        <ele>15.25</ele>
        <time>2020-03-07T10:48:29Z</time>
      </trkpt>
      <trkpt lat="47.01906" lon="-1.83497">
        <ele>15.43</ele>
        <time>2020-03-07T10:48:31Z</time>
      </trkpt>
      <trkpt lat="47.01894" lon="-1.83501">
        <ele>15.34</ele>
        <time>2020-03-07T10:48:33Z</time>
      </trkpt>
      <trkpt lat="47.01881" lon="-1.83506">
        <ele>14.89</ele>
        <time>2020-03-07T10:48:35Z</time>
      </trkpt>
      <trkpt lat="47.01872" lon="-1.83509">
        <ele>14.44</ele>
        <time>2020-03-07T10:48:36Z</time>
      </trkpt>
      <trkpt lat="47.01859" lon="-1.83513">
        <ele>13.53</ele>
        <time>2020-03-07T10:48:38Z</time>
      </trkpt>
      <trkpt lat="47.01845" lon="-1.83516">
        <ele>12.98</ele>
        <time>2020-03-07T10:48:40Z</time>
      </trkpt>
      <trkpt lat="47.01831" lon="-1.83519">
        <ele>13.67</ele>
        <time>2020-03-07T10:48:42Z</time>
      </trkpt>
      <trkpt lat="47.01817" lon="-1.83522">
        <ele>13.82</ele>
        <time>2020-03-07T10:48:44Z</time>
      </trkpt>
      <trkpt lat="47.01804" lon="-1.83525">
        <ele>13.49</ele>
        <time>2020-03-07T10:48:46Z</time>
      </trkpt>
      <trkpt lat="47.01792" lon="-1.83529">
        <ele>13.35</ele>
        <time>2020-03-07T10:48:48Z</time>
      </trkpt>
      <trkpt lat="47.01779" lon="-1.83532">
        <ele>12.76</ele>
        <time>2020-03-07T10:48:50Z</time>
      </trkpt>
      <trkpt lat="47.01767" lon="-1.83536">
        <ele>11.63</ele>
        <time>2020-03-07T10:48:52Z</time>
      </trkpt>
      <trkpt lat="47.01754" lon="-1.83543">
        <ele>11.12</ele>
        <time>2020-03-07T10:48:54Z</time>
      </trkpt>
      <trkpt lat="47.01744" lon="-1.83553">
        <ele>11.07</ele>
        <time>2020-03-07T10:48:56Z</time>
      </trkpt>
      <trkpt lat="47.01735" lon="-1.83565">
        <ele>11.92</ele>
        <time>2020-03-07T10:48:58Z</time>
      </trkpt>
      <trkpt lat="47.01729" lon="-1.83579">
        <ele>11.24</ele>
        <time>2020-03-07T10:49:00Z</time>
      </trkpt>
      <trkpt lat="47.01722" lon="-1.83592">
        <ele>11.31</ele>
        <time>2020-03-07T10:49:02Z</time>
      </trkpt>
      <trkpt lat="47.01713" lon="-1.83608">
        <ele>11.67</ele>
        <time>2020-03-07T10:49:04Z</time>
      </trkpt>
      <trkpt lat="47.01706" lon="-1.83622">
        <ele>11.83</ele>
        <time>2020-03-07T10:49:06Z</time>
      </trkpt>
      <trkpt lat="47.01698" lon="-1.83637">
        <ele>11.06</ele>
        <time>2020-03-07T10:49:08Z</time>
      </trkpt>
      <trkpt lat="47.01692" lon="-1.8365">
        <ele>10.41</ele>
        <time>2020-03-07T10:49:10Z</time>
      </trkpt>
      <trkpt lat="47.01684" lon="-1.83661">
        <ele>10.79</ele>
        <time>2020-03-07T10:49:12Z</time>
      </trkpt>
      <trkpt lat="47.01676" lon="-1.83673">
        <ele>12.29</ele>
        <time>2020-03-07T10:49:14Z</time>
      </trkpt>
      <trkpt lat="47.01665" lon="-1.83687">
        <ele>14.29</ele>
        <time>2020-03-07T10:49:16Z</time>
      </trkpt>
      <trkpt lat="47.01656" lon="-1.83699">
        <ele>14.75</ele>
        <time>2020-03-07T10:49:18Z</time>
      </trkpt>
      <trkpt lat="47.01645" lon="-1.83711">
        <ele>13.08</ele>
        <time>2020-03-07T10:49:20Z</time>
      </trkpt>
      <trkpt lat="47.01634" lon="-1.83725">
        <ele>11.48</ele>
        <time>2020-03-07T10:49:22Z</time>
      </trkpt>
      <trkpt lat="47.01626" lon="-1.83735">
        <ele>10.43</ele>
        <time>2020-03-07T10:49:24Z</time>
      </trkpt>
      <trkpt lat="47.01615" lon="-1.83746">
        <ele>10.09</ele>
        <time>2020-03-07T10:49:26Z</time>
      </trkpt>
      <trkpt lat="47.01604" lon="-1.83759">
        <ele>8.87</ele>
        <time>2020-03-07T10:49:28Z</time>
      </trkpt>
      <trkpt lat="47.01594" lon="-1.83771">
        <ele>8.68</ele>
        <time>2020-03-07T10:49:30Z</time>
      </trkpt>
      <trkpt lat="47.01583" lon="-1.83784">
        <ele>8.83</ele>
        <time>2020-03-07T10:49:32Z</time>
      </trkpt>
      <trkpt lat="47.01574" lon="-1.83795">
        <ele>9.04</ele>
        <time>2020-03-07T10:49:34Z</time>
      </trkpt>
      <trkpt lat="47.01564" lon="-1.83808">
        <ele>9.31</ele>
        <time>2020-03-07T10:49:36Z</time>
      </trkpt>
      <trkpt lat="47.01554" lon="-1.83821">
        <ele>7.09</ele>
        <time>2020-03-07T10:49:38Z</time>
      </trkpt>
      <trkpt lat="47.01545" lon="-1.83834">
        <ele>5.11</ele>
        <time>2020-03-07T10:49:40Z</time>
      </trkpt>
      <trkpt lat="47.01535" lon="-1.83849">
        <ele>4.14</ele>
        <time>2020-03-07T10:49:42Z</time>
      </trkpt>
      <trkpt lat="47.01526" lon="-1.83861">
        <ele>4.57</ele>
        <time>2020-03-07T10:49:44Z</time>
      </trkpt>
      <trkpt lat="47.01518" lon="-1.83875">
        <ele>4.91</ele>
        <time>2020-03-07T10:49:46Z</time>
      </trkpt>
      <trkpt lat="47.01508" lon="-1.8389">
        <ele>4.73</ele>
        <time>2020-03-07T10:49:48Z</time>
      </trkpt>
      <trkpt lat="47.01498" lon="-1.83904">
        <ele>4.4</ele>
        <time>2020-03-07T10:49:50Z</time>
      </trkpt>
      <trkpt lat="47.01489" lon="-1.83919">
        <ele>3.85</ele>
        <time>2020-03-07T10:49:52Z</time>
      </trkpt>
      <trkpt lat="47.01481" lon="-1.83931">
        <ele>5.3</ele>
        <time>2020-03-07T10:49:54Z</time>
      </trkpt>
      <trkpt lat="47.0147" lon="-1.83947">
        <ele>4.63</ele>
        <time>2020-03-07T10:49:56Z</time>
      </trkpt>
      <trkpt lat="47.01459" lon="-1.83962">
        <ele>3.91</ele>
        <time>2020-03-07T10:49:58Z</time>
      </trkpt>
      <trkpt lat="47.01449" lon="-1.83978">
        <ele>3.46</ele>
        <time>2020-03-07T10:50:00Z</time>
      </trkpt>
      <trkpt lat="47.01439" lon="-1.83994">
        <ele>4.8</ele>
        <time>2020-03-07T10:50:02Z</time>
      </trkpt>
      <trkpt lat="47.0143" lon="-1.84006">
        <ele>5.68</ele>
        <time>2020-03-07T10:50:04Z</time>
      </trkpt>
      <trkpt lat="47.01419" lon="-1.84023">
        <ele>6.28</ele>
        <time>2020-03-07T10:50:06Z</time>
      </trkpt>
      <trkpt lat="47.01408" lon="-1.84039">
        <ele>5.84</ele>
        <time>2020-03-07T10:50:08Z</time>
      </trkpt>
      <trkpt lat="47.01398" lon="-1.84054">
        <ele>5.05</ele>
        <time>2020-03-07T10:50:10Z</time>
      </trkpt>
      <trkpt lat="47.01388" lon="-1.84069">
        <ele>4.65</ele>
        <time>2020-03-07T10:50:12Z</time>
      </trkpt>
      <trkpt lat="47.01376" lon="-1.84085">
        <ele>4.16</ele>
        <time>2020-03-07T10:50:14Z</time>
      </trkpt>
      <trkpt lat="47.01364" lon="-1.841">
        <ele>4.35</ele>
        <time>2020-03-07T10:50:16Z</time>
      </trkpt>
      <trkpt lat="47.01354" lon="-1.84112">
        <ele>4.4</ele>
        <time>2020-03-07T10:50:18Z</time>
      </trkpt>
      <trkpt lat="47.01343" lon="-1.84125">
        <ele>4.14</ele>
        <time>2020-03-07T10:50:20Z</time>
      </trkpt>
      <trkpt lat="47.0133" lon="-1.84138">
        <ele>3.87</ele>
        <time>2020-03-07T10:50:22Z</time>
      </trkpt>
      <trkpt lat="47.01318" lon="-1.84152">
        <ele>3.43</ele>
        <time>2020-03-07T10:50:24Z</time>
      </trkpt>
      <trkpt lat="47.01307" lon="-1.84165">
        <ele>2.05</ele>
        <time>2020-03-07T10:50:26Z</time>
      </trkpt>
      <trkpt lat="47.01295" lon="-1.84177">
        <ele>1.96</ele>
        <time>2020-03-07T10:50:28Z</time>
      </trkpt>
      <trkpt lat="47.01285" lon="-1.84188">
        <ele>1.82</ele>
        <time>2020-03-07T10:50:30Z</time>
      </trkpt>
      <trkpt lat="47.01273" lon="-1.84201">
        <ele>1.85</ele>
        <time>2020-03-07T10:50:32Z</time>
      </trkpt>
      <trkpt lat="47.01262" lon="-1.84214">
        <ele>1.47</ele>
        <time>2020-03-07T10:50:34Z</time>
      </trkpt>
      <trkpt lat="47.01251" lon="-1.84224">
        <ele>0.26</ele>
        <time>2020-03-07T10:50:36Z</time>
      </trkpt>
      <trkpt lat="47.0124" lon="-1.84237">
        <ele>-0.1</ele>
        <time>2020-03-07T10:50:38Z</time>
      </trkpt>
      <trkpt lat="47.01229" lon="-1.84249">
        <ele>0.37</ele>
        <time>2020-03-07T10:50:40Z</time>
      </trkpt>
      <trkpt lat="47.01219" lon="-1.8426">
        <ele>0.83</ele>
        <time>2020-03-07T10:50:42Z</time>
      </trkpt>
      <trkpt lat="47.01207" lon="-1.84273">
        <ele>0.35</ele>
        <time>2020-03-07T10:50:44Z</time>
      </trkpt>
      <trkpt lat="47.01197" lon="-1.84287">
        <ele>0.19</ele>
        <time>2020-03-07T10:50:46Z</time>
      </trkpt>
      <trkpt lat="47.01188" lon="-1.84299">
        <ele>1.63</ele>
        <time>2020-03-07T10:50:48Z</time>
      </trkpt>
      <trkpt lat="47.01179" lon="-1.84315">
        <ele>2.91</ele>
        <time>2020-03-07T10:50:50Z</time>
      </trkpt>
      <trkpt lat="47.01172" lon="-1.84332">
        <ele>3.64</ele>
        <time>2020-03-07T10:50:52Z</time>
      </trkpt>
      <trkpt lat="47.01167" lon="-1.84351">
        <ele>3.81</ele>
        <time>2020-03-07T10:50:54Z</time>
      </trkpt>
      <trkpt lat="47.01162" lon="-1.84371">
        <ele>2.97</ele>
        <time>2020-03-07T10:50:56Z</time>
      </trkpt>
      <trkpt lat="47.01159" lon="-1.84388">
        <ele>2.12</ele>
        <time>2020-03-07T10:50:58Z</time>
      </trkpt>
      <trkpt lat="47.01155" lon="-1.84406">
        <ele>2.12</ele>
        <time>2020-03-07T10:51:00Z</time>
      </trkpt>
      <trkpt lat="47.01152" lon="-1.84423">
        <ele>2.81</ele>
        <time>2020-03-07T10:51:02Z</time>
      </trkpt>
      <trkpt lat="47.01148" lon="-1.84441">
        <ele>2.64</ele>
        <time>2020-03-07T10:51:04Z</time>
      </trkpt>
      <trkpt lat="47.01143" lon="-1.84462">
        <ele>2.19</ele>
        <time>2020-03-07T10:51:06Z</time>
      </trkpt>
      <trkpt lat="47.01139" lon="-1.84479">
        <ele>1.64</ele>
        <time>2020-03-07T10:51:08Z</time>
      </trkpt>
      <trkpt lat="47.01135" lon="-1.84498">
        <ele>1.91</ele>
        <time>2020-03-07T10:51:10Z</time>
      </trkpt>
      <trkpt lat="47.01129" lon="-1.84517">
        <ele>2.24</ele>
        <time>2020-03-07T10:51:12Z</time>
      </trkpt>
      <trkpt lat="47.01125" lon="-1.84532">
        <ele>3</ele>
        <time>2020-03-07T10:51:14Z</time>
      </trkpt>
      <trkpt lat="47.01116" lon="-1.84548">
        <ele>4.03</ele>
        <time>2020-03-07T10:51:16Z</time>
      </trkpt>
      <trkpt lat="47.01106" lon="-1.84564">
        <ele>4.53</ele>
        <time>2020-03-07T10:51:18Z</time>
      </trkpt>
      <trkpt lat="47.01095" lon="-1.84576">
        <ele>5.23</ele>
        <time>2020-03-07T10:51:20Z</time>
      </trkpt>
      <trkpt lat="47.01085" lon="-1.84587">
        <ele>5.38</ele>
        <time>2020-03-07T10:51:22Z</time>
      </trkpt>
      <trkpt lat="47.01074" lon="-1.84599">
        <ele>5.14</ele>
        <time>2020-03-07T10:51:24Z</time>
      </trkpt>
      <trkpt lat="47.01063" lon="-1.84611">
        <ele>4.3</ele>
        <time>2020-03-07T10:51:26Z</time>
      </trkpt>
      <trkpt lat="47.01053" lon="-1.84621">
        <ele>3.21</ele>
        <time>2020-03-07T10:51:28Z</time>
      </trkpt>
      <trkpt lat="47.01042" lon="-1.84633">
        <ele>1.88</ele>
        <time>2020-03-07T10:51:30Z</time>
      </trkpt>
      <trkpt lat="47.01033" lon="-1.84644">
        <ele>1.54</ele>
        <time>2020-03-07T10:51:32Z</time>
      </trkpt>
      <trkpt lat="47.01023" lon="-1.84654">
        <ele>2.34</ele>
        <time>2020-03-07T10:51:34Z</time>
      </trkpt>
      <trkpt lat="47.01013" lon="-1.84662">
        <ele>2.56</ele>
        <time>2020-03-07T10:51:36Z</time>
      </trkpt>
      <trkpt lat="47.01001" lon="-1.84671">
        <ele>2.05</ele>
        <time>2020-03-07T10:51:38Z</time>
      </trkpt>
      <trkpt lat="47.00991" lon="-1.84677">
        <ele>1.81</ele>
        <time>2020-03-07T10:51:39Z</time>
      </trkpt>
      <trkpt lat="47.00979" lon="-1.84684">
        <ele>1.04</ele>
        <time>2020-03-07T10:51:41Z</time>
      </trkpt>
      <trkpt lat="47.00968" lon="-1.84692">
        <ele>0.4</ele>
        <time>2020-03-07T10:51:43Z</time>
      </trkpt>
      <trkpt lat="47.00957" lon="-1.84698">
        <ele>0.53</ele>
        <time>2020-03-07T10:51:45Z</time>
      </trkpt>
      <trkpt lat="47.00946" lon="-1.84703">
        <ele>0.79</ele>
        <time>2020-03-07T10:51:47Z</time>
      </trkpt>
      <trkpt lat="47.00936" lon="-1.84708">
        <ele>0.94</ele>
        <time>2020-03-07T10:51:49Z</time>
      </trkpt>
      <trkpt lat="47.00924" lon="-1.84715">
        <ele>0.46</ele>
        <time>2020-03-07T10:51:51Z</time>
      </trkpt>
      <trkpt lat="47.00913" lon="-1.84721">
        <ele>0.54</ele>
        <time>2020-03-07T10:51:53Z</time>
      </trkpt>
      <trkpt lat="47.00901" lon="-1.84725">
        <ele>1.17</ele>
        <time>2020-03-07T10:51:56Z</time>
      </trkpt>
      <trkpt lat="47.00891" lon="-1.84733">
        <ele>1.68</ele>
        <time>2020-03-07T10:52:00Z</time>
      </trkpt>
      <trkpt lat="47.00882" lon="-1.84741">
        <ele>0.83</ele>
        <time>2020-03-07T10:52:09Z</time>
      </trkpt>
      <trkpt lat="47.00872" lon="-1.84751">
        <ele>0.22</ele>
        <time>2020-03-07T10:52:12Z</time>
      </trkpt>
      <trkpt lat="47.00863" lon="-1.8476">
        <ele>0.3</ele>
        <time>2020-03-07T10:52:15Z</time>
      </trkpt>
      <trkpt lat="47.00854" lon="-1.84768">
        <ele>-1.09</ele>
        <time>2020-03-07T10:52:17Z</time>
      </trkpt>
      <trkpt lat="47.00846" lon="-1.84774">
        <ele>-1.06</ele>
        <time>2020-03-07T10:52:19Z</time>
      </trkpt>
      <trkpt lat="47.00836" lon="-1.84781">
        <ele>-1.15</ele>
        <time>2020-03-07T10:52:21Z</time>
      </trkpt>
      <trkpt lat="47.00824" lon="-1.84788">
        <ele>-2.14</ele>
        <time>2020-03-07T10:52:23Z</time>
      </trkpt>
      <trkpt lat="47.00815" lon="-1.84793">
        <ele>-2.45</ele>
        <time>2020-03-07T10:52:25Z</time>
      </trkpt>
      <trkpt lat="47.00803" lon="-1.84799">
        <ele>-2.52</ele>
        <time>2020-03-07T10:52:27Z</time>
      </trkpt>
      <trkpt lat="47.00793" lon="-1.84805">
        <ele>-3</ele>
        <time>2020-03-07T10:52:29Z</time>
      </trkpt>
      <trkpt lat="47.00782" lon="-1.8481">
        <ele>-2.84</ele>
        <time>2020-03-07T10:52:31Z</time>
      </trkpt>
      <trkpt lat="47.00771" lon="-1.84814">
        <ele>-0.85</ele>
        <time>2020-03-07T10:52:33Z</time>
      </trkpt>
      <trkpt lat="47.0076" lon="-1.84821">
        <ele>-0.6</ele>
        <time>2020-03-07T10:52:35Z</time>
      </trkpt>
      <trkpt lat="47.00749" lon="-1.84827">
        <ele>0.39</ele>
        <time>2020-03-07T10:52:37Z</time>
      </trkpt>
      <trkpt lat="47.00737" lon="-1.84832">
        <ele>-0.29</ele>
        <time>2020-03-07T10:52:39Z</time>
      </trkpt>
      <trkpt lat="47.00726" lon="-1.84838">
        <ele>-0.66</ele>
        <time>2020-03-07T10:52:41Z</time>
      </trkpt>
      <trkpt lat="47.00716" lon="-1.84843">
        <ele>-1.74</ele>
        <time>2020-03-07T10:52:43Z</time>
      </trkpt>
      <trkpt lat="47.00703" lon="-1.84848">
        <ele>-2.04</ele>
        <time>2020-03-07T10:52:45Z</time>
      </trkpt>
      <trkpt lat="47.00692" lon="-1.84854">
        <ele>-1.72</ele>
        <time>2020-03-07T10:52:47Z</time>
      </trkpt>
      <trkpt lat="47.00683" lon="-1.8486">
        <ele>-1.31</ele>
        <time>2020-03-07T10:52:49Z</time>
      </trkpt>
      <trkpt lat="47.00672" lon="-1.84867">
        <ele>-1.23</ele>
        <time>2020-03-07T10:52:51Z</time>
      </trkpt>
      <trkpt lat="47.00661" lon="-1.84874">
        <ele>-1.28</ele>
        <time>2020-03-07T10:52:53Z</time>
      </trkpt>
      <trkpt lat="47.00652" lon="-1.84879">
        <ele>-0.87</ele>
        <time>2020-03-07T10:52:55Z</time>
      </trkpt>
      <trkpt lat="47.00638" lon="-1.84885">
        <ele>-0.94</ele>
        <time>2020-03-07T10:52:57Z</time>
      </trkpt>
      <trkpt lat="47.00627" lon="-1.84892">
        <ele>-0.16</ele>
        <time>2020-03-07T10:52:59Z</time>
      </trkpt>
      <trkpt lat="47.00615" lon="-1.849">
        <ele>0.53</ele>
        <time>2020-03-07T10:53:01Z</time>
      </trkpt>
      <trkpt lat="47.00603" lon="-1.8491">
        <ele>1.3</ele>
        <time>2020-03-07T10:53:03Z</time>
      </trkpt>
      <trkpt lat="47.00593" lon="-1.84921">
        <ele>0.45</ele>
        <time>2020-03-07T10:53:05Z</time>
      </trkpt>
      <trkpt lat="47.00584" lon="-1.84934">
        <ele>-0.32</ele>
        <time>2020-03-07T10:53:07Z</time>
      </trkpt>
      <trkpt lat="47.00575" lon="-1.84946">
        <ele>-0.42</ele>
        <time>2020-03-07T10:53:09Z</time>
      </trkpt>
      <trkpt lat="47.00566" lon="-1.84957">
        <ele>0.03</ele>
        <time>2020-03-07T10:53:11Z</time>
      </trkpt>
      <trkpt lat="47.00557" lon="-1.8497">
        <ele>1.06</ele>
        <time>2020-03-07T10:53:13Z</time>
      </trkpt>
      <trkpt lat="47.00549" lon="-1.84981">
        <ele>1.32</ele>
        <time>2020-03-07T10:53:15Z</time>
      </trkpt>
      <trkpt lat="47.00538" lon="-1.84995">
        <ele>0.75</ele>
        <time>2020-03-07T10:53:17Z</time>
      </trkpt>
      <trkpt lat="47.00531" lon="-1.85006">
        <ele>0.5</ele>
        <time>2020-03-07T10:53:19Z</time>
      </trkpt>
      <trkpt lat="47.00521" lon="-1.85018">
        <ele>0.57</ele>
        <time>2020-03-07T10:53:21Z</time>
      </trkpt>
      <trkpt lat="47.00513" lon="-1.8503">
        <ele>1.46</ele>
        <time>2020-03-07T10:53:23Z</time>
      </trkpt>
      <trkpt lat="47.00503" lon="-1.85041">
        <ele>1.67</ele>
        <time>2020-03-07T10:53:25Z</time>
      </trkpt>
      <trkpt lat="47.00494" lon="-1.85052">
        <ele>1.43</ele>
        <time>2020-03-07T10:53:27Z</time>
      </trkpt>
      <trkpt lat="47.00484" lon="-1.85062">
        <ele>1.35</ele>
        <time>2020-03-07T10:53:29Z</time>
      </trkpt>
      <trkpt lat="47.00473" lon="-1.85074">
        <ele>-0.09</ele>
        <time>2020-03-07T10:53:31Z</time>
      </trkpt>
      <trkpt lat="47.00463" lon="-1.85083">
        <ele>-1.6</ele>
        <time>2020-03-07T10:53:33Z</time>
      </trkpt>
      <trkpt lat="47.00454" lon="-1.8509">
        <ele>-2.36</ele>
        <time>2020-03-07T10:53:35Z</time>
      </trkpt>
      <trkpt lat="47.00443" lon="-1.85098">
        <ele>-2.5</ele>
        <time>2020-03-07T10:53:37Z</time>
      </trkpt>
      <trkpt lat="47.00434" lon="-1.85107">
        <ele>-1.73</ele>
        <time>2020-03-07T10:53:39Z</time>
      </trkpt>
      <trkpt lat="47.00424" lon="-1.85114">
        <ele>-0.61</ele>
        <time>2020-03-07T10:53:41Z</time>
      </trkpt>
      <trkpt lat="47.00414" lon="-1.85124">
        <ele>-0.53</ele>
        <time>2020-03-07T10:53:43Z</time>
      </trkpt>
      <trkpt lat="47.00403" lon="-1.85133">
        <ele>-0.93</ele>
        <time>2020-03-07T10:53:45Z</time>
      </trkpt>
      <trkpt lat="47.00393" lon="-1.85141">
        <ele>-0.65</ele>
        <time>2020-03-07T10:53:47Z</time>
      </trkpt>
      <trkpt lat="47.00382" lon="-1.85148">
        <ele>-1.69</ele>
        <time>2020-03-07T10:53:49Z</time>
      </trkpt>
      <trkpt lat="47.00371" lon="-1.85158">
        <ele>-2.18</ele>
        <time>2020-03-07T10:53:51Z</time>
      </trkpt>
      <trkpt lat="47.00363" lon="-1.85166">
        <ele>-2.65</ele>
        <time>2020-03-07T10:53:53Z</time>
      </trkpt>
      <trkpt lat="47.00352" lon="-1.85176">
        <ele>-4</ele>
        <time>2020-03-07T10:53:55Z</time>
      </trkpt>
      <trkpt lat="47.00341" lon="-1.85184">
        <ele>-3.84</ele>
        <time>2020-03-07T10:53:57Z</time>
      </trkpt>
      <trkpt lat="47.00332" lon="-1.85192">
        <ele>-3.43</ele>
        <time>2020-03-07T10:53:59Z</time>
      </trkpt>
      <trkpt lat="47.00321" lon="-1.85202">
        <ele>-3.03</ele>
        <time>2020-03-07T10:54:01Z</time>
      </trkpt>
      <trkpt lat="47.0031" lon="-1.85211">
        <ele>-3.03</ele>
        <time>2020-03-07T10:54:03Z</time>
      </trkpt>
      <trkpt lat="47.00301" lon="-1.85219">
        <ele>-2.92</ele>
        <time>2020-03-07T10:54:05Z</time>
      </trkpt>
      <trkpt lat="47.00291" lon="-1.85227">
        <ele>-3.07</ele>
        <time>2020-03-07T10:54:07Z</time>
      </trkpt>
      <trkpt lat="47.00281" lon="-1.85235">
        <ele>-2.66</ele>
        <time>2020-03-07T10:54:09Z</time>
      </trkpt>
      <trkpt lat="47.0027" lon="-1.85243">
        <ele>-1.94</ele>
        <time>2020-03-07T10:54:11Z</time>
      </trkpt>
      <trkpt lat="47.00259" lon="-1.85253">
        <ele>-0.54</ele>
        <time>2020-03-07T10:54:13Z</time>
      </trkpt>
      <trkpt lat="47.00249" lon="-1.85262">
        <ele>-0.23</ele>
        <time>2020-03-07T10:54:15Z</time>
      </trkpt>
      <trkpt lat="47.00237" lon="-1.85272">
        <ele>0.03</ele>
        <time>2020-03-07T10:54:17Z</time>
      </trkpt>
      <trkpt lat="47.00227" lon="-1.85282">
        <ele>0.66</ele>
        <time>2020-03-07T10:54:19Z</time>
      </trkpt>
      <trkpt lat="47.00218" lon="-1.85293">
        <ele>0.97</ele>
        <time>2020-03-07T10:54:21Z</time>
      </trkpt>
      <trkpt lat="47.00208" lon="-1.85308">
        <ele>1.59</ele>
        <time>2020-03-07T10:54:23Z</time>
      </trkpt>
      <trkpt lat="47.00201" lon="-1.85324">
        <ele>2.72</ele>
        <time>2020-03-07T10:54:25Z</time>
      </trkpt>
      <trkpt lat="47.00193" lon="-1.8534">
        <ele>3.23</ele>
        <time>2020-03-07T10:54:27Z</time>
      </trkpt>
      <trkpt lat="47.00186" lon="-1.85355">
        <ele>3.66</ele>
        <time>2020-03-07T10:54:29Z</time>
      </trkpt>
      <trkpt lat="47.00179" lon="-1.85369">
        <ele>3.77</ele>
        <time>2020-03-07T10:54:31Z</time>
      </trkpt>
      <trkpt lat="47.00173" lon="-1.85384">
        <ele>3.76</ele>
        <time>2020-03-07T10:54:33Z</time>
      </trkpt>
      <trkpt lat="47.00166" lon="-1.854">
        <ele>3.38</ele>
        <time>2020-03-07T10:54:35Z</time>
      </trkpt>
      <trkpt lat="47.00157" lon="-1.85416">
        <ele>2.94</ele>
        <time>2020-03-07T10:54:37Z</time>
      </trkpt>
      <trkpt lat="47.0015" lon="-1.85426">
        <ele>3.18</ele>
        <time>2020-03-07T10:54:39Z</time>
      </trkpt>
      <trkpt lat="47.00141" lon="-1.85436">
        <ele>3.86</ele>
        <time>2020-03-07T10:54:41Z</time>
      </trkpt>
      <trkpt lat="47.00131" lon="-1.85444">
        <ele>3.54</ele>
        <time>2020-03-07T10:54:43Z</time>
      </trkpt>
      <trkpt lat="47.00118" lon="-1.85451">
        <ele>1.75</ele>
        <time>2020-03-07T10:54:45Z</time>
      </trkpt>
      <trkpt lat="47.00104" lon="-1.8545">
        <ele>0.12</ele>
        <time>2020-03-07T10:54:47Z</time>
      </trkpt>
      <trkpt lat="47.00091" lon="-1.85442">
        <ele>-0.03</ele>
        <time>2020-03-07T10:54:49Z</time>
      </trkpt>
      <trkpt lat="47.00081" lon="-1.85432">
        <ele>-0.21</ele>
        <time>2020-03-07T10:54:51Z</time>
      </trkpt>
      <trkpt lat="47.0007" lon="-1.85418">
        <ele>-0.52</ele>
        <time>2020-03-07T10:54:53Z</time>
      </trkpt>
      <trkpt lat="47.00061" lon="-1.85405">
        <ele>-0.89</ele>
        <time>2020-03-07T10:54:55Z</time>
      </trkpt>
      <trkpt lat="47.00052" lon="-1.85393">
        <ele>-2.41</ele>
        <time>2020-03-07T10:54:57Z</time>
      </trkpt>
      <trkpt lat="47.00044" lon="-1.85382">
        <ele>-3.39</ele>
        <time>2020-03-07T10:54:59Z</time>
      </trkpt>
      <trkpt lat="47.00032" lon="-1.85371">
        <ele>-3.92</ele>
        <time>2020-03-07T10:55:01Z</time>
      </trkpt>
      <trkpt lat="47.00021" lon="-1.85368">
        <ele>-3.78</ele>
        <time>2020-03-07T10:55:03Z</time>
      </trkpt>
      <trkpt lat="47.00008" lon="-1.85365">
        <ele>-2.21</ele>
        <time>2020-03-07T10:55:05Z</time>
      </trkpt>
      <trkpt lat="46.99998" lon="-1.85364">
        <ele>-1.29</ele>
        <time>2020-03-07T10:55:07Z</time>
      </trkpt>
      <trkpt lat="46.99986" lon="-1.8536">
        <ele>-0.35</ele>
        <time>2020-03-07T10:55:09Z</time>
      </trkpt>
      <trkpt lat="46.99977" lon="-1.85347">
        <ele>0.29</ele>
        <time>2020-03-07T10:55:11Z</time>
      </trkpt>
      <trkpt lat="46.99971" lon="-1.85332">
        <ele>0.98</ele>
        <time>2020-03-07T10:55:13Z</time>
      </trkpt>
      <trkpt lat="46.99964" lon="-1.85316">
        <ele>0.95</ele>
        <time>2020-03-07T10:55:15Z</time>
      </trkpt>
      <trkpt lat="46.99957" lon="-1.85303">
        <ele>1.02</ele>
        <time>2020-03-07T10:55:17Z</time>
      </trkpt>
      <trkpt lat="46.99949" lon="-1.85289">
        <ele>0.41</ele>
        <time>2020-03-07T10:55:19Z</time>
      </trkpt>
      <trkpt lat="46.9994" lon="-1.85272">
        <ele>-0.58</ele>
        <time>2020-03-07T10:55:21Z</time>
      </trkpt>
      <trkpt lat="46.99932" lon="-1.85255">
        <ele>-1.33</ele>
        <time>2020-03-07T10:55:23Z</time>
      </trkpt>
      <trkpt lat="46.99926" lon="-1.85241">
        <ele>-1.14</ele>
        <time>2020-03-07T10:55:25Z</time>
      </trkpt>
      <trkpt lat="46.99919" lon="-1.85223">
        <ele>-0.47</ele>
        <time>2020-03-07T10:55:27Z</time>
      </trkpt>
      <trkpt lat="46.99915" lon="-1.85204">
        <ele>0.36</ele>
        <time>2020-03-07T10:55:29Z</time>
      </trkpt>
      <trkpt lat="46.99911" lon="-1.85186">
        <ele>0.22</ele>
        <time>2020-03-07T10:55:31Z</time>
      </trkpt>
      <trkpt lat="46.99909" lon="-1.85167">
        <ele>-0.75</ele>
        <time>2020-03-07T10:55:33Z</time>
      </trkpt>
      <trkpt lat="46.99907" lon="-1.85151">
        <ele>-1.58</ele>
        <time>2020-03-07T10:55:35Z</time>
      </trkpt>
      <trkpt lat="46.99905" lon="-1.8513">
        <ele>-2.01</ele>
        <time>2020-03-07T10:55:37Z</time>
      </trkpt>
      <trkpt lat="46.99902" lon="-1.85112">
        <ele>-2.26</ele>
        <time>2020-03-07T10:55:39Z</time>
      </trkpt>
      <trkpt lat="46.999" lon="-1.85094">
        <ele>-1.46</ele>
        <time>2020-03-07T10:55:41Z</time>
      </trkpt>
      <trkpt lat="46.99898" lon="-1.85071">
        <ele>-1.28</ele>
        <time>2020-03-07T10:55:43Z</time>
      </trkpt>
      <trkpt lat="46.99898" lon="-1.85052">
        <ele>-0.08</ele>
        <time>2020-03-07T10:55:45Z</time>
      </trkpt>
      <trkpt lat="46.99898" lon="-1.85031">
        <ele>0.72</ele>
        <time>2020-03-07T10:55:47Z</time>
      </trkpt>
      <trkpt lat="46.99897" lon="-1.85013">
        <ele>0.43</ele>
        <time>2020-03-07T10:55:49Z</time>
      </trkpt>
      <trkpt lat="46.99897" lon="-1.84992">
        <ele>-0.49</ele>
        <time>2020-03-07T10:55:51Z</time>
      </trkpt>
      <trkpt lat="46.99896" lon="-1.84976">
        <ele>0.46</ele>
        <time>2020-03-07T10:55:53Z</time>
      </trkpt>
      <trkpt lat="46.99896" lon="-1.84958">
        <ele>2.33</ele>
        <time>2020-03-07T10:55:55Z</time>
      </trkpt>
      <trkpt lat="46.99895" lon="-1.84938">
        <ele>3.65</ele>
        <time>2020-03-07T10:55:57Z</time>
      </trkpt>
      <trkpt lat="46.99894" lon="-1.84921">
        <ele>5.32</ele>
        <time>2020-03-07T10:55:59Z</time>
      </trkpt>
      <trkpt lat="46.99893" lon="-1.84904">
        <ele>4.79</ele>
        <time>2020-03-07T10:56:01Z</time>
      </trkpt>
      <trkpt lat="46.99893" lon="-1.84883">
        <ele>3.47</ele>
        <time>2020-03-07T10:56:03Z</time>
      </trkpt>
      <trkpt lat="46.99892" lon="-1.84863">
        <ele>2.42</ele>
        <time>2020-03-07T10:56:05Z</time>
      </trkpt>
      <trkpt lat="46.99889" lon="-1.84844">
        <ele>2.14</ele>
        <time>2020-03-07T10:56:07Z</time>
      </trkpt>
      <trkpt lat="46.99886" lon="-1.84827">
        <ele>2.75</ele>
        <time>2020-03-07T10:56:09Z</time>
      </trkpt>
      <trkpt lat="46.99882" lon="-1.84808">
        <ele>2.08</ele>
        <time>2020-03-07T10:56:11Z</time>
      </trkpt>
      <trkpt lat="46.99876" lon="-1.84792">
        <ele>1.57</ele>
        <time>2020-03-07T10:56:13Z</time>
      </trkpt>
      <trkpt lat="46.9987" lon="-1.84774">
        <ele>1.27</ele>
        <time>2020-03-07T10:56:15Z</time>
      </trkpt>
      <trkpt lat="46.99864" lon="-1.84756">
        <ele>0.91</ele>
        <time>2020-03-07T10:56:17Z</time>
      </trkpt>
      <trkpt lat="46.99857" lon="-1.84741">
        <ele>0.69</ele>
        <time>2020-03-07T10:56:19Z</time>
      </trkpt>
      <trkpt lat="46.99851" lon="-1.84727">
        <ele>2.92</ele>
        <time>2020-03-07T10:56:21Z</time>
      </trkpt>
      <trkpt lat="46.99844" lon="-1.84709">
        <ele>3.56</ele>
        <time>2020-03-07T10:56:23Z</time>
      </trkpt>
      <trkpt lat="46.99839" lon="-1.84695">
        <ele>4.08</ele>
        <time>2020-03-07T10:56:25Z</time>
      </trkpt>
      <trkpt lat="46.99832" lon="-1.84679">
        <ele>4.98</ele>
        <time>2020-03-07T10:56:27Z</time>
      </trkpt>
      <trkpt lat="46.99826" lon="-1.84664">
        <ele>5.01</ele>
        <time>2020-03-07T10:56:29Z</time>
      </trkpt>
      <trkpt lat="46.9982" lon="-1.84646">
        <ele>4.69</ele>
        <time>2020-03-07T10:56:31Z</time>
      </trkpt>
      <trkpt lat="46.99814" lon="-1.84631">
        <ele>4.59</ele>
        <time>2020-03-07T10:56:33Z</time>
      </trkpt>
      <trkpt lat="46.9981" lon="-1.84614">
        <ele>3.77</ele>
        <time>2020-03-07T10:56:35Z</time>
      </trkpt>
      <trkpt lat="46.99806" lon="-1.84597">
        <ele>3.13</ele>
        <time>2020-03-07T10:56:37Z</time>
      </trkpt>
      <trkpt lat="46.99803" lon="-1.84581">
        <ele>3.57</ele>
        <time>2020-03-07T10:56:39Z</time>
      </trkpt>
      <trkpt lat="46.998" lon="-1.84562">
        <ele>3.71</ele>
        <time>2020-03-07T10:56:41Z</time>
      </trkpt>
      <trkpt lat="46.99797" lon="-1.84546">
        <ele>3.23</ele>
        <time>2020-03-07T10:56:43Z</time>
      </trkpt>
      <trkpt lat="46.99793" lon="-1.84528">
        <ele>3.37</ele>
        <time>2020-03-07T10:56:45Z</time>
      </trkpt>
      <trkpt lat="46.99791" lon="-1.84513">
        <ele>4.31</ele>
        <time>2020-03-07T10:56:47Z</time>
      </trkpt>
      <trkpt lat="46.99788" lon="-1.84494">
        <ele>4.7</ele>
        <time>2020-03-07T10:56:49Z</time>
      </trkpt>
      <trkpt lat="46.99785" lon="-1.84475">
        <ele>5.21</ele>
        <time>2020-03-07T10:56:51Z</time>
      </trkpt>
      <trkpt lat="46.99781" lon="-1.84455">
        <ele>4.86</ele>
        <time>2020-03-07T10:56:53Z</time>
      </trkpt>
      <trkpt lat="46.99777" lon="-1.84435">
        <ele>4.54</ele>
        <time>2020-03-07T10:56:55Z</time>
      </trkpt>
      <trkpt lat="46.99774" lon="-1.84419">
        <ele>5.06</ele>
        <time>2020-03-07T10:56:57Z</time>
      </trkpt>
      <trkpt lat="46.99771" lon="-1.84401">
        <ele>4.81</ele>
        <time>2020-03-07T10:56:59Z</time>
      </trkpt>
      <trkpt lat="46.99767" lon="-1.84383">
        <ele>3.39</ele>
        <time>2020-03-07T10:57:01Z</time>
      </trkpt>
      <trkpt lat="46.99764" lon="-1.84367">
        <ele>1.57</ele>
        <time>2020-03-07T10:57:03Z</time>
      </trkpt>
      <trkpt lat="46.9976" lon="-1.84347">
        <ele>0.15</ele>
        <time>2020-03-07T10:57:05Z</time>
      </trkpt>
      <trkpt lat="46.99758" lon="-1.8433">
        <ele>0.55</ele>
        <time>2020-03-07T10:57:07Z</time>
      </trkpt>
      <trkpt lat="46.99756" lon="-1.84309">
        <ele>0.79</ele>
        <time>2020-03-07T10:57:09Z</time>
      </trkpt>
      <trkpt lat="46.99753" lon="-1.84292">
        <ele>1.53</ele>
        <time>2020-03-07T10:57:11Z</time>
      </trkpt>
      <trkpt lat="46.99752" lon="-1.84273">
        <ele>1.8</ele>
        <time>2020-03-07T10:57:13Z</time>
      </trkpt>
      <trkpt lat="46.9975" lon="-1.84254">
        <ele>2.87</ele>
        <time>2020-03-07T10:57:15Z</time>
      </trkpt>
      <trkpt lat="46.99749" lon="-1.84237">
        <ele>3.72</ele>
        <time>2020-03-07T10:57:17Z</time>
      </trkpt>
      <trkpt lat="46.99747" lon="-1.84219">
        <ele>4.07</ele>
        <time>2020-03-07T10:57:19Z</time>
      </trkpt>
      <trkpt lat="46.99744" lon="-1.84198">
        <ele>3.24</ele>
        <time>2020-03-07T10:57:21Z</time>
      </trkpt>
      <trkpt lat="46.99739" lon="-1.84186">
        <ele>2.83</ele>
        <time>2020-03-07T10:57:23Z</time>
      </trkpt>
      <trkpt lat="46.99728" lon="-1.84179">
        <ele>1.99</ele>
        <time>2020-03-07T10:57:25Z</time>
      </trkpt>
      <trkpt lat="46.99715" lon="-1.8417">
        <ele>1.1</ele>
        <time>2020-03-07T10:57:27Z</time>
      </trkpt>
      <trkpt lat="46.99705" lon="-1.84165">
        <ele>0.05</ele>
        <time>2020-03-07T10:57:29Z</time>
      </trkpt>
      <trkpt lat="46.99694" lon="-1.8416">
        <ele>-0.37</ele>
        <time>2020-03-07T10:57:31Z</time>
      </trkpt>
      <trkpt lat="46.99682" lon="-1.84154">
        <ele>-0.94</ele>
        <time>2020-03-07T10:57:33Z</time>
      </trkpt>
      <trkpt lat="46.9967" lon="-1.84145">
        <ele>-1.1</ele>
        <time>2020-03-07T10:57:35Z</time>
      </trkpt>
      <trkpt lat="46.9966" lon="-1.84134">
        <ele>-0.82</ele>
        <time>2020-03-07T10:57:37Z</time>
      </trkpt>
      <trkpt lat="46.99651" lon="-1.84123">
        <ele>-0.17</ele>
        <time>2020-03-07T10:57:39Z</time>
      </trkpt>
      <trkpt lat="46.99642" lon="-1.84108">
        <ele>0.94</ele>
        <time>2020-03-07T10:57:42Z</time>
      </trkpt>
      <trkpt lat="46.99637" lon="-1.84096">
        <ele>0.83</ele>
        <time>2020-03-07T10:57:44Z</time>
      </trkpt>
      <trkpt lat="46.99631" lon="-1.84084">
        <ele>-0.92</ele>
        <time>2020-03-07T10:57:46Z</time>
      </trkpt>
      <trkpt lat="46.99625" lon="-1.84067">
        <ele>-1.42</ele>
        <time>2020-03-07T10:57:49Z</time>
      </trkpt>
      <trkpt lat="46.9962" lon="-1.84051">
        <ele>0.21</ele>
        <time>2020-03-07T10:57:52Z</time>
      </trkpt>
      <trkpt lat="46.99618" lon="-1.84038">
        <ele>1.45</ele>
        <time>2020-03-07T10:57:54Z</time>
      </trkpt>
      <trkpt lat="46.99616" lon="-1.84022">
        <ele>2.74</ele>
        <time>2020-03-07T10:57:56Z</time>
      </trkpt>
      <trkpt lat="46.99614" lon="-1.84004">
        <ele>3.5</ele>
        <time>2020-03-07T10:57:59Z</time>
      </trkpt>
      <trkpt lat="46.99611" lon="-1.83989">
        <ele>2.99</ele>
        <time>2020-03-07T10:58:01Z</time>
      </trkpt>
      <trkpt lat="46.99608" lon="-1.83974">
        <ele>1.38</ele>
        <time>2020-03-07T10:58:03Z</time>
      </trkpt>
      <trkpt lat="46.99604" lon="-1.83953">
        <ele>0.88</ele>
        <time>2020-03-07T10:58:06Z</time>
      </trkpt>
      <trkpt lat="46.99598" lon="-1.83937">
        <ele>0.32</ele>
        <time>2020-03-07T10:58:08Z</time>
      </trkpt>
      <trkpt lat="46.99588" lon="-1.83924">
        <ele>-1.06</ele>
        <time>2020-03-07T10:58:10Z</time>
      </trkpt>
      <trkpt lat="46.99575" lon="-1.83916">
        <ele>-1.55</ele>
        <time>2020-03-07T10:58:12Z</time>
      </trkpt>
      <trkpt lat="46.99565" lon="-1.83911">
        <ele>-1.82</ele>
        <time>2020-03-07T10:58:14Z</time>
      </trkpt>
      <trkpt lat="46.99556" lon="-1.83906">
        <ele>-0.72</ele>
        <time>2020-03-07T10:58:16Z</time>
      </trkpt>
      <trkpt lat="46.99547" lon="-1.839">
        <ele>1.35</ele>
        <time>2020-03-07T10:58:18Z</time>
      </trkpt>
      <trkpt lat="46.99536" lon="-1.83894">
        <ele>1.88</ele>
        <time>2020-03-07T10:58:20Z</time>
      </trkpt>
      <trkpt lat="46.99524" lon="-1.83888">
        <ele>1.28</ele>
        <time>2020-03-07T10:58:22Z</time>
      </trkpt>
      <trkpt lat="46.99514" lon="-1.83884">
        <ele>0.69</ele>
        <time>2020-03-07T10:58:24Z</time>
      </trkpt>
      <trkpt lat="46.99502" lon="-1.83877">
        <ele>0.23</ele>
        <time>2020-03-07T10:58:26Z</time>
      </trkpt>
      <trkpt lat="46.99493" lon="-1.83871">
        <ele>-0.49</ele>
        <time>2020-03-07T10:58:28Z</time>
      </trkpt>
      <trkpt lat="46.99484" lon="-1.83864">
        <ele>-0.83</ele>
        <time>2020-03-07T10:58:30Z</time>
      </trkpt>
      <trkpt lat="46.99477" lon="-1.83854">
        <ele>0.79</ele>
        <time>2020-03-07T10:58:32Z</time>
      </trkpt>
      <trkpt lat="46.9947" lon="-1.83841">
        <ele>2.85</ele>
        <time>2020-03-07T10:58:34Z</time>
      </trkpt>
      <trkpt lat="46.99464" lon="-1.83826">
        <ele>4.73</ele>
        <time>2020-03-07T10:58:36Z</time>
      </trkpt>
      <trkpt lat="46.99458" lon="-1.83812">
        <ele>5.24</ele>
        <time>2020-03-07T10:58:38Z</time>
      </trkpt>
      <trkpt lat="46.99452" lon="-1.83797">
        <ele>5.28</ele>
        <time>2020-03-07T10:58:40Z</time>
      </trkpt>
      <trkpt lat="46.99443" lon="-1.83782">
        <ele>6.04</ele>
        <time>2020-03-07T10:58:42Z</time>
      </trkpt>
      <trkpt lat="46.99433" lon="-1.83772">
        <ele>5.53</ele>
        <time>2020-03-07T10:58:44Z</time>
      </trkpt>
      <trkpt lat="46.99422" lon="-1.83764">
        <ele>5.64</ele>
        <time>2020-03-07T10:58:46Z</time>
      </trkpt>
      <trkpt lat="46.9941" lon="-1.83757">
        <ele>4.9</ele>
        <time>2020-03-07T10:58:48Z</time>
      </trkpt>
      <trkpt lat="46.994" lon="-1.83752">
        <ele>2.8</ele>
        <time>2020-03-07T10:58:50Z</time>
      </trkpt>
      <trkpt lat="46.99388" lon="-1.83745">
        <ele>2.28</ele>
        <time>2020-03-07T10:58:52Z</time>
      </trkpt>
      <trkpt lat="46.99379" lon="-1.8374">
        <ele>2.69</ele>
        <time>2020-03-07T10:58:54Z</time>
      </trkpt>
      <trkpt lat="46.99368" lon="-1.83733">
        <ele>2.69</ele>
        <time>2020-03-07T10:58:56Z</time>
      </trkpt>
      <trkpt lat="46.99357" lon="-1.83727">
        <ele>1.75</ele>
        <time>2020-03-07T10:58:58Z</time>
      </trkpt>
      <trkpt lat="46.99346" lon="-1.8372">
        <ele>1.23</ele>
        <time>2020-03-07T10:59:00Z</time>
      </trkpt>
      <trkpt lat="46.99336" lon="-1.83713">
        <ele>2.04</ele>
        <time>2020-03-07T10:59:02Z</time>
      </trkpt>
      <trkpt lat="46.99326" lon="-1.83707">
        <ele>2.13</ele>
        <time>2020-03-07T10:59:04Z</time>
      </trkpt>
      <trkpt lat="46.99318" lon="-1.83701">
        <ele>1.97</ele>
        <time>2020-03-07T10:59:06Z</time>
      </trkpt>
      <trkpt lat="46.99307" lon="-1.83694">
        <ele>3.58</ele>
        <time>2020-03-07T10:59:08Z</time>
      </trkpt>
      <trkpt lat="46.99296" lon="-1.83684">
        <ele>4.8</ele>
        <time>2020-03-07T10:59:10Z</time>
      </trkpt>
      <trkpt lat="46.99287" lon="-1.83675">
        <ele>5.08</ele>
        <time>2020-03-07T10:59:12Z</time>
      </trkpt>
      <trkpt lat="46.99278" lon="-1.83666">
        <ele>4.73</ele>
        <time>2020-03-07T10:59:14Z</time>
      </trkpt>
      <trkpt lat="46.99268" lon="-1.83656">
        <ele>3.36</ele>
        <time>2020-03-07T10:59:16Z</time>
      </trkpt>
      <trkpt lat="46.9926" lon="-1.83646">
        <ele>3.61</ele>
        <time>2020-03-07T10:59:18Z</time>
      </trkpt>
      <trkpt lat="46.99253" lon="-1.83636">
        <ele>3.64</ele>
        <time>2020-03-07T10:59:20Z</time>
      </trkpt>
      <trkpt lat="46.99245" lon="-1.83626">
        <ele>3.26</ele>
        <time>2020-03-07T10:59:22Z</time>
      </trkpt>
      <trkpt lat="46.99235" lon="-1.83616">
        <ele>3.74</ele>
        <time>2020-03-07T10:59:24Z</time>
      </trkpt>
      <trkpt lat="46.99227" lon="-1.83606">
        <ele>3.66</ele>
        <time>2020-03-07T10:59:26Z</time>
      </trkpt>
      <trkpt lat="46.9922" lon="-1.83595">
        <ele>3.25</ele>
        <time>2020-03-07T10:59:28Z</time>
      </trkpt>
      <trkpt lat="46.99212" lon="-1.83584">
        <ele>2.82</ele>
        <time>2020-03-07T10:59:30Z</time>
      </trkpt>
      <trkpt lat="46.99203" lon="-1.83573">
        <ele>1.5</ele>
        <time>2020-03-07T10:59:32Z</time>
      </trkpt>
      <trkpt lat="46.99195" lon="-1.83563">
        <ele>0.89</ele>
        <time>2020-03-07T10:59:34Z</time>
      </trkpt>
      <trkpt lat="46.99185" lon="-1.8355">
        <ele>2.42</ele>
        <time>2020-03-07T10:59:37Z</time>
      </trkpt>
      <trkpt lat="46.99177" lon="-1.83539">
        <ele>3.67</ele>
        <time>2020-03-07T10:59:39Z</time>
      </trkpt>
      <trkpt lat="46.9917" lon="-1.8353">
        <ele>3.78</ele>
        <time>2020-03-07T10:59:41Z</time>
      </trkpt>
      <trkpt lat="46.99162" lon="-1.83523">
        <ele>4.41</ele>
        <time>2020-03-07T10:59:43Z</time>
      </trkpt>
      <trkpt lat="46.9915" lon="-1.83517">
        <ele>3.87</ele>
        <time>2020-03-07T10:59:45Z</time>
      </trkpt>
      <trkpt lat="46.99144" lon="-1.83504">
        <ele>2.22</ele>
        <time>2020-03-07T10:59:47Z</time>
      </trkpt>
      <trkpt lat="46.99149" lon="-1.83491">
        <ele>1.76</ele>
        <time>2020-03-07T10:59:49Z</time>
      </trkpt>
      <trkpt lat="46.99154" lon="-1.83479">
        <ele>1.87</ele>
        <time>2020-03-07T10:59:51Z</time>
      </trkpt>
      <trkpt lat="46.99157" lon="-1.83465">
        <ele>1.18</ele>
        <time>2020-03-07T10:59:53Z</time>
      </trkpt>
      <trkpt lat="46.9916" lon="-1.83449">
        <ele>0.76</ele>
        <time>2020-03-07T10:59:55Z</time>
      </trkpt>
      <trkpt lat="46.99164" lon="-1.83431">
        <ele>0.51</ele>
        <time>2020-03-07T10:59:57Z</time>
      </trkpt>
      <trkpt lat="46.99166" lon="-1.83417">
        <ele>0.81</ele>
        <time>2020-03-07T10:59:59Z</time>
      </trkpt>
      <trkpt lat="46.9917" lon="-1.834">
        <ele>1.08</ele>
        <time>2020-03-07T11:00:01Z</time>
      </trkpt>
      <trkpt lat="46.99175" lon="-1.83381">
        <ele>2.18</ele>
        <time>2020-03-07T11:00:03Z</time>
      </trkpt>
      <trkpt lat="46.99179" lon="-1.83364">
        <ele>1.18</ele>
        <time>2020-03-07T11:00:05Z</time>
      </trkpt>
      <trkpt lat="46.99184" lon="-1.83347">
        <ele>0.53</ele>
        <time>2020-03-07T11:00:07Z</time>
      </trkpt>
      <trkpt lat="46.99187" lon="-1.83329">
        <ele>0.8</ele>
        <time>2020-03-07T11:00:09Z</time>
      </trkpt>
      <trkpt lat="46.99192" lon="-1.83311">
        <ele>1.43</ele>
        <time>2020-03-07T11:00:11Z</time>
      </trkpt>
      <trkpt lat="46.99195" lon="-1.83294">
        <ele>0.39</ele>
        <time>2020-03-07T11:00:13Z</time>
      </trkpt>
      <trkpt lat="46.992" lon="-1.83276">
        <ele>0.4</ele>
        <time>2020-03-07T11:00:15Z</time>
      </trkpt>
      <trkpt lat="46.99204" lon="-1.83259">
        <ele>0.62</ele>
        <time>2020-03-07T11:00:17Z</time>
      </trkpt>
      <trkpt lat="46.99208" lon="-1.8324">
        <ele>-0.24</ele>
        <time>2020-03-07T11:00:19Z</time>
      </trkpt>
      <trkpt lat="46.99212" lon="-1.83222">
        <ele>-1.22</ele>
        <time>2020-03-07T11:00:21Z</time>
      </trkpt>
      <trkpt lat="46.99215" lon="-1.83204">
        <ele>-3.26</ele>
        <time>2020-03-07T11:00:23Z</time>
      </trkpt>
      <trkpt lat="46.99219" lon="-1.83185">
        <ele>-3.19</ele>
        <time>2020-03-07T11:00:25Z</time>
      </trkpt>
      <trkpt lat="46.99223" lon="-1.83167">
        <ele>-2.89</ele>
        <time>2020-03-07T11:00:27Z</time>
      </trkpt>
      <trkpt lat="46.99228" lon="-1.83147">
        <ele>-2.66</ele>
        <time>2020-03-07T11:00:29Z</time>
      </trkpt>
      <trkpt lat="46.99232" lon="-1.8313">
        <ele>-2.11</ele>
        <time>2020-03-07T11:00:31Z</time>
      </trkpt>
      <trkpt lat="46.99236" lon="-1.83112">
        <ele>-1.72</ele>
        <time>2020-03-07T11:00:33Z</time>
      </trkpt>
      <trkpt lat="46.9924" lon="-1.83094">
        <ele>-2.23</ele>
        <time>2020-03-07T11:00:35Z</time>
      </trkpt>
      <trkpt lat="46.99243" lon="-1.83076">
        <ele>-1.1</ele>
        <time>2020-03-07T11:00:37Z</time>
      </trkpt>
      <trkpt lat="46.99248" lon="-1.83056">
        <ele>0.08</ele>
        <time>2020-03-07T11:00:39Z</time>
      </trkpt>
      <trkpt lat="46.99252" lon="-1.83037">
        <ele>0.41</ele>
        <time>2020-03-07T11:00:41Z</time>
      </trkpt>
      <trkpt lat="46.99256" lon="-1.83018">
        <ele>0.37</ele>
        <time>2020-03-07T11:00:43Z</time>
      </trkpt>
      <trkpt lat="46.9926" lon="-1.83001">
        <ele>-0.64</ele>
        <time>2020-03-07T11:00:45Z</time>
      </trkpt>
      <trkpt lat="46.99264" lon="-1.82982">
        <ele>-0.85</ele>
        <time>2020-03-07T11:00:47Z</time>
      </trkpt>
      <trkpt lat="46.99269" lon="-1.82964">
        <ele>-0.36</ele>
        <time>2020-03-07T11:00:49Z</time>
      </trkpt>
      <trkpt lat="46.99273" lon="-1.82946">
        <ele>0.24</ele>
        <time>2020-03-07T11:00:51Z</time>
      </trkpt>
      <trkpt lat="46.99278" lon="-1.82928">
        <ele>1.23</ele>
        <time>2020-03-07T11:00:53Z</time>
      </trkpt>
      <trkpt lat="46.99282" lon="-1.8291">
        <ele>1.29</ele>
        <time>2020-03-07T11:00:55Z</time>
      </trkpt>
      <trkpt lat="46.99287" lon="-1.8289">
        <ele>2.21</ele>
        <time>2020-03-07T11:00:57Z</time>
      </trkpt>
      <trkpt lat="46.99291" lon="-1.82872">
        <ele>2.62</ele>
        <time>2020-03-07T11:00:59Z</time>
      </trkpt>
      <trkpt lat="46.99294" lon="-1.82855">
        <ele>1.97</ele>
        <time>2020-03-07T11:01:01Z</time>
      </trkpt>
      <trkpt lat="46.99297" lon="-1.82838">
        <ele>2.32</ele>
        <time>2020-03-07T11:01:03Z</time>
      </trkpt>
      <trkpt lat="46.99301" lon="-1.82822">
        <ele>2.63</ele>
        <time>2020-03-07T11:01:05Z</time>
      </trkpt>
      <trkpt lat="46.99305" lon="-1.82803">
        <ele>2.09</ele>
        <time>2020-03-07T11:01:07Z</time>
      </trkpt>
      <trkpt lat="46.99308" lon="-1.82788">
        <ele>1.24</ele>
        <time>2020-03-07T11:01:09Z</time>
      </trkpt>
      <trkpt lat="46.99312" lon="-1.8277">
        <ele>0.47</ele>
        <time>2020-03-07T11:01:11Z</time>
      </trkpt>
      <trkpt lat="46.99316" lon="-1.82748">
        <ele>1.77</ele>
        <time>2020-03-07T11:01:13Z</time>
      </trkpt>
      <trkpt lat="46.99321" lon="-1.8273">
        <ele>3.57</ele>
        <time>2020-03-07T11:01:15Z</time>
      </trkpt>
      <trkpt lat="46.99324" lon="-1.82715">
        <ele>4.8</ele>
        <time>2020-03-07T11:01:17Z</time>
      </trkpt>
      <trkpt lat="46.99328" lon="-1.82697">
        <ele>3.72</ele>
        <time>2020-03-07T11:01:19Z</time>
      </trkpt>
      <trkpt lat="46.99331" lon="-1.8268">
        <ele>2.65</ele>
        <time>2020-03-07T11:01:21Z</time>
      </trkpt>
      <trkpt lat="46.99335" lon="-1.82664">
        <ele>1.83</ele>
        <time>2020-03-07T11:01:23Z</time>
      </trkpt>
      <trkpt lat="46.99339" lon="-1.82647">
        <ele>2.08</ele>
        <time>2020-03-07T11:01:25Z</time>
      </trkpt>
      <trkpt lat="46.99344" lon="-1.82626">
        <ele>1.79</ele>
        <time>2020-03-07T11:01:27Z</time>
      </trkpt>
      <trkpt lat="46.99349" lon="-1.82611">
        <ele>1.89</ele>
        <time>2020-03-07T11:01:29Z</time>
      </trkpt>
      <trkpt lat="46.99355" lon="-1.826">
        <ele>1.78</ele>
        <time>2020-03-07T11:01:31Z</time>
      </trkpt>
      <trkpt lat="46.9936" lon="-1.82588">
        <ele>0.73</ele>
        <time>2020-03-07T11:01:33Z</time>
      </trkpt>
      <trkpt lat="46.99364" lon="-1.82569">
        <ele>-0.75</ele>
        <time>2020-03-07T11:01:35Z</time>
      </trkpt>
      <trkpt lat="46.99365" lon="-1.82552">
        <ele>-1.37</ele>
        <time>2020-03-07T11:01:38Z</time>
      </trkpt>
      <trkpt lat="46.99362" lon="-1.82534">
        <ele>-1.3</ele>
        <time>2020-03-07T11:01:39Z</time>
      </trkpt>
      <trkpt lat="46.99358" lon="-1.82517">
        <ele>-0.48</ele>
        <time>2020-03-07T11:01:41Z</time>
      </trkpt>
      <trkpt lat="46.99354" lon="-1.82501">
        <ele>-0.39</ele>
        <time>2020-03-07T11:01:43Z</time>
      </trkpt>
      <trkpt lat="46.9935" lon="-1.82489">
        <ele>0.43</ele>
        <time>2020-03-07T11:01:46Z</time>
      </trkpt>
      <trkpt lat="46.99347" lon="-1.82474">
        <ele>1.92</ele>
        <time>2020-03-07T11:01:48Z</time>
      </trkpt>
      <trkpt lat="46.99342" lon="-1.82458">
        <ele>2.78</ele>
        <time>2020-03-07T11:01:50Z</time>
      </trkpt>
      <trkpt lat="46.99338" lon="-1.82442">
        <ele>3.1</ele>
        <time>2020-03-07T11:01:52Z</time>
      </trkpt>
      <trkpt lat="46.99334" lon="-1.82428">
        <ele>2.73</ele>
        <time>2020-03-07T11:01:54Z</time>
      </trkpt>
      <trkpt lat="46.99329" lon="-1.8241">
        <ele>2.06</ele>
        <time>2020-03-07T11:01:56Z</time>
      </trkpt>
      <trkpt lat="46.99325" lon="-1.82392">
        <ele>0.96</ele>
        <time>2020-03-07T11:01:58Z</time>
      </trkpt>
      <trkpt lat="46.99323" lon="-1.82378">
        <ele>1.05</ele>
        <time>2020-03-07T11:02:00Z</time>
      </trkpt>
      <trkpt lat="46.99324" lon="-1.82358">
        <ele>1.38</ele>
        <time>2020-03-07T11:02:05Z</time>
      </trkpt>
      <trkpt lat="46.99323" lon="-1.82338">
        <ele>2.55</ele>
        <time>2020-03-07T11:02:07Z</time>
      </trkpt>
      <trkpt lat="46.9932" lon="-1.82322">
        <ele>3.16</ele>
        <time>2020-03-07T11:02:09Z</time>
      </trkpt>
      <trkpt lat="46.99317" lon="-1.82309">
        <ele>3.67</ele>
        <time>2020-03-07T11:02:11Z</time>
      </trkpt>
      <trkpt lat="46.99315" lon="-1.82295">
        <ele>4.59</ele>
        <time>2020-03-07T11:02:13Z</time>
      </trkpt>
      <trkpt lat="46.99311" lon="-1.82278">
        <ele>3.39</ele>
        <time>2020-03-07T11:02:15Z</time>
      </trkpt>
      <trkpt lat="46.99303" lon="-1.82257">
        <ele>3.36</ele>
        <time>2020-03-07T11:02:18Z</time>
      </trkpt>
      <trkpt lat="46.99298" lon="-1.82241">
        <ele>3.06</ele>
        <time>2020-03-07T11:02:20Z</time>
      </trkpt>
      <trkpt lat="46.99293" lon="-1.82226">
        <ele>3.55</ele>
        <time>2020-03-07T11:02:22Z</time>
      </trkpt>
      <trkpt lat="46.99287" lon="-1.82209">
        <ele>2.47</ele>
        <time>2020-03-07T11:02:24Z</time>
      </trkpt>
      <trkpt lat="46.99285" lon="-1.82185">
        <ele>1.36</ele>
        <time>2020-03-07T11:02:26Z</time>
      </trkpt>
      <trkpt lat="46.99282" lon="-1.82161">
        <ele>0.49</ele>
        <time>2020-03-07T11:02:28Z</time>
      </trkpt>
      <trkpt lat="46.99278" lon="-1.82141">
        <ele>-0.69</ele>
        <time>2020-03-07T11:02:30Z</time>
      </trkpt>
      <trkpt lat="46.99273" lon="-1.82118">
        <ele>-1.95</ele>
        <time>2020-03-07T11:02:32Z</time>
      </trkpt>
      <trkpt lat="46.99269" lon="-1.82096">
        <ele>-1.56</ele>
        <time>2020-03-07T11:02:34Z</time>
      </trkpt>
      <trkpt lat="46.99266" lon="-1.82077">
        <ele>0.22</ele>
        <time>2020-03-07T11:02:36Z</time>
      </trkpt>
      <trkpt lat="46.99262" lon="-1.82057">
        <ele>1.02</ele>
        <time>2020-03-07T11:02:38Z</time>
      </trkpt>
      <trkpt lat="46.99258" lon="-1.82043">
        <ele>1.19</ele>
        <time>2020-03-07T11:02:40Z</time>
      </trkpt>
      <trkpt lat="46.99253" lon="-1.82023">
        <ele>1.61</ele>
        <time>2020-03-07T11:02:42Z</time>
      </trkpt>
      <trkpt lat="46.99248" lon="-1.82002">
        <ele>1.35</ele>
        <time>2020-03-07T11:02:44Z</time>
      </trkpt>
      <trkpt lat="46.99244" lon="-1.81984">
        <ele>1.08</ele>
        <time>2020-03-07T11:02:46Z</time>
      </trkpt>
      <trkpt lat="46.99241" lon="-1.81967">
        <ele>1.33</ele>
        <time>2020-03-07T11:02:48Z</time>
      </trkpt>
      <trkpt lat="46.99237" lon="-1.81948">
        <ele>1.67</ele>
        <time>2020-03-07T11:02:50Z</time>
      </trkpt>
      <trkpt lat="46.99232" lon="-1.8193">
        <ele>1.38</ele>
        <time>2020-03-07T11:02:52Z</time>
      </trkpt>
      <trkpt lat="46.99228" lon="-1.81913">
        <ele>2.38</ele>
        <time>2020-03-07T11:02:54Z</time>
      </trkpt>
      <trkpt lat="46.99224" lon="-1.81898">
        <ele>2.14</ele>
        <time>2020-03-07T11:02:56Z</time>
      </trkpt>
      <trkpt lat="46.99219" lon="-1.81881">
        <ele>2.48</ele>
        <time>2020-03-07T11:02:58Z</time>
      </trkpt>
      <trkpt lat="46.99213" lon="-1.81868">
        <ele>2.93</ele>
        <time>2020-03-07T11:03:00Z</time>
      </trkpt>
      <trkpt lat="46.99209" lon="-1.81853">
        <ele>3.69</ele>
        <time>2020-03-07T11:03:02Z</time>
      </trkpt>
      <trkpt lat="46.99212" lon="-1.81835">
        <ele>3.03</ele>
        <time>2020-03-07T11:03:04Z</time>
      </trkpt>
      <trkpt lat="46.99219" lon="-1.8182">
        <ele>3.73</ele>
        <time>2020-03-07T11:03:06Z</time>
      </trkpt>
      <trkpt lat="46.99225" lon="-1.81809">
        <ele>5.28</ele>
        <time>2020-03-07T11:03:08Z</time>
      </trkpt>
      <trkpt lat="46.99235" lon="-1.818">
        <ele>5.21</ele>
        <time>2020-03-07T11:03:10Z</time>
      </trkpt>
      <trkpt lat="46.99242" lon="-1.81791">
        <ele>3.31</ele>
        <time>2020-03-07T11:03:12Z</time>
      </trkpt>
      <trkpt lat="46.99238" lon="-1.81774">
        <ele>1.72</ele>
        <time>2020-03-07T11:03:15Z</time>
      </trkpt>
      <trkpt lat="46.99229" lon="-1.81765">
        <ele>1.29</ele>
        <time>2020-03-07T11:03:17Z</time>
      </trkpt>
      <trkpt lat="46.99218" lon="-1.81754">
        <ele>0.67</ele>
        <time>2020-03-07T11:03:19Z</time>
      </trkpt>
      <trkpt lat="46.9921" lon="-1.81746">
        <ele>0.41</ele>
        <time>2020-03-07T11:03:21Z</time>
      </trkpt>
      <trkpt lat="46.99203" lon="-1.81738">
        <ele>-0.49</ele>
        <time>2020-03-07T11:03:23Z</time>
      </trkpt>
      <trkpt lat="46.99195" lon="-1.81724">
        <ele>-0.55</ele>
        <time>2020-03-07T11:03:32Z</time>
      </trkpt>
      <trkpt lat="46.99184" lon="-1.81712">
        <ele>0.16</ele>
        <time>2020-03-07T11:03:35Z</time>
      </trkpt>
      <trkpt lat="46.99174" lon="-1.81699">
        <ele>2.86</ele>
        <time>2020-03-07T11:03:38Z</time>
      </trkpt>
      <trkpt lat="46.99166" lon="-1.8169">
        <ele>3.26</ele>
        <time>2020-03-07T11:03:40Z</time>
      </trkpt>
      <trkpt lat="46.99157" lon="-1.8168">
        <ele>2.86</ele>
        <time>2020-03-07T11:03:42Z</time>
      </trkpt>
      <trkpt lat="46.99148" lon="-1.81671">
        <ele>3.25</ele>
        <time>2020-03-07T11:03:44Z</time>
      </trkpt>
      <trkpt lat="46.99139" lon="-1.8166">
        <ele>2.91</ele>
        <time>2020-03-07T11:03:46Z</time>
      </trkpt>
      <trkpt lat="46.99128" lon="-1.81647">
        <ele>2.79</ele>
        <time>2020-03-07T11:03:48Z</time>
      </trkpt>
      <trkpt lat="46.99119" lon="-1.81635">
        <ele>3.55</ele>
        <time>2020-03-07T11:03:50Z</time>
      </trkpt>
      <trkpt lat="46.99111" lon="-1.81624">
        <ele>3.54</ele>
        <time>2020-03-07T11:03:52Z</time>
      </trkpt>
      <trkpt lat="46.99103" lon="-1.81613">
        <ele>4.06</ele>
        <time>2020-03-07T11:03:54Z</time>
      </trkpt>
      <trkpt lat="46.99104" lon="-1.81599">
        <ele>2.74</ele>
        <time>2020-03-07T11:03:57Z</time>
      </trkpt>
      <trkpt lat="46.99118" lon="-1.81593">
        <ele>1.88</ele>
        <time>2020-03-07T11:04:00Z</time>
      </trkpt>
      <trkpt lat="46.99128" lon="-1.81593">
        <ele>2.38</ele>
        <time>2020-03-07T11:04:02Z</time>
      </trkpt>
      <trkpt lat="46.99137" lon="-1.81591">
        <ele>2.58</ele>
        <time>2020-03-07T11:04:04Z</time>
      </trkpt>
      <trkpt lat="46.99149" lon="-1.81592">
        <ele>1.47</ele>
        <time>2020-03-07T11:04:06Z</time>
      </trkpt>
      <trkpt lat="46.99163" lon="-1.81596">
        <ele>-0.51</ele>
        <time>2020-03-07T11:04:09Z</time>
      </trkpt>
      <trkpt lat="46.99173" lon="-1.81598">
        <ele>-1.14</ele>
        <time>2020-03-07T11:04:11Z</time>
      </trkpt>
      <trkpt lat="46.99186" lon="-1.81599">
        <ele>-0.42</ele>
        <time>2020-03-07T11:04:13Z</time>
      </trkpt>
      <trkpt lat="46.99196" lon="-1.81601">
        <ele>0.45</ele>
        <time>2020-03-07T11:04:15Z</time>
      </trkpt>
      <trkpt lat="46.99211" lon="-1.81603">
        <ele>0.34</ele>
        <time>2020-03-07T11:04:17Z</time>
      </trkpt>
      <trkpt lat="46.9922" lon="-1.81605">
        <ele>-1.82</ele>
        <time>2020-03-07T11:04:19Z</time>
      </trkpt>
      <trkpt lat="46.9923" lon="-1.81606">
        <ele>-2.95</ele>
        <time>2020-03-07T11:04:21Z</time>
      </trkpt>
      <trkpt lat="46.99243" lon="-1.81607">
        <ele>-3.18</ele>
        <time>2020-03-07T11:04:23Z</time>
      </trkpt>
      <trkpt lat="46.99251" lon="-1.81593">
        <ele>-4.83</ele>
        <time>2020-03-07T11:04:26Z</time>
      </trkpt>
      <trkpt lat="46.99254" lon="-1.81576">
        <ele>-5.32</ele>
        <time>2020-03-07T11:04:28Z</time>
      </trkpt>
      <trkpt lat="46.9925" lon="-1.81554">
        <ele>-6.33</ele>
        <time>2020-03-07T11:04:30Z</time>
      </trkpt>
      <trkpt lat="46.99247" lon="-1.8154">
        <ele>-5.39</ele>
        <time>2020-03-07T11:04:32Z</time>
      </trkpt>
      <trkpt lat="46.99244" lon="-1.81521">
        <ele>-4.59</ele>
        <time>2020-03-07T11:04:34Z</time>
      </trkpt>
      <trkpt lat="46.99241" lon="-1.81503">
        <ele>-4.45</ele>
        <time>2020-03-07T11:04:36Z</time>
      </trkpt>
      <trkpt lat="46.99238" lon="-1.81484">
        <ele>-2.89</ele>
        <time>2020-03-07T11:04:38Z</time>
      </trkpt>
      <trkpt lat="46.99235" lon="-1.81466">
        <ele>-1.33</ele>
        <time>2020-03-07T11:04:40Z</time>
      </trkpt>
      <trkpt lat="46.99233" lon="-1.81447">
        <ele>-1.96</ele>
        <time>2020-03-07T11:04:42Z</time>
      </trkpt>
      <trkpt lat="46.9923" lon="-1.81425">
        <ele>-3.31</ele>
        <time>2020-03-07T11:04:44Z</time>
      </trkpt>
      <trkpt lat="46.99228" lon="-1.81405">
        <ele>-4.99</ele>
        <time>2020-03-07T11:04:46Z</time>
      </trkpt>
      <trkpt lat="46.99225" lon="-1.81383">
        <ele>-5.63</ele>
        <time>2020-03-07T11:04:48Z</time>
      </trkpt>
      <trkpt lat="46.99223" lon="-1.81367">
        <ele>-6</ele>
        <time>2020-03-07T11:04:50Z</time>
      </trkpt>
      <trkpt lat="46.99222" lon="-1.81353">
        <ele>-5.83</ele>
        <time>2020-03-07T11:04:52Z</time>
      </trkpt>
      <trkpt lat="46.9922" lon="-1.81336">
        <ele>-5.56</ele>
        <time>2020-03-07T11:04:54Z</time>
      </trkpt>
      <trkpt lat="46.99218" lon="-1.81315">
        <ele>-4.99</ele>
        <time>2020-03-07T11:04:56Z</time>
      </trkpt>
      <trkpt lat="46.99214" lon="-1.81294">
        <ele>-4.1</ele>
        <time>2020-03-07T11:04:58Z</time>
      </trkpt>
      <trkpt lat="46.99212" lon="-1.81273">
        <ele>-2.63</ele>
        <time>2020-03-07T11:05:00Z</time>
      </trkpt>
      <trkpt lat="46.99211" lon="-1.81255">
        <ele>-2.07</ele>
        <time>2020-03-07T11:05:02Z</time>
      </trkpt>
      <trkpt lat="46.99208" lon="-1.81238">
        <ele>-2.38</ele>
        <time>2020-03-07T11:05:04Z</time>
      </trkpt>
      <trkpt lat="46.99206" lon="-1.81221">
        <ele>-3.96</ele>
        <time>2020-03-07T11:05:06Z</time>
      </trkpt>
      <trkpt lat="46.99204" lon="-1.81198">
        <ele>-3.74</ele>
        <time>2020-03-07T11:05:08Z</time>
      </trkpt>
      <trkpt lat="46.99201" lon="-1.81175">
        <ele>-2.91</ele>
        <time>2020-03-07T11:05:10Z</time>
      </trkpt>
      <trkpt lat="46.99197" lon="-1.81152">
        <ele>-1.79</ele>
        <time>2020-03-07T11:05:12Z</time>
      </trkpt>
      <trkpt lat="46.99193" lon="-1.81135">
        <ele>-1.66</ele>
        <time>2020-03-07T11:05:14Z</time>
      </trkpt>
      <trkpt lat="46.99191" lon="-1.81119">
        <ele>-3.37</ele>
        <time>2020-03-07T11:05:16Z</time>
      </trkpt>
      <trkpt lat="46.99188" lon="-1.811">
        <ele>-3.9</ele>
        <time>2020-03-07T11:05:18Z</time>
      </trkpt>
      <trkpt lat="46.99185" lon="-1.81082">
        <ele>-2.59</ele>
        <time>2020-03-07T11:05:20Z</time>
      </trkpt>
      <trkpt lat="46.99182" lon="-1.81061">
        <ele>-2.48</ele>
        <time>2020-03-07T11:05:22Z</time>
      </trkpt>
      <trkpt lat="46.99179" lon="-1.81044">
        <ele>-1.71</ele>
        <time>2020-03-07T11:05:24Z</time>
      </trkpt>
      <trkpt lat="46.99177" lon="-1.81024">
        <ele>-0.57</ele>
        <time>2020-03-07T11:05:26Z</time>
      </trkpt>
      <trkpt lat="46.99176" lon="-1.81006">
        <ele>0.46</ele>
        <time>2020-03-07T11:05:28Z</time>
      </trkpt>
      <trkpt lat="46.99173" lon="-1.80988">
        <ele>0.99</ele>
        <time>2020-03-07T11:05:30Z</time>
      </trkpt>
      <trkpt lat="46.99171" lon="-1.80972">
        <ele>0.34</ele>
        <time>2020-03-07T11:05:32Z</time>
      </trkpt>
      <trkpt lat="46.99169" lon="-1.80955">
        <ele>0.37</ele>
        <time>2020-03-07T11:05:34Z</time>
      </trkpt>
      <trkpt lat="46.99166" lon="-1.80935">
        <ele>1.5</ele>
        <time>2020-03-07T11:05:36Z</time>
      </trkpt>
      <trkpt lat="46.99163" lon="-1.80915">
        <ele>2.83</ele>
        <time>2020-03-07T11:05:39Z</time>
      </trkpt>
      <trkpt lat="46.99164" lon="-1.809">
        <ele>2.54</ele>
        <time>2020-03-07T11:05:41Z</time>
      </trkpt>
      <trkpt lat="46.99174" lon="-1.80886">
        <ele>3.77</ele>
        <time>2020-03-07T11:05:44Z</time>
      </trkpt>
      <trkpt lat="46.99187" lon="-1.80874">
        <ele>4.45</ele>
        <time>2020-03-07T11:05:46Z</time>
      </trkpt>
      <trkpt lat="46.99198" lon="-1.80866">
        <ele>3.34</ele>
        <time>2020-03-07T11:05:48Z</time>
      </trkpt>
      <trkpt lat="46.99207" lon="-1.80861">
        <ele>2.17</ele>
        <time>2020-03-07T11:05:50Z</time>
      </trkpt>
      <trkpt lat="46.99218" lon="-1.80857">
        <ele>3.47</ele>
        <time>2020-03-07T11:05:52Z</time>
      </trkpt>
      <trkpt lat="46.99228" lon="-1.80851">
        <ele>5</ele>
        <time>2020-03-07T11:05:54Z</time>
      </trkpt>
      <trkpt lat="46.9924" lon="-1.80843">
        <ele>5.88</ele>
        <time>2020-03-07T11:05:56Z</time>
      </trkpt>
      <trkpt lat="46.99252" lon="-1.80836">
        <ele>7.48</ele>
        <time>2020-03-07T11:05:58Z</time>
      </trkpt>
      <trkpt lat="46.99266" lon="-1.80828">
        <ele>8.31</ele>
        <time>2020-03-07T11:06:00Z</time>
      </trkpt>
      <trkpt lat="46.99276" lon="-1.80823">
        <ele>7.98</ele>
        <time>2020-03-07T11:06:02Z</time>
      </trkpt>
      <trkpt lat="46.99284" lon="-1.80817">
        <ele>7.6</ele>
        <time>2020-03-07T11:06:04Z</time>
      </trkpt>
      <trkpt lat="46.99294" lon="-1.8081">
        <ele>7.93</ele>
        <time>2020-03-07T11:06:06Z</time>
      </trkpt>
      <trkpt lat="46.99307" lon="-1.80803">
        <ele>6.47</ele>
        <time>2020-03-07T11:06:08Z</time>
      </trkpt>
      <trkpt lat="46.99321" lon="-1.80796">
        <ele>4</ele>
        <time>2020-03-07T11:06:10Z</time>
      </trkpt>
      <trkpt lat="46.99334" lon="-1.80787">
        <ele>2.49</ele>
        <time>2020-03-07T11:06:12Z</time>
      </trkpt>
      <trkpt lat="46.99346" lon="-1.8078">
        <ele>1.76</ele>
        <time>2020-03-07T11:06:14Z</time>
      </trkpt>
      <trkpt lat="46.99358" lon="-1.80772">
        <ele>0.88</ele>
        <time>2020-03-07T11:06:16Z</time>
      </trkpt>
      <trkpt lat="46.9937" lon="-1.80765">
        <ele>2.08</ele>
        <time>2020-03-07T11:06:18Z</time>
      </trkpt>
      <trkpt lat="46.99381" lon="-1.80757">
        <ele>3.9</ele>
        <time>2020-03-07T11:06:20Z</time>
      </trkpt>
      <trkpt lat="46.99393" lon="-1.80749">
        <ele>4.56</ele>
        <time>2020-03-07T11:06:22Z</time>
      </trkpt>
      <trkpt lat="46.99405" lon="-1.80741">
        <ele>5.41</ele>
        <time>2020-03-07T11:06:24Z</time>
      </trkpt>
      <trkpt lat="46.99416" lon="-1.80734">
        <ele>6.36</ele>
        <time>2020-03-07T11:06:26Z</time>
      </trkpt>
      <trkpt lat="46.99427" lon="-1.80727">
        <ele>6.46</ele>
        <time>2020-03-07T11:06:28Z</time>
      </trkpt>
      <trkpt lat="46.99438" lon="-1.80721">
        <ele>6.06</ele>
        <time>2020-03-07T11:06:30Z</time>
      </trkpt>
      <trkpt lat="46.99449" lon="-1.80713">
        <ele>6.2</ele>
        <time>2020-03-07T11:06:32Z</time>
      </trkpt>
      <trkpt lat="46.99462" lon="-1.80705">
        <ele>5.99</ele>
        <time>2020-03-07T11:06:34Z</time>
      </trkpt>
      <trkpt lat="46.9947" lon="-1.807">
        <ele>6.61</ele>
        <time>2020-03-07T11:06:36Z</time>
      </trkpt>
      <trkpt lat="46.99478" lon="-1.80685">
        <ele>6</ele>
        <time>2020-03-07T11:06:39Z</time>
      </trkpt>
      <trkpt lat="46.99483" lon="-1.80673">
        <ele>5.01</ele>
        <time>2020-03-07T11:06:41Z</time>
      </trkpt>
      <trkpt lat="46.9949" lon="-1.80663">
        <ele>4.62</ele>
        <time>2020-03-07T11:06:43Z</time>
      </trkpt>
      <trkpt lat="46.99501" lon="-1.80659">
        <ele>5.51</ele>
        <time>2020-03-07T11:06:45Z</time>
      </trkpt>
      <trkpt lat="46.99513" lon="-1.80653">
        <ele>5.87</ele>
        <time>2020-03-07T11:06:47Z</time>
      </trkpt>
      <trkpt lat="46.99524" lon="-1.80643">
        <ele>5.26</ele>
        <time>2020-03-07T11:06:49Z</time>
      </trkpt>
      <trkpt lat="46.99536" lon="-1.8063">
        <ele>4.62</ele>
        <time>2020-03-07T11:06:51Z</time>
      </trkpt>
      <trkpt lat="46.99546" lon="-1.80618">
        <ele>4.16</ele>
        <time>2020-03-07T11:06:53Z</time>
      </trkpt>
      <trkpt lat="46.99558" lon="-1.80603">
        <ele>3.05</ele>
        <time>2020-03-07T11:06:55Z</time>
      </trkpt>
      <trkpt lat="46.99568" lon="-1.80592">
        <ele>2.73</ele>
        <time>2020-03-07T11:06:57Z</time>
      </trkpt>
      <trkpt lat="46.99578" lon="-1.8058">
        <ele>2.21</ele>
        <time>2020-03-07T11:06:59Z</time>
      </trkpt>
      <trkpt lat="46.99587" lon="-1.80567">
        <ele>2.8</ele>
        <time>2020-03-07T11:07:01Z</time>
      </trkpt>
      <trkpt lat="46.99596" lon="-1.80554">
        <ele>3.23</ele>
        <time>2020-03-07T11:07:03Z</time>
      </trkpt>
      <trkpt lat="46.99606" lon="-1.80542">
        <ele>4.14</ele>
        <time>2020-03-07T11:07:05Z</time>
      </trkpt>
      <trkpt lat="46.99615" lon="-1.8053">
        <ele>5.06</ele>
        <time>2020-03-07T11:07:07Z</time>
      </trkpt>
      <trkpt lat="46.99625" lon="-1.80516">
        <ele>3.85</ele>
        <time>2020-03-07T11:07:09Z</time>
      </trkpt>
      <trkpt lat="46.99634" lon="-1.80504">
        <ele>3.42</ele>
        <time>2020-03-07T11:07:11Z</time>
      </trkpt>
      <trkpt lat="46.99645" lon="-1.8049">
        <ele>3.04</ele>
        <time>2020-03-07T11:07:13Z</time>
      </trkpt>
      <trkpt lat="46.99655" lon="-1.80477">
        <ele>3.17</ele>
        <time>2020-03-07T11:07:15Z</time>
      </trkpt>
      <trkpt lat="46.99664" lon="-1.80466">
        <ele>1.81</ele>
        <time>2020-03-07T11:07:17Z</time>
      </trkpt>
      <trkpt lat="46.99674" lon="-1.80453">
        <ele>1.97</ele>
        <time>2020-03-07T11:07:19Z</time>
      </trkpt>
      <trkpt lat="46.99683" lon="-1.8044">
        <ele>2.27</ele>
        <time>2020-03-07T11:07:21Z</time>
      </trkpt>
      <trkpt lat="46.99694" lon="-1.80425">
        <ele>2.67</ele>
        <time>2020-03-07T11:07:23Z</time>
      </trkpt>
      <trkpt lat="46.99704" lon="-1.80413">
        <ele>4.15</ele>
        <time>2020-03-07T11:07:25Z</time>
      </trkpt>
      <trkpt lat="46.99713" lon="-1.80401">
        <ele>4.73</ele>
        <time>2020-03-07T11:07:27Z</time>
      </trkpt>
      <trkpt lat="46.99723" lon="-1.80389">
        <ele>5.62</ele>
        <time>2020-03-07T11:07:29Z</time>
      </trkpt>
      <trkpt lat="46.99732" lon="-1.80376">
        <ele>7.77</ele>
        <time>2020-03-07T11:07:31Z</time>
      </trkpt>
      <trkpt lat="46.9974" lon="-1.80365">
        <ele>7.12</ele>
        <time>2020-03-07T11:07:33Z</time>
      </trkpt>
      <trkpt lat="46.9975" lon="-1.80352">
        <ele>5.99</ele>
        <time>2020-03-07T11:07:35Z</time>
      </trkpt>
      <trkpt lat="46.99759" lon="-1.80341">
        <ele>5.51</ele>
        <time>2020-03-07T11:07:37Z</time>
      </trkpt>
      <trkpt lat="46.99769" lon="-1.80327">
        <ele>5.4</ele>
        <time>2020-03-07T11:07:39Z</time>
      </trkpt>
      <trkpt lat="46.99779" lon="-1.80316">
        <ele>6.79</ele>
        <time>2020-03-07T11:07:41Z</time>
      </trkpt>
      <trkpt lat="46.99788" lon="-1.80304">
        <ele>7.77</ele>
        <time>2020-03-07T11:07:43Z</time>
      </trkpt>
      <trkpt lat="46.99797" lon="-1.80292">
        <ele>7.98</ele>
        <time>2020-03-07T11:07:45Z</time>
      </trkpt>
      <trkpt lat="46.99807" lon="-1.80279">
        <ele>7.46</ele>
        <time>2020-03-07T11:07:47Z</time>
      </trkpt>
      <trkpt lat="46.99815" lon="-1.80267">
        <ele>6.69</ele>
        <time>2020-03-07T11:07:49Z</time>
      </trkpt>
      <trkpt lat="46.99823" lon="-1.80257">
        <ele>5.17</ele>
        <time>2020-03-07T11:07:51Z</time>
      </trkpt>
      <trkpt lat="46.99832" lon="-1.80243">
        <ele>3.88</ele>
        <time>2020-03-07T11:07:53Z</time>
      </trkpt>
      <trkpt lat="46.99841" lon="-1.8023">
        <ele>4.12</ele>
        <time>2020-03-07T11:07:55Z</time>
      </trkpt>
      <trkpt lat="46.99851" lon="-1.80216">
        <ele>4.62</ele>
        <time>2020-03-07T11:07:57Z</time>
      </trkpt>
      <trkpt lat="46.99859" lon="-1.80201">
        <ele>4.23</ele>
        <time>2020-03-07T11:07:59Z</time>
      </trkpt>
      <trkpt lat="46.99868" lon="-1.80188">
        <ele>2.8</ele>
        <time>2020-03-07T11:08:01Z</time>
      </trkpt>
      <trkpt lat="46.99876" lon="-1.80171">
        <ele>2.55</ele>
        <time>2020-03-07T11:08:03Z</time>
      </trkpt>
      <trkpt lat="46.99884" lon="-1.80154">
        <ele>2.87</ele>
        <time>2020-03-07T11:08:05Z</time>
      </trkpt>
      <trkpt lat="46.99892" lon="-1.80138">
        <ele>3.05</ele>
        <time>2020-03-07T11:08:07Z</time>
      </trkpt>
      <trkpt lat="46.99898" lon="-1.80123">
        <ele>1.9</ele>
        <time>2020-03-07T11:08:09Z</time>
      </trkpt>
      <trkpt lat="46.99904" lon="-1.80109">
        <ele>1.31</ele>
        <time>2020-03-07T11:08:11Z</time>
      </trkpt>
      <trkpt lat="46.99912" lon="-1.80094">
        <ele>1.58</ele>
        <time>2020-03-07T11:08:13Z</time>
      </trkpt>
      <trkpt lat="46.99919" lon="-1.80079">
        <ele>1.42</ele>
        <time>2020-03-07T11:08:15Z</time>
      </trkpt>
      <trkpt lat="46.99927" lon="-1.80061">
        <ele>1.93</ele>
        <time>2020-03-07T11:08:17Z</time>
      </trkpt>
      <trkpt lat="46.99935" lon="-1.80045">
        <ele>2.93</ele>
        <time>2020-03-07T11:08:19Z</time>
      </trkpt>
      <trkpt lat="46.99942" lon="-1.80031">
        <ele>3.2</ele>
        <time>2020-03-07T11:08:21Z</time>
      </trkpt>
      <trkpt lat="46.9995" lon="-1.80016">
        <ele>3.77</ele>
        <time>2020-03-07T11:08:23Z</time>
      </trkpt>
      <trkpt lat="46.99959" lon="-1.80001">
        <ele>4.75</ele>
        <time>2020-03-07T11:08:25Z</time>
      </trkpt>
      <trkpt lat="46.99968" lon="-1.7999">
        <ele>5.03</ele>
        <time>2020-03-07T11:08:27Z</time>
      </trkpt>
      <trkpt lat="46.99977" lon="-1.79981">
        <ele>5.09</ele>
        <time>2020-03-07T11:08:29Z</time>
      </trkpt>
      <trkpt lat="46.99987" lon="-1.79973">
        <ele>5.18</ele>
        <time>2020-03-07T11:08:31Z</time>
      </trkpt>
      <trkpt lat="47" lon="-1.79964">
        <ele>5.06</ele>
        <time>2020-03-07T11:08:33Z</time>
      </trkpt>
      <trkpt lat="47.00013" lon="-1.79955">
        <ele>5.78</ele>
        <time>2020-03-07T11:08:35Z</time>
      </trkpt>
      <trkpt lat="47.00024" lon="-1.79948">
        <ele>6.93</ele>
        <time>2020-03-07T11:08:37Z</time>
      </trkpt>
      <trkpt lat="47.00035" lon="-1.7994">
        <ele>7.72</ele>
        <time>2020-03-07T11:08:39Z</time>
      </trkpt>
      <trkpt lat="47.00045" lon="-1.79932">
        <ele>8.32</ele>
        <time>2020-03-07T11:08:41Z</time>
      </trkpt>
      <trkpt lat="47.00058" lon="-1.79923">
        <ele>8.34</ele>
        <time>2020-03-07T11:08:43Z</time>
      </trkpt>
      <trkpt lat="47.0007" lon="-1.79914">
        <ele>6.85</ele>
        <time>2020-03-07T11:08:45Z</time>
      </trkpt>
      <trkpt lat="47.00083" lon="-1.79905">
        <ele>6.42</ele>
        <time>2020-03-07T11:08:47Z</time>
      </trkpt>
      <trkpt lat="47.00093" lon="-1.79895">
        <ele>6.83</ele>
        <time>2020-03-07T11:08:49Z</time>
      </trkpt>
      <trkpt lat="47.00105" lon="-1.79884">
        <ele>7.98</ele>
        <time>2020-03-07T11:08:51Z</time>
      </trkpt>
      <trkpt lat="47.00114" lon="-1.79874">
        <ele>7.85</ele>
        <time>2020-03-07T11:08:53Z</time>
      </trkpt>
      <trkpt lat="47.00123" lon="-1.79862">
        <ele>6.8</ele>
        <time>2020-03-07T11:08:55Z</time>
      </trkpt>
      <trkpt lat="47.00131" lon="-1.79848">
        <ele>5.9</ele>
        <time>2020-03-07T11:08:57Z</time>
      </trkpt>
      <trkpt lat="47.00138" lon="-1.79833">
        <ele>4.73</ele>
        <time>2020-03-07T11:08:59Z</time>
      </trkpt>
      <trkpt lat="47.00144" lon="-1.7982">
        <ele>4.53</ele>
        <time>2020-03-07T11:09:00Z</time>
      </trkpt>
      <trkpt lat="47.0015" lon="-1.79804">
        <ele>4.63</ele>
        <time>2020-03-07T11:09:02Z</time>
      </trkpt>
      <trkpt lat="47.00154" lon="-1.79789">
        <ele>4.42</ele>
        <time>2020-03-07T11:09:04Z</time>
      </trkpt>
      <trkpt lat="47.00159" lon="-1.79773">
        <ele>3.4</ele>
        <time>2020-03-07T11:09:06Z</time>
      </trkpt>
      <trkpt lat="47.00165" lon="-1.79755">
        <ele>2.95</ele>
        <time>2020-03-07T11:09:08Z</time>
      </trkpt>
      <trkpt lat="47.00169" lon="-1.79738">
        <ele>2.52</ele>
        <time>2020-03-07T11:09:10Z</time>
      </trkpt>
      <trkpt lat="47.00173" lon="-1.7972">
        <ele>1.68</ele>
        <time>2020-03-07T11:09:12Z</time>
      </trkpt>
      <trkpt lat="47.00178" lon="-1.79704">
        <ele>2.51</ele>
        <time>2020-03-07T11:09:14Z</time>
      </trkpt>
      <trkpt lat="47.00183" lon="-1.79686">
        <ele>1.74</ele>
        <time>2020-03-07T11:09:16Z</time>
      </trkpt>
      <trkpt lat="47.00187" lon="-1.79671">
        <ele>1.52</ele>
        <time>2020-03-07T11:09:18Z</time>
      </trkpt>
      <trkpt lat="47.00193" lon="-1.79652">
        <ele>1.12</ele>
        <time>2020-03-07T11:09:20Z</time>
      </trkpt>
      <trkpt lat="47.00198" lon="-1.79633">
        <ele>1</ele>
        <time>2020-03-07T11:09:22Z</time>
      </trkpt>
      <trkpt lat="47.00203" lon="-1.79615">
        <ele>0.35</ele>
        <time>2020-03-07T11:09:24Z</time>
      </trkpt>
      <trkpt lat="47.00207" lon="-1.79599">
        <ele>-0.14</ele>
        <time>2020-03-07T11:09:26Z</time>
      </trkpt>
      <trkpt lat="47.00211" lon="-1.79583">
        <ele>-0.41</ele>
        <time>2020-03-07T11:09:28Z</time>
      </trkpt>
      <trkpt lat="47.00214" lon="-1.79571">
        <ele>-0.87</ele>
        <time>2020-03-07T11:09:29Z</time>
      </trkpt>
      <trkpt lat="47.00219" lon="-1.79554">
        <ele>-1.6</ele>
        <time>2020-03-07T11:09:31Z</time>
      </trkpt>
      <trkpt lat="47.00225" lon="-1.79539">
        <ele>-1.13</ele>
        <time>2020-03-07T11:09:33Z</time>
      </trkpt>
      <trkpt lat="47.00232" lon="-1.7952">
        <ele>0.17</ele>
        <time>2020-03-07T11:09:35Z</time>
      </trkpt>
      <trkpt lat="47.00238" lon="-1.79504">
        <ele>0.31</ele>
        <time>2020-03-07T11:09:37Z</time>
      </trkpt>
      <trkpt lat="47.00244" lon="-1.79486">
        <ele>-0.11</ele>
        <time>2020-03-07T11:09:39Z</time>
      </trkpt>
      <trkpt lat="47.00249" lon="-1.79467">
        <ele>-0.24</ele>
        <time>2020-03-07T11:09:41Z</time>
      </trkpt>
      <trkpt lat="47.00256" lon="-1.79447">
        <ele>0.79</ele>
        <time>2020-03-07T11:09:43Z</time>
      </trkpt>
      <trkpt lat="47.0026" lon="-1.79432">
        <ele>3.01</ele>
        <time>2020-03-07T11:09:45Z</time>
      </trkpt>
      <trkpt lat="47.00266" lon="-1.79413">
        <ele>4.08</ele>
        <time>2020-03-07T11:09:47Z</time>
      </trkpt>
      <trkpt lat="47.00271" lon="-1.79395">
        <ele>4.32</ele>
        <time>2020-03-07T11:09:49Z</time>
      </trkpt>
      <trkpt lat="47.00277" lon="-1.79377">
        <ele>4.47</ele>
        <time>2020-03-07T11:09:51Z</time>
      </trkpt>
      <trkpt lat="47.00282" lon="-1.7936">
        <ele>3.93</ele>
        <time>2020-03-07T11:09:53Z</time>
      </trkpt>
      <trkpt lat="47.00286" lon="-1.79343">
        <ele>4.18</ele>
        <time>2020-03-07T11:09:55Z</time>
      </trkpt>
      <trkpt lat="47.0029" lon="-1.79322">
        <ele>4.28</ele>
        <time>2020-03-07T11:09:57Z</time>
      </trkpt>
      <trkpt lat="47.00292" lon="-1.79305">
        <ele>3.64</ele>
        <time>2020-03-07T11:09:59Z</time>
      </trkpt>
      <trkpt lat="47.00295" lon="-1.79285">
        <ele>3.89</ele>
        <time>2020-03-07T11:10:01Z</time>
      </trkpt>
      <trkpt lat="47.00297" lon="-1.79269">
        <ele>3.51</ele>
        <time>2020-03-07T11:10:03Z</time>
      </trkpt>
      <trkpt lat="47.003" lon="-1.79251">
        <ele>3.41</ele>
        <time>2020-03-07T11:10:05Z</time>
      </trkpt>
      <trkpt lat="47.00302" lon="-1.79231">
        <ele>4.33</ele>
        <time>2020-03-07T11:10:07Z</time>
      </trkpt>
      <trkpt lat="47.00305" lon="-1.79212">
        <ele>4.03</ele>
        <time>2020-03-07T11:10:09Z</time>
      </trkpt>
      <trkpt lat="47.00308" lon="-1.79193">
        <ele>3.91</ele>
        <time>2020-03-07T11:10:11Z</time>
      </trkpt>
      <trkpt lat="47.00311" lon="-1.79175">
        <ele>3.37</ele>
        <time>2020-03-07T11:10:13Z</time>
      </trkpt>
      <trkpt lat="47.00314" lon="-1.79159">
        <ele>2.26</ele>
        <time>2020-03-07T11:10:15Z</time>
      </trkpt>
      <trkpt lat="47.00318" lon="-1.7914">
        <ele>0.49</ele>
        <time>2020-03-07T11:10:17Z</time>
      </trkpt>
      <trkpt lat="47.00323" lon="-1.79121">
        <ele>-0.49</ele>
        <time>2020-03-07T11:10:19Z</time>
      </trkpt>
      <trkpt lat="47.00328" lon="-1.79104">
        <ele>-1.24</ele>
        <time>2020-03-07T11:10:21Z</time>
      </trkpt>
      <trkpt lat="47.00333" lon="-1.79084">
        <ele>-2.59</ele>
        <time>2020-03-07T11:10:23Z</time>
      </trkpt>
      <trkpt lat="47.00339" lon="-1.79066">
        <ele>-1.98</ele>
        <time>2020-03-07T11:10:25Z</time>
      </trkpt>
      <trkpt lat="47.00344" lon="-1.79048">
        <ele>-1.66</ele>
        <time>2020-03-07T11:10:27Z</time>
      </trkpt>
      <trkpt lat="47.0035" lon="-1.79028">
        <ele>-2.27</ele>
        <time>2020-03-07T11:10:29Z</time>
      </trkpt>
      <trkpt lat="47.00354" lon="-1.79011">
        <ele>-1.95</ele>
        <time>2020-03-07T11:10:31Z</time>
      </trkpt>
      <trkpt lat="47.00358" lon="-1.78994">
        <ele>-0.97</ele>
        <time>2020-03-07T11:10:33Z</time>
      </trkpt>
      <trkpt lat="47.00363" lon="-1.78974">
        <ele>1.29</ele>
        <time>2020-03-07T11:10:35Z</time>
      </trkpt>
      <trkpt lat="47.00367" lon="-1.78955">
        <ele>4.22</ele>
        <time>2020-03-07T11:10:37Z</time>
      </trkpt>
      <trkpt lat="47.0037" lon="-1.78939">
        <ele>5.02</ele>
        <time>2020-03-07T11:10:39Z</time>
      </trkpt>
      <trkpt lat="47.00375" lon="-1.78919">
        <ele>4.7</ele>
        <time>2020-03-07T11:10:41Z</time>
      </trkpt>
      <trkpt lat="47.00379" lon="-1.789">
        <ele>3.04</ele>
        <time>2020-03-07T11:10:43Z</time>
      </trkpt>
      <trkpt lat="47.00382" lon="-1.78884">
        <ele>1.86</ele>
        <time>2020-03-07T11:10:45Z</time>
      </trkpt>
      <trkpt lat="47.00387" lon="-1.78866">
        <ele>2.39</ele>
        <time>2020-03-07T11:10:47Z</time>
      </trkpt>
      <trkpt lat="47.00391" lon="-1.78846">
        <ele>1.66</ele>
        <time>2020-03-07T11:10:49Z</time>
      </trkpt>
      <trkpt lat="47.00395" lon="-1.78827">
        <ele>1.44</ele>
        <time>2020-03-07T11:10:51Z</time>
      </trkpt>
      <trkpt lat="47.00398" lon="-1.78808">
        <ele>1.25</ele>
        <time>2020-03-07T11:10:53Z</time>
      </trkpt>
      <trkpt lat="47.00401" lon="-1.78788">
        <ele>0.7</ele>
        <time>2020-03-07T11:10:55Z</time>
      </trkpt>
      <trkpt lat="47.00404" lon="-1.7877">
        <ele>1.37</ele>
        <time>2020-03-07T11:10:57Z</time>
      </trkpt>
      <trkpt lat="47.00407" lon="-1.78751">
        <ele>2.25</ele>
        <time>2020-03-07T11:10:59Z</time>
      </trkpt>
      <trkpt lat="47.0041" lon="-1.78732">
        <ele>3.72</ele>
        <time>2020-03-07T11:11:01Z</time>
      </trkpt>
      <trkpt lat="47.00413" lon="-1.78713">
        <ele>4.74</ele>
        <time>2020-03-07T11:11:03Z</time>
      </trkpt>
      <trkpt lat="47.00416" lon="-1.78693">
        <ele>4.27</ele>
        <time>2020-03-07T11:11:05Z</time>
      </trkpt>
      <trkpt lat="47.00419" lon="-1.78674">
        <ele>3.61</ele>
        <time>2020-03-07T11:11:07Z</time>
      </trkpt>
      <trkpt lat="47.00421" lon="-1.78654">
        <ele>2.39</ele>
        <time>2020-03-07T11:11:09Z</time>
      </trkpt>
      <trkpt lat="47.00424" lon="-1.78635">
        <ele>1.15</ele>
        <time>2020-03-07T11:11:11Z</time>
      </trkpt>
      <trkpt lat="47.00426" lon="-1.78618">
        <ele>1.31</ele>
        <time>2020-03-07T11:11:13Z</time>
      </trkpt>
      <trkpt lat="47.00429" lon="-1.78599">
        <ele>0.91</ele>
        <time>2020-03-07T11:11:15Z</time>
      </trkpt>
      <trkpt lat="47.00431" lon="-1.78579">
        <ele>0.93</ele>
        <time>2020-03-07T11:11:17Z</time>
      </trkpt>
      <trkpt lat="47.00434" lon="-1.7856">
        <ele>1.83</ele>
        <time>2020-03-07T11:11:19Z</time>
      </trkpt>
      <trkpt lat="47.00435" lon="-1.78541">
        <ele>2.71</ele>
        <time>2020-03-07T11:11:21Z</time>
      </trkpt>
      <trkpt lat="47.00437" lon="-1.7852">
        <ele>2.98</ele>
        <time>2020-03-07T11:11:23Z</time>
      </trkpt>
      <trkpt lat="47.00439" lon="-1.78501">
        <ele>3.19</ele>
        <time>2020-03-07T11:11:25Z</time>
      </trkpt>
      <trkpt lat="47.00443" lon="-1.78483">
        <ele>2.87</ele>
        <time>2020-03-07T11:11:27Z</time>
      </trkpt>
      <trkpt lat="47.00447" lon="-1.78462">
        <ele>2.62</ele>
        <time>2020-03-07T11:11:29Z</time>
      </trkpt>
      <trkpt lat="47.00451" lon="-1.78442">
        <ele>3.16</ele>
        <time>2020-03-07T11:11:31Z</time>
      </trkpt>
      <trkpt lat="47.00455" lon="-1.78423">
        <ele>3.24</ele>
        <time>2020-03-07T11:11:33Z</time>
      </trkpt>
      <trkpt lat="47.00459" lon="-1.78406">
        <ele>2.72</ele>
        <time>2020-03-07T11:11:35Z</time>
      </trkpt>
      <trkpt lat="47.00464" lon="-1.78389">
        <ele>2.04</ele>
        <time>2020-03-07T11:11:37Z</time>
      </trkpt>
      <trkpt lat="47.00468" lon="-1.7837">
        <ele>0.58</ele>
        <time>2020-03-07T11:11:39Z</time>
      </trkpt>
      <trkpt lat="47.00473" lon="-1.78351">
        <ele>-0.64</ele>
        <time>2020-03-07T11:11:41Z</time>
      </trkpt>
      <trkpt lat="47.00477" lon="-1.78333">
        <ele>-0.69</ele>
        <time>2020-03-07T11:11:43Z</time>
      </trkpt>
      <trkpt lat="47.00481" lon="-1.78313">
        <ele>-0.71</ele>
        <time>2020-03-07T11:11:45Z</time>
      </trkpt>
      <trkpt lat="47.00486" lon="-1.78296">
        <ele>-1.31</ele>
        <time>2020-03-07T11:11:47Z</time>
      </trkpt>
      <trkpt lat="47.0049" lon="-1.78281">
        <ele>-0.72</ele>
        <time>2020-03-07T11:11:48Z</time>
      </trkpt>
      <trkpt lat="47.00495" lon="-1.78264">
        <ele>-0.84</ele>
        <time>2020-03-07T11:11:50Z</time>
      </trkpt>
      <trkpt lat="47.00501" lon="-1.78245">
        <ele>-0.06</ele>
        <time>2020-03-07T11:11:52Z</time>
      </trkpt>
      <trkpt lat="47.00506" lon="-1.78226">
        <ele>0.78</ele>
        <time>2020-03-07T11:11:54Z</time>
      </trkpt>
      <trkpt lat="47.0051" lon="-1.78209">
        <ele>0.63</ele>
        <time>2020-03-07T11:11:56Z</time>
      </trkpt>
      <trkpt lat="47.00513" lon="-1.78193">
        <ele>0.07</ele>
        <time>2020-03-07T11:11:58Z</time>
      </trkpt>
      <trkpt lat="47.00518" lon="-1.78177">
        <ele>0.47</ele>
        <time>2020-03-07T11:12:00Z</time>
      </trkpt>
      <trkpt lat="47.00522" lon="-1.78157">
        <ele>1.72</ele>
        <time>2020-03-07T11:12:02Z</time>
      </trkpt>
      <trkpt lat="47.00527" lon="-1.78138">
        <ele>2.27</ele>
        <time>2020-03-07T11:12:04Z</time>
      </trkpt>
      <trkpt lat="47.0053" lon="-1.78122">
        <ele>3.15</ele>
        <time>2020-03-07T11:12:06Z</time>
      </trkpt>
      <trkpt lat="47.00534" lon="-1.78104">
        <ele>2.01</ele>
        <time>2020-03-07T11:12:08Z</time>
      </trkpt>
      <trkpt lat="47.00538" lon="-1.78087">
        <ele>0.06</ele>
        <time>2020-03-07T11:12:10Z</time>
      </trkpt>
      <trkpt lat="47.00541" lon="-1.78068">
        <ele>-0.58</ele>
        <time>2020-03-07T11:12:12Z</time>
      </trkpt>
      <trkpt lat="47.00547" lon="-1.78048">
        <ele>-0.65</ele>
        <time>2020-03-07T11:12:14Z</time>
      </trkpt>
      <trkpt lat="47.00551" lon="-1.78032">
        <ele>-2.02</ele>
        <time>2020-03-07T11:12:16Z</time>
      </trkpt>
      <trkpt lat="47.00555" lon="-1.78014">
        <ele>-3.51</ele>
        <time>2020-03-07T11:12:18Z</time>
      </trkpt>
      <trkpt lat="47.0056" lon="-1.77998">
        <ele>-3.68</ele>
        <time>2020-03-07T11:12:20Z</time>
      </trkpt>
      <trkpt lat="47.00565" lon="-1.77979">
        <ele>-2.28</ele>
        <time>2020-03-07T11:12:22Z</time>
      </trkpt>
      <trkpt lat="47.0057" lon="-1.77961">
        <ele>-1.47</ele>
        <time>2020-03-07T11:12:24Z</time>
      </trkpt>
      <trkpt lat="47.00574" lon="-1.77942">
        <ele>-2.26</ele>
        <time>2020-03-07T11:12:26Z</time>
      </trkpt>
      <trkpt lat="47.00578" lon="-1.77923">
        <ele>-1.67</ele>
        <time>2020-03-07T11:12:28Z</time>
      </trkpt>
      <trkpt lat="47.00583" lon="-1.77906">
        <ele>-3.07</ele>
        <time>2020-03-07T11:12:30Z</time>
      </trkpt>
      <trkpt lat="47.00588" lon="-1.77889">
        <ele>-3.06</ele>
        <time>2020-03-07T11:12:32Z</time>
      </trkpt>
      <trkpt lat="47.00592" lon="-1.77873">
        <ele>0.23</ele>
        <time>2020-03-07T11:12:34Z</time>
      </trkpt>
      <trkpt lat="47.00597" lon="-1.77855">
        <ele>1.98</ele>
        <time>2020-03-07T11:12:36Z</time>
      </trkpt>
      <trkpt lat="47.00601" lon="-1.77838">
        <ele>2.53</ele>
        <time>2020-03-07T11:12:38Z</time>
      </trkpt>
      <trkpt lat="47.00606" lon="-1.7782">
        <ele>3.09</ele>
        <time>2020-03-07T11:12:40Z</time>
      </trkpt>
      <trkpt lat="47.00608" lon="-1.77804">
        <ele>2.08</ele>
        <time>2020-03-07T11:12:42Z</time>
      </trkpt>
      <trkpt lat="47.00611" lon="-1.77789">
        <ele>1.8</ele>
        <time>2020-03-07T11:12:44Z</time>
      </trkpt>
      <trkpt lat="47.00616" lon="-1.7777">
        <ele>2.07</ele>
        <time>2020-03-07T11:12:46Z</time>
      </trkpt>
      <trkpt lat="47.0062" lon="-1.77755">
        <ele>1.89</ele>
        <time>2020-03-07T11:12:48Z</time>
      </trkpt>
      <trkpt lat="47.00624" lon="-1.77738">
        <ele>0.09</ele>
        <time>2020-03-07T11:12:50Z</time>
      </trkpt>
      <trkpt lat="47.00628" lon="-1.77723">
        <ele>-1.51</ele>
        <time>2020-03-07T11:12:52Z</time>
      </trkpt>
      <trkpt lat="47.00632" lon="-1.77704">
        <ele>-1.99</ele>
        <time>2020-03-07T11:12:54Z</time>
      </trkpt>
      <trkpt lat="47.00636" lon="-1.77687">
        <ele>-0.76</ele>
        <time>2020-03-07T11:12:56Z</time>
      </trkpt>
      <trkpt lat="47.00639" lon="-1.77672">
        <ele>0.69</ele>
        <time>2020-03-07T11:12:58Z</time>
      </trkpt>
      <trkpt lat="47.00643" lon="-1.77655">
        <ele>0.41</ele>
        <time>2020-03-07T11:13:00Z</time>
      </trkpt>
      <trkpt lat="47.00647" lon="-1.77638">
        <ele>2.13</ele>
        <time>2020-03-07T11:13:02Z</time>
      </trkpt>
      <trkpt lat="47.0065" lon="-1.77622">
        <ele>3.71</ele>
        <time>2020-03-07T11:13:04Z</time>
      </trkpt>
      <trkpt lat="47.00655" lon="-1.77607">
        <ele>6.05</ele>
        <time>2020-03-07T11:13:06Z</time>
      </trkpt>
      <trkpt lat="47.00658" lon="-1.77591">
        <ele>6.11</ele>
        <time>2020-03-07T11:13:08Z</time>
      </trkpt>
      <trkpt lat="47.00663" lon="-1.77576">
        <ele>6.12</ele>
        <time>2020-03-07T11:13:10Z</time>
      </trkpt>
      <trkpt lat="47.00666" lon="-1.77561">
        <ele>6.59</ele>
        <time>2020-03-07T11:13:12Z</time>
      </trkpt>
      <trkpt lat="47.0067" lon="-1.77545">
        <ele>7.27</ele>
        <time>2020-03-07T11:13:14Z</time>
      </trkpt>
      <trkpt lat="47.00674" lon="-1.77531">
        <ele>7.88</ele>
        <time>2020-03-07T11:13:16Z</time>
      </trkpt>
      <trkpt lat="47.00679" lon="-1.77514">
        <ele>8.25</ele>
        <time>2020-03-07T11:13:18Z</time>
      </trkpt>
      <trkpt lat="47.00685" lon="-1.775">
        <ele>8.38</ele>
        <time>2020-03-07T11:13:20Z</time>
      </trkpt>
      <trkpt lat="47.0069" lon="-1.77484">
        <ele>9.68</ele>
        <time>2020-03-07T11:13:22Z</time>
      </trkpt>
      <trkpt lat="47.00695" lon="-1.77471">
        <ele>10.21</ele>
        <time>2020-03-07T11:13:24Z</time>
      </trkpt>
      <trkpt lat="47.007" lon="-1.77457">
        <ele>10.36</ele>
        <time>2020-03-07T11:13:26Z</time>
      </trkpt>
      <trkpt lat="47.00706" lon="-1.77442">
        <ele>10.81</ele>
        <time>2020-03-07T11:13:28Z</time>
      </trkpt>
      <trkpt lat="47.00712" lon="-1.77425">
        <ele>11.22</ele>
        <time>2020-03-07T11:13:30Z</time>
      </trkpt>
      <trkpt lat="47.00717" lon="-1.77414">
        <ele>10.74</ele>
        <time>2020-03-07T11:13:32Z</time>
      </trkpt>
      <trkpt lat="47.00724" lon="-1.77395">
        <ele>9.21</ele>
        <time>2020-03-07T11:13:35Z</time>
      </trkpt>
      <trkpt lat="47.00729" lon="-1.77383">
        <ele>8.19</ele>
        <time>2020-03-07T11:13:37Z</time>
      </trkpt>
      <trkpt lat="47.00735" lon="-1.7737">
        <ele>8.77</ele>
        <time>2020-03-07T11:13:39Z</time>
      </trkpt>
      <trkpt lat="47.00742" lon="-1.77355">
        <ele>9.65</ele>
        <time>2020-03-07T11:13:41Z</time>
      </trkpt>
      <trkpt lat="47.00749" lon="-1.77346">
        <ele>10.62</ele>
        <time>2020-03-07T11:13:43Z</time>
      </trkpt>
      <trkpt lat="47.00757" lon="-1.77335">
        <ele>11.78</ele>
        <time>2020-03-07T11:13:45Z</time>
      </trkpt>
      <trkpt lat="47.00765" lon="-1.77326">
        <ele>12.75</ele>
        <time>2020-03-07T11:13:47Z</time>
      </trkpt>
      <trkpt lat="47.00773" lon="-1.77318">
        <ele>13.98</ele>
        <time>2020-03-07T11:13:49Z</time>
      </trkpt>
      <trkpt lat="47.00783" lon="-1.77309">
        <ele>15.16</ele>
        <time>2020-03-07T11:13:51Z</time>
      </trkpt>
      <trkpt lat="47.00795" lon="-1.773">
        <ele>16.75</ele>
        <time>2020-03-07T11:13:53Z</time>
      </trkpt>
      <trkpt lat="47.00805" lon="-1.77293">
        <ele>17.23</ele>
        <time>2020-03-07T11:13:55Z</time>
      </trkpt>
      <trkpt lat="47.00817" lon="-1.77286">
        <ele>17.18</ele>
        <time>2020-03-07T11:13:57Z</time>
      </trkpt>
      <trkpt lat="47.00828" lon="-1.77281">
        <ele>16.88</ele>
        <time>2020-03-07T11:13:59Z</time>
      </trkpt>
      <trkpt lat="47.00839" lon="-1.77276">
        <ele>15.74</ele>
        <time>2020-03-07T11:14:01Z</time>
      </trkpt>
      <trkpt lat="47.0085" lon="-1.7727">
        <ele>14.28</ele>
        <time>2020-03-07T11:14:03Z</time>
      </trkpt>
      <trkpt lat="47.00861" lon="-1.77264">
        <ele>12.9</ele>
        <time>2020-03-07T11:14:05Z</time>
      </trkpt>
      <trkpt lat="47.00872" lon="-1.77254">
        <ele>12.31</ele>
        <time>2020-03-07T11:14:07Z</time>
      </trkpt>
      <trkpt lat="47.00882" lon="-1.77245">
        <ele>11.75</ele>
        <time>2020-03-07T11:14:09Z</time>
      </trkpt>
      <trkpt lat="47.00891" lon="-1.77236">
        <ele>12.21</ele>
        <time>2020-03-07T11:14:11Z</time>
      </trkpt>
      <trkpt lat="47.009" lon="-1.77227">
        <ele>11.46</ele>
        <time>2020-03-07T11:14:13Z</time>
      </trkpt>
      <trkpt lat="47.00912" lon="-1.77213">
        <ele>11.68</ele>
        <time>2020-03-07T11:14:15Z</time>
      </trkpt>
      <trkpt lat="47.00921" lon="-1.77204">
        <ele>12.75</ele>
        <time>2020-03-07T11:14:17Z</time>
      </trkpt>
      <trkpt lat="47.00932" lon="-1.77194">
        <ele>12.85</ele>
        <time>2020-03-07T11:14:19Z</time>
      </trkpt>
      <trkpt lat="47.0094" lon="-1.77186">
        <ele>11.6</ele>
        <time>2020-03-07T11:14:21Z</time>
      </trkpt>
      <trkpt lat="47.0095" lon="-1.77177">
        <ele>11.34</ele>
        <time>2020-03-07T11:14:23Z</time>
      </trkpt>
      <trkpt lat="47.00958" lon="-1.77166">
        <ele>9.54</ele>
        <time>2020-03-07T11:14:26Z</time>
      </trkpt>
      <trkpt lat="47.00967" lon="-1.77155">
        <ele>10.02</ele>
        <time>2020-03-07T11:14:29Z</time>
      </trkpt>
      <trkpt lat="47.00975" lon="-1.77148">
        <ele>10.19</ele>
        <time>2020-03-07T11:14:31Z</time>
      </trkpt>
      <trkpt lat="47.00985" lon="-1.7714">
        <ele>11.55</ele>
        <time>2020-03-07T11:14:34Z</time>
      </trkpt>
      <trkpt lat="47.00993" lon="-1.77132">
        <ele>11.77</ele>
        <time>2020-03-07T11:14:36Z</time>
      </trkpt>
      <trkpt lat="47.01002" lon="-1.77124">
        <ele>12.4</ele>
        <time>2020-03-07T11:14:38Z</time>
      </trkpt>
      <trkpt lat="47.0101" lon="-1.77115">
        <ele>12.66</ele>
        <time>2020-03-07T11:14:40Z</time>
      </trkpt>
      <trkpt lat="47.0102" lon="-1.77103">
        <ele>12.16</ele>
        <time>2020-03-07T11:14:42Z</time>
      </trkpt>
      <trkpt lat="47.01028" lon="-1.77094">
        <ele>11.01</ele>
        <time>2020-03-07T11:14:44Z</time>
      </trkpt>
      <trkpt lat="47.01034" lon="-1.77084">
        <ele>11.94</ele>
        <time>2020-03-07T11:14:46Z</time>
      </trkpt>
      <trkpt lat="47.01043" lon="-1.77074">
        <ele>14.44</ele>
        <time>2020-03-07T11:14:48Z</time>
      </trkpt>
      <trkpt lat="47.01052" lon="-1.77064">
        <ele>16.08</ele>
        <time>2020-03-07T11:14:50Z</time>
      </trkpt>
      <trkpt lat="47.01062" lon="-1.77053">
        <ele>16.94</ele>
        <time>2020-03-07T11:14:52Z</time>
      </trkpt>
      <trkpt lat="47.01071" lon="-1.77043">
        <ele>17.05</ele>
        <time>2020-03-07T11:14:54Z</time>
      </trkpt>
      <trkpt lat="47.01084" lon="-1.7703">
        <ele>16.55</ele>
        <time>2020-03-07T11:14:57Z</time>
      </trkpt>
      <trkpt lat="47.01092" lon="-1.77019">
        <ele>16.98</ele>
        <time>2020-03-07T11:14:59Z</time>
      </trkpt>
      <trkpt lat="47.011" lon="-1.77008">
        <ele>18.14</ele>
        <time>2020-03-07T11:15:01Z</time>
      </trkpt>
      <trkpt lat="47.01108" lon="-1.76999">
        <ele>18.09</ele>
        <time>2020-03-07T11:15:03Z</time>
      </trkpt>
      <trkpt lat="47.01115" lon="-1.76988">
        <ele>17.93</ele>
        <time>2020-03-07T11:15:05Z</time>
      </trkpt>
      <trkpt lat="47.01125" lon="-1.76976">
        <ele>17.75</ele>
        <time>2020-03-07T11:15:07Z</time>
      </trkpt>
      <trkpt lat="47.01136" lon="-1.76962">
        <ele>19.34</ele>
        <time>2020-03-07T11:15:10Z</time>
      </trkpt>
      <trkpt lat="47.01147" lon="-1.76949">
        <ele>20.8</ele>
        <time>2020-03-07T11:15:12Z</time>
      </trkpt>
      <trkpt lat="47.01154" lon="-1.76939">
        <ele>20.66</ele>
        <time>2020-03-07T11:15:14Z</time>
      </trkpt>
      <trkpt lat="47.01164" lon="-1.76928">
        <ele>20.75</ele>
        <time>2020-03-07T11:15:16Z</time>
      </trkpt>
      <trkpt lat="47.01174" lon="-1.76918">
        <ele>22.02</ele>
        <time>2020-03-07T11:15:18Z</time>
      </trkpt>
      <trkpt lat="47.01183" lon="-1.76909">
        <ele>23.06</ele>
        <time>2020-03-07T11:15:20Z</time>
      </trkpt>
      <trkpt lat="47.01194" lon="-1.76897">
        <ele>21.96</ele>
        <time>2020-03-07T11:15:22Z</time>
      </trkpt>
      <trkpt lat="47.01205" lon="-1.76887">
        <ele>19.68</ele>
        <time>2020-03-07T11:15:24Z</time>
      </trkpt>
      <trkpt lat="47.01213" lon="-1.7688">
        <ele>18.56</ele>
        <time>2020-03-07T11:15:26Z</time>
      </trkpt>
      <trkpt lat="47.01222" lon="-1.76874">
        <ele>18.75</ele>
        <time>2020-03-07T11:15:28Z</time>
      </trkpt>
      <trkpt lat="47.01231" lon="-1.76867">
        <ele>19.79</ele>
        <time>2020-03-07T11:15:30Z</time>
      </trkpt>
      <trkpt lat="47.0124" lon="-1.7686">
        <ele>19.34</ele>
        <time>2020-03-07T11:15:32Z</time>
      </trkpt>
      <trkpt lat="47.01252" lon="-1.76851">
        <ele>19.4</ele>
        <time>2020-03-07T11:15:34Z</time>
      </trkpt>
      <trkpt lat="47.01263" lon="-1.76843">
        <ele>19.24</ele>
        <time>2020-03-07T11:15:36Z</time>
      </trkpt>
      <trkpt lat="47.01273" lon="-1.76834">
        <ele>19.03</ele>
        <time>2020-03-07T11:15:38Z</time>
      </trkpt>
      <trkpt lat="47.01281" lon="-1.76824">
        <ele>18.81</ele>
        <time>2020-03-07T11:15:40Z</time>
      </trkpt>
      <trkpt lat="47.01293" lon="-1.76812">
        <ele>18.46</ele>
        <time>2020-03-07T11:15:43Z</time>
      </trkpt>
      <trkpt lat="47.013" lon="-1.76801">
        <ele>18.17</ele>
        <time>2020-03-07T11:15:45Z</time>
      </trkpt>
      <trkpt lat="47.01307" lon="-1.76789">
        <ele>18.44</ele>
        <time>2020-03-07T11:15:47Z</time>
      </trkpt>
      <trkpt lat="47.01318" lon="-1.76773">
        <ele>17.92</ele>
        <time>2020-03-07T11:15:50Z</time>
      </trkpt>
      <trkpt lat="47.01327" lon="-1.76758">
        <ele>18.7</ele>
        <time>2020-03-07T11:15:52Z</time>
      </trkpt>
      <trkpt lat="47.01333" lon="-1.76745">
        <ele>19.46</ele>
        <time>2020-03-07T11:15:54Z</time>
      </trkpt>
      <trkpt lat="47.01342" lon="-1.76729">
        <ele>19.32</ele>
        <time>2020-03-07T11:15:57Z</time>
      </trkpt>
      <trkpt lat="47.0135" lon="-1.76715">
        <ele>19.11</ele>
        <time>2020-03-07T11:15:59Z</time>
      </trkpt>
      <trkpt lat="47.01355" lon="-1.76703">
        <ele>18.67</ele>
        <time>2020-03-07T11:16:01Z</time>
      </trkpt>
      <trkpt lat="47.0136" lon="-1.76687">
        <ele>18.38</ele>
        <time>2020-03-07T11:16:03Z</time>
      </trkpt>
      <trkpt lat="47.01364" lon="-1.76672">
        <ele>17.79</ele>
        <time>2020-03-07T11:16:05Z</time>
      </trkpt>
      <trkpt lat="47.01369" lon="-1.76655">
        <ele>19.57</ele>
        <time>2020-03-07T11:16:07Z</time>
      </trkpt>
      <trkpt lat="47.01371" lon="-1.7664">
        <ele>20.42</ele>
        <time>2020-03-07T11:16:09Z</time>
      </trkpt>
      <trkpt lat="47.01375" lon="-1.7662">
        <ele>19.23</ele>
        <time>2020-03-07T11:16:12Z</time>
      </trkpt>
      <trkpt lat="47.01378" lon="-1.76603">
        <ele>20.46</ele>
        <time>2020-03-07T11:16:14Z</time>
      </trkpt>
      <trkpt lat="47.01382" lon="-1.76585">
        <ele>21.5</ele>
        <time>2020-03-07T11:16:16Z</time>
      </trkpt>
      <trkpt lat="47.01385" lon="-1.76571">
        <ele>21.99</ele>
        <time>2020-03-07T11:16:18Z</time>
      </trkpt>
      <trkpt lat="47.01388" lon="-1.76552">
        <ele>21</ele>
        <time>2020-03-07T11:16:20Z</time>
      </trkpt>
      <trkpt lat="47.01392" lon="-1.76535">
        <ele>20.91</ele>
        <time>2020-03-07T11:16:22Z</time>
      </trkpt>
      <trkpt lat="47.01398" lon="-1.76515">
        <ele>21.12</ele>
        <time>2020-03-07T11:16:25Z</time>
      </trkpt>
      <trkpt lat="47.01403" lon="-1.76497">
        <ele>20.36</ele>
        <time>2020-03-07T11:16:27Z</time>
      </trkpt>
      <trkpt lat="47.01408" lon="-1.76482">
        <ele>20.58</ele>
        <time>2020-03-07T11:16:29Z</time>
      </trkpt>
      <trkpt lat="47.01415" lon="-1.76464">
        <ele>19.72</ele>
        <time>2020-03-07T11:16:31Z</time>
      </trkpt>
      <trkpt lat="47.01421" lon="-1.76449">
        <ele>18.56</ele>
        <time>2020-03-07T11:16:33Z</time>
      </trkpt>
      <trkpt lat="47.01427" lon="-1.76435">
        <ele>18.31</ele>
        <time>2020-03-07T11:16:35Z</time>
      </trkpt>
      <trkpt lat="47.01434" lon="-1.76417">
        <ele>18.96</ele>
        <time>2020-03-07T11:16:37Z</time>
      </trkpt>
      <trkpt lat="47.0144" lon="-1.76401">
        <ele>19.59</ele>
        <time>2020-03-07T11:16:39Z</time>
      </trkpt>
      <trkpt lat="47.01448" lon="-1.76386">
        <ele>18.94</ele>
        <time>2020-03-07T11:16:41Z</time>
      </trkpt>
      <trkpt lat="47.01458" lon="-1.76368">
        <ele>18.38</ele>
        <time>2020-03-07T11:16:43Z</time>
      </trkpt>
      <trkpt lat="47.01465" lon="-1.76353">
        <ele>17.23</ele>
        <time>2020-03-07T11:16:45Z</time>
      </trkpt>
      <trkpt lat="47.01474" lon="-1.76336">
        <ele>15.39</ele>
        <time>2020-03-07T11:16:47Z</time>
      </trkpt>
      <trkpt lat="47.0148" lon="-1.76323">
        <ele>14.4</ele>
        <time>2020-03-07T11:16:49Z</time>
      </trkpt>
      <trkpt lat="47.01485" lon="-1.76311">
        <ele>12.76</ele>
        <time>2020-03-07T11:16:51Z</time>
      </trkpt>
      <trkpt lat="47.01492" lon="-1.76297">
        <ele>13.6</ele>
        <time>2020-03-07T11:16:53Z</time>
      </trkpt>
      <trkpt lat="47.01498" lon="-1.76284">
        <ele>15</ele>
        <time>2020-03-07T11:16:55Z</time>
      </trkpt>
      <trkpt lat="47.01504" lon="-1.76271">
        <ele>14.65</ele>
        <time>2020-03-07T11:16:57Z</time>
      </trkpt>
      <trkpt lat="47.01512" lon="-1.76253">
        <ele>14.3</ele>
        <time>2020-03-07T11:16:59Z</time>
      </trkpt>
      <trkpt lat="47.01519" lon="-1.76236">
        <ele>15.19</ele>
        <time>2020-03-07T11:17:01Z</time>
      </trkpt>
      <trkpt lat="47.01525" lon="-1.76219">
        <ele>16.74</ele>
        <time>2020-03-07T11:17:03Z</time>
      </trkpt>
      <trkpt lat="47.01531" lon="-1.762">
        <ele>18.37</ele>
        <time>2020-03-07T11:17:05Z</time>
      </trkpt>
      <trkpt lat="47.0154" lon="-1.76182">
        <ele>19.47</ele>
        <time>2020-03-07T11:17:07Z</time>
      </trkpt>
      <trkpt lat="47.01549" lon="-1.76167">
        <ele>20.09</ele>
        <time>2020-03-07T11:17:09Z</time>
      </trkpt>
      <trkpt lat="47.01559" lon="-1.76155">
        <ele>19.61</ele>
        <time>2020-03-07T11:17:11Z</time>
      </trkpt>
      <trkpt lat="47.0157" lon="-1.76143">
        <ele>18.2</ele>
        <time>2020-03-07T11:17:13Z</time>
      </trkpt>
      <trkpt lat="47.01582" lon="-1.76132">
        <ele>17.07</ele>
        <time>2020-03-07T11:17:15Z</time>
      </trkpt>
      <trkpt lat="47.01593" lon="-1.76125">
        <ele>15.71</ele>
        <time>2020-03-07T11:17:17Z</time>
      </trkpt>
      <trkpt lat="47.01604" lon="-1.76115">
        <ele>16.23</ele>
        <time>2020-03-07T11:17:19Z</time>
      </trkpt>
      <trkpt lat="47.01614" lon="-1.76107">
        <ele>17.51</ele>
        <time>2020-03-07T11:17:21Z</time>
      </trkpt>
      <trkpt lat="47.01623" lon="-1.76099">
        <ele>19.34</ele>
        <time>2020-03-07T11:17:23Z</time>
      </trkpt>
      <trkpt lat="47.01632" lon="-1.76091">
        <ele>20.27</ele>
        <time>2020-03-07T11:17:25Z</time>
      </trkpt>
      <trkpt lat="47.0164" lon="-1.76084">
        <ele>20.87</ele>
        <time>2020-03-07T11:17:26Z</time>
      </trkpt>
      <trkpt lat="47.01651" lon="-1.76075">
        <ele>21.67</ele>
        <time>2020-03-07T11:17:28Z</time>
      </trkpt>
      <trkpt lat="47.01663" lon="-1.76066">
        <ele>22.18</ele>
        <time>2020-03-07T11:17:30Z</time>
      </trkpt>
      <trkpt lat="47.01673" lon="-1.76058">
        <ele>22.78</ele>
        <time>2020-03-07T11:17:32Z</time>
      </trkpt>
      <trkpt lat="47.01684" lon="-1.76048">
        <ele>23.5</ele>
        <time>2020-03-07T11:17:34Z</time>
      </trkpt>
      <trkpt lat="47.01694" lon="-1.7604">
        <ele>24.89</ele>
        <time>2020-03-07T11:17:36Z</time>
      </trkpt>
      <trkpt lat="47.01704" lon="-1.76029">
        <ele>24.01</ele>
        <time>2020-03-07T11:17:38Z</time>
      </trkpt>
      <trkpt lat="47.01714" lon="-1.76016">
        <ele>22.74</ele>
        <time>2020-03-07T11:17:40Z</time>
      </trkpt>
      <trkpt lat="47.01724" lon="-1.76003">
        <ele>22.32</ele>
        <time>2020-03-07T11:17:42Z</time>
      </trkpt>
      <trkpt lat="47.01732" lon="-1.7599">
        <ele>19.54</ele>
        <time>2020-03-07T11:17:44Z</time>
      </trkpt>
      <trkpt lat="47.01739" lon="-1.75978">
        <ele>16.49</ele>
        <time>2020-03-07T11:17:46Z</time>
      </trkpt>
      <trkpt lat="47.01748" lon="-1.75962">
        <ele>15.5</ele>
        <time>2020-03-07T11:17:48Z</time>
      </trkpt>
      <trkpt lat="47.01757" lon="-1.75946">
        <ele>16.03</ele>
        <time>2020-03-07T11:17:50Z</time>
      </trkpt>
      <trkpt lat="47.01765" lon="-1.75932">
        <ele>16.67</ele>
        <time>2020-03-07T11:17:52Z</time>
      </trkpt>
      <trkpt lat="47.01773" lon="-1.75917">
        <ele>17.51</ele>
        <time>2020-03-07T11:17:54Z</time>
      </trkpt>
      <trkpt lat="47.01781" lon="-1.75901">
        <ele>18.38</ele>
        <time>2020-03-07T11:17:56Z</time>
      </trkpt>
      <trkpt lat="47.01789" lon="-1.75889">
        <ele>18.78</ele>
        <time>2020-03-07T11:17:58Z</time>
      </trkpt>
      <trkpt lat="47.01798" lon="-1.75874">
        <ele>18.82</ele>
        <time>2020-03-07T11:18:00Z</time>
      </trkpt>
      <trkpt lat="47.01806" lon="-1.75861">
        <ele>18.69</ele>
        <time>2020-03-07T11:18:02Z</time>
      </trkpt>
      <trkpt lat="47.01815" lon="-1.75847">
        <ele>19.21</ele>
        <time>2020-03-07T11:18:04Z</time>
      </trkpt>
      <trkpt lat="47.01821" lon="-1.75835">
        <ele>19.9</ele>
        <time>2020-03-07T11:18:06Z</time>
      </trkpt>
      <trkpt lat="47.01831" lon="-1.75821">
        <ele>22.01</ele>
        <time>2020-03-07T11:18:08Z</time>
      </trkpt>
      <trkpt lat="47.01838" lon="-1.7581">
        <ele>23.11</ele>
        <time>2020-03-07T11:18:10Z</time>
      </trkpt>
      <trkpt lat="47.01847" lon="-1.75794">
        <ele>23.37</ele>
        <time>2020-03-07T11:18:12Z</time>
      </trkpt>
      <trkpt lat="47.01853" lon="-1.75783">
        <ele>22.29</ele>
        <time>2020-03-07T11:18:14Z</time>
      </trkpt>
      <trkpt lat="47.0186" lon="-1.75769">
        <ele>20.66</ele>
        <time>2020-03-07T11:18:16Z</time>
      </trkpt>
      <trkpt lat="47.01867" lon="-1.75755">
        <ele>20.66</ele>
        <time>2020-03-07T11:18:18Z</time>
      </trkpt>
      <trkpt lat="47.01875" lon="-1.75743">
        <ele>21.69</ele>
        <time>2020-03-07T11:18:20Z</time>
      </trkpt>
      <trkpt lat="47.01883" lon="-1.7573">
        <ele>22.2</ele>
        <time>2020-03-07T11:18:22Z</time>
      </trkpt>
      <trkpt lat="47.01891" lon="-1.75718">
        <ele>22.37</ele>
        <time>2020-03-07T11:18:24Z</time>
      </trkpt>
      <trkpt lat="47.019" lon="-1.75703">
        <ele>23.73</ele>
        <time>2020-03-07T11:18:26Z</time>
      </trkpt>
      <trkpt lat="47.01907" lon="-1.75689">
        <ele>23.76</ele>
        <time>2020-03-07T11:18:28Z</time>
      </trkpt>
      <trkpt lat="47.01916" lon="-1.75675">
        <ele>22.25</ele>
        <time>2020-03-07T11:18:30Z</time>
      </trkpt>
      <trkpt lat="47.01925" lon="-1.75661">
        <ele>21.08</ele>
        <time>2020-03-07T11:18:32Z</time>
      </trkpt>
      <trkpt lat="47.0193" lon="-1.7565">
        <ele>20.2</ele>
        <time>2020-03-07T11:18:34Z</time>
      </trkpt>
      <trkpt lat="47.01938" lon="-1.75636">
        <ele>19.54</ele>
        <time>2020-03-07T11:18:36Z</time>
      </trkpt>
      <trkpt lat="47.01946" lon="-1.75621">
        <ele>19.65</ele>
        <time>2020-03-07T11:18:38Z</time>
      </trkpt>
      <trkpt lat="47.01953" lon="-1.75607">
        <ele>20.25</ele>
        <time>2020-03-07T11:18:40Z</time>
      </trkpt>
      <trkpt lat="47.01961" lon="-1.75594">
        <ele>20.84</ele>
        <time>2020-03-07T11:18:42Z</time>
      </trkpt>
      <trkpt lat="47.01969" lon="-1.75579">
        <ele>20.49</ele>
        <time>2020-03-07T11:18:44Z</time>
      </trkpt>
      <trkpt lat="47.01978" lon="-1.75562">
        <ele>20.74</ele>
        <time>2020-03-07T11:18:46Z</time>
      </trkpt>
      <trkpt lat="47.01988" lon="-1.75546">
        <ele>20.58</ele>
        <time>2020-03-07T11:18:48Z</time>
      </trkpt>
      <trkpt lat="47.01997" lon="-1.75532">
        <ele>19.68</ele>
        <time>2020-03-07T11:18:50Z</time>
      </trkpt>
      <trkpt lat="47.02007" lon="-1.75516">
        <ele>19.87</ele>
        <time>2020-03-07T11:18:52Z</time>
      </trkpt>
      <trkpt lat="47.02015" lon="-1.75501">
        <ele>19.74</ele>
        <time>2020-03-07T11:18:54Z</time>
      </trkpt>
      <trkpt lat="47.02024" lon="-1.75485">
        <ele>21.27</ele>
        <time>2020-03-07T11:18:56Z</time>
      </trkpt>
      <trkpt lat="47.02032" lon="-1.75471">
        <ele>23.24</ele>
        <time>2020-03-07T11:18:58Z</time>
      </trkpt>
      <trkpt lat="47.0204" lon="-1.75455">
        <ele>24.25</ele>
        <time>2020-03-07T11:19:00Z</time>
      </trkpt>
      <trkpt lat="47.02047" lon="-1.75442">
        <ele>24.72</ele>
        <time>2020-03-07T11:19:02Z</time>
      </trkpt>
      <trkpt lat="47.02054" lon="-1.75426">
        <ele>24.75</ele>
        <time>2020-03-07T11:19:04Z</time>
      </trkpt>
      <trkpt lat="47.02061" lon="-1.75405">
        <ele>24.09</ele>
        <time>2020-03-07T11:19:06Z</time>
      </trkpt>
      <trkpt lat="47.02066" lon="-1.75386">
        <ele>23.01</ele>
        <time>2020-03-07T11:19:08Z</time>
      </trkpt>
      <trkpt lat="47.0207" lon="-1.75368">
        <ele>22.48</ele>
        <time>2020-03-07T11:19:10Z</time>
      </trkpt>
      <trkpt lat="47.02073" lon="-1.75349">
        <ele>23.95</ele>
        <time>2020-03-07T11:19:12Z</time>
      </trkpt>
      <trkpt lat="47.02075" lon="-1.7533">
        <ele>22.93</ele>
        <time>2020-03-07T11:19:14Z</time>
      </trkpt>
      <trkpt lat="47.02078" lon="-1.75308">
        <ele>21.06</ele>
        <time>2020-03-07T11:19:16Z</time>
      </trkpt>
      <trkpt lat="47.02081" lon="-1.75294">
        <ele>19.66</ele>
        <time>2020-03-07T11:19:18Z</time>
      </trkpt>
      <trkpt lat="47.02084" lon="-1.75274">
        <ele>20.2</ele>
        <time>2020-03-07T11:19:20Z</time>
      </trkpt>
      <trkpt lat="47.02088" lon="-1.75254">
        <ele>20.84</ele>
        <time>2020-03-07T11:19:22Z</time>
      </trkpt>
      <trkpt lat="47.02092" lon="-1.75234">
        <ele>22.3</ele>
        <time>2020-03-07T11:19:24Z</time>
      </trkpt>
      <trkpt lat="47.02095" lon="-1.75216">
        <ele>24.12</ele>
        <time>2020-03-07T11:19:26Z</time>
      </trkpt>
      <trkpt lat="47.02099" lon="-1.75199">
        <ele>24.38</ele>
        <time>2020-03-07T11:19:28Z</time>
      </trkpt>
      <trkpt lat="47.02104" lon="-1.75179">
        <ele>25.1</ele>
        <time>2020-03-07T11:19:30Z</time>
      </trkpt>
      <trkpt lat="47.02108" lon="-1.75158">
        <ele>24.11</ele>
        <time>2020-03-07T11:19:32Z</time>
      </trkpt>
      <trkpt lat="47.02111" lon="-1.75142">
        <ele>22.12</ele>
        <time>2020-03-07T11:19:34Z</time>
      </trkpt>
      <trkpt lat="47.02115" lon="-1.75122">
        <ele>21</ele>
        <time>2020-03-07T11:19:36Z</time>
      </trkpt>
      <trkpt lat="47.02119" lon="-1.75102">
        <ele>20.39</ele>
        <time>2020-03-07T11:19:38Z</time>
      </trkpt>
      <trkpt lat="47.02122" lon="-1.75082">
        <ele>19.65</ele>
        <time>2020-03-07T11:19:40Z</time>
      </trkpt>
      <trkpt lat="47.02125" lon="-1.75067">
        <ele>19.63</ele>
        <time>2020-03-07T11:19:42Z</time>
      </trkpt>
      <trkpt lat="47.02128" lon="-1.75047">
        <ele>19.82</ele>
        <time>2020-03-07T11:19:44Z</time>
      </trkpt>
      <trkpt lat="47.02131" lon="-1.75032">
        <ele>20.09</ele>
        <time>2020-03-07T11:19:46Z</time>
      </trkpt>
      <trkpt lat="47.02134" lon="-1.75012">
        <ele>19.38</ele>
        <time>2020-03-07T11:19:48Z</time>
      </trkpt>
      <trkpt lat="47.02136" lon="-1.74994">
        <ele>19.55</ele>
        <time>2020-03-07T11:19:50Z</time>
      </trkpt>
      <trkpt lat="47.02138" lon="-1.74977">
        <ele>19.69</ele>
        <time>2020-03-07T11:19:52Z</time>
      </trkpt>
      <trkpt lat="47.02142" lon="-1.74958">
        <ele>21.52</ele>
        <time>2020-03-07T11:19:54Z</time>
      </trkpt>
      <trkpt lat="47.02145" lon="-1.7494">
        <ele>23.05</ele>
        <time>2020-03-07T11:19:56Z</time>
      </trkpt>
      <trkpt lat="47.02148" lon="-1.74924">
        <ele>24.19</ele>
        <time>2020-03-07T11:19:58Z</time>
      </trkpt>
      <trkpt lat="47.02152" lon="-1.74902">
        <ele>24.51</ele>
        <time>2020-03-07T11:20:00Z</time>
      </trkpt>
      <trkpt lat="47.02155" lon="-1.74888">
        <ele>23.65</ele>
        <time>2020-03-07T11:20:02Z</time>
      </trkpt>
      <trkpt lat="47.02159" lon="-1.74871">
        <ele>23.11</ele>
        <time>2020-03-07T11:20:04Z</time>
      </trkpt>
      <trkpt lat="47.02163" lon="-1.74849">
        <ele>24.06</ele>
        <time>2020-03-07T11:20:06Z</time>
      </trkpt>
      <trkpt lat="47.02166" lon="-1.74834">
        <ele>25.35</ele>
        <time>2020-03-07T11:20:08Z</time>
      </trkpt>
      <trkpt lat="47.0217" lon="-1.74815">
        <ele>23.68</ele>
        <time>2020-03-07T11:20:10Z</time>
      </trkpt>
      <trkpt lat="47.02175" lon="-1.74799">
        <ele>21.41</ele>
        <time>2020-03-07T11:20:12Z</time>
      </trkpt>
      <trkpt lat="47.02182" lon="-1.7478">
        <ele>21.05</ele>
        <time>2020-03-07T11:20:14Z</time>
      </trkpt>
      <trkpt lat="47.02186" lon="-1.74765">
        <ele>19.83</ele>
        <time>2020-03-07T11:20:16Z</time>
      </trkpt>
      <trkpt lat="47.02187" lon="-1.74749">
        <ele>19.41</ele>
        <time>2020-03-07T11:20:18Z</time>
      </trkpt>
      <trkpt lat="47.0219" lon="-1.74724">
        <ele>18.95</ele>
        <time>2020-03-07T11:20:20Z</time>
      </trkpt>
      <trkpt lat="47.02192" lon="-1.74708">
        <ele>19.33</ele>
        <time>2020-03-07T11:20:22Z</time>
      </trkpt>
      <trkpt lat="47.02196" lon="-1.74691">
        <ele>20.13</ele>
        <time>2020-03-07T11:20:24Z</time>
      </trkpt>
      <trkpt lat="47.022" lon="-1.74673">
        <ele>19.66</ele>
        <time>2020-03-07T11:20:26Z</time>
      </trkpt>
      <trkpt lat="47.02202" lon="-1.74654">
        <ele>19.49</ele>
        <time>2020-03-07T11:20:28Z</time>
      </trkpt>
      <trkpt lat="47.02204" lon="-1.74633">
        <ele>20.77</ele>
        <time>2020-03-07T11:20:30Z</time>
      </trkpt>
      <trkpt lat="47.02204" lon="-1.74612">
        <ele>21.3</ele>
        <time>2020-03-07T11:20:32Z</time>
      </trkpt>
      <trkpt lat="47.02206" lon="-1.74597">
        <ele>22.4</ele>
        <time>2020-03-07T11:20:34Z</time>
      </trkpt>
      <trkpt lat="47.02209" lon="-1.7458">
        <ele>22.73</ele>
        <time>2020-03-07T11:20:36Z</time>
      </trkpt>
      <trkpt lat="47.02211" lon="-1.74566">
        <ele>21.48</ele>
        <time>2020-03-07T11:20:38Z</time>
      </trkpt>
      <trkpt lat="47.02213" lon="-1.7455">
        <ele>21.65</ele>
        <time>2020-03-07T11:20:40Z</time>
      </trkpt>
      <trkpt lat="47.02214" lon="-1.74536">
        <ele>21.69</ele>
        <time>2020-03-07T11:20:42Z</time>
      </trkpt>
      <trkpt lat="47.02217" lon="-1.74516">
        <ele>20.71</ele>
        <time>2020-03-07T11:20:44Z</time>
      </trkpt>
      <trkpt lat="47.0222" lon="-1.74495">
        <ele>20.29</ele>
        <time>2020-03-07T11:20:46Z</time>
      </trkpt>
      <trkpt lat="47.02221" lon="-1.74479">
        <ele>21.37</ele>
        <time>2020-03-07T11:20:48Z</time>
      </trkpt>
      <trkpt lat="47.02222" lon="-1.74463">
        <ele>21.38</ele>
        <time>2020-03-07T11:20:50Z</time>
      </trkpt>
      <trkpt lat="47.02224" lon="-1.7444">
        <ele>21.67</ele>
        <time>2020-03-07T11:20:52Z</time>
      </trkpt>
      <trkpt lat="47.02227" lon="-1.74421">
        <ele>21.51</ele>
        <time>2020-03-07T11:20:54Z</time>
      </trkpt>
      <trkpt lat="47.0223" lon="-1.74402">
        <ele>20.86</ele>
        <time>2020-03-07T11:20:56Z</time>
      </trkpt>
      <trkpt lat="47.02234" lon="-1.74387">
        <ele>19.55</ele>
        <time>2020-03-07T11:20:58Z</time>
      </trkpt>
      <trkpt lat="47.02238" lon="-1.74366">
        <ele>19.65</ele>
        <time>2020-03-07T11:21:00Z</time>
      </trkpt>
      <trkpt lat="47.02241" lon="-1.74347">
        <ele>20.33</ele>
        <time>2020-03-07T11:21:02Z</time>
      </trkpt>
      <trkpt lat="47.02243" lon="-1.7433">
        <ele>20.7</ele>
        <time>2020-03-07T11:21:04Z</time>
      </trkpt>
      <trkpt lat="47.02245" lon="-1.74315">
        <ele>23.67</ele>
        <time>2020-03-07T11:21:06Z</time>
      </trkpt>
      <trkpt lat="47.0225" lon="-1.74297">
        <ele>26</ele>
        <time>2020-03-07T11:21:08Z</time>
      </trkpt>
      <trkpt lat="47.02253" lon="-1.74281">
        <ele>27.47</ele>
        <time>2020-03-07T11:21:10Z</time>
      </trkpt>
      <trkpt lat="47.02255" lon="-1.74264">
        <ele>28.58</ele>
        <time>2020-03-07T11:21:12Z</time>
      </trkpt>
      <trkpt lat="47.02257" lon="-1.74246">
        <ele>29.7</ele>
        <time>2020-03-07T11:21:14Z</time>
      </trkpt>
      <trkpt lat="47.02261" lon="-1.74226">
        <ele>30.73</ele>
        <time>2020-03-07T11:21:16Z</time>
      </trkpt>
      <trkpt lat="47.02266" lon="-1.74211">
        <ele>31.52</ele>
        <time>2020-03-07T11:21:18Z</time>
      </trkpt>
      <trkpt lat="47.0227" lon="-1.74194">
        <ele>32.5</ele>
        <time>2020-03-07T11:21:20Z</time>
      </trkpt>
      <trkpt lat="47.02274" lon="-1.74177">
        <ele>31.92</ele>
        <time>2020-03-07T11:21:22Z</time>
      </trkpt>
      <trkpt lat="47.02277" lon="-1.7416">
        <ele>31.67</ele>
        <time>2020-03-07T11:21:24Z</time>
      </trkpt>
      <trkpt lat="47.02279" lon="-1.74144">
        <ele>30.52</ele>
        <time>2020-03-07T11:21:26Z</time>
      </trkpt>
      <trkpt lat="47.02282" lon="-1.74124">
        <ele>29.08</ele>
        <time>2020-03-07T11:21:28Z</time>
      </trkpt>
      <trkpt lat="47.02287" lon="-1.74105">
        <ele>29.39</ele>
        <time>2020-03-07T11:21:30Z</time>
      </trkpt>
      <trkpt lat="47.0229" lon="-1.7409">
        <ele>29.33</ele>
        <time>2020-03-07T11:21:32Z</time>
      </trkpt>
      <trkpt lat="47.02291" lon="-1.74071">
        <ele>28.84</ele>
        <time>2020-03-07T11:21:34Z</time>
      </trkpt>
      <trkpt lat="47.02292" lon="-1.74054">
        <ele>28.43</ele>
        <time>2020-03-07T11:21:36Z</time>
      </trkpt>
      <trkpt lat="47.02291" lon="-1.74037">
        <ele>27.79</ele>
        <time>2020-03-07T11:21:38Z</time>
      </trkpt>
      <trkpt lat="47.0229" lon="-1.74021">
        <ele>27.15</ele>
        <time>2020-03-07T11:21:40Z</time>
      </trkpt>
      <trkpt lat="47.02288" lon="-1.74004">
        <ele>26.73</ele>
        <time>2020-03-07T11:21:42Z</time>
      </trkpt>
      <trkpt lat="47.02286" lon="-1.73984">
        <ele>26.24</ele>
        <time>2020-03-07T11:21:44Z</time>
      </trkpt>
      <trkpt lat="47.02283" lon="-1.73966">
        <ele>25.02</ele>
        <time>2020-03-07T11:21:46Z</time>
      </trkpt>
      <trkpt lat="47.02282" lon="-1.73949">
        <ele>24.45</ele>
        <time>2020-03-07T11:21:48Z</time>
      </trkpt>
      <trkpt lat="47.02282" lon="-1.73929">
        <ele>24.57</ele>
        <time>2020-03-07T11:21:50Z</time>
      </trkpt>
      <trkpt lat="47.02283" lon="-1.7391">
        <ele>24.52</ele>
        <time>2020-03-07T11:21:52Z</time>
      </trkpt>
      <trkpt lat="47.02282" lon="-1.73894">
        <ele>24.83</ele>
        <time>2020-03-07T11:21:54Z</time>
      </trkpt>
      <trkpt lat="47.02282" lon="-1.73877">
        <ele>24.93</ele>
        <time>2020-03-07T11:21:57Z</time>
      </trkpt>
      <trkpt lat="47.02281" lon="-1.73863">
        <ele>24.44</ele>
        <time>2020-03-07T11:21:58Z</time>
      </trkpt>
      <trkpt lat="47.0228" lon="-1.7385">
        <ele>23.77</ele>
        <time>2020-03-07T11:22:01Z</time>
      </trkpt>
      <trkpt lat="47.02279" lon="-1.73836">
        <ele>23.68</ele>
        <time>2020-03-07T11:22:03Z</time>
      </trkpt>
      <trkpt lat="47.02278" lon="-1.73821">
        <ele>23.27</ele>
        <time>2020-03-07T11:22:05Z</time>
      </trkpt>
      <trkpt lat="47.02276" lon="-1.73803">
        <ele>24.61</ele>
        <time>2020-03-07T11:22:08Z</time>
      </trkpt>
      <trkpt lat="47.02275" lon="-1.73787">
        <ele>24.32</ele>
        <time>2020-03-07T11:22:11Z</time>
      </trkpt>
      <trkpt lat="47.02275" lon="-1.73768">
        <ele>24.11</ele>
        <time>2020-03-07T11:22:14Z</time>
      </trkpt>
      <trkpt lat="47.02276" lon="-1.73752">
        <ele>24.38</ele>
        <time>2020-03-07T11:22:17Z</time>
      </trkpt>
      <trkpt lat="47.02287" lon="-1.73747">
        <ele>24.52</ele>
        <time>2020-03-07T11:22:21Z</time>
      </trkpt>
      <trkpt lat="47.023" lon="-1.73745">
        <ele>25.59</ele>
        <time>2020-03-07T11:22:24Z</time>
      </trkpt>
      <trkpt lat="47.02309" lon="-1.73743">
        <ele>26.15</ele>
        <time>2020-03-07T11:22:26Z</time>
      </trkpt>
      <trkpt lat="47.0232" lon="-1.7374">
        <ele>28.07</ele>
        <time>2020-03-07T11:22:29Z</time>
      </trkpt>
      <trkpt lat="47.02333" lon="-1.73739">
        <ele>29.27</ele>
        <time>2020-03-07T11:22:31Z</time>
      </trkpt>
      <trkpt lat="47.02344" lon="-1.73736">
        <ele>29.56</ele>
        <time>2020-03-07T11:22:33Z</time>
      </trkpt>
      <trkpt lat="47.02355" lon="-1.73735">
        <ele>29.8</ele>
        <time>2020-03-07T11:22:35Z</time>
      </trkpt>
      <trkpt lat="47.02367" lon="-1.73733">
        <ele>30.55</ele>
        <time>2020-03-07T11:22:37Z</time>
      </trkpt>
      <trkpt lat="47.02379" lon="-1.7373">
        <ele>31.29</ele>
        <time>2020-03-07T11:22:39Z</time>
      </trkpt>
      <trkpt lat="47.02389" lon="-1.73729">
        <ele>31.38</ele>
        <time>2020-03-07T11:22:41Z</time>
      </trkpt>
      <trkpt lat="47.024" lon="-1.73727">
        <ele>29.77</ele>
        <time>2020-03-07T11:22:43Z</time>
      </trkpt>
      <trkpt lat="47.02411" lon="-1.73725">
        <ele>29.3</ele>
        <time>2020-03-07T11:22:45Z</time>
      </trkpt>
      <trkpt lat="47.02421" lon="-1.73723">
        <ele>29.82</ele>
        <time>2020-03-07T11:22:47Z</time>
      </trkpt>
      <trkpt lat="47.02434" lon="-1.73718">
        <ele>32.13</ele>
        <time>2020-03-07T11:22:50Z</time>
      </trkpt>
      <trkpt lat="47.02444" lon="-1.73715">
        <ele>33.43</ele>
        <time>2020-03-07T11:22:52Z</time>
      </trkpt>
      <trkpt lat="47.02456" lon="-1.73711">
        <ele>34.61</ele>
        <time>2020-03-07T11:22:54Z</time>
      </trkpt>
      <trkpt lat="47.02467" lon="-1.73709">
        <ele>36.59</ele>
        <time>2020-03-07T11:22:56Z</time>
      </trkpt>
      <trkpt lat="47.02479" lon="-1.73706">
        <ele>38.23</ele>
        <time>2020-03-07T11:22:58Z</time>
      </trkpt>
      <trkpt lat="47.0249" lon="-1.73705">
        <ele>40.2</ele>
        <time>2020-03-07T11:23:00Z</time>
      </trkpt>
      <trkpt lat="47.02504" lon="-1.73703">
        <ele>41.22</ele>
        <time>2020-03-07T11:23:02Z</time>
      </trkpt>
      <trkpt lat="47.0252" lon="-1.737">
        <ele>41.54</ele>
        <time>2020-03-07T11:23:04Z</time>
      </trkpt>
      <trkpt lat="47.02533" lon="-1.73698">
        <ele>41.63</ele>
        <time>2020-03-07T11:23:06Z</time>
      </trkpt>
      <trkpt lat="47.02543" lon="-1.73696">
        <ele>40.91</ele>
        <time>2020-03-07T11:23:08Z</time>
      </trkpt>
      <trkpt lat="47.02555" lon="-1.73693">
        <ele>41.23</ele>
        <time>2020-03-07T11:23:10Z</time>
      </trkpt>
      <trkpt lat="47.02567" lon="-1.73692">
        <ele>40.24</ele>
        <time>2020-03-07T11:23:12Z</time>
      </trkpt>
      <trkpt lat="47.02579" lon="-1.7369">
        <ele>40.27</ele>
        <time>2020-03-07T11:23:14Z</time>
      </trkpt>
      <trkpt lat="47.02592" lon="-1.7369">
        <ele>39.98</ele>
        <time>2020-03-07T11:23:16Z</time>
      </trkpt>
      <trkpt lat="47.02602" lon="-1.73686">
        <ele>39.75</ele>
        <time>2020-03-07T11:23:18Z</time>
      </trkpt>
      <trkpt lat="47.02614" lon="-1.73685">
        <ele>40.24</ele>
        <time>2020-03-07T11:23:20Z</time>
      </trkpt>
      <trkpt lat="47.02628" lon="-1.73682">
        <ele>40.35</ele>
        <time>2020-03-07T11:23:22Z</time>
      </trkpt>
      <trkpt lat="47.0264" lon="-1.73681">
        <ele>39.85</ele>
        <time>2020-03-07T11:23:24Z</time>
      </trkpt>
      <trkpt lat="47.02653" lon="-1.73679">
        <ele>39.32</ele>
        <time>2020-03-07T11:23:26Z</time>
      </trkpt>
      <trkpt lat="47.02666" lon="-1.73677">
        <ele>37.2</ele>
        <time>2020-03-07T11:23:28Z</time>
      </trkpt>
      <trkpt lat="47.02675" lon="-1.73673">
        <ele>36.2</ele>
        <time>2020-03-07T11:23:30Z</time>
      </trkpt>
      <trkpt lat="47.02687" lon="-1.7367">
        <ele>35.96</ele>
        <time>2020-03-07T11:23:32Z</time>
      </trkpt>
      <trkpt lat="47.02699" lon="-1.73667">
        <ele>34.73</ele>
        <time>2020-03-07T11:23:34Z</time>
      </trkpt>
      <trkpt lat="47.02713" lon="-1.73664">
        <ele>36.78</ele>
        <time>2020-03-07T11:23:36Z</time>
      </trkpt>
      <trkpt lat="47.02724" lon="-1.73662">
        <ele>37.8</ele>
        <time>2020-03-07T11:23:38Z</time>
      </trkpt>
      <trkpt lat="47.02735" lon="-1.73662">
        <ele>38.44</ele>
        <time>2020-03-07T11:23:40Z</time>
      </trkpt>
      <trkpt lat="47.02748" lon="-1.7366">
        <ele>38.48</ele>
        <time>2020-03-07T11:23:42Z</time>
      </trkpt>
      <trkpt lat="47.0276" lon="-1.73659">
        <ele>38.68</ele>
        <time>2020-03-07T11:23:44Z</time>
      </trkpt>
      <trkpt lat="47.02773" lon="-1.73655">
        <ele>37.87</ele>
        <time>2020-03-07T11:23:46Z</time>
      </trkpt>
      <trkpt lat="47.02785" lon="-1.73652">
        <ele>37.06</ele>
        <time>2020-03-07T11:23:48Z</time>
      </trkpt>
      <trkpt lat="47.02797" lon="-1.73648">
        <ele>35.49</ele>
        <time>2020-03-07T11:23:50Z</time>
      </trkpt>
      <trkpt lat="47.02811" lon="-1.73644">
        <ele>36.05</ele>
        <time>2020-03-07T11:23:52Z</time>
      </trkpt>
      <trkpt lat="47.02822" lon="-1.73642">
        <ele>36.66</ele>
        <time>2020-03-07T11:23:54Z</time>
      </trkpt>
      <trkpt lat="47.02834" lon="-1.7364">
        <ele>37.46</ele>
        <time>2020-03-07T11:23:56Z</time>
      </trkpt>
      <trkpt lat="47.02845" lon="-1.73638">
        <ele>38.14</ele>
        <time>2020-03-07T11:23:58Z</time>
      </trkpt>
      <trkpt lat="47.02858" lon="-1.73635">
        <ele>37.81</ele>
        <time>2020-03-07T11:24:00Z</time>
      </trkpt>
      <trkpt lat="47.02871" lon="-1.73632">
        <ele>38.47</ele>
        <time>2020-03-07T11:24:02Z</time>
      </trkpt>
      <trkpt lat="47.02881" lon="-1.73632">
        <ele>39.16</ele>
        <time>2020-03-07T11:24:04Z</time>
      </trkpt>
      <trkpt lat="47.02894" lon="-1.73629">
        <ele>37.56</ele>
        <time>2020-03-07T11:24:06Z</time>
      </trkpt>
      <trkpt lat="47.02907" lon="-1.73626">
        <ele>36.06</ele>
        <time>2020-03-07T11:24:08Z</time>
      </trkpt>
      <trkpt lat="47.02921" lon="-1.73624">
        <ele>35.69</ele>
        <time>2020-03-07T11:24:10Z</time>
      </trkpt>
      <trkpt lat="47.02935" lon="-1.73622">
        <ele>36.03</ele>
        <time>2020-03-07T11:24:12Z</time>
      </trkpt>
      <trkpt lat="47.02949" lon="-1.73618">
        <ele>36.09</ele>
        <time>2020-03-07T11:24:14Z</time>
      </trkpt>
      <trkpt lat="47.02962" lon="-1.73615">
        <ele>35.85</ele>
        <time>2020-03-07T11:24:16Z</time>
      </trkpt>
      <trkpt lat="47.02974" lon="-1.73612">
        <ele>35.55</ele>
        <time>2020-03-07T11:24:18Z</time>
      </trkpt>
      <trkpt lat="47.02988" lon="-1.73609">
        <ele>35.4</ele>
        <time>2020-03-07T11:24:20Z</time>
      </trkpt>
      <trkpt lat="47.03001" lon="-1.73606">
        <ele>35.93</ele>
        <time>2020-03-07T11:24:22Z</time>
      </trkpt>
      <trkpt lat="47.03011" lon="-1.73605">
        <ele>35.83</ele>
        <time>2020-03-07T11:24:24Z</time>
      </trkpt>
      <trkpt lat="47.03026" lon="-1.73602">
        <ele>35.59</ele>
        <time>2020-03-07T11:24:26Z</time>
      </trkpt>
      <trkpt lat="47.03038" lon="-1.736">
        <ele>36.28</ele>
        <time>2020-03-07T11:24:28Z</time>
      </trkpt>
      <trkpt lat="47.0305" lon="-1.73597">
        <ele>36.74</ele>
        <time>2020-03-07T11:24:30Z</time>
      </trkpt>
      <trkpt lat="47.03064" lon="-1.73595">
        <ele>37.23</ele>
        <time>2020-03-07T11:24:32Z</time>
      </trkpt>
      <trkpt lat="47.03076" lon="-1.73593">
        <ele>37.94</ele>
        <time>2020-03-07T11:24:34Z</time>
      </trkpt>
      <trkpt lat="47.03089" lon="-1.73591">
        <ele>37.67</ele>
        <time>2020-03-07T11:24:36Z</time>
      </trkpt>
      <trkpt lat="47.03101" lon="-1.73589">
        <ele>37.36</ele>
        <time>2020-03-07T11:24:38Z</time>
      </trkpt>
      <trkpt lat="47.03114" lon="-1.73586">
        <ele>36.98</ele>
        <time>2020-03-07T11:24:40Z</time>
      </trkpt>
      <trkpt lat="47.03126" lon="-1.73583">
        <ele>37.01</ele>
        <time>2020-03-07T11:24:42Z</time>
      </trkpt>
      <trkpt lat="47.03138" lon="-1.73582">
        <ele>36.14</ele>
        <time>2020-03-07T11:24:44Z</time>
      </trkpt>
      <trkpt lat="47.0315" lon="-1.73581">
        <ele>35.42</ele>
        <time>2020-03-07T11:24:46Z</time>
      </trkpt>
      <trkpt lat="47.03162" lon="-1.73581">
        <ele>35.59</ele>
        <time>2020-03-07T11:24:48Z</time>
      </trkpt>
      <trkpt lat="47.03172" lon="-1.73582">
        <ele>35.59</ele>
        <time>2020-03-07T11:24:50Z</time>
      </trkpt>
      <trkpt lat="47.03187" lon="-1.73584">
        <ele>35.22</ele>
        <time>2020-03-07T11:24:52Z</time>
      </trkpt>
      <trkpt lat="47.032" lon="-1.73588">
        <ele>34.98</ele>
        <time>2020-03-07T11:24:54Z</time>
      </trkpt>
      <trkpt lat="47.03212" lon="-1.73593">
        <ele>35.13</ele>
        <time>2020-03-07T11:24:56Z</time>
      </trkpt>
      <trkpt lat="47.03223" lon="-1.73598">
        <ele>35.63</ele>
        <time>2020-03-07T11:24:58Z</time>
      </trkpt>
      <trkpt lat="47.03234" lon="-1.73605">
        <ele>36.48</ele>
        <time>2020-03-07T11:25:00Z</time>
      </trkpt>
      <trkpt lat="47.03245" lon="-1.73613">
        <ele>37.32</ele>
        <time>2020-03-07T11:25:02Z</time>
      </trkpt>
      <trkpt lat="47.03257" lon="-1.73619">
        <ele>37.8</ele>
        <time>2020-03-07T11:25:04Z</time>
      </trkpt>
      <trkpt lat="47.03272" lon="-1.73627">
        <ele>38.37</ele>
        <time>2020-03-07T11:25:06Z</time>
      </trkpt>
      <trkpt lat="47.03285" lon="-1.73635">
        <ele>38.53</ele>
        <time>2020-03-07T11:25:08Z</time>
      </trkpt>
      <trkpt lat="47.03298" lon="-1.73643">
        <ele>37.77</ele>
        <time>2020-03-07T11:25:10Z</time>
      </trkpt>
      <trkpt lat="47.03311" lon="-1.73652">
        <ele>36.14</ele>
        <time>2020-03-07T11:25:12Z</time>
      </trkpt>
      <trkpt lat="47.03325" lon="-1.7366">
        <ele>35.66</ele>
        <time>2020-03-07T11:25:14Z</time>
      </trkpt>
      <trkpt lat="47.03339" lon="-1.73668">
        <ele>36.28</ele>
        <time>2020-03-07T11:25:16Z</time>
      </trkpt>
      <trkpt lat="47.03353" lon="-1.73676">
        <ele>35.76</ele>
        <time>2020-03-07T11:25:18Z</time>
      </trkpt>
      <trkpt lat="47.03367" lon="-1.73684">
        <ele>34.74</ele>
        <time>2020-03-07T11:25:20Z</time>
      </trkpt>
      <trkpt lat="47.03381" lon="-1.73692">
        <ele>34.75</ele>
        <time>2020-03-07T11:25:22Z</time>
      </trkpt>
      <trkpt lat="47.03394" lon="-1.73701">
        <ele>33.54</ele>
        <time>2020-03-07T11:25:24Z</time>
      </trkpt>
      <trkpt lat="47.03406" lon="-1.73707">
        <ele>33.15</ele>
        <time>2020-03-07T11:25:26Z</time>
      </trkpt>
      <trkpt lat="47.0342" lon="-1.73714">
        <ele>34.38</ele>
        <time>2020-03-07T11:25:28Z</time>
      </trkpt>
      <trkpt lat="47.03433" lon="-1.73722">
        <ele>35.24</ele>
        <time>2020-03-07T11:25:30Z</time>
      </trkpt>
      <trkpt lat="47.03448" lon="-1.73731">
        <ele>35.68</ele>
        <time>2020-03-07T11:25:32Z</time>
      </trkpt>
      <trkpt lat="47.03462" lon="-1.73738">
        <ele>34.56</ele>
        <time>2020-03-07T11:25:34Z</time>
      </trkpt>
      <trkpt lat="47.03475" lon="-1.73744">
        <ele>34.43</ele>
        <time>2020-03-07T11:25:36Z</time>
      </trkpt>
      <trkpt lat="47.03488" lon="-1.73749">
        <ele>34.06</ele>
        <time>2020-03-07T11:25:38Z</time>
      </trkpt>
      <trkpt lat="47.03502" lon="-1.73754">
        <ele>34.36</ele>
        <time>2020-03-07T11:25:40Z</time>
      </trkpt>
      <trkpt lat="47.03517" lon="-1.7376">
        <ele>34.04</ele>
        <time>2020-03-07T11:25:42Z</time>
      </trkpt>
      <trkpt lat="47.03531" lon="-1.73765">
        <ele>33.73</ele>
        <time>2020-03-07T11:25:44Z</time>
      </trkpt>
      <trkpt lat="47.03546" lon="-1.7377">
        <ele>32.41</ele>
        <time>2020-03-07T11:25:46Z</time>
      </trkpt>
      <trkpt lat="47.03559" lon="-1.73774">
        <ele>31.99</ele>
        <time>2020-03-07T11:25:48Z</time>
      </trkpt>
      <trkpt lat="47.03573" lon="-1.73778">
        <ele>31.56</ele>
        <time>2020-03-07T11:25:50Z</time>
      </trkpt>
      <trkpt lat="47.03586" lon="-1.73783">
        <ele>30.85</ele>
        <time>2020-03-07T11:25:52Z</time>
      </trkpt>
      <trkpt lat="47.036" lon="-1.73789">
        <ele>30.87</ele>
        <time>2020-03-07T11:25:54Z</time>
      </trkpt>
      <trkpt lat="47.03615" lon="-1.73795">
        <ele>30.96</ele>
        <time>2020-03-07T11:25:56Z</time>
      </trkpt>
      <trkpt lat="47.0363" lon="-1.73801">
        <ele>30.22</ele>
        <time>2020-03-07T11:25:58Z</time>
      </trkpt>
      <trkpt lat="47.03644" lon="-1.73806">
        <ele>29.54</ele>
        <time>2020-03-07T11:26:00Z</time>
      </trkpt>
      <trkpt lat="47.0366" lon="-1.73812">
        <ele>29.31</ele>
        <time>2020-03-07T11:26:02Z</time>
      </trkpt>
      <trkpt lat="47.03673" lon="-1.73816">
        <ele>29.61</ele>
        <time>2020-03-07T11:26:04Z</time>
      </trkpt>
      <trkpt lat="47.03687" lon="-1.73818">
        <ele>30.31</ele>
        <time>2020-03-07T11:26:06Z</time>
      </trkpt>
      <trkpt lat="47.03703" lon="-1.73819">
        <ele>30.9</ele>
        <time>2020-03-07T11:26:08Z</time>
      </trkpt>
      <trkpt lat="47.03719" lon="-1.73817">
        <ele>30.98</ele>
        <time>2020-03-07T11:26:10Z</time>
      </trkpt>
      <trkpt lat="47.03732" lon="-1.73815">
        <ele>30.98</ele>
        <time>2020-03-07T11:26:12Z</time>
      </trkpt>
      <trkpt lat="47.03746" lon="-1.73812">
        <ele>32.68</ele>
        <time>2020-03-07T11:26:14Z</time>
      </trkpt>
      <trkpt lat="47.0376" lon="-1.7381">
        <ele>35.17</ele>
        <time>2020-03-07T11:26:16Z</time>
      </trkpt>
      <trkpt lat="47.03774" lon="-1.7381">
        <ele>35.95</ele>
        <time>2020-03-07T11:26:18Z</time>
      </trkpt>
      <trkpt lat="47.03786" lon="-1.7381">
        <ele>37.24</ele>
        <time>2020-03-07T11:26:20Z</time>
      </trkpt>
      <trkpt lat="47.03801" lon="-1.73809">
        <ele>37.82</ele>
        <time>2020-03-07T11:26:22Z</time>
      </trkpt>
      <trkpt lat="47.03816" lon="-1.73807">
        <ele>37.87</ele>
        <time>2020-03-07T11:26:24Z</time>
      </trkpt>
      <trkpt lat="47.03832" lon="-1.73803">
        <ele>38.21</ele>
        <time>2020-03-07T11:26:26Z</time>
      </trkpt>
      <trkpt lat="47.03846" lon="-1.73798">
        <ele>38.19</ele>
        <time>2020-03-07T11:26:28Z</time>
      </trkpt>
      <trkpt lat="47.03861" lon="-1.73793">
        <ele>38.15</ele>
        <time>2020-03-07T11:26:30Z</time>
      </trkpt>
      <trkpt lat="47.03875" lon="-1.73786">
        <ele>37.38</ele>
        <time>2020-03-07T11:26:32Z</time>
      </trkpt>
      <trkpt lat="47.03887" lon="-1.73777">
        <ele>36.22</ele>
        <time>2020-03-07T11:26:34Z</time>
      </trkpt>
      <trkpt lat="47.03901" lon="-1.73767">
        <ele>34.34</ele>
        <time>2020-03-07T11:26:36Z</time>
      </trkpt>
      <trkpt lat="47.03913" lon="-1.73756">
        <ele>33.55</ele>
        <time>2020-03-07T11:26:38Z</time>
      </trkpt>
      <trkpt lat="47.03926" lon="-1.73745">
        <ele>33.4</ele>
        <time>2020-03-07T11:26:40Z</time>
      </trkpt>
      <trkpt lat="47.03938" lon="-1.73733">
        <ele>32.85</ele>
        <time>2020-03-07T11:26:42Z</time>
      </trkpt>
      <trkpt lat="47.03949" lon="-1.73722">
        <ele>33.5</ele>
        <time>2020-03-07T11:26:44Z</time>
      </trkpt>
      <trkpt lat="47.03961" lon="-1.73709">
        <ele>34.02</ele>
        <time>2020-03-07T11:26:46Z</time>
      </trkpt>
      <trkpt lat="47.03973" lon="-1.73696">
        <ele>34.18</ele>
        <time>2020-03-07T11:26:48Z</time>
      </trkpt>
      <trkpt lat="47.03985" lon="-1.73683">
        <ele>34.13</ele>
        <time>2020-03-07T11:26:50Z</time>
      </trkpt>
      <trkpt lat="47.03996" lon="-1.73671">
        <ele>33.81</ele>
        <time>2020-03-07T11:26:52Z</time>
      </trkpt>
      <trkpt lat="47.04009" lon="-1.7366">
        <ele>33.96</ele>
        <time>2020-03-07T11:26:54Z</time>
      </trkpt>
      <trkpt lat="47.04019" lon="-1.7365">
        <ele>34.04</ele>
        <time>2020-03-07T11:26:56Z</time>
      </trkpt>
      <trkpt lat="47.04031" lon="-1.73639">
        <ele>34.53</ele>
        <time>2020-03-07T11:26:58Z</time>
      </trkpt>
      <trkpt lat="47.04042" lon="-1.73627">
        <ele>35.09</ele>
        <time>2020-03-07T11:27:00Z</time>
      </trkpt>
      <trkpt lat="47.04055" lon="-1.73613">
        <ele>35.99</ele>
        <time>2020-03-07T11:27:02Z</time>
      </trkpt>
      <trkpt lat="47.04068" lon="-1.73601">
        <ele>36.23</ele>
        <time>2020-03-07T11:27:04Z</time>
      </trkpt>
      <trkpt lat="47.04081" lon="-1.73589">
        <ele>36.28</ele>
        <time>2020-03-07T11:27:06Z</time>
      </trkpt>
      <trkpt lat="47.04092" lon="-1.73577">
        <ele>36.37</ele>
        <time>2020-03-07T11:27:08Z</time>
      </trkpt>
      <trkpt lat="47.04103" lon="-1.73566">
        <ele>36.26</ele>
        <time>2020-03-07T11:27:10Z</time>
      </trkpt>
      <trkpt lat="47.04115" lon="-1.73556">
        <ele>36.87</ele>
        <time>2020-03-07T11:27:12Z</time>
      </trkpt>
      <trkpt lat="47.04127" lon="-1.73544">
        <ele>37.17</ele>
        <time>2020-03-07T11:27:14Z</time>
      </trkpt>
      <trkpt lat="47.04139" lon="-1.73532">
        <ele>37.16</ele>
        <time>2020-03-07T11:27:16Z</time>
      </trkpt>
      <trkpt lat="47.0415" lon="-1.73523">
        <ele>37.39</ele>
        <time>2020-03-07T11:27:18Z</time>
      </trkpt>
      <trkpt lat="47.04161" lon="-1.73511">
        <ele>37.89</ele>
        <time>2020-03-07T11:27:20Z</time>
      </trkpt>
      <trkpt lat="47.04171" lon="-1.73501">
        <ele>38.49</ele>
        <time>2020-03-07T11:27:22Z</time>
      </trkpt>
      <trkpt lat="47.04182" lon="-1.73491">
        <ele>38.82</ele>
        <time>2020-03-07T11:27:24Z</time>
      </trkpt>
      <trkpt lat="47.04193" lon="-1.73479">
        <ele>38.55</ele>
        <time>2020-03-07T11:27:26Z</time>
      </trkpt>
      <trkpt lat="47.04205" lon="-1.73467">
        <ele>38.39</ele>
        <time>2020-03-07T11:27:28Z</time>
      </trkpt>
      <trkpt lat="47.04216" lon="-1.73456">
        <ele>38.63</ele>
        <time>2020-03-07T11:27:30Z</time>
      </trkpt>
      <trkpt lat="47.04226" lon="-1.73445">
        <ele>38.29</ele>
        <time>2020-03-07T11:27:32Z</time>
      </trkpt>
      <trkpt lat="47.04234" lon="-1.73437">
        <ele>37.92</ele>
        <time>2020-03-07T11:27:34Z</time>
      </trkpt>
      <trkpt lat="47.04247" lon="-1.73423">
        <ele>37.88</ele>
        <time>2020-03-07T11:27:36Z</time>
      </trkpt>
      <trkpt lat="47.04258" lon="-1.73413">
        <ele>37.39</ele>
        <time>2020-03-07T11:27:38Z</time>
      </trkpt>
      <trkpt lat="47.04268" lon="-1.73401">
        <ele>37.65</ele>
        <time>2020-03-07T11:27:40Z</time>
      </trkpt>
      <trkpt lat="47.04278" lon="-1.73392">
        <ele>37.73</ele>
        <time>2020-03-07T11:27:42Z</time>
      </trkpt>
      <trkpt lat="47.04289" lon="-1.73381">
        <ele>39.6</ele>
        <time>2020-03-07T11:27:44Z</time>
      </trkpt>
      <trkpt lat="47.04298" lon="-1.73372">
        <ele>40.29</ele>
        <time>2020-03-07T11:27:46Z</time>
      </trkpt>
      <trkpt lat="47.0431" lon="-1.73361">
        <ele>39.68</ele>
        <time>2020-03-07T11:27:48Z</time>
      </trkpt>
      <trkpt lat="47.0432" lon="-1.73351">
        <ele>39.44</ele>
        <time>2020-03-07T11:27:50Z</time>
      </trkpt>
      <trkpt lat="47.04331" lon="-1.7334">
        <ele>39.31</ele>
        <time>2020-03-07T11:27:52Z</time>
      </trkpt>
      <trkpt lat="47.04341" lon="-1.7333">
        <ele>38.64</ele>
        <time>2020-03-07T11:27:54Z</time>
      </trkpt>
      <trkpt lat="47.04351" lon="-1.73319">
        <ele>38.15</ele>
        <time>2020-03-07T11:27:56Z</time>
      </trkpt>
      <trkpt lat="47.04362" lon="-1.73307">
        <ele>38.9</ele>
        <time>2020-03-07T11:27:58Z</time>
      </trkpt>
      <trkpt lat="47.04373" lon="-1.73297">
        <ele>39.55</ele>
        <time>2020-03-07T11:28:00Z</time>
      </trkpt>
      <trkpt lat="47.04383" lon="-1.73286">
        <ele>41.03</ele>
        <time>2020-03-07T11:28:02Z</time>
      </trkpt>
      <trkpt lat="47.04394" lon="-1.73273">
        <ele>41.92</ele>
        <time>2020-03-07T11:28:04Z</time>
      </trkpt>
      <trkpt lat="47.04404" lon="-1.73261">
        <ele>41.8</ele>
        <time>2020-03-07T11:28:06Z</time>
      </trkpt>
      <trkpt lat="47.04415" lon="-1.73247">
        <ele>41.67</ele>
        <time>2020-03-07T11:28:08Z</time>
      </trkpt>
      <trkpt lat="47.04423" lon="-1.73236">
        <ele>40.87</ele>
        <time>2020-03-07T11:28:10Z</time>
      </trkpt>
      <trkpt lat="47.04433" lon="-1.73222">
        <ele>39.75</ele>
        <time>2020-03-07T11:28:12Z</time>
      </trkpt>
      <trkpt lat="47.04442" lon="-1.73208">
        <ele>39.43</ele>
        <time>2020-03-07T11:28:14Z</time>
      </trkpt>
      <trkpt lat="47.04451" lon="-1.73196">
        <ele>39.31</ele>
        <time>2020-03-07T11:28:16Z</time>
      </trkpt>
      <trkpt lat="47.0446" lon="-1.73182">
        <ele>40.76</ele>
        <time>2020-03-07T11:28:18Z</time>
      </trkpt>
      <trkpt lat="47.0447" lon="-1.73169">
        <ele>41.5</ele>
        <time>2020-03-07T11:28:20Z</time>
      </trkpt>
      <trkpt lat="47.0448" lon="-1.73155">
        <ele>41.77</ele>
        <time>2020-03-07T11:28:22Z</time>
      </trkpt>
      <trkpt lat="47.04491" lon="-1.73142">
        <ele>39.99</ele>
        <time>2020-03-07T11:28:24Z</time>
      </trkpt>
      <trkpt lat="47.045" lon="-1.73129">
        <ele>40.48</ele>
        <time>2020-03-07T11:28:26Z</time>
      </trkpt>
      <trkpt lat="47.04509" lon="-1.73116">
        <ele>41.19</ele>
        <time>2020-03-07T11:28:28Z</time>
      </trkpt>
      <trkpt lat="47.04518" lon="-1.73102">
        <ele>41.18</ele>
        <time>2020-03-07T11:28:30Z</time>
      </trkpt>
      <trkpt lat="47.04526" lon="-1.73089">
        <ele>41.12</ele>
        <time>2020-03-07T11:28:32Z</time>
      </trkpt>
      <trkpt lat="47.04537" lon="-1.73074">
        <ele>42</ele>
        <time>2020-03-07T11:28:34Z</time>
      </trkpt>
      <trkpt lat="47.04548" lon="-1.73062">
        <ele>42.28</ele>
        <time>2020-03-07T11:28:36Z</time>
      </trkpt>
      <trkpt lat="47.04557" lon="-1.73049">
        <ele>41.41</ele>
        <time>2020-03-07T11:28:38Z</time>
      </trkpt>
      <trkpt lat="47.04567" lon="-1.73034">
        <ele>41.59</ele>
        <time>2020-03-07T11:28:40Z</time>
      </trkpt>
      <trkpt lat="47.04576" lon="-1.73023">
        <ele>41.29</ele>
        <time>2020-03-07T11:28:42Z</time>
      </trkpt>
      <trkpt lat="47.04585" lon="-1.73009">
        <ele>40.45</ele>
        <time>2020-03-07T11:28:44Z</time>
      </trkpt>
      <trkpt lat="47.04594" lon="-1.72997">
        <ele>41.02</ele>
        <time>2020-03-07T11:28:46Z</time>
      </trkpt>
      <trkpt lat="47.04604" lon="-1.72984">
        <ele>41.63</ele>
        <time>2020-03-07T11:28:48Z</time>
      </trkpt>
      <trkpt lat="47.04612" lon="-1.72971">
        <ele>41.49</ele>
        <time>2020-03-07T11:28:50Z</time>
      </trkpt>
      <trkpt lat="47.04622" lon="-1.72958">
        <ele>40.76</ele>
        <time>2020-03-07T11:28:52Z</time>
      </trkpt>
      <trkpt lat="47.04631" lon="-1.72946">
        <ele>40.18</ele>
        <time>2020-03-07T11:28:54Z</time>
      </trkpt>
      <trkpt lat="47.04641" lon="-1.72933">
        <ele>40.01</ele>
        <time>2020-03-07T11:28:56Z</time>
      </trkpt>
      <trkpt lat="47.04651" lon="-1.72919">
        <ele>40.46</ele>
        <time>2020-03-07T11:28:58Z</time>
      </trkpt>
      <trkpt lat="47.04661" lon="-1.72906">
        <ele>40.35</ele>
        <time>2020-03-07T11:29:00Z</time>
      </trkpt>
      <trkpt lat="47.04673" lon="-1.72892">
        <ele>40.82</ele>
        <time>2020-03-07T11:29:02Z</time>
      </trkpt>
      <trkpt lat="47.04685" lon="-1.72879">
        <ele>40.47</ele>
        <time>2020-03-07T11:29:04Z</time>
      </trkpt>
      <trkpt lat="47.04697" lon="-1.72867">
        <ele>39.68</ele>
        <time>2020-03-07T11:29:06Z</time>
      </trkpt>
      <trkpt lat="47.04711" lon="-1.72856">
        <ele>39.78</ele>
        <time>2020-03-07T11:29:08Z</time>
      </trkpt>
      <trkpt lat="47.0472" lon="-1.72849">
        <ele>39.93</ele>
        <time>2020-03-07T11:29:09Z</time>
      </trkpt>
      <trkpt lat="47.04733" lon="-1.72838">
        <ele>40.06</ele>
        <time>2020-03-07T11:29:11Z</time>
      </trkpt>
      <trkpt lat="47.04748" lon="-1.72826">
        <ele>39.19</ele>
        <time>2020-03-07T11:29:13Z</time>
      </trkpt>
      <trkpt lat="47.04762" lon="-1.72817">
        <ele>38.04</ele>
        <time>2020-03-07T11:29:15Z</time>
      </trkpt>
      <trkpt lat="47.04776" lon="-1.7281">
        <ele>36.89</ele>
        <time>2020-03-07T11:29:17Z</time>
      </trkpt>
      <trkpt lat="47.0479" lon="-1.72805">
        <ele>36.41</ele>
        <time>2020-03-07T11:29:19Z</time>
      </trkpt>
      <trkpt lat="47.048" lon="-1.72801">
        <ele>36.17</ele>
        <time>2020-03-07T11:29:21Z</time>
      </trkpt>
      <trkpt lat="47.0481" lon="-1.72811">
        <ele>36.13</ele>
        <time>2020-03-07T11:29:25Z</time>
      </trkpt>
      <trkpt lat="47.04815" lon="-1.72825">
        <ele>36.15</ele>
        <time>2020-03-07T11:29:29Z</time>
      </trkpt>
      <trkpt lat="47.04818" lon="-1.72843">
        <ele>35.15</ele>
        <time>2020-03-07T11:29:32Z</time>
      </trkpt>
      <trkpt lat="47.04822" lon="-1.72857">
        <ele>35.2</ele>
        <time>2020-03-07T11:29:34Z</time>
      </trkpt>
      <trkpt lat="47.04825" lon="-1.7287">
        <ele>35.19</ele>
        <time>2020-03-07T11:29:36Z</time>
      </trkpt>
      <trkpt lat="47.04829" lon="-1.72885">
        <ele>36.11</ele>
        <time>2020-03-07T11:29:38Z</time>
      </trkpt>
      <trkpt lat="47.04833" lon="-1.72899">
        <ele>36.5</ele>
        <time>2020-03-07T11:29:40Z</time>
      </trkpt>
      <trkpt lat="47.04837" lon="-1.72913">
        <ele>36.69</ele>
        <time>2020-03-07T11:29:42Z</time>
      </trkpt>
      <trkpt lat="47.04843" lon="-1.72928">
        <ele>36.79</ele>
        <time>2020-03-07T11:29:44Z</time>
      </trkpt>
      <trkpt lat="47.04848" lon="-1.7294">
        <ele>37.24</ele>
        <time>2020-03-07T11:29:46Z</time>
      </trkpt>
      <trkpt lat="47.04853" lon="-1.72955">
        <ele>37.18</ele>
        <time>2020-03-07T11:29:48Z</time>
      </trkpt>
      <trkpt lat="47.04858" lon="-1.72967">
        <ele>37.77</ele>
        <time>2020-03-07T11:29:50Z</time>
      </trkpt>
      <trkpt lat="47.04863" lon="-1.72979">
        <ele>39.05</ele>
        <time>2020-03-07T11:29:52Z</time>
      </trkpt>
      <trkpt lat="47.04869" lon="-1.72994">
        <ele>38.77</ele>
        <time>2020-03-07T11:29:54Z</time>
      </trkpt>
      <trkpt lat="47.04875" lon="-1.73008">
        <ele>38.17</ele>
        <time>2020-03-07T11:29:56Z</time>
      </trkpt>
      <trkpt lat="47.04881" lon="-1.73021">
        <ele>37.49</ele>
        <time>2020-03-07T11:29:58Z</time>
      </trkpt>
      <trkpt lat="47.04887" lon="-1.73034">
        <ele>37.57</ele>
        <time>2020-03-07T11:30:00Z</time>
      </trkpt>
      <trkpt lat="47.04893" lon="-1.73047">
        <ele>37.42</ele>
        <time>2020-03-07T11:30:02Z</time>
      </trkpt>
      <trkpt lat="47.049" lon="-1.73064">
        <ele>37.3</ele>
        <time>2020-03-07T11:30:04Z</time>
      </trkpt>
      <trkpt lat="47.04906" lon="-1.73081">
        <ele>37.45</ele>
        <time>2020-03-07T11:30:06Z</time>
      </trkpt>
      <trkpt lat="47.04911" lon="-1.73097">
        <ele>37.04</ele>
        <time>2020-03-07T11:30:08Z</time>
      </trkpt>
      <trkpt lat="47.04913" lon="-1.73112">
        <ele>36.73</ele>
        <time>2020-03-07T11:30:10Z</time>
      </trkpt>
      <trkpt lat="47.04916" lon="-1.73128">
        <ele>36.1</ele>
        <time>2020-03-07T11:30:12Z</time>
      </trkpt>
      <trkpt lat="47.04918" lon="-1.73146">
        <ele>34.63</ele>
        <time>2020-03-07T11:30:14Z</time>
      </trkpt>
      <trkpt lat="47.04918" lon="-1.73163">
        <ele>33.65</ele>
        <time>2020-03-07T11:30:16Z</time>
      </trkpt>
      <trkpt lat="47.04917" lon="-1.73181">
        <ele>33.63</ele>
        <time>2020-03-07T11:30:18Z</time>
      </trkpt>
      <trkpt lat="47.04917" lon="-1.73202">
        <ele>34.57</ele>
        <time>2020-03-07T11:30:20Z</time>
      </trkpt>
      <trkpt lat="47.04919" lon="-1.73218">
        <ele>34.22</ele>
        <time>2020-03-07T11:30:22Z</time>
      </trkpt>
      <trkpt lat="47.04924" lon="-1.73231">
        <ele>33.09</ele>
        <time>2020-03-07T11:30:24Z</time>
      </trkpt>
      <trkpt lat="47.0493" lon="-1.73245">
        <ele>31.88</ele>
        <time>2020-03-07T11:30:26Z</time>
      </trkpt>
      <trkpt lat="47.04939" lon="-1.73262">
        <ele>32.64</ele>
        <time>2020-03-07T11:30:28Z</time>
      </trkpt>
      <trkpt lat="47.04948" lon="-1.7328">
        <ele>33.71</ele>
        <time>2020-03-07T11:30:30Z</time>
      </trkpt>
      <trkpt lat="47.04956" lon="-1.73295">
        <ele>33.83</ele>
        <time>2020-03-07T11:30:32Z</time>
      </trkpt>
      <trkpt lat="47.04964" lon="-1.73307">
        <ele>34.24</ele>
        <time>2020-03-07T11:30:34Z</time>
      </trkpt>
      <trkpt lat="47.04973" lon="-1.73324">
        <ele>35.3</ele>
        <time>2020-03-07T11:30:36Z</time>
      </trkpt>
      <trkpt lat="47.04981" lon="-1.73338">
        <ele>36.27</ele>
        <time>2020-03-07T11:30:38Z</time>
      </trkpt>
      <trkpt lat="47.0499" lon="-1.73355">
        <ele>37.26</ele>
        <time>2020-03-07T11:30:40Z</time>
      </trkpt>
      <trkpt lat="47.04999" lon="-1.73373">
        <ele>38.68</ele>
        <time>2020-03-07T11:30:43Z</time>
      </trkpt>
      <trkpt lat="47.05007" lon="-1.73387">
        <ele>38.22</ele>
        <time>2020-03-07T11:30:45Z</time>
      </trkpt>
      <trkpt lat="47.05016" lon="-1.73402">
        <ele>39.11</ele>
        <time>2020-03-07T11:30:47Z</time>
      </trkpt>
      <trkpt lat="47.05024" lon="-1.73418">
        <ele>38.12</ele>
        <time>2020-03-07T11:30:49Z</time>
      </trkpt>
      <trkpt lat="47.05031" lon="-1.73432">
        <ele>36.93</ele>
        <time>2020-03-07T11:30:51Z</time>
      </trkpt>
      <trkpt lat="47.05039" lon="-1.73447">
        <ele>35.98</ele>
        <time>2020-03-07T11:30:53Z</time>
      </trkpt>
      <trkpt lat="47.05047" lon="-1.73461">
        <ele>35.45</ele>
        <time>2020-03-07T11:30:55Z</time>
      </trkpt>
      <trkpt lat="47.05053" lon="-1.73476">
        <ele>35.45</ele>
        <time>2020-03-07T11:30:57Z</time>
      </trkpt>
      <trkpt lat="47.05062" lon="-1.73491">
        <ele>35.23</ele>
        <time>2020-03-07T11:30:59Z</time>
      </trkpt>
      <trkpt lat="47.05071" lon="-1.73507">
        <ele>34.93</ele>
        <time>2020-03-07T11:31:01Z</time>
      </trkpt>
      <trkpt lat="47.05077" lon="-1.73521">
        <ele>33.95</ele>
        <time>2020-03-07T11:31:03Z</time>
      </trkpt>
      <trkpt lat="47.05085" lon="-1.73535">
        <ele>34.29</ele>
        <time>2020-03-07T11:31:05Z</time>
      </trkpt>
      <trkpt lat="47.05091" lon="-1.73547">
        <ele>33.78</ele>
        <time>2020-03-07T11:31:07Z</time>
      </trkpt>
      <trkpt lat="47.05099" lon="-1.73561">
        <ele>34.3</ele>
        <time>2020-03-07T11:31:09Z</time>
      </trkpt>
      <trkpt lat="47.05106" lon="-1.73576">
        <ele>33.25</ele>
        <time>2020-03-07T11:31:11Z</time>
      </trkpt>
      <trkpt lat="47.05115" lon="-1.73591">
        <ele>32.65</ele>
        <time>2020-03-07T11:31:13Z</time>
      </trkpt>
      <trkpt lat="47.05125" lon="-1.73609">
        <ele>31.9</ele>
        <time>2020-03-07T11:31:15Z</time>
      </trkpt>
      <trkpt lat="47.05132" lon="-1.73621">
        <ele>32.15</ele>
        <time>2020-03-07T11:31:17Z</time>
      </trkpt>
      <trkpt lat="47.05138" lon="-1.73631">
        <ele>32.14</ele>
        <time>2020-03-07T11:31:18Z</time>
      </trkpt>
      <trkpt lat="47.05149" lon="-1.73648">
        <ele>31.85</ele>
        <time>2020-03-07T11:31:20Z</time>
      </trkpt>
      <trkpt lat="47.05158" lon="-1.73659">
        <ele>30.98</ele>
        <time>2020-03-07T11:31:22Z</time>
      </trkpt>
      <trkpt lat="47.0517" lon="-1.73671">
        <ele>30.38</ele>
        <time>2020-03-07T11:31:24Z</time>
      </trkpt>
      <trkpt lat="47.05182" lon="-1.73679">
        <ele>29.54</ele>
        <time>2020-03-07T11:31:26Z</time>
      </trkpt>
      <trkpt lat="47.05196" lon="-1.73687">
        <ele>28.9</ele>
        <time>2020-03-07T11:31:28Z</time>
      </trkpt>
      <trkpt lat="47.05207" lon="-1.73693">
        <ele>28.57</ele>
        <time>2020-03-07T11:31:30Z</time>
      </trkpt>
      <trkpt lat="47.05219" lon="-1.73694">
        <ele>28.38</ele>
        <time>2020-03-07T11:31:32Z</time>
      </trkpt>
      <trkpt lat="47.05229" lon="-1.73694">
        <ele>28.1</ele>
        <time>2020-03-07T11:31:35Z</time>
      </trkpt>
      <trkpt lat="47.05241" lon="-1.73701">
        <ele>28.16</ele>
        <time>2020-03-07T11:31:39Z</time>
      </trkpt>
      <trkpt lat="47.05242" lon="-1.73715">
        <ele>27.69</ele>
        <time>2020-03-07T11:31:41Z</time>
      </trkpt>
      <trkpt lat="47.05242" lon="-1.73734">
        <ele>26.87</ele>
        <time>2020-03-07T11:31:43Z</time>
      </trkpt>
      <trkpt lat="47.0524" lon="-1.7375">
        <ele>27.39</ele>
        <time>2020-03-07T11:31:45Z</time>
      </trkpt>
      <trkpt lat="47.0524" lon="-1.73764">
        <ele>26.22</ele>
        <time>2020-03-07T11:31:47Z</time>
      </trkpt>
      <trkpt lat="47.05239" lon="-1.73781">
        <ele>24.77</ele>
        <time>2020-03-07T11:31:49Z</time>
      </trkpt>
      <trkpt lat="47.05239" lon="-1.73794">
        <ele>25.17</ele>
        <time>2020-03-07T11:31:51Z</time>
      </trkpt>
      <trkpt lat="47.05238" lon="-1.73814">
        <ele>25.56</ele>
        <time>2020-03-07T11:31:53Z</time>
      </trkpt>
      <trkpt lat="47.05238" lon="-1.73831">
        <ele>26.22</ele>
        <time>2020-03-07T11:31:55Z</time>
      </trkpt>
      <trkpt lat="47.05238" lon="-1.73845">
        <ele>26.26</ele>
        <time>2020-03-07T11:31:57Z</time>
      </trkpt>
      <trkpt lat="47.05238" lon="-1.73863">
        <ele>24.49</ele>
        <time>2020-03-07T11:31:59Z</time>
      </trkpt>
      <trkpt lat="47.05238" lon="-1.73879">
        <ele>23.09</ele>
        <time>2020-03-07T11:32:01Z</time>
      </trkpt>
      <trkpt lat="47.05239" lon="-1.73898">
        <ele>22.65</ele>
        <time>2020-03-07T11:32:03Z</time>
      </trkpt>
      <trkpt lat="47.05239" lon="-1.73918">
        <ele>21.85</ele>
        <time>2020-03-07T11:32:05Z</time>
      </trkpt>
      <trkpt lat="47.0524" lon="-1.73932">
        <ele>22.02</ele>
        <time>2020-03-07T11:32:07Z</time>
      </trkpt>
      <trkpt lat="47.05239" lon="-1.73951">
        <ele>22.38</ele>
        <time>2020-03-07T11:32:09Z</time>
      </trkpt>
      <trkpt lat="47.05238" lon="-1.73968">
        <ele>23.05</ele>
        <time>2020-03-07T11:32:10Z</time>
      </trkpt>
      <trkpt lat="47.05238" lon="-1.73984">
        <ele>22.71</ele>
        <time>2020-03-07T11:32:12Z</time>
      </trkpt>
      <trkpt lat="47.05238" lon="-1.74002">
        <ele>22.74</ele>
        <time>2020-03-07T11:32:14Z</time>
      </trkpt>
      <trkpt lat="47.05237" lon="-1.74021">
        <ele>21.94</ele>
        <time>2020-03-07T11:32:16Z</time>
      </trkpt>
      <trkpt lat="47.05237" lon="-1.7404">
        <ele>20.94</ele>
        <time>2020-03-07T11:32:18Z</time>
      </trkpt>
      <trkpt lat="47.05236" lon="-1.74058">
        <ele>20</ele>
        <time>2020-03-07T11:32:20Z</time>
      </trkpt>
      <trkpt lat="47.05236" lon="-1.74074">
        <ele>20.11</ele>
        <time>2020-03-07T11:32:22Z</time>
      </trkpt>
      <trkpt lat="47.05236" lon="-1.74094">
        <ele>20.25</ele>
        <time>2020-03-07T11:32:24Z</time>
      </trkpt>
      <trkpt lat="47.05236" lon="-1.74111">
        <ele>20.55</ele>
        <time>2020-03-07T11:32:26Z</time>
      </trkpt>
      <trkpt lat="47.05236" lon="-1.7413">
        <ele>21.11</ele>
        <time>2020-03-07T11:32:28Z</time>
      </trkpt>
      <trkpt lat="47.05236" lon="-1.74149">
        <ele>21.84</ele>
        <time>2020-03-07T11:32:30Z</time>
      </trkpt>
      <trkpt lat="47.05235" lon="-1.74168">
        <ele>22.75</ele>
        <time>2020-03-07T11:32:32Z</time>
      </trkpt>
      <trkpt lat="47.05233" lon="-1.74186">
        <ele>21.96</ele>
        <time>2020-03-07T11:32:34Z</time>
      </trkpt>
      <trkpt lat="47.05233" lon="-1.74204">
        <ele>21.88</ele>
        <time>2020-03-07T11:32:36Z</time>
      </trkpt>
      <trkpt lat="47.05233" lon="-1.74226">
        <ele>21.32</ele>
        <time>2020-03-07T11:32:38Z</time>
      </trkpt>
      <trkpt lat="47.05232" lon="-1.74247">
        <ele>20.3</ele>
        <time>2020-03-07T11:32:40Z</time>
      </trkpt>
      <trkpt lat="47.05232" lon="-1.74269">
        <ele>19.25</ele>
        <time>2020-03-07T11:32:42Z</time>
      </trkpt>
      <trkpt lat="47.05231" lon="-1.74288">
        <ele>18.69</ele>
        <time>2020-03-07T11:32:44Z</time>
      </trkpt>
      <trkpt lat="47.05231" lon="-1.7431">
        <ele>19.26</ele>
        <time>2020-03-07T11:32:46Z</time>
      </trkpt>
      <trkpt lat="47.0523" lon="-1.74332">
        <ele>19.52</ele>
        <time>2020-03-07T11:32:48Z</time>
      </trkpt>
      <trkpt lat="47.05229" lon="-1.74352">
        <ele>19.08</ele>
        <time>2020-03-07T11:32:50Z</time>
      </trkpt>
      <trkpt lat="47.05229" lon="-1.74375">
        <ele>18.33</ele>
        <time>2020-03-07T11:32:52Z</time>
      </trkpt>
      <trkpt lat="47.05229" lon="-1.74398">
        <ele>17.22</ele>
        <time>2020-03-07T11:32:54Z</time>
      </trkpt>
      <trkpt lat="47.05229" lon="-1.74421">
        <ele>16.85</ele>
        <time>2020-03-07T11:32:56Z</time>
      </trkpt>
      <trkpt lat="47.05229" lon="-1.74444">
        <ele>15.89</ele>
        <time>2020-03-07T11:32:58Z</time>
      </trkpt>
      <trkpt lat="47.05231" lon="-1.7447">
        <ele>14.59</ele>
        <time>2020-03-07T11:33:00Z</time>
      </trkpt>
      <trkpt lat="47.05236" lon="-1.74493">
        <ele>13.11</ele>
        <time>2020-03-07T11:33:02Z</time>
      </trkpt>
      <trkpt lat="47.05242" lon="-1.74514">
        <ele>12.13</ele>
        <time>2020-03-07T11:33:04Z</time>
      </trkpt>
      <trkpt lat="47.05249" lon="-1.74537">
        <ele>11.17</ele>
        <time>2020-03-07T11:33:06Z</time>
      </trkpt>
      <trkpt lat="47.05258" lon="-1.74559">
        <ele>10.24</ele>
        <time>2020-03-07T11:33:08Z</time>
      </trkpt>
      <trkpt lat="47.05263" lon="-1.7457">
        <ele>9.56</ele>
        <time>2020-03-07T11:33:09Z</time>
      </trkpt>
      <trkpt lat="47.05271" lon="-1.74589">
        <ele>8.83</ele>
        <time>2020-03-07T11:33:11Z</time>
      </trkpt>
      <trkpt lat="47.05281" lon="-1.74609">
        <ele>9.27</ele>
        <time>2020-03-07T11:33:13Z</time>
      </trkpt>
      <trkpt lat="47.05289" lon="-1.74626">
        <ele>9.38</ele>
        <time>2020-03-07T11:33:15Z</time>
      </trkpt>
      <trkpt lat="47.05298" lon="-1.74646">
        <ele>9.53</ele>
        <time>2020-03-07T11:33:17Z</time>
      </trkpt>
      <trkpt lat="47.05304" lon="-1.74657">
        <ele>9.68</ele>
        <time>2020-03-07T11:33:18Z</time>
      </trkpt>
      <trkpt lat="47.05313" lon="-1.74677">
        <ele>9.32</ele>
        <time>2020-03-07T11:33:20Z</time>
      </trkpt>
      <trkpt lat="47.05322" lon="-1.74694">
        <ele>8.26</ele>
        <time>2020-03-07T11:33:22Z</time>
      </trkpt>
      <trkpt lat="47.05332" lon="-1.74712">
        <ele>8.48</ele>
        <time>2020-03-07T11:33:24Z</time>
      </trkpt>
      <trkpt lat="47.05341" lon="-1.74731">
        <ele>8.9</ele>
        <time>2020-03-07T11:33:26Z</time>
      </trkpt>
      <trkpt lat="47.05347" lon="-1.74742">
        <ele>9.11</ele>
        <time>2020-03-07T11:33:27Z</time>
      </trkpt>
      <trkpt lat="47.05357" lon="-1.7476">
        <ele>10.34</ele>
        <time>2020-03-07T11:33:29Z</time>
      </trkpt>
      <trkpt lat="47.05367" lon="-1.74773">
        <ele>11.1</ele>
        <time>2020-03-07T11:33:31Z</time>
      </trkpt>
      <trkpt lat="47.05378" lon="-1.74787">
        <ele>11.8</ele>
        <time>2020-03-07T11:33:33Z</time>
      </trkpt>
      <trkpt lat="47.05389" lon="-1.74798">
        <ele>12.21</ele>
        <time>2020-03-07T11:33:35Z</time>
      </trkpt>
      <trkpt lat="47.05402" lon="-1.7481">
        <ele>11.71</ele>
        <time>2020-03-07T11:33:37Z</time>
      </trkpt>
      <trkpt lat="47.05415" lon="-1.7482">
        <ele>11.24</ele>
        <time>2020-03-07T11:33:39Z</time>
      </trkpt>
      <trkpt lat="47.05429" lon="-1.74829">
        <ele>10.7</ele>
        <time>2020-03-07T11:33:41Z</time>
      </trkpt>
      <trkpt lat="47.05441" lon="-1.74839">
        <ele>10.7</ele>
        <time>2020-03-07T11:33:43Z</time>
      </trkpt>
      <trkpt lat="47.05452" lon="-1.74848">
        <ele>11.57</ele>
        <time>2020-03-07T11:33:45Z</time>
      </trkpt>
      <trkpt lat="47.05465" lon="-1.74857">
        <ele>11.8</ele>
        <time>2020-03-07T11:33:47Z</time>
      </trkpt>
      <trkpt lat="47.05477" lon="-1.74866">
        <ele>12.27</ele>
        <time>2020-03-07T11:33:49Z</time>
      </trkpt>
      <trkpt lat="47.05488" lon="-1.74877">
        <ele>12.07</ele>
        <time>2020-03-07T11:33:51Z</time>
      </trkpt>
      <trkpt lat="47.05498" lon="-1.74886">
        <ele>12.13</ele>
        <time>2020-03-07T11:33:53Z</time>
      </trkpt>
      <trkpt lat="47.05506" lon="-1.74896">
        <ele>12.96</ele>
        <time>2020-03-07T11:33:55Z</time>
      </trkpt>
      <trkpt lat="47.05514" lon="-1.74905">
        <ele>14.49</ele>
        <time>2020-03-07T11:33:57Z</time>
      </trkpt>
      <trkpt lat="47.05525" lon="-1.74915">
        <ele>15.05</ele>
        <time>2020-03-07T11:33:59Z</time>
      </trkpt>
      <trkpt lat="47.05537" lon="-1.74925">
        <ele>14.02</ele>
        <time>2020-03-07T11:34:01Z</time>
      </trkpt>
      <trkpt lat="47.05547" lon="-1.74935">
        <ele>13.73</ele>
        <time>2020-03-07T11:34:03Z</time>
      </trkpt>
      <trkpt lat="47.05556" lon="-1.74943">
        <ele>12.93</ele>
        <time>2020-03-07T11:34:05Z</time>
      </trkpt>
      <trkpt lat="47.05563" lon="-1.74951">
        <ele>13.67</ele>
        <time>2020-03-07T11:34:07Z</time>
      </trkpt>
      <trkpt lat="47.05572" lon="-1.74961">
        <ele>14.67</ele>
        <time>2020-03-07T11:34:09Z</time>
      </trkpt>
      <trkpt lat="47.05582" lon="-1.74972">
        <ele>14.96</ele>
        <time>2020-03-07T11:34:11Z</time>
      </trkpt>
      <trkpt lat="47.05591" lon="-1.74982">
        <ele>15.18</ele>
        <time>2020-03-07T11:34:14Z</time>
      </trkpt>
      <trkpt lat="47.05598" lon="-1.7499">
        <ele>15.24</ele>
        <time>2020-03-07T11:34:16Z</time>
      </trkpt>
      <trkpt lat="47.05606" lon="-1.74997">
        <ele>14.43</ele>
        <time>2020-03-07T11:34:18Z</time>
      </trkpt>
      <trkpt lat="47.05615" lon="-1.75007">
        <ele>14.32</ele>
        <time>2020-03-07T11:34:21Z</time>
      </trkpt>
      <trkpt lat="47.05625" lon="-1.75017">
        <ele>15.69</ele>
        <time>2020-03-07T11:34:23Z</time>
      </trkpt>
      <trkpt lat="47.05635" lon="-1.75028">
        <ele>16.67</ele>
        <time>2020-03-07T11:34:26Z</time>
      </trkpt>
      <trkpt lat="47.05643" lon="-1.75035">
        <ele>17.1</ele>
        <time>2020-03-07T11:34:28Z</time>
      </trkpt>
      <trkpt lat="47.05655" lon="-1.75045">
        <ele>16.97</ele>
        <time>2020-03-07T11:34:31Z</time>
      </trkpt>
      <trkpt lat="47.05663" lon="-1.75051">
        <ele>16.97</ele>
        <time>2020-03-07T11:34:33Z</time>
      </trkpt>
      <trkpt lat="47.05672" lon="-1.75061">
        <ele>16.93</ele>
        <time>2020-03-07T11:34:36Z</time>
      </trkpt>
      <trkpt lat="47.05682" lon="-1.75073">
        <ele>16.93</ele>
        <time>2020-03-07T11:34:39Z</time>
      </trkpt>
      <trkpt lat="47.05689" lon="-1.75086">
        <ele>17.41</ele>
        <time>2020-03-07T11:34:42Z</time>
      </trkpt>
      <trkpt lat="47.05697" lon="-1.75099">
        <ele>19.03</ele>
        <time>2020-03-07T11:34:45Z</time>
      </trkpt>
      <trkpt lat="47.05703" lon="-1.75114">
        <ele>19.38</ele>
        <time>2020-03-07T11:34:48Z</time>
      </trkpt>
      <trkpt lat="47.05709" lon="-1.75128">
        <ele>20.95</ele>
        <time>2020-03-07T11:34:51Z</time>
      </trkpt>
      <trkpt lat="47.05715" lon="-1.75141">
        <ele>21.13</ele>
        <time>2020-03-07T11:34:54Z</time>
      </trkpt>
      <trkpt lat="47.05721" lon="-1.75155">
        <ele>21.22</ele>
        <time>2020-03-07T11:34:57Z</time>
      </trkpt>
      <trkpt lat="47.05727" lon="-1.75167">
        <ele>21.44</ele>
        <time>2020-03-07T11:35:00Z</time>
      </trkpt>
      <trkpt lat="47.05733" lon="-1.75182">
        <ele>22.15</ele>
        <time>2020-03-07T11:35:03Z</time>
      </trkpt>
      <trkpt lat="47.0574" lon="-1.75197">
        <ele>22.79</ele>
        <time>2020-03-07T11:35:06Z</time>
      </trkpt>
      <trkpt lat="47.05745" lon="-1.75209">
        <ele>24.03</ele>
        <time>2020-03-07T11:35:09Z</time>
      </trkpt>
      <trkpt lat="47.05752" lon="-1.75225">
        <ele>23.4</ele>
        <time>2020-03-07T11:35:12Z</time>
      </trkpt>
      <trkpt lat="47.05758" lon="-1.75238">
        <ele>23.07</ele>
        <time>2020-03-07T11:35:14Z</time>
      </trkpt>
      <trkpt lat="47.05764" lon="-1.75251">
        <ele>23.24</ele>
        <time>2020-03-07T11:35:17Z</time>
      </trkpt>
      <trkpt lat="47.05771" lon="-1.75267">
        <ele>23.75</ele>
        <time>2020-03-07T11:35:20Z</time>
      </trkpt>
      <trkpt lat="47.05776" lon="-1.7528">
        <ele>24.81</ele>
        <time>2020-03-07T11:35:23Z</time>
      </trkpt>
      <trkpt lat="47.05782" lon="-1.75293">
        <ele>26.54</ele>
        <time>2020-03-07T11:35:25Z</time>
      </trkpt>
      <trkpt lat="47.0579" lon="-1.75311">
        <ele>27.31</ele>
        <time>2020-03-07T11:35:28Z</time>
      </trkpt>
      <trkpt lat="47.05797" lon="-1.75326">
        <ele>27.6</ele>
        <time>2020-03-07T11:35:31Z</time>
      </trkpt>
      <trkpt lat="47.05804" lon="-1.75342">
        <ele>27.39</ele>
        <time>2020-03-07T11:35:34Z</time>
      </trkpt>
      <trkpt lat="47.05811" lon="-1.75358">
        <ele>25.97</ele>
        <time>2020-03-07T11:35:37Z</time>
      </trkpt>
      <trkpt lat="47.05816" lon="-1.75369">
        <ele>25.19</ele>
        <time>2020-03-07T11:35:39Z</time>
      </trkpt>
      <trkpt lat="47.05822" lon="-1.75384">
        <ele>24.09</ele>
        <time>2020-03-07T11:35:42Z</time>
      </trkpt>
      <trkpt lat="47.05828" lon="-1.75399">
        <ele>25.37</ele>
        <time>2020-03-07T11:35:45Z</time>
      </trkpt>
      <trkpt lat="47.05835" lon="-1.75416">
        <ele>27.54</ele>
        <time>2020-03-07T11:35:48Z</time>
      </trkpt>
      <trkpt lat="47.0584" lon="-1.75428">
        <ele>28.25</ele>
        <time>2020-03-07T11:35:50Z</time>
      </trkpt>
      <trkpt lat="47.05845" lon="-1.75445">
        <ele>27.89</ele>
        <time>2020-03-07T11:35:53Z</time>
      </trkpt>
      <trkpt lat="47.05851" lon="-1.7546">
        <ele>27.23</ele>
        <time>2020-03-07T11:35:55Z</time>
      </trkpt>
      <trkpt lat="47.05856" lon="-1.75474">
        <ele>27.85</ele>
        <time>2020-03-07T11:35:58Z</time>
      </trkpt>
      <trkpt lat="47.05861" lon="-1.75489">
        <ele>28.08</ele>
        <time>2020-03-07T11:36:00Z</time>
      </trkpt>
      <trkpt lat="47.05866" lon="-1.75505">
        <ele>27.77</ele>
        <time>2020-03-07T11:36:02Z</time>
      </trkpt>
      <trkpt lat="47.05871" lon="-1.7552">
        <ele>26.05</ele>
        <time>2020-03-07T11:36:05Z</time>
      </trkpt>
      <trkpt lat="47.05879" lon="-1.75538">
        <ele>25.11</ele>
        <time>2020-03-07T11:36:08Z</time>
      </trkpt>
      <trkpt lat="47.05886" lon="-1.75557">
        <ele>24.88</ele>
        <time>2020-03-07T11:36:11Z</time>
      </trkpt>
      <trkpt lat="47.0589" lon="-1.75572">
        <ele>24.14</ele>
        <time>2020-03-07T11:36:13Z</time>
      </trkpt>
      <trkpt lat="47.05896" lon="-1.7559">
        <ele>23.32</ele>
        <time>2020-03-07T11:36:16Z</time>
      </trkpt>
      <trkpt lat="47.05902" lon="-1.75609">
        <ele>25.24</ele>
        <time>2020-03-07T11:36:19Z</time>
      </trkpt>
      <trkpt lat="47.05909" lon="-1.75627">
        <ele>26.81</ele>
        <time>2020-03-07T11:36:22Z</time>
      </trkpt>
      <trkpt lat="47.05914" lon="-1.75641">
        <ele>26.87</ele>
        <time>2020-03-07T11:36:24Z</time>
      </trkpt>
      <trkpt lat="47.0592" lon="-1.75656">
        <ele>28.03</ele>
        <time>2020-03-07T11:36:26Z</time>
      </trkpt>
      <trkpt lat="47.05924" lon="-1.75671">
        <ele>27.72</ele>
        <time>2020-03-07T11:36:28Z</time>
      </trkpt>
      <trkpt lat="47.05928" lon="-1.75685">
        <ele>26.55</ele>
        <time>2020-03-07T11:36:30Z</time>
      </trkpt>
      <trkpt lat="47.05933" lon="-1.75698">
        <ele>25.96</ele>
        <time>2020-03-07T11:36:32Z</time>
      </trkpt>
      <trkpt lat="47.05939" lon="-1.75713">
        <ele>24.84</ele>
        <time>2020-03-07T11:36:34Z</time>
      </trkpt>
      <trkpt lat="47.05943" lon="-1.75726">
        <ele>24.92</ele>
        <time>2020-03-07T11:36:36Z</time>
      </trkpt>
      <trkpt lat="47.0595" lon="-1.7574">
        <ele>25</ele>
        <time>2020-03-07T11:36:38Z</time>
      </trkpt>
      <trkpt lat="47.05956" lon="-1.75752">
        <ele>25.21</ele>
        <time>2020-03-07T11:36:40Z</time>
      </trkpt>
      <trkpt lat="47.05963" lon="-1.75765">
        <ele>25.38</ele>
        <time>2020-03-07T11:36:42Z</time>
      </trkpt>
      <trkpt lat="47.05971" lon="-1.75778">
        <ele>25.48</ele>
        <time>2020-03-07T11:36:44Z</time>
      </trkpt>
      <trkpt lat="47.05982" lon="-1.75793">
        <ele>23.17</ele>
        <time>2020-03-07T11:36:47Z</time>
      </trkpt>
      <trkpt lat="47.0599" lon="-1.75804">
        <ele>22.51</ele>
        <time>2020-03-07T11:36:49Z</time>
      </trkpt>
      <trkpt lat="47.05998" lon="-1.75813">
        <ele>21.74</ele>
        <time>2020-03-07T11:36:51Z</time>
      </trkpt>
      <trkpt lat="47.06007" lon="-1.75822">
        <ele>22.06</ele>
        <time>2020-03-07T11:36:53Z</time>
      </trkpt>
      <trkpt lat="47.06015" lon="-1.7583">
        <ele>23.62</ele>
        <time>2020-03-07T11:36:55Z</time>
      </trkpt>
      <trkpt lat="47.06024" lon="-1.75842">
        <ele>25.34</ele>
        <time>2020-03-07T11:36:57Z</time>
      </trkpt>
      <trkpt lat="47.06032" lon="-1.75851">
        <ele>25.15</ele>
        <time>2020-03-07T11:36:59Z</time>
      </trkpt>
      <trkpt lat="47.0604" lon="-1.75859">
        <ele>25.09</ele>
        <time>2020-03-07T11:37:01Z</time>
      </trkpt>
      <trkpt lat="47.06049" lon="-1.75869">
        <ele>24.06</ele>
        <time>2020-03-07T11:37:03Z</time>
      </trkpt>
      <trkpt lat="47.06057" lon="-1.7588">
        <ele>24.39</ele>
        <time>2020-03-07T11:37:05Z</time>
      </trkpt>
      <trkpt lat="47.06063" lon="-1.7589">
        <ele>25.52</ele>
        <time>2020-03-07T11:37:07Z</time>
      </trkpt>
      <trkpt lat="47.06072" lon="-1.75901">
        <ele>26.9</ele>
        <time>2020-03-07T11:37:09Z</time>
      </trkpt>
      <trkpt lat="47.0608" lon="-1.75909">
        <ele>26.47</ele>
        <time>2020-03-07T11:37:11Z</time>
      </trkpt>
      <trkpt lat="47.06088" lon="-1.75919">
        <ele>26.11</ele>
        <time>2020-03-07T11:37:13Z</time>
      </trkpt>
      <trkpt lat="47.06095" lon="-1.75928">
        <ele>26.26</ele>
        <time>2020-03-07T11:37:15Z</time>
      </trkpt>
      <trkpt lat="47.06105" lon="-1.75938">
        <ele>25.62</ele>
        <time>2020-03-07T11:37:17Z</time>
      </trkpt>
      <trkpt lat="47.06113" lon="-1.75948">
        <ele>25.31</ele>
        <time>2020-03-07T11:37:19Z</time>
      </trkpt>
      <trkpt lat="47.0612" lon="-1.75958">
        <ele>26.18</ele>
        <time>2020-03-07T11:37:21Z</time>
      </trkpt>
      <trkpt lat="47.06128" lon="-1.75968">
        <ele>27.76</ele>
        <time>2020-03-07T11:37:23Z</time>
      </trkpt>
      <trkpt lat="47.06139" lon="-1.7598">
        <ele>28.25</ele>
        <time>2020-03-07T11:37:26Z</time>
      </trkpt>
      <trkpt lat="47.0615" lon="-1.75993">
        <ele>28.3</ele>
        <time>2020-03-07T11:37:29Z</time>
      </trkpt>
      <trkpt lat="47.0616" lon="-1.76005">
        <ele>28.51</ele>
        <time>2020-03-07T11:37:32Z</time>
      </trkpt>
      <trkpt lat="47.0617" lon="-1.76016">
        <ele>28.82</ele>
        <time>2020-03-07T11:37:34Z</time>
      </trkpt>
      <trkpt lat="47.06177" lon="-1.76025">
        <ele>29.22</ele>
        <time>2020-03-07T11:37:36Z</time>
      </trkpt>
      <trkpt lat="47.06185" lon="-1.76033">
        <ele>29.89</ele>
        <time>2020-03-07T11:37:38Z</time>
      </trkpt>
      <trkpt lat="47.06195" lon="-1.76047">
        <ele>30.28</ele>
        <time>2020-03-07T11:37:41Z</time>
      </trkpt>
      <trkpt lat="47.06205" lon="-1.76058">
        <ele>31.19</ele>
        <time>2020-03-07T11:37:44Z</time>
      </trkpt>
      <trkpt lat="47.06213" lon="-1.76068">
        <ele>32.28</ele>
        <time>2020-03-07T11:37:46Z</time>
      </trkpt>
      <trkpt lat="47.06223" lon="-1.76078">
        <ele>32.11</ele>
        <time>2020-03-07T11:37:48Z</time>
      </trkpt>
      <trkpt lat="47.06231" lon="-1.76089">
        <ele>30.96</ele>
        <time>2020-03-07T11:37:50Z</time>
      </trkpt>
      <trkpt lat="47.06239" lon="-1.76099">
        <ele>30.69</ele>
        <time>2020-03-07T11:37:52Z</time>
      </trkpt>
      <trkpt lat="47.0625" lon="-1.7611">
        <ele>30.51</ele>
        <time>2020-03-07T11:37:55Z</time>
      </trkpt>
      <trkpt lat="47.06257" lon="-1.7612">
        <ele>30.69</ele>
        <time>2020-03-07T11:37:57Z</time>
      </trkpt>
      <trkpt lat="47.06268" lon="-1.76133">
        <ele>29.83</ele>
        <time>2020-03-07T11:38:00Z</time>
      </trkpt>
      <trkpt lat="47.06276" lon="-1.76143">
        <ele>29.55</ele>
        <time>2020-03-07T11:38:02Z</time>
      </trkpt>
      <trkpt lat="47.06285" lon="-1.76155">
        <ele>28.28</ele>
        <time>2020-03-07T11:38:04Z</time>
      </trkpt>
      <trkpt lat="47.06291" lon="-1.76169">
        <ele>28.2</ele>
        <time>2020-03-07T11:38:07Z</time>
      </trkpt>
      <trkpt lat="47.06296" lon="-1.76181">
        <ele>28.3</ele>
        <time>2020-03-07T11:38:09Z</time>
      </trkpt>
      <trkpt lat="47.063" lon="-1.76193">
        <ele>28.45</ele>
        <time>2020-03-07T11:38:11Z</time>
      </trkpt>
      <trkpt lat="47.06304" lon="-1.7621">
        <ele>28.14</ele>
        <time>2020-03-07T11:38:13Z</time>
      </trkpt>
      <trkpt lat="47.06306" lon="-1.76231">
        <ele>28.97</ele>
        <time>2020-03-07T11:38:16Z</time>
      </trkpt>
      <trkpt lat="47.06308" lon="-1.76245">
        <ele>30.76</ele>
        <time>2020-03-07T11:38:18Z</time>
      </trkpt>
      <trkpt lat="47.06309" lon="-1.76259">
        <ele>31.51</ele>
        <time>2020-03-07T11:38:20Z</time>
      </trkpt>
      <trkpt lat="47.06308" lon="-1.76274">
        <ele>31.15</ele>
        <time>2020-03-07T11:38:22Z</time>
      </trkpt>
      <trkpt lat="47.06306" lon="-1.76288">
        <ele>31.5</ele>
        <time>2020-03-07T11:38:24Z</time>
      </trkpt>
      <trkpt lat="47.06306" lon="-1.76306">
        <ele>31.36</ele>
        <time>2020-03-07T11:38:27Z</time>
      </trkpt>
      <trkpt lat="47.06311" lon="-1.76319">
        <ele>31.28</ele>
        <time>2020-03-07T11:38:29Z</time>
      </trkpt>
      <trkpt lat="47.06319" lon="-1.76326">
        <ele>31.29</ele>
        <time>2020-03-07T11:38:31Z</time>
      </trkpt>
      <trkpt lat="47.0633" lon="-1.7632">
        <ele>30.89</ele>
        <time>2020-03-07T11:38:33Z</time>
      </trkpt>
      <trkpt lat="47.06339" lon="-1.76312">
        <ele>31.79</ele>
        <time>2020-03-07T11:38:35Z</time>
      </trkpt>
      <trkpt lat="47.0635" lon="-1.76307">
        <ele>32.54</ele>
        <time>2020-03-07T11:38:37Z</time>
      </trkpt>
      <trkpt lat="47.06361" lon="-1.76301">
        <ele>32.72</ele>
        <time>2020-03-07T11:38:39Z</time>
      </trkpt>
      <trkpt lat="47.0637" lon="-1.76297">
        <ele>33.55</ele>
        <time>2020-03-07T11:38:41Z</time>
      </trkpt>
      <trkpt lat="47.0638" lon="-1.76293">
        <ele>35.29</ele>
        <time>2020-03-07T11:38:43Z</time>
      </trkpt>
      <trkpt lat="47.06391" lon="-1.7629">
        <ele>36.79</ele>
        <time>2020-03-07T11:38:45Z</time>
      </trkpt>
      <trkpt lat="47.06402" lon="-1.76286">
        <ele>38.44</ele>
        <time>2020-03-07T11:38:47Z</time>
      </trkpt>
      <trkpt lat="47.06413" lon="-1.7628">
        <ele>38.69</ele>
        <time>2020-03-07T11:38:49Z</time>
      </trkpt>
      <trkpt lat="47.06422" lon="-1.76275">
        <ele>37.34</ele>
        <time>2020-03-07T11:38:51Z</time>
      </trkpt>
      <trkpt lat="47.06433" lon="-1.7627">
        <ele>36.53</ele>
        <time>2020-03-07T11:38:53Z</time>
      </trkpt>
      <trkpt lat="47.06445" lon="-1.76264">
        <ele>36.13</ele>
        <time>2020-03-07T11:38:55Z</time>
      </trkpt>
      <trkpt lat="47.06457" lon="-1.76257">
        <ele>35.48</ele>
        <time>2020-03-07T11:38:57Z</time>
      </trkpt>
      <trkpt lat="47.06468" lon="-1.76252">
        <ele>36.69</ele>
        <time>2020-03-07T11:38:59Z</time>
      </trkpt>
      <trkpt lat="47.06479" lon="-1.76246">
        <ele>37.59</ele>
        <time>2020-03-07T11:39:01Z</time>
      </trkpt>
      <trkpt lat="47.0649" lon="-1.7624">
        <ele>38.33</ele>
        <time>2020-03-07T11:39:03Z</time>
      </trkpt>
      <trkpt lat="47.06502" lon="-1.76235">
        <ele>39.71</ele>
        <time>2020-03-07T11:39:05Z</time>
      </trkpt>
      <trkpt lat="47.06513" lon="-1.7623">
        <ele>38.96</ele>
        <time>2020-03-07T11:39:07Z</time>
      </trkpt>
      <trkpt lat="47.06522" lon="-1.76224">
        <ele>39.04</ele>
        <time>2020-03-07T11:39:09Z</time>
      </trkpt>
      <trkpt lat="47.06533" lon="-1.76219">
        <ele>39.34</ele>
        <time>2020-03-07T11:39:11Z</time>
      </trkpt>
      <trkpt lat="47.06544" lon="-1.76214">
        <ele>39.22</ele>
        <time>2020-03-07T11:39:13Z</time>
      </trkpt>
      <trkpt lat="47.06554" lon="-1.76209">
        <ele>40.46</ele>
        <time>2020-03-07T11:39:15Z</time>
      </trkpt>
      <trkpt lat="47.06567" lon="-1.76203">
        <ele>41.13</ele>
        <time>2020-03-07T11:39:17Z</time>
      </trkpt>
      <trkpt lat="47.06578" lon="-1.76198">
        <ele>41.11</ele>
        <time>2020-03-07T11:39:19Z</time>
      </trkpt>
      <trkpt lat="47.0659" lon="-1.76193">
        <ele>40.16</ele>
        <time>2020-03-07T11:39:21Z</time>
      </trkpt>
      <trkpt lat="47.06601" lon="-1.76188">
        <ele>39.71</ele>
        <time>2020-03-07T11:39:23Z</time>
      </trkpt>
      <trkpt lat="47.06615" lon="-1.76182">
        <ele>38.91</ele>
        <time>2020-03-07T11:39:25Z</time>
      </trkpt>
      <trkpt lat="47.06627" lon="-1.76176">
        <ele>38.83</ele>
        <time>2020-03-07T11:39:27Z</time>
      </trkpt>
      <trkpt lat="47.06639" lon="-1.76171">
        <ele>38.03</ele>
        <time>2020-03-07T11:39:29Z</time>
      </trkpt>
      <trkpt lat="47.06655" lon="-1.76164">
        <ele>37.7</ele>
        <time>2020-03-07T11:39:31Z</time>
      </trkpt>
      <trkpt lat="47.06669" lon="-1.76156">
        <ele>37.48</ele>
        <time>2020-03-07T11:39:33Z</time>
      </trkpt>
      <trkpt lat="47.06684" lon="-1.76149">
        <ele>36.57</ele>
        <time>2020-03-07T11:39:35Z</time>
      </trkpt>
      <trkpt lat="47.067" lon="-1.76143">
        <ele>36.12</ele>
        <time>2020-03-07T11:39:37Z</time>
      </trkpt>
      <trkpt lat="47.06717" lon="-1.76137">
        <ele>35.75</ele>
        <time>2020-03-07T11:39:39Z</time>
      </trkpt>
      <trkpt lat="47.06732" lon="-1.7613">
        <ele>35.09</ele>
        <time>2020-03-07T11:39:41Z</time>
      </trkpt>
      <trkpt lat="47.06747" lon="-1.76124">
        <ele>34.5</ele>
        <time>2020-03-07T11:39:43Z</time>
      </trkpt>
      <trkpt lat="47.06755" lon="-1.7612">
        <ele>34.48</ele>
        <time>2020-03-07T11:39:44Z</time>
      </trkpt>
      <trkpt lat="47.06765" lon="-1.76115">
        <ele>34.04</ele>
        <time>2020-03-07T11:39:45Z</time>
      </trkpt>
      <trkpt lat="47.06774" lon="-1.76111">
        <ele>33.48</ele>
        <time>2020-03-07T11:39:46Z</time>
      </trkpt>
      <trkpt lat="47.06783" lon="-1.76107">
        <ele>32.81</ele>
        <time>2020-03-07T11:39:47Z</time>
      </trkpt>
      <trkpt lat="47.06792" lon="-1.76104">
        <ele>32.38</ele>
        <time>2020-03-07T11:39:48Z</time>
      </trkpt>
      <trkpt lat="47.06809" lon="-1.76096">
        <ele>31.73</ele>
        <time>2020-03-07T11:39:50Z</time>
      </trkpt>
      <trkpt lat="47.06825" lon="-1.76088">
        <ele>31.37</ele>
        <time>2020-03-07T11:39:52Z</time>
      </trkpt>
      <trkpt lat="47.0684" lon="-1.76082">
        <ele>31.06</ele>
        <time>2020-03-07T11:39:54Z</time>
      </trkpt>
      <trkpt lat="47.06856" lon="-1.76074">
        <ele>30.01</ele>
        <time>2020-03-07T11:39:56Z</time>
      </trkpt>
      <trkpt lat="47.06872" lon="-1.76067">
        <ele>29.41</ele>
        <time>2020-03-07T11:39:58Z</time>
      </trkpt>
      <trkpt lat="47.06889" lon="-1.76059">
        <ele>29.78</ele>
        <time>2020-03-07T11:40:00Z</time>
      </trkpt>
      <trkpt lat="47.06898" lon="-1.76054">
        <ele>29.61</ele>
        <time>2020-03-07T11:40:01Z</time>
      </trkpt>
      <trkpt lat="47.06907" lon="-1.76049">
        <ele>29.6</ele>
        <time>2020-03-07T11:40:02Z</time>
      </trkpt>
      <trkpt lat="47.06923" lon="-1.76038">
        <ele>29.18</ele>
        <time>2020-03-07T11:40:04Z</time>
      </trkpt>
      <trkpt lat="47.06937" lon="-1.76027">
        <ele>29.1</ele>
        <time>2020-03-07T11:40:06Z</time>
      </trkpt>
      <trkpt lat="47.06952" lon="-1.76012">
        <ele>29.48</ele>
        <time>2020-03-07T11:40:08Z</time>
      </trkpt>
      <trkpt lat="47.06965" lon="-1.75998">
        <ele>29.49</ele>
        <time>2020-03-07T11:40:10Z</time>
      </trkpt>
      <trkpt lat="47.06976" lon="-1.75984">
        <ele>28.78</ele>
        <time>2020-03-07T11:40:12Z</time>
      </trkpt>
      <trkpt lat="47.0699" lon="-1.75968">
        <ele>27.83</ele>
        <time>2020-03-07T11:40:14Z</time>
      </trkpt>
      <trkpt lat="47.07004" lon="-1.75952">
        <ele>27.25</ele>
        <time>2020-03-07T11:40:16Z</time>
      </trkpt>
      <trkpt lat="47.07017" lon="-1.75935">
        <ele>26.88</ele>
        <time>2020-03-07T11:40:18Z</time>
      </trkpt>
      <trkpt lat="47.07031" lon="-1.7592">
        <ele>26.49</ele>
        <time>2020-03-07T11:40:20Z</time>
      </trkpt>
      <trkpt lat="47.07044" lon="-1.75906">
        <ele>26.85</ele>
        <time>2020-03-07T11:40:22Z</time>
      </trkpt>
      <trkpt lat="47.07057" lon="-1.7589">
        <ele>28.06</ele>
        <time>2020-03-07T11:40:24Z</time>
      </trkpt>
      <trkpt lat="47.07064" lon="-1.75882">
        <ele>28.52</ele>
        <time>2020-03-07T11:40:25Z</time>
      </trkpt>
      <trkpt lat="47.07077" lon="-1.75866">
        <ele>28.69</ele>
        <time>2020-03-07T11:40:27Z</time>
      </trkpt>
      <trkpt lat="47.07084" lon="-1.75857">
        <ele>29.2</ele>
        <time>2020-03-07T11:40:28Z</time>
      </trkpt>
      <trkpt lat="47.07096" lon="-1.75843">
        <ele>28.07</ele>
        <time>2020-03-07T11:40:30Z</time>
      </trkpt>
      <trkpt lat="47.07103" lon="-1.75834">
        <ele>27.53</ele>
        <time>2020-03-07T11:40:31Z</time>
      </trkpt>
      <trkpt lat="47.07111" lon="-1.75825">
        <ele>27.02</ele>
        <time>2020-03-07T11:40:32Z</time>
      </trkpt>
      <trkpt lat="47.07124" lon="-1.75811">
        <ele>25.79</ele>
        <time>2020-03-07T11:40:34Z</time>
      </trkpt>
      <trkpt lat="47.07138" lon="-1.75795">
        <ele>24.08</ele>
        <time>2020-03-07T11:40:36Z</time>
      </trkpt>
      <trkpt lat="47.07149" lon="-1.75781">
        <ele>24.78</ele>
        <time>2020-03-07T11:40:38Z</time>
      </trkpt>
      <trkpt lat="47.07161" lon="-1.75767">
        <ele>24.66</ele>
        <time>2020-03-07T11:40:40Z</time>
      </trkpt>
      <trkpt lat="47.07168" lon="-1.75758">
        <ele>24.93</ele>
        <time>2020-03-07T11:40:41Z</time>
      </trkpt>
      <trkpt lat="47.07175" lon="-1.7575">
        <ele>25.09</ele>
        <time>2020-03-07T11:40:42Z</time>
      </trkpt>
      <trkpt lat="47.07188" lon="-1.75735">
        <ele>25.77</ele>
        <time>2020-03-07T11:40:44Z</time>
      </trkpt>
      <trkpt lat="47.072" lon="-1.75722">
        <ele>25.91</ele>
        <time>2020-03-07T11:40:46Z</time>
      </trkpt>
      <trkpt lat="47.07213" lon="-1.75707">
        <ele>26.54</ele>
        <time>2020-03-07T11:40:48Z</time>
      </trkpt>
      <trkpt lat="47.07226" lon="-1.75693">
        <ele>27.26</ele>
        <time>2020-03-07T11:40:50Z</time>
      </trkpt>
      <trkpt lat="47.07237" lon="-1.75679">
        <ele>27</ele>
        <time>2020-03-07T11:40:52Z</time>
      </trkpt>
      <trkpt lat="47.07248" lon="-1.75665">
        <ele>25.54</ele>
        <time>2020-03-07T11:40:54Z</time>
      </trkpt>
      <trkpt lat="47.0726" lon="-1.75652">
        <ele>23.99</ele>
        <time>2020-03-07T11:40:56Z</time>
      </trkpt>
      <trkpt lat="47.07273" lon="-1.75639">
        <ele>23.33</ele>
        <time>2020-03-07T11:40:58Z</time>
      </trkpt>
      <trkpt lat="47.07285" lon="-1.75628">
        <ele>22.77</ele>
        <time>2020-03-07T11:41:00Z</time>
      </trkpt>
      <trkpt lat="47.07298" lon="-1.75619">
        <ele>23.13</ele>
        <time>2020-03-07T11:41:02Z</time>
      </trkpt>
      <trkpt lat="47.07313" lon="-1.75611">
        <ele>23.42</ele>
        <time>2020-03-07T11:41:04Z</time>
      </trkpt>
      <trkpt lat="47.07327" lon="-1.75604">
        <ele>23.47</ele>
        <time>2020-03-07T11:41:06Z</time>
      </trkpt>
      <trkpt lat="47.07341" lon="-1.75597">
        <ele>22.93</ele>
        <time>2020-03-07T11:41:08Z</time>
      </trkpt>
      <trkpt lat="47.07358" lon="-1.75592">
        <ele>22.58</ele>
        <time>2020-03-07T11:41:10Z</time>
      </trkpt>
      <trkpt lat="47.07371" lon="-1.75589">
        <ele>23.49</ele>
        <time>2020-03-07T11:41:12Z</time>
      </trkpt>
      <trkpt lat="47.07386" lon="-1.75584">
        <ele>24.03</ele>
        <time>2020-03-07T11:41:14Z</time>
      </trkpt>
      <trkpt lat="47.07401" lon="-1.75578">
        <ele>23.08</ele>
        <time>2020-03-07T11:41:16Z</time>
      </trkpt>
      <trkpt lat="47.07416" lon="-1.75573">
        <ele>22.53</ele>
        <time>2020-03-07T11:41:18Z</time>
      </trkpt>
      <trkpt lat="47.07431" lon="-1.75567">
        <ele>22.13</ele>
        <time>2020-03-07T11:41:20Z</time>
      </trkpt>
      <trkpt lat="47.07445" lon="-1.75561">
        <ele>20.54</ele>
        <time>2020-03-07T11:41:22Z</time>
      </trkpt>
      <trkpt lat="47.07461" lon="-1.75555">
        <ele>19.05</ele>
        <time>2020-03-07T11:41:24Z</time>
      </trkpt>
      <trkpt lat="47.07476" lon="-1.75549">
        <ele>18.32</ele>
        <time>2020-03-07T11:41:26Z</time>
      </trkpt>
      <trkpt lat="47.0749" lon="-1.75543">
        <ele>17.91</ele>
        <time>2020-03-07T11:41:28Z</time>
      </trkpt>
      <trkpt lat="47.07506" lon="-1.75537">
        <ele>19.12</ele>
        <time>2020-03-07T11:41:30Z</time>
      </trkpt>
      <trkpt lat="47.0752" lon="-1.75532">
        <ele>19.88</ele>
        <time>2020-03-07T11:41:32Z</time>
      </trkpt>
      <trkpt lat="47.07536" lon="-1.75527">
        <ele>19.08</ele>
        <time>2020-03-07T11:41:34Z</time>
      </trkpt>
      <trkpt lat="47.07552" lon="-1.75521">
        <ele>18.51</ele>
        <time>2020-03-07T11:41:36Z</time>
      </trkpt>
      <trkpt lat="47.07567" lon="-1.75515">
        <ele>18.1</ele>
        <time>2020-03-07T11:41:38Z</time>
      </trkpt>
      <trkpt lat="47.07581" lon="-1.75509">
        <ele>17.47</ele>
        <time>2020-03-07T11:41:40Z</time>
      </trkpt>
      <trkpt lat="47.07597" lon="-1.75503">
        <ele>17.58</ele>
        <time>2020-03-07T11:41:42Z</time>
      </trkpt>
      <trkpt lat="47.07612" lon="-1.75496">
        <ele>18.22</ele>
        <time>2020-03-07T11:41:44Z</time>
      </trkpt>
      <trkpt lat="47.07627" lon="-1.7549">
        <ele>16.7</ele>
        <time>2020-03-07T11:41:46Z</time>
      </trkpt>
      <trkpt lat="47.07641" lon="-1.75484">
        <ele>15.95</ele>
        <time>2020-03-07T11:41:48Z</time>
      </trkpt>
      <trkpt lat="47.07655" lon="-1.75479">
        <ele>14.9</ele>
        <time>2020-03-07T11:41:50Z</time>
      </trkpt>
      <trkpt lat="47.07669" lon="-1.75473">
        <ele>14.73</ele>
        <time>2020-03-07T11:41:52Z</time>
      </trkpt>
      <trkpt lat="47.07684" lon="-1.75467">
        <ele>13.85</ele>
        <time>2020-03-07T11:41:54Z</time>
      </trkpt>
      <trkpt lat="47.07701" lon="-1.75462">
        <ele>13.55</ele>
        <time>2020-03-07T11:41:56Z</time>
      </trkpt>
      <trkpt lat="47.07715" lon="-1.75456">
        <ele>13.02</ele>
        <time>2020-03-07T11:41:58Z</time>
      </trkpt>
      <trkpt lat="47.07729" lon="-1.75449">
        <ele>13.75</ele>
        <time>2020-03-07T11:42:00Z</time>
      </trkpt>
      <trkpt lat="47.07744" lon="-1.75444">
        <ele>12.66</ele>
        <time>2020-03-07T11:42:02Z</time>
      </trkpt>
      <trkpt lat="47.07758" lon="-1.75438">
        <ele>12.69</ele>
        <time>2020-03-07T11:42:04Z</time>
      </trkpt>
      <trkpt lat="47.0777" lon="-1.75434">
        <ele>13.25</ele>
        <time>2020-03-07T11:42:06Z</time>
      </trkpt>
      <trkpt lat="47.07783" lon="-1.75428">
        <ele>14.1</ele>
        <time>2020-03-07T11:42:08Z</time>
      </trkpt>
      <trkpt lat="47.07798" lon="-1.75423">
        <ele>13.39</ele>
        <time>2020-03-07T11:42:10Z</time>
      </trkpt>
      <trkpt lat="47.0781" lon="-1.75412">
        <ele>12.8</ele>
        <time>2020-03-07T11:42:12Z</time>
      </trkpt>
      <trkpt lat="47.07809" lon="-1.75393">
        <ele>12.33</ele>
        <time>2020-03-07T11:42:14Z</time>
      </trkpt>
      <trkpt lat="47.078" lon="-1.75374">
        <ele>13.24</ele>
        <time>2020-03-07T11:42:16Z</time>
      </trkpt>
      <trkpt lat="47.07795" lon="-1.75359">
        <ele>12.56</ele>
        <time>2020-03-07T11:42:18Z</time>
      </trkpt>
      <trkpt lat="47.07789" lon="-1.75346">
        <ele>12.09</ele>
        <time>2020-03-07T11:42:20Z</time>
      </trkpt>
      <trkpt lat="47.0778" lon="-1.75331">
        <ele>12.64</ele>
        <time>2020-03-07T11:42:23Z</time>
      </trkpt>
      <trkpt lat="47.0777" lon="-1.75315">
        <ele>14.07</ele>
        <time>2020-03-07T11:42:27Z</time>
      </trkpt>
      <trkpt lat="47.07764" lon="-1.75304">
        <ele>12.72</ele>
        <time>2020-03-07T11:42:29Z</time>
      </trkpt>
      <trkpt lat="47.07758" lon="-1.75292">
        <ele>10.78</ele>
        <time>2020-03-07T11:42:31Z</time>
      </trkpt>
      <trkpt lat="47.07755" lon="-1.75279">
        <ele>10.53</ele>
        <time>2020-03-07T11:42:33Z</time>
      </trkpt>
      <trkpt lat="47.07749" lon="-1.7526">
        <ele>12.14</ele>
        <time>2020-03-07T11:42:35Z</time>
      </trkpt>
      <trkpt lat="47.07743" lon="-1.75245">
        <ele>13.46</ele>
        <time>2020-03-07T11:42:37Z</time>
      </trkpt>
      <trkpt lat="47.07739" lon="-1.7523">
        <ele>13.21</ele>
        <time>2020-03-07T11:42:39Z</time>
      </trkpt>
      <trkpt lat="47.07734" lon="-1.75214">
        <ele>12.28</ele>
        <time>2020-03-07T11:42:41Z</time>
      </trkpt>
      <trkpt lat="47.07728" lon="-1.75198">
        <ele>10.38</ele>
        <time>2020-03-07T11:42:43Z</time>
      </trkpt>
      <trkpt lat="47.07724" lon="-1.75185">
        <ele>11.47</ele>
        <time>2020-03-07T11:42:45Z</time>
      </trkpt>
      <trkpt lat="47.07721" lon="-1.7517">
        <ele>12.3</ele>
        <time>2020-03-07T11:42:47Z</time>
      </trkpt>
      <trkpt lat="47.07717" lon="-1.75154">
        <ele>12.08</ele>
        <time>2020-03-07T11:42:49Z</time>
      </trkpt>
      <trkpt lat="47.07714" lon="-1.75137">
        <ele>10.48</ele>
        <time>2020-03-07T11:42:51Z</time>
      </trkpt>
      <trkpt lat="47.07711" lon="-1.7512">
        <ele>8.11</ele>
        <time>2020-03-07T11:42:53Z</time>
      </trkpt>
      <trkpt lat="47.0771" lon="-1.75105">
        <ele>8.4</ele>
        <time>2020-03-07T11:42:55Z</time>
      </trkpt>
      <trkpt lat="47.0771" lon="-1.75086">
        <ele>9.36</ele>
        <time>2020-03-07T11:42:58Z</time>
      </trkpt>
      <trkpt lat="47.07711" lon="-1.75071">
        <ele>9.95</ele>
        <time>2020-03-07T11:43:00Z</time>
      </trkpt>
      <trkpt lat="47.07716" lon="-1.75059">
        <ele>10.09</ele>
        <time>2020-03-07T11:43:02Z</time>
      </trkpt>
      <trkpt lat="47.0773" lon="-1.75059">
        <ele>9.88</ele>
        <time>2020-03-07T11:43:05Z</time>
      </trkpt>
      <trkpt lat="47.07741" lon="-1.75056">
        <ele>10.82</ele>
        <time>2020-03-07T11:43:07Z</time>
      </trkpt>
      <trkpt lat="47.07751" lon="-1.75057">
        <ele>10.98</ele>
        <time>2020-03-07T11:43:09Z</time>
      </trkpt>
      <trkpt lat="47.07763" lon="-1.75056">
        <ele>9.71</ele>
        <time>2020-03-07T11:43:11Z</time>
      </trkpt>
      <trkpt lat="47.07774" lon="-1.75054">
        <ele>8.79</ele>
        <time>2020-03-07T11:43:13Z</time>
      </trkpt>
      <trkpt lat="47.07786" lon="-1.75053">
        <ele>9.06</ele>
        <time>2020-03-07T11:43:15Z</time>
      </trkpt>
      <trkpt lat="47.07796" lon="-1.75053">
        <ele>9.69</ele>
        <time>2020-03-07T11:43:17Z</time>
      </trkpt>
      <trkpt lat="47.07811" lon="-1.75052">
        <ele>10.01</ele>
        <time>2020-03-07T11:43:19Z</time>
      </trkpt>
      <trkpt lat="47.07826" lon="-1.75051">
        <ele>10.24</ele>
        <time>2020-03-07T11:43:21Z</time>
      </trkpt>
      <trkpt lat="47.07837" lon="-1.75049">
        <ele>10.47</ele>
        <time>2020-03-07T11:43:23Z</time>
      </trkpt>
      <trkpt lat="47.0785" lon="-1.75045">
        <ele>9.78</ele>
        <time>2020-03-07T11:43:25Z</time>
      </trkpt>
      <trkpt lat="47.07864" lon="-1.75039">
        <ele>9.69</ele>
        <time>2020-03-07T11:43:27Z</time>
      </trkpt>
      <trkpt lat="47.07875" lon="-1.75035">
        <ele>10.17</ele>
        <time>2020-03-07T11:43:29Z</time>
      </trkpt>
      <trkpt lat="47.07888" lon="-1.75027">
        <ele>10.22</ele>
        <time>2020-03-07T11:43:31Z</time>
      </trkpt>
      <trkpt lat="47.07899" lon="-1.7502">
        <ele>9.75</ele>
        <time>2020-03-07T11:43:33Z</time>
      </trkpt>
      <trkpt lat="47.0791" lon="-1.75013">
        <ele>10.23</ele>
        <time>2020-03-07T11:43:35Z</time>
      </trkpt>
      <trkpt lat="47.07922" lon="-1.75006">
        <ele>9.35</ele>
        <time>2020-03-07T11:43:37Z</time>
      </trkpt>
      <trkpt lat="47.07933" lon="-1.74999">
        <ele>8.93</ele>
        <time>2020-03-07T11:43:39Z</time>
      </trkpt>
      <trkpt lat="47.07946" lon="-1.74992">
        <ele>7.09</ele>
        <time>2020-03-07T11:43:41Z</time>
      </trkpt>
      <trkpt lat="47.0796" lon="-1.74985">
        <ele>5.13</ele>
        <time>2020-03-07T11:43:43Z</time>
      </trkpt>
      <trkpt lat="47.07972" lon="-1.74977">
        <ele>5</ele>
        <time>2020-03-07T11:43:45Z</time>
      </trkpt>
      <trkpt lat="47.07982" lon="-1.7497">
        <ele>5.49</ele>
        <time>2020-03-07T11:43:47Z</time>
      </trkpt>
      <trkpt lat="47.07993" lon="-1.74965">
        <ele>6.25</ele>
        <time>2020-03-07T11:43:49Z</time>
      </trkpt>
      <trkpt lat="47.08002" lon="-1.7496">
        <ele>6.9</ele>
        <time>2020-03-07T11:43:51Z</time>
      </trkpt>
      <trkpt lat="47.08013" lon="-1.74952">
        <ele>6.23</ele>
        <time>2020-03-07T11:43:53Z</time>
      </trkpt>
      <trkpt lat="47.08023" lon="-1.74947">
        <ele>5.98</ele>
        <time>2020-03-07T11:43:55Z</time>
      </trkpt>
      <trkpt lat="47.08031" lon="-1.74941">
        <ele>6.07</ele>
        <time>2020-03-07T11:43:57Z</time>
      </trkpt>
      <trkpt lat="47.0804" lon="-1.74935">
        <ele>6.73</ele>
        <time>2020-03-07T11:44:01Z</time>
      </trkpt>
      <trkpt lat="47.08049" lon="-1.74927">
        <ele>7.82</ele>
        <time>2020-03-07T11:44:06Z</time>
      </trkpt>
      <trkpt lat="47.08062" lon="-1.74913">
        <ele>7.25</ele>
        <time>2020-03-07T11:44:18Z</time>
      </trkpt>
      <trkpt lat="47.0807" lon="-1.74903">
        <ele>6.64</ele>
        <time>2020-03-07T11:44:24Z</time>
      </trkpt>
      <trkpt lat="47.08078" lon="-1.74896">
        <ele>6.72</ele>
        <time>2020-03-07T11:44:30Z</time>
      </trkpt>
      <trkpt lat="47.08087" lon="-1.74889">
        <ele>6.63</ele>
        <time>2020-03-07T11:44:36Z</time>
      </trkpt>
      <trkpt lat="47.08096" lon="-1.74884">
        <ele>6.59</ele>
        <time>2020-03-07T11:44:40Z</time>
      </trkpt>
      <trkpt lat="47.08105" lon="-1.74883">
        <ele>7.14</ele>
        <time>2020-03-07T11:44:48Z</time>
      </trkpt>
      <trkpt lat="47.08096" lon="-1.74881">
        <ele>9.33</ele>
        <time>2020-03-07T11:47:58Z</time>
      </trkpt>
      <trkpt lat="47.08105" lon="-1.74875">
        <ele>9.15</ele>
        <time>2020-03-07T11:48:34Z</time>
      </trkpt>
      <trkpt lat="47.08116" lon="-1.74873">
        <ele>9.26</ele>
        <time>2020-03-07T11:48:39Z</time>
      </trkpt>
      <trkpt lat="47.08127" lon="-1.74871">
        <ele>9.42</ele>
        <time>2020-03-07T11:48:43Z</time>
      </trkpt>
      <trkpt lat="47.08137" lon="-1.74867">
        <ele>9.41</ele>
        <time>2020-03-07T11:48:45Z</time>
      </trkpt>
      <trkpt lat="47.08147" lon="-1.74863">
        <ele>9.35</ele>
        <time>2020-03-07T11:48:47Z</time>
      </trkpt>
      <trkpt lat="47.08156" lon="-1.74859">
        <ele>9.28</ele>
        <time>2020-03-07T11:48:49Z</time>
      </trkpt>
      <trkpt lat="47.08165" lon="-1.74854">
        <ele>9.23</ele>
        <time>2020-03-07T11:48:51Z</time>
      </trkpt>
      <trkpt lat="47.08174" lon="-1.74848">
        <ele>9.06</ele>
        <time>2020-03-07T11:48:53Z</time>
      </trkpt>
      <trkpt lat="47.08182" lon="-1.74841">
        <ele>8.61</ele>
        <time>2020-03-07T11:48:55Z</time>
      </trkpt>
      <trkpt lat="47.08191" lon="-1.7483">
        <ele>7.32</ele>
        <time>2020-03-07T11:48:58Z</time>
      </trkpt>
      <trkpt lat="47.08197" lon="-1.74817">
        <ele>6.89</ele>
        <time>2020-03-07T11:49:01Z</time>
      </trkpt>
      <trkpt lat="47.08202" lon="-1.74805">
        <ele>6.36</ele>
        <time>2020-03-07T11:49:06Z</time>
      </trkpt>
      <trkpt lat="47.08202" lon="-1.74791">
        <ele>5.23</ele>
        <time>2020-03-07T11:49:14Z</time>
      </trkpt>
      <trkpt lat="47.08205" lon="-1.74778">
        <ele>5.01</ele>
        <time>2020-03-07T11:49:20Z</time>
      </trkpt>
      <trkpt lat="47.08207" lon="-1.74765">
        <ele>4.88</ele>
        <time>2020-03-07T11:49:26Z</time>
      </trkpt>
      <trkpt lat="47.08212" lon="-1.74753">
        <ele>3.6</ele>
        <time>2020-03-07T11:49:46Z</time>
      </trkpt>
      <trkpt lat="47.08208" lon="-1.74765">
        <ele>4.54</ele>
        <time>2020-03-07T11:50:03Z</time>
      </trkpt>
      <trkpt lat="47.08203" lon="-1.74777">
        <ele>4.32</ele>
        <time>2020-03-07T11:50:17Z</time>
      </trkpt>
      <trkpt lat="47.08199" lon="-1.74791">
        <ele>3.72</ele>
        <time>2020-03-07T11:50:26Z</time>
      </trkpt>
      <trkpt lat="47.08201" lon="-1.74804">
        <ele>2.62</ele>
        <time>2020-03-07T11:50:40Z</time>
      </trkpt>
      <trkpt lat="47.08199" lon="-1.74819">
        <ele>2.1</ele>
        <time>2020-03-07T11:53:15Z</time>
      </trkpt>
      <trkpt lat="47.08195" lon="-1.74831">
        <ele>2.69</ele>
        <time>2020-03-07T11:53:20Z</time>
      </trkpt>
      <trkpt lat="47.08187" lon="-1.74843">
        <ele>3.49</ele>
        <time>2020-03-07T11:53:24Z</time>
      </trkpt>
      <trkpt lat="47.08178" lon="-1.7485">
        <ele>4.06</ele>
        <time>2020-03-07T11:53:27Z</time>
      </trkpt>
      <trkpt lat="47.08169" lon="-1.74858">
        <ele>4.64</ele>
        <time>2020-03-07T11:53:30Z</time>
      </trkpt>
      <trkpt lat="47.08159" lon="-1.74864">
        <ele>5.97</ele>
        <time>2020-03-07T11:53:33Z</time>
      </trkpt>
      <trkpt lat="47.08147" lon="-1.74871">
        <ele>8.7</ele>
        <time>2020-03-07T11:53:36Z</time>
      </trkpt>
      <trkpt lat="47.08134" lon="-1.74877">
        <ele>9.77</ele>
        <time>2020-03-07T11:53:39Z</time>
      </trkpt>
      <trkpt lat="47.08124" lon="-1.74878">
        <ele>9.5</ele>
        <time>2020-03-07T11:53:41Z</time>
      </trkpt>
      <trkpt lat="47.08114" lon="-1.74881">
        <ele>9.38</ele>
        <time>2020-03-07T11:53:43Z</time>
      </trkpt>
      <trkpt lat="47.08103" lon="-1.74883">
        <ele>9.2</ele>
        <time>2020-03-07T11:53:47Z</time>
      </trkpt>
      <trkpt lat="47.08093" lon="-1.74888">
        <ele>9.24</ele>
        <time>2020-03-07T11:53:53Z</time>
      </trkpt>
      <trkpt lat="47.08084" lon="-1.74893">
        <ele>9.58</ele>
        <time>2020-03-07T11:53:58Z</time>
      </trkpt>
      <trkpt lat="47.08075" lon="-1.749">
        <ele>10.1</ele>
        <time>2020-03-07T11:54:03Z</time>
      </trkpt>
      <trkpt lat="47.08067" lon="-1.74907">
        <ele>10.11</ele>
        <time>2020-03-07T11:54:06Z</time>
      </trkpt>
      <trkpt lat="47.08059" lon="-1.74915">
        <ele>9.88</ele>
        <time>2020-03-07T11:54:10Z</time>
      </trkpt>
      <trkpt lat="47.0805" lon="-1.74924">
        <ele>9.62</ele>
        <time>2020-03-07T11:54:15Z</time>
      </trkpt>
      <trkpt lat="47.08041" lon="-1.74935">
        <ele>9.47</ele>
        <time>2020-03-07T11:54:19Z</time>
      </trkpt>
      <trkpt lat="47.08031" lon="-1.74942">
        <ele>9.37</ele>
        <time>2020-03-07T11:54:22Z</time>
      </trkpt>
      <trkpt lat="47.0802" lon="-1.7495">
        <ele>9.42</ele>
        <time>2020-03-07T11:54:26Z</time>
      </trkpt>
      <trkpt lat="47.08011" lon="-1.74955">
        <ele>9.39</ele>
        <time>2020-03-07T11:54:28Z</time>
      </trkpt>
      <trkpt lat="47.08001" lon="-1.7496">
        <ele>9.28</ele>
        <time>2020-03-07T11:54:31Z</time>
      </trkpt>
      <trkpt lat="47.07991" lon="-1.74966">
        <ele>8.45</ele>
        <time>2020-03-07T11:54:34Z</time>
      </trkpt>
      <trkpt lat="47.07981" lon="-1.74971">
        <ele>8.42</ele>
        <time>2020-03-07T11:54:36Z</time>
      </trkpt>
      <trkpt lat="47.07971" lon="-1.74977">
        <ele>8.4</ele>
        <time>2020-03-07T11:54:38Z</time>
      </trkpt>
      <trkpt lat="47.07958" lon="-1.74984">
        <ele>8.01</ele>
        <time>2020-03-07T11:54:41Z</time>
      </trkpt>
      <trkpt lat="47.07945" lon="-1.74991">
        <ele>7.56</ele>
        <time>2020-03-07T11:54:44Z</time>
      </trkpt>
      <trkpt lat="47.07932" lon="-1.75001">
        <ele>7.65</ele>
        <time>2020-03-07T11:54:47Z</time>
      </trkpt>
      <trkpt lat="47.07923" lon="-1.75008">
        <ele>8.08</ele>
        <time>2020-03-07T11:54:49Z</time>
      </trkpt>
      <trkpt lat="47.07916" lon="-1.75015">
        <ele>7.3</ele>
        <time>2020-03-07T11:54:51Z</time>
      </trkpt>
      <trkpt lat="47.07907" lon="-1.7502">
        <ele>7.04</ele>
        <time>2020-03-07T11:54:53Z</time>
      </trkpt>
      <trkpt lat="47.07898" lon="-1.75025">
        <ele>6.39</ele>
        <time>2020-03-07T11:54:55Z</time>
      </trkpt>
      <trkpt lat="47.07887" lon="-1.75031">
        <ele>6.56</ele>
        <time>2020-03-07T11:54:58Z</time>
      </trkpt>
      <trkpt lat="47.07875" lon="-1.75039">
        <ele>6.59</ele>
        <time>2020-03-07T11:55:01Z</time>
      </trkpt>
      <trkpt lat="47.07864" lon="-1.75047">
        <ele>6.95</ele>
        <time>2020-03-07T11:55:03Z</time>
      </trkpt>
      <trkpt lat="47.07853" lon="-1.75053">
        <ele>6.35</ele>
        <time>2020-03-07T11:55:06Z</time>
      </trkpt>
      <trkpt lat="47.07844" lon="-1.75056">
        <ele>5.57</ele>
        <time>2020-03-07T11:55:08Z</time>
      </trkpt>
      <trkpt lat="47.07834" lon="-1.7506">
        <ele>4.85</ele>
        <time>2020-03-07T11:55:10Z</time>
      </trkpt>
      <trkpt lat="47.07819" lon="-1.75061">
        <ele>5.74</ele>
        <time>2020-03-07T11:55:13Z</time>
      </trkpt>
      <trkpt lat="47.07809" lon="-1.75062">
        <ele>6.73</ele>
        <time>2020-03-07T11:55:16Z</time>
      </trkpt>
      <trkpt lat="47.07799" lon="-1.75061">
        <ele>8.57</ele>
        <time>2020-03-07T11:55:18Z</time>
      </trkpt>
      <trkpt lat="47.0779" lon="-1.7506">
        <ele>8.05</ele>
        <time>2020-03-07T11:55:20Z</time>
      </trkpt>
      <trkpt lat="47.07777" lon="-1.7506">
        <ele>9.14</ele>
        <time>2020-03-07T11:55:23Z</time>
      </trkpt>
      <trkpt lat="47.07767" lon="-1.7506">
        <ele>8.49</ele>
        <time>2020-03-07T11:55:25Z</time>
      </trkpt>
      <trkpt lat="47.07757" lon="-1.75061">
        <ele>7.29</ele>
        <time>2020-03-07T11:55:27Z</time>
      </trkpt>
      <trkpt lat="47.07748" lon="-1.75061">
        <ele>5.64</ele>
        <time>2020-03-07T11:55:29Z</time>
      </trkpt>
      <trkpt lat="47.07736" lon="-1.75062">
        <ele>4.72</ele>
        <time>2020-03-07T11:55:32Z</time>
      </trkpt>
      <trkpt lat="47.07723" lon="-1.75064">
        <ele>4.59</ele>
        <time>2020-03-07T11:55:36Z</time>
      </trkpt>
      <trkpt lat="47.07715" lon="-1.75074">
        <ele>4.67</ele>
        <time>2020-03-07T11:55:40Z</time>
      </trkpt>
      <trkpt lat="47.07714" lon="-1.75091">
        <ele>5.03</ele>
        <time>2020-03-07T11:55:43Z</time>
      </trkpt>
      <trkpt lat="47.07713" lon="-1.75109">
        <ele>6.81</ele>
        <time>2020-03-07T11:55:46Z</time>
      </trkpt>
      <trkpt lat="47.07714" lon="-1.75123">
        <ele>6.49</ele>
        <time>2020-03-07T11:55:48Z</time>
      </trkpt>
      <trkpt lat="47.07716" lon="-1.75139">
        <ele>5.72</ele>
        <time>2020-03-07T11:55:50Z</time>
      </trkpt>
      <trkpt lat="47.0772" lon="-1.75151">
        <ele>4.82</ele>
        <time>2020-03-07T11:55:52Z</time>
      </trkpt>
      <trkpt lat="47.07723" lon="-1.75166">
        <ele>4.78</ele>
        <time>2020-03-07T11:55:54Z</time>
      </trkpt>
      <trkpt lat="47.07728" lon="-1.75185">
        <ele>5.95</ele>
        <time>2020-03-07T11:55:57Z</time>
      </trkpt>
      <trkpt lat="47.07733" lon="-1.75199">
        <ele>6.99</ele>
        <time>2020-03-07T11:55:59Z</time>
      </trkpt>
      <trkpt lat="47.07736" lon="-1.75211">
        <ele>6.75</ele>
        <time>2020-03-07T11:56:01Z</time>
      </trkpt>
      <trkpt lat="47.07743" lon="-1.75229">
        <ele>5.5</ele>
        <time>2020-03-07T11:56:04Z</time>
      </trkpt>
      <trkpt lat="47.07748" lon="-1.75241">
        <ele>5.09</ele>
        <time>2020-03-07T11:56:06Z</time>
      </trkpt>
      <trkpt lat="47.07752" lon="-1.75256">
        <ele>4.56</ele>
        <time>2020-03-07T11:56:08Z</time>
      </trkpt>
      <trkpt lat="47.07757" lon="-1.75268">
        <ele>3.64</ele>
        <time>2020-03-07T11:56:10Z</time>
      </trkpt>
      <trkpt lat="47.07763" lon="-1.75283">
        <ele>2.68</ele>
        <time>2020-03-07T11:56:12Z</time>
      </trkpt>
      <trkpt lat="47.07769" lon="-1.753">
        <ele>2.99</ele>
        <time>2020-03-07T11:56:14Z</time>
      </trkpt>
      <trkpt lat="47.07776" lon="-1.75318">
        <ele>3.94</ele>
        <time>2020-03-07T11:56:17Z</time>
      </trkpt>
      <trkpt lat="47.07783" lon="-1.75335">
        <ele>5.13</ele>
        <time>2020-03-07T11:56:19Z</time>
      </trkpt>
      <trkpt lat="47.07789" lon="-1.75348">
        <ele>4.05</ele>
        <time>2020-03-07T11:56:21Z</time>
      </trkpt>
      <trkpt lat="47.07797" lon="-1.75365">
        <ele>4.79</ele>
        <time>2020-03-07T11:56:24Z</time>
      </trkpt>
      <trkpt lat="47.07801" lon="-1.75376">
        <ele>6.09</ele>
        <time>2020-03-07T11:56:26Z</time>
      </trkpt>
      <trkpt lat="47.07807" lon="-1.7539">
        <ele>5.96</ele>
        <time>2020-03-07T11:56:28Z</time>
      </trkpt>
      <trkpt lat="47.07813" lon="-1.75405">
        <ele>5.89</ele>
        <time>2020-03-07T11:56:31Z</time>
      </trkpt>
      <trkpt lat="47.07822" lon="-1.75416">
        <ele>6.04</ele>
        <time>2020-03-07T11:56:34Z</time>
      </trkpt>
      <trkpt lat="47.07833" lon="-1.75415">
        <ele>6.87</ele>
        <time>2020-03-07T11:56:37Z</time>
      </trkpt>
      <trkpt lat="47.07845" lon="-1.75412">
        <ele>8</ele>
        <time>2020-03-07T11:56:39Z</time>
      </trkpt>
      <trkpt lat="47.07857" lon="-1.75409">
        <ele>9.44</ele>
        <time>2020-03-07T11:56:42Z</time>
      </trkpt>
      <trkpt lat="47.07867" lon="-1.75407">
        <ele>9.36</ele>
        <time>2020-03-07T11:56:44Z</time>
      </trkpt>
      <trkpt lat="47.0788" lon="-1.75407">
        <ele>9.38</ele>
        <time>2020-03-07T11:56:47Z</time>
      </trkpt>
      <trkpt lat="47.07891" lon="-1.7541">
        <ele>8.37</ele>
        <time>2020-03-07T11:56:49Z</time>
      </trkpt>
      <trkpt lat="47.07905" lon="-1.75415">
        <ele>7.41</ele>
        <time>2020-03-07T11:56:51Z</time>
      </trkpt>
      <trkpt lat="47.07921" lon="-1.75421">
        <ele>7.9</ele>
        <time>2020-03-07T11:56:53Z</time>
      </trkpt>
      <trkpt lat="47.07934" lon="-1.75427">
        <ele>8.96</ele>
        <time>2020-03-07T11:56:55Z</time>
      </trkpt>
      <trkpt lat="47.07945" lon="-1.75433">
        <ele>9.46</ele>
        <time>2020-03-07T11:56:57Z</time>
      </trkpt>
      <trkpt lat="47.07958" lon="-1.75444">
        <ele>9.04</ele>
        <time>2020-03-07T11:56:59Z</time>
      </trkpt>
      <trkpt lat="47.07968" lon="-1.75453">
        <ele>8.33</ele>
        <time>2020-03-07T11:57:01Z</time>
      </trkpt>
      <trkpt lat="47.0798" lon="-1.75462">
        <ele>6.98</ele>
        <time>2020-03-07T11:57:03Z</time>
      </trkpt>
      <trkpt lat="47.07991" lon="-1.75471">
        <ele>6.44</ele>
        <time>2020-03-07T11:57:05Z</time>
      </trkpt>
      <trkpt lat="47.08002" lon="-1.7548">
        <ele>6.28</ele>
        <time>2020-03-07T11:57:07Z</time>
      </trkpt>
      <trkpt lat="47.08012" lon="-1.75489">
        <ele>6.45</ele>
        <time>2020-03-07T11:57:09Z</time>
      </trkpt>
      <trkpt lat="47.08024" lon="-1.75497">
        <ele>6.27</ele>
        <time>2020-03-07T11:57:11Z</time>
      </trkpt>
      <trkpt lat="47.08035" lon="-1.75506">
        <ele>5.7</ele>
        <time>2020-03-07T11:57:13Z</time>
      </trkpt>
      <trkpt lat="47.08047" lon="-1.7551">
        <ele>6.26</ele>
        <time>2020-03-07T11:57:15Z</time>
      </trkpt>
      <trkpt lat="47.08058" lon="-1.75511">
        <ele>6.65</ele>
        <time>2020-03-07T11:57:17Z</time>
      </trkpt>
      <trkpt lat="47.08069" lon="-1.75513">
        <ele>5.46</ele>
        <time>2020-03-07T11:57:19Z</time>
      </trkpt>
      <trkpt lat="47.08079" lon="-1.75513">
        <ele>6.82</ele>
        <time>2020-03-07T11:57:21Z</time>
      </trkpt>
      <trkpt lat="47.08091" lon="-1.75512">
        <ele>7.51</ele>
        <time>2020-03-07T11:57:23Z</time>
      </trkpt>
      <trkpt lat="47.08105" lon="-1.75511">
        <ele>7.98</ele>
        <time>2020-03-07T11:57:25Z</time>
      </trkpt>
      <trkpt lat="47.08116" lon="-1.7551">
        <ele>7.17</ele>
        <time>2020-03-07T11:57:27Z</time>
      </trkpt>
      <trkpt lat="47.08127" lon="-1.75508">
        <ele>7.36</ele>
        <time>2020-03-07T11:57:29Z</time>
      </trkpt>
      <trkpt lat="47.08137" lon="-1.75507">
        <ele>8.16</ele>
        <time>2020-03-07T11:57:31Z</time>
      </trkpt>
      <trkpt lat="47.08147" lon="-1.75506">
        <ele>8.33</ele>
        <time>2020-03-07T11:57:33Z</time>
      </trkpt>
      <trkpt lat="47.08159" lon="-1.75505">
        <ele>9.38</ele>
        <time>2020-03-07T11:57:35Z</time>
      </trkpt>
      <trkpt lat="47.0817" lon="-1.75504">
        <ele>10.09</ele>
        <time>2020-03-07T11:57:37Z</time>
      </trkpt>
      <trkpt lat="47.08182" lon="-1.75503">
        <ele>9.47</ele>
        <time>2020-03-07T11:57:39Z</time>
      </trkpt>
      <trkpt lat="47.08193" lon="-1.75502">
        <ele>8.81</ele>
        <time>2020-03-07T11:57:41Z</time>
      </trkpt>
      <trkpt lat="47.08205" lon="-1.75501">
        <ele>8.93</ele>
        <time>2020-03-07T11:57:43Z</time>
      </trkpt>
      <trkpt lat="47.08216" lon="-1.75498">
        <ele>10.58</ele>
        <time>2020-03-07T11:57:45Z</time>
      </trkpt>
      <trkpt lat="47.08227" lon="-1.75496">
        <ele>10.61</ele>
        <time>2020-03-07T11:57:47Z</time>
      </trkpt>
      <trkpt lat="47.08239" lon="-1.75495">
        <ele>10.06</ele>
        <time>2020-03-07T11:57:49Z</time>
      </trkpt>
      <trkpt lat="47.0825" lon="-1.75494">
        <ele>9.42</ele>
        <time>2020-03-07T11:57:51Z</time>
      </trkpt>
      <trkpt lat="47.08262" lon="-1.75492">
        <ele>7.15</ele>
        <time>2020-03-07T11:57:53Z</time>
      </trkpt>
      <trkpt lat="47.08273" lon="-1.75491">
        <ele>6.45</ele>
        <time>2020-03-07T11:57:55Z</time>
      </trkpt>
      <trkpt lat="47.08286" lon="-1.7549">
        <ele>5.87</ele>
        <time>2020-03-07T11:57:57Z</time>
      </trkpt>
      <trkpt lat="47.08299" lon="-1.75489">
        <ele>6.27</ele>
        <time>2020-03-07T11:57:59Z</time>
      </trkpt>
      <trkpt lat="47.08312" lon="-1.75487">
        <ele>5.04</ele>
        <time>2020-03-07T11:58:01Z</time>
      </trkpt>
      <trkpt lat="47.08325" lon="-1.75485">
        <ele>4.22</ele>
        <time>2020-03-07T11:58:03Z</time>
      </trkpt>
      <trkpt lat="47.08337" lon="-1.75482">
        <ele>3.8</ele>
        <time>2020-03-07T11:58:05Z</time>
      </trkpt>
      <trkpt lat="47.08348" lon="-1.75482">
        <ele>2.9</ele>
        <time>2020-03-07T11:58:07Z</time>
      </trkpt>
      <trkpt lat="47.08361" lon="-1.7548">
        <ele>2.76</ele>
        <time>2020-03-07T11:58:09Z</time>
      </trkpt>
      <trkpt lat="47.08373" lon="-1.75479">
        <ele>3.82</ele>
        <time>2020-03-07T11:58:11Z</time>
      </trkpt>
      <trkpt lat="47.08385" lon="-1.75479">
        <ele>4.95</ele>
        <time>2020-03-07T11:58:13Z</time>
      </trkpt>
      <trkpt lat="47.08396" lon="-1.75477">
        <ele>5.62</ele>
        <time>2020-03-07T11:58:15Z</time>
      </trkpt>
      <trkpt lat="47.08406" lon="-1.75478">
        <ele>6.2</ele>
        <time>2020-03-07T11:58:17Z</time>
      </trkpt>
      <trkpt lat="47.0842" lon="-1.75479">
        <ele>7.46</ele>
        <time>2020-03-07T11:58:19Z</time>
      </trkpt>
      <trkpt lat="47.08432" lon="-1.75481">
        <ele>8.2</ele>
        <time>2020-03-07T11:58:21Z</time>
      </trkpt>
      <trkpt lat="47.08445" lon="-1.75482">
        <ele>7.78</ele>
        <time>2020-03-07T11:58:23Z</time>
      </trkpt>
      <trkpt lat="47.08457" lon="-1.75482">
        <ele>7.42</ele>
        <time>2020-03-07T11:58:25Z</time>
      </trkpt>
      <trkpt lat="47.08471" lon="-1.7548">
        <ele>6.66</ele>
        <time>2020-03-07T11:58:27Z</time>
      </trkpt>
      <trkpt lat="47.08483" lon="-1.75479">
        <ele>5.96</ele>
        <time>2020-03-07T11:58:29Z</time>
      </trkpt>
      <trkpt lat="47.08496" lon="-1.75475">
        <ele>5.46</ele>
        <time>2020-03-07T11:58:31Z</time>
      </trkpt>
      <trkpt lat="47.08509" lon="-1.75469">
        <ele>5.86</ele>
        <time>2020-03-07T11:58:33Z</time>
      </trkpt>
      <trkpt lat="47.08522" lon="-1.75464">
        <ele>5.73</ele>
        <time>2020-03-07T11:58:35Z</time>
      </trkpt>
      <trkpt lat="47.08535" lon="-1.75459">
        <ele>6.05</ele>
        <time>2020-03-07T11:58:37Z</time>
      </trkpt>
      <trkpt lat="47.08547" lon="-1.75453">
        <ele>7.71</ele>
        <time>2020-03-07T11:58:39Z</time>
      </trkpt>
      <trkpt lat="47.0856" lon="-1.75449">
        <ele>9</ele>
        <time>2020-03-07T11:58:41Z</time>
      </trkpt>
      <trkpt lat="47.08573" lon="-1.75443">
        <ele>9.33</ele>
        <time>2020-03-07T11:58:43Z</time>
      </trkpt>
      <trkpt lat="47.08587" lon="-1.75439">
        <ele>9.98</ele>
        <time>2020-03-07T11:58:45Z</time>
      </trkpt>
      <trkpt lat="47.08598" lon="-1.75434">
        <ele>10.24</ele>
        <time>2020-03-07T11:58:47Z</time>
      </trkpt>
      <trkpt lat="47.08611" lon="-1.7543">
        <ele>10.72</ele>
        <time>2020-03-07T11:58:49Z</time>
      </trkpt>
      <trkpt lat="47.08624" lon="-1.75424">
        <ele>10.26</ele>
        <time>2020-03-07T11:58:51Z</time>
      </trkpt>
      <trkpt lat="47.08637" lon="-1.75419">
        <ele>9.14</ele>
        <time>2020-03-07T11:58:53Z</time>
      </trkpt>
      <trkpt lat="47.08649" lon="-1.75412">
        <ele>8.34</ele>
        <time>2020-03-07T11:58:55Z</time>
      </trkpt>
      <trkpt lat="47.08661" lon="-1.75404">
        <ele>8.57</ele>
        <time>2020-03-07T11:58:57Z</time>
      </trkpt>
      <trkpt lat="47.08672" lon="-1.75396">
        <ele>8.76</ele>
        <time>2020-03-07T11:58:59Z</time>
      </trkpt>
      <trkpt lat="47.08683" lon="-1.75387">
        <ele>9.68</ele>
        <time>2020-03-07T11:59:01Z</time>
      </trkpt>
      <trkpt lat="47.08693" lon="-1.75378">
        <ele>9.4</ele>
        <time>2020-03-07T11:59:03Z</time>
      </trkpt>
      <trkpt lat="47.08705" lon="-1.75369">
        <ele>8.89</ele>
        <time>2020-03-07T11:59:05Z</time>
      </trkpt>
      <trkpt lat="47.08716" lon="-1.75358">
        <ele>8.64</ele>
        <time>2020-03-07T11:59:07Z</time>
      </trkpt>
      <trkpt lat="47.08727" lon="-1.75348">
        <ele>8.71</ele>
        <time>2020-03-07T11:59:09Z</time>
      </trkpt>
      <trkpt lat="47.08739" lon="-1.75336">
        <ele>9.32</ele>
        <time>2020-03-07T11:59:11Z</time>
      </trkpt>
      <trkpt lat="47.0875" lon="-1.75324">
        <ele>10.12</ele>
        <time>2020-03-07T11:59:13Z</time>
      </trkpt>
      <trkpt lat="47.08759" lon="-1.75314">
        <ele>9.59</ele>
        <time>2020-03-07T11:59:15Z</time>
      </trkpt>
      <trkpt lat="47.08767" lon="-1.75302">
        <ele>9.08</ele>
        <time>2020-03-07T11:59:17Z</time>
      </trkpt>
      <trkpt lat="47.08777" lon="-1.7529">
        <ele>7.94</ele>
        <time>2020-03-07T11:59:19Z</time>
      </trkpt>
      <trkpt lat="47.08787" lon="-1.75278">
        <ele>8.31</ele>
        <time>2020-03-07T11:59:21Z</time>
      </trkpt>
      <trkpt lat="47.08795" lon="-1.75267">
        <ele>8.73</ele>
        <time>2020-03-07T11:59:23Z</time>
      </trkpt>
      <trkpt lat="47.08806" lon="-1.75251">
        <ele>9.59</ele>
        <time>2020-03-07T11:59:25Z</time>
      </trkpt>
      <trkpt lat="47.08814" lon="-1.75236">
        <ele>10.45</ele>
        <time>2020-03-07T11:59:27Z</time>
      </trkpt>
      <trkpt lat="47.08821" lon="-1.75222">
        <ele>9.99</ele>
        <time>2020-03-07T11:59:29Z</time>
      </trkpt>
      <trkpt lat="47.08829" lon="-1.75205">
        <ele>8.45</ele>
        <time>2020-03-07T11:59:31Z</time>
      </trkpt>
      <trkpt lat="47.08835" lon="-1.75194">
        <ele>7.43</ele>
        <time>2020-03-07T11:59:33Z</time>
      </trkpt>
      <trkpt lat="47.08843" lon="-1.7518">
        <ele>8.03</ele>
        <time>2020-03-07T11:59:35Z</time>
      </trkpt>
      <trkpt lat="47.08852" lon="-1.75164">
        <ele>8.48</ele>
        <time>2020-03-07T11:59:37Z</time>
      </trkpt>
      <trkpt lat="47.0886" lon="-1.75148">
        <ele>8.86</ele>
        <time>2020-03-07T11:59:39Z</time>
      </trkpt>
      <trkpt lat="47.08868" lon="-1.75134">
        <ele>8.93</ele>
        <time>2020-03-07T11:59:41Z</time>
      </trkpt>
      <trkpt lat="47.08875" lon="-1.7512">
        <ele>8.77</ele>
        <time>2020-03-07T11:59:43Z</time>
      </trkpt>
      <trkpt lat="47.08883" lon="-1.75106">
        <ele>10.27</ele>
        <time>2020-03-07T11:59:45Z</time>
      </trkpt>
      <trkpt lat="47.08892" lon="-1.75093">
        <ele>11.17</ele>
        <time>2020-03-07T11:59:47Z</time>
      </trkpt>
      <trkpt lat="47.08899" lon="-1.7508">
        <ele>11.2</ele>
        <time>2020-03-07T11:59:49Z</time>
      </trkpt>
      <trkpt lat="47.08907" lon="-1.75066">
        <ele>11.33</ele>
        <time>2020-03-07T11:59:51Z</time>
      </trkpt>
      <trkpt lat="47.08915" lon="-1.75053">
        <ele>11.39</ele>
        <time>2020-03-07T11:59:53Z</time>
      </trkpt>
      <trkpt lat="47.08924" lon="-1.75039">
        <ele>11.24</ele>
        <time>2020-03-07T11:59:55Z</time>
      </trkpt>
      <trkpt lat="47.08934" lon="-1.75027">
        <ele>11.71</ele>
        <time>2020-03-07T11:59:57Z</time>
      </trkpt>
      <trkpt lat="47.08944" lon="-1.75018">
        <ele>12.92</ele>
        <time>2020-03-07T11:59:59Z</time>
      </trkpt>
      <trkpt lat="47.08957" lon="-1.75008">
        <ele>13.76</ele>
        <time>2020-03-07T12:00:01Z</time>
      </trkpt>
      <trkpt lat="47.08968" lon="-1.75">
        <ele>14.47</ele>
        <time>2020-03-07T12:00:03Z</time>
      </trkpt>
      <trkpt lat="47.08981" lon="-1.74989">
        <ele>14.13</ele>
        <time>2020-03-07T12:00:05Z</time>
      </trkpt>
      <trkpt lat="47.08991" lon="-1.74981">
        <ele>13.78</ele>
        <time>2020-03-07T12:00:07Z</time>
      </trkpt>
      <trkpt lat="47.09002" lon="-1.74972">
        <ele>13.76</ele>
        <time>2020-03-07T12:00:09Z</time>
      </trkpt>
      <trkpt lat="47.09014" lon="-1.74962">
        <ele>13.24</ele>
        <time>2020-03-07T12:00:11Z</time>
      </trkpt>
      <trkpt lat="47.09022" lon="-1.74954">
        <ele>12.78</ele>
        <time>2020-03-07T12:00:13Z</time>
      </trkpt>
      <trkpt lat="47.09031" lon="-1.74945">
        <ele>13.38</ele>
        <time>2020-03-07T12:00:15Z</time>
      </trkpt>
      <trkpt lat="47.09041" lon="-1.74938">
        <ele>13.27</ele>
        <time>2020-03-07T12:00:17Z</time>
      </trkpt>
      <trkpt lat="47.09052" lon="-1.74929">
        <ele>14.09</ele>
        <time>2020-03-07T12:00:19Z</time>
      </trkpt>
      <trkpt lat="47.09063" lon="-1.7492">
        <ele>14.07</ele>
        <time>2020-03-07T12:00:21Z</time>
      </trkpt>
      <trkpt lat="47.09071" lon="-1.74912">
        <ele>14.36</ele>
        <time>2020-03-07T12:00:23Z</time>
      </trkpt>
      <trkpt lat="47.0908" lon="-1.74904">
        <ele>13.73</ele>
        <time>2020-03-07T12:00:25Z</time>
      </trkpt>
      <trkpt lat="47.09089" lon="-1.74897">
        <ele>13.94</ele>
        <time>2020-03-07T12:00:27Z</time>
      </trkpt>
      <trkpt lat="47.09099" lon="-1.7489">
        <ele>13.35</ele>
        <time>2020-03-07T12:00:29Z</time>
      </trkpt>
      <trkpt lat="47.09109" lon="-1.74883">
        <ele>13.51</ele>
        <time>2020-03-07T12:00:31Z</time>
      </trkpt>
      <trkpt lat="47.09121" lon="-1.74875">
        <ele>11.95</ele>
        <time>2020-03-07T12:00:33Z</time>
      </trkpt>
      <trkpt lat="47.09131" lon="-1.74867">
        <ele>10.49</ele>
        <time>2020-03-07T12:00:35Z</time>
      </trkpt>
      <trkpt lat="47.0914" lon="-1.74859">
        <ele>9.23</ele>
        <time>2020-03-07T12:00:37Z</time>
      </trkpt>
      <trkpt lat="47.0915" lon="-1.74849">
        <ele>10.57</ele>
        <time>2020-03-07T12:00:39Z</time>
      </trkpt>
      <trkpt lat="47.0916" lon="-1.74838">
        <ele>11.46</ele>
        <time>2020-03-07T12:00:41Z</time>
      </trkpt>
      <trkpt lat="47.0917" lon="-1.74827">
        <ele>12.62</ele>
        <time>2020-03-07T12:00:43Z</time>
      </trkpt>
      <trkpt lat="47.09178" lon="-1.74817">
        <ele>14.48</ele>
        <time>2020-03-07T12:00:45Z</time>
      </trkpt>
      <trkpt lat="47.09186" lon="-1.74806">
        <ele>14.16</ele>
        <time>2020-03-07T12:00:47Z</time>
      </trkpt>
      <trkpt lat="47.09195" lon="-1.74794">
        <ele>15.07</ele>
        <time>2020-03-07T12:00:49Z</time>
      </trkpt>
      <trkpt lat="47.09203" lon="-1.74784">
        <ele>16.35</ele>
        <time>2020-03-07T12:00:51Z</time>
      </trkpt>
      <trkpt lat="47.09212" lon="-1.7477">
        <ele>17</ele>
        <time>2020-03-07T12:00:53Z</time>
      </trkpt>
      <trkpt lat="47.09221" lon="-1.74756">
        <ele>17.11</ele>
        <time>2020-03-07T12:00:55Z</time>
      </trkpt>
      <trkpt lat="47.09228" lon="-1.74746">
        <ele>16.92</ele>
        <time>2020-03-07T12:00:57Z</time>
      </trkpt>
      <trkpt lat="47.09238" lon="-1.74733">
        <ele>17.15</ele>
        <time>2020-03-07T12:00:59Z</time>
      </trkpt>
      <trkpt lat="47.09247" lon="-1.74722">
        <ele>15.81</ele>
        <time>2020-03-07T12:01:01Z</time>
      </trkpt>
      <trkpt lat="47.09257" lon="-1.74709">
        <ele>15.51</ele>
        <time>2020-03-07T12:01:03Z</time>
      </trkpt>
      <trkpt lat="47.09265" lon="-1.74698">
        <ele>15.55</ele>
        <time>2020-03-07T12:01:05Z</time>
      </trkpt>
      <trkpt lat="47.09274" lon="-1.74685">
        <ele>15.83</ele>
        <time>2020-03-07T12:01:07Z</time>
      </trkpt>
      <trkpt lat="47.09283" lon="-1.74671">
        <ele>14.93</ele>
        <time>2020-03-07T12:01:09Z</time>
      </trkpt>
      <trkpt lat="47.09294" lon="-1.74657">
        <ele>14.01</ele>
        <time>2020-03-07T12:01:11Z</time>
      </trkpt>
      <trkpt lat="47.09303" lon="-1.74643">
        <ele>13.96</ele>
        <time>2020-03-07T12:01:13Z</time>
      </trkpt>
      <trkpt lat="47.09311" lon="-1.7463">
        <ele>14.88</ele>
        <time>2020-03-07T12:01:15Z</time>
      </trkpt>
      <trkpt lat="47.09321" lon="-1.74615">
        <ele>15.39</ele>
        <time>2020-03-07T12:01:17Z</time>
      </trkpt>
      <trkpt lat="47.09328" lon="-1.74604">
        <ele>14.73</ele>
        <time>2020-03-07T12:01:19Z</time>
      </trkpt>
      <trkpt lat="47.09336" lon="-1.7459">
        <ele>13.33</ele>
        <time>2020-03-07T12:01:21Z</time>
      </trkpt>
      <trkpt lat="47.09345" lon="-1.74575">
        <ele>13.31</ele>
        <time>2020-03-07T12:01:23Z</time>
      </trkpt>
      <trkpt lat="47.09353" lon="-1.74561">
        <ele>14.13</ele>
        <time>2020-03-07T12:01:25Z</time>
      </trkpt>
      <trkpt lat="47.09361" lon="-1.74548">
        <ele>15.08</ele>
        <time>2020-03-07T12:01:27Z</time>
      </trkpt>
      <trkpt lat="47.0937" lon="-1.74535">
        <ele>15.54</ele>
        <time>2020-03-07T12:01:29Z</time>
      </trkpt>
      <trkpt lat="47.09379" lon="-1.7452">
        <ele>15.4</ele>
        <time>2020-03-07T12:01:31Z</time>
      </trkpt>
      <trkpt lat="47.09386" lon="-1.74509">
        <ele>15.2</ele>
        <time>2020-03-07T12:01:33Z</time>
      </trkpt>
      <trkpt lat="47.09395" lon="-1.74497">
        <ele>15.73</ele>
        <time>2020-03-07T12:01:35Z</time>
      </trkpt>
      <trkpt lat="47.09404" lon="-1.74483">
        <ele>15.12</ele>
        <time>2020-03-07T12:01:37Z</time>
      </trkpt>
      <trkpt lat="47.09413" lon="-1.74468">
        <ele>14.34</ele>
        <time>2020-03-07T12:01:39Z</time>
      </trkpt>
      <trkpt lat="47.09423" lon="-1.74452">
        <ele>13.63</ele>
        <time>2020-03-07T12:01:41Z</time>
      </trkpt>
      <trkpt lat="47.09433" lon="-1.74438">
        <ele>13.27</ele>
        <time>2020-03-07T12:01:43Z</time>
      </trkpt>
      <trkpt lat="47.09443" lon="-1.74424">
        <ele>13.61</ele>
        <time>2020-03-07T12:01:45Z</time>
      </trkpt>
      <trkpt lat="47.09453" lon="-1.74413">
        <ele>13.64</ele>
        <time>2020-03-07T12:01:47Z</time>
      </trkpt>
      <trkpt lat="47.09463" lon="-1.74403">
        <ele>14.06</ele>
        <time>2020-03-07T12:01:49Z</time>
      </trkpt>
      <trkpt lat="47.09476" lon="-1.74393">
        <ele>14.26</ele>
        <time>2020-03-07T12:01:51Z</time>
      </trkpt>
      <trkpt lat="47.09489" lon="-1.74384">
        <ele>14.81</ele>
        <time>2020-03-07T12:01:53Z</time>
      </trkpt>
      <trkpt lat="47.09502" lon="-1.74375">
        <ele>15.17</ele>
        <time>2020-03-07T12:01:55Z</time>
      </trkpt>
      <trkpt lat="47.09514" lon="-1.74367">
        <ele>15.88</ele>
        <time>2020-03-07T12:01:57Z</time>
      </trkpt>
      <trkpt lat="47.09524" lon="-1.74361">
        <ele>16.84</ele>
        <time>2020-03-07T12:01:59Z</time>
      </trkpt>
      <trkpt lat="47.09534" lon="-1.74354">
        <ele>17.42</ele>
        <time>2020-03-07T12:02:01Z</time>
      </trkpt>
      <trkpt lat="47.09544" lon="-1.74346">
        <ele>18.59</ele>
        <time>2020-03-07T12:02:03Z</time>
      </trkpt>
      <trkpt lat="47.09556" lon="-1.74339">
        <ele>18.64</ele>
        <time>2020-03-07T12:02:05Z</time>
      </trkpt>
      <trkpt lat="47.09569" lon="-1.74332">
        <ele>18.02</ele>
        <time>2020-03-07T12:02:07Z</time>
      </trkpt>
      <trkpt lat="47.09581" lon="-1.74329">
        <ele>18.56</ele>
        <time>2020-03-07T12:02:09Z</time>
      </trkpt>
      <trkpt lat="47.09593" lon="-1.74326">
        <ele>18.33</ele>
        <time>2020-03-07T12:02:11Z</time>
      </trkpt>
      <trkpt lat="47.09605" lon="-1.74324">
        <ele>17.09</ele>
        <time>2020-03-07T12:02:13Z</time>
      </trkpt>
      <trkpt lat="47.09616" lon="-1.74321">
        <ele>16.39</ele>
        <time>2020-03-07T12:02:15Z</time>
      </trkpt>
      <trkpt lat="47.09627" lon="-1.74319">
        <ele>16.09</ele>
        <time>2020-03-07T12:02:17Z</time>
      </trkpt>
      <trkpt lat="47.0964" lon="-1.74314">
        <ele>15.46</ele>
        <time>2020-03-07T12:02:19Z</time>
      </trkpt>
      <trkpt lat="47.09653" lon="-1.74308">
        <ele>15.6</ele>
        <time>2020-03-07T12:02:21Z</time>
      </trkpt>
      <trkpt lat="47.09666" lon="-1.74298">
        <ele>15.48</ele>
        <time>2020-03-07T12:02:23Z</time>
      </trkpt>
      <trkpt lat="47.09679" lon="-1.74289">
        <ele>15.62</ele>
        <time>2020-03-07T12:02:25Z</time>
      </trkpt>
      <trkpt lat="47.09689" lon="-1.74281">
        <ele>15.68</ele>
        <time>2020-03-07T12:02:27Z</time>
      </trkpt>
      <trkpt lat="47.097" lon="-1.74269">
        <ele>15.89</ele>
        <time>2020-03-07T12:02:29Z</time>
      </trkpt>
      <trkpt lat="47.09709" lon="-1.74259">
        <ele>15.46</ele>
        <time>2020-03-07T12:02:31Z</time>
      </trkpt>
      <trkpt lat="47.09719" lon="-1.74251">
        <ele>14.91</ele>
        <time>2020-03-07T12:02:34Z</time>
      </trkpt>
      <trkpt lat="47.09731" lon="-1.7424">
        <ele>15.73</ele>
        <time>2020-03-07T12:02:35Z</time>
      </trkpt>
      <trkpt lat="47.09743" lon="-1.74227">
        <ele>17.06</ele>
        <time>2020-03-07T12:02:38Z</time>
      </trkpt>
      <trkpt lat="47.09754" lon="-1.74216">
        <ele>17.47</ele>
        <time>2020-03-07T12:02:40Z</time>
      </trkpt>
      <trkpt lat="47.09765" lon="-1.74206">
        <ele>17.05</ele>
        <time>2020-03-07T12:02:42Z</time>
      </trkpt>
      <trkpt lat="47.09776" lon="-1.74194">
        <ele>17.28</ele>
        <time>2020-03-07T12:02:44Z</time>
      </trkpt>
      <trkpt lat="47.09786" lon="-1.74183">
        <ele>18.08</ele>
        <time>2020-03-07T12:02:46Z</time>
      </trkpt>
      <trkpt lat="47.09798" lon="-1.7417">
        <ele>19.12</ele>
        <time>2020-03-07T12:02:48Z</time>
      </trkpt>
      <trkpt lat="47.0981" lon="-1.74158">
        <ele>19.72</ele>
        <time>2020-03-07T12:02:50Z</time>
      </trkpt>
      <trkpt lat="47.0982" lon="-1.74148">
        <ele>19.34</ele>
        <time>2020-03-07T12:02:52Z</time>
      </trkpt>
      <trkpt lat="47.09833" lon="-1.74134">
        <ele>18.66</ele>
        <time>2020-03-07T12:02:54Z</time>
      </trkpt>
      <trkpt lat="47.09845" lon="-1.74119">
        <ele>17.99</ele>
        <time>2020-03-07T12:02:56Z</time>
      </trkpt>
      <trkpt lat="47.09854" lon="-1.74103">
        <ele>16.2</ele>
        <time>2020-03-07T12:02:58Z</time>
      </trkpt>
      <trkpt lat="47.09864" lon="-1.74087">
        <ele>14.73</ele>
        <time>2020-03-07T12:03:00Z</time>
      </trkpt>
      <trkpt lat="47.09871" lon="-1.74073">
        <ele>13.88</ele>
        <time>2020-03-07T12:03:02Z</time>
      </trkpt>
      <trkpt lat="47.09881" lon="-1.74058">
        <ele>13.81</ele>
        <time>2020-03-07T12:03:04Z</time>
      </trkpt>
      <trkpt lat="47.09889" lon="-1.74047">
        <ele>14.14</ele>
        <time>2020-03-07T12:03:06Z</time>
      </trkpt>
      <trkpt lat="47.099" lon="-1.74034">
        <ele>13.44</ele>
        <time>2020-03-07T12:03:08Z</time>
      </trkpt>
      <trkpt lat="47.0991" lon="-1.74025">
        <ele>13.87</ele>
        <time>2020-03-07T12:03:10Z</time>
      </trkpt>
      <trkpt lat="47.09923" lon="-1.74014">
        <ele>13.89</ele>
        <time>2020-03-07T12:03:12Z</time>
      </trkpt>
      <trkpt lat="47.09935" lon="-1.74003">
        <ele>13.88</ele>
        <time>2020-03-07T12:03:14Z</time>
      </trkpt>
      <trkpt lat="47.09948" lon="-1.73992">
        <ele>14.42</ele>
        <time>2020-03-07T12:03:16Z</time>
      </trkpt>
      <trkpt lat="47.0996" lon="-1.7398">
        <ele>14.52</ele>
        <time>2020-03-07T12:03:18Z</time>
      </trkpt>
      <trkpt lat="47.09972" lon="-1.73969">
        <ele>14.19</ele>
        <time>2020-03-07T12:03:20Z</time>
      </trkpt>
      <trkpt lat="47.09984" lon="-1.73956">
        <ele>13.45</ele>
        <time>2020-03-07T12:03:22Z</time>
      </trkpt>
      <trkpt lat="47.09995" lon="-1.73943">
        <ele>13.41</ele>
        <time>2020-03-07T12:03:24Z</time>
      </trkpt>
      <trkpt lat="47.10005" lon="-1.73931">
        <ele>14.36</ele>
        <time>2020-03-07T12:03:26Z</time>
      </trkpt>
      <trkpt lat="47.10015" lon="-1.73919">
        <ele>15.17</ele>
        <time>2020-03-07T12:03:28Z</time>
      </trkpt>
      <trkpt lat="47.10026" lon="-1.73906">
        <ele>15.49</ele>
        <time>2020-03-07T12:03:30Z</time>
      </trkpt>
      <trkpt lat="47.10036" lon="-1.73895">
        <ele>15.9</ele>
        <time>2020-03-07T12:03:32Z</time>
      </trkpt>
      <trkpt lat="47.10044" lon="-1.73884">
        <ele>16.27</ele>
        <time>2020-03-07T12:03:34Z</time>
      </trkpt>
      <trkpt lat="47.10054" lon="-1.73872">
        <ele>15.84</ele>
        <time>2020-03-07T12:03:36Z</time>
      </trkpt>
      <trkpt lat="47.10065" lon="-1.7386">
        <ele>15.88</ele>
        <time>2020-03-07T12:03:38Z</time>
      </trkpt>
      <trkpt lat="47.10076" lon="-1.73847">
        <ele>15.82</ele>
        <time>2020-03-07T12:03:40Z</time>
      </trkpt>
      <trkpt lat="47.10086" lon="-1.73835">
        <ele>14.79</ele>
        <time>2020-03-07T12:03:42Z</time>
      </trkpt>
      <trkpt lat="47.10097" lon="-1.73824">
        <ele>14.89</ele>
        <time>2020-03-07T12:03:44Z</time>
      </trkpt>
      <trkpt lat="47.10107" lon="-1.73815">
        <ele>15.55</ele>
        <time>2020-03-07T12:03:46Z</time>
      </trkpt>
      <trkpt lat="47.10117" lon="-1.73806">
        <ele>14.91</ele>
        <time>2020-03-07T12:03:48Z</time>
      </trkpt>
      <trkpt lat="47.10127" lon="-1.73797">
        <ele>14.61</ele>
        <time>2020-03-07T12:03:50Z</time>
      </trkpt>
      <trkpt lat="47.10136" lon="-1.73788">
        <ele>14.82</ele>
        <time>2020-03-07T12:03:52Z</time>
      </trkpt>
      <trkpt lat="47.10148" lon="-1.7378">
        <ele>15.11</ele>
        <time>2020-03-07T12:03:54Z</time>
      </trkpt>
      <trkpt lat="47.10159" lon="-1.73774">
        <ele>15.99</ele>
        <time>2020-03-07T12:03:56Z</time>
      </trkpt>
      <trkpt lat="47.10174" lon="-1.73769">
        <ele>16.64</ele>
        <time>2020-03-07T12:03:58Z</time>
      </trkpt>
      <trkpt lat="47.10188" lon="-1.73767">
        <ele>16.3</ele>
        <time>2020-03-07T12:04:00Z</time>
      </trkpt>
      <trkpt lat="47.10202" lon="-1.73765">
        <ele>16.72</ele>
        <time>2020-03-07T12:04:02Z</time>
      </trkpt>
      <trkpt lat="47.10214" lon="-1.73764">
        <ele>17.5</ele>
        <time>2020-03-07T12:04:04Z</time>
      </trkpt>
      <trkpt lat="47.10227" lon="-1.73764">
        <ele>16.8</ele>
        <time>2020-03-07T12:04:06Z</time>
      </trkpt>
      <trkpt lat="47.10241" lon="-1.73763">
        <ele>16.46</ele>
        <time>2020-03-07T12:04:08Z</time>
      </trkpt>
      <trkpt lat="47.10255" lon="-1.73762">
        <ele>15.94</ele>
        <time>2020-03-07T12:04:10Z</time>
      </trkpt>
      <trkpt lat="47.10269" lon="-1.73759">
        <ele>16.06</ele>
        <time>2020-03-07T12:04:12Z</time>
      </trkpt>
      <trkpt lat="47.10281" lon="-1.73755">
        <ele>15.58</ele>
        <time>2020-03-07T12:04:14Z</time>
      </trkpt>
      <trkpt lat="47.10294" lon="-1.73751">
        <ele>15.48</ele>
        <time>2020-03-07T12:04:16Z</time>
      </trkpt>
      <trkpt lat="47.10307" lon="-1.73745">
        <ele>15.8</ele>
        <time>2020-03-07T12:04:18Z</time>
      </trkpt>
      <trkpt lat="47.10319" lon="-1.7374">
        <ele>17.1</ele>
        <time>2020-03-07T12:04:20Z</time>
      </trkpt>
      <trkpt lat="47.10331" lon="-1.73734">
        <ele>18.59</ele>
        <time>2020-03-07T12:04:22Z</time>
      </trkpt>
      <trkpt lat="47.10342" lon="-1.73729">
        <ele>19.6</ele>
        <time>2020-03-07T12:04:24Z</time>
      </trkpt>
      <trkpt lat="47.10352" lon="-1.73723">
        <ele>19.98</ele>
        <time>2020-03-07T12:04:26Z</time>
      </trkpt>
      <trkpt lat="47.10362" lon="-1.73717">
        <ele>19.46</ele>
        <time>2020-03-07T12:04:28Z</time>
      </trkpt>
      <trkpt lat="47.10373" lon="-1.73712">
        <ele>18.06</ele>
        <time>2020-03-07T12:04:30Z</time>
      </trkpt>
      <trkpt lat="47.10383" lon="-1.73707">
        <ele>16.95</ele>
        <time>2020-03-07T12:04:32Z</time>
      </trkpt>
      <trkpt lat="47.10396" lon="-1.73701">
        <ele>15.47</ele>
        <time>2020-03-07T12:04:34Z</time>
      </trkpt>
      <trkpt lat="47.1041" lon="-1.73695">
        <ele>15.86</ele>
        <time>2020-03-07T12:04:36Z</time>
      </trkpt>
      <trkpt lat="47.1042" lon="-1.73692">
        <ele>16.91</ele>
        <time>2020-03-07T12:04:38Z</time>
      </trkpt>
      <trkpt lat="47.10429" lon="-1.73689">
        <ele>17.62</ele>
        <time>2020-03-07T12:04:40Z</time>
      </trkpt>
      <trkpt lat="47.1044" lon="-1.73686">
        <ele>17.74</ele>
        <time>2020-03-07T12:04:42Z</time>
      </trkpt>
      <trkpt lat="47.10454" lon="-1.73682">
        <ele>16.11</ele>
        <time>2020-03-07T12:04:44Z</time>
      </trkpt>
      <trkpt lat="47.10469" lon="-1.73681">
        <ele>15.15</ele>
        <time>2020-03-07T12:04:46Z</time>
      </trkpt>
      <trkpt lat="47.10481" lon="-1.73678">
        <ele>14.28</ele>
        <time>2020-03-07T12:04:48Z</time>
      </trkpt>
      <trkpt lat="47.10492" lon="-1.73678">
        <ele>14.14</ele>
        <time>2020-03-07T12:04:50Z</time>
      </trkpt>
      <trkpt lat="47.10503" lon="-1.73678">
        <ele>14.78</ele>
        <time>2020-03-07T12:04:52Z</time>
      </trkpt>
      <trkpt lat="47.10514" lon="-1.73678">
        <ele>15.87</ele>
        <time>2020-03-07T12:04:54Z</time>
      </trkpt>
      <trkpt lat="47.10526" lon="-1.73679">
        <ele>17.53</ele>
        <time>2020-03-07T12:04:56Z</time>
      </trkpt>
      <trkpt lat="47.10535" lon="-1.73679">
        <ele>19.09</ele>
        <time>2020-03-07T12:04:58Z</time>
      </trkpt>
      <trkpt lat="47.10549" lon="-1.73681">
        <ele>19.11</ele>
        <time>2020-03-07T12:05:00Z</time>
      </trkpt>
      <trkpt lat="47.10563" lon="-1.73683">
        <ele>17.88</ele>
        <time>2020-03-07T12:05:02Z</time>
      </trkpt>
      <trkpt lat="47.10573" lon="-1.73683">
        <ele>16.05</ele>
        <time>2020-03-07T12:05:04Z</time>
      </trkpt>
      <trkpt lat="47.10585" lon="-1.73683">
        <ele>15.6</ele>
        <time>2020-03-07T12:05:06Z</time>
      </trkpt>
      <trkpt lat="47.10598" lon="-1.73683">
        <ele>15.58</ele>
        <time>2020-03-07T12:05:09Z</time>
      </trkpt>
      <trkpt lat="47.10613" lon="-1.73679">
        <ele>16.24</ele>
        <time>2020-03-07T12:05:11Z</time>
      </trkpt>
      <trkpt lat="47.10625" lon="-1.73672">
        <ele>16.24</ele>
        <time>2020-03-07T12:05:13Z</time>
      </trkpt>
      <trkpt lat="47.10637" lon="-1.73672">
        <ele>16.82</ele>
        <time>2020-03-07T12:05:15Z</time>
      </trkpt>
      <trkpt lat="47.10649" lon="-1.73672">
        <ele>17.12</ele>
        <time>2020-03-07T12:05:17Z</time>
      </trkpt>
      <trkpt lat="47.1066" lon="-1.73668">
        <ele>17.69</ele>
        <time>2020-03-07T12:05:19Z</time>
      </trkpt>
      <trkpt lat="47.10672" lon="-1.73662">
        <ele>17.32</ele>
        <time>2020-03-07T12:05:21Z</time>
      </trkpt>
      <trkpt lat="47.10684" lon="-1.73656">
        <ele>17.37</ele>
        <time>2020-03-07T12:05:23Z</time>
      </trkpt>
      <trkpt lat="47.10696" lon="-1.73648">
        <ele>17.94</ele>
        <time>2020-03-07T12:05:25Z</time>
      </trkpt>
      <trkpt lat="47.10709" lon="-1.73638">
        <ele>17.75</ele>
        <time>2020-03-07T12:05:27Z</time>
      </trkpt>
      <trkpt lat="47.10721" lon="-1.73626">
        <ele>17.03</ele>
        <time>2020-03-07T12:05:29Z</time>
      </trkpt>
      <trkpt lat="47.10733" lon="-1.73615">
        <ele>16.51</ele>
        <time>2020-03-07T12:05:31Z</time>
      </trkpt>
      <trkpt lat="47.10745" lon="-1.73604">
        <ele>15.93</ele>
        <time>2020-03-07T12:05:33Z</time>
      </trkpt>
      <trkpt lat="47.10757" lon="-1.73593">
        <ele>16.41</ele>
        <time>2020-03-07T12:05:35Z</time>
      </trkpt>
      <trkpt lat="47.10768" lon="-1.73583">
        <ele>16.76</ele>
        <time>2020-03-07T12:05:37Z</time>
      </trkpt>
      <trkpt lat="47.10781" lon="-1.73571">
        <ele>16.34</ele>
        <time>2020-03-07T12:05:39Z</time>
      </trkpt>
      <trkpt lat="47.10794" lon="-1.73559">
        <ele>15.15</ele>
        <time>2020-03-07T12:05:41Z</time>
      </trkpt>
      <trkpt lat="47.10807" lon="-1.73547">
        <ele>14.62</ele>
        <time>2020-03-07T12:05:43Z</time>
      </trkpt>
      <trkpt lat="47.10821" lon="-1.73536">
        <ele>13.93</ele>
        <time>2020-03-07T12:05:45Z</time>
      </trkpt>
      <trkpt lat="47.10836" lon="-1.73527">
        <ele>12.99</ele>
        <time>2020-03-07T12:05:47Z</time>
      </trkpt>
      <trkpt lat="47.1085" lon="-1.7352">
        <ele>11.72</ele>
        <time>2020-03-07T12:05:49Z</time>
      </trkpt>
      <trkpt lat="47.10867" lon="-1.73513">
        <ele>9.7</ele>
        <time>2020-03-07T12:05:51Z</time>
      </trkpt>
      <trkpt lat="47.10882" lon="-1.73511">
        <ele>8.98</ele>
        <time>2020-03-07T12:05:53Z</time>
      </trkpt>
      <trkpt lat="47.10897" lon="-1.73509">
        <ele>8.46</ele>
        <time>2020-03-07T12:05:55Z</time>
      </trkpt>
      <trkpt lat="47.10911" lon="-1.73504">
        <ele>9.28</ele>
        <time>2020-03-07T12:05:57Z</time>
      </trkpt>
      <trkpt lat="47.10925" lon="-1.73499">
        <ele>10.3</ele>
        <time>2020-03-07T12:05:59Z</time>
      </trkpt>
      <trkpt lat="47.10938" lon="-1.73494">
        <ele>11.06</ele>
        <time>2020-03-07T12:06:01Z</time>
      </trkpt>
      <trkpt lat="47.10952" lon="-1.73489">
        <ele>11.78</ele>
        <time>2020-03-07T12:06:03Z</time>
      </trkpt>
      <trkpt lat="47.10966" lon="-1.73487">
        <ele>11.95</ele>
        <time>2020-03-07T12:06:05Z</time>
      </trkpt>
      <trkpt lat="47.10979" lon="-1.73486">
        <ele>12.09</ele>
        <time>2020-03-07T12:06:07Z</time>
      </trkpt>
      <trkpt lat="47.10993" lon="-1.73491">
        <ele>12.55</ele>
        <time>2020-03-07T12:06:09Z</time>
      </trkpt>
      <trkpt lat="47.11005" lon="-1.73494">
        <ele>13.13</ele>
        <time>2020-03-07T12:06:11Z</time>
      </trkpt>
      <trkpt lat="47.11016" lon="-1.73499">
        <ele>13.79</ele>
        <time>2020-03-07T12:06:13Z</time>
      </trkpt>
      <trkpt lat="47.11028" lon="-1.73507">
        <ele>13.4</ele>
        <time>2020-03-07T12:06:15Z</time>
      </trkpt>
      <trkpt lat="47.11044" lon="-1.73514">
        <ele>11.73</ele>
        <time>2020-03-07T12:06:17Z</time>
      </trkpt>
      <trkpt lat="47.11058" lon="-1.73521">
        <ele>10.6</ele>
        <time>2020-03-07T12:06:19Z</time>
      </trkpt>
      <trkpt lat="47.11072" lon="-1.73528">
        <ele>9.38</ele>
        <time>2020-03-07T12:06:21Z</time>
      </trkpt>
      <trkpt lat="47.11086" lon="-1.73537">
        <ele>8.93</ele>
        <time>2020-03-07T12:06:23Z</time>
      </trkpt>
      <trkpt lat="47.111" lon="-1.73544">
        <ele>8.78</ele>
        <time>2020-03-07T12:06:25Z</time>
      </trkpt>
      <trkpt lat="47.11112" lon="-1.7355">
        <ele>8.72</ele>
        <time>2020-03-07T12:06:27Z</time>
      </trkpt>
      <trkpt lat="47.11124" lon="-1.73554">
        <ele>9.15</ele>
        <time>2020-03-07T12:06:29Z</time>
      </trkpt>
      <trkpt lat="47.11138" lon="-1.73557">
        <ele>9.35</ele>
        <time>2020-03-07T12:06:31Z</time>
      </trkpt>
      <trkpt lat="47.11152" lon="-1.73557">
        <ele>8.85</ele>
        <time>2020-03-07T12:06:33Z</time>
      </trkpt>
      <trkpt lat="47.11163" lon="-1.73557">
        <ele>8.9</ele>
        <time>2020-03-07T12:06:35Z</time>
      </trkpt>
      <trkpt lat="47.11174" lon="-1.73557">
        <ele>8.71</ele>
        <time>2020-03-07T12:06:37Z</time>
      </trkpt>
      <trkpt lat="47.11185" lon="-1.73557">
        <ele>7.88</ele>
        <time>2020-03-07T12:06:39Z</time>
      </trkpt>
      <trkpt lat="47.11195" lon="-1.73557">
        <ele>8.28</ele>
        <time>2020-03-07T12:06:41Z</time>
      </trkpt>
      <trkpt lat="47.11209" lon="-1.73557">
        <ele>7.46</ele>
        <time>2020-03-07T12:06:43Z</time>
      </trkpt>
      <trkpt lat="47.11222" lon="-1.73558">
        <ele>7.82</ele>
        <time>2020-03-07T12:06:45Z</time>
      </trkpt>
      <trkpt lat="47.11232" lon="-1.73559">
        <ele>8.98</ele>
        <time>2020-03-07T12:06:47Z</time>
      </trkpt>
      <trkpt lat="47.11242" lon="-1.7356">
        <ele>10.34</ele>
        <time>2020-03-07T12:06:49Z</time>
      </trkpt>
      <trkpt lat="47.11254" lon="-1.73562">
        <ele>10.56</ele>
        <time>2020-03-07T12:06:51Z</time>
      </trkpt>
      <trkpt lat="47.11264" lon="-1.73561">
        <ele>9.68</ele>
        <time>2020-03-07T12:06:53Z</time>
      </trkpt>
      <trkpt lat="47.11272" lon="-1.73548">
        <ele>9.44</ele>
        <time>2020-03-07T12:06:55Z</time>
      </trkpt>
      <trkpt lat="47.11273" lon="-1.73534">
        <ele>9.13</ele>
        <time>2020-03-07T12:06:57Z</time>
      </trkpt>
      <trkpt lat="47.11271" lon="-1.73515">
        <ele>7.45</ele>
        <time>2020-03-07T12:06:59Z</time>
      </trkpt>
      <trkpt lat="47.11269" lon="-1.73497">
        <ele>7.01</ele>
        <time>2020-03-07T12:07:01Z</time>
      </trkpt>
      <trkpt lat="47.11267" lon="-1.7348">
        <ele>6.76</ele>
        <time>2020-03-07T12:07:03Z</time>
      </trkpt>
      <trkpt lat="47.11263" lon="-1.73464">
        <ele>7.33</ele>
        <time>2020-03-07T12:07:05Z</time>
      </trkpt>
      <trkpt lat="47.1126" lon="-1.73451">
        <ele>8</ele>
        <time>2020-03-07T12:07:07Z</time>
      </trkpt>
      <trkpt lat="47.1126" lon="-1.73435">
        <ele>8.58</ele>
        <time>2020-03-07T12:07:09Z</time>
      </trkpt>
      <trkpt lat="47.11261" lon="-1.73419">
        <ele>9.6</ele>
        <time>2020-03-07T12:07:11Z</time>
      </trkpt>
      <trkpt lat="47.11261" lon="-1.73403">
        <ele>10.88</ele>
        <time>2020-03-07T12:07:13Z</time>
      </trkpt>
      <trkpt lat="47.11261" lon="-1.73387">
        <ele>12.16</ele>
        <time>2020-03-07T12:07:15Z</time>
      </trkpt>
      <trkpt lat="47.11261" lon="-1.73371">
        <ele>12.64</ele>
        <time>2020-03-07T12:07:17Z</time>
      </trkpt>
      <trkpt lat="47.1126" lon="-1.73354">
        <ele>12.66</ele>
        <time>2020-03-07T12:07:19Z</time>
      </trkpt>
      <trkpt lat="47.11259" lon="-1.73339">
        <ele>12.76</ele>
        <time>2020-03-07T12:07:21Z</time>
      </trkpt>
      <trkpt lat="47.11258" lon="-1.73324">
        <ele>12.74</ele>
        <time>2020-03-07T12:07:23Z</time>
      </trkpt>
      <trkpt lat="47.11256" lon="-1.73307">
        <ele>11.86</ele>
        <time>2020-03-07T12:07:25Z</time>
      </trkpt>
      <trkpt lat="47.11254" lon="-1.73292">
        <ele>11.45</ele>
        <time>2020-03-07T12:07:27Z</time>
      </trkpt>
      <trkpt lat="47.11253" lon="-1.73276">
        <ele>12.05</ele>
        <time>2020-03-07T12:07:29Z</time>
      </trkpt>
      <trkpt lat="47.11251" lon="-1.73262">
        <ele>13.53</ele>
        <time>2020-03-07T12:07:31Z</time>
      </trkpt>
      <trkpt lat="47.11246" lon="-1.73247">
        <ele>14.75</ele>
        <time>2020-03-07T12:07:33Z</time>
      </trkpt>
      <trkpt lat="47.11242" lon="-1.73232">
        <ele>14.42</ele>
        <time>2020-03-07T12:07:35Z</time>
      </trkpt>
      <trkpt lat="47.11238" lon="-1.73217">
        <ele>13.72</ele>
        <time>2020-03-07T12:07:37Z</time>
      </trkpt>
      <trkpt lat="47.11234" lon="-1.73203">
        <ele>13.85</ele>
        <time>2020-03-07T12:07:39Z</time>
      </trkpt>
      <trkpt lat="47.1123" lon="-1.73186">
        <ele>13.96</ele>
        <time>2020-03-07T12:07:41Z</time>
      </trkpt>
      <trkpt lat="47.11227" lon="-1.73172">
        <ele>13.7</ele>
        <time>2020-03-07T12:07:43Z</time>
      </trkpt>
      <trkpt lat="47.11223" lon="-1.73158">
        <ele>12.25</ele>
        <time>2020-03-07T12:07:45Z</time>
      </trkpt>
      <trkpt lat="47.1122" lon="-1.73143">
        <ele>12.44</ele>
        <time>2020-03-07T12:07:47Z</time>
      </trkpt>
      <trkpt lat="47.11215" lon="-1.73124">
        <ele>13.43</ele>
        <time>2020-03-07T12:07:50Z</time>
      </trkpt>
      <trkpt lat="47.11212" lon="-1.73108">
        <ele>14.46</ele>
        <time>2020-03-07T12:07:52Z</time>
      </trkpt>
      <trkpt lat="47.11208" lon="-1.7309">
        <ele>13.65</ele>
        <time>2020-03-07T12:07:54Z</time>
      </trkpt>
      <trkpt lat="47.11204" lon="-1.73075">
        <ele>13.01</ele>
        <time>2020-03-07T12:07:56Z</time>
      </trkpt>
      <trkpt lat="47.11201" lon="-1.7306">
        <ele>13.05</ele>
        <time>2020-03-07T12:07:58Z</time>
      </trkpt>
      <trkpt lat="47.11196" lon="-1.73042">
        <ele>13.32</ele>
        <time>2020-03-07T12:08:00Z</time>
      </trkpt>
      <trkpt lat="47.11192" lon="-1.73025">
        <ele>13.13</ele>
        <time>2020-03-07T12:08:02Z</time>
      </trkpt>
      <trkpt lat="47.11188" lon="-1.7301">
        <ele>13.7</ele>
        <time>2020-03-07T12:08:04Z</time>
      </trkpt>
      <trkpt lat="47.11184" lon="-1.72995">
        <ele>14.74</ele>
        <time>2020-03-07T12:08:06Z</time>
      </trkpt>
      <trkpt lat="47.1118" lon="-1.72975">
        <ele>15.94</ele>
        <time>2020-03-07T12:08:08Z</time>
      </trkpt>
      <trkpt lat="47.11176" lon="-1.7296">
        <ele>16.04</ele>
        <time>2020-03-07T12:08:10Z</time>
      </trkpt>
      <trkpt lat="47.11173" lon="-1.72943">
        <ele>15.75</ele>
        <time>2020-03-07T12:08:12Z</time>
      </trkpt>
      <trkpt lat="47.11169" lon="-1.72927">
        <ele>14.61</ele>
        <time>2020-03-07T12:08:14Z</time>
      </trkpt>
      <trkpt lat="47.11164" lon="-1.72909">
        <ele>15.28</ele>
        <time>2020-03-07T12:08:16Z</time>
      </trkpt>
      <trkpt lat="47.11159" lon="-1.72891">
        <ele>14.64</ele>
        <time>2020-03-07T12:08:18Z</time>
      </trkpt>
      <trkpt lat="47.11155" lon="-1.72872">
        <ele>14.94</ele>
        <time>2020-03-07T12:08:20Z</time>
      </trkpt>
      <trkpt lat="47.11151" lon="-1.72855">
        <ele>15.95</ele>
        <time>2020-03-07T12:08:22Z</time>
      </trkpt>
      <trkpt lat="47.11146" lon="-1.72838">
        <ele>16.88</ele>
        <time>2020-03-07T12:08:24Z</time>
      </trkpt>
      <trkpt lat="47.11142" lon="-1.7282">
        <ele>18.17</ele>
        <time>2020-03-07T12:08:26Z</time>
      </trkpt>
      <trkpt lat="47.11137" lon="-1.728">
        <ele>18.03</ele>
        <time>2020-03-07T12:08:28Z</time>
      </trkpt>
      <trkpt lat="47.11133" lon="-1.72782">
        <ele>17.72</ele>
        <time>2020-03-07T12:08:30Z</time>
      </trkpt>
      <trkpt lat="47.11129" lon="-1.72763">
        <ele>17.29</ele>
        <time>2020-03-07T12:08:32Z</time>
      </trkpt>
      <trkpt lat="47.11125" lon="-1.72746">
        <ele>17.69</ele>
        <time>2020-03-07T12:08:34Z</time>
      </trkpt>
      <trkpt lat="47.11121" lon="-1.7273">
        <ele>17.83</ele>
        <time>2020-03-07T12:08:36Z</time>
      </trkpt>
      <trkpt lat="47.11117" lon="-1.7271">
        <ele>17.14</ele>
        <time>2020-03-07T12:08:38Z</time>
      </trkpt>
      <trkpt lat="47.11112" lon="-1.72686">
        <ele>17.45</ele>
        <time>2020-03-07T12:08:40Z</time>
      </trkpt>
      <trkpt lat="47.11108" lon="-1.72669">
        <ele>17.27</ele>
        <time>2020-03-07T12:08:42Z</time>
      </trkpt>
      <trkpt lat="47.11104" lon="-1.72654">
        <ele>17.33</ele>
        <time>2020-03-07T12:08:44Z</time>
      </trkpt>
      <trkpt lat="47.111" lon="-1.72636">
        <ele>18.06</ele>
        <time>2020-03-07T12:08:46Z</time>
      </trkpt>
      <trkpt lat="47.11095" lon="-1.72615">
        <ele>18.3</ele>
        <time>2020-03-07T12:08:48Z</time>
      </trkpt>
      <trkpt lat="47.11092" lon="-1.72602">
        <ele>17.29</ele>
        <time>2020-03-07T12:08:50Z</time>
      </trkpt>
      <trkpt lat="47.11088" lon="-1.72585">
        <ele>15.92</ele>
        <time>2020-03-07T12:08:52Z</time>
      </trkpt>
      <trkpt lat="47.11084" lon="-1.72566">
        <ele>16.74</ele>
        <time>2020-03-07T12:08:54Z</time>
      </trkpt>
      <trkpt lat="47.1108" lon="-1.72545">
        <ele>16.15</ele>
        <time>2020-03-07T12:08:56Z</time>
      </trkpt>
      <trkpt lat="47.11081" lon="-1.72524">
        <ele>13.85</ele>
        <time>2020-03-07T12:08:58Z</time>
      </trkpt>
      <trkpt lat="47.11084" lon="-1.72503">
        <ele>12.96</ele>
        <time>2020-03-07T12:09:00Z</time>
      </trkpt>
      <trkpt lat="47.11089" lon="-1.72483">
        <ele>13.13</ele>
        <time>2020-03-07T12:09:02Z</time>
      </trkpt>
      <trkpt lat="47.11093" lon="-1.72462">
        <ele>13.56</ele>
        <time>2020-03-07T12:09:04Z</time>
      </trkpt>
      <trkpt lat="47.11098" lon="-1.7244">
        <ele>12.88</ele>
        <time>2020-03-07T12:09:06Z</time>
      </trkpt>
      <trkpt lat="47.11103" lon="-1.7242">
        <ele>12.14</ele>
        <time>2020-03-07T12:09:08Z</time>
      </trkpt>
      <trkpt lat="47.11108" lon="-1.724">
        <ele>11.79</ele>
        <time>2020-03-07T12:09:10Z</time>
      </trkpt>
      <trkpt lat="47.11112" lon="-1.72383">
        <ele>12.14</ele>
        <time>2020-03-07T12:09:12Z</time>
      </trkpt>
      <trkpt lat="47.11117" lon="-1.72364">
        <ele>12.13</ele>
        <time>2020-03-07T12:09:14Z</time>
      </trkpt>
      <trkpt lat="47.11122" lon="-1.72346">
        <ele>12.04</ele>
        <time>2020-03-07T12:09:16Z</time>
      </trkpt>
      <trkpt lat="47.11127" lon="-1.72325">
        <ele>12.65</ele>
        <time>2020-03-07T12:09:18Z</time>
      </trkpt>
      <trkpt lat="47.11132" lon="-1.72304">
        <ele>13.09</ele>
        <time>2020-03-07T12:09:20Z</time>
      </trkpt>
      <trkpt lat="47.11136" lon="-1.72285">
        <ele>13.41</ele>
        <time>2020-03-07T12:09:22Z</time>
      </trkpt>
      <trkpt lat="47.1114" lon="-1.72267">
        <ele>12.86</ele>
        <time>2020-03-07T12:09:24Z</time>
      </trkpt>
      <trkpt lat="47.11146" lon="-1.72246">
        <ele>11.35</ele>
        <time>2020-03-07T12:09:26Z</time>
      </trkpt>
      <trkpt lat="47.11151" lon="-1.72226">
        <ele>10.47</ele>
        <time>2020-03-07T12:09:28Z</time>
      </trkpt>
      <trkpt lat="47.11157" lon="-1.72205">
        <ele>10.12</ele>
        <time>2020-03-07T12:09:30Z</time>
      </trkpt>
      <trkpt lat="47.11162" lon="-1.72183">
        <ele>9.43</ele>
        <time>2020-03-07T12:09:32Z</time>
      </trkpt>
      <trkpt lat="47.11166" lon="-1.72164">
        <ele>10.04</ele>
        <time>2020-03-07T12:09:34Z</time>
      </trkpt>
      <trkpt lat="47.11171" lon="-1.72144">
        <ele>9.7</ele>
        <time>2020-03-07T12:09:36Z</time>
      </trkpt>
      <trkpt lat="47.11176" lon="-1.72127">
        <ele>10.09</ele>
        <time>2020-03-07T12:09:38Z</time>
      </trkpt>
      <trkpt lat="47.11182" lon="-1.72104">
        <ele>11.55</ele>
        <time>2020-03-07T12:09:40Z</time>
      </trkpt>
      <trkpt lat="47.11187" lon="-1.72087">
        <ele>13.08</ele>
        <time>2020-03-07T12:09:42Z</time>
      </trkpt>
      <trkpt lat="47.11192" lon="-1.72068">
        <ele>14.66</ele>
        <time>2020-03-07T12:09:44Z</time>
      </trkpt>
      <trkpt lat="47.11197" lon="-1.72046">
        <ele>15.65</ele>
        <time>2020-03-07T12:09:46Z</time>
      </trkpt>
      <trkpt lat="47.11203" lon="-1.72026">
        <ele>15.84</ele>
        <time>2020-03-07T12:09:48Z</time>
      </trkpt>
      <trkpt lat="47.11208" lon="-1.72003">
        <ele>14.67</ele>
        <time>2020-03-07T12:09:50Z</time>
      </trkpt>
      <trkpt lat="47.11213" lon="-1.71982">
        <ele>13.47</ele>
        <time>2020-03-07T12:09:52Z</time>
      </trkpt>
      <trkpt lat="47.11219" lon="-1.7196">
        <ele>13.08</ele>
        <time>2020-03-07T12:09:54Z</time>
      </trkpt>
      <trkpt lat="47.11224" lon="-1.71939">
        <ele>12.67</ele>
        <time>2020-03-07T12:09:56Z</time>
      </trkpt>
      <trkpt lat="47.11229" lon="-1.71918">
        <ele>12.43</ele>
        <time>2020-03-07T12:09:58Z</time>
      </trkpt>
      <trkpt lat="47.11233" lon="-1.71895">
        <ele>12.03</ele>
        <time>2020-03-07T12:10:00Z</time>
      </trkpt>
      <trkpt lat="47.11239" lon="-1.7187">
        <ele>11.91</ele>
        <time>2020-03-07T12:10:02Z</time>
      </trkpt>
      <trkpt lat="47.11243" lon="-1.71858">
        <ele>11.36</ele>
        <time>2020-03-07T12:10:03Z</time>
      </trkpt>
      <trkpt lat="47.1125" lon="-1.71834">
        <ele>10.02</ele>
        <time>2020-03-07T12:10:05Z</time>
      </trkpt>
      <trkpt lat="47.11254" lon="-1.71821">
        <ele>9.3</ele>
        <time>2020-03-07T12:10:06Z</time>
      </trkpt>
      <trkpt lat="47.11258" lon="-1.71809">
        <ele>8.4</ele>
        <time>2020-03-07T12:10:07Z</time>
      </trkpt>
      <trkpt lat="47.11264" lon="-1.71796">
        <ele>7.61</ele>
        <time>2020-03-07T12:10:08Z</time>
      </trkpt>
      <trkpt lat="47.11269" lon="-1.71785">
        <ele>6.49</ele>
        <time>2020-03-07T12:10:09Z</time>
      </trkpt>
      <trkpt lat="47.11274" lon="-1.71774">
        <ele>5.81</ele>
        <time>2020-03-07T12:10:10Z</time>
      </trkpt>
      <trkpt lat="47.1128" lon="-1.71762">
        <ele>5.57</ele>
        <time>2020-03-07T12:10:11Z</time>
      </trkpt>
      <trkpt lat="47.11287" lon="-1.71751">
        <ele>5.12</ele>
        <time>2020-03-07T12:10:12Z</time>
      </trkpt>
      <trkpt lat="47.11296" lon="-1.71731">
        <ele>5.46</ele>
        <time>2020-03-07T12:10:14Z</time>
      </trkpt>
      <trkpt lat="47.11303" lon="-1.7172">
        <ele>5.69</ele>
        <time>2020-03-07T12:10:15Z</time>
      </trkpt>
      <trkpt lat="47.11308" lon="-1.71709">
        <ele>5.84</ele>
        <time>2020-03-07T12:10:16Z</time>
      </trkpt>
      <trkpt lat="47.11319" lon="-1.71689">
        <ele>5.31</ele>
        <time>2020-03-07T12:10:18Z</time>
      </trkpt>
      <trkpt lat="47.1133" lon="-1.71667">
        <ele>5.51</ele>
        <time>2020-03-07T12:10:20Z</time>
      </trkpt>
      <trkpt lat="47.11336" lon="-1.71655">
        <ele>5.1</ele>
        <time>2020-03-07T12:10:21Z</time>
      </trkpt>
      <trkpt lat="47.11346" lon="-1.71635">
        <ele>4.5</ele>
        <time>2020-03-07T12:10:23Z</time>
      </trkpt>
      <trkpt lat="47.11352" lon="-1.71624">
        <ele>3.98</ele>
        <time>2020-03-07T12:10:24Z</time>
      </trkpt>
      <trkpt lat="47.11364" lon="-1.71602">
        <ele>3.66</ele>
        <time>2020-03-07T12:10:26Z</time>
      </trkpt>
      <trkpt lat="47.11372" lon="-1.71585">
        <ele>4.46</ele>
        <time>2020-03-07T12:10:28Z</time>
      </trkpt>
      <trkpt lat="47.11382" lon="-1.71564">
        <ele>5.28</ele>
        <time>2020-03-07T12:10:30Z</time>
      </trkpt>
      <trkpt lat="47.11393" lon="-1.71545">
        <ele>5.69</ele>
        <time>2020-03-07T12:10:32Z</time>
      </trkpt>
      <trkpt lat="47.11399" lon="-1.71535">
        <ele>5.45</ele>
        <time>2020-03-07T12:10:33Z</time>
      </trkpt>
      <trkpt lat="47.11408" lon="-1.71517">
        <ele>5.83</ele>
        <time>2020-03-07T12:10:35Z</time>
      </trkpt>
      <trkpt lat="47.11417" lon="-1.71499">
        <ele>6.11</ele>
        <time>2020-03-07T12:10:37Z</time>
      </trkpt>
      <trkpt lat="47.11427" lon="-1.71479">
        <ele>5.89</ele>
        <time>2020-03-07T12:10:39Z</time>
      </trkpt>
      <trkpt lat="47.11437" lon="-1.71459">
        <ele>5.78</ele>
        <time>2020-03-07T12:10:41Z</time>
      </trkpt>
      <trkpt lat="47.11446" lon="-1.71442">
        <ele>5.67</ele>
        <time>2020-03-07T12:10:43Z</time>
      </trkpt>
      <trkpt lat="47.11456" lon="-1.71424">
        <ele>4.93</ele>
        <time>2020-03-07T12:10:45Z</time>
      </trkpt>
      <trkpt lat="47.11466" lon="-1.71406">
        <ele>4.01</ele>
        <time>2020-03-07T12:10:47Z</time>
      </trkpt>
      <trkpt lat="47.11474" lon="-1.7139">
        <ele>4.62</ele>
        <time>2020-03-07T12:10:49Z</time>
      </trkpt>
      <trkpt lat="47.11483" lon="-1.71372">
        <ele>4.11</ele>
        <time>2020-03-07T12:10:51Z</time>
      </trkpt>
      <trkpt lat="47.11492" lon="-1.71354">
        <ele>4.89</ele>
        <time>2020-03-07T12:10:53Z</time>
      </trkpt>
      <trkpt lat="47.11501" lon="-1.71336">
        <ele>5.5</ele>
        <time>2020-03-07T12:10:55Z</time>
      </trkpt>
      <trkpt lat="47.11509" lon="-1.7132">
        <ele>5.93</ele>
        <time>2020-03-07T12:10:57Z</time>
      </trkpt>
      <trkpt lat="47.11518" lon="-1.71303">
        <ele>5.15</ele>
        <time>2020-03-07T12:10:59Z</time>
      </trkpt>
      <trkpt lat="47.11526" lon="-1.71288">
        <ele>5.17</ele>
        <time>2020-03-07T12:11:01Z</time>
      </trkpt>
      <trkpt lat="47.11534" lon="-1.71269">
        <ele>5.09</ele>
        <time>2020-03-07T12:11:03Z</time>
      </trkpt>
      <trkpt lat="47.11543" lon="-1.71253">
        <ele>5.48</ele>
        <time>2020-03-07T12:11:05Z</time>
      </trkpt>
      <trkpt lat="47.11551" lon="-1.71237">
        <ele>6.1</ele>
        <time>2020-03-07T12:11:07Z</time>
      </trkpt>
      <trkpt lat="47.1156" lon="-1.71223">
        <ele>6.55</ele>
        <time>2020-03-07T12:11:09Z</time>
      </trkpt>
      <trkpt lat="47.1157" lon="-1.71208">
        <ele>7.42</ele>
        <time>2020-03-07T12:11:11Z</time>
      </trkpt>
      <trkpt lat="47.1158" lon="-1.71194">
        <ele>6.87</ele>
        <time>2020-03-07T12:11:13Z</time>
      </trkpt>
      <trkpt lat="47.11591" lon="-1.71181">
        <ele>6.73</ele>
        <time>2020-03-07T12:11:15Z</time>
      </trkpt>
      <trkpt lat="47.11601" lon="-1.71169">
        <ele>6.58</ele>
        <time>2020-03-07T12:11:17Z</time>
      </trkpt>
      <trkpt lat="47.11612" lon="-1.71157">
        <ele>7.72</ele>
        <time>2020-03-07T12:11:19Z</time>
      </trkpt>
      <trkpt lat="47.11622" lon="-1.71146">
        <ele>7.66</ele>
        <time>2020-03-07T12:11:21Z</time>
      </trkpt>
      <trkpt lat="47.11632" lon="-1.71136">
        <ele>7.39</ele>
        <time>2020-03-07T12:11:23Z</time>
      </trkpt>
      <trkpt lat="47.11643" lon="-1.71125">
        <ele>7.42</ele>
        <time>2020-03-07T12:11:25Z</time>
      </trkpt>
      <trkpt lat="47.11657" lon="-1.71114">
        <ele>7.68</ele>
        <time>2020-03-07T12:11:27Z</time>
      </trkpt>
      <trkpt lat="47.11669" lon="-1.71106">
        <ele>8.67</ele>
        <time>2020-03-07T12:11:29Z</time>
      </trkpt>
      <trkpt lat="47.1168" lon="-1.71099">
        <ele>9.47</ele>
        <time>2020-03-07T12:11:31Z</time>
      </trkpt>
      <trkpt lat="47.11692" lon="-1.71093">
        <ele>8.54</ele>
        <time>2020-03-07T12:11:33Z</time>
      </trkpt>
      <trkpt lat="47.11703" lon="-1.71085">
        <ele>9.38</ele>
        <time>2020-03-07T12:11:35Z</time>
      </trkpt>
      <trkpt lat="47.11716" lon="-1.71076">
        <ele>10.61</ele>
        <time>2020-03-07T12:11:37Z</time>
      </trkpt>
      <trkpt lat="47.11729" lon="-1.71069">
        <ele>10.4</ele>
        <time>2020-03-07T12:11:39Z</time>
      </trkpt>
      <trkpt lat="47.11741" lon="-1.71062">
        <ele>11.45</ele>
        <time>2020-03-07T12:11:41Z</time>
      </trkpt>
      <trkpt lat="47.11752" lon="-1.71055">
        <ele>10.37</ele>
        <time>2020-03-07T12:11:43Z</time>
      </trkpt>
      <trkpt lat="47.11764" lon="-1.71047">
        <ele>9.55</ele>
        <time>2020-03-07T12:11:45Z</time>
      </trkpt>
      <trkpt lat="47.11779" lon="-1.71036">
        <ele>9.24</ele>
        <time>2020-03-07T12:11:47Z</time>
      </trkpt>
      <trkpt lat="47.11792" lon="-1.71028">
        <ele>8.72</ele>
        <time>2020-03-07T12:11:49Z</time>
      </trkpt>
      <trkpt lat="47.11805" lon="-1.7102">
        <ele>7.89</ele>
        <time>2020-03-07T12:11:51Z</time>
      </trkpt>
      <trkpt lat="47.1182" lon="-1.71009">
        <ele>7.84</ele>
        <time>2020-03-07T12:11:53Z</time>
      </trkpt>
      <trkpt lat="47.11834" lon="-1.71">
        <ele>7.21</ele>
        <time>2020-03-07T12:11:55Z</time>
      </trkpt>
      <trkpt lat="47.11846" lon="-1.70992">
        <ele>7.33</ele>
        <time>2020-03-07T12:11:57Z</time>
      </trkpt>
      <trkpt lat="47.1186" lon="-1.70985">
        <ele>7.84</ele>
        <time>2020-03-07T12:11:59Z</time>
      </trkpt>
      <trkpt lat="47.11871" lon="-1.70978">
        <ele>9.1</ele>
        <time>2020-03-07T12:12:01Z</time>
      </trkpt>
      <trkpt lat="47.11885" lon="-1.70969">
        <ele>10.85</ele>
        <time>2020-03-07T12:12:03Z</time>
      </trkpt>
      <trkpt lat="47.11897" lon="-1.70961">
        <ele>11.82</ele>
        <time>2020-03-07T12:12:05Z</time>
      </trkpt>
      <trkpt lat="47.1191" lon="-1.70954">
        <ele>11.85</ele>
        <time>2020-03-07T12:12:07Z</time>
      </trkpt>
      <trkpt lat="47.11921" lon="-1.70945">
        <ele>11.19</ele>
        <time>2020-03-07T12:12:09Z</time>
      </trkpt>
      <trkpt lat="47.11934" lon="-1.70935">
        <ele>9.48</ele>
        <time>2020-03-07T12:12:11Z</time>
      </trkpt>
      <trkpt lat="47.11948" lon="-1.70926">
        <ele>8.54</ele>
        <time>2020-03-07T12:12:13Z</time>
      </trkpt>
      <trkpt lat="47.11962" lon="-1.70918">
        <ele>9.14</ele>
        <time>2020-03-07T12:12:15Z</time>
      </trkpt>
      <trkpt lat="47.11975" lon="-1.7091">
        <ele>9.41</ele>
        <time>2020-03-07T12:12:17Z</time>
      </trkpt>
      <trkpt lat="47.11987" lon="-1.70903">
        <ele>9</ele>
        <time>2020-03-07T12:12:19Z</time>
      </trkpt>
      <trkpt lat="47.11998" lon="-1.70896">
        <ele>8.63</ele>
        <time>2020-03-07T12:12:21Z</time>
      </trkpt>
      <trkpt lat="47.12011" lon="-1.70886">
        <ele>8.36</ele>
        <time>2020-03-07T12:12:23Z</time>
      </trkpt>
      <trkpt lat="47.12024" lon="-1.70878">
        <ele>8.5</ele>
        <time>2020-03-07T12:12:25Z</time>
      </trkpt>
      <trkpt lat="47.12035" lon="-1.70871">
        <ele>9.15</ele>
        <time>2020-03-07T12:12:27Z</time>
      </trkpt>
      <trkpt lat="47.12048" lon="-1.70862">
        <ele>10.37</ele>
        <time>2020-03-07T12:12:29Z</time>
      </trkpt>
      <trkpt lat="47.12061" lon="-1.70855">
        <ele>10.11</ele>
        <time>2020-03-07T12:12:31Z</time>
      </trkpt>
      <trkpt lat="47.12072" lon="-1.70848">
        <ele>10.55</ele>
        <time>2020-03-07T12:12:33Z</time>
      </trkpt>
      <trkpt lat="47.12085" lon="-1.7084">
        <ele>11.53</ele>
        <time>2020-03-07T12:12:35Z</time>
      </trkpt>
      <trkpt lat="47.12098" lon="-1.70833">
        <ele>12.04</ele>
        <time>2020-03-07T12:12:37Z</time>
      </trkpt>
      <trkpt lat="47.12109" lon="-1.70825">
        <ele>13.09</ele>
        <time>2020-03-07T12:12:39Z</time>
      </trkpt>
      <trkpt lat="47.12123" lon="-1.70816">
        <ele>12.73</ele>
        <time>2020-03-07T12:12:40Z</time>
      </trkpt>
      <trkpt lat="47.12137" lon="-1.70806">
        <ele>11.29</ele>
        <time>2020-03-07T12:12:42Z</time>
      </trkpt>
      <trkpt lat="47.1215" lon="-1.70796">
        <ele>10.15</ele>
        <time>2020-03-07T12:12:44Z</time>
      </trkpt>
      <trkpt lat="47.12163" lon="-1.70787">
        <ele>9.44</ele>
        <time>2020-03-07T12:12:46Z</time>
      </trkpt>
      <trkpt lat="47.12175" lon="-1.70779">
        <ele>9.14</ele>
        <time>2020-03-07T12:12:48Z</time>
      </trkpt>
      <trkpt lat="47.12187" lon="-1.70769">
        <ele>8.63</ele>
        <time>2020-03-07T12:12:50Z</time>
      </trkpt>
      <trkpt lat="47.12196" lon="-1.70764">
        <ele>8.67</ele>
        <time>2020-03-07T12:12:51Z</time>
      </trkpt>
      <trkpt lat="47.12209" lon="-1.70754">
        <ele>9.05</ele>
        <time>2020-03-07T12:12:53Z</time>
      </trkpt>
      <trkpt lat="47.12222" lon="-1.70742">
        <ele>9.67</ele>
        <time>2020-03-07T12:12:55Z</time>
      </trkpt>
      <trkpt lat="47.12234" lon="-1.7073">
        <ele>9.99</ele>
        <time>2020-03-07T12:12:57Z</time>
      </trkpt>
      <trkpt lat="47.12246" lon="-1.70717">
        <ele>10.46</ele>
        <time>2020-03-07T12:12:59Z</time>
      </trkpt>
      <trkpt lat="47.12257" lon="-1.70703">
        <ele>9.92</ele>
        <time>2020-03-07T12:13:01Z</time>
      </trkpt>
      <trkpt lat="47.12267" lon="-1.70688">
        <ele>8.55</ele>
        <time>2020-03-07T12:13:03Z</time>
      </trkpt>
      <trkpt lat="47.12276" lon="-1.70673">
        <ele>7.68</ele>
        <time>2020-03-07T12:13:05Z</time>
      </trkpt>
      <trkpt lat="47.12285" lon="-1.70658">
        <ele>8.19</ele>
        <time>2020-03-07T12:13:07Z</time>
      </trkpt>
      <trkpt lat="47.12295" lon="-1.70644">
        <ele>7.2</ele>
        <time>2020-03-07T12:13:09Z</time>
      </trkpt>
      <trkpt lat="47.12302" lon="-1.70632">
        <ele>6.95</ele>
        <time>2020-03-07T12:13:11Z</time>
      </trkpt>
      <trkpt lat="47.12311" lon="-1.70619">
        <ele>7.06</ele>
        <time>2020-03-07T12:13:13Z</time>
      </trkpt>
      <trkpt lat="47.1232" lon="-1.70607">
        <ele>7.04</ele>
        <time>2020-03-07T12:13:15Z</time>
      </trkpt>
      <trkpt lat="47.1233" lon="-1.70594">
        <ele>6.76</ele>
        <time>2020-03-07T12:13:17Z</time>
      </trkpt>
      <trkpt lat="47.1234" lon="-1.70581">
        <ele>6.05</ele>
        <time>2020-03-07T12:13:19Z</time>
      </trkpt>
      <trkpt lat="47.12349" lon="-1.70568">
        <ele>5.55</ele>
        <time>2020-03-07T12:13:21Z</time>
      </trkpt>
      <trkpt lat="47.12358" lon="-1.70553">
        <ele>5.41</ele>
        <time>2020-03-07T12:13:23Z</time>
      </trkpt>
      <trkpt lat="47.12366" lon="-1.70538">
        <ele>5.96</ele>
        <time>2020-03-07T12:13:25Z</time>
      </trkpt>
      <trkpt lat="47.12375" lon="-1.70522">
        <ele>6.08</ele>
        <time>2020-03-07T12:13:27Z</time>
      </trkpt>
      <trkpt lat="47.12384" lon="-1.70503">
        <ele>6.28</ele>
        <time>2020-03-07T12:13:29Z</time>
      </trkpt>
      <trkpt lat="47.12389" lon="-1.70485">
        <ele>6.11</ele>
        <time>2020-03-07T12:13:31Z</time>
      </trkpt>
      <trkpt lat="47.12394" lon="-1.70469">
        <ele>6.23</ele>
        <time>2020-03-07T12:13:33Z</time>
      </trkpt>
      <trkpt lat="47.12398" lon="-1.70451">
        <ele>6.71</ele>
        <time>2020-03-07T12:13:35Z</time>
      </trkpt>
      <trkpt lat="47.12401" lon="-1.70434">
        <ele>7.44</ele>
        <time>2020-03-07T12:13:37Z</time>
      </trkpt>
      <trkpt lat="47.12408" lon="-1.70412">
        <ele>7.13</ele>
        <time>2020-03-07T12:13:39Z</time>
      </trkpt>
      <trkpt lat="47.12412" lon="-1.70392">
        <ele>7.25</ele>
        <time>2020-03-07T12:13:41Z</time>
      </trkpt>
      <trkpt lat="47.12416" lon="-1.70374">
        <ele>6.89</ele>
        <time>2020-03-07T12:13:43Z</time>
      </trkpt>
      <trkpt lat="47.12421" lon="-1.70351">
        <ele>6.23</ele>
        <time>2020-03-07T12:13:45Z</time>
      </trkpt>
      <trkpt lat="47.12426" lon="-1.70331">
        <ele>4.86</ele>
        <time>2020-03-07T12:13:47Z</time>
      </trkpt>
      <trkpt lat="47.12431" lon="-1.70317">
        <ele>4.43</ele>
        <time>2020-03-07T12:13:49Z</time>
      </trkpt>
      <trkpt lat="47.1244" lon="-1.70297">
        <ele>4.75</ele>
        <time>2020-03-07T12:13:51Z</time>
      </trkpt>
      <trkpt lat="47.12448" lon="-1.70285">
        <ele>6.2</ele>
        <time>2020-03-07T12:13:53Z</time>
      </trkpt>
      <trkpt lat="47.12458" lon="-1.70271">
        <ele>7.17</ele>
        <time>2020-03-07T12:13:55Z</time>
      </trkpt>
      <trkpt lat="47.1247" lon="-1.70264">
        <ele>7.08</ele>
        <time>2020-03-07T12:13:57Z</time>
      </trkpt>
      <trkpt lat="47.12483" lon="-1.70256">
        <ele>8.15</ele>
        <time>2020-03-07T12:13:59Z</time>
      </trkpt>
      <trkpt lat="47.12498" lon="-1.70248">
        <ele>8.11</ele>
        <time>2020-03-07T12:14:01Z</time>
      </trkpt>
      <trkpt lat="47.12509" lon="-1.70241">
        <ele>7.26</ele>
        <time>2020-03-07T12:14:03Z</time>
      </trkpt>
      <trkpt lat="47.12521" lon="-1.70235">
        <ele>6.58</ele>
        <time>2020-03-07T12:14:05Z</time>
      </trkpt>
      <trkpt lat="47.12533" lon="-1.7023">
        <ele>5.88</ele>
        <time>2020-03-07T12:14:07Z</time>
      </trkpt>
      <trkpt lat="47.12547" lon="-1.70224">
        <ele>6.05</ele>
        <time>2020-03-07T12:14:09Z</time>
      </trkpt>
      <trkpt lat="47.12563" lon="-1.70218">
        <ele>7.42</ele>
        <time>2020-03-07T12:14:11Z</time>
      </trkpt>
      <trkpt lat="47.12574" lon="-1.70212">
        <ele>8.62</ele>
        <time>2020-03-07T12:14:13Z</time>
      </trkpt>
      <trkpt lat="47.12587" lon="-1.70205">
        <ele>8.21</ele>
        <time>2020-03-07T12:14:15Z</time>
      </trkpt>
      <trkpt lat="47.12599" lon="-1.70198">
        <ele>6.75</ele>
        <time>2020-03-07T12:14:17Z</time>
      </trkpt>
      <trkpt lat="47.1261" lon="-1.70193">
        <ele>5.36</ele>
        <time>2020-03-07T12:14:19Z</time>
      </trkpt>
      <trkpt lat="47.12624" lon="-1.70185">
        <ele>5.15</ele>
        <time>2020-03-07T12:14:21Z</time>
      </trkpt>
      <trkpt lat="47.12637" lon="-1.70177">
        <ele>4.57</ele>
        <time>2020-03-07T12:14:23Z</time>
      </trkpt>
      <trkpt lat="47.12649" lon="-1.70173">
        <ele>5.18</ele>
        <time>2020-03-07T12:14:25Z</time>
      </trkpt>
      <trkpt lat="47.12664" lon="-1.70165">
        <ele>5.62</ele>
        <time>2020-03-07T12:14:27Z</time>
      </trkpt>
      <trkpt lat="47.12678" lon="-1.70158">
        <ele>6.46</ele>
        <time>2020-03-07T12:14:29Z</time>
      </trkpt>
      <trkpt lat="47.12692" lon="-1.7015">
        <ele>7.55</ele>
        <time>2020-03-07T12:14:31Z</time>
      </trkpt>
      <trkpt lat="47.12701" lon="-1.70145">
        <ele>7.2</ele>
        <time>2020-03-07T12:14:33Z</time>
      </trkpt>
      <trkpt lat="47.12712" lon="-1.70139">
        <ele>6.78</ele>
        <time>2020-03-07T12:14:35Z</time>
      </trkpt>
      <trkpt lat="47.12726" lon="-1.70133">
        <ele>7.49</ele>
        <time>2020-03-07T12:14:37Z</time>
      </trkpt>
      <trkpt lat="47.12738" lon="-1.70126">
        <ele>8.4</ele>
        <time>2020-03-07T12:14:39Z</time>
      </trkpt>
      <trkpt lat="47.12751" lon="-1.70118">
        <ele>8.14</ele>
        <time>2020-03-07T12:14:41Z</time>
      </trkpt>
      <trkpt lat="47.12764" lon="-1.70111">
        <ele>7.71</ele>
        <time>2020-03-07T12:14:43Z</time>
      </trkpt>
      <trkpt lat="47.12776" lon="-1.70105">
        <ele>7.29</ele>
        <time>2020-03-07T12:14:45Z</time>
      </trkpt>
      <trkpt lat="47.12789" lon="-1.70097">
        <ele>6.69</ele>
        <time>2020-03-07T12:14:47Z</time>
      </trkpt>
      <trkpt lat="47.12802" lon="-1.7009">
        <ele>5.52</ele>
        <time>2020-03-07T12:14:49Z</time>
      </trkpt>
      <trkpt lat="47.12815" lon="-1.70081">
        <ele>3.49</ele>
        <time>2020-03-07T12:14:51Z</time>
      </trkpt>
      <trkpt lat="47.12827" lon="-1.70074">
        <ele>3.36</ele>
        <time>2020-03-07T12:14:53Z</time>
      </trkpt>
      <trkpt lat="47.1284" lon="-1.70066">
        <ele>3.81</ele>
        <time>2020-03-07T12:14:55Z</time>
      </trkpt>
      <trkpt lat="47.12854" lon="-1.7006">
        <ele>4.91</ele>
        <time>2020-03-07T12:14:57Z</time>
      </trkpt>
      <trkpt lat="47.12865" lon="-1.70054">
        <ele>5.64</ele>
        <time>2020-03-07T12:14:59Z</time>
      </trkpt>
      <trkpt lat="47.12876" lon="-1.70048">
        <ele>5.64</ele>
        <time>2020-03-07T12:15:01Z</time>
      </trkpt>
      <trkpt lat="47.1289" lon="-1.70041">
        <ele>6.76</ele>
        <time>2020-03-07T12:15:03Z</time>
      </trkpt>
      <trkpt lat="47.12903" lon="-1.70033">
        <ele>7.04</ele>
        <time>2020-03-07T12:15:05Z</time>
      </trkpt>
      <trkpt lat="47.12912" lon="-1.70027">
        <ele>6.35</ele>
        <time>2020-03-07T12:15:07Z</time>
      </trkpt>
      <trkpt lat="47.12926" lon="-1.70021">
        <ele>6.57</ele>
        <time>2020-03-07T12:15:09Z</time>
      </trkpt>
      <trkpt lat="47.1294" lon="-1.70013">
        <ele>6.65</ele>
        <time>2020-03-07T12:15:11Z</time>
      </trkpt>
      <trkpt lat="47.12955" lon="-1.70005">
        <ele>7.12</ele>
        <time>2020-03-07T12:15:13Z</time>
      </trkpt>
      <trkpt lat="47.12968" lon="-1.69999">
        <ele>7.14</ele>
        <time>2020-03-07T12:15:15Z</time>
      </trkpt>
      <trkpt lat="47.12983" lon="-1.69993">
        <ele>7.43</ele>
        <time>2020-03-07T12:15:17Z</time>
      </trkpt>
      <trkpt lat="47.12995" lon="-1.69985">
        <ele>7</ele>
        <time>2020-03-07T12:15:19Z</time>
      </trkpt>
      <trkpt lat="47.13007" lon="-1.69978">
        <ele>6.27</ele>
        <time>2020-03-07T12:15:21Z</time>
      </trkpt>
      <trkpt lat="47.13017" lon="-1.69973">
        <ele>5.93</ele>
        <time>2020-03-07T12:15:23Z</time>
      </trkpt>
      <trkpt lat="47.13031" lon="-1.69966">
        <ele>6.57</ele>
        <time>2020-03-07T12:15:25Z</time>
      </trkpt>
      <trkpt lat="47.13044" lon="-1.6996">
        <ele>7.04</ele>
        <time>2020-03-07T12:15:27Z</time>
      </trkpt>
      <trkpt lat="47.13055" lon="-1.69954">
        <ele>6.73</ele>
        <time>2020-03-07T12:15:29Z</time>
      </trkpt>
      <trkpt lat="47.13064" lon="-1.6995">
        <ele>7.33</ele>
        <time>2020-03-07T12:15:30Z</time>
      </trkpt>
      <trkpt lat="47.13074" lon="-1.69945">
        <ele>8.05</ele>
        <time>2020-03-07T12:15:32Z</time>
      </trkpt>
      <trkpt lat="47.13088" lon="-1.69938">
        <ele>10.11</ele>
        <time>2020-03-07T12:15:34Z</time>
      </trkpt>
      <trkpt lat="47.13099" lon="-1.6993">
        <ele>11.2</ele>
        <time>2020-03-07T12:15:36Z</time>
      </trkpt>
      <trkpt lat="47.1311" lon="-1.69923">
        <ele>11.28</ele>
        <time>2020-03-07T12:15:38Z</time>
      </trkpt>
      <trkpt lat="47.13121" lon="-1.69917">
        <ele>10.24</ele>
        <time>2020-03-07T12:15:40Z</time>
      </trkpt>
      <trkpt lat="47.13134" lon="-1.6991">
        <ele>9.45</ele>
        <time>2020-03-07T12:15:42Z</time>
      </trkpt>
      <trkpt lat="47.13146" lon="-1.69903">
        <ele>7.26</ele>
        <time>2020-03-07T12:15:44Z</time>
      </trkpt>
      <trkpt lat="47.13157" lon="-1.69894">
        <ele>5.21</ele>
        <time>2020-03-07T12:15:46Z</time>
      </trkpt>
      <trkpt lat="47.13169" lon="-1.69885">
        <ele>3.39</ele>
        <time>2020-03-07T12:15:48Z</time>
      </trkpt>
      <trkpt lat="47.1318" lon="-1.6988">
        <ele>3.24</ele>
        <time>2020-03-07T12:15:50Z</time>
      </trkpt>
      <trkpt lat="47.13191" lon="-1.69872">
        <ele>3.35</ele>
        <time>2020-03-07T12:15:52Z</time>
      </trkpt>
      <trkpt lat="47.13201" lon="-1.69865">
        <ele>3.53</ele>
        <time>2020-03-07T12:15:54Z</time>
      </trkpt>
      <trkpt lat="47.13211" lon="-1.69858">
        <ele>4.83</ele>
        <time>2020-03-07T12:15:56Z</time>
      </trkpt>
      <trkpt lat="47.13221" lon="-1.69852">
        <ele>6.01</ele>
        <time>2020-03-07T12:15:58Z</time>
      </trkpt>
      <trkpt lat="47.13232" lon="-1.69849">
        <ele>6.49</ele>
        <time>2020-03-07T12:16:00Z</time>
      </trkpt>
      <trkpt lat="47.13245" lon="-1.69846">
        <ele>7.93</ele>
        <time>2020-03-07T12:16:02Z</time>
      </trkpt>
      <trkpt lat="47.13255" lon="-1.69844">
        <ele>8.1</ele>
        <time>2020-03-07T12:16:04Z</time>
      </trkpt>
      <trkpt lat="47.13268" lon="-1.6984">
        <ele>9.55</ele>
        <time>2020-03-07T12:16:06Z</time>
      </trkpt>
      <trkpt lat="47.13277" lon="-1.69838">
        <ele>10.49</ele>
        <time>2020-03-07T12:16:08Z</time>
      </trkpt>
      <trkpt lat="47.13288" lon="-1.69833">
        <ele>10.58</ele>
        <time>2020-03-07T12:16:10Z</time>
      </trkpt>
      <trkpt lat="47.13298" lon="-1.69826">
        <ele>10.47</ele>
        <time>2020-03-07T12:16:12Z</time>
      </trkpt>
      <trkpt lat="47.1331" lon="-1.69816">
        <ele>10.37</ele>
        <time>2020-03-07T12:16:14Z</time>
      </trkpt>
      <trkpt lat="47.13322" lon="-1.69809">
        <ele>9.56</ele>
        <time>2020-03-07T12:16:16Z</time>
      </trkpt>
      <trkpt lat="47.13332" lon="-1.69803">
        <ele>9.35</ele>
        <time>2020-03-07T12:16:18Z</time>
      </trkpt>
      <trkpt lat="47.13343" lon="-1.69796">
        <ele>7.76</ele>
        <time>2020-03-07T12:16:20Z</time>
      </trkpt>
      <trkpt lat="47.13354" lon="-1.6979">
        <ele>5.79</ele>
        <time>2020-03-07T12:16:22Z</time>
      </trkpt>
      <trkpt lat="47.13367" lon="-1.69784">
        <ele>6.04</ele>
        <time>2020-03-07T12:16:24Z</time>
      </trkpt>
      <trkpt lat="47.13375" lon="-1.69775">
        <ele>6.34</ele>
        <time>2020-03-07T12:16:26Z</time>
      </trkpt>
      <trkpt lat="47.13388" lon="-1.69767">
        <ele>6.86</ele>
        <time>2020-03-07T12:16:28Z</time>
      </trkpt>
      <trkpt lat="47.13397" lon="-1.69764">
        <ele>7.1</ele>
        <time>2020-03-07T12:16:29Z</time>
      </trkpt>
      <trkpt lat="47.13406" lon="-1.69758">
        <ele>7.5</ele>
        <time>2020-03-07T12:16:31Z</time>
      </trkpt>
      <trkpt lat="47.13416" lon="-1.6975">
        <ele>7.98</ele>
        <time>2020-03-07T12:16:33Z</time>
      </trkpt>
      <trkpt lat="47.13428" lon="-1.69743">
        <ele>6.94</ele>
        <time>2020-03-07T12:16:35Z</time>
      </trkpt>
      <trkpt lat="47.13443" lon="-1.69738">
        <ele>5.73</ele>
        <time>2020-03-07T12:16:37Z</time>
      </trkpt>
      <trkpt lat="47.13455" lon="-1.69736">
        <ele>6.7</ele>
        <time>2020-03-07T12:16:39Z</time>
      </trkpt>
      <trkpt lat="47.13469" lon="-1.69735">
        <ele>7.31</ele>
        <time>2020-03-07T12:16:41Z</time>
      </trkpt>
      <trkpt lat="47.13482" lon="-1.69734">
        <ele>8.12</ele>
        <time>2020-03-07T12:16:43Z</time>
      </trkpt>
      <trkpt lat="47.13498" lon="-1.69732">
        <ele>9.58</ele>
        <time>2020-03-07T12:16:45Z</time>
      </trkpt>
      <trkpt lat="47.13509" lon="-1.69735">
        <ele>8.85</ele>
        <time>2020-03-07T12:16:47Z</time>
      </trkpt>
      <trkpt lat="47.13525" lon="-1.69739">
        <ele>7.62</ele>
        <time>2020-03-07T12:16:49Z</time>
      </trkpt>
      <trkpt lat="47.13537" lon="-1.69741">
        <ele>5.95</ele>
        <time>2020-03-07T12:16:51Z</time>
      </trkpt>
      <trkpt lat="47.13549" lon="-1.69741">
        <ele>4.77</ele>
        <time>2020-03-07T12:16:53Z</time>
      </trkpt>
      <trkpt lat="47.1356" lon="-1.6974">
        <ele>4.09</ele>
        <time>2020-03-07T12:16:55Z</time>
      </trkpt>
      <trkpt lat="47.13571" lon="-1.69739">
        <ele>3.84</ele>
        <time>2020-03-07T12:16:57Z</time>
      </trkpt>
      <trkpt lat="47.13584" lon="-1.69738">
        <ele>4.33</ele>
        <time>2020-03-07T12:16:59Z</time>
      </trkpt>
      <trkpt lat="47.13594" lon="-1.69738">
        <ele>4.88</ele>
        <time>2020-03-07T12:17:01Z</time>
      </trkpt>
      <trkpt lat="47.13605" lon="-1.69738">
        <ele>5.32</ele>
        <time>2020-03-07T12:17:03Z</time>
      </trkpt>
      <trkpt lat="47.13617" lon="-1.69739">
        <ele>5.07</ele>
        <time>2020-03-07T12:17:05Z</time>
      </trkpt>
      <trkpt lat="47.13628" lon="-1.69739">
        <ele>5.25</ele>
        <time>2020-03-07T12:17:07Z</time>
      </trkpt>
      <trkpt lat="47.13639" lon="-1.6974">
        <ele>5.57</ele>
        <time>2020-03-07T12:17:09Z</time>
      </trkpt>
      <trkpt lat="47.13649" lon="-1.69741">
        <ele>5.42</ele>
        <time>2020-03-07T12:17:11Z</time>
      </trkpt>
      <trkpt lat="47.13659" lon="-1.69743">
        <ele>7</ele>
        <time>2020-03-07T12:17:13Z</time>
      </trkpt>
      <trkpt lat="47.13671" lon="-1.69743">
        <ele>6.9</ele>
        <time>2020-03-07T12:17:15Z</time>
      </trkpt>
      <trkpt lat="47.13683" lon="-1.69743">
        <ele>5.87</ele>
        <time>2020-03-07T12:17:17Z</time>
      </trkpt>
      <trkpt lat="47.13696" lon="-1.69743">
        <ele>6.75</ele>
        <time>2020-03-07T12:17:19Z</time>
      </trkpt>
      <trkpt lat="47.13705" lon="-1.69743">
        <ele>7.79</ele>
        <time>2020-03-07T12:17:21Z</time>
      </trkpt>
      <trkpt lat="47.13716" lon="-1.69742">
        <ele>8.73</ele>
        <time>2020-03-07T12:17:23Z</time>
      </trkpt>
      <trkpt lat="47.13727" lon="-1.6974">
        <ele>9.55</ele>
        <time>2020-03-07T12:17:25Z</time>
      </trkpt>
      <trkpt lat="47.13737" lon="-1.69738">
        <ele>8.87</ele>
        <time>2020-03-07T12:17:27Z</time>
      </trkpt>
      <trkpt lat="47.13749" lon="-1.69735">
        <ele>7.92</ele>
        <time>2020-03-07T12:17:29Z</time>
      </trkpt>
      <trkpt lat="47.1376" lon="-1.69731">
        <ele>6.67</ele>
        <time>2020-03-07T12:17:31Z</time>
      </trkpt>
      <trkpt lat="47.1377" lon="-1.6973">
        <ele>6.21</ele>
        <time>2020-03-07T12:17:33Z</time>
      </trkpt>
      <trkpt lat="47.13781" lon="-1.69731">
        <ele>6.34</ele>
        <time>2020-03-07T12:17:35Z</time>
      </trkpt>
      <trkpt lat="47.13796" lon="-1.69732">
        <ele>7.34</ele>
        <time>2020-03-07T12:17:37Z</time>
      </trkpt>
      <trkpt lat="47.13806" lon="-1.69732">
        <ele>8.42</ele>
        <time>2020-03-07T12:17:40Z</time>
      </trkpt>
      <trkpt lat="47.13821" lon="-1.69731">
        <ele>9.18</ele>
        <time>2020-03-07T12:17:43Z</time>
      </trkpt>
      <trkpt lat="47.13836" lon="-1.6973">
        <ele>9.03</ele>
        <time>2020-03-07T12:17:46Z</time>
      </trkpt>
      <trkpt lat="47.13847" lon="-1.69729">
        <ele>9.69</ele>
        <time>2020-03-07T12:17:48Z</time>
      </trkpt>
      <trkpt lat="47.13859" lon="-1.69726">
        <ele>11.46</ele>
        <time>2020-03-07T12:17:51Z</time>
      </trkpt>
      <trkpt lat="47.13871" lon="-1.69726">
        <ele>11.48</ele>
        <time>2020-03-07T12:17:53Z</time>
      </trkpt>
      <trkpt lat="47.13882" lon="-1.69724">
        <ele>11</ele>
        <time>2020-03-07T12:17:55Z</time>
      </trkpt>
      <trkpt lat="47.13894" lon="-1.69723">
        <ele>9.84</ele>
        <time>2020-03-07T12:17:57Z</time>
      </trkpt>
      <trkpt lat="47.13907" lon="-1.69722">
        <ele>8.83</ele>
        <time>2020-03-07T12:17:59Z</time>
      </trkpt>
      <trkpt lat="47.1392" lon="-1.69721">
        <ele>9.36</ele>
        <time>2020-03-07T12:18:02Z</time>
      </trkpt>
      <trkpt lat="47.13931" lon="-1.69722">
        <ele>9.57</ele>
        <time>2020-03-07T12:18:04Z</time>
      </trkpt>
      <trkpt lat="47.13942" lon="-1.69722">
        <ele>8.8</ele>
        <time>2020-03-07T12:18:07Z</time>
      </trkpt>
      <trkpt lat="47.13952" lon="-1.69723">
        <ele>7.54</ele>
        <time>2020-03-07T12:18:09Z</time>
      </trkpt>
      <trkpt lat="47.13965" lon="-1.69722">
        <ele>9.11</ele>
        <time>2020-03-07T12:18:12Z</time>
      </trkpt>
      <trkpt lat="47.13976" lon="-1.69723">
        <ele>9.65</ele>
        <time>2020-03-07T12:18:14Z</time>
      </trkpt>
      <trkpt lat="47.13989" lon="-1.69726">
        <ele>11.67</ele>
        <time>2020-03-07T12:18:17Z</time>
      </trkpt>
      <trkpt lat="47.14002" lon="-1.69729">
        <ele>12.22</ele>
        <time>2020-03-07T12:18:20Z</time>
      </trkpt>
      <trkpt lat="47.14012" lon="-1.69729">
        <ele>12.51</ele>
        <time>2020-03-07T12:18:23Z</time>
      </trkpt>
      <trkpt lat="47.14022" lon="-1.6973">
        <ele>12.99</ele>
        <time>2020-03-07T12:18:25Z</time>
      </trkpt>
      <trkpt lat="47.14033" lon="-1.69731">
        <ele>13.51</ele>
        <time>2020-03-07T12:18:27Z</time>
      </trkpt>
      <trkpt lat="47.14044" lon="-1.69732">
        <ele>13.44</ele>
        <time>2020-03-07T12:18:29Z</time>
      </trkpt>
      <trkpt lat="47.14058" lon="-1.69734">
        <ele>14.15</ele>
        <time>2020-03-07T12:18:32Z</time>
      </trkpt>
      <trkpt lat="47.14067" lon="-1.69734">
        <ele>13.85</ele>
        <time>2020-03-07T12:18:34Z</time>
      </trkpt>
      <trkpt lat="47.1408" lon="-1.69734">
        <ele>13.57</ele>
        <time>2020-03-07T12:18:37Z</time>
      </trkpt>
      <trkpt lat="47.1409" lon="-1.69733">
        <ele>13.43</ele>
        <time>2020-03-07T12:18:39Z</time>
      </trkpt>
      <trkpt lat="47.14098" lon="-1.69721">
        <ele>14.43</ele>
        <time>2020-03-07T12:18:42Z</time>
      </trkpt>
      <trkpt lat="47.141" lon="-1.69708">
        <ele>15.58</ele>
        <time>2020-03-07T12:18:44Z</time>
      </trkpt>
      <trkpt lat="47.14101" lon="-1.69692">
        <ele>17.18</ele>
        <time>2020-03-07T12:18:46Z</time>
      </trkpt>
      <trkpt lat="47.14102" lon="-1.69676">
        <ele>18.13</ele>
        <time>2020-03-07T12:18:48Z</time>
      </trkpt>
      <trkpt lat="47.141" lon="-1.69663">
        <ele>19.07</ele>
        <time>2020-03-07T12:18:50Z</time>
      </trkpt>
      <trkpt lat="47.14099" lon="-1.69644">
        <ele>20.71</ele>
        <time>2020-03-07T12:18:53Z</time>
      </trkpt>
      <trkpt lat="47.14096" lon="-1.69628">
        <ele>21.7</ele>
        <time>2020-03-07T12:18:56Z</time>
      </trkpt>
      <trkpt lat="47.14095" lon="-1.69614">
        <ele>23.18</ele>
        <time>2020-03-07T12:18:58Z</time>
      </trkpt>
      <trkpt lat="47.14097" lon="-1.69594">
        <ele>25.59</ele>
        <time>2020-03-07T12:19:01Z</time>
      </trkpt>
      <trkpt lat="47.14098" lon="-1.6958">
        <ele>26.4</ele>
        <time>2020-03-07T12:19:03Z</time>
      </trkpt>
      <trkpt lat="47.14099" lon="-1.69567">
        <ele>25.35</ele>
        <time>2020-03-07T12:19:05Z</time>
      </trkpt>
      <trkpt lat="47.141" lon="-1.69549">
        <ele>24.4</ele>
        <time>2020-03-07T12:19:08Z</time>
      </trkpt>
      <trkpt lat="47.141" lon="-1.69535">
        <ele>23.61</ele>
        <time>2020-03-07T12:19:11Z</time>
      </trkpt>
      <trkpt lat="47.14101" lon="-1.69518">
        <ele>24.3</ele>
        <time>2020-03-07T12:19:13Z</time>
      </trkpt>
      <trkpt lat="47.14103" lon="-1.69503">
        <ele>24.02</ele>
        <time>2020-03-07T12:19:15Z</time>
      </trkpt>
      <trkpt lat="47.14105" lon="-1.69485">
        <ele>23.82</ele>
        <time>2020-03-07T12:19:18Z</time>
      </trkpt>
      <trkpt lat="47.14106" lon="-1.6947">
        <ele>23.02</ele>
        <time>2020-03-07T12:19:21Z</time>
      </trkpt>
      <trkpt lat="47.14107" lon="-1.69454">
        <ele>22.75</ele>
        <time>2020-03-07T12:19:23Z</time>
      </trkpt>
      <trkpt lat="47.14109" lon="-1.6944">
        <ele>23.04</ele>
        <time>2020-03-07T12:19:25Z</time>
      </trkpt>
      <trkpt lat="47.14111" lon="-1.69424">
        <ele>23.57</ele>
        <time>2020-03-07T12:19:28Z</time>
      </trkpt>
      <trkpt lat="47.14113" lon="-1.69405">
        <ele>23.98</ele>
        <time>2020-03-07T12:19:31Z</time>
      </trkpt>
      <trkpt lat="47.14115" lon="-1.69386">
        <ele>23.85</ele>
        <time>2020-03-07T12:19:34Z</time>
      </trkpt>
      <trkpt lat="47.14117" lon="-1.69371">
        <ele>23.92</ele>
        <time>2020-03-07T12:19:36Z</time>
      </trkpt>
      <trkpt lat="47.14119" lon="-1.69354">
        <ele>25.03</ele>
        <time>2020-03-07T12:19:39Z</time>
      </trkpt>
      <trkpt lat="47.14121" lon="-1.6934">
        <ele>25.75</ele>
        <time>2020-03-07T12:19:41Z</time>
      </trkpt>
      <trkpt lat="47.14122" lon="-1.69326">
        <ele>26.39</ele>
        <time>2020-03-07T12:19:43Z</time>
      </trkpt>
      <trkpt lat="47.14124" lon="-1.69309">
        <ele>26.3</ele>
        <time>2020-03-07T12:19:45Z</time>
      </trkpt>
      <trkpt lat="47.14127" lon="-1.6929">
        <ele>26.51</ele>
        <time>2020-03-07T12:19:48Z</time>
      </trkpt>
      <trkpt lat="47.1413" lon="-1.69272">
        <ele>25.45</ele>
        <time>2020-03-07T12:19:51Z</time>
      </trkpt>
      <trkpt lat="47.14133" lon="-1.69257">
        <ele>22.98</ele>
        <time>2020-03-07T12:19:53Z</time>
      </trkpt>
      <trkpt lat="47.14134" lon="-1.69244">
        <ele>23.12</ele>
        <time>2020-03-07T12:19:55Z</time>
      </trkpt>
      <trkpt lat="47.14137" lon="-1.69229">
        <ele>22.74</ele>
        <time>2020-03-07T12:19:57Z</time>
      </trkpt>
      <trkpt lat="47.14141" lon="-1.69213">
        <ele>22.08</ele>
        <time>2020-03-07T12:19:59Z</time>
      </trkpt>
      <trkpt lat="47.14145" lon="-1.69195">
        <ele>22.86</ele>
        <time>2020-03-07T12:20:02Z</time>
      </trkpt>
      <trkpt lat="47.14148" lon="-1.6918">
        <ele>22.79</ele>
        <time>2020-03-07T12:20:04Z</time>
      </trkpt>
      <trkpt lat="47.1415" lon="-1.6916">
        <ele>21.94</ele>
        <time>2020-03-07T12:20:06Z</time>
      </trkpt>
      <trkpt lat="47.14153" lon="-1.69143">
        <ele>21.75</ele>
        <time>2020-03-07T12:20:08Z</time>
      </trkpt>
      <trkpt lat="47.14156" lon="-1.69124">
        <ele>21.86</ele>
        <time>2020-03-07T12:20:10Z</time>
      </trkpt>
      <trkpt lat="47.14158" lon="-1.69106">
        <ele>22.52</ele>
        <time>2020-03-07T12:20:12Z</time>
      </trkpt>
      <trkpt lat="47.1416" lon="-1.6909">
        <ele>22.17</ele>
        <time>2020-03-07T12:20:14Z</time>
      </trkpt>
      <trkpt lat="47.14162" lon="-1.6907">
        <ele>20.39</ele>
        <time>2020-03-07T12:20:16Z</time>
      </trkpt>
      <trkpt lat="47.14166" lon="-1.6905">
        <ele>19.28</ele>
        <time>2020-03-07T12:20:18Z</time>
      </trkpt>
      <trkpt lat="47.14169" lon="-1.69034">
        <ele>19.24</ele>
        <time>2020-03-07T12:20:20Z</time>
      </trkpt>
      <trkpt lat="47.14174" lon="-1.69015">
        <ele>18.42</ele>
        <time>2020-03-07T12:20:22Z</time>
      </trkpt>
      <trkpt lat="47.14179" lon="-1.68997">
        <ele>17.64</ele>
        <time>2020-03-07T12:20:24Z</time>
      </trkpt>
      <trkpt lat="47.14187" lon="-1.68978">
        <ele>17.49</ele>
        <time>2020-03-07T12:20:26Z</time>
      </trkpt>
      <trkpt lat="47.14194" lon="-1.68962">
        <ele>16.05</ele>
        <time>2020-03-07T12:20:28Z</time>
      </trkpt>
      <trkpt lat="47.14204" lon="-1.68947">
        <ele>15.85</ele>
        <time>2020-03-07T12:20:30Z</time>
      </trkpt>
      <trkpt lat="47.14216" lon="-1.68937">
        <ele>16.35</ele>
        <time>2020-03-07T12:20:32Z</time>
      </trkpt>
      <trkpt lat="47.14224" lon="-1.6893">
        <ele>16.94</ele>
        <time>2020-03-07T12:20:34Z</time>
      </trkpt>
      <trkpt lat="47.14223" lon="-1.68916">
        <ele>16.68</ele>
        <time>2020-03-07T12:20:36Z</time>
      </trkpt>
      <trkpt lat="47.1422" lon="-1.68899">
        <ele>16.14</ele>
        <time>2020-03-07T12:20:38Z</time>
      </trkpt>
      <trkpt lat="47.14216" lon="-1.68878">
        <ele>16.27</ele>
        <time>2020-03-07T12:20:40Z</time>
      </trkpt>
      <trkpt lat="47.14212" lon="-1.68861">
        <ele>15.66</ele>
        <time>2020-03-07T12:20:42Z</time>
      </trkpt>
      <trkpt lat="47.14209" lon="-1.68844">
        <ele>16.13</ele>
        <time>2020-03-07T12:20:44Z</time>
      </trkpt>
      <trkpt lat="47.14206" lon="-1.68825">
        <ele>17.1</ele>
        <time>2020-03-07T12:20:46Z</time>
      </trkpt>
      <trkpt lat="47.14202" lon="-1.68804">
        <ele>16.91</ele>
        <time>2020-03-07T12:20:48Z</time>
      </trkpt>
      <trkpt lat="47.14196" lon="-1.68783">
        <ele>17.86</ele>
        <time>2020-03-07T12:20:50Z</time>
      </trkpt>
      <trkpt lat="47.14192" lon="-1.68765">
        <ele>16.87</ele>
        <time>2020-03-07T12:20:52Z</time>
      </trkpt>
      <trkpt lat="47.14184" lon="-1.68745">
        <ele>14.99</ele>
        <time>2020-03-07T12:20:54Z</time>
      </trkpt>
      <trkpt lat="47.14179" lon="-1.6873">
        <ele>14.09</ele>
        <time>2020-03-07T12:20:56Z</time>
      </trkpt>
      <trkpt lat="47.14172" lon="-1.68712">
        <ele>13.83</ele>
        <time>2020-03-07T12:20:58Z</time>
      </trkpt>
      <trkpt lat="47.14164" lon="-1.68698">
        <ele>14.18</ele>
        <time>2020-03-07T12:21:00Z</time>
      </trkpt>
      <trkpt lat="47.14154" lon="-1.68682">
        <ele>13.89</ele>
        <time>2020-03-07T12:21:02Z</time>
      </trkpt>
      <trkpt lat="47.14144" lon="-1.68666">
        <ele>13.37</ele>
        <time>2020-03-07T12:21:04Z</time>
      </trkpt>
      <trkpt lat="47.14134" lon="-1.68654">
        <ele>13.21</ele>
        <time>2020-03-07T12:21:06Z</time>
      </trkpt>
      <trkpt lat="47.14124" lon="-1.68639">
        <ele>13.51</ele>
        <time>2020-03-07T12:21:08Z</time>
      </trkpt>
      <trkpt lat="47.14114" lon="-1.68627">
        <ele>14.24</ele>
        <time>2020-03-07T12:21:10Z</time>
      </trkpt>
      <trkpt lat="47.14106" lon="-1.68614">
        <ele>14.95</ele>
        <time>2020-03-07T12:21:12Z</time>
      </trkpt>
      <trkpt lat="47.14096" lon="-1.68599">
        <ele>14.05</ele>
        <time>2020-03-07T12:21:14Z</time>
      </trkpt>
      <trkpt lat="47.1409" lon="-1.68589">
        <ele>13.37</ele>
        <time>2020-03-07T12:21:16Z</time>
      </trkpt>
      <trkpt lat="47.14082" lon="-1.68577">
        <ele>13.4</ele>
        <time>2020-03-07T12:21:18Z</time>
      </trkpt>
      <trkpt lat="47.14075" lon="-1.68565">
        <ele>14.38</ele>
        <time>2020-03-07T12:21:20Z</time>
      </trkpt>
      <trkpt lat="47.14067" lon="-1.68553">
        <ele>15.04</ele>
        <time>2020-03-07T12:21:22Z</time>
      </trkpt>
      <trkpt lat="47.14061" lon="-1.68542">
        <ele>13.99</ele>
        <time>2020-03-07T12:21:24Z</time>
      </trkpt>
      <trkpt lat="47.14054" lon="-1.68532">
        <ele>13.71</ele>
        <time>2020-03-07T12:21:26Z</time>
      </trkpt>
      <trkpt lat="47.14049" lon="-1.68521">
        <ele>13.35</ele>
        <time>2020-03-07T12:21:28Z</time>
      </trkpt>
      <trkpt lat="47.14041" lon="-1.6851">
        <ele>13.2</ele>
        <time>2020-03-07T12:21:30Z</time>
      </trkpt>
      <trkpt lat="47.14035" lon="-1.685">
        <ele>12.42</ele>
        <time>2020-03-07T12:21:32Z</time>
      </trkpt>
      <trkpt lat="47.14028" lon="-1.68489">
        <ele>11.72</ele>
        <time>2020-03-07T12:21:34Z</time>
      </trkpt>
      <trkpt lat="47.14021" lon="-1.6848">
        <ele>12.35</ele>
        <time>2020-03-07T12:21:36Z</time>
      </trkpt>
      <trkpt lat="47.14012" lon="-1.68468">
        <ele>13.02</ele>
        <time>2020-03-07T12:21:38Z</time>
      </trkpt>
      <trkpt lat="47.14004" lon="-1.68456">
        <ele>13.05</ele>
        <time>2020-03-07T12:21:40Z</time>
      </trkpt>
      <trkpt lat="47.13996" lon="-1.68442">
        <ele>13.09</ele>
        <time>2020-03-07T12:21:42Z</time>
      </trkpt>
      <trkpt lat="47.13987" lon="-1.6843">
        <ele>13.35</ele>
        <time>2020-03-07T12:21:44Z</time>
      </trkpt>
      <trkpt lat="47.13978" lon="-1.68416">
        <ele>14.97</ele>
        <time>2020-03-07T12:21:47Z</time>
      </trkpt>
      <trkpt lat="47.1397" lon="-1.68401">
        <ele>14.31</ele>
        <time>2020-03-07T12:21:49Z</time>
      </trkpt>
      <trkpt lat="47.13962" lon="-1.68385">
        <ele>14.03</ele>
        <time>2020-03-07T12:21:51Z</time>
      </trkpt>
      <trkpt lat="47.13957" lon="-1.68372">
        <ele>12.93</ele>
        <time>2020-03-07T12:21:53Z</time>
      </trkpt>
      <trkpt lat="47.13951" lon="-1.68358">
        <ele>12.08</ele>
        <time>2020-03-07T12:21:55Z</time>
      </trkpt>
      <trkpt lat="47.13945" lon="-1.68343">
        <ele>11.66</ele>
        <time>2020-03-07T12:21:57Z</time>
      </trkpt>
      <trkpt lat="47.13939" lon="-1.68327">
        <ele>12.22</ele>
        <time>2020-03-07T12:21:59Z</time>
      </trkpt>
      <trkpt lat="47.13934" lon="-1.68312">
        <ele>12.75</ele>
        <time>2020-03-07T12:22:01Z</time>
      </trkpt>
      <trkpt lat="47.13928" lon="-1.68296">
        <ele>12.25</ele>
        <time>2020-03-07T12:22:03Z</time>
      </trkpt>
      <trkpt lat="47.13922" lon="-1.68284">
        <ele>12.84</ele>
        <time>2020-03-07T12:22:05Z</time>
      </trkpt>
      <trkpt lat="47.13917" lon="-1.68272">
        <ele>13.69</ele>
        <time>2020-03-07T12:22:07Z</time>
      </trkpt>
      <trkpt lat="47.13911" lon="-1.68257">
        <ele>13.87</ele>
        <time>2020-03-07T12:22:09Z</time>
      </trkpt>
      <trkpt lat="47.13905" lon="-1.68242">
        <ele>13.31</ele>
        <time>2020-03-07T12:22:11Z</time>
      </trkpt>
      <trkpt lat="47.13899" lon="-1.68228">
        <ele>12.51</ele>
        <time>2020-03-07T12:22:13Z</time>
      </trkpt>
      <trkpt lat="47.13892" lon="-1.6821">
        <ele>11.64</ele>
        <time>2020-03-07T12:22:15Z</time>
      </trkpt>
      <trkpt lat="47.13884" lon="-1.68192">
        <ele>11.53</ele>
        <time>2020-03-07T12:22:18Z</time>
      </trkpt>
      <trkpt lat="47.13878" lon="-1.68178">
        <ele>10.52</ele>
        <time>2020-03-07T12:22:20Z</time>
      </trkpt>
      <trkpt lat="47.13871" lon="-1.68162">
        <ele>11.13</ele>
        <time>2020-03-07T12:22:22Z</time>
      </trkpt>
      <trkpt lat="47.13867" lon="-1.68149">
        <ele>12.45</ele>
        <time>2020-03-07T12:22:24Z</time>
      </trkpt>
      <trkpt lat="47.13861" lon="-1.68136">
        <ele>12.9</ele>
        <time>2020-03-07T12:22:26Z</time>
      </trkpt>
      <trkpt lat="47.13853" lon="-1.68119">
        <ele>12.39</ele>
        <time>2020-03-07T12:22:29Z</time>
      </trkpt>
      <trkpt lat="47.13845" lon="-1.68102">
        <ele>12.22</ele>
        <time>2020-03-07T12:22:31Z</time>
      </trkpt>
      <trkpt lat="47.1384" lon="-1.68089">
        <ele>12.54</ele>
        <time>2020-03-07T12:22:33Z</time>
      </trkpt>
      <trkpt lat="47.13834" lon="-1.68075">
        <ele>12.34</ele>
        <time>2020-03-07T12:22:36Z</time>
      </trkpt>
      <trkpt lat="47.13827" lon="-1.68059">
        <ele>12.72</ele>
        <time>2020-03-07T12:22:37Z</time>
      </trkpt>
      <trkpt lat="47.13822" lon="-1.68041">
        <ele>11.84</ele>
        <time>2020-03-07T12:22:40Z</time>
      </trkpt>
      <trkpt lat="47.13818" lon="-1.68027">
        <ele>10.92</ele>
        <time>2020-03-07T12:22:42Z</time>
      </trkpt>
      <trkpt lat="47.13814" lon="-1.6801">
        <ele>11.37</ele>
        <time>2020-03-07T12:22:44Z</time>
      </trkpt>
      <trkpt lat="47.1381" lon="-1.67991">
        <ele>11.53</ele>
        <time>2020-03-07T12:22:46Z</time>
      </trkpt>
      <trkpt lat="47.13807" lon="-1.67973">
        <ele>11.09</ele>
        <time>2020-03-07T12:22:48Z</time>
      </trkpt>
      <trkpt lat="47.13805" lon="-1.67954">
        <ele>11.54</ele>
        <time>2020-03-07T12:22:50Z</time>
      </trkpt>
      <trkpt lat="47.13803" lon="-1.6794">
        <ele>11.54</ele>
        <time>2020-03-07T12:22:52Z</time>
      </trkpt>
      <trkpt lat="47.13801" lon="-1.67923">
        <ele>12.05</ele>
        <time>2020-03-07T12:22:54Z</time>
      </trkpt>
      <trkpt lat="47.13801" lon="-1.67905">
        <ele>13.47</ele>
        <time>2020-03-07T12:22:56Z</time>
      </trkpt>
      <trkpt lat="47.138" lon="-1.67888">
        <ele>14.1</ele>
        <time>2020-03-07T12:22:58Z</time>
      </trkpt>
      <trkpt lat="47.138" lon="-1.67873">
        <ele>15.56</ele>
        <time>2020-03-07T12:23:00Z</time>
      </trkpt>
      <trkpt lat="47.138" lon="-1.67855">
        <ele>16.37</ele>
        <time>2020-03-07T12:23:02Z</time>
      </trkpt>
      <trkpt lat="47.13798" lon="-1.67841">
        <ele>17.4</ele>
        <time>2020-03-07T12:23:04Z</time>
      </trkpt>
      <trkpt lat="47.13796" lon="-1.67825">
        <ele>16.68</ele>
        <time>2020-03-07T12:23:06Z</time>
      </trkpt>
      <trkpt lat="47.13795" lon="-1.67806">
        <ele>16.2</ele>
        <time>2020-03-07T12:23:08Z</time>
      </trkpt>
      <trkpt lat="47.13794" lon="-1.67792">
        <ele>16.3</ele>
        <time>2020-03-07T12:23:10Z</time>
      </trkpt>
      <trkpt lat="47.13794" lon="-1.67777">
        <ele>16.29</ele>
        <time>2020-03-07T12:23:12Z</time>
      </trkpt>
      <trkpt lat="47.13793" lon="-1.67757">
        <ele>16.65</ele>
        <time>2020-03-07T12:23:15Z</time>
      </trkpt>
      <trkpt lat="47.13792" lon="-1.67742">
        <ele>16.71</ele>
        <time>2020-03-07T12:23:17Z</time>
      </trkpt>
      <trkpt lat="47.13792" lon="-1.67726">
        <ele>16.87</ele>
        <time>2020-03-07T12:23:19Z</time>
      </trkpt>
      <trkpt lat="47.13791" lon="-1.67709">
        <ele>16.46</ele>
        <time>2020-03-07T12:23:21Z</time>
      </trkpt>
      <trkpt lat="47.1379" lon="-1.6769">
        <ele>15.13</ele>
        <time>2020-03-07T12:23:23Z</time>
      </trkpt>
      <trkpt lat="47.13788" lon="-1.6767">
        <ele>13.85</ele>
        <time>2020-03-07T12:23:25Z</time>
      </trkpt>
      <trkpt lat="47.13787" lon="-1.67651">
        <ele>13.67</ele>
        <time>2020-03-07T12:23:27Z</time>
      </trkpt>
      <trkpt lat="47.13786" lon="-1.67635">
        <ele>13.43</ele>
        <time>2020-03-07T12:23:29Z</time>
      </trkpt>
      <trkpt lat="47.13785" lon="-1.67616">
        <ele>12.83</ele>
        <time>2020-03-07T12:23:31Z</time>
      </trkpt>
      <trkpt lat="47.13784" lon="-1.67597">
        <ele>13.12</ele>
        <time>2020-03-07T12:23:33Z</time>
      </trkpt>
      <trkpt lat="47.13783" lon="-1.67579">
        <ele>13.34</ele>
        <time>2020-03-07T12:23:35Z</time>
      </trkpt>
      <trkpt lat="47.13782" lon="-1.67559">
        <ele>13.6</ele>
        <time>2020-03-07T12:23:37Z</time>
      </trkpt>
      <trkpt lat="47.13781" lon="-1.67537">
        <ele>13.3</ele>
        <time>2020-03-07T12:23:39Z</time>
      </trkpt>
      <trkpt lat="47.1378" lon="-1.67516">
        <ele>13.49</ele>
        <time>2020-03-07T12:23:41Z</time>
      </trkpt>
      <trkpt lat="47.13779" lon="-1.67495">
        <ele>13.74</ele>
        <time>2020-03-07T12:23:43Z</time>
      </trkpt>
      <trkpt lat="47.13779" lon="-1.67477">
        <ele>13.58</ele>
        <time>2020-03-07T12:23:45Z</time>
      </trkpt>
      <trkpt lat="47.1378" lon="-1.67456">
        <ele>13.52</ele>
        <time>2020-03-07T12:23:47Z</time>
      </trkpt>
      <trkpt lat="47.13781" lon="-1.67436">
        <ele>12.56</ele>
        <time>2020-03-07T12:23:49Z</time>
      </trkpt>
      <trkpt lat="47.13783" lon="-1.67419">
        <ele>11.37</ele>
        <time>2020-03-07T12:23:51Z</time>
      </trkpt>
      <trkpt lat="47.13786" lon="-1.67402">
        <ele>12.36</ele>
        <time>2020-03-07T12:23:53Z</time>
      </trkpt>
      <trkpt lat="47.13788" lon="-1.67384">
        <ele>13.81</ele>
        <time>2020-03-07T12:23:55Z</time>
      </trkpt>
      <trkpt lat="47.13791" lon="-1.67367">
        <ele>14.29</ele>
        <time>2020-03-07T12:23:57Z</time>
      </trkpt>
      <trkpt lat="47.13794" lon="-1.67348">
        <ele>14.85</ele>
        <time>2020-03-07T12:23:59Z</time>
      </trkpt>
      <trkpt lat="47.13797" lon="-1.67334">
        <ele>14.64</ele>
        <time>2020-03-07T12:24:02Z</time>
      </trkpt>
      <trkpt lat="47.13801" lon="-1.67318">
        <ele>14.58</ele>
        <time>2020-03-07T12:24:07Z</time>
      </trkpt>
      <trkpt lat="47.13813" lon="-1.67312">
        <ele>15.18</ele>
        <time>2020-03-07T12:24:10Z</time>
      </trkpt>
      <trkpt lat="47.13823" lon="-1.6731">
        <ele>15.52</ele>
        <time>2020-03-07T12:24:12Z</time>
      </trkpt>
      <trkpt lat="47.13833" lon="-1.67308">
        <ele>16</ele>
        <time>2020-03-07T12:24:14Z</time>
      </trkpt>
      <trkpt lat="47.13845" lon="-1.67302">
        <ele>15.38</ele>
        <time>2020-03-07T12:24:17Z</time>
      </trkpt>
      <trkpt lat="47.13856" lon="-1.67299">
        <ele>14.13</ele>
        <time>2020-03-07T12:24:19Z</time>
      </trkpt>
      <trkpt lat="47.13868" lon="-1.67296">
        <ele>11.98</ele>
        <time>2020-03-07T12:24:21Z</time>
      </trkpt>
      <trkpt lat="47.1388" lon="-1.67293">
        <ele>10.89</ele>
        <time>2020-03-07T12:24:23Z</time>
      </trkpt>
      <trkpt lat="47.13891" lon="-1.6729">
        <ele>11.84</ele>
        <time>2020-03-07T12:24:25Z</time>
      </trkpt>
      <trkpt lat="47.13903" lon="-1.67286">
        <ele>13.55</ele>
        <time>2020-03-07T12:24:28Z</time>
      </trkpt>
      <trkpt lat="47.13914" lon="-1.67281">
        <ele>14.47</ele>
        <time>2020-03-07T12:24:31Z</time>
      </trkpt>
      <trkpt lat="47.13925" lon="-1.6728">
        <ele>13.06</ele>
        <time>2020-03-07T12:24:33Z</time>
      </trkpt>
      <trkpt lat="47.13937" lon="-1.67278">
        <ele>10.72</ele>
        <time>2020-03-07T12:24:35Z</time>
      </trkpt>
      <trkpt lat="47.13946" lon="-1.67277">
        <ele>8.94</ele>
        <time>2020-03-07T12:24:37Z</time>
      </trkpt>
      <trkpt lat="47.13957" lon="-1.67276">
        <ele>8.75</ele>
        <time>2020-03-07T12:24:39Z</time>
      </trkpt>
      <trkpt lat="47.13967" lon="-1.67274">
        <ele>9.56</ele>
        <time>2020-03-07T12:24:41Z</time>
      </trkpt>
      <trkpt lat="47.13977" lon="-1.67272">
        <ele>10.38</ele>
        <time>2020-03-07T12:24:43Z</time>
      </trkpt>
      <trkpt lat="47.13987" lon="-1.67271">
        <ele>11.17</ele>
        <time>2020-03-07T12:24:45Z</time>
      </trkpt>
      <trkpt lat="47.13998" lon="-1.67271">
        <ele>10.52</ele>
        <time>2020-03-07T12:24:47Z</time>
      </trkpt>
      <trkpt lat="47.14008" lon="-1.6727">
        <ele>11.43</ele>
        <time>2020-03-07T12:24:49Z</time>
      </trkpt>
      <trkpt lat="47.14018" lon="-1.67269">
        <ele>11.29</ele>
        <time>2020-03-07T12:24:51Z</time>
      </trkpt>
      <trkpt lat="47.14031" lon="-1.67267">
        <ele>12.3</ele>
        <time>2020-03-07T12:24:54Z</time>
      </trkpt>
      <trkpt lat="47.1404" lon="-1.67266">
        <ele>12.92</ele>
        <time>2020-03-07T12:24:56Z</time>
      </trkpt>
      <trkpt lat="47.14052" lon="-1.67265">
        <ele>12.89</ele>
        <time>2020-03-07T12:24:58Z</time>
      </trkpt>
      <trkpt lat="47.14063" lon="-1.6726">
        <ele>13.34</ele>
        <time>2020-03-07T12:25:02Z</time>
      </trkpt>
      <trkpt lat="47.14075" lon="-1.67257">
        <ele>13.46</ele>
        <time>2020-03-07T12:25:04Z</time>
      </trkpt>
      <trkpt lat="47.14085" lon="-1.67255">
        <ele>15.04</ele>
        <time>2020-03-07T12:25:06Z</time>
      </trkpt>
      <trkpt lat="47.14098" lon="-1.67252">
        <ele>16.35</ele>
        <time>2020-03-07T12:25:09Z</time>
      </trkpt>
      <trkpt lat="47.14108" lon="-1.6725">
        <ele>17.17</ele>
        <time>2020-03-07T12:25:11Z</time>
      </trkpt>
      <trkpt lat="47.14121" lon="-1.6725">
        <ele>17.91</ele>
        <time>2020-03-07T12:25:13Z</time>
      </trkpt>
      <trkpt lat="47.14131" lon="-1.67251">
        <ele>17.06</ele>
        <time>2020-03-07T12:25:16Z</time>
      </trkpt>
      <trkpt lat="47.14143" lon="-1.67252">
        <ele>15.77</ele>
        <time>2020-03-07T12:25:19Z</time>
      </trkpt>
      <trkpt lat="47.14152" lon="-1.67244">
        <ele>14.91</ele>
        <time>2020-03-07T12:25:22Z</time>
      </trkpt>
      <trkpt lat="47.14161" lon="-1.67241">
        <ele>15.04</ele>
        <time>2020-03-07T12:25:24Z</time>
      </trkpt>
      <trkpt lat="47.1417" lon="-1.67246">
        <ele>15.39</ele>
        <time>2020-03-07T12:25:28Z</time>
      </trkpt>
      <trkpt lat="47.14179" lon="-1.67243">
        <ele>15.7</ele>
        <time>2020-03-07T12:25:31Z</time>
      </trkpt>
      <trkpt lat="47.14189" lon="-1.67244">
        <ele>16.02</ele>
        <time>2020-03-07T12:25:35Z</time>
      </trkpt>
      <trkpt lat="47.14202" lon="-1.67241">
        <ele>15.69</ele>
        <time>2020-03-07T12:25:57Z</time>
      </trkpt>
      <trkpt lat="47.14211" lon="-1.67234">
        <ele>15.75</ele>
        <time>2020-03-07T12:26:01Z</time>
      </trkpt>
      <trkpt lat="47.14221" lon="-1.67228">
        <ele>16.45</ele>
        <time>2020-03-07T12:26:03Z</time>
      </trkpt>
      <trkpt lat="47.14231" lon="-1.67222">
        <ele>16.19</ele>
        <time>2020-03-07T12:26:05Z</time>
      </trkpt>
      <trkpt lat="47.14243" lon="-1.67215">
        <ele>15.92</ele>
        <time>2020-03-07T12:26:08Z</time>
      </trkpt>
      <trkpt lat="47.14251" lon="-1.67209">
        <ele>15.74</ele>
        <time>2020-03-07T12:26:10Z</time>
      </trkpt>
      <trkpt lat="47.14265" lon="-1.672">
        <ele>15.93</ele>
        <time>2020-03-07T12:26:13Z</time>
      </trkpt>
      <trkpt lat="47.14273" lon="-1.67193">
        <ele>16.95</ele>
        <time>2020-03-07T12:26:15Z</time>
      </trkpt>
      <trkpt lat="47.14281" lon="-1.67185">
        <ele>17.43</ele>
        <time>2020-03-07T12:26:17Z</time>
      </trkpt>
      <trkpt lat="47.1429" lon="-1.67177">
        <ele>18.17</ele>
        <time>2020-03-07T12:26:20Z</time>
      </trkpt>
      <trkpt lat="47.14299" lon="-1.67169">
        <ele>18.64</ele>
        <time>2020-03-07T12:26:22Z</time>
      </trkpt>
      <trkpt lat="47.14309" lon="-1.67163">
        <ele>18.69</ele>
        <time>2020-03-07T12:26:24Z</time>
      </trkpt>
      <trkpt lat="47.14322" lon="-1.67154">
        <ele>18.5</ele>
        <time>2020-03-07T12:26:27Z</time>
      </trkpt>
      <trkpt lat="47.14332" lon="-1.67148">
        <ele>19.35</ele>
        <time>2020-03-07T12:26:29Z</time>
      </trkpt>
      <trkpt lat="47.14344" lon="-1.67139">
        <ele>20</ele>
        <time>2020-03-07T12:26:32Z</time>
      </trkpt>
      <trkpt lat="47.14353" lon="-1.67133">
        <ele>19.84</ele>
        <time>2020-03-07T12:26:34Z</time>
      </trkpt>
      <trkpt lat="47.14365" lon="-1.67124">
        <ele>20.39</ele>
        <time>2020-03-07T12:26:37Z</time>
      </trkpt>
      <trkpt lat="47.14374" lon="-1.67116">
        <ele>20.18</ele>
        <time>2020-03-07T12:26:39Z</time>
      </trkpt>
      <trkpt lat="47.14383" lon="-1.67112">
        <ele>19.3</ele>
        <time>2020-03-07T12:26:41Z</time>
      </trkpt>
      <trkpt lat="47.14394" lon="-1.67105">
        <ele>18.62</ele>
        <time>2020-03-07T12:26:43Z</time>
      </trkpt>
      <trkpt lat="47.14403" lon="-1.67098">
        <ele>17.29</ele>
        <time>2020-03-07T12:26:45Z</time>
      </trkpt>
      <trkpt lat="47.14415" lon="-1.67088">
        <ele>17.99</ele>
        <time>2020-03-07T12:26:47Z</time>
      </trkpt>
      <trkpt lat="47.14425" lon="-1.67082">
        <ele>19.07</ele>
        <time>2020-03-07T12:26:49Z</time>
      </trkpt>
      <trkpt lat="47.14434" lon="-1.67074">
        <ele>19.46</ele>
        <time>2020-03-07T12:26:51Z</time>
      </trkpt>
      <trkpt lat="47.14443" lon="-1.67068">
        <ele>19.83</ele>
        <time>2020-03-07T12:26:53Z</time>
      </trkpt>
      <trkpt lat="47.14453" lon="-1.6706">
        <ele>20.18</ele>
        <time>2020-03-07T12:26:55Z</time>
      </trkpt>
      <trkpt lat="47.14463" lon="-1.67052">
        <ele>20.51</ele>
        <time>2020-03-07T12:26:57Z</time>
      </trkpt>
      <trkpt lat="47.1447" lon="-1.67041">
        <ele>20.8</ele>
        <time>2020-03-07T12:26:59Z</time>
      </trkpt>
      <trkpt lat="47.14479" lon="-1.6703">
        <ele>22.03</ele>
        <time>2020-03-07T12:27:01Z</time>
      </trkpt>
      <trkpt lat="47.14487" lon="-1.67016">
        <ele>21.74</ele>
        <time>2020-03-07T12:27:03Z</time>
      </trkpt>
      <trkpt lat="47.14494" lon="-1.67005">
        <ele>23.12</ele>
        <time>2020-03-07T12:27:05Z</time>
      </trkpt>
      <trkpt lat="47.14499" lon="-1.66993">
        <ele>23.85</ele>
        <time>2020-03-07T12:27:07Z</time>
      </trkpt>
      <trkpt lat="47.14505" lon="-1.66978">
        <ele>23.91</ele>
        <time>2020-03-07T12:27:09Z</time>
      </trkpt>
      <trkpt lat="47.1451" lon="-1.66966">
        <ele>24.85</ele>
        <time>2020-03-07T12:27:11Z</time>
      </trkpt>
      <trkpt lat="47.1452" lon="-1.66953">
        <ele>24.42</ele>
        <time>2020-03-07T12:27:13Z</time>
      </trkpt>
      <trkpt lat="47.14529" lon="-1.66944">
        <ele>23.64</ele>
        <time>2020-03-07T12:27:15Z</time>
      </trkpt>
      <trkpt lat="47.14538" lon="-1.66936">
        <ele>23.49</ele>
        <time>2020-03-07T12:27:17Z</time>
      </trkpt>
      <trkpt lat="47.14547" lon="-1.66929">
        <ele>24.07</ele>
        <time>2020-03-07T12:27:19Z</time>
      </trkpt>
      <trkpt lat="47.14558" lon="-1.6692">
        <ele>24.32</ele>
        <time>2020-03-07T12:27:22Z</time>
      </trkpt>
      <trkpt lat="47.14568" lon="-1.66915">
        <ele>23.64</ele>
        <time>2020-03-07T12:27:24Z</time>
      </trkpt>
      <trkpt lat="47.14578" lon="-1.66912">
        <ele>22.61</ele>
        <time>2020-03-07T12:27:26Z</time>
      </trkpt>
      <trkpt lat="47.14587" lon="-1.66908">
        <ele>21.96</ele>
        <time>2020-03-07T12:27:28Z</time>
      </trkpt>
      <trkpt lat="47.14597" lon="-1.66905">
        <ele>22.11</ele>
        <time>2020-03-07T12:27:30Z</time>
      </trkpt>
      <trkpt lat="47.14614" lon="-1.66902">
        <ele>22.07</ele>
        <time>2020-03-07T12:27:33Z</time>
      </trkpt>
      <trkpt lat="47.14629" lon="-1.66898">
        <ele>23.29</ele>
        <time>2020-03-07T12:27:35Z</time>
      </trkpt>
      <trkpt lat="47.14642" lon="-1.6689">
        <ele>24.47</ele>
        <time>2020-03-07T12:27:38Z</time>
      </trkpt>
      <trkpt lat="47.14651" lon="-1.66886">
        <ele>23.01</ele>
        <time>2020-03-07T12:27:40Z</time>
      </trkpt>
      <trkpt lat="47.14662" lon="-1.66884">
        <ele>23.66</ele>
        <time>2020-03-07T12:27:42Z</time>
      </trkpt>
      <trkpt lat="47.14675" lon="-1.66881">
        <ele>24.14</ele>
        <time>2020-03-07T12:27:44Z</time>
      </trkpt>
      <trkpt lat="47.14684" lon="-1.66878">
        <ele>24.1</ele>
        <time>2020-03-07T12:27:46Z</time>
      </trkpt>
      <trkpt lat="47.14693" lon="-1.66875">
        <ele>24.2</ele>
        <time>2020-03-07T12:27:48Z</time>
      </trkpt>
      <trkpt lat="47.14705" lon="-1.66873">
        <ele>23.56</ele>
        <time>2020-03-07T12:27:50Z</time>
      </trkpt>
      <trkpt lat="47.14716" lon="-1.66871">
        <ele>24.13</ele>
        <time>2020-03-07T12:27:52Z</time>
      </trkpt>
      <trkpt lat="47.14727" lon="-1.66867">
        <ele>25.03</ele>
        <time>2020-03-07T12:27:54Z</time>
      </trkpt>
      <trkpt lat="47.14736" lon="-1.66863">
        <ele>24.98</ele>
        <time>2020-03-07T12:27:56Z</time>
      </trkpt>
      <trkpt lat="47.14745" lon="-1.66859">
        <ele>24.89</ele>
        <time>2020-03-07T12:27:58Z</time>
      </trkpt>
      <trkpt lat="47.14753" lon="-1.66853">
        <ele>23.56</ele>
        <time>2020-03-07T12:28:00Z</time>
      </trkpt>
      <trkpt lat="47.14763" lon="-1.66846">
        <ele>22.54</ele>
        <time>2020-03-07T12:28:02Z</time>
      </trkpt>
      <trkpt lat="47.14773" lon="-1.6684">
        <ele>22.32</ele>
        <time>2020-03-07T12:28:04Z</time>
      </trkpt>
      <trkpt lat="47.14783" lon="-1.66834">
        <ele>22.41</ele>
        <time>2020-03-07T12:28:06Z</time>
      </trkpt>
      <trkpt lat="47.14793" lon="-1.66825">
        <ele>22.26</ele>
        <time>2020-03-07T12:28:08Z</time>
      </trkpt>
      <trkpt lat="47.14802" lon="-1.66817">
        <ele>23.43</ele>
        <time>2020-03-07T12:28:10Z</time>
      </trkpt>
      <trkpt lat="47.14814" lon="-1.66805">
        <ele>25.57</ele>
        <time>2020-03-07T12:28:13Z</time>
      </trkpt>
      <trkpt lat="47.14822" lon="-1.66796">
        <ele>26.07</ele>
        <time>2020-03-07T12:28:15Z</time>
      </trkpt>
      <trkpt lat="47.14833" lon="-1.66785">
        <ele>27.56</ele>
        <time>2020-03-07T12:28:17Z</time>
      </trkpt>
      <trkpt lat="47.14843" lon="-1.66775">
        <ele>28.18</ele>
        <time>2020-03-07T12:28:19Z</time>
      </trkpt>
      <trkpt lat="47.14852" lon="-1.66766">
        <ele>28.65</ele>
        <time>2020-03-07T12:28:21Z</time>
      </trkpt>
      <trkpt lat="47.1486" lon="-1.66757">
        <ele>29.13</ele>
        <time>2020-03-07T12:28:23Z</time>
      </trkpt>
      <trkpt lat="47.14869" lon="-1.66747">
        <ele>29.04</ele>
        <time>2020-03-07T12:28:25Z</time>
      </trkpt>
      <trkpt lat="47.14878" lon="-1.66738">
        <ele>28.18</ele>
        <time>2020-03-07T12:28:27Z</time>
      </trkpt>
      <trkpt lat="47.14889" lon="-1.66724">
        <ele>29.25</ele>
        <time>2020-03-07T12:28:30Z</time>
      </trkpt>
      <trkpt lat="47.14897" lon="-1.66714">
        <ele>29.33</ele>
        <time>2020-03-07T12:28:32Z</time>
      </trkpt>
      <trkpt lat="47.14907" lon="-1.66701">
        <ele>30.68</ele>
        <time>2020-03-07T12:28:35Z</time>
      </trkpt>
      <trkpt lat="47.14917" lon="-1.66688">
        <ele>32.88</ele>
        <time>2020-03-07T12:28:38Z</time>
      </trkpt>
      <trkpt lat="47.14926" lon="-1.66675">
        <ele>33.23</ele>
        <time>2020-03-07T12:28:40Z</time>
      </trkpt>
      <trkpt lat="47.14933" lon="-1.66666">
        <ele>32.97</ele>
        <time>2020-03-07T12:28:42Z</time>
      </trkpt>
      <trkpt lat="47.1494" lon="-1.66657">
        <ele>32.83</ele>
        <time>2020-03-07T12:28:44Z</time>
      </trkpt>
      <trkpt lat="47.14948" lon="-1.66647">
        <ele>32.99</ele>
        <time>2020-03-07T12:28:46Z</time>
      </trkpt>
      <trkpt lat="47.14956" lon="-1.66636">
        <ele>32.92</ele>
        <time>2020-03-07T12:28:48Z</time>
      </trkpt>
      <trkpt lat="47.14964" lon="-1.66628">
        <ele>32.17</ele>
        <time>2020-03-07T12:28:50Z</time>
      </trkpt>
      <trkpt lat="47.14974" lon="-1.66619">
        <ele>31.99</ele>
        <time>2020-03-07T12:28:53Z</time>
      </trkpt>
      <trkpt lat="47.14983" lon="-1.66614">
        <ele>31.31</ele>
        <time>2020-03-07T12:28:55Z</time>
      </trkpt>
      <trkpt lat="47.14994" lon="-1.66608">
        <ele>31.52</ele>
        <time>2020-03-07T12:28:57Z</time>
      </trkpt>
      <trkpt lat="47.15006" lon="-1.66602">
        <ele>31.62</ele>
        <time>2020-03-07T12:28:59Z</time>
      </trkpt>
      <trkpt lat="47.15018" lon="-1.66597">
        <ele>30.95</ele>
        <time>2020-03-07T12:29:01Z</time>
      </trkpt>
      <trkpt lat="47.1503" lon="-1.6659">
        <ele>29.93</ele>
        <time>2020-03-07T12:29:04Z</time>
      </trkpt>
      <trkpt lat="47.1504" lon="-1.66583">
        <ele>28.47</ele>
        <time>2020-03-07T12:29:06Z</time>
      </trkpt>
      <trkpt lat="47.15053" lon="-1.66577">
        <ele>28.42</ele>
        <time>2020-03-07T12:29:08Z</time>
      </trkpt>
      <trkpt lat="47.15063" lon="-1.66571">
        <ele>28.24</ele>
        <time>2020-03-07T12:29:10Z</time>
      </trkpt>
      <trkpt lat="47.15073" lon="-1.66566">
        <ele>27.94</ele>
        <time>2020-03-07T12:29:12Z</time>
      </trkpt>
      <trkpt lat="47.15084" lon="-1.6656">
        <ele>29.01</ele>
        <time>2020-03-07T12:29:14Z</time>
      </trkpt>
      <trkpt lat="47.15094" lon="-1.66557">
        <ele>29.94</ele>
        <time>2020-03-07T12:29:16Z</time>
      </trkpt>
      <trkpt lat="47.15103" lon="-1.66552">
        <ele>29.19</ele>
        <time>2020-03-07T12:29:18Z</time>
      </trkpt>
      <trkpt lat="47.15112" lon="-1.66547">
        <ele>28.18</ele>
        <time>2020-03-07T12:29:20Z</time>
      </trkpt>
      <trkpt lat="47.15123" lon="-1.66543">
        <ele>28.35</ele>
        <time>2020-03-07T12:29:22Z</time>
      </trkpt>
      <trkpt lat="47.15134" lon="-1.6654">
        <ele>29.62</ele>
        <time>2020-03-07T12:29:24Z</time>
      </trkpt>
      <trkpt lat="47.15145" lon="-1.66537">
        <ele>29.21</ele>
        <time>2020-03-07T12:29:26Z</time>
      </trkpt>
      <trkpt lat="47.15155" lon="-1.66536">
        <ele>28.98</ele>
        <time>2020-03-07T12:29:28Z</time>
      </trkpt>
      <trkpt lat="47.15166" lon="-1.66527">
        <ele>28.81</ele>
        <time>2020-03-07T12:29:31Z</time>
      </trkpt>
      <trkpt lat="47.15174" lon="-1.66517">
        <ele>30.06</ele>
        <time>2020-03-07T12:29:33Z</time>
      </trkpt>
      <trkpt lat="47.1518" lon="-1.66503">
        <ele>30.9</ele>
        <time>2020-03-07T12:29:35Z</time>
      </trkpt>
      <trkpt lat="47.15185" lon="-1.6649">
        <ele>30.72</ele>
        <time>2020-03-07T12:29:37Z</time>
      </trkpt>
      <trkpt lat="47.15192" lon="-1.66477">
        <ele>31.23</ele>
        <time>2020-03-07T12:29:39Z</time>
      </trkpt>
      <trkpt lat="47.15198" lon="-1.66463">
        <ele>32.12</ele>
        <time>2020-03-07T12:29:41Z</time>
      </trkpt>
      <trkpt lat="47.15204" lon="-1.66449">
        <ele>32.35</ele>
        <time>2020-03-07T12:29:43Z</time>
      </trkpt>
      <trkpt lat="47.1521" lon="-1.66436">
        <ele>32.41</ele>
        <time>2020-03-07T12:29:45Z</time>
      </trkpt>
      <trkpt lat="47.15217" lon="-1.66425">
        <ele>32.1</ele>
        <time>2020-03-07T12:29:47Z</time>
      </trkpt>
      <trkpt lat="47.15224" lon="-1.66413">
        <ele>32.79</ele>
        <time>2020-03-07T12:29:49Z</time>
      </trkpt>
      <trkpt lat="47.15231" lon="-1.66401">
        <ele>33.57</ele>
        <time>2020-03-07T12:29:51Z</time>
      </trkpt>
      <trkpt lat="47.15238" lon="-1.66388">
        <ele>33.77</ele>
        <time>2020-03-07T12:29:53Z</time>
      </trkpt>
      <trkpt lat="47.15245" lon="-1.66371">
        <ele>33.02</ele>
        <time>2020-03-07T12:29:55Z</time>
      </trkpt>
      <trkpt lat="47.15251" lon="-1.66357">
        <ele>31.45</ele>
        <time>2020-03-07T12:29:57Z</time>
      </trkpt>
      <trkpt lat="47.15257" lon="-1.66345">
        <ele>31.15</ele>
        <time>2020-03-07T12:29:59Z</time>
      </trkpt>
      <trkpt lat="47.15263" lon="-1.66332">
        <ele>32.22</ele>
        <time>2020-03-07T12:30:01Z</time>
      </trkpt>
      <trkpt lat="47.1527" lon="-1.66317">
        <ele>32.29</ele>
        <time>2020-03-07T12:30:03Z</time>
      </trkpt>
      <trkpt lat="47.15277" lon="-1.66303">
        <ele>32.4</ele>
        <time>2020-03-07T12:30:05Z</time>
      </trkpt>
      <trkpt lat="47.15284" lon="-1.66291">
        <ele>32.96</ele>
        <time>2020-03-07T12:30:07Z</time>
      </trkpt>
      <trkpt lat="47.1529" lon="-1.66279">
        <ele>32.13</ele>
        <time>2020-03-07T12:30:09Z</time>
      </trkpt>
      <trkpt lat="47.15297" lon="-1.66267">
        <ele>32.25</ele>
        <time>2020-03-07T12:30:11Z</time>
      </trkpt>
      <trkpt lat="47.15303" lon="-1.66255">
        <ele>32.09</ele>
        <time>2020-03-07T12:30:13Z</time>
      </trkpt>
      <trkpt lat="47.15307" lon="-1.66243">
        <ele>32.3</ele>
        <time>2020-03-07T12:30:23Z</time>
      </trkpt>
      <trkpt lat="47.15313" lon="-1.66232">
        <ele>32.44</ele>
        <time>2020-03-07T12:30:26Z</time>
      </trkpt>
      <trkpt lat="47.1532" lon="-1.66218">
        <ele>32.06</ele>
        <time>2020-03-07T12:30:29Z</time>
      </trkpt>
      <trkpt lat="47.15327" lon="-1.66206">
        <ele>31.66</ele>
        <time>2020-03-07T12:30:31Z</time>
      </trkpt>
      <trkpt lat="47.15337" lon="-1.66191">
        <ele>32.09</ele>
        <time>2020-03-07T12:30:34Z</time>
      </trkpt>
      <trkpt lat="47.15345" lon="-1.66181">
        <ele>32.42</ele>
        <time>2020-03-07T12:30:36Z</time>
      </trkpt>
      <trkpt lat="47.15353" lon="-1.6617">
        <ele>32.76</ele>
        <time>2020-03-07T12:30:38Z</time>
      </trkpt>
      <trkpt lat="47.15362" lon="-1.66158">
        <ele>32.95</ele>
        <time>2020-03-07T12:30:40Z</time>
      </trkpt>
      <trkpt lat="47.15371" lon="-1.66147">
        <ele>32.87</ele>
        <time>2020-03-07T12:30:42Z</time>
      </trkpt>
      <trkpt lat="47.15379" lon="-1.66137">
        <ele>33.23</ele>
        <time>2020-03-07T12:30:44Z</time>
      </trkpt>
      <trkpt lat="47.15388" lon="-1.66127">
        <ele>33.68</ele>
        <time>2020-03-07T12:30:46Z</time>
      </trkpt>
      <trkpt lat="47.15397" lon="-1.66118">
        <ele>32.74</ele>
        <time>2020-03-07T12:30:48Z</time>
      </trkpt>
      <trkpt lat="47.15406" lon="-1.66108">
        <ele>31.94</ele>
        <time>2020-03-07T12:30:50Z</time>
      </trkpt>
      <trkpt lat="47.15416" lon="-1.66096">
        <ele>30.82</ele>
        <time>2020-03-07T12:30:52Z</time>
      </trkpt>
      <trkpt lat="47.15427" lon="-1.66086">
        <ele>30.77</ele>
        <time>2020-03-07T12:30:54Z</time>
      </trkpt>
      <trkpt lat="47.15436" lon="-1.66077">
        <ele>30.14</ele>
        <time>2020-03-07T12:30:56Z</time>
      </trkpt>
      <trkpt lat="47.15444" lon="-1.66067">
        <ele>29.34</ele>
        <time>2020-03-07T12:30:58Z</time>
      </trkpt>
      <trkpt lat="47.15452" lon="-1.66057">
        <ele>29.38</ele>
        <time>2020-03-07T12:31:00Z</time>
      </trkpt>
      <trkpt lat="47.15463" lon="-1.66046">
        <ele>29.92</ele>
        <time>2020-03-07T12:31:02Z</time>
      </trkpt>
      <trkpt lat="47.15472" lon="-1.66033">
        <ele>29.75</ele>
        <time>2020-03-07T12:31:04Z</time>
      </trkpt>
      <trkpt lat="47.15482" lon="-1.66021">
        <ele>29.32</ele>
        <time>2020-03-07T12:31:06Z</time>
      </trkpt>
      <trkpt lat="47.1549" lon="-1.66011">
        <ele>28.66</ele>
        <time>2020-03-07T12:31:08Z</time>
      </trkpt>
      <trkpt lat="47.15498" lon="-1.66001">
        <ele>28.82</ele>
        <time>2020-03-07T12:31:10Z</time>
      </trkpt>
      <trkpt lat="47.15508" lon="-1.65989">
        <ele>29.3</ele>
        <time>2020-03-07T12:31:12Z</time>
      </trkpt>
      <trkpt lat="47.15518" lon="-1.65977">
        <ele>29.47</ele>
        <time>2020-03-07T12:31:14Z</time>
      </trkpt>
      <trkpt lat="47.15528" lon="-1.65967">
        <ele>30.5</ele>
        <time>2020-03-07T12:31:16Z</time>
      </trkpt>
      <trkpt lat="47.15537" lon="-1.65956">
        <ele>31.59</ele>
        <time>2020-03-07T12:31:18Z</time>
      </trkpt>
      <trkpt lat="47.15548" lon="-1.65945">
        <ele>32.23</ele>
        <time>2020-03-07T12:31:20Z</time>
      </trkpt>
      <trkpt lat="47.15556" lon="-1.65934">
        <ele>32.44</ele>
        <time>2020-03-07T12:31:22Z</time>
      </trkpt>
      <trkpt lat="47.15564" lon="-1.65922">
        <ele>33.26</ele>
        <time>2020-03-07T12:31:24Z</time>
      </trkpt>
      <trkpt lat="47.15573" lon="-1.6591">
        <ele>33</ele>
        <time>2020-03-07T12:31:26Z</time>
      </trkpt>
      <trkpt lat="47.15582" lon="-1.659">
        <ele>33.72</ele>
        <time>2020-03-07T12:31:28Z</time>
      </trkpt>
      <trkpt lat="47.15592" lon="-1.65889">
        <ele>33.87</ele>
        <time>2020-03-07T12:31:30Z</time>
      </trkpt>
      <trkpt lat="47.15602" lon="-1.65879">
        <ele>34.02</ele>
        <time>2020-03-07T12:31:32Z</time>
      </trkpt>
      <trkpt lat="47.15613" lon="-1.65869">
        <ele>32.91</ele>
        <time>2020-03-07T12:31:34Z</time>
      </trkpt>
      <trkpt lat="47.15624" lon="-1.65858">
        <ele>32.32</ele>
        <time>2020-03-07T12:31:36Z</time>
      </trkpt>
      <trkpt lat="47.15632" lon="-1.65848">
        <ele>32.92</ele>
        <time>2020-03-07T12:31:38Z</time>
      </trkpt>
      <trkpt lat="47.15641" lon="-1.65836">
        <ele>32.83</ele>
        <time>2020-03-07T12:31:40Z</time>
      </trkpt>
      <trkpt lat="47.1565" lon="-1.65824">
        <ele>33.35</ele>
        <time>2020-03-07T12:31:42Z</time>
      </trkpt>
      <trkpt lat="47.15659" lon="-1.65813">
        <ele>33.42</ele>
        <time>2020-03-07T12:31:44Z</time>
      </trkpt>
      <trkpt lat="47.15667" lon="-1.65803">
        <ele>33.09</ele>
        <time>2020-03-07T12:31:46Z</time>
      </trkpt>
      <trkpt lat="47.15678" lon="-1.65792">
        <ele>33.68</ele>
        <time>2020-03-07T12:31:48Z</time>
      </trkpt>
      <trkpt lat="47.15688" lon="-1.65782">
        <ele>33.07</ele>
        <time>2020-03-07T12:31:50Z</time>
      </trkpt>
      <trkpt lat="47.15697" lon="-1.65774">
        <ele>32.25</ele>
        <time>2020-03-07T12:31:52Z</time>
      </trkpt>
      <trkpt lat="47.15707" lon="-1.65763">
        <ele>31.3</ele>
        <time>2020-03-07T12:31:54Z</time>
      </trkpt>
      <trkpt lat="47.15717" lon="-1.65752">
        <ele>31.75</ele>
        <time>2020-03-07T12:31:56Z</time>
      </trkpt>
      <trkpt lat="47.15726" lon="-1.65741">
        <ele>32.58</ele>
        <time>2020-03-07T12:31:58Z</time>
      </trkpt>
      <trkpt lat="47.15737" lon="-1.65728">
        <ele>32.53</ele>
        <time>2020-03-07T12:32:00Z</time>
      </trkpt>
      <trkpt lat="47.15746" lon="-1.65717">
        <ele>32.57</ele>
        <time>2020-03-07T12:32:02Z</time>
      </trkpt>
      <trkpt lat="47.15755" lon="-1.65704">
        <ele>31.33</ele>
        <time>2020-03-07T12:32:04Z</time>
      </trkpt>
      <trkpt lat="47.15764" lon="-1.6569">
        <ele>31.1</ele>
        <time>2020-03-07T12:32:06Z</time>
      </trkpt>
      <trkpt lat="47.15774" lon="-1.65675">
        <ele>31.57</ele>
        <time>2020-03-07T12:32:09Z</time>
      </trkpt>
      <trkpt lat="47.15781" lon="-1.65661">
        <ele>31.04</ele>
        <time>2020-03-07T12:32:11Z</time>
      </trkpt>
      <trkpt lat="47.15787" lon="-1.65648">
        <ele>31.52</ele>
        <time>2020-03-07T12:32:13Z</time>
      </trkpt>
      <trkpt lat="47.15794" lon="-1.65632">
        <ele>32.06</ele>
        <time>2020-03-07T12:32:15Z</time>
      </trkpt>
      <trkpt lat="47.15802" lon="-1.65616">
        <ele>32.71</ele>
        <time>2020-03-07T12:32:17Z</time>
      </trkpt>
      <trkpt lat="47.15809" lon="-1.65601">
        <ele>32.59</ele>
        <time>2020-03-07T12:32:19Z</time>
      </trkpt>
      <trkpt lat="47.15816" lon="-1.65586">
        <ele>31.92</ele>
        <time>2020-03-07T12:32:21Z</time>
      </trkpt>
      <trkpt lat="47.15823" lon="-1.65572">
        <ele>31.3</ele>
        <time>2020-03-07T12:32:23Z</time>
      </trkpt>
      <trkpt lat="47.15829" lon="-1.65557">
        <ele>31.72</ele>
        <time>2020-03-07T12:32:25Z</time>
      </trkpt>
      <trkpt lat="47.15836" lon="-1.65542">
        <ele>32.83</ele>
        <time>2020-03-07T12:32:27Z</time>
      </trkpt>
      <trkpt lat="47.15842" lon="-1.65528">
        <ele>33.74</ele>
        <time>2020-03-07T12:32:29Z</time>
      </trkpt>
      <trkpt lat="47.15847" lon="-1.65516">
        <ele>34.48</ele>
        <time>2020-03-07T12:32:31Z</time>
      </trkpt>
      <trkpt lat="47.15853" lon="-1.65502">
        <ele>34.08</ele>
        <time>2020-03-07T12:32:33Z</time>
      </trkpt>
      <trkpt lat="47.1586" lon="-1.65483">
        <ele>32.58</ele>
        <time>2020-03-07T12:32:35Z</time>
      </trkpt>
      <trkpt lat="47.15866" lon="-1.6547">
        <ele>31.85</ele>
        <time>2020-03-07T12:32:37Z</time>
      </trkpt>
      <trkpt lat="47.15873" lon="-1.65454">
        <ele>32.22</ele>
        <time>2020-03-07T12:32:38Z</time>
      </trkpt>
      <trkpt lat="47.1588" lon="-1.65438">
        <ele>30.83</ele>
        <time>2020-03-07T12:32:40Z</time>
      </trkpt>
      <trkpt lat="47.15886" lon="-1.65425">
        <ele>29.79</ele>
        <time>2020-03-07T12:32:42Z</time>
      </trkpt>
      <trkpt lat="47.15895" lon="-1.65408">
        <ele>29.51</ele>
        <time>2020-03-07T12:32:44Z</time>
      </trkpt>
      <trkpt lat="47.15901" lon="-1.65393">
        <ele>30.81</ele>
        <time>2020-03-07T12:32:46Z</time>
      </trkpt>
      <trkpt lat="47.15907" lon="-1.65379">
        <ele>32.46</ele>
        <time>2020-03-07T12:32:48Z</time>
      </trkpt>
      <trkpt lat="47.15915" lon="-1.65361">
        <ele>32.63</ele>
        <time>2020-03-07T12:32:50Z</time>
      </trkpt>
      <trkpt lat="47.15922" lon="-1.65347">
        <ele>31.78</ele>
        <time>2020-03-07T12:32:52Z</time>
      </trkpt>
      <trkpt lat="47.15929" lon="-1.65333">
        <ele>31.33</ele>
        <time>2020-03-07T12:32:54Z</time>
      </trkpt>
      <trkpt lat="47.15936" lon="-1.65318">
        <ele>31.35</ele>
        <time>2020-03-07T12:32:56Z</time>
      </trkpt>
      <trkpt lat="47.15942" lon="-1.65304">
        <ele>31.36</ele>
        <time>2020-03-07T12:32:58Z</time>
      </trkpt>
      <trkpt lat="47.1595" lon="-1.65286">
        <ele>31.07</ele>
        <time>2020-03-07T12:33:00Z</time>
      </trkpt>
      <trkpt lat="47.15957" lon="-1.6527">
        <ele>31.55</ele>
        <time>2020-03-07T12:33:02Z</time>
      </trkpt>
      <trkpt lat="47.15965" lon="-1.65253">
        <ele>31.9</ele>
        <time>2020-03-07T12:33:04Z</time>
      </trkpt>
      <trkpt lat="47.15973" lon="-1.65238">
        <ele>31.82</ele>
        <time>2020-03-07T12:33:06Z</time>
      </trkpt>
      <trkpt lat="47.15981" lon="-1.65223">
        <ele>31.91</ele>
        <time>2020-03-07T12:33:08Z</time>
      </trkpt>
      <trkpt lat="47.15988" lon="-1.65207">
        <ele>31.62</ele>
        <time>2020-03-07T12:33:10Z</time>
      </trkpt>
      <trkpt lat="47.15996" lon="-1.65191">
        <ele>31.22</ele>
        <time>2020-03-07T12:33:12Z</time>
      </trkpt>
      <trkpt lat="47.16004" lon="-1.65176">
        <ele>30.97</ele>
        <time>2020-03-07T12:33:14Z</time>
      </trkpt>
      <trkpt lat="47.16012" lon="-1.65159">
        <ele>31.41</ele>
        <time>2020-03-07T12:33:16Z</time>
      </trkpt>
      <trkpt lat="47.16019" lon="-1.65145">
        <ele>31.7</ele>
        <time>2020-03-07T12:33:18Z</time>
      </trkpt>
      <trkpt lat="47.16024" lon="-1.65132">
        <ele>31.48</ele>
        <time>2020-03-07T12:33:20Z</time>
      </trkpt>
      <trkpt lat="47.16032" lon="-1.65116">
        <ele>31.61</ele>
        <time>2020-03-07T12:33:22Z</time>
      </trkpt>
      <trkpt lat="47.1604" lon="-1.651">
        <ele>31.17</ele>
        <time>2020-03-07T12:33:24Z</time>
      </trkpt>
      <trkpt lat="47.16047" lon="-1.65087">
        <ele>31.09</ele>
        <time>2020-03-07T12:33:26Z</time>
      </trkpt>
      <trkpt lat="47.16054" lon="-1.65074">
        <ele>31.25</ele>
        <time>2020-03-07T12:33:28Z</time>
      </trkpt>
      <trkpt lat="47.16061" lon="-1.6506">
        <ele>32.07</ele>
        <time>2020-03-07T12:33:30Z</time>
      </trkpt>
      <trkpt lat="47.16069" lon="-1.65046">
        <ele>31.37</ele>
        <time>2020-03-07T12:33:32Z</time>
      </trkpt>
      <trkpt lat="47.16077" lon="-1.6503">
        <ele>30.67</ele>
        <time>2020-03-07T12:33:34Z</time>
      </trkpt>
      <trkpt lat="47.16084" lon="-1.65018">
        <ele>30.67</ele>
        <time>2020-03-07T12:33:36Z</time>
      </trkpt>
      <trkpt lat="47.16092" lon="-1.65004">
        <ele>29.39</ele>
        <time>2020-03-07T12:33:38Z</time>
      </trkpt>
      <trkpt lat="47.161" lon="-1.64989">
        <ele>28.7</ele>
        <time>2020-03-07T12:33:40Z</time>
      </trkpt>
      <trkpt lat="47.16107" lon="-1.64976">
        <ele>28.47</ele>
        <time>2020-03-07T12:33:42Z</time>
      </trkpt>
      <trkpt lat="47.16115" lon="-1.64961">
        <ele>29.32</ele>
        <time>2020-03-07T12:33:44Z</time>
      </trkpt>
      <trkpt lat="47.16121" lon="-1.64948">
        <ele>30.43</ele>
        <time>2020-03-07T12:33:46Z</time>
      </trkpt>
      <trkpt lat="47.16129" lon="-1.64935">
        <ele>31.68</ele>
        <time>2020-03-07T12:33:48Z</time>
      </trkpt>
      <trkpt lat="47.16136" lon="-1.64922">
        <ele>32.73</ele>
        <time>2020-03-07T12:33:50Z</time>
      </trkpt>
      <trkpt lat="47.16143" lon="-1.64908">
        <ele>32.65</ele>
        <time>2020-03-07T12:33:52Z</time>
      </trkpt>
      <trkpt lat="47.1615" lon="-1.64893">
        <ele>32.34</ele>
        <time>2020-03-07T12:33:54Z</time>
      </trkpt>
      <trkpt lat="47.16157" lon="-1.64878">
        <ele>31.45</ele>
        <time>2020-03-07T12:33:56Z</time>
      </trkpt>
      <trkpt lat="47.16164" lon="-1.64865">
        <ele>31.64</ele>
        <time>2020-03-07T12:33:58Z</time>
      </trkpt>
      <trkpt lat="47.16171" lon="-1.6485">
        <ele>32.01</ele>
        <time>2020-03-07T12:34:00Z</time>
      </trkpt>
      <trkpt lat="47.16178" lon="-1.64837">
        <ele>31.6</ele>
        <time>2020-03-07T12:34:02Z</time>
      </trkpt>
      <trkpt lat="47.16186" lon="-1.64822">
        <ele>32.25</ele>
        <time>2020-03-07T12:34:04Z</time>
      </trkpt>
      <trkpt lat="47.16193" lon="-1.64809">
        <ele>32.67</ele>
        <time>2020-03-07T12:34:06Z</time>
      </trkpt>
      <trkpt lat="47.162" lon="-1.64795">
        <ele>33.17</ele>
        <time>2020-03-07T12:34:08Z</time>
      </trkpt>
      <trkpt lat="47.16208" lon="-1.64778">
        <ele>32.64</ele>
        <time>2020-03-07T12:34:10Z</time>
      </trkpt>
      <trkpt lat="47.16215" lon="-1.64764">
        <ele>31.8</ele>
        <time>2020-03-07T12:34:12Z</time>
      </trkpt>
      <trkpt lat="47.16223" lon="-1.64749">
        <ele>31.54</ele>
        <time>2020-03-07T12:34:14Z</time>
      </trkpt>
      <trkpt lat="47.1623" lon="-1.64736">
        <ele>31.86</ele>
        <time>2020-03-07T12:34:16Z</time>
      </trkpt>
      <trkpt lat="47.16239" lon="-1.64721">
        <ele>31.92</ele>
        <time>2020-03-07T12:34:18Z</time>
      </trkpt>
      <trkpt lat="47.16247" lon="-1.64706">
        <ele>31.98</ele>
        <time>2020-03-07T12:34:20Z</time>
      </trkpt>
      <trkpt lat="47.16254" lon="-1.64691">
        <ele>31.18</ele>
        <time>2020-03-07T12:34:22Z</time>
      </trkpt>
      <trkpt lat="47.16262" lon="-1.64676">
        <ele>30.23</ele>
        <time>2020-03-07T12:34:24Z</time>
      </trkpt>
      <trkpt lat="47.16268" lon="-1.64663">
        <ele>29.91</ele>
        <time>2020-03-07T12:34:26Z</time>
      </trkpt>
      <trkpt lat="47.16276" lon="-1.64648">
        <ele>30</ele>
        <time>2020-03-07T12:34:28Z</time>
      </trkpt>
      <trkpt lat="47.16283" lon="-1.64633">
        <ele>30</ele>
        <time>2020-03-07T12:34:30Z</time>
      </trkpt>
      <trkpt lat="47.16291" lon="-1.64618">
        <ele>29.66</ele>
        <time>2020-03-07T12:34:32Z</time>
      </trkpt>
      <trkpt lat="47.163" lon="-1.64604">
        <ele>29.81</ele>
        <time>2020-03-07T12:34:34Z</time>
      </trkpt>
      <trkpt lat="47.16306" lon="-1.64593">
        <ele>29.32</ele>
        <time>2020-03-07T12:34:36Z</time>
      </trkpt>
      <trkpt lat="47.16314" lon="-1.64577">
        <ele>29.19</ele>
        <time>2020-03-07T12:34:38Z</time>
      </trkpt>
      <trkpt lat="47.16319" lon="-1.64564">
        <ele>27.69</ele>
        <time>2020-03-07T12:34:40Z</time>
      </trkpt>
      <trkpt lat="47.16325" lon="-1.64553">
        <ele>26.91</ele>
        <time>2020-03-07T12:34:42Z</time>
      </trkpt>
      <trkpt lat="47.16334" lon="-1.64536">
        <ele>27.56</ele>
        <time>2020-03-07T12:34:44Z</time>
      </trkpt>
      <trkpt lat="47.16341" lon="-1.64525">
        <ele>28.96</ele>
        <time>2020-03-07T12:34:46Z</time>
      </trkpt>
      <trkpt lat="47.16347" lon="-1.64513">
        <ele>29.83</ele>
        <time>2020-03-07T12:34:48Z</time>
      </trkpt>
      <trkpt lat="47.16355" lon="-1.64498">
        <ele>30.41</ele>
        <time>2020-03-07T12:34:50Z</time>
      </trkpt>
      <trkpt lat="47.16361" lon="-1.64484">
        <ele>30.56</ele>
        <time>2020-03-07T12:34:52Z</time>
      </trkpt>
      <trkpt lat="47.16367" lon="-1.64472">
        <ele>30.56</ele>
        <time>2020-03-07T12:34:54Z</time>
      </trkpt>
      <trkpt lat="47.16373" lon="-1.64455">
        <ele>32.86</ele>
        <time>2020-03-07T12:34:57Z</time>
      </trkpt>
      <trkpt lat="47.16379" lon="-1.64441">
        <ele>34.36</ele>
        <time>2020-03-07T12:34:59Z</time>
      </trkpt>
      <trkpt lat="47.16385" lon="-1.64426">
        <ele>35.67</ele>
        <time>2020-03-07T12:35:01Z</time>
      </trkpt>
      <trkpt lat="47.1639" lon="-1.64413">
        <ele>35.12</ele>
        <time>2020-03-07T12:35:03Z</time>
      </trkpt>
      <trkpt lat="47.16396" lon="-1.64399">
        <ele>35</ele>
        <time>2020-03-07T12:35:05Z</time>
      </trkpt>
      <trkpt lat="47.16405" lon="-1.64384">
        <ele>35.16</ele>
        <time>2020-03-07T12:35:08Z</time>
      </trkpt>
      <trkpt lat="47.16414" lon="-1.64368">
        <ele>35.1</ele>
        <time>2020-03-07T12:35:10Z</time>
      </trkpt>
      <trkpt lat="47.1642" lon="-1.64358">
        <ele>35.64</ele>
        <time>2020-03-07T12:35:12Z</time>
      </trkpt>
      <trkpt lat="47.16429" lon="-1.64345">
        <ele>35.61</ele>
        <time>2020-03-07T12:35:14Z</time>
      </trkpt>
      <trkpt lat="47.16439" lon="-1.64331">
        <ele>36.28</ele>
        <time>2020-03-07T12:35:17Z</time>
      </trkpt>
      <trkpt lat="47.16449" lon="-1.64319">
        <ele>35.54</ele>
        <time>2020-03-07T12:35:19Z</time>
      </trkpt>
      <trkpt lat="47.16459" lon="-1.6431">
        <ele>35.13</ele>
        <time>2020-03-07T12:35:21Z</time>
      </trkpt>
      <trkpt lat="47.16467" lon="-1.64299">
        <ele>35.58</ele>
        <time>2020-03-07T12:35:23Z</time>
      </trkpt>
      <trkpt lat="47.16476" lon="-1.64289">
        <ele>34.94</ele>
        <time>2020-03-07T12:35:25Z</time>
      </trkpt>
      <trkpt lat="47.16485" lon="-1.64279">
        <ele>34.65</ele>
        <time>2020-03-07T12:35:27Z</time>
      </trkpt>
      <trkpt lat="47.16494" lon="-1.64266">
        <ele>35.64</ele>
        <time>2020-03-07T12:35:29Z</time>
      </trkpt>
      <trkpt lat="47.16501" lon="-1.64257">
        <ele>35.63</ele>
        <time>2020-03-07T12:35:31Z</time>
      </trkpt>
      <trkpt lat="47.1651" lon="-1.64246">
        <ele>34.7</ele>
        <time>2020-03-07T12:35:33Z</time>
      </trkpt>
      <trkpt lat="47.16517" lon="-1.64237">
        <ele>34.02</ele>
        <time>2020-03-07T12:35:35Z</time>
      </trkpt>
      <trkpt lat="47.16525" lon="-1.64226">
        <ele>33.53</ele>
        <time>2020-03-07T12:35:37Z</time>
      </trkpt>
      <trkpt lat="47.16532" lon="-1.64216">
        <ele>33.16</ele>
        <time>2020-03-07T12:35:39Z</time>
      </trkpt>
      <trkpt lat="47.1654" lon="-1.64204">
        <ele>33.04</ele>
        <time>2020-03-07T12:35:41Z</time>
      </trkpt>
      <trkpt lat="47.16549" lon="-1.64189">
        <ele>32.67</ele>
        <time>2020-03-07T12:35:44Z</time>
      </trkpt>
      <trkpt lat="47.16557" lon="-1.64177">
        <ele>32.2</ele>
        <time>2020-03-07T12:35:46Z</time>
      </trkpt>
      <trkpt lat="47.16564" lon="-1.64165">
        <ele>30.35</ele>
        <time>2020-03-07T12:35:48Z</time>
      </trkpt>
      <trkpt lat="47.16571" lon="-1.64152">
        <ele>30.19</ele>
        <time>2020-03-07T12:35:50Z</time>
      </trkpt>
      <trkpt lat="47.16577" lon="-1.6414">
        <ele>31.55</ele>
        <time>2020-03-07T12:35:52Z</time>
      </trkpt>
      <trkpt lat="47.16582" lon="-1.64129">
        <ele>32.55</ele>
        <time>2020-03-07T12:35:54Z</time>
      </trkpt>
      <trkpt lat="47.16588" lon="-1.64117">
        <ele>34.11</ele>
        <time>2020-03-07T12:35:56Z</time>
      </trkpt>
      <trkpt lat="47.16593" lon="-1.64106">
        <ele>35.38</ele>
        <time>2020-03-07T12:35:58Z</time>
      </trkpt>
      <trkpt lat="47.166" lon="-1.64092">
        <ele>36.49</ele>
        <time>2020-03-07T12:36:00Z</time>
      </trkpt>
      <trkpt lat="47.16606" lon="-1.6408">
        <ele>36.83</ele>
        <time>2020-03-07T12:36:02Z</time>
      </trkpt>
      <trkpt lat="47.16614" lon="-1.64066">
        <ele>37.15</ele>
        <time>2020-03-07T12:36:04Z</time>
      </trkpt>
      <trkpt lat="47.16621" lon="-1.64053">
        <ele>36.72</ele>
        <time>2020-03-07T12:36:06Z</time>
      </trkpt>
      <trkpt lat="47.16627" lon="-1.6404">
        <ele>36.01</ele>
        <time>2020-03-07T12:36:08Z</time>
      </trkpt>
      <trkpt lat="47.16634" lon="-1.64025">
        <ele>35.68</ele>
        <time>2020-03-07T12:36:10Z</time>
      </trkpt>
      <trkpt lat="47.1664" lon="-1.6401">
        <ele>35.06</ele>
        <time>2020-03-07T12:36:12Z</time>
      </trkpt>
      <trkpt lat="47.16647" lon="-1.63994">
        <ele>34.85</ele>
        <time>2020-03-07T12:36:14Z</time>
      </trkpt>
      <trkpt lat="47.16653" lon="-1.63977">
        <ele>34.78</ele>
        <time>2020-03-07T12:36:16Z</time>
      </trkpt>
      <trkpt lat="47.16657" lon="-1.63965">
        <ele>35.39</ele>
        <time>2020-03-07T12:36:17Z</time>
      </trkpt>
      <trkpt lat="47.16664" lon="-1.63947">
        <ele>36.95</ele>
        <time>2020-03-07T12:36:19Z</time>
      </trkpt>
      <trkpt lat="47.1667" lon="-1.63931">
        <ele>37.43</ele>
        <time>2020-03-07T12:36:21Z</time>
      </trkpt>
      <trkpt lat="47.16676" lon="-1.6391">
        <ele>38.33</ele>
        <time>2020-03-07T12:36:23Z</time>
      </trkpt>
      <trkpt lat="47.1668" lon="-1.63889">
        <ele>38.65</ele>
        <time>2020-03-07T12:36:25Z</time>
      </trkpt>
      <trkpt lat="47.16684" lon="-1.6387">
        <ele>38.83</ele>
        <time>2020-03-07T12:36:27Z</time>
      </trkpt>
      <trkpt lat="47.16687" lon="-1.63851">
        <ele>39.17</ele>
        <time>2020-03-07T12:36:29Z</time>
      </trkpt>
      <trkpt lat="47.16691" lon="-1.63832">
        <ele>39.5</ele>
        <time>2020-03-07T12:36:31Z</time>
      </trkpt>
      <trkpt lat="47.16694" lon="-1.63813">
        <ele>38.82</ele>
        <time>2020-03-07T12:36:33Z</time>
      </trkpt>
      <trkpt lat="47.16697" lon="-1.63796">
        <ele>38.74</ele>
        <time>2020-03-07T12:36:35Z</time>
      </trkpt>
      <trkpt lat="47.167" lon="-1.63775">
        <ele>38.75</ele>
        <time>2020-03-07T12:36:37Z</time>
      </trkpt>
      <trkpt lat="47.16704" lon="-1.63758">
        <ele>38.71</ele>
        <time>2020-03-07T12:36:39Z</time>
      </trkpt>
      <trkpt lat="47.16707" lon="-1.63741">
        <ele>37.44</ele>
        <time>2020-03-07T12:36:41Z</time>
      </trkpt>
      <trkpt lat="47.16712" lon="-1.63723">
        <ele>35.43</ele>
        <time>2020-03-07T12:36:43Z</time>
      </trkpt>
      <trkpt lat="47.16718" lon="-1.63704">
        <ele>35.09</ele>
        <time>2020-03-07T12:36:45Z</time>
      </trkpt>
      <trkpt lat="47.16723" lon="-1.63685">
        <ele>35.61</ele>
        <time>2020-03-07T12:36:47Z</time>
      </trkpt>
      <trkpt lat="47.1673" lon="-1.63665">
        <ele>35.64</ele>
        <time>2020-03-07T12:36:49Z</time>
      </trkpt>
      <trkpt lat="47.16736" lon="-1.63649">
        <ele>35.73</ele>
        <time>2020-03-07T12:36:51Z</time>
      </trkpt>
      <trkpt lat="47.16742" lon="-1.63631">
        <ele>35.68</ele>
        <time>2020-03-07T12:36:53Z</time>
      </trkpt>
      <trkpt lat="47.16749" lon="-1.63617">
        <ele>36.14</ele>
        <time>2020-03-07T12:36:55Z</time>
      </trkpt>
      <trkpt lat="47.16758" lon="-1.63601">
        <ele>35.36</ele>
        <time>2020-03-07T12:36:57Z</time>
      </trkpt>
      <trkpt lat="47.16767" lon="-1.63587">
        <ele>35.58</ele>
        <time>2020-03-07T12:36:59Z</time>
      </trkpt>
      <trkpt lat="47.16774" lon="-1.63573">
        <ele>35.43</ele>
        <time>2020-03-07T12:37:01Z</time>
      </trkpt>
      <trkpt lat="47.16782" lon="-1.63559">
        <ele>35.61</ele>
        <time>2020-03-07T12:37:03Z</time>
      </trkpt>
      <trkpt lat="47.16791" lon="-1.63547">
        <ele>35.49</ele>
        <time>2020-03-07T12:37:05Z</time>
      </trkpt>
      <trkpt lat="47.16798" lon="-1.63535">
        <ele>35.15</ele>
        <time>2020-03-07T12:37:07Z</time>
      </trkpt>
      <trkpt lat="47.16807" lon="-1.63521">
        <ele>34.41</ele>
        <time>2020-03-07T12:37:09Z</time>
      </trkpt>
      <trkpt lat="47.16815" lon="-1.63508">
        <ele>34.69</ele>
        <time>2020-03-07T12:37:11Z</time>
      </trkpt>
      <trkpt lat="47.16822" lon="-1.63494">
        <ele>35.34</ele>
        <time>2020-03-07T12:37:13Z</time>
      </trkpt>
      <trkpt lat="47.1683" lon="-1.63479">
        <ele>35.64</ele>
        <time>2020-03-07T12:37:15Z</time>
      </trkpt>
      <trkpt lat="47.16838" lon="-1.63466">
        <ele>35.75</ele>
        <time>2020-03-07T12:37:17Z</time>
      </trkpt>
      <trkpt lat="47.16845" lon="-1.63453">
        <ele>34.9</ele>
        <time>2020-03-07T12:37:19Z</time>
      </trkpt>
      <trkpt lat="47.16852" lon="-1.6344">
        <ele>34.93</ele>
        <time>2020-03-07T12:37:21Z</time>
      </trkpt>
      <trkpt lat="47.1686" lon="-1.63425">
        <ele>35.52</ele>
        <time>2020-03-07T12:37:23Z</time>
      </trkpt>
      <trkpt lat="47.16868" lon="-1.63411">
        <ele>35.52</ele>
        <time>2020-03-07T12:37:25Z</time>
      </trkpt>
      <trkpt lat="47.16877" lon="-1.63395">
        <ele>36.39</ele>
        <time>2020-03-07T12:37:27Z</time>
      </trkpt>
      <trkpt lat="47.16886" lon="-1.63382">
        <ele>36.42</ele>
        <time>2020-03-07T12:37:29Z</time>
      </trkpt>
      <trkpt lat="47.16894" lon="-1.63368">
        <ele>36.94</ele>
        <time>2020-03-07T12:37:31Z</time>
      </trkpt>
      <trkpt lat="47.16904" lon="-1.63353">
        <ele>36.39</ele>
        <time>2020-03-07T12:37:33Z</time>
      </trkpt>
      <trkpt lat="47.16911" lon="-1.63341">
        <ele>36</ele>
        <time>2020-03-07T12:37:35Z</time>
      </trkpt>
      <trkpt lat="47.16921" lon="-1.63326">
        <ele>35.61</ele>
        <time>2020-03-07T12:37:37Z</time>
      </trkpt>
      <trkpt lat="47.16929" lon="-1.63313">
        <ele>34.87</ele>
        <time>2020-03-07T12:37:39Z</time>
      </trkpt>
      <trkpt lat="47.16938" lon="-1.63302">
        <ele>34.43</ele>
        <time>2020-03-07T12:37:41Z</time>
      </trkpt>
      <trkpt lat="47.16947" lon="-1.63289">
        <ele>33.94</ele>
        <time>2020-03-07T12:37:43Z</time>
      </trkpt>
      <trkpt lat="47.16956" lon="-1.63275">
        <ele>33.89</ele>
        <time>2020-03-07T12:37:45Z</time>
      </trkpt>
      <trkpt lat="47.16962" lon="-1.63265">
        <ele>33.08</ele>
        <time>2020-03-07T12:37:47Z</time>
      </trkpt>
      <trkpt lat="47.16966" lon="-1.63251">
        <ele>32.7</ele>
        <time>2020-03-07T12:37:49Z</time>
      </trkpt>
      <trkpt lat="47.16955" lon="-1.63241">
        <ele>32.99</ele>
        <time>2020-03-07T12:37:51Z</time>
      </trkpt>
      <trkpt lat="47.16943" lon="-1.63233">
        <ele>33.64</ele>
        <time>2020-03-07T12:37:53Z</time>
      </trkpt>
      <trkpt lat="47.16935" lon="-1.63224">
        <ele>35.16</ele>
        <time>2020-03-07T12:37:55Z</time>
      </trkpt>
      <trkpt lat="47.16926" lon="-1.63212">
        <ele>37.03</ele>
        <time>2020-03-07T12:37:57Z</time>
      </trkpt>
      <trkpt lat="47.16916" lon="-1.63196">
        <ele>38.1</ele>
        <time>2020-03-07T12:37:59Z</time>
      </trkpt>
      <trkpt lat="47.1691" lon="-1.63183">
        <ele>39.25</ele>
        <time>2020-03-07T12:38:01Z</time>
      </trkpt>
      <trkpt lat="47.16903" lon="-1.63167">
        <ele>39.69</ele>
        <time>2020-03-07T12:38:03Z</time>
      </trkpt>
      <trkpt lat="47.16898" lon="-1.63152">
        <ele>39.44</ele>
        <time>2020-03-07T12:38:05Z</time>
      </trkpt>
      <trkpt lat="47.16893" lon="-1.63137">
        <ele>39.44</ele>
        <time>2020-03-07T12:38:07Z</time>
      </trkpt>
      <trkpt lat="47.16889" lon="-1.63122">
        <ele>39.89</ele>
        <time>2020-03-07T12:38:09Z</time>
      </trkpt>
      <trkpt lat="47.16886" lon="-1.63104">
        <ele>39.81</ele>
        <time>2020-03-07T12:38:11Z</time>
      </trkpt>
      <trkpt lat="47.16883" lon="-1.63086">
        <ele>38.05</ele>
        <time>2020-03-07T12:38:13Z</time>
      </trkpt>
      <trkpt lat="47.16881" lon="-1.63068">
        <ele>36.16</ele>
        <time>2020-03-07T12:38:15Z</time>
      </trkpt>
      <trkpt lat="47.1688" lon="-1.63047">
        <ele>34.39</ele>
        <time>2020-03-07T12:38:17Z</time>
      </trkpt>
      <trkpt lat="47.16883" lon="-1.63027">
        <ele>33.73</ele>
        <time>2020-03-07T12:38:19Z</time>
      </trkpt>
      <trkpt lat="47.16885" lon="-1.63009">
        <ele>35.23</ele>
        <time>2020-03-07T12:38:21Z</time>
      </trkpt>
      <trkpt lat="47.16888" lon="-1.62991">
        <ele>35.97</ele>
        <time>2020-03-07T12:38:23Z</time>
      </trkpt>
      <trkpt lat="47.16889" lon="-1.62974">
        <ele>34.75</ele>
        <time>2020-03-07T12:38:25Z</time>
      </trkpt>
      <trkpt lat="47.1689" lon="-1.62956">
        <ele>34.09</ele>
        <time>2020-03-07T12:38:27Z</time>
      </trkpt>
      <trkpt lat="47.1689" lon="-1.62943">
        <ele>34.69</ele>
        <time>2020-03-07T12:38:29Z</time>
      </trkpt>
      <trkpt lat="47.16888" lon="-1.62928">
        <ele>35.22</ele>
        <time>2020-03-07T12:38:31Z</time>
      </trkpt>
      <trkpt lat="47.16884" lon="-1.62911">
        <ele>34.41</ele>
        <time>2020-03-07T12:38:33Z</time>
      </trkpt>
      <trkpt lat="47.16877" lon="-1.62895">
        <ele>32</ele>
        <time>2020-03-07T12:38:35Z</time>
      </trkpt>
      <trkpt lat="47.16866" lon="-1.62883">
        <ele>30.95</ele>
        <time>2020-03-07T12:38:37Z</time>
      </trkpt>
      <trkpt lat="47.16856" lon="-1.62872">
        <ele>31.26</ele>
        <time>2020-03-07T12:38:39Z</time>
      </trkpt>
      <trkpt lat="47.16845" lon="-1.62861">
        <ele>32.24</ele>
        <time>2020-03-07T12:38:41Z</time>
      </trkpt>
      <trkpt lat="47.16835" lon="-1.62851">
        <ele>31.68</ele>
        <time>2020-03-07T12:38:43Z</time>
      </trkpt>
      <trkpt lat="47.16823" lon="-1.62839">
        <ele>31.43</ele>
        <time>2020-03-07T12:38:45Z</time>
      </trkpt>
      <trkpt lat="47.16813" lon="-1.62829">
        <ele>31.83</ele>
        <time>2020-03-07T12:38:47Z</time>
      </trkpt>
      <trkpt lat="47.16804" lon="-1.62821">
        <ele>32.42</ele>
        <time>2020-03-07T12:38:49Z</time>
      </trkpt>
      <trkpt lat="47.16795" lon="-1.62811">
        <ele>32.51</ele>
        <time>2020-03-07T12:38:51Z</time>
      </trkpt>
      <trkpt lat="47.16783" lon="-1.62801">
        <ele>31.89</ele>
        <time>2020-03-07T12:38:53Z</time>
      </trkpt>
      <trkpt lat="47.16772" lon="-1.62793">
        <ele>31.5</ele>
        <time>2020-03-07T12:38:55Z</time>
      </trkpt>
      <trkpt lat="47.16762" lon="-1.62785">
        <ele>30.81</ele>
        <time>2020-03-07T12:38:57Z</time>
      </trkpt>
      <trkpt lat="47.16751" lon="-1.62775">
        <ele>29.44</ele>
        <time>2020-03-07T12:39:00Z</time>
      </trkpt>
      <trkpt lat="47.16743" lon="-1.62765">
        <ele>29.39</ele>
        <time>2020-03-07T12:39:02Z</time>
      </trkpt>
      <trkpt lat="47.16733" lon="-1.62751">
        <ele>29.52</ele>
        <time>2020-03-07T12:39:04Z</time>
      </trkpt>
      <trkpt lat="47.16725" lon="-1.62738">
        <ele>29.17</ele>
        <time>2020-03-07T12:39:07Z</time>
      </trkpt>
      <trkpt lat="47.1672" lon="-1.62725">
        <ele>28.39</ele>
        <time>2020-03-07T12:39:09Z</time>
      </trkpt>
      <trkpt lat="47.16715" lon="-1.62713">
        <ele>27.67</ele>
        <time>2020-03-07T12:39:11Z</time>
      </trkpt>
      <trkpt lat="47.16717" lon="-1.62697">
        <ele>26.05</ele>
        <time>2020-03-07T12:39:13Z</time>
      </trkpt>
      <trkpt lat="47.16727" lon="-1.62689">
        <ele>24.78</ele>
        <time>2020-03-07T12:39:16Z</time>
      </trkpt>
      <trkpt lat="47.16736" lon="-1.62683">
        <ele>23.93</ele>
        <time>2020-03-07T12:39:18Z</time>
      </trkpt>
      <trkpt lat="47.16748" lon="-1.62674">
        <ele>22.38</ele>
        <time>2020-03-07T12:39:22Z</time>
      </trkpt>
      <trkpt lat="47.16761" lon="-1.6268">
        <ele>22.31</ele>
        <time>2020-03-07T12:39:25Z</time>
      </trkpt>
      <trkpt lat="47.16772" lon="-1.62687">
        <ele>22.37</ele>
        <time>2020-03-07T12:39:28Z</time>
      </trkpt>
      <trkpt lat="47.1678" lon="-1.62677">
        <ele>22.46</ele>
        <time>2020-03-07T12:39:32Z</time>
      </trkpt>
      <trkpt lat="47.16781" lon="-1.62663">
        <ele>22.18</ele>
        <time>2020-03-07T12:39:55Z</time>
      </trkpt>
      <trkpt lat="47.16773" lon="-1.62668">
        <ele>15.73</ele>
        <time>2020-03-07T12:45:11Z</time>
      </trkpt>
      <trkpt lat="47.16782" lon="-1.62667">
        <ele>15.21</ele>
        <time>2020-03-07T12:47:17Z</time>
      </trkpt>
      <trkpt lat="47.16773" lon="-1.62663">
        <ele>17.48</ele>
        <time>2020-03-07T12:52:11Z</time>
      </trkpt>
      <trkpt lat="47.16782" lon="-1.62666">
        <ele>17.62</ele>
        <time>2020-03-07T12:54:50Z</time>
      </trkpt>
      <trkpt lat="47.16776" lon="-1.62656">
        <ele>18.85</ele>
        <time>2020-03-07T12:55:58Z</time>
      </trkpt>
    </trkseg>
  </trk>
</gpx>